<?xml version="1.0" encoding="UTF-8" standalone="no" ?>
<gpx xmlns="http://www.topografix.com/GPX/1/1" xmlns:xsi="http://www.w3.org/2001/XMLSchema-instance" xsi:schemaLocation="http://www.topografix.com/GPX/1/1 http://www.topografix.com/GPX/1/1/gpx.xsd" version="1.1" creator="VisuGPX - https://www.visugpx.com">
  <metadata>
    <name>Vosges - Pyrénées 72. De Lodève au Pont du Diable (sur la Mare)</name>
    <desc><![CDATA[Trace AlpineQuest 19/05/2026 07:49:01]]></desc>
  </metadata>
  <trk>
    <name><![CDATA[visugpx_N68IYClA06_1]]></name>
    <extensions>
      <line xmlns="http://www.topografix.com/GPX/gpx_style/0/2">
        <color>0000FF</color>
        <width>4</width>
      </line>
    </extensions>
    <trkseg>
      <trkpt lat="43.73445" lon="3.31381">
        <ele>182</ele>
        <time>2026-05-19T05:49:01Z</time>
      </trkpt>
      <trkpt lat="43.73449" lon="3.31387">
        <ele>182</ele>
        <time>2026-05-19T05:49:07Z</time>
      </trkpt>
      <trkpt lat="43.73449" lon="3.31387">
        <ele>182</ele>
        <time>2026-05-19T05:49:12Z</time>
      </trkpt>
      <trkpt lat="43.73449" lon="3.31387">
        <ele>182</ele>
        <time>2026-05-19T05:49:17Z</time>
      </trkpt>
      <trkpt lat="43.73449" lon="3.31387">
        <ele>182</ele>
        <time>2026-05-19T05:49:22Z</time>
      </trkpt>
      <trkpt lat="43.7344" lon="3.31381">
        <ele>181.8</ele>
        <time>2026-05-19T05:49:27Z</time>
      </trkpt>
      <trkpt lat="43.73438" lon="3.31381">
        <ele>181.8</ele>
        <time>2026-05-19T05:49:32Z</time>
      </trkpt>
      <trkpt lat="43.73436" lon="3.31383">
        <ele>181.7</ele>
        <time>2026-05-19T05:49:37Z</time>
      </trkpt>
      <trkpt lat="43.73431" lon="3.31386">
        <ele>181.4</ele>
        <time>2026-05-19T05:49:42Z</time>
      </trkpt>
      <trkpt lat="43.7343" lon="3.31386">
        <ele>181.4</ele>
        <time>2026-05-19T05:49:47Z</time>
      </trkpt>
      <trkpt lat="43.73428" lon="3.31388">
        <ele>181.3</ele>
        <time>2026-05-19T05:49:52Z</time>
      </trkpt>
      <trkpt lat="43.73426" lon="3.31392">
        <ele>181.2</ele>
        <time>2026-05-19T05:49:57Z</time>
      </trkpt>
      <trkpt lat="43.73423" lon="3.31395">
        <ele>181.1</ele>
        <time>2026-05-19T05:50:02Z</time>
      </trkpt>
      <trkpt lat="43.73423" lon="3.31395">
        <ele>181.1</ele>
        <time>2026-05-19T05:50:07Z</time>
      </trkpt>
      <trkpt lat="43.73423" lon="3.31395">
        <ele>181.1</ele>
        <time>2026-05-19T05:50:12Z</time>
      </trkpt>
      <trkpt lat="43.7342" lon="3.31398">
        <ele>181.1</ele>
        <time>2026-05-19T05:50:17Z</time>
      </trkpt>
      <trkpt lat="43.73415" lon="3.31404">
        <ele>180.9</ele>
        <time>2026-05-19T05:50:22Z</time>
      </trkpt>
      <trkpt lat="43.73412" lon="3.3141">
        <ele>180.8</ele>
        <time>2026-05-19T05:50:27Z</time>
      </trkpt>
      <trkpt lat="43.73408" lon="3.31413">
        <ele>180.7</ele>
        <time>2026-05-19T05:50:32Z</time>
      </trkpt>
      <trkpt lat="43.73403" lon="3.31409">
        <ele>180.5</ele>
        <time>2026-05-19T05:50:37Z</time>
      </trkpt>
      <trkpt lat="43.73398" lon="3.31407">
        <ele>180.4</ele>
        <time>2026-05-19T05:50:42Z</time>
      </trkpt>
      <trkpt lat="43.73391" lon="3.31402">
        <ele>180.1</ele>
        <time>2026-05-19T05:50:47Z</time>
      </trkpt>
      <trkpt lat="43.73386" lon="3.31396">
        <ele>180</ele>
        <time>2026-05-19T05:50:52Z</time>
      </trkpt>
      <trkpt lat="43.73381" lon="3.31392">
        <ele>179.8</ele>
        <time>2026-05-19T05:50:57Z</time>
      </trkpt>
      <trkpt lat="43.73375" lon="3.31389">
        <ele>179.7</ele>
        <time>2026-05-19T05:51:02Z</time>
      </trkpt>
      <trkpt lat="43.7337" lon="3.31387">
        <ele>179.5</ele>
        <time>2026-05-19T05:51:07Z</time>
      </trkpt>
      <trkpt lat="43.73365" lon="3.3138">
        <ele>179.4</ele>
        <time>2026-05-19T05:51:12Z</time>
      </trkpt>
      <trkpt lat="43.73358" lon="3.31374">
        <ele>179.2</ele>
        <time>2026-05-19T05:51:17Z</time>
      </trkpt>
      <trkpt lat="43.73354" lon="3.31371">
        <ele>179.2</ele>
        <time>2026-05-19T05:51:22Z</time>
      </trkpt>
      <trkpt lat="43.73349" lon="3.31367">
        <ele>179</ele>
        <time>2026-05-19T05:51:27Z</time>
      </trkpt>
      <trkpt lat="43.73342" lon="3.31359">
        <ele>178.9</ele>
        <time>2026-05-19T05:51:32Z</time>
      </trkpt>
      <trkpt lat="43.73335" lon="3.31354">
        <ele>178.8</ele>
        <time>2026-05-19T05:51:37Z</time>
      </trkpt>
      <trkpt lat="43.73326" lon="3.31349">
        <ele>178.2</ele>
        <time>2026-05-19T05:51:42Z</time>
      </trkpt>
      <trkpt lat="43.73323" lon="3.31352">
        <ele>177.9</ele>
        <time>2026-05-19T05:51:47Z</time>
      </trkpt>
      <trkpt lat="43.73319" lon="3.31363">
        <ele>177.5</ele>
        <time>2026-05-19T05:51:52Z</time>
      </trkpt>
      <trkpt lat="43.73315" lon="3.31373">
        <ele>177.1</ele>
        <time>2026-05-19T05:51:57Z</time>
      </trkpt>
      <trkpt lat="43.73312" lon="3.31382">
        <ele>176.8</ele>
        <time>2026-05-19T05:52:02Z</time>
      </trkpt>
      <trkpt lat="43.73309" lon="3.31392">
        <ele>176.5</ele>
        <time>2026-05-19T05:52:07Z</time>
      </trkpt>
      <trkpt lat="43.73305" lon="3.314">
        <ele>176.1</ele>
        <time>2026-05-19T05:52:12Z</time>
      </trkpt>
      <trkpt lat="43.73302" lon="3.31407">
        <ele>175.8</ele>
        <time>2026-05-19T05:52:17Z</time>
      </trkpt>
      <trkpt lat="43.733" lon="3.31408">
        <ele>175.7</ele>
        <time>2026-05-19T05:52:22Z</time>
      </trkpt>
      <trkpt lat="43.73293" lon="3.31402">
        <ele>175.2</ele>
        <time>2026-05-19T05:52:27Z</time>
      </trkpt>
      <trkpt lat="43.73286" lon="3.31407">
        <ele>174.6</ele>
        <time>2026-05-19T05:52:32Z</time>
      </trkpt>
      <trkpt lat="43.73281" lon="3.31419">
        <ele>174.2</ele>
        <time>2026-05-19T05:52:37Z</time>
      </trkpt>
      <trkpt lat="43.73275" lon="3.31426">
        <ele>173.8</ele>
        <time>2026-05-19T05:52:42Z</time>
      </trkpt>
      <trkpt lat="43.73273" lon="3.31433">
        <ele>173.6</ele>
        <time>2026-05-19T05:52:47Z</time>
      </trkpt>
      <trkpt lat="43.73271" lon="3.31444">
        <ele>173.4</ele>
        <time>2026-05-19T05:52:52Z</time>
      </trkpt>
      <trkpt lat="43.73269" lon="3.31451">
        <ele>173.3</ele>
        <time>2026-05-19T05:52:57Z</time>
      </trkpt>
      <trkpt lat="43.73265" lon="3.31461">
        <ele>173</ele>
        <time>2026-05-19T05:53:02Z</time>
      </trkpt>
      <trkpt lat="43.73262" lon="3.31468">
        <ele>172.8</ele>
        <time>2026-05-19T05:53:07Z</time>
      </trkpt>
      <trkpt lat="43.73259" lon="3.31476">
        <ele>172.6</ele>
        <time>2026-05-19T05:53:12Z</time>
      </trkpt>
      <trkpt lat="43.73256" lon="3.31484">
        <ele>172.4</ele>
        <time>2026-05-19T05:53:17Z</time>
      </trkpt>
      <trkpt lat="43.73253" lon="3.31491">
        <ele>172.2</ele>
        <time>2026-05-19T05:53:22Z</time>
      </trkpt>
      <trkpt lat="43.73252" lon="3.31498">
        <ele>172.1</ele>
        <time>2026-05-19T05:53:27Z</time>
      </trkpt>
      <trkpt lat="43.73251" lon="3.31505">
        <ele>172.1</ele>
        <time>2026-05-19T05:53:32Z</time>
      </trkpt>
      <trkpt lat="43.73249" lon="3.31513">
        <ele>172</ele>
        <time>2026-05-19T05:53:37Z</time>
      </trkpt>
      <trkpt lat="43.73248" lon="3.31518">
        <ele>171.9</ele>
        <time>2026-05-19T05:53:42Z</time>
      </trkpt>
      <trkpt lat="43.73245" lon="3.31526">
        <ele>171.8</ele>
        <time>2026-05-19T05:53:47Z</time>
      </trkpt>
      <trkpt lat="43.73241" lon="3.31537">
        <ele>171.7</ele>
        <time>2026-05-19T05:53:52Z</time>
      </trkpt>
      <trkpt lat="43.73237" lon="3.31547">
        <ele>171.5</ele>
        <time>2026-05-19T05:53:57Z</time>
      </trkpt>
      <trkpt lat="43.73232" lon="3.31554">
        <ele>171.4</ele>
        <time>2026-05-19T05:54:02Z</time>
      </trkpt>
      <trkpt lat="43.7323" lon="3.31564">
        <ele>171.3</ele>
        <time>2026-05-19T05:54:07Z</time>
      </trkpt>
      <trkpt lat="43.73228" lon="3.31574">
        <ele>171.2</ele>
        <time>2026-05-19T05:54:12Z</time>
      </trkpt>
      <trkpt lat="43.73226" lon="3.31581">
        <ele>171.1</ele>
        <time>2026-05-19T05:54:17Z</time>
      </trkpt>
      <trkpt lat="43.73223" lon="3.31589">
        <ele>171.3</ele>
        <time>2026-05-19T05:54:22Z</time>
      </trkpt>
      <trkpt lat="43.73219" lon="3.31598">
        <ele>171.5</ele>
        <time>2026-05-19T05:54:27Z</time>
      </trkpt>
      <trkpt lat="43.73217" lon="3.31607">
        <ele>171.7</ele>
        <time>2026-05-19T05:54:32Z</time>
      </trkpt>
      <trkpt lat="43.73218" lon="3.31616">
        <ele>172.1</ele>
        <time>2026-05-19T05:54:37Z</time>
      </trkpt>
      <trkpt lat="43.73217" lon="3.31623">
        <ele>172.3</ele>
        <time>2026-05-19T05:54:42Z</time>
      </trkpt>
      <trkpt lat="43.73216" lon="3.31626">
        <ele>172.4</ele>
        <time>2026-05-19T05:54:47Z</time>
      </trkpt>
      <trkpt lat="43.73215" lon="3.31635">
        <ele>172.7</ele>
        <time>2026-05-19T05:54:52Z</time>
      </trkpt>
      <trkpt lat="43.73214" lon="3.31639">
        <ele>172.8</ele>
        <time>2026-05-19T05:54:57Z</time>
      </trkpt>
      <trkpt lat="43.73211" lon="3.31642">
        <ele>172.8</ele>
        <time>2026-05-19T05:55:02Z</time>
      </trkpt>
      <trkpt lat="43.73206" lon="3.31648">
        <ele>172.7</ele>
        <time>2026-05-19T05:55:07Z</time>
      </trkpt>
      <trkpt lat="43.732" lon="3.31652">
        <ele>172.5</ele>
        <time>2026-05-19T05:55:12Z</time>
      </trkpt>
      <trkpt lat="43.73195" lon="3.31656">
        <ele>172.4</ele>
        <time>2026-05-19T05:55:17Z</time>
      </trkpt>
      <trkpt lat="43.7319" lon="3.31659">
        <ele>172.2</ele>
        <time>2026-05-19T05:55:22Z</time>
      </trkpt>
      <trkpt lat="43.73184" lon="3.31664">
        <ele>172</ele>
        <time>2026-05-19T05:55:27Z</time>
      </trkpt>
      <trkpt lat="43.73176" lon="3.3167">
        <ele>171.6</ele>
        <time>2026-05-19T05:55:32Z</time>
      </trkpt>
      <trkpt lat="43.73172" lon="3.31672">
        <ele>171.4</ele>
        <time>2026-05-19T05:55:37Z</time>
      </trkpt>
      <trkpt lat="43.73168" lon="3.31676">
        <ele>171.2</ele>
        <time>2026-05-19T05:55:42Z</time>
      </trkpt>
      <trkpt lat="43.73162" lon="3.31681">
        <ele>170.9</ele>
        <time>2026-05-19T05:55:47Z</time>
      </trkpt>
      <trkpt lat="43.73161" lon="3.31682">
        <ele>170.9</ele>
        <time>2026-05-19T05:55:52Z</time>
      </trkpt>
      <trkpt lat="43.73162" lon="3.31685">
        <ele>171</ele>
        <time>2026-05-19T05:55:57Z</time>
      </trkpt>
      <trkpt lat="43.73159" lon="3.3169">
        <ele>170.9</ele>
        <time>2026-05-19T05:56:02Z</time>
      </trkpt>
      <trkpt lat="43.73155" lon="3.31696">
        <ele>170.8</ele>
        <time>2026-05-19T05:56:07Z</time>
      </trkpt>
      <trkpt lat="43.7315" lon="3.31702">
        <ele>170.6</ele>
        <time>2026-05-19T05:56:12Z</time>
      </trkpt>
      <trkpt lat="43.73145" lon="3.31708">
        <ele>170.5</ele>
        <time>2026-05-19T05:56:17Z</time>
      </trkpt>
      <trkpt lat="43.73141" lon="3.31711">
        <ele>170.3</ele>
        <time>2026-05-19T05:56:22Z</time>
      </trkpt>
      <trkpt lat="43.73139" lon="3.31715">
        <ele>170.3</ele>
        <time>2026-05-19T05:56:27Z</time>
      </trkpt>
      <trkpt lat="43.73135" lon="3.31719">
        <ele>170.1</ele>
        <time>2026-05-19T05:56:32Z</time>
      </trkpt>
      <trkpt lat="43.73134" lon="3.31721">
        <ele>170.1</ele>
        <time>2026-05-19T05:56:37Z</time>
      </trkpt>
      <trkpt lat="43.73131" lon="3.31727">
        <ele>170</ele>
        <time>2026-05-19T05:56:42Z</time>
      </trkpt>
      <trkpt lat="43.73126" lon="3.31735">
        <ele>169.9</ele>
        <time>2026-05-19T05:56:47Z</time>
      </trkpt>
      <trkpt lat="43.73121" lon="3.31739">
        <ele>169.7</ele>
        <time>2026-05-19T05:56:52Z</time>
      </trkpt>
      <trkpt lat="43.73121" lon="3.31746">
        <ele>169.8</ele>
        <time>2026-05-19T05:56:57Z</time>
      </trkpt>
      <trkpt lat="43.73119" lon="3.31752">
        <ele>169.7</ele>
        <time>2026-05-19T05:57:02Z</time>
      </trkpt>
      <trkpt lat="43.73117" lon="3.31758">
        <ele>169.4</ele>
        <time>2026-05-19T05:57:07Z</time>
      </trkpt>
      <trkpt lat="43.73116" lon="3.3176">
        <ele>169.3</ele>
        <time>2026-05-19T05:57:12Z</time>
      </trkpt>
      <trkpt lat="43.73114" lon="3.31765">
        <ele>169.1</ele>
        <time>2026-05-19T05:57:17Z</time>
      </trkpt>
      <trkpt lat="43.73112" lon="3.3177">
        <ele>168.9</ele>
        <time>2026-05-19T05:57:22Z</time>
      </trkpt>
      <trkpt lat="43.7311" lon="3.31776">
        <ele>168.6</ele>
        <time>2026-05-19T05:57:27Z</time>
      </trkpt>
      <trkpt lat="43.73108" lon="3.31782">
        <ele>168.4</ele>
        <time>2026-05-19T05:57:32Z</time>
      </trkpt>
      <trkpt lat="43.73108" lon="3.31785">
        <ele>168.3</ele>
        <time>2026-05-19T05:57:37Z</time>
      </trkpt>
      <trkpt lat="43.73109" lon="3.31787">
        <ele>168.3</ele>
        <time>2026-05-19T05:57:42Z</time>
      </trkpt>
      <trkpt lat="43.73109" lon="3.31787">
        <ele>168.3</ele>
        <time>2026-05-19T05:57:47Z</time>
      </trkpt>
      <trkpt lat="43.73109" lon="3.31787">
        <ele>168.3</ele>
        <time>2026-05-19T05:57:52Z</time>
      </trkpt>
      <trkpt lat="43.73109" lon="3.31787">
        <ele>168.3</ele>
        <time>2026-05-19T05:57:57Z</time>
      </trkpt>
      <trkpt lat="43.73111" lon="3.31794">
        <ele>168.3</ele>
        <time>2026-05-19T05:58:02Z</time>
      </trkpt>
      <trkpt lat="43.73113" lon="3.31799">
        <ele>168.3</ele>
        <time>2026-05-19T05:58:07Z</time>
      </trkpt>
      <trkpt lat="43.73115" lon="3.31806">
        <ele>168.3</ele>
        <time>2026-05-19T05:58:12Z</time>
      </trkpt>
      <trkpt lat="43.73114" lon="3.31812">
        <ele>168.1</ele>
        <time>2026-05-19T05:58:17Z</time>
      </trkpt>
      <trkpt lat="43.73113" lon="3.3182">
        <ele>167.8</ele>
        <time>2026-05-19T05:58:22Z</time>
      </trkpt>
      <trkpt lat="43.7311" lon="3.31825">
        <ele>167.4</ele>
        <time>2026-05-19T05:58:27Z</time>
      </trkpt>
      <trkpt lat="43.73108" lon="3.31831">
        <ele>167.1</ele>
        <time>2026-05-19T05:58:32Z</time>
      </trkpt>
      <trkpt lat="43.73108" lon="3.31833">
        <ele>167.1</ele>
        <time>2026-05-19T05:58:37Z</time>
      </trkpt>
      <trkpt lat="43.73109" lon="3.31834">
        <ele>167.2</ele>
        <time>2026-05-19T05:58:42Z</time>
      </trkpt>
      <trkpt lat="43.73109" lon="3.31834">
        <ele>167.2</ele>
        <time>2026-05-19T05:58:47Z</time>
      </trkpt>
      <trkpt lat="43.73103" lon="3.31827">
        <ele>166.8</ele>
        <time>2026-05-19T05:58:52Z</time>
      </trkpt>
      <trkpt lat="43.73095" lon="3.31829">
        <ele>166.1</ele>
        <time>2026-05-19T05:58:57Z</time>
      </trkpt>
      <trkpt lat="43.73092" lon="3.31821">
        <ele>166.1</ele>
        <time>2026-05-19T05:59:02Z</time>
      </trkpt>
      <trkpt lat="43.73088" lon="3.31813">
        <ele>166.1</ele>
        <time>2026-05-19T05:59:07Z</time>
      </trkpt>
      <trkpt lat="43.73084" lon="3.31806">
        <ele>166</ele>
        <time>2026-05-19T05:59:12Z</time>
      </trkpt>
      <trkpt lat="43.73078" lon="3.31803">
        <ele>166.9</ele>
        <time>2026-05-19T05:59:17Z</time>
      </trkpt>
      <trkpt lat="43.73077" lon="3.3181">
        <ele>166.8</ele>
        <time>2026-05-19T05:59:22Z</time>
      </trkpt>
      <trkpt lat="43.73076" lon="3.31819">
        <ele>166.7</ele>
        <time>2026-05-19T05:59:27Z</time>
      </trkpt>
      <trkpt lat="43.73075" lon="3.31828">
        <ele>166.5</ele>
        <time>2026-05-19T05:59:32Z</time>
      </trkpt>
      <trkpt lat="43.73074" lon="3.31835">
        <ele>166.4</ele>
        <time>2026-05-19T05:59:37Z</time>
      </trkpt>
      <trkpt lat="43.73073" lon="3.31845">
        <ele>166.4</ele>
        <time>2026-05-19T05:59:42Z</time>
      </trkpt>
      <trkpt lat="43.73072" lon="3.31853">
        <ele>166.4</ele>
        <time>2026-05-19T05:59:47Z</time>
      </trkpt>
      <trkpt lat="43.7307" lon="3.31861">
        <ele>166.5</ele>
        <time>2026-05-19T05:59:52Z</time>
      </trkpt>
      <trkpt lat="43.73067" lon="3.3187">
        <ele>166.8</ele>
        <time>2026-05-19T05:59:57Z</time>
      </trkpt>
      <trkpt lat="43.73066" lon="3.31868">
        <ele>166.9</ele>
        <time>2026-05-19T06:00:02Z</time>
      </trkpt>
      <trkpt lat="43.73066" lon="3.31869">
        <ele>166.9</ele>
        <time>2026-05-19T06:00:07Z</time>
      </trkpt>
      <trkpt lat="43.73066" lon="3.31869">
        <ele>166.9</ele>
        <time>2026-05-19T06:00:12Z</time>
      </trkpt>
      <trkpt lat="43.73066" lon="3.31869">
        <ele>166.9</ele>
        <time>2026-05-19T06:00:17Z</time>
      </trkpt>
      <trkpt lat="43.73066" lon="3.31869">
        <ele>166.9</ele>
        <time>2026-05-19T06:00:22Z</time>
      </trkpt>
      <trkpt lat="43.73062" lon="3.31874">
        <ele>167.3</ele>
        <time>2026-05-19T06:00:27Z</time>
      </trkpt>
      <trkpt lat="43.7306" lon="3.31878">
        <ele>167.5</ele>
        <time>2026-05-19T06:00:32Z</time>
      </trkpt>
      <trkpt lat="43.73057" lon="3.31877">
        <ele>167.9</ele>
        <time>2026-05-19T06:00:37Z</time>
      </trkpt>
      <trkpt lat="43.73054" lon="3.31876">
        <ele>168.3</ele>
        <time>2026-05-19T06:00:42Z</time>
      </trkpt>
      <trkpt lat="43.73054" lon="3.31877">
        <ele>168.3</ele>
        <time>2026-05-19T06:00:47Z</time>
      </trkpt>
      <trkpt lat="43.73053" lon="3.31877">
        <ele>168.4</ele>
        <time>2026-05-19T06:00:52Z</time>
      </trkpt>
      <trkpt lat="43.73053" lon="3.31877">
        <ele>168.4</ele>
        <time>2026-05-19T06:00:57Z</time>
      </trkpt>
      <trkpt lat="43.73053" lon="3.31877">
        <ele>168.4</ele>
        <time>2026-05-19T06:01:02Z</time>
      </trkpt>
      <trkpt lat="43.73053" lon="3.31877">
        <ele>168.4</ele>
        <time>2026-05-19T06:01:07Z</time>
      </trkpt>
      <trkpt lat="43.73053" lon="3.31877">
        <ele>168.4</ele>
        <time>2026-05-19T06:01:12Z</time>
      </trkpt>
      <trkpt lat="43.73053" lon="3.31877">
        <ele>168.4</ele>
        <time>2026-05-19T06:01:17Z</time>
      </trkpt>
      <trkpt lat="43.73053" lon="3.31877">
        <ele>168.4</ele>
        <time>2026-05-19T06:01:22Z</time>
      </trkpt>
      <trkpt lat="43.73053" lon="3.31877">
        <ele>168.4</ele>
        <time>2026-05-19T06:01:27Z</time>
      </trkpt>
      <trkpt lat="43.73053" lon="3.31877">
        <ele>168.4</ele>
        <time>2026-05-19T06:01:32Z</time>
      </trkpt>
      <trkpt lat="43.73053" lon="3.31877">
        <ele>168.4</ele>
        <time>2026-05-19T06:01:37Z</time>
      </trkpt>
      <trkpt lat="43.73053" lon="3.31877">
        <ele>168.4</ele>
        <time>2026-05-19T06:01:42Z</time>
      </trkpt>
      <trkpt lat="43.73053" lon="3.31877">
        <ele>168.4</ele>
        <time>2026-05-19T06:01:47Z</time>
      </trkpt>
      <trkpt lat="43.73053" lon="3.31877">
        <ele>168.4</ele>
        <time>2026-05-19T06:01:52Z</time>
      </trkpt>
      <trkpt lat="43.73053" lon="3.31877">
        <ele>168.4</ele>
        <time>2026-05-19T06:01:57Z</time>
      </trkpt>
      <trkpt lat="43.73053" lon="3.31877">
        <ele>168.4</ele>
        <time>2026-05-19T06:02:02Z</time>
      </trkpt>
      <trkpt lat="43.73053" lon="3.31877">
        <ele>168.4</ele>
        <time>2026-05-19T06:02:07Z</time>
      </trkpt>
      <trkpt lat="43.73053" lon="3.31877">
        <ele>168.4</ele>
        <time>2026-05-19T06:02:12Z</time>
      </trkpt>
      <trkpt lat="43.73053" lon="3.31877">
        <ele>168.4</ele>
        <time>2026-05-19T06:02:17Z</time>
      </trkpt>
      <trkpt lat="43.73053" lon="3.31877">
        <ele>168.4</ele>
        <time>2026-05-19T06:02:22Z</time>
      </trkpt>
      <trkpt lat="43.73053" lon="3.31877">
        <ele>168.4</ele>
        <time>2026-05-19T06:02:27Z</time>
      </trkpt>
      <trkpt lat="43.73052" lon="3.31887">
        <ele>168.3</ele>
        <time>2026-05-19T06:02:32Z</time>
      </trkpt>
      <trkpt lat="43.73051" lon="3.31891">
        <ele>168.3</ele>
        <time>2026-05-19T06:02:37Z</time>
      </trkpt>
      <trkpt lat="43.73049" lon="3.31897">
        <ele>168.3</ele>
        <time>2026-05-19T06:02:42Z</time>
      </trkpt>
      <trkpt lat="43.73048" lon="3.31904">
        <ele>168.2</ele>
        <time>2026-05-19T06:02:47Z</time>
      </trkpt>
      <trkpt lat="43.73046" lon="3.31909">
        <ele>168.3</ele>
        <time>2026-05-19T06:02:52Z</time>
      </trkpt>
      <trkpt lat="43.73045" lon="3.31916">
        <ele>168.2</ele>
        <time>2026-05-19T06:02:57Z</time>
      </trkpt>
      <trkpt lat="43.73043" lon="3.31921">
        <ele>168.2</ele>
        <time>2026-05-19T06:03:02Z</time>
      </trkpt>
      <trkpt lat="43.73043" lon="3.31919">
        <ele>168.3</ele>
        <time>2026-05-19T06:03:07Z</time>
      </trkpt>
      <trkpt lat="43.73045" lon="3.31913">
        <ele>168.3</ele>
        <time>2026-05-19T06:03:12Z</time>
      </trkpt>
      <trkpt lat="43.73047" lon="3.31905">
        <ele>168.3</ele>
        <time>2026-05-19T06:03:17Z</time>
      </trkpt>
      <trkpt lat="43.73048" lon="3.31899">
        <ele>168.4</ele>
        <time>2026-05-19T06:03:22Z</time>
      </trkpt>
      <trkpt lat="43.7305" lon="3.31892">
        <ele>168.4</ele>
        <time>2026-05-19T06:03:27Z</time>
      </trkpt>
      <trkpt lat="43.73052" lon="3.31886">
        <ele>168.3</ele>
        <time>2026-05-19T06:03:32Z</time>
      </trkpt>
      <trkpt lat="43.73052" lon="3.31881">
        <ele>168.5</ele>
        <time>2026-05-19T06:03:37Z</time>
      </trkpt>
      <trkpt lat="43.73045" lon="3.31874">
        <ele>169.6</ele>
        <time>2026-05-19T06:03:42Z</time>
      </trkpt>
      <trkpt lat="43.73041" lon="3.3187">
        <ele>170.3</ele>
        <time>2026-05-19T06:03:47Z</time>
      </trkpt>
      <trkpt lat="43.73036" lon="3.31867">
        <ele>171.1</ele>
        <time>2026-05-19T06:03:52Z</time>
      </trkpt>
      <trkpt lat="43.73033" lon="3.31865">
        <ele>171.6</ele>
        <time>2026-05-19T06:03:57Z</time>
      </trkpt>
      <trkpt lat="43.73032" lon="3.31864">
        <ele>171.7</ele>
        <time>2026-05-19T06:04:02Z</time>
      </trkpt>
      <trkpt lat="43.73032" lon="3.31864">
        <ele>171.7</ele>
        <time>2026-05-19T06:04:07Z</time>
      </trkpt>
      <trkpt lat="43.73032" lon="3.31864">
        <ele>171.7</ele>
        <time>2026-05-19T06:04:12Z</time>
      </trkpt>
      <trkpt lat="43.73032" lon="3.31864">
        <ele>171.7</ele>
        <time>2026-05-19T06:04:17Z</time>
      </trkpt>
      <trkpt lat="43.73032" lon="3.31864">
        <ele>171.7</ele>
        <time>2026-05-19T06:04:22Z</time>
      </trkpt>
      <trkpt lat="43.73032" lon="3.31864">
        <ele>171.7</ele>
        <time>2026-05-19T06:04:27Z</time>
      </trkpt>
      <trkpt lat="43.73032" lon="3.31864">
        <ele>171.7</ele>
        <time>2026-05-19T06:04:32Z</time>
      </trkpt>
      <trkpt lat="43.73032" lon="3.31864">
        <ele>171.7</ele>
        <time>2026-05-19T06:04:37Z</time>
      </trkpt>
      <trkpt lat="43.73032" lon="3.31864">
        <ele>171.7</ele>
        <time>2026-05-19T06:04:42Z</time>
      </trkpt>
      <trkpt lat="43.73032" lon="3.31864">
        <ele>171.7</ele>
        <time>2026-05-19T06:04:47Z</time>
      </trkpt>
      <trkpt lat="43.73032" lon="3.31864">
        <ele>171.7</ele>
        <time>2026-05-19T06:04:52Z</time>
      </trkpt>
      <trkpt lat="43.73032" lon="3.31864">
        <ele>171.7</ele>
        <time>2026-05-19T06:04:57Z</time>
      </trkpt>
      <trkpt lat="43.73032" lon="3.31864">
        <ele>171.7</ele>
        <time>2026-05-19T06:05:02Z</time>
      </trkpt>
      <trkpt lat="43.73028" lon="3.31862">
        <ele>172.4</ele>
        <time>2026-05-19T06:05:07Z</time>
      </trkpt>
      <trkpt lat="43.73023" lon="3.31861">
        <ele>173.1</ele>
        <time>2026-05-19T06:05:12Z</time>
      </trkpt>
      <trkpt lat="43.73018" lon="3.31859">
        <ele>173.9</ele>
        <time>2026-05-19T06:05:17Z</time>
      </trkpt>
      <trkpt lat="43.73013" lon="3.31857">
        <ele>174.7</ele>
        <time>2026-05-19T06:05:22Z</time>
      </trkpt>
      <trkpt lat="43.7301" lon="3.31855">
        <ele>175.3</ele>
        <time>2026-05-19T06:05:27Z</time>
      </trkpt>
      <trkpt lat="43.73009" lon="3.31855">
        <ele>175.4</ele>
        <time>2026-05-19T06:05:32Z</time>
      </trkpt>
      <trkpt lat="43.73009" lon="3.31855">
        <ele>175.4</ele>
        <time>2026-05-19T06:05:37Z</time>
      </trkpt>
      <trkpt lat="43.73009" lon="3.31855">
        <ele>175.4</ele>
        <time>2026-05-19T06:05:42Z</time>
      </trkpt>
      <trkpt lat="43.73009" lon="3.31855">
        <ele>175.4</ele>
        <time>2026-05-19T06:05:47Z</time>
      </trkpt>
      <trkpt lat="43.73011" lon="3.31859">
        <ele>174.9</ele>
        <time>2026-05-19T06:05:52Z</time>
      </trkpt>
      <trkpt lat="43.73013" lon="3.31867">
        <ele>174.2</ele>
        <time>2026-05-19T06:05:57Z</time>
      </trkpt>
      <trkpt lat="43.73013" lon="3.31876">
        <ele>173.7</ele>
        <time>2026-05-19T06:06:02Z</time>
      </trkpt>
      <trkpt lat="43.73013" lon="3.31886">
        <ele>173.2</ele>
        <time>2026-05-19T06:06:07Z</time>
      </trkpt>
      <trkpt lat="43.73009" lon="3.31893">
        <ele>173.3</ele>
        <time>2026-05-19T06:06:12Z</time>
      </trkpt>
      <trkpt lat="43.73005" lon="3.31896">
        <ele>173.6</ele>
        <time>2026-05-19T06:06:17Z</time>
      </trkpt>
      <trkpt lat="43.73005" lon="3.31896">
        <ele>173.6</ele>
        <time>2026-05-19T06:06:22Z</time>
      </trkpt>
      <trkpt lat="43.73005" lon="3.31896">
        <ele>173.6</ele>
        <time>2026-05-19T06:06:27Z</time>
      </trkpt>
      <trkpt lat="43.73005" lon="3.31896">
        <ele>173.6</ele>
        <time>2026-05-19T06:06:32Z</time>
      </trkpt>
      <trkpt lat="43.73005" lon="3.31896">
        <ele>173.6</ele>
        <time>2026-05-19T06:06:37Z</time>
      </trkpt>
      <trkpt lat="43.73005" lon="3.31896">
        <ele>173.6</ele>
        <time>2026-05-19T06:06:42Z</time>
      </trkpt>
      <trkpt lat="43.73005" lon="3.31896">
        <ele>173.6</ele>
        <time>2026-05-19T06:06:47Z</time>
      </trkpt>
      <trkpt lat="43.73005" lon="3.31896">
        <ele>173.6</ele>
        <time>2026-05-19T06:06:52Z</time>
      </trkpt>
      <trkpt lat="43.73005" lon="3.31896">
        <ele>173.6</ele>
        <time>2026-05-19T06:06:57Z</time>
      </trkpt>
      <trkpt lat="43.73005" lon="3.31896">
        <ele>173.6</ele>
        <time>2026-05-19T06:07:02Z</time>
      </trkpt>
      <trkpt lat="43.73005" lon="3.31896">
        <ele>173.6</ele>
        <time>2026-05-19T06:07:07Z</time>
      </trkpt>
      <trkpt lat="43.73005" lon="3.31896">
        <ele>173.6</ele>
        <time>2026-05-19T06:07:12Z</time>
      </trkpt>
      <trkpt lat="43.73005" lon="3.31896">
        <ele>173.6</ele>
        <time>2026-05-19T06:07:17Z</time>
      </trkpt>
      <trkpt lat="43.73005" lon="3.31896">
        <ele>173.6</ele>
        <time>2026-05-19T06:07:22Z</time>
      </trkpt>
      <trkpt lat="43.73005" lon="3.31896">
        <ele>173.6</ele>
        <time>2026-05-19T06:07:27Z</time>
      </trkpt>
      <trkpt lat="43.73005" lon="3.31896">
        <ele>173.6</ele>
        <time>2026-05-19T06:07:32Z</time>
      </trkpt>
      <trkpt lat="43.73005" lon="3.31896">
        <ele>173.6</ele>
        <time>2026-05-19T06:07:37Z</time>
      </trkpt>
      <trkpt lat="43.73005" lon="3.31896">
        <ele>173.6</ele>
        <time>2026-05-19T06:07:42Z</time>
      </trkpt>
      <trkpt lat="43.73001" lon="3.31906">
        <ele>173.5</ele>
        <time>2026-05-19T06:07:47Z</time>
      </trkpt>
      <trkpt lat="43.72998" lon="3.31913">
        <ele>173.5</ele>
        <time>2026-05-19T06:07:52Z</time>
      </trkpt>
      <trkpt lat="43.72997" lon="3.31914">
        <ele>173.6</ele>
        <time>2026-05-19T06:07:57Z</time>
      </trkpt>
      <trkpt lat="43.72997" lon="3.31914">
        <ele>173.6</ele>
        <time>2026-05-19T06:08:02Z</time>
      </trkpt>
      <trkpt lat="43.72997" lon="3.31914">
        <ele>173.6</ele>
        <time>2026-05-19T06:08:07Z</time>
      </trkpt>
      <trkpt lat="43.72997" lon="3.31914">
        <ele>173.6</ele>
        <time>2026-05-19T06:08:12Z</time>
      </trkpt>
      <trkpt lat="43.72997" lon="3.31914">
        <ele>173.6</ele>
        <time>2026-05-19T06:08:17Z</time>
      </trkpt>
      <trkpt lat="43.72997" lon="3.31916">
        <ele>173.5</ele>
        <time>2026-05-19T06:08:22Z</time>
      </trkpt>
      <trkpt lat="43.72998" lon="3.31919">
        <ele>173.1</ele>
        <time>2026-05-19T06:08:27Z</time>
      </trkpt>
      <trkpt lat="43.72998" lon="3.31919">
        <ele>173.1</ele>
        <time>2026-05-19T06:08:32Z</time>
      </trkpt>
      <trkpt lat="43.72995" lon="3.31924">
        <ele>173.2</ele>
        <time>2026-05-19T06:08:37Z</time>
      </trkpt>
      <trkpt lat="43.7299" lon="3.31928">
        <ele>173.7</ele>
        <time>2026-05-19T06:08:42Z</time>
      </trkpt>
      <trkpt lat="43.72986" lon="3.31934">
        <ele>173.9</ele>
        <time>2026-05-19T06:08:47Z</time>
      </trkpt>
      <trkpt lat="43.72982" lon="3.31942">
        <ele>174</ele>
        <time>2026-05-19T06:08:52Z</time>
      </trkpt>
      <trkpt lat="43.72978" lon="3.31948">
        <ele>174.2</ele>
        <time>2026-05-19T06:08:57Z</time>
      </trkpt>
      <trkpt lat="43.72973" lon="3.31958">
        <ele>174.4</ele>
        <time>2026-05-19T06:09:02Z</time>
      </trkpt>
      <trkpt lat="43.72969" lon="3.31965">
        <ele>174.6</ele>
        <time>2026-05-19T06:09:07Z</time>
      </trkpt>
      <trkpt lat="43.72966" lon="3.3197">
        <ele>174.8</ele>
        <time>2026-05-19T06:09:12Z</time>
      </trkpt>
      <trkpt lat="43.72961" lon="3.31979">
        <ele>175.2</ele>
        <time>2026-05-19T06:09:17Z</time>
      </trkpt>
      <trkpt lat="43.72957" lon="3.31986">
        <ele>175.5</ele>
        <time>2026-05-19T06:09:22Z</time>
      </trkpt>
      <trkpt lat="43.72953" lon="3.31993">
        <ele>175.8</ele>
        <time>2026-05-19T06:09:27Z</time>
      </trkpt>
      <trkpt lat="43.7295" lon="3.31999">
        <ele>176.1</ele>
        <time>2026-05-19T06:09:32Z</time>
      </trkpt>
      <trkpt lat="43.72946" lon="3.32005">
        <ele>177.1</ele>
        <time>2026-05-19T06:09:37Z</time>
      </trkpt>
      <trkpt lat="43.72943" lon="3.32009">
        <ele>177.9</ele>
        <time>2026-05-19T06:09:42Z</time>
      </trkpt>
      <trkpt lat="43.72941" lon="3.32013">
        <ele>178.6</ele>
        <time>2026-05-19T06:09:47Z</time>
      </trkpt>
      <trkpt lat="43.72937" lon="3.32018">
        <ele>179.9</ele>
        <time>2026-05-19T06:09:52Z</time>
      </trkpt>
      <trkpt lat="43.72931" lon="3.32023">
        <ele>181.6</ele>
        <time>2026-05-19T06:09:57Z</time>
      </trkpt>
      <trkpt lat="43.72929" lon="3.32022">
        <ele>182</ele>
        <time>2026-05-19T06:10:02Z</time>
      </trkpt>
      <trkpt lat="43.72932" lon="3.32018">
        <ele>180.9</ele>
        <time>2026-05-19T06:10:07Z</time>
      </trkpt>
      <trkpt lat="43.72938" lon="3.32012">
        <ele>179.2</ele>
        <time>2026-05-19T06:10:12Z</time>
      </trkpt>
      <trkpt lat="43.72943" lon="3.32008">
        <ele>177.9</ele>
        <time>2026-05-19T06:10:17Z</time>
      </trkpt>
      <trkpt lat="43.72948" lon="3.32004">
        <ele>176.6</ele>
        <time>2026-05-19T06:10:22Z</time>
      </trkpt>
      <trkpt lat="43.72952" lon="3.31997">
        <ele>175.8</ele>
        <time>2026-05-19T06:10:27Z</time>
      </trkpt>
      <trkpt lat="43.72957" lon="3.3199">
        <ele>175.3</ele>
        <time>2026-05-19T06:10:32Z</time>
      </trkpt>
      <trkpt lat="43.72962" lon="3.3198">
        <ele>175</ele>
        <time>2026-05-19T06:10:37Z</time>
      </trkpt>
      <trkpt lat="43.72967" lon="3.31973">
        <ele>174.5</ele>
        <time>2026-05-19T06:10:42Z</time>
      </trkpt>
      <trkpt lat="43.72971" lon="3.31965">
        <ele>174.3</ele>
        <time>2026-05-19T06:10:47Z</time>
      </trkpt>
      <trkpt lat="43.72974" lon="3.31959">
        <ele>174.2</ele>
        <time>2026-05-19T06:10:52Z</time>
      </trkpt>
      <trkpt lat="43.72979" lon="3.31952">
        <ele>173.8</ele>
        <time>2026-05-19T06:10:57Z</time>
      </trkpt>
      <trkpt lat="43.72983" lon="3.31944">
        <ele>173.7</ele>
        <time>2026-05-19T06:11:02Z</time>
      </trkpt>
      <trkpt lat="43.72987" lon="3.31938">
        <ele>173.5</ele>
        <time>2026-05-19T06:11:07Z</time>
      </trkpt>
      <trkpt lat="43.7299" lon="3.31931">
        <ele>173.5</ele>
        <time>2026-05-19T06:11:12Z</time>
      </trkpt>
      <trkpt lat="43.72994" lon="3.31924">
        <ele>173.4</ele>
        <time>2026-05-19T06:11:17Z</time>
      </trkpt>
      <trkpt lat="43.72999" lon="3.31916">
        <ele>173.2</ele>
        <time>2026-05-19T06:11:22Z</time>
      </trkpt>
      <trkpt lat="43.73002" lon="3.31909">
        <ele>173.2</ele>
        <time>2026-05-19T06:11:27Z</time>
      </trkpt>
      <trkpt lat="43.73006" lon="3.31902">
        <ele>173.2</ele>
        <time>2026-05-19T06:11:32Z</time>
      </trkpt>
      <trkpt lat="43.7301" lon="3.31892">
        <ele>173.3</ele>
        <time>2026-05-19T06:11:37Z</time>
      </trkpt>
      <trkpt lat="43.73012" lon="3.31883">
        <ele>173.5</ele>
        <time>2026-05-19T06:11:42Z</time>
      </trkpt>
      <trkpt lat="43.73012" lon="3.31874">
        <ele>174</ele>
        <time>2026-05-19T06:11:47Z</time>
      </trkpt>
      <trkpt lat="43.7301" lon="3.31863">
        <ele>174.8</ele>
        <time>2026-05-19T06:11:52Z</time>
      </trkpt>
      <trkpt lat="43.7301" lon="3.31853">
        <ele>175.4</ele>
        <time>2026-05-19T06:11:57Z</time>
      </trkpt>
      <trkpt lat="43.73009" lon="3.31844">
        <ele>176</ele>
        <time>2026-05-19T06:12:02Z</time>
      </trkpt>
      <trkpt lat="43.73008" lon="3.31835">
        <ele>176.7</ele>
        <time>2026-05-19T06:12:07Z</time>
      </trkpt>
      <trkpt lat="43.73008" lon="3.31827">
        <ele>177</ele>
        <time>2026-05-19T06:12:12Z</time>
      </trkpt>
      <trkpt lat="43.73011" lon="3.31826">
        <ele>176.6</ele>
        <time>2026-05-19T06:12:17Z</time>
      </trkpt>
      <trkpt lat="43.73014" lon="3.31828">
        <ele>176.1</ele>
        <time>2026-05-19T06:12:22Z</time>
      </trkpt>
      <trkpt lat="43.73014" lon="3.31832">
        <ele>175.9</ele>
        <time>2026-05-19T06:12:27Z</time>
      </trkpt>
      <trkpt lat="43.73016" lon="3.31827">
        <ele>175.8</ele>
        <time>2026-05-19T06:12:32Z</time>
      </trkpt>
      <trkpt lat="43.73016" lon="3.3182">
        <ele>176.1</ele>
        <time>2026-05-19T06:12:37Z</time>
      </trkpt>
      <trkpt lat="43.73014" lon="3.3181">
        <ele>176.9</ele>
        <time>2026-05-19T06:12:42Z</time>
      </trkpt>
      <trkpt lat="43.73015" lon="3.31804">
        <ele>177</ele>
        <time>2026-05-19T06:12:47Z</time>
      </trkpt>
      <trkpt lat="43.73014" lon="3.31797">
        <ele>177.5</ele>
        <time>2026-05-19T06:12:52Z</time>
      </trkpt>
      <trkpt lat="43.73013" lon="3.3179">
        <ele>178</ele>
        <time>2026-05-19T06:12:57Z</time>
      </trkpt>
      <trkpt lat="43.73013" lon="3.31783">
        <ele>178.3</ele>
        <time>2026-05-19T06:13:02Z</time>
      </trkpt>
      <trkpt lat="43.73015" lon="3.3178">
        <ele>178.1</ele>
        <time>2026-05-19T06:13:07Z</time>
      </trkpt>
      <trkpt lat="43.73014" lon="3.31779">
        <ele>178.3</ele>
        <time>2026-05-19T06:13:12Z</time>
      </trkpt>
      <trkpt lat="43.73014" lon="3.31779">
        <ele>178.3</ele>
        <time>2026-05-19T06:13:17Z</time>
      </trkpt>
      <trkpt lat="43.73014" lon="3.31779">
        <ele>178.3</ele>
        <time>2026-05-19T06:13:22Z</time>
      </trkpt>
      <trkpt lat="43.73012" lon="3.31777">
        <ele>178.7</ele>
        <time>2026-05-19T06:13:27Z</time>
      </trkpt>
      <trkpt lat="43.73012" lon="3.31777">
        <ele>178.7</ele>
        <time>2026-05-19T06:13:32Z</time>
      </trkpt>
      <trkpt lat="43.73012" lon="3.31777">
        <ele>178.7</ele>
        <time>2026-05-19T06:13:37Z</time>
      </trkpt>
      <trkpt lat="43.73012" lon="3.31777">
        <ele>178.7</ele>
        <time>2026-05-19T06:13:42Z</time>
      </trkpt>
      <trkpt lat="43.73012" lon="3.31777">
        <ele>178.7</ele>
        <time>2026-05-19T06:13:47Z</time>
      </trkpt>
      <trkpt lat="43.73012" lon="3.31777">
        <ele>178.7</ele>
        <time>2026-05-19T06:13:52Z</time>
      </trkpt>
      <trkpt lat="43.73012" lon="3.31777">
        <ele>178.7</ele>
        <time>2026-05-19T06:13:57Z</time>
      </trkpt>
      <trkpt lat="43.73012" lon="3.31777">
        <ele>178.7</ele>
        <time>2026-05-19T06:14:02Z</time>
      </trkpt>
      <trkpt lat="43.73012" lon="3.31777">
        <ele>178.7</ele>
        <time>2026-05-19T06:14:07Z</time>
      </trkpt>
      <trkpt lat="43.73012" lon="3.31777">
        <ele>178.7</ele>
        <time>2026-05-19T06:14:12Z</time>
      </trkpt>
      <trkpt lat="43.73006" lon="3.31783">
        <ele>179.4</ele>
        <time>2026-05-19T06:14:17Z</time>
      </trkpt>
      <trkpt lat="43.73006" lon="3.31784">
        <ele>179.4</ele>
        <time>2026-05-19T06:14:22Z</time>
      </trkpt>
      <trkpt lat="43.73008" lon="3.31788">
        <ele>178.9</ele>
        <time>2026-05-19T06:14:27Z</time>
      </trkpt>
      <trkpt lat="43.73011" lon="3.31792">
        <ele>178.2</ele>
        <time>2026-05-19T06:14:32Z</time>
      </trkpt>
      <trkpt lat="43.73013" lon="3.31799">
        <ele>177.6</ele>
        <time>2026-05-19T06:14:37Z</time>
      </trkpt>
      <trkpt lat="43.73015" lon="3.31806">
        <ele>176.9</ele>
        <time>2026-05-19T06:14:42Z</time>
      </trkpt>
      <trkpt lat="43.73016" lon="3.31815">
        <ele>176.3</ele>
        <time>2026-05-19T06:14:47Z</time>
      </trkpt>
      <trkpt lat="43.73017" lon="3.31822">
        <ele>175.9</ele>
        <time>2026-05-19T06:14:52Z</time>
      </trkpt>
      <trkpt lat="43.73016" lon="3.3183">
        <ele>175.7</ele>
        <time>2026-05-19T06:14:57Z</time>
      </trkpt>
      <trkpt lat="43.73012" lon="3.3183">
        <ele>176.3</ele>
        <time>2026-05-19T06:15:02Z</time>
      </trkpt>
      <trkpt lat="43.73009" lon="3.31826">
        <ele>176.9</ele>
        <time>2026-05-19T06:15:07Z</time>
      </trkpt>
      <trkpt lat="43.73006" lon="3.31821">
        <ele>177.6</ele>
        <time>2026-05-19T06:15:12Z</time>
      </trkpt>
      <trkpt lat="43.73005" lon="3.31811">
        <ele>178.3</ele>
        <time>2026-05-19T06:15:17Z</time>
      </trkpt>
      <trkpt lat="43.73003" lon="3.318">
        <ele>179.1</ele>
        <time>2026-05-19T06:15:22Z</time>
      </trkpt>
      <trkpt lat="43.73002" lon="3.31791">
        <ele>179.7</ele>
        <time>2026-05-19T06:15:27Z</time>
      </trkpt>
      <trkpt lat="43.72997" lon="3.31784">
        <ele>181</ele>
        <time>2026-05-19T06:15:32Z</time>
      </trkpt>
      <trkpt lat="43.7299" lon="3.31782">
        <ele>182.5</ele>
        <time>2026-05-19T06:15:37Z</time>
      </trkpt>
      <trkpt lat="43.72986" lon="3.31776">
        <ele>183.6</ele>
        <time>2026-05-19T06:15:42Z</time>
      </trkpt>
      <trkpt lat="43.72983" lon="3.31771">
        <ele>184.5</ele>
        <time>2026-05-19T06:15:47Z</time>
      </trkpt>
      <trkpt lat="43.72979" lon="3.31766">
        <ele>185.6</ele>
        <time>2026-05-19T06:15:52Z</time>
      </trkpt>
      <trkpt lat="43.72975" lon="3.3176">
        <ele>186.8</ele>
        <time>2026-05-19T06:15:57Z</time>
      </trkpt>
      <trkpt lat="43.72971" lon="3.31756">
        <ele>187.9</ele>
        <time>2026-05-19T06:16:02Z</time>
      </trkpt>
      <trkpt lat="43.72967" lon="3.31752">
        <ele>189</ele>
        <time>2026-05-19T06:16:07Z</time>
      </trkpt>
      <trkpt lat="43.72964" lon="3.31747">
        <ele>189.7</ele>
        <time>2026-05-19T06:16:12Z</time>
      </trkpt>
      <trkpt lat="43.72961" lon="3.31742">
        <ele>190.3</ele>
        <time>2026-05-19T06:16:17Z</time>
      </trkpt>
      <trkpt lat="43.72958" lon="3.31732">
        <ele>190.9</ele>
        <time>2026-05-19T06:16:22Z</time>
      </trkpt>
      <trkpt lat="43.72956" lon="3.31722">
        <ele>191.2</ele>
        <time>2026-05-19T06:16:27Z</time>
      </trkpt>
      <trkpt lat="43.72954" lon="3.31713">
        <ele>191.6</ele>
        <time>2026-05-19T06:16:32Z</time>
      </trkpt>
      <trkpt lat="43.72952" lon="3.31705">
        <ele>192.1</ele>
        <time>2026-05-19T06:16:37Z</time>
      </trkpt>
      <trkpt lat="43.72951" lon="3.31698">
        <ele>192.3</ele>
        <time>2026-05-19T06:16:42Z</time>
      </trkpt>
      <trkpt lat="43.7295" lon="3.31689">
        <ele>192.5</ele>
        <time>2026-05-19T06:16:47Z</time>
      </trkpt>
      <trkpt lat="43.72949" lon="3.31679">
        <ele>192.7</ele>
        <time>2026-05-19T06:16:52Z</time>
      </trkpt>
      <trkpt lat="43.72949" lon="3.31669">
        <ele>192.7</ele>
        <time>2026-05-19T06:16:57Z</time>
      </trkpt>
      <trkpt lat="43.72948" lon="3.31661">
        <ele>193.1</ele>
        <time>2026-05-19T06:17:02Z</time>
      </trkpt>
      <trkpt lat="43.72948" lon="3.31654">
        <ele>193.2</ele>
        <time>2026-05-19T06:17:07Z</time>
      </trkpt>
      <trkpt lat="43.72948" lon="3.31653">
        <ele>193.2</ele>
        <time>2026-05-19T06:17:12Z</time>
      </trkpt>
      <trkpt lat="43.72948" lon="3.31652">
        <ele>193.3</ele>
        <time>2026-05-19T06:17:17Z</time>
      </trkpt>
      <trkpt lat="43.72948" lon="3.31652">
        <ele>193.3</ele>
        <time>2026-05-19T06:17:22Z</time>
      </trkpt>
      <trkpt lat="43.72948" lon="3.31652">
        <ele>193.3</ele>
        <time>2026-05-19T06:17:27Z</time>
      </trkpt>
      <trkpt lat="43.72948" lon="3.31652">
        <ele>193.3</ele>
        <time>2026-05-19T06:17:32Z</time>
      </trkpt>
      <trkpt lat="43.72948" lon="3.31652">
        <ele>193.3</ele>
        <time>2026-05-19T06:17:37Z</time>
      </trkpt>
      <trkpt lat="43.72948" lon="3.31652">
        <ele>193.3</ele>
        <time>2026-05-19T06:17:42Z</time>
      </trkpt>
      <trkpt lat="43.72948" lon="3.31652">
        <ele>193.3</ele>
        <time>2026-05-19T06:17:47Z</time>
      </trkpt>
      <trkpt lat="43.72948" lon="3.31652">
        <ele>193.3</ele>
        <time>2026-05-19T06:17:52Z</time>
      </trkpt>
      <trkpt lat="43.72948" lon="3.31652">
        <ele>193.3</ele>
        <time>2026-05-19T06:17:57Z</time>
      </trkpt>
      <trkpt lat="43.72948" lon="3.31652">
        <ele>193.3</ele>
        <time>2026-05-19T06:18:02Z</time>
      </trkpt>
      <trkpt lat="43.72948" lon="3.31652">
        <ele>193.3</ele>
        <time>2026-05-19T06:18:07Z</time>
      </trkpt>
      <trkpt lat="43.72946" lon="3.31638">
        <ele>194.1</ele>
        <time>2026-05-19T06:18:12Z</time>
      </trkpt>
      <trkpt lat="43.72945" lon="3.31632">
        <ele>194.5</ele>
        <time>2026-05-19T06:18:17Z</time>
      </trkpt>
      <trkpt lat="43.72943" lon="3.31626">
        <ele>195.2</ele>
        <time>2026-05-19T06:18:22Z</time>
      </trkpt>
      <trkpt lat="43.72944" lon="3.31619">
        <ele>195.1</ele>
        <time>2026-05-19T06:18:27Z</time>
      </trkpt>
      <trkpt lat="43.72944" lon="3.31611">
        <ele>195.2</ele>
        <time>2026-05-19T06:18:32Z</time>
      </trkpt>
      <trkpt lat="43.72942" lon="3.31601">
        <ele>196</ele>
        <time>2026-05-19T06:18:37Z</time>
      </trkpt>
      <trkpt lat="43.7294" lon="3.31592">
        <ele>196.8</ele>
        <time>2026-05-19T06:18:42Z</time>
      </trkpt>
      <trkpt lat="43.72939" lon="3.31586">
        <ele>197.2</ele>
        <time>2026-05-19T06:18:47Z</time>
      </trkpt>
      <trkpt lat="43.7294" lon="3.31578">
        <ele>197.3</ele>
        <time>2026-05-19T06:18:52Z</time>
      </trkpt>
      <trkpt lat="43.72944" lon="3.31577">
        <ele>196.1</ele>
        <time>2026-05-19T06:18:57Z</time>
      </trkpt>
      <trkpt lat="43.72945" lon="3.31577">
        <ele>195.8</ele>
        <time>2026-05-19T06:19:02Z</time>
      </trkpt>
      <trkpt lat="43.72947" lon="3.31573">
        <ele>195.5</ele>
        <time>2026-05-19T06:19:07Z</time>
      </trkpt>
      <trkpt lat="43.72946" lon="3.31566">
        <ele>196.1</ele>
        <time>2026-05-19T06:19:12Z</time>
      </trkpt>
      <trkpt lat="43.72945" lon="3.31557">
        <ele>196.9</ele>
        <time>2026-05-19T06:19:17Z</time>
      </trkpt>
      <trkpt lat="43.72945" lon="3.31548">
        <ele>197.3</ele>
        <time>2026-05-19T06:19:22Z</time>
      </trkpt>
      <trkpt lat="43.72948" lon="3.31539">
        <ele>197</ele>
        <time>2026-05-19T06:19:27Z</time>
      </trkpt>
      <trkpt lat="43.7295" lon="3.31531">
        <ele>196.9</ele>
        <time>2026-05-19T06:19:32Z</time>
      </trkpt>
      <trkpt lat="43.72952" lon="3.31521">
        <ele>196.9</ele>
        <time>2026-05-19T06:19:37Z</time>
      </trkpt>
      <trkpt lat="43.72953" lon="3.31513">
        <ele>197.1</ele>
        <time>2026-05-19T06:19:42Z</time>
      </trkpt>
      <trkpt lat="43.72954" lon="3.31504">
        <ele>197.4</ele>
        <time>2026-05-19T06:19:47Z</time>
      </trkpt>
      <trkpt lat="43.72953" lon="3.31497">
        <ele>198.2</ele>
        <time>2026-05-19T06:19:52Z</time>
      </trkpt>
      <trkpt lat="43.72954" lon="3.31488">
        <ele>198.9</ele>
        <time>2026-05-19T06:19:57Z</time>
      </trkpt>
      <trkpt lat="43.72956" lon="3.31481">
        <ele>199.1</ele>
        <time>2026-05-19T06:20:02Z</time>
      </trkpt>
      <trkpt lat="43.72956" lon="3.31472">
        <ele>200</ele>
        <time>2026-05-19T06:20:07Z</time>
      </trkpt>
      <trkpt lat="43.72957" lon="3.31464">
        <ele>200.5</ele>
        <time>2026-05-19T06:20:12Z</time>
      </trkpt>
      <trkpt lat="43.72959" lon="3.31455">
        <ele>200.9</ele>
        <time>2026-05-19T06:20:17Z</time>
      </trkpt>
      <trkpt lat="43.7296" lon="3.31447">
        <ele>201.4</ele>
        <time>2026-05-19T06:20:22Z</time>
      </trkpt>
      <trkpt lat="43.72962" lon="3.31436">
        <ele>201.9</ele>
        <time>2026-05-19T06:20:27Z</time>
      </trkpt>
      <trkpt lat="43.72964" lon="3.31426">
        <ele>202.3</ele>
        <time>2026-05-19T06:20:32Z</time>
      </trkpt>
      <trkpt lat="43.72967" lon="3.31415">
        <ele>202.6</ele>
        <time>2026-05-19T06:20:37Z</time>
      </trkpt>
      <trkpt lat="43.72969" lon="3.31409">
        <ele>202.9</ele>
        <time>2026-05-19T06:20:42Z</time>
      </trkpt>
      <trkpt lat="43.72971" lon="3.31401">
        <ele>203.6</ele>
        <time>2026-05-19T06:20:47Z</time>
      </trkpt>
      <trkpt lat="43.72973" lon="3.31393">
        <ele>204.2</ele>
        <time>2026-05-19T06:20:52Z</time>
      </trkpt>
      <trkpt lat="43.72976" lon="3.31384">
        <ele>204.7</ele>
        <time>2026-05-19T06:20:57Z</time>
      </trkpt>
      <trkpt lat="43.72979" lon="3.31376">
        <ele>205</ele>
        <time>2026-05-19T06:21:02Z</time>
      </trkpt>
      <trkpt lat="43.72982" lon="3.31368">
        <ele>205.3</ele>
        <time>2026-05-19T06:21:07Z</time>
      </trkpt>
      <trkpt lat="43.72985" lon="3.31359">
        <ele>205.8</ele>
        <time>2026-05-19T06:21:12Z</time>
      </trkpt>
      <trkpt lat="43.72988" lon="3.3135">
        <ele>206.3</ele>
        <time>2026-05-19T06:21:17Z</time>
      </trkpt>
      <trkpt lat="43.72991" lon="3.31341">
        <ele>206.7</ele>
        <time>2026-05-19T06:21:22Z</time>
      </trkpt>
      <trkpt lat="43.72993" lon="3.31332">
        <ele>207.6</ele>
        <time>2026-05-19T06:21:27Z</time>
      </trkpt>
      <trkpt lat="43.72997" lon="3.31324">
        <ele>208.2</ele>
        <time>2026-05-19T06:21:32Z</time>
      </trkpt>
      <trkpt lat="43.73" lon="3.31313">
        <ele>209.9</ele>
        <time>2026-05-19T06:21:37Z</time>
      </trkpt>
      <trkpt lat="43.73004" lon="3.31305">
        <ele>210.2</ele>
        <time>2026-05-19T06:21:42Z</time>
      </trkpt>
      <trkpt lat="43.73007" lon="3.31296">
        <ele>211.1</ele>
        <time>2026-05-19T06:21:47Z</time>
      </trkpt>
      <trkpt lat="43.7301" lon="3.31285">
        <ele>212.3</ele>
        <time>2026-05-19T06:21:52Z</time>
      </trkpt>
      <trkpt lat="43.73011" lon="3.31277">
        <ele>213.7</ele>
        <time>2026-05-19T06:21:57Z</time>
      </trkpt>
      <trkpt lat="43.73012" lon="3.31268">
        <ele>215.2</ele>
        <time>2026-05-19T06:22:02Z</time>
      </trkpt>
      <trkpt lat="43.73013" lon="3.31257">
        <ele>217.1</ele>
        <time>2026-05-19T06:22:07Z</time>
      </trkpt>
      <trkpt lat="43.73014" lon="3.31249">
        <ele>218.3</ele>
        <time>2026-05-19T06:22:12Z</time>
      </trkpt>
      <trkpt lat="43.73016" lon="3.3124">
        <ele>218.6</ele>
        <time>2026-05-19T06:22:17Z</time>
      </trkpt>
      <trkpt lat="43.73017" lon="3.31231">
        <ele>219.5</ele>
        <time>2026-05-19T06:22:22Z</time>
      </trkpt>
      <trkpt lat="43.73017" lon="3.31226">
        <ele>220.2</ele>
        <time>2026-05-19T06:22:27Z</time>
      </trkpt>
      <trkpt lat="43.73016" lon="3.31219">
        <ele>221.8</ele>
        <time>2026-05-19T06:22:32Z</time>
      </trkpt>
      <trkpt lat="43.73017" lon="3.31211">
        <ele>222.4</ele>
        <time>2026-05-19T06:22:37Z</time>
      </trkpt>
      <trkpt lat="43.73017" lon="3.31204">
        <ele>223.5</ele>
        <time>2026-05-19T06:22:42Z</time>
      </trkpt>
      <trkpt lat="43.73018" lon="3.31195">
        <ele>224.2</ele>
        <time>2026-05-19T06:22:47Z</time>
      </trkpt>
      <trkpt lat="43.73019" lon="3.31184">
        <ele>225.3</ele>
        <time>2026-05-19T06:22:52Z</time>
      </trkpt>
      <trkpt lat="43.73019" lon="3.31174">
        <ele>226.8</ele>
        <time>2026-05-19T06:22:57Z</time>
      </trkpt>
      <trkpt lat="43.73022" lon="3.31167">
        <ele>226</ele>
        <time>2026-05-19T06:23:02Z</time>
      </trkpt>
      <trkpt lat="43.73022" lon="3.31162">
        <ele>226</ele>
        <time>2026-05-19T06:23:07Z</time>
      </trkpt>
      <trkpt lat="43.73023" lon="3.31154">
        <ele>225.2</ele>
        <time>2026-05-19T06:23:12Z</time>
      </trkpt>
      <trkpt lat="43.73023" lon="3.31146">
        <ele>225.1</ele>
        <time>2026-05-19T06:23:17Z</time>
      </trkpt>
      <trkpt lat="43.7302" lon="3.31137">
        <ele>226.6</ele>
        <time>2026-05-19T06:23:22Z</time>
      </trkpt>
      <trkpt lat="43.7302" lon="3.31128">
        <ele>226.4</ele>
        <time>2026-05-19T06:23:27Z</time>
      </trkpt>
      <trkpt lat="43.73018" lon="3.31119">
        <ele>227.3</ele>
        <time>2026-05-19T06:23:32Z</time>
      </trkpt>
      <trkpt lat="43.73017" lon="3.31111">
        <ele>227.7</ele>
        <time>2026-05-19T06:23:37Z</time>
      </trkpt>
      <trkpt lat="43.73016" lon="3.31102">
        <ele>228</ele>
        <time>2026-05-19T06:23:42Z</time>
      </trkpt>
      <trkpt lat="43.73013" lon="3.31092">
        <ele>229.4</ele>
        <time>2026-05-19T06:23:47Z</time>
      </trkpt>
      <trkpt lat="43.73012" lon="3.31083">
        <ele>229.6</ele>
        <time>2026-05-19T06:23:52Z</time>
      </trkpt>
      <trkpt lat="43.73011" lon="3.31072">
        <ele>228.4</ele>
        <time>2026-05-19T06:23:57Z</time>
      </trkpt>
      <trkpt lat="43.7301" lon="3.31065">
        <ele>227.9</ele>
        <time>2026-05-19T06:24:02Z</time>
      </trkpt>
      <trkpt lat="43.7301" lon="3.31058">
        <ele>226.8</ele>
        <time>2026-05-19T06:24:07Z</time>
      </trkpt>
      <trkpt lat="43.7301" lon="3.3105">
        <ele>225.6</ele>
        <time>2026-05-19T06:24:12Z</time>
      </trkpt>
      <trkpt lat="43.73009" lon="3.31042">
        <ele>224.8</ele>
        <time>2026-05-19T06:24:17Z</time>
      </trkpt>
      <trkpt lat="43.73006" lon="3.31035">
        <ele>225.1</ele>
        <time>2026-05-19T06:24:22Z</time>
      </trkpt>
      <trkpt lat="43.73003" lon="3.31027">
        <ele>225.2</ele>
        <time>2026-05-19T06:24:27Z</time>
      </trkpt>
      <trkpt lat="43.72999" lon="3.31018">
        <ele>225.3</ele>
        <time>2026-05-19T06:24:32Z</time>
      </trkpt>
      <trkpt lat="43.72997" lon="3.31009">
        <ele>224.4</ele>
        <time>2026-05-19T06:24:37Z</time>
      </trkpt>
      <trkpt lat="43.72995" lon="3.31001">
        <ele>223.7</ele>
        <time>2026-05-19T06:24:42Z</time>
      </trkpt>
      <trkpt lat="43.72993" lon="3.30993">
        <ele>223.5</ele>
        <time>2026-05-19T06:24:47Z</time>
      </trkpt>
      <trkpt lat="43.72991" lon="3.30983">
        <ele>223.3</ele>
        <time>2026-05-19T06:24:52Z</time>
      </trkpt>
      <trkpt lat="43.72989" lon="3.30974">
        <ele>223</ele>
        <time>2026-05-19T06:24:57Z</time>
      </trkpt>
      <trkpt lat="43.72986" lon="3.30966">
        <ele>223.1</ele>
        <time>2026-05-19T06:25:02Z</time>
      </trkpt>
      <trkpt lat="43.72986" lon="3.30958">
        <ele>222.3</ele>
        <time>2026-05-19T06:25:07Z</time>
      </trkpt>
      <trkpt lat="43.72988" lon="3.3095">
        <ele>221.1</ele>
        <time>2026-05-19T06:25:12Z</time>
      </trkpt>
      <trkpt lat="43.72988" lon="3.30943">
        <ele>220.5</ele>
        <time>2026-05-19T06:25:17Z</time>
      </trkpt>
      <trkpt lat="43.7299" lon="3.30933">
        <ele>219.2</ele>
        <time>2026-05-19T06:25:22Z</time>
      </trkpt>
      <trkpt lat="43.72991" lon="3.30922">
        <ele>218.1</ele>
        <time>2026-05-19T06:25:27Z</time>
      </trkpt>
      <trkpt lat="43.72993" lon="3.30912">
        <ele>218</ele>
        <time>2026-05-19T06:25:32Z</time>
      </trkpt>
      <trkpt lat="43.72994" lon="3.30903">
        <ele>219.3</ele>
        <time>2026-05-19T06:25:37Z</time>
      </trkpt>
      <trkpt lat="43.72996" lon="3.30897">
        <ele>219.9</ele>
        <time>2026-05-19T06:25:42Z</time>
      </trkpt>
      <trkpt lat="43.72997" lon="3.30888">
        <ele>221.3</ele>
        <time>2026-05-19T06:25:47Z</time>
      </trkpt>
      <trkpt lat="43.72998" lon="3.30878">
        <ele>222.8</ele>
        <time>2026-05-19T06:25:52Z</time>
      </trkpt>
      <trkpt lat="43.72998" lon="3.30871">
        <ele>223.9</ele>
        <time>2026-05-19T06:25:57Z</time>
      </trkpt>
      <trkpt lat="43.72999" lon="3.30862">
        <ele>225.3</ele>
        <time>2026-05-19T06:26:02Z</time>
      </trkpt>
      <trkpt lat="43.72998" lon="3.30849">
        <ele>227.6</ele>
        <time>2026-05-19T06:26:07Z</time>
      </trkpt>
      <trkpt lat="43.72999" lon="3.30838">
        <ele>229.3</ele>
        <time>2026-05-19T06:26:12Z</time>
      </trkpt>
      <trkpt lat="43.72998" lon="3.30826">
        <ele>230.8</ele>
        <time>2026-05-19T06:26:17Z</time>
      </trkpt>
      <trkpt lat="43.72998" lon="3.30817">
        <ele>231.5</ele>
        <time>2026-05-19T06:26:22Z</time>
      </trkpt>
      <trkpt lat="43.72998" lon="3.3081">
        <ele>232.1</ele>
        <time>2026-05-19T06:26:27Z</time>
      </trkpt>
      <trkpt lat="43.72997" lon="3.30803">
        <ele>232.8</ele>
        <time>2026-05-19T06:26:32Z</time>
      </trkpt>
      <trkpt lat="43.72996" lon="3.30794">
        <ele>233.6</ele>
        <time>2026-05-19T06:26:37Z</time>
      </trkpt>
      <trkpt lat="43.72995" lon="3.30786">
        <ele>234.3</ele>
        <time>2026-05-19T06:26:42Z</time>
      </trkpt>
      <trkpt lat="43.72994" lon="3.30779">
        <ele>235</ele>
        <time>2026-05-19T06:26:47Z</time>
      </trkpt>
      <trkpt lat="43.72993" lon="3.30771">
        <ele>235.7</ele>
        <time>2026-05-19T06:26:52Z</time>
      </trkpt>
      <trkpt lat="43.72993" lon="3.30761">
        <ele>236.5</ele>
        <time>2026-05-19T06:26:57Z</time>
      </trkpt>
      <trkpt lat="43.72993" lon="3.30752">
        <ele>237.2</ele>
        <time>2026-05-19T06:27:02Z</time>
      </trkpt>
      <trkpt lat="43.72993" lon="3.30743">
        <ele>236.7</ele>
        <time>2026-05-19T06:27:07Z</time>
      </trkpt>
      <trkpt lat="43.72993" lon="3.30735">
        <ele>235.9</ele>
        <time>2026-05-19T06:27:12Z</time>
      </trkpt>
      <trkpt lat="43.72993" lon="3.30726">
        <ele>235.1</ele>
        <time>2026-05-19T06:27:17Z</time>
      </trkpt>
      <trkpt lat="43.72994" lon="3.30717">
        <ele>234.3</ele>
        <time>2026-05-19T06:27:22Z</time>
      </trkpt>
      <trkpt lat="43.72996" lon="3.30706">
        <ele>233.3</ele>
        <time>2026-05-19T06:27:27Z</time>
      </trkpt>
      <trkpt lat="43.72997" lon="3.30695">
        <ele>232.3</ele>
        <time>2026-05-19T06:27:32Z</time>
      </trkpt>
      <trkpt lat="43.72999" lon="3.30685">
        <ele>231.5</ele>
        <time>2026-05-19T06:27:37Z</time>
      </trkpt>
      <trkpt lat="43.73001" lon="3.30677">
        <ele>230.5</ele>
        <time>2026-05-19T06:27:42Z</time>
      </trkpt>
      <trkpt lat="43.73002" lon="3.30671">
        <ele>229.6</ele>
        <time>2026-05-19T06:27:47Z</time>
      </trkpt>
      <trkpt lat="43.73001" lon="3.30662">
        <ele>229.1</ele>
        <time>2026-05-19T06:27:52Z</time>
      </trkpt>
      <trkpt lat="43.73001" lon="3.30653">
        <ele>228.1</ele>
        <time>2026-05-19T06:27:57Z</time>
      </trkpt>
      <trkpt lat="43.73002" lon="3.30645">
        <ele>226.9</ele>
        <time>2026-05-19T06:28:02Z</time>
      </trkpt>
      <trkpt lat="43.73002" lon="3.30634">
        <ele>225.8</ele>
        <time>2026-05-19T06:28:07Z</time>
      </trkpt>
      <trkpt lat="43.73003" lon="3.30625">
        <ele>224.5</ele>
        <time>2026-05-19T06:28:12Z</time>
      </trkpt>
      <trkpt lat="43.73004" lon="3.30615">
        <ele>223.1</ele>
        <time>2026-05-19T06:28:17Z</time>
      </trkpt>
      <trkpt lat="43.73005" lon="3.30608">
        <ele>222.1</ele>
        <time>2026-05-19T06:28:22Z</time>
      </trkpt>
      <trkpt lat="43.73008" lon="3.30597">
        <ele>220.1</ele>
        <time>2026-05-19T06:28:27Z</time>
      </trkpt>
      <trkpt lat="43.7301" lon="3.30586">
        <ele>218.5</ele>
        <time>2026-05-19T06:28:32Z</time>
      </trkpt>
      <trkpt lat="43.7301" lon="3.30578">
        <ele>217.4</ele>
        <time>2026-05-19T06:28:37Z</time>
      </trkpt>
      <trkpt lat="43.73011" lon="3.30575">
        <ele>216.7</ele>
        <time>2026-05-19T06:28:42Z</time>
      </trkpt>
      <trkpt lat="43.73011" lon="3.30573">
        <ele>216.4</ele>
        <time>2026-05-19T06:28:47Z</time>
      </trkpt>
      <trkpt lat="43.73008" lon="3.30564">
        <ele>215.8</ele>
        <time>2026-05-19T06:28:52Z</time>
      </trkpt>
      <trkpt lat="43.73005" lon="3.30557">
        <ele>215.4</ele>
        <time>2026-05-19T06:28:57Z</time>
      </trkpt>
      <trkpt lat="43.73003" lon="3.30551">
        <ele>214.9</ele>
        <time>2026-05-19T06:29:02Z</time>
      </trkpt>
      <trkpt lat="43.72997" lon="3.30543">
        <ele>214</ele>
        <time>2026-05-19T06:29:07Z</time>
      </trkpt>
      <trkpt lat="43.72992" lon="3.30533">
        <ele>212.2</ele>
        <time>2026-05-19T06:29:12Z</time>
      </trkpt>
      <trkpt lat="43.72986" lon="3.30527">
        <ele>211</ele>
        <time>2026-05-19T06:29:17Z</time>
      </trkpt>
      <trkpt lat="43.72982" lon="3.3052">
        <ele>209.8</ele>
        <time>2026-05-19T06:29:22Z</time>
      </trkpt>
      <trkpt lat="43.72977" lon="3.30514">
        <ele>208.9</ele>
        <time>2026-05-19T06:29:27Z</time>
      </trkpt>
      <trkpt lat="43.72972" lon="3.30509">
        <ele>208.1</ele>
        <time>2026-05-19T06:29:32Z</time>
      </trkpt>
      <trkpt lat="43.72966" lon="3.30504">
        <ele>207.5</ele>
        <time>2026-05-19T06:29:37Z</time>
      </trkpt>
      <trkpt lat="43.7296" lon="3.30501">
        <ele>207.1</ele>
        <time>2026-05-19T06:29:42Z</time>
      </trkpt>
      <trkpt lat="43.72956" lon="3.30498">
        <ele>207</ele>
        <time>2026-05-19T06:29:47Z</time>
      </trkpt>
      <trkpt lat="43.7295" lon="3.30494">
        <ele>207.2</ele>
        <time>2026-05-19T06:29:52Z</time>
      </trkpt>
      <trkpt lat="43.72943" lon="3.30487">
        <ele>207.4</ele>
        <time>2026-05-19T06:29:57Z</time>
      </trkpt>
      <trkpt lat="43.72936" lon="3.30484">
        <ele>207.6</ele>
        <time>2026-05-19T06:30:02Z</time>
      </trkpt>
      <trkpt lat="43.72931" lon="3.30482">
        <ele>207.8</ele>
        <time>2026-05-19T06:30:07Z</time>
      </trkpt>
      <trkpt lat="43.72928" lon="3.30478">
        <ele>208.1</ele>
        <time>2026-05-19T06:30:12Z</time>
      </trkpt>
      <trkpt lat="43.72925" lon="3.30476">
        <ele>208.2</ele>
        <time>2026-05-19T06:30:17Z</time>
      </trkpt>
      <trkpt lat="43.72922" lon="3.30473">
        <ele>208.5</ele>
        <time>2026-05-19T06:30:22Z</time>
      </trkpt>
      <trkpt lat="43.72919" lon="3.30467">
        <ele>208.9</ele>
        <time>2026-05-19T06:30:27Z</time>
      </trkpt>
      <trkpt lat="43.72914" lon="3.30461">
        <ele>209.8</ele>
        <time>2026-05-19T06:30:32Z</time>
      </trkpt>
      <trkpt lat="43.72912" lon="3.30457">
        <ele>210.5</ele>
        <time>2026-05-19T06:30:37Z</time>
      </trkpt>
      <trkpt lat="43.72907" lon="3.30455">
        <ele>211.5</ele>
        <time>2026-05-19T06:30:42Z</time>
      </trkpt>
      <trkpt lat="43.72903" lon="3.30454">
        <ele>212.3</ele>
        <time>2026-05-19T06:30:47Z</time>
      </trkpt>
      <trkpt lat="43.72897" lon="3.30454">
        <ele>213.5</ele>
        <time>2026-05-19T06:30:52Z</time>
      </trkpt>
      <trkpt lat="43.72892" lon="3.30453">
        <ele>214.5</ele>
        <time>2026-05-19T06:30:57Z</time>
      </trkpt>
      <trkpt lat="43.72887" lon="3.30453">
        <ele>215.5</ele>
        <time>2026-05-19T06:31:02Z</time>
      </trkpt>
      <trkpt lat="43.7288" lon="3.30452">
        <ele>216.9</ele>
        <time>2026-05-19T06:31:07Z</time>
      </trkpt>
      <trkpt lat="43.72874" lon="3.30451">
        <ele>218.1</ele>
        <time>2026-05-19T06:31:12Z</time>
      </trkpt>
      <trkpt lat="43.72868" lon="3.30451">
        <ele>219.2</ele>
        <time>2026-05-19T06:31:17Z</time>
      </trkpt>
      <trkpt lat="43.72863" lon="3.30448">
        <ele>220.5</ele>
        <time>2026-05-19T06:31:22Z</time>
      </trkpt>
      <trkpt lat="43.7286" lon="3.30442">
        <ele>221.7</ele>
        <time>2026-05-19T06:31:27Z</time>
      </trkpt>
      <trkpt lat="43.7286" lon="3.30436">
        <ele>222.3</ele>
        <time>2026-05-19T06:31:32Z</time>
      </trkpt>
      <trkpt lat="43.72858" lon="3.30429">
        <ele>223.4</ele>
        <time>2026-05-19T06:31:37Z</time>
      </trkpt>
      <trkpt lat="43.72858" lon="3.30421">
        <ele>224.2</ele>
        <time>2026-05-19T06:31:42Z</time>
      </trkpt>
      <trkpt lat="43.72857" lon="3.30413">
        <ele>225.4</ele>
        <time>2026-05-19T06:31:47Z</time>
      </trkpt>
      <trkpt lat="43.72857" lon="3.30406">
        <ele>226.3</ele>
        <time>2026-05-19T06:31:52Z</time>
      </trkpt>
      <trkpt lat="43.72856" lon="3.30396">
        <ele>227.9</ele>
        <time>2026-05-19T06:31:57Z</time>
      </trkpt>
      <trkpt lat="43.72856" lon="3.30389">
        <ele>228.9</ele>
        <time>2026-05-19T06:32:02Z</time>
      </trkpt>
      <trkpt lat="43.72856" lon="3.30382">
        <ele>229.8</ele>
        <time>2026-05-19T06:32:07Z</time>
      </trkpt>
      <trkpt lat="43.72855" lon="3.30374">
        <ele>231.2</ele>
        <time>2026-05-19T06:32:12Z</time>
      </trkpt>
      <trkpt lat="43.72855" lon="3.30368">
        <ele>232</ele>
        <time>2026-05-19T06:32:17Z</time>
      </trkpt>
      <trkpt lat="43.72854" lon="3.3036">
        <ele>233.4</ele>
        <time>2026-05-19T06:32:22Z</time>
      </trkpt>
      <trkpt lat="43.72854" lon="3.30352">
        <ele>234.5</ele>
        <time>2026-05-19T06:32:27Z</time>
      </trkpt>
      <trkpt lat="43.72855" lon="3.30344">
        <ele>235.3</ele>
        <time>2026-05-19T06:32:32Z</time>
      </trkpt>
      <trkpt lat="43.72856" lon="3.30336">
        <ele>236.1</ele>
        <time>2026-05-19T06:32:37Z</time>
      </trkpt>
      <trkpt lat="43.72856" lon="3.30329">
        <ele>237.3</ele>
        <time>2026-05-19T06:32:42Z</time>
      </trkpt>
      <trkpt lat="43.72857" lon="3.30322">
        <ele>238.3</ele>
        <time>2026-05-19T06:32:47Z</time>
      </trkpt>
      <trkpt lat="43.72857" lon="3.30316">
        <ele>239.4</ele>
        <time>2026-05-19T06:32:52Z</time>
      </trkpt>
      <trkpt lat="43.72857" lon="3.3031">
        <ele>240.5</ele>
        <time>2026-05-19T06:32:57Z</time>
      </trkpt>
      <trkpt lat="43.72858" lon="3.30303">
        <ele>241.5</ele>
        <time>2026-05-19T06:33:02Z</time>
      </trkpt>
      <trkpt lat="43.72859" lon="3.30294">
        <ele>242.9</ele>
        <time>2026-05-19T06:33:07Z</time>
      </trkpt>
      <trkpt lat="43.7286" lon="3.30286">
        <ele>244.1</ele>
        <time>2026-05-19T06:33:12Z</time>
      </trkpt>
      <trkpt lat="43.72862" lon="3.30278">
        <ele>244.9</ele>
        <time>2026-05-19T06:33:17Z</time>
      </trkpt>
      <trkpt lat="43.72863" lon="3.30271">
        <ele>245.8</ele>
        <time>2026-05-19T06:33:22Z</time>
      </trkpt>
      <trkpt lat="43.72864" lon="3.30265">
        <ele>246.6</ele>
        <time>2026-05-19T06:33:27Z</time>
      </trkpt>
      <trkpt lat="43.72865" lon="3.30258">
        <ele>247.5</ele>
        <time>2026-05-19T06:33:32Z</time>
      </trkpt>
      <trkpt lat="43.72866" lon="3.30251">
        <ele>248.5</ele>
        <time>2026-05-19T06:33:37Z</time>
      </trkpt>
      <trkpt lat="43.72865" lon="3.30244">
        <ele>249.9</ele>
        <time>2026-05-19T06:33:42Z</time>
      </trkpt>
      <trkpt lat="43.72864" lon="3.30241">
        <ele>250.7</ele>
        <time>2026-05-19T06:33:47Z</time>
      </trkpt>
      <trkpt lat="43.72864" lon="3.30239">
        <ele>251</ele>
        <time>2026-05-19T06:33:52Z</time>
      </trkpt>
      <trkpt lat="43.72864" lon="3.30239">
        <ele>251</ele>
        <time>2026-05-19T06:33:57Z</time>
      </trkpt>
      <trkpt lat="43.72864" lon="3.30239">
        <ele>251</ele>
        <time>2026-05-19T06:34:02Z</time>
      </trkpt>
      <trkpt lat="43.72864" lon="3.30239">
        <ele>251</ele>
        <time>2026-05-19T06:34:07Z</time>
      </trkpt>
      <trkpt lat="43.72864" lon="3.30239">
        <ele>251</ele>
        <time>2026-05-19T06:34:12Z</time>
      </trkpt>
      <trkpt lat="43.72864" lon="3.30239">
        <ele>251</ele>
        <time>2026-05-19T06:34:17Z</time>
      </trkpt>
      <trkpt lat="43.72864" lon="3.30239">
        <ele>251</ele>
        <time>2026-05-19T06:34:22Z</time>
      </trkpt>
      <trkpt lat="43.72864" lon="3.30239">
        <ele>251</ele>
        <time>2026-05-19T06:34:27Z</time>
      </trkpt>
      <trkpt lat="43.72864" lon="3.30239">
        <ele>251</ele>
        <time>2026-05-19T06:34:32Z</time>
      </trkpt>
      <trkpt lat="43.72864" lon="3.30239">
        <ele>251</ele>
        <time>2026-05-19T06:34:37Z</time>
      </trkpt>
      <trkpt lat="43.72864" lon="3.30239">
        <ele>251</ele>
        <time>2026-05-19T06:34:42Z</time>
      </trkpt>
      <trkpt lat="43.72864" lon="3.30239">
        <ele>251</ele>
        <time>2026-05-19T06:34:47Z</time>
      </trkpt>
      <trkpt lat="43.72864" lon="3.30239">
        <ele>251</ele>
        <time>2026-05-19T06:34:52Z</time>
      </trkpt>
      <trkpt lat="43.72864" lon="3.30239">
        <ele>251</ele>
        <time>2026-05-19T06:34:57Z</time>
      </trkpt>
      <trkpt lat="43.72864" lon="3.30239">
        <ele>251</ele>
        <time>2026-05-19T06:35:02Z</time>
      </trkpt>
      <trkpt lat="43.72864" lon="3.30239">
        <ele>251</ele>
        <time>2026-05-19T06:35:07Z</time>
      </trkpt>
      <trkpt lat="43.72864" lon="3.30239">
        <ele>251</ele>
        <time>2026-05-19T06:35:12Z</time>
      </trkpt>
      <trkpt lat="43.72864" lon="3.30239">
        <ele>251</ele>
        <time>2026-05-19T06:35:17Z</time>
      </trkpt>
      <trkpt lat="43.72864" lon="3.30239">
        <ele>251</ele>
        <time>2026-05-19T06:35:22Z</time>
      </trkpt>
      <trkpt lat="43.72864" lon="3.30239">
        <ele>251</ele>
        <time>2026-05-19T06:35:27Z</time>
      </trkpt>
      <trkpt lat="43.72864" lon="3.30239">
        <ele>251</ele>
        <time>2026-05-19T06:35:32Z</time>
      </trkpt>
      <trkpt lat="43.72864" lon="3.30239">
        <ele>251</ele>
        <time>2026-05-19T06:35:37Z</time>
      </trkpt>
      <trkpt lat="43.72864" lon="3.30239">
        <ele>251</ele>
        <time>2026-05-19T06:35:42Z</time>
      </trkpt>
      <trkpt lat="43.72864" lon="3.30239">
        <ele>251</ele>
        <time>2026-05-19T06:35:47Z</time>
      </trkpt>
      <trkpt lat="43.72864" lon="3.30239">
        <ele>251</ele>
        <time>2026-05-19T06:35:52Z</time>
      </trkpt>
      <trkpt lat="43.72864" lon="3.30239">
        <ele>251</ele>
        <time>2026-05-19T06:35:57Z</time>
      </trkpt>
      <trkpt lat="43.72864" lon="3.30239">
        <ele>251</ele>
        <time>2026-05-19T06:36:02Z</time>
      </trkpt>
      <trkpt lat="43.72864" lon="3.30239">
        <ele>251</ele>
        <time>2026-05-19T06:36:07Z</time>
      </trkpt>
      <trkpt lat="43.72864" lon="3.30239">
        <ele>251</ele>
        <time>2026-05-19T06:36:12Z</time>
      </trkpt>
      <trkpt lat="43.72864" lon="3.30232">
        <ele>252.1</ele>
        <time>2026-05-19T06:36:17Z</time>
      </trkpt>
      <trkpt lat="43.72865" lon="3.30223">
        <ele>253.1</ele>
        <time>2026-05-19T06:36:22Z</time>
      </trkpt>
      <trkpt lat="43.72865" lon="3.30215">
        <ele>254.3</ele>
        <time>2026-05-19T06:36:27Z</time>
      </trkpt>
      <trkpt lat="43.72864" lon="3.30206">
        <ele>256.1</ele>
        <time>2026-05-19T06:36:32Z</time>
      </trkpt>
      <trkpt lat="43.72862" lon="3.30199">
        <ele>257.9</ele>
        <time>2026-05-19T06:36:37Z</time>
      </trkpt>
      <trkpt lat="43.7286" lon="3.30192">
        <ele>259.8</ele>
        <time>2026-05-19T06:36:42Z</time>
      </trkpt>
      <trkpt lat="43.7286" lon="3.30186">
        <ele>260.8</ele>
        <time>2026-05-19T06:36:47Z</time>
      </trkpt>
      <trkpt lat="43.72858" lon="3.30178">
        <ele>262.8</ele>
        <time>2026-05-19T06:36:52Z</time>
      </trkpt>
      <trkpt lat="43.72858" lon="3.3017">
        <ele>264.1</ele>
        <time>2026-05-19T06:36:57Z</time>
      </trkpt>
      <trkpt lat="43.72858" lon="3.30162">
        <ele>265.1</ele>
        <time>2026-05-19T06:37:02Z</time>
      </trkpt>
      <trkpt lat="43.72859" lon="3.30156">
        <ele>265.2</ele>
        <time>2026-05-19T06:37:07Z</time>
      </trkpt>
      <trkpt lat="43.72859" lon="3.3015">
        <ele>265.8</ele>
        <time>2026-05-19T06:37:12Z</time>
      </trkpt>
      <trkpt lat="43.72859" lon="3.30144">
        <ele>266.4</ele>
        <time>2026-05-19T06:37:17Z</time>
      </trkpt>
      <trkpt lat="43.72858" lon="3.30138">
        <ele>267.3</ele>
        <time>2026-05-19T06:37:22Z</time>
      </trkpt>
      <trkpt lat="43.72859" lon="3.30134">
        <ele>267.3</ele>
        <time>2026-05-19T06:37:27Z</time>
      </trkpt>
      <trkpt lat="43.7286" lon="3.30129">
        <ele>267.4</ele>
        <time>2026-05-19T06:37:32Z</time>
      </trkpt>
      <trkpt lat="43.72862" lon="3.30124">
        <ele>267.1</ele>
        <time>2026-05-19T06:37:37Z</time>
      </trkpt>
      <trkpt lat="43.72864" lon="3.30119">
        <ele>266.8</ele>
        <time>2026-05-19T06:37:42Z</time>
      </trkpt>
      <trkpt lat="43.72865" lon="3.30112">
        <ele>267.1</ele>
        <time>2026-05-19T06:37:47Z</time>
      </trkpt>
      <trkpt lat="43.72864" lon="3.30103">
        <ele>268.4</ele>
        <time>2026-05-19T06:37:52Z</time>
      </trkpt>
      <trkpt lat="43.72864" lon="3.30095">
        <ele>269.2</ele>
        <time>2026-05-19T06:37:57Z</time>
      </trkpt>
      <trkpt lat="43.72863" lon="3.30089">
        <ele>270.1</ele>
        <time>2026-05-19T06:38:02Z</time>
      </trkpt>
      <trkpt lat="43.72863" lon="3.30084">
        <ele>270.6</ele>
        <time>2026-05-19T06:38:07Z</time>
      </trkpt>
      <trkpt lat="43.72861" lon="3.30079">
        <ele>270.7</ele>
        <time>2026-05-19T06:38:12Z</time>
      </trkpt>
      <trkpt lat="43.72859" lon="3.30074">
        <ele>270.7</ele>
        <time>2026-05-19T06:38:17Z</time>
      </trkpt>
      <trkpt lat="43.72858" lon="3.30069">
        <ele>270.3</ele>
        <time>2026-05-19T06:38:22Z</time>
      </trkpt>
      <trkpt lat="43.72857" lon="3.30064">
        <ele>269.8</ele>
        <time>2026-05-19T06:38:27Z</time>
      </trkpt>
      <trkpt lat="43.72856" lon="3.30059">
        <ele>269.4</ele>
        <time>2026-05-19T06:38:32Z</time>
      </trkpt>
      <trkpt lat="43.72856" lon="3.30054">
        <ele>268.6</ele>
        <time>2026-05-19T06:38:37Z</time>
      </trkpt>
      <trkpt lat="43.72857" lon="3.30048">
        <ele>267.4</ele>
        <time>2026-05-19T06:38:42Z</time>
      </trkpt>
      <trkpt lat="43.72857" lon="3.30042">
        <ele>266.5</ele>
        <time>2026-05-19T06:38:47Z</time>
      </trkpt>
      <trkpt lat="43.72857" lon="3.30035">
        <ele>265.5</ele>
        <time>2026-05-19T06:38:52Z</time>
      </trkpt>
      <trkpt lat="43.72856" lon="3.30029">
        <ele>264.8</ele>
        <time>2026-05-19T06:38:57Z</time>
      </trkpt>
      <trkpt lat="43.72854" lon="3.30025">
        <ele>264.7</ele>
        <time>2026-05-19T06:39:02Z</time>
      </trkpt>
      <trkpt lat="43.72852" lon="3.30021">
        <ele>264.5</ele>
        <time>2026-05-19T06:39:07Z</time>
      </trkpt>
      <trkpt lat="43.72848" lon="3.30018">
        <ele>265</ele>
        <time>2026-05-19T06:39:12Z</time>
      </trkpt>
      <trkpt lat="43.72844" lon="3.30016">
        <ele>265.6</ele>
        <time>2026-05-19T06:39:17Z</time>
      </trkpt>
      <trkpt lat="43.7284" lon="3.30015">
        <ele>266.3</ele>
        <time>2026-05-19T06:39:22Z</time>
      </trkpt>
      <trkpt lat="43.72836" lon="3.30015">
        <ele>267.3</ele>
        <time>2026-05-19T06:39:27Z</time>
      </trkpt>
      <trkpt lat="43.72833" lon="3.30015">
        <ele>267.9</ele>
        <time>2026-05-19T06:39:32Z</time>
      </trkpt>
      <trkpt lat="43.72831" lon="3.30014">
        <ele>268</ele>
        <time>2026-05-19T06:39:37Z</time>
      </trkpt>
      <trkpt lat="43.72831" lon="3.30014">
        <ele>268</ele>
        <time>2026-05-19T06:39:42Z</time>
      </trkpt>
      <trkpt lat="43.72824" lon="3.30011">
        <ele>268.4</ele>
        <time>2026-05-19T06:39:47Z</time>
      </trkpt>
      <trkpt lat="43.7282" lon="3.3001">
        <ele>268.8</ele>
        <time>2026-05-19T06:39:52Z</time>
      </trkpt>
      <trkpt lat="43.72817" lon="3.30009">
        <ele>269</ele>
        <time>2026-05-19T06:39:57Z</time>
      </trkpt>
      <trkpt lat="43.72815" lon="3.30008">
        <ele>269.2</ele>
        <time>2026-05-19T06:40:02Z</time>
      </trkpt>
      <trkpt lat="43.72811" lon="3.30008">
        <ele>269.7</ele>
        <time>2026-05-19T06:40:07Z</time>
      </trkpt>
      <trkpt lat="43.72808" lon="3.30008">
        <ele>270.2</ele>
        <time>2026-05-19T06:40:12Z</time>
      </trkpt>
      <trkpt lat="43.72805" lon="3.30008">
        <ele>270.6</ele>
        <time>2026-05-19T06:40:17Z</time>
      </trkpt>
      <trkpt lat="43.72803" lon="3.30006">
        <ele>270.6</ele>
        <time>2026-05-19T06:40:22Z</time>
      </trkpt>
      <trkpt lat="43.72802" lon="3.30005">
        <ele>270.6</ele>
        <time>2026-05-19T06:40:27Z</time>
      </trkpt>
      <trkpt lat="43.72802" lon="3.30005">
        <ele>270.6</ele>
        <time>2026-05-19T06:40:32Z</time>
      </trkpt>
      <trkpt lat="43.72802" lon="3.30005">
        <ele>270.6</ele>
        <time>2026-05-19T06:40:37Z</time>
      </trkpt>
      <trkpt lat="43.72794" lon="3.30001">
        <ele>271.3</ele>
        <time>2026-05-19T06:40:42Z</time>
      </trkpt>
      <trkpt lat="43.7279" lon="3.30001">
        <ele>271.9</ele>
        <time>2026-05-19T06:40:47Z</time>
      </trkpt>
      <trkpt lat="43.72787" lon="3.3">
        <ele>272.2</ele>
        <time>2026-05-19T06:40:52Z</time>
      </trkpt>
      <trkpt lat="43.72784" lon="3.29999">
        <ele>272.7</ele>
        <time>2026-05-19T06:40:57Z</time>
      </trkpt>
      <trkpt lat="43.72779" lon="3.29997">
        <ele>273.6</ele>
        <time>2026-05-19T06:41:02Z</time>
      </trkpt>
      <trkpt lat="43.72776" lon="3.29996">
        <ele>274.2</ele>
        <time>2026-05-19T06:41:07Z</time>
      </trkpt>
      <trkpt lat="43.72772" lon="3.29996">
        <ele>274.8</ele>
        <time>2026-05-19T06:41:12Z</time>
      </trkpt>
      <trkpt lat="43.7277" lon="3.29994">
        <ele>275.2</ele>
        <time>2026-05-19T06:41:17Z</time>
      </trkpt>
      <trkpt lat="43.72768" lon="3.29993">
        <ele>275.6</ele>
        <time>2026-05-19T06:41:22Z</time>
      </trkpt>
      <trkpt lat="43.72767" lon="3.29992">
        <ele>275.9</ele>
        <time>2026-05-19T06:41:27Z</time>
      </trkpt>
      <trkpt lat="43.72767" lon="3.29992">
        <ele>275.9</ele>
        <time>2026-05-19T06:41:32Z</time>
      </trkpt>
      <trkpt lat="43.72761" lon="3.29984">
        <ele>277.4</ele>
        <time>2026-05-19T06:41:37Z</time>
      </trkpt>
      <trkpt lat="43.72758" lon="3.29981">
        <ele>278.2</ele>
        <time>2026-05-19T06:41:42Z</time>
      </trkpt>
      <trkpt lat="43.72755" lon="3.29979">
        <ele>278.9</ele>
        <time>2026-05-19T06:41:47Z</time>
      </trkpt>
      <trkpt lat="43.72754" lon="3.29979">
        <ele>279</ele>
        <time>2026-05-19T06:41:52Z</time>
      </trkpt>
      <trkpt lat="43.72749" lon="3.29977">
        <ele>280.2</ele>
        <time>2026-05-19T06:41:57Z</time>
      </trkpt>
      <trkpt lat="43.72745" lon="3.29977">
        <ele>281.1</ele>
        <time>2026-05-19T06:42:02Z</time>
      </trkpt>
      <trkpt lat="43.7274" lon="3.29972">
        <ele>282.8</ele>
        <time>2026-05-19T06:42:07Z</time>
      </trkpt>
      <trkpt lat="43.7274" lon="3.29965">
        <ele>283.3</ele>
        <time>2026-05-19T06:42:12Z</time>
      </trkpt>
      <trkpt lat="43.72742" lon="3.29957">
        <ele>283.5</ele>
        <time>2026-05-19T06:42:17Z</time>
      </trkpt>
      <trkpt lat="43.72744" lon="3.2995">
        <ele>283.6</ele>
        <time>2026-05-19T06:42:22Z</time>
      </trkpt>
      <trkpt lat="43.72743" lon="3.29943">
        <ele>284.4</ele>
        <time>2026-05-19T06:42:27Z</time>
      </trkpt>
      <trkpt lat="43.72741" lon="3.29937">
        <ele>285.3</ele>
        <time>2026-05-19T06:42:32Z</time>
      </trkpt>
      <trkpt lat="43.72738" lon="3.29931">
        <ele>286.5</ele>
        <time>2026-05-19T06:42:37Z</time>
      </trkpt>
      <trkpt lat="43.72735" lon="3.29927">
        <ele>287.4</ele>
        <time>2026-05-19T06:42:42Z</time>
      </trkpt>
      <trkpt lat="43.72734" lon="3.29921">
        <ele>288.1</ele>
        <time>2026-05-19T06:42:47Z</time>
      </trkpt>
      <trkpt lat="43.72734" lon="3.29915">
        <ele>288.4</ele>
        <time>2026-05-19T06:42:52Z</time>
      </trkpt>
      <trkpt lat="43.72733" lon="3.29911">
        <ele>288.6</ele>
        <time>2026-05-19T06:42:57Z</time>
      </trkpt>
      <trkpt lat="43.72734" lon="3.29905">
        <ele>288.3</ele>
        <time>2026-05-19T06:43:02Z</time>
      </trkpt>
      <trkpt lat="43.72734" lon="3.29898">
        <ele>288.2</ele>
        <time>2026-05-19T06:43:07Z</time>
      </trkpt>
      <trkpt lat="43.72734" lon="3.29893">
        <ele>288.1</ele>
        <time>2026-05-19T06:43:12Z</time>
      </trkpt>
      <trkpt lat="43.72736" lon="3.29889">
        <ele>287.6</ele>
        <time>2026-05-19T06:43:17Z</time>
      </trkpt>
      <trkpt lat="43.72736" lon="3.29886">
        <ele>287.6</ele>
        <time>2026-05-19T06:43:22Z</time>
      </trkpt>
      <trkpt lat="43.72736" lon="3.29886">
        <ele>287.6</ele>
        <time>2026-05-19T06:43:27Z</time>
      </trkpt>
      <trkpt lat="43.72736" lon="3.29886">
        <ele>287.6</ele>
        <time>2026-05-19T06:43:32Z</time>
      </trkpt>
      <trkpt lat="43.72736" lon="3.29886">
        <ele>287.6</ele>
        <time>2026-05-19T06:43:37Z</time>
      </trkpt>
      <trkpt lat="43.72736" lon="3.29886">
        <ele>287.6</ele>
        <time>2026-05-19T06:43:42Z</time>
      </trkpt>
      <trkpt lat="43.72736" lon="3.29886">
        <ele>287.6</ele>
        <time>2026-05-19T06:43:47Z</time>
      </trkpt>
      <trkpt lat="43.72736" lon="3.29886">
        <ele>287.6</ele>
        <time>2026-05-19T06:43:52Z</time>
      </trkpt>
      <trkpt lat="43.72736" lon="3.29886">
        <ele>287.6</ele>
        <time>2026-05-19T06:43:57Z</time>
      </trkpt>
      <trkpt lat="43.72735" lon="3.29874">
        <ele>287.6</ele>
        <time>2026-05-19T06:44:02Z</time>
      </trkpt>
      <trkpt lat="43.72735" lon="3.29875">
        <ele>287.7</ele>
        <time>2026-05-19T06:44:07Z</time>
      </trkpt>
      <trkpt lat="43.72735" lon="3.29875">
        <ele>287.7</ele>
        <time>2026-05-19T06:44:12Z</time>
      </trkpt>
      <trkpt lat="43.72735" lon="3.29875">
        <ele>287.7</ele>
        <time>2026-05-19T06:44:17Z</time>
      </trkpt>
      <trkpt lat="43.72735" lon="3.29875">
        <ele>287.7</ele>
        <time>2026-05-19T06:44:22Z</time>
      </trkpt>
      <trkpt lat="43.72735" lon="3.29875">
        <ele>287.7</ele>
        <time>2026-05-19T06:44:27Z</time>
      </trkpt>
      <trkpt lat="43.72735" lon="3.29875">
        <ele>287.7</ele>
        <time>2026-05-19T06:44:32Z</time>
      </trkpt>
      <trkpt lat="43.72735" lon="3.29875">
        <ele>287.7</ele>
        <time>2026-05-19T06:44:37Z</time>
      </trkpt>
      <trkpt lat="43.72735" lon="3.29875">
        <ele>287.7</ele>
        <time>2026-05-19T06:44:42Z</time>
      </trkpt>
      <trkpt lat="43.72726" lon="3.29871">
        <ele>289.5</ele>
        <time>2026-05-19T06:44:47Z</time>
      </trkpt>
      <trkpt lat="43.72725" lon="3.2987">
        <ele>289.7</ele>
        <time>2026-05-19T06:44:52Z</time>
      </trkpt>
      <trkpt lat="43.72725" lon="3.2987">
        <ele>289.7</ele>
        <time>2026-05-19T06:44:57Z</time>
      </trkpt>
      <trkpt lat="43.72721" lon="3.29865">
        <ele>290.4</ele>
        <time>2026-05-19T06:45:02Z</time>
      </trkpt>
      <trkpt lat="43.72718" lon="3.2986">
        <ele>291</ele>
        <time>2026-05-19T06:45:07Z</time>
      </trkpt>
      <trkpt lat="43.72713" lon="3.29855">
        <ele>291.9</ele>
        <time>2026-05-19T06:45:12Z</time>
      </trkpt>
      <trkpt lat="43.72709" lon="3.29851">
        <ele>292.7</ele>
        <time>2026-05-19T06:45:17Z</time>
      </trkpt>
      <trkpt lat="43.72707" lon="3.29848">
        <ele>293</ele>
        <time>2026-05-19T06:45:22Z</time>
      </trkpt>
      <trkpt lat="43.72706" lon="3.29844">
        <ele>293.2</ele>
        <time>2026-05-19T06:45:27Z</time>
      </trkpt>
      <trkpt lat="43.72703" lon="3.29842">
        <ele>293.8</ele>
        <time>2026-05-19T06:45:32Z</time>
      </trkpt>
      <trkpt lat="43.72699" lon="3.29839">
        <ele>294.5</ele>
        <time>2026-05-19T06:45:37Z</time>
      </trkpt>
      <trkpt lat="43.72695" lon="3.29837">
        <ele>295.3</ele>
        <time>2026-05-19T06:45:42Z</time>
      </trkpt>
      <trkpt lat="43.72691" lon="3.29834">
        <ele>296</ele>
        <time>2026-05-19T06:45:47Z</time>
      </trkpt>
      <trkpt lat="43.7269" lon="3.29829">
        <ele>295.8</ele>
        <time>2026-05-19T06:45:52Z</time>
      </trkpt>
      <trkpt lat="43.72689" lon="3.29826">
        <ele>295.7</ele>
        <time>2026-05-19T06:45:57Z</time>
      </trkpt>
      <trkpt lat="43.72685" lon="3.29826">
        <ele>296.6</ele>
        <time>2026-05-19T06:46:02Z</time>
      </trkpt>
      <trkpt lat="43.72682" lon="3.2983">
        <ele>297.6</ele>
        <time>2026-05-19T06:46:07Z</time>
      </trkpt>
      <trkpt lat="43.72679" lon="3.29835">
        <ele>298.5</ele>
        <time>2026-05-19T06:46:12Z</time>
      </trkpt>
      <trkpt lat="43.72677" lon="3.29838">
        <ele>299</ele>
        <time>2026-05-19T06:46:17Z</time>
      </trkpt>
      <trkpt lat="43.72675" lon="3.29836">
        <ele>299.4</ele>
        <time>2026-05-19T06:46:22Z</time>
      </trkpt>
      <trkpt lat="43.72674" lon="3.29836">
        <ele>299.6</ele>
        <time>2026-05-19T06:46:27Z</time>
      </trkpt>
      <trkpt lat="43.72674" lon="3.29836">
        <ele>299.6</ele>
        <time>2026-05-19T06:46:32Z</time>
      </trkpt>
      <trkpt lat="43.72674" lon="3.29836">
        <ele>299.6</ele>
        <time>2026-05-19T06:46:37Z</time>
      </trkpt>
      <trkpt lat="43.72667" lon="3.29833">
        <ele>300.9</ele>
        <time>2026-05-19T06:46:42Z</time>
      </trkpt>
      <trkpt lat="43.72667" lon="3.29833">
        <ele>300.9</ele>
        <time>2026-05-19T06:46:47Z</time>
      </trkpt>
      <trkpt lat="43.72667" lon="3.29833">
        <ele>300.9</ele>
        <time>2026-05-19T06:46:52Z</time>
      </trkpt>
      <trkpt lat="43.72665" lon="3.29822">
        <ele>300.1</ele>
        <time>2026-05-19T06:46:57Z</time>
      </trkpt>
      <trkpt lat="43.72666" lon="3.29816">
        <ele>299.4</ele>
        <time>2026-05-19T06:47:02Z</time>
      </trkpt>
      <trkpt lat="43.72664" lon="3.29813">
        <ele>299.3</ele>
        <time>2026-05-19T06:47:07Z</time>
      </trkpt>
      <trkpt lat="43.72659" lon="3.29813">
        <ele>299.9</ele>
        <time>2026-05-19T06:47:12Z</time>
      </trkpt>
      <trkpt lat="43.72656" lon="3.29812">
        <ele>300.1</ele>
        <time>2026-05-19T06:47:17Z</time>
      </trkpt>
      <trkpt lat="43.72653" lon="3.29811">
        <ele>300.4</ele>
        <time>2026-05-19T06:47:22Z</time>
      </trkpt>
      <trkpt lat="43.72651" lon="3.29806">
        <ele>300.1</ele>
        <time>2026-05-19T06:47:27Z</time>
      </trkpt>
      <trkpt lat="43.72649" lon="3.29802">
        <ele>300</ele>
        <time>2026-05-19T06:47:32Z</time>
      </trkpt>
      <trkpt lat="43.72645" lon="3.298">
        <ele>300.2</ele>
        <time>2026-05-19T06:47:37Z</time>
      </trkpt>
      <trkpt lat="43.7264" lon="3.298">
        <ele>300.8</ele>
        <time>2026-05-19T06:47:42Z</time>
      </trkpt>
      <trkpt lat="43.72636" lon="3.29797">
        <ele>301</ele>
        <time>2026-05-19T06:47:47Z</time>
      </trkpt>
      <trkpt lat="43.72632" lon="3.29793">
        <ele>301.1</ele>
        <time>2026-05-19T06:47:52Z</time>
      </trkpt>
      <trkpt lat="43.72628" lon="3.29792">
        <ele>301.4</ele>
        <time>2026-05-19T06:47:57Z</time>
      </trkpt>
      <trkpt lat="43.72624" lon="3.2979">
        <ele>301.7</ele>
        <time>2026-05-19T06:48:02Z</time>
      </trkpt>
      <trkpt lat="43.72621" lon="3.29786">
        <ele>301.7</ele>
        <time>2026-05-19T06:48:07Z</time>
      </trkpt>
      <trkpt lat="43.72617" lon="3.29784">
        <ele>302</ele>
        <time>2026-05-19T06:48:12Z</time>
      </trkpt>
      <trkpt lat="43.72614" lon="3.29781">
        <ele>302.1</ele>
        <time>2026-05-19T06:48:17Z</time>
      </trkpt>
      <trkpt lat="43.72611" lon="3.29778">
        <ele>302.1</ele>
        <time>2026-05-19T06:48:22Z</time>
      </trkpt>
      <trkpt lat="43.72607" lon="3.29776">
        <ele>302.4</ele>
        <time>2026-05-19T06:48:27Z</time>
      </trkpt>
      <trkpt lat="43.72602" lon="3.29771">
        <ele>302.6</ele>
        <time>2026-05-19T06:48:32Z</time>
      </trkpt>
      <trkpt lat="43.72598" lon="3.29769">
        <ele>302.9</ele>
        <time>2026-05-19T06:48:37Z</time>
      </trkpt>
      <trkpt lat="43.72594" lon="3.29766">
        <ele>303.1</ele>
        <time>2026-05-19T06:48:42Z</time>
      </trkpt>
      <trkpt lat="43.7259" lon="3.29766">
        <ele>303.6</ele>
        <time>2026-05-19T06:48:47Z</time>
      </trkpt>
      <trkpt lat="43.72586" lon="3.29766">
        <ele>304</ele>
        <time>2026-05-19T06:48:52Z</time>
      </trkpt>
      <trkpt lat="43.72582" lon="3.29768">
        <ele>304.6</ele>
        <time>2026-05-19T06:48:57Z</time>
      </trkpt>
      <trkpt lat="43.72577" lon="3.29768">
        <ele>304.9</ele>
        <time>2026-05-19T06:49:02Z</time>
      </trkpt>
      <trkpt lat="43.72571" lon="3.29767">
        <ele>305.3</ele>
        <time>2026-05-19T06:49:07Z</time>
      </trkpt>
      <trkpt lat="43.72566" lon="3.29768">
        <ele>305.7</ele>
        <time>2026-05-19T06:49:12Z</time>
      </trkpt>
      <trkpt lat="43.72562" lon="3.29767">
        <ele>305.9</ele>
        <time>2026-05-19T06:49:17Z</time>
      </trkpt>
      <trkpt lat="43.72558" lon="3.29768">
        <ele>306.2</ele>
        <time>2026-05-19T06:49:22Z</time>
      </trkpt>
      <trkpt lat="43.72553" lon="3.29768">
        <ele>306.5</ele>
        <time>2026-05-19T06:49:27Z</time>
      </trkpt>
      <trkpt lat="43.72547" lon="3.29769">
        <ele>307</ele>
        <time>2026-05-19T06:49:32Z</time>
      </trkpt>
      <trkpt lat="43.72541" lon="3.2977">
        <ele>307.5</ele>
        <time>2026-05-19T06:49:37Z</time>
      </trkpt>
      <trkpt lat="43.72536" lon="3.29771">
        <ele>307.9</ele>
        <time>2026-05-19T06:49:42Z</time>
      </trkpt>
      <trkpt lat="43.72531" lon="3.29774">
        <ele>308.4</ele>
        <time>2026-05-19T06:49:47Z</time>
      </trkpt>
      <trkpt lat="43.72527" lon="3.29778">
        <ele>309</ele>
        <time>2026-05-19T06:49:52Z</time>
      </trkpt>
      <trkpt lat="43.72521" lon="3.29781">
        <ele>309.5</ele>
        <time>2026-05-19T06:49:57Z</time>
      </trkpt>
      <trkpt lat="43.72515" lon="3.29782">
        <ele>310</ele>
        <time>2026-05-19T06:50:02Z</time>
      </trkpt>
      <trkpt lat="43.7251" lon="3.29785">
        <ele>310.5</ele>
        <time>2026-05-19T06:50:07Z</time>
      </trkpt>
      <trkpt lat="43.72506" lon="3.29787">
        <ele>310.9</ele>
        <time>2026-05-19T06:50:12Z</time>
      </trkpt>
      <trkpt lat="43.72503" lon="3.2979">
        <ele>311.2</ele>
        <time>2026-05-19T06:50:17Z</time>
      </trkpt>
      <trkpt lat="43.725" lon="3.29795">
        <ele>311.7</ele>
        <time>2026-05-19T06:50:22Z</time>
      </trkpt>
      <trkpt lat="43.72495" lon="3.298">
        <ele>313.1</ele>
        <time>2026-05-19T06:50:27Z</time>
      </trkpt>
      <trkpt lat="43.72489" lon="3.29797">
        <ele>314.3</ele>
        <time>2026-05-19T06:50:32Z</time>
      </trkpt>
      <trkpt lat="43.72482" lon="3.29794">
        <ele>315.6</ele>
        <time>2026-05-19T06:50:37Z</time>
      </trkpt>
      <trkpt lat="43.72475" lon="3.29792">
        <ele>317.1</ele>
        <time>2026-05-19T06:50:42Z</time>
      </trkpt>
      <trkpt lat="43.72469" lon="3.2979">
        <ele>318.3</ele>
        <time>2026-05-19T06:50:47Z</time>
      </trkpt>
      <trkpt lat="43.72466" lon="3.29792">
        <ele>319.1</ele>
        <time>2026-05-19T06:50:52Z</time>
      </trkpt>
      <trkpt lat="43.72464" lon="3.2979">
        <ele>319.4</ele>
        <time>2026-05-19T06:50:57Z</time>
      </trkpt>
      <trkpt lat="43.72461" lon="3.29788">
        <ele>319.9</ele>
        <time>2026-05-19T06:51:02Z</time>
      </trkpt>
      <trkpt lat="43.72456" lon="3.29784">
        <ele>320.8</ele>
        <time>2026-05-19T06:51:07Z</time>
      </trkpt>
      <trkpt lat="43.72454" lon="3.2978">
        <ele>320.9</ele>
        <time>2026-05-19T06:51:12Z</time>
      </trkpt>
      <trkpt lat="43.7245" lon="3.29777">
        <ele>321.6</ele>
        <time>2026-05-19T06:51:17Z</time>
      </trkpt>
      <trkpt lat="43.72446" lon="3.29778">
        <ele>322.6</ele>
        <time>2026-05-19T06:51:22Z</time>
      </trkpt>
      <trkpt lat="43.7244" lon="3.2978">
        <ele>324</ele>
        <time>2026-05-19T06:51:27Z</time>
      </trkpt>
      <trkpt lat="43.72434" lon="3.29778">
        <ele>325.2</ele>
        <time>2026-05-19T06:51:32Z</time>
      </trkpt>
      <trkpt lat="43.72432" lon="3.29775">
        <ele>325.4</ele>
        <time>2026-05-19T06:51:37Z</time>
      </trkpt>
      <trkpt lat="43.72432" lon="3.29774">
        <ele>325.4</ele>
        <time>2026-05-19T06:51:42Z</time>
      </trkpt>
      <trkpt lat="43.72432" lon="3.29774">
        <ele>325.4</ele>
        <time>2026-05-19T06:51:47Z</time>
      </trkpt>
      <trkpt lat="43.72432" lon="3.29774">
        <ele>325.4</ele>
        <time>2026-05-19T06:51:52Z</time>
      </trkpt>
      <trkpt lat="43.72432" lon="3.29774">
        <ele>325.4</ele>
        <time>2026-05-19T06:51:57Z</time>
      </trkpt>
      <trkpt lat="43.72432" lon="3.29774">
        <ele>325.4</ele>
        <time>2026-05-19T06:52:02Z</time>
      </trkpt>
      <trkpt lat="43.72432" lon="3.29774">
        <ele>325.4</ele>
        <time>2026-05-19T06:52:07Z</time>
      </trkpt>
      <trkpt lat="43.72427" lon="3.29777">
        <ele>326.7</ele>
        <time>2026-05-19T06:52:12Z</time>
      </trkpt>
      <trkpt lat="43.72422" lon="3.29774">
        <ele>327.6</ele>
        <time>2026-05-19T06:52:17Z</time>
      </trkpt>
      <trkpt lat="43.72418" lon="3.29768">
        <ele>328</ele>
        <time>2026-05-19T06:52:22Z</time>
      </trkpt>
      <trkpt lat="43.72416" lon="3.29763">
        <ele>328.1</ele>
        <time>2026-05-19T06:52:27Z</time>
      </trkpt>
      <trkpt lat="43.72414" lon="3.29759">
        <ele>328.2</ele>
        <time>2026-05-19T06:52:32Z</time>
      </trkpt>
      <trkpt lat="43.72412" lon="3.29754">
        <ele>328.2</ele>
        <time>2026-05-19T06:52:37Z</time>
      </trkpt>
      <trkpt lat="43.72409" lon="3.29748">
        <ele>328.4</ele>
        <time>2026-05-19T06:52:42Z</time>
      </trkpt>
      <trkpt lat="43.72406" lon="3.29741">
        <ele>328.5</ele>
        <time>2026-05-19T06:52:47Z</time>
      </trkpt>
      <trkpt lat="43.72403" lon="3.29739">
        <ele>329</ele>
        <time>2026-05-19T06:52:52Z</time>
      </trkpt>
      <trkpt lat="43.724" lon="3.29734">
        <ele>329.2</ele>
        <time>2026-05-19T06:52:57Z</time>
      </trkpt>
      <trkpt lat="43.72397" lon="3.29728">
        <ele>329.3</ele>
        <time>2026-05-19T06:53:02Z</time>
      </trkpt>
      <trkpt lat="43.72395" lon="3.29724">
        <ele>329.4</ele>
        <time>2026-05-19T06:53:07Z</time>
      </trkpt>
      <trkpt lat="43.72391" lon="3.2972">
        <ele>329.9</ele>
        <time>2026-05-19T06:53:12Z</time>
      </trkpt>
      <trkpt lat="43.72387" lon="3.29716">
        <ele>330.3</ele>
        <time>2026-05-19T06:53:17Z</time>
      </trkpt>
      <trkpt lat="43.72387" lon="3.29713">
        <ele>330.1</ele>
        <time>2026-05-19T06:53:22Z</time>
      </trkpt>
      <trkpt lat="43.72386" lon="3.2971">
        <ele>330</ele>
        <time>2026-05-19T06:53:27Z</time>
      </trkpt>
      <trkpt lat="43.72386" lon="3.2971">
        <ele>330</ele>
        <time>2026-05-19T06:53:32Z</time>
      </trkpt>
      <trkpt lat="43.72386" lon="3.2971">
        <ele>330</ele>
        <time>2026-05-19T06:53:37Z</time>
      </trkpt>
      <trkpt lat="43.72386" lon="3.2971">
        <ele>330</ele>
        <time>2026-05-19T06:53:42Z</time>
      </trkpt>
      <trkpt lat="43.72386" lon="3.2971">
        <ele>330</ele>
        <time>2026-05-19T06:53:47Z</time>
      </trkpt>
      <trkpt lat="43.72374" lon="3.29709">
        <ele>332.2</ele>
        <time>2026-05-19T06:53:52Z</time>
      </trkpt>
      <trkpt lat="43.72374" lon="3.29707">
        <ele>332.1</ele>
        <time>2026-05-19T06:53:57Z</time>
      </trkpt>
      <trkpt lat="43.72374" lon="3.29707">
        <ele>332.1</ele>
        <time>2026-05-19T06:54:02Z</time>
      </trkpt>
      <trkpt lat="43.72371" lon="3.29709">
        <ele>332.8</ele>
        <time>2026-05-19T06:54:07Z</time>
      </trkpt>
      <trkpt lat="43.72368" lon="3.29709">
        <ele>333.4</ele>
        <time>2026-05-19T06:54:12Z</time>
      </trkpt>
      <trkpt lat="43.72366" lon="3.29707">
        <ele>333.6</ele>
        <time>2026-05-19T06:54:17Z</time>
      </trkpt>
      <trkpt lat="43.72365" lon="3.29702">
        <ele>333.4</ele>
        <time>2026-05-19T06:54:22Z</time>
      </trkpt>
      <trkpt lat="43.72366" lon="3.29696">
        <ele>332.7</ele>
        <time>2026-05-19T06:54:27Z</time>
      </trkpt>
      <trkpt lat="43.72365" lon="3.2969">
        <ele>332.3</ele>
        <time>2026-05-19T06:54:32Z</time>
      </trkpt>
      <trkpt lat="43.72362" lon="3.29683">
        <ele>332.3</ele>
        <time>2026-05-19T06:54:37Z</time>
      </trkpt>
      <trkpt lat="43.72361" lon="3.29676">
        <ele>331.8</ele>
        <time>2026-05-19T06:54:42Z</time>
      </trkpt>
      <trkpt lat="43.72359" lon="3.2967">
        <ele>331.7</ele>
        <time>2026-05-19T06:54:47Z</time>
      </trkpt>
      <trkpt lat="43.72357" lon="3.29667">
        <ele>331.8</ele>
        <time>2026-05-19T06:54:52Z</time>
      </trkpt>
      <trkpt lat="43.72354" lon="3.29662">
        <ele>331.5</ele>
        <time>2026-05-19T06:54:57Z</time>
      </trkpt>
      <trkpt lat="43.72352" lon="3.29658">
        <ele>331.1</ele>
        <time>2026-05-19T06:55:02Z</time>
      </trkpt>
      <trkpt lat="43.72348" lon="3.29655">
        <ele>331.3</ele>
        <time>2026-05-19T06:55:07Z</time>
      </trkpt>
      <trkpt lat="43.72344" lon="3.29654">
        <ele>331.8</ele>
        <time>2026-05-19T06:55:12Z</time>
      </trkpt>
      <trkpt lat="43.72339" lon="3.29653">
        <ele>332.5</ele>
        <time>2026-05-19T06:55:17Z</time>
      </trkpt>
      <trkpt lat="43.72334" lon="3.2965">
        <ele>332.9</ele>
        <time>2026-05-19T06:55:22Z</time>
      </trkpt>
      <trkpt lat="43.72331" lon="3.29649">
        <ele>333.1</ele>
        <time>2026-05-19T06:55:27Z</time>
      </trkpt>
      <trkpt lat="43.72327" lon="3.2965">
        <ele>333.7</ele>
        <time>2026-05-19T06:55:32Z</time>
      </trkpt>
      <trkpt lat="43.72321" lon="3.2965">
        <ele>334.5</ele>
        <time>2026-05-19T06:55:37Z</time>
      </trkpt>
      <trkpt lat="43.72316" lon="3.29652">
        <ele>335.4</ele>
        <time>2026-05-19T06:55:42Z</time>
      </trkpt>
      <trkpt lat="43.72312" lon="3.29654">
        <ele>336.1</ele>
        <time>2026-05-19T06:55:47Z</time>
      </trkpt>
      <trkpt lat="43.72308" lon="3.29655">
        <ele>336.7</ele>
        <time>2026-05-19T06:55:52Z</time>
      </trkpt>
      <trkpt lat="43.72306" lon="3.29655">
        <ele>336.9</ele>
        <time>2026-05-19T06:55:57Z</time>
      </trkpt>
      <trkpt lat="43.72303" lon="3.29654">
        <ele>337.1</ele>
        <time>2026-05-19T06:56:02Z</time>
      </trkpt>
      <trkpt lat="43.723" lon="3.29652">
        <ele>337.2</ele>
        <time>2026-05-19T06:56:07Z</time>
      </trkpt>
      <trkpt lat="43.72296" lon="3.29653">
        <ele>337.8</ele>
        <time>2026-05-19T06:56:12Z</time>
      </trkpt>
      <trkpt lat="43.72292" lon="3.29657">
        <ele>338.7</ele>
        <time>2026-05-19T06:56:17Z</time>
      </trkpt>
      <trkpt lat="43.72288" lon="3.29661">
        <ele>339.7</ele>
        <time>2026-05-19T06:56:22Z</time>
      </trkpt>
      <trkpt lat="43.72285" lon="3.29662">
        <ele>340.1</ele>
        <time>2026-05-19T06:56:27Z</time>
      </trkpt>
      <trkpt lat="43.7228" lon="3.29667">
        <ele>341.2</ele>
        <time>2026-05-19T06:56:32Z</time>
      </trkpt>
      <trkpt lat="43.72275" lon="3.29669">
        <ele>341.8</ele>
        <time>2026-05-19T06:56:37Z</time>
      </trkpt>
      <trkpt lat="43.72271" lon="3.29669">
        <ele>342.2</ele>
        <time>2026-05-19T06:56:42Z</time>
      </trkpt>
      <trkpt lat="43.72268" lon="3.29667">
        <ele>342.3</ele>
        <time>2026-05-19T06:56:47Z</time>
      </trkpt>
      <trkpt lat="43.72264" lon="3.29666">
        <ele>342.6</ele>
        <time>2026-05-19T06:56:52Z</time>
      </trkpt>
      <trkpt lat="43.72261" lon="3.29665">
        <ele>342.8</ele>
        <time>2026-05-19T06:56:57Z</time>
      </trkpt>
      <trkpt lat="43.72258" lon="3.29664">
        <ele>343</ele>
        <time>2026-05-19T06:57:02Z</time>
      </trkpt>
      <trkpt lat="43.72255" lon="3.29663">
        <ele>343.2</ele>
        <time>2026-05-19T06:57:07Z</time>
      </trkpt>
      <trkpt lat="43.72251" lon="3.29661">
        <ele>343.5</ele>
        <time>2026-05-19T06:57:12Z</time>
      </trkpt>
      <trkpt lat="43.72247" lon="3.29659">
        <ele>343.1</ele>
        <time>2026-05-19T06:57:17Z</time>
      </trkpt>
      <trkpt lat="43.72244" lon="3.29659">
        <ele>342.7</ele>
        <time>2026-05-19T06:57:22Z</time>
      </trkpt>
      <trkpt lat="43.72241" lon="3.29659">
        <ele>342.4</ele>
        <time>2026-05-19T06:57:27Z</time>
      </trkpt>
      <trkpt lat="43.72239" lon="3.29657">
        <ele>342</ele>
        <time>2026-05-19T06:57:32Z</time>
      </trkpt>
      <trkpt lat="43.72237" lon="3.29653">
        <ele>341.5</ele>
        <time>2026-05-19T06:57:37Z</time>
      </trkpt>
      <trkpt lat="43.72233" lon="3.2965">
        <ele>340.8</ele>
        <time>2026-05-19T06:57:42Z</time>
      </trkpt>
      <trkpt lat="43.7223" lon="3.29648">
        <ele>340.3</ele>
        <time>2026-05-19T06:57:47Z</time>
      </trkpt>
      <trkpt lat="43.72227" lon="3.29643">
        <ele>339.6</ele>
        <time>2026-05-19T06:57:52Z</time>
      </trkpt>
      <trkpt lat="43.72225" lon="3.29639">
        <ele>339.1</ele>
        <time>2026-05-19T06:57:57Z</time>
      </trkpt>
      <trkpt lat="43.72222" lon="3.29637">
        <ele>338.6</ele>
        <time>2026-05-19T06:58:02Z</time>
      </trkpt>
      <trkpt lat="43.72219" lon="3.29634">
        <ele>338.1</ele>
        <time>2026-05-19T06:58:07Z</time>
      </trkpt>
      <trkpt lat="43.72216" lon="3.29631">
        <ele>337.5</ele>
        <time>2026-05-19T06:58:12Z</time>
      </trkpt>
      <trkpt lat="43.72212" lon="3.29629">
        <ele>336.9</ele>
        <time>2026-05-19T06:58:17Z</time>
      </trkpt>
      <trkpt lat="43.72208" lon="3.29627">
        <ele>336.3</ele>
        <time>2026-05-19T06:58:22Z</time>
      </trkpt>
      <trkpt lat="43.72203" lon="3.29624">
        <ele>335.6</ele>
        <time>2026-05-19T06:58:27Z</time>
      </trkpt>
      <trkpt lat="43.72198" lon="3.29622">
        <ele>334.9</ele>
        <time>2026-05-19T06:58:32Z</time>
      </trkpt>
      <trkpt lat="43.72193" lon="3.29622">
        <ele>334.3</ele>
        <time>2026-05-19T06:58:37Z</time>
      </trkpt>
      <trkpt lat="43.72188" lon="3.29626">
        <ele>334</ele>
        <time>2026-05-19T06:58:42Z</time>
      </trkpt>
      <trkpt lat="43.72183" lon="3.29626">
        <ele>333.4</ele>
        <time>2026-05-19T06:58:47Z</time>
      </trkpt>
      <trkpt lat="43.72177" lon="3.29627">
        <ele>332.8</ele>
        <time>2026-05-19T06:58:52Z</time>
      </trkpt>
      <trkpt lat="43.72173" lon="3.29624">
        <ele>332.2</ele>
        <time>2026-05-19T06:58:57Z</time>
      </trkpt>
      <trkpt lat="43.72173" lon="3.29624">
        <ele>332.2</ele>
        <time>2026-05-19T06:59:02Z</time>
      </trkpt>
      <trkpt lat="43.72173" lon="3.29624">
        <ele>332.2</ele>
        <time>2026-05-19T06:59:07Z</time>
      </trkpt>
      <trkpt lat="43.72173" lon="3.29624">
        <ele>332.2</ele>
        <time>2026-05-19T06:59:12Z</time>
      </trkpt>
      <trkpt lat="43.72173" lon="3.29624">
        <ele>332.2</ele>
        <time>2026-05-19T06:59:17Z</time>
      </trkpt>
      <trkpt lat="43.72173" lon="3.29624">
        <ele>332.2</ele>
        <time>2026-05-19T06:59:22Z</time>
      </trkpt>
      <trkpt lat="43.72173" lon="3.29624">
        <ele>332.2</ele>
        <time>2026-05-19T06:59:27Z</time>
      </trkpt>
      <trkpt lat="43.72173" lon="3.29624">
        <ele>332.2</ele>
        <time>2026-05-19T06:59:32Z</time>
      </trkpt>
      <trkpt lat="43.72173" lon="3.29624">
        <ele>332.2</ele>
        <time>2026-05-19T06:59:37Z</time>
      </trkpt>
      <trkpt lat="43.72173" lon="3.29624">
        <ele>332.2</ele>
        <time>2026-05-19T06:59:42Z</time>
      </trkpt>
      <trkpt lat="43.72173" lon="3.29624">
        <ele>332.2</ele>
        <time>2026-05-19T06:59:47Z</time>
      </trkpt>
      <trkpt lat="43.72173" lon="3.29624">
        <ele>332.2</ele>
        <time>2026-05-19T06:59:52Z</time>
      </trkpt>
      <trkpt lat="43.72173" lon="3.29624">
        <ele>332.2</ele>
        <time>2026-05-19T06:59:57Z</time>
      </trkpt>
      <trkpt lat="43.72173" lon="3.29624">
        <ele>332.2</ele>
        <time>2026-05-19T07:00:02Z</time>
      </trkpt>
      <trkpt lat="43.72173" lon="3.29624">
        <ele>332.2</ele>
        <time>2026-05-19T07:00:07Z</time>
      </trkpt>
      <trkpt lat="43.72173" lon="3.29624">
        <ele>332.2</ele>
        <time>2026-05-19T07:00:12Z</time>
      </trkpt>
      <trkpt lat="43.72173" lon="3.29624">
        <ele>332.2</ele>
        <time>2026-05-19T07:00:17Z</time>
      </trkpt>
      <trkpt lat="43.72173" lon="3.29624">
        <ele>332.2</ele>
        <time>2026-05-19T07:00:22Z</time>
      </trkpt>
      <trkpt lat="43.72173" lon="3.29624">
        <ele>332.2</ele>
        <time>2026-05-19T07:00:27Z</time>
      </trkpt>
      <trkpt lat="43.72173" lon="3.29624">
        <ele>332.2</ele>
        <time>2026-05-19T07:00:32Z</time>
      </trkpt>
      <trkpt lat="43.72173" lon="3.29624">
        <ele>332.2</ele>
        <time>2026-05-19T07:00:37Z</time>
      </trkpt>
      <trkpt lat="43.72173" lon="3.29624">
        <ele>332.2</ele>
        <time>2026-05-19T07:00:42Z</time>
      </trkpt>
      <trkpt lat="43.72173" lon="3.29624">
        <ele>332.2</ele>
        <time>2026-05-19T07:00:47Z</time>
      </trkpt>
      <trkpt lat="43.72173" lon="3.29624">
        <ele>332.2</ele>
        <time>2026-05-19T07:00:52Z</time>
      </trkpt>
      <trkpt lat="43.72167" lon="3.29619">
        <ele>331.2</ele>
        <time>2026-05-19T07:00:57Z</time>
      </trkpt>
      <trkpt lat="43.72164" lon="3.29624">
        <ele>331.2</ele>
        <time>2026-05-19T07:01:02Z</time>
      </trkpt>
      <trkpt lat="43.7216" lon="3.29627">
        <ele>331.1</ele>
        <time>2026-05-19T07:01:07Z</time>
      </trkpt>
      <trkpt lat="43.72157" lon="3.2963">
        <ele>331</ele>
        <time>2026-05-19T07:01:12Z</time>
      </trkpt>
      <trkpt lat="43.72153" lon="3.29633">
        <ele>330.8</ele>
        <time>2026-05-19T07:01:17Z</time>
      </trkpt>
      <trkpt lat="43.72146" lon="3.29638">
        <ele>330.5</ele>
        <time>2026-05-19T07:01:22Z</time>
      </trkpt>
      <trkpt lat="43.72141" lon="3.29642">
        <ele>330.4</ele>
        <time>2026-05-19T07:01:27Z</time>
      </trkpt>
      <trkpt lat="43.72135" lon="3.29647">
        <ele>330.2</ele>
        <time>2026-05-19T07:01:32Z</time>
      </trkpt>
      <trkpt lat="43.72128" lon="3.29653">
        <ele>329.9</ele>
        <time>2026-05-19T07:01:37Z</time>
      </trkpt>
      <trkpt lat="43.7212" lon="3.29657">
        <ele>329.5</ele>
        <time>2026-05-19T07:01:42Z</time>
      </trkpt>
      <trkpt lat="43.72112" lon="3.29661">
        <ele>329.1</ele>
        <time>2026-05-19T07:01:47Z</time>
      </trkpt>
      <trkpt lat="43.72104" lon="3.29667">
        <ele>328.8</ele>
        <time>2026-05-19T07:01:52Z</time>
      </trkpt>
      <trkpt lat="43.72098" lon="3.29671">
        <ele>328.8</ele>
        <time>2026-05-19T07:01:57Z</time>
      </trkpt>
      <trkpt lat="43.72093" lon="3.29675">
        <ele>328.9</ele>
        <time>2026-05-19T07:02:02Z</time>
      </trkpt>
      <trkpt lat="43.72087" lon="3.29682">
        <ele>329.3</ele>
        <time>2026-05-19T07:02:07Z</time>
      </trkpt>
      <trkpt lat="43.72081" lon="3.29687">
        <ele>329.9</ele>
        <time>2026-05-19T07:02:12Z</time>
      </trkpt>
      <trkpt lat="43.72074" lon="3.29688">
        <ele>330.7</ele>
        <time>2026-05-19T07:02:17Z</time>
      </trkpt>
      <trkpt lat="43.72067" lon="3.29687">
        <ele>331.3</ele>
        <time>2026-05-19T07:02:22Z</time>
      </trkpt>
      <trkpt lat="43.72062" lon="3.29686">
        <ele>331.7</ele>
        <time>2026-05-19T07:02:27Z</time>
      </trkpt>
      <trkpt lat="43.72056" lon="3.29688">
        <ele>332.5</ele>
        <time>2026-05-19T07:02:32Z</time>
      </trkpt>
      <trkpt lat="43.7205" lon="3.29693">
        <ele>333.5</ele>
        <time>2026-05-19T07:02:37Z</time>
      </trkpt>
      <trkpt lat="43.72043" lon="3.29698">
        <ele>334.5</ele>
        <time>2026-05-19T07:02:42Z</time>
      </trkpt>
      <trkpt lat="43.72035" lon="3.297">
        <ele>335.2</ele>
        <time>2026-05-19T07:02:47Z</time>
      </trkpt>
      <trkpt lat="43.72029" lon="3.29704">
        <ele>335.9</ele>
        <time>2026-05-19T07:02:52Z</time>
      </trkpt>
      <trkpt lat="43.72023" lon="3.29709">
        <ele>336.5</ele>
        <time>2026-05-19T07:02:57Z</time>
      </trkpt>
      <trkpt lat="43.72015" lon="3.29715">
        <ele>337.2</ele>
        <time>2026-05-19T07:03:02Z</time>
      </trkpt>
      <trkpt lat="43.72008" lon="3.29725">
        <ele>337.7</ele>
        <time>2026-05-19T07:03:07Z</time>
      </trkpt>
      <trkpt lat="43.72002" lon="3.29733">
        <ele>337.9</ele>
        <time>2026-05-19T07:03:12Z</time>
      </trkpt>
      <trkpt lat="43.71998" lon="3.29737">
        <ele>338.4</ele>
        <time>2026-05-19T07:03:17Z</time>
      </trkpt>
      <trkpt lat="43.71991" lon="3.29734">
        <ele>340</ele>
        <time>2026-05-19T07:03:22Z</time>
      </trkpt>
      <trkpt lat="43.71986" lon="3.29726">
        <ele>341.2</ele>
        <time>2026-05-19T07:03:27Z</time>
      </trkpt>
      <trkpt lat="43.71982" lon="3.29719">
        <ele>342.1</ele>
        <time>2026-05-19T07:03:32Z</time>
      </trkpt>
      <trkpt lat="43.71976" lon="3.29713">
        <ele>343.6</ele>
        <time>2026-05-19T07:03:37Z</time>
      </trkpt>
      <trkpt lat="43.71971" lon="3.29708">
        <ele>344.8</ele>
        <time>2026-05-19T07:03:42Z</time>
      </trkpt>
      <trkpt lat="43.71964" lon="3.29709">
        <ele>346.4</ele>
        <time>2026-05-19T07:03:47Z</time>
      </trkpt>
      <trkpt lat="43.71957" lon="3.29711">
        <ele>348</ele>
        <time>2026-05-19T07:03:52Z</time>
      </trkpt>
      <trkpt lat="43.71949" lon="3.29714">
        <ele>349.8</ele>
        <time>2026-05-19T07:03:57Z</time>
      </trkpt>
      <trkpt lat="43.7194" lon="3.29714">
        <ele>351.9</ele>
        <time>2026-05-19T07:04:02Z</time>
      </trkpt>
      <trkpt lat="43.71933" lon="3.29714">
        <ele>353.5</ele>
        <time>2026-05-19T07:04:07Z</time>
      </trkpt>
      <trkpt lat="43.71928" lon="3.2971">
        <ele>354.8</ele>
        <time>2026-05-19T07:04:12Z</time>
      </trkpt>
      <trkpt lat="43.71929" lon="3.29698">
        <ele>354.9</ele>
        <time>2026-05-19T07:04:17Z</time>
      </trkpt>
      <trkpt lat="43.71932" lon="3.29688">
        <ele>354.5</ele>
        <time>2026-05-19T07:04:22Z</time>
      </trkpt>
      <trkpt lat="43.71935" lon="3.29681">
        <ele>354</ele>
        <time>2026-05-19T07:04:27Z</time>
      </trkpt>
      <trkpt lat="43.71939" lon="3.29674">
        <ele>353.2</ele>
        <time>2026-05-19T07:04:32Z</time>
      </trkpt>
      <trkpt lat="43.71948" lon="3.29676">
        <ele>350.9</ele>
        <time>2026-05-19T07:04:37Z</time>
      </trkpt>
      <trkpt lat="43.71953" lon="3.29667">
        <ele>349.8</ele>
        <time>2026-05-19T07:04:42Z</time>
      </trkpt>
      <trkpt lat="43.7196" lon="3.29665">
        <ele>348.1</ele>
        <time>2026-05-19T07:04:47Z</time>
      </trkpt>
      <trkpt lat="43.71964" lon="3.29659">
        <ele>347.4</ele>
        <time>2026-05-19T07:04:52Z</time>
      </trkpt>
      <trkpt lat="43.71964" lon="3.29652">
        <ele>347.7</ele>
        <time>2026-05-19T07:04:57Z</time>
      </trkpt>
      <trkpt lat="43.71963" lon="3.29643">
        <ele>348.3</ele>
        <time>2026-05-19T07:05:02Z</time>
      </trkpt>
      <trkpt lat="43.71963" lon="3.29634">
        <ele>348.7</ele>
        <time>2026-05-19T07:05:07Z</time>
      </trkpt>
      <trkpt lat="43.71961" lon="3.29625">
        <ele>349.6</ele>
        <time>2026-05-19T07:05:12Z</time>
      </trkpt>
      <trkpt lat="43.71956" lon="3.29618">
        <ele>351.1</ele>
        <time>2026-05-19T07:05:17Z</time>
      </trkpt>
      <trkpt lat="43.71954" lon="3.29611">
        <ele>352</ele>
        <time>2026-05-19T07:05:22Z</time>
      </trkpt>
      <trkpt lat="43.71951" lon="3.29604">
        <ele>353</ele>
        <time>2026-05-19T07:05:27Z</time>
      </trkpt>
      <trkpt lat="43.71946" lon="3.29596">
        <ele>354.7</ele>
        <time>2026-05-19T07:05:32Z</time>
      </trkpt>
      <trkpt lat="43.71943" lon="3.29591">
        <ele>355.7</ele>
        <time>2026-05-19T07:05:37Z</time>
      </trkpt>
      <trkpt lat="43.7194" lon="3.29586">
        <ele>356.7</ele>
        <time>2026-05-19T07:05:42Z</time>
      </trkpt>
      <trkpt lat="43.71936" lon="3.29582">
        <ele>357.9</ele>
        <time>2026-05-19T07:05:47Z</time>
      </trkpt>
      <trkpt lat="43.71932" lon="3.29579">
        <ele>359</ele>
        <time>2026-05-19T07:05:52Z</time>
      </trkpt>
      <trkpt lat="43.71927" lon="3.29576">
        <ele>360.4</ele>
        <time>2026-05-19T07:05:57Z</time>
      </trkpt>
      <trkpt lat="43.71922" lon="3.29575">
        <ele>361.8</ele>
        <time>2026-05-19T07:06:02Z</time>
      </trkpt>
      <trkpt lat="43.71919" lon="3.29574">
        <ele>362.6</ele>
        <time>2026-05-19T07:06:07Z</time>
      </trkpt>
      <trkpt lat="43.71915" lon="3.29573">
        <ele>363.7</ele>
        <time>2026-05-19T07:06:12Z</time>
      </trkpt>
      <trkpt lat="43.71911" lon="3.2957">
        <ele>364.7</ele>
        <time>2026-05-19T07:06:17Z</time>
      </trkpt>
      <trkpt lat="43.71907" lon="3.29568">
        <ele>365.8</ele>
        <time>2026-05-19T07:06:22Z</time>
      </trkpt>
      <trkpt lat="43.71904" lon="3.29563">
        <ele>366.6</ele>
        <time>2026-05-19T07:06:27Z</time>
      </trkpt>
      <trkpt lat="43.71904" lon="3.29558">
        <ele>366.6</ele>
        <time>2026-05-19T07:06:32Z</time>
      </trkpt>
      <trkpt lat="43.71902" lon="3.29553">
        <ele>367.2</ele>
        <time>2026-05-19T07:06:37Z</time>
      </trkpt>
      <trkpt lat="43.71901" lon="3.29548">
        <ele>367.4</ele>
        <time>2026-05-19T07:06:42Z</time>
      </trkpt>
      <trkpt lat="43.719" lon="3.29543">
        <ele>367.7</ele>
        <time>2026-05-19T07:06:47Z</time>
      </trkpt>
      <trkpt lat="43.719" lon="3.29539">
        <ele>367.7</ele>
        <time>2026-05-19T07:06:52Z</time>
      </trkpt>
      <trkpt lat="43.719" lon="3.29534">
        <ele>367.8</ele>
        <time>2026-05-19T07:06:57Z</time>
      </trkpt>
      <trkpt lat="43.71898" lon="3.2953">
        <ele>368.2</ele>
        <time>2026-05-19T07:07:02Z</time>
      </trkpt>
      <trkpt lat="43.71896" lon="3.29525">
        <ele>368.6</ele>
        <time>2026-05-19T07:07:07Z</time>
      </trkpt>
      <trkpt lat="43.71894" lon="3.29519">
        <ele>369.1</ele>
        <time>2026-05-19T07:07:12Z</time>
      </trkpt>
      <trkpt lat="43.71893" lon="3.29513">
        <ele>369.3</ele>
        <time>2026-05-19T07:07:17Z</time>
      </trkpt>
      <trkpt lat="43.71891" lon="3.29508">
        <ele>369.6</ele>
        <time>2026-05-19T07:07:22Z</time>
      </trkpt>
      <trkpt lat="43.71888" lon="3.29504">
        <ele>370.2</ele>
        <time>2026-05-19T07:07:27Z</time>
      </trkpt>
      <trkpt lat="43.71886" lon="3.29499">
        <ele>370.4</ele>
        <time>2026-05-19T07:07:32Z</time>
      </trkpt>
      <trkpt lat="43.71885" lon="3.29495">
        <ele>370.3</ele>
        <time>2026-05-19T07:07:37Z</time>
      </trkpt>
      <trkpt lat="43.71884" lon="3.29489">
        <ele>369.9</ele>
        <time>2026-05-19T07:07:42Z</time>
      </trkpt>
      <trkpt lat="43.71882" lon="3.29481">
        <ele>369.5</ele>
        <time>2026-05-19T07:07:47Z</time>
      </trkpt>
      <trkpt lat="43.71881" lon="3.29476">
        <ele>369.2</ele>
        <time>2026-05-19T07:07:52Z</time>
      </trkpt>
      <trkpt lat="43.71879" lon="3.29471">
        <ele>369.1</ele>
        <time>2026-05-19T07:07:57Z</time>
      </trkpt>
      <trkpt lat="43.71877" lon="3.29465">
        <ele>368.8</ele>
        <time>2026-05-19T07:08:02Z</time>
      </trkpt>
      <trkpt lat="43.71874" lon="3.29457">
        <ele>368.5</ele>
        <time>2026-05-19T07:08:07Z</time>
      </trkpt>
      <trkpt lat="43.71872" lon="3.29451">
        <ele>368.2</ele>
        <time>2026-05-19T07:08:12Z</time>
      </trkpt>
      <trkpt lat="43.7187" lon="3.29444">
        <ele>367.8</ele>
        <time>2026-05-19T07:08:17Z</time>
      </trkpt>
      <trkpt lat="43.71866" lon="3.29437">
        <ele>367.6</ele>
        <time>2026-05-19T07:08:22Z</time>
      </trkpt>
      <trkpt lat="43.71861" lon="3.2943">
        <ele>367.5</ele>
        <time>2026-05-19T07:08:27Z</time>
      </trkpt>
      <trkpt lat="43.71856" lon="3.29423">
        <ele>367.3</ele>
        <time>2026-05-19T07:08:32Z</time>
      </trkpt>
      <trkpt lat="43.71851" lon="3.29418">
        <ele>367.2</ele>
        <time>2026-05-19T07:08:37Z</time>
      </trkpt>
      <trkpt lat="43.71847" lon="3.29409">
        <ele>366.6</ele>
        <time>2026-05-19T07:08:42Z</time>
      </trkpt>
      <trkpt lat="43.71843" lon="3.29402">
        <ele>366.2</ele>
        <time>2026-05-19T07:08:47Z</time>
      </trkpt>
      <trkpt lat="43.71838" lon="3.29395">
        <ele>365.9</ele>
        <time>2026-05-19T07:08:52Z</time>
      </trkpt>
      <trkpt lat="43.71833" lon="3.29386">
        <ele>365.3</ele>
        <time>2026-05-19T07:08:57Z</time>
      </trkpt>
      <trkpt lat="43.7183" lon="3.2938">
        <ele>364.6</ele>
        <time>2026-05-19T07:09:02Z</time>
      </trkpt>
      <trkpt lat="43.71825" lon="3.29372">
        <ele>363.7</ele>
        <time>2026-05-19T07:09:07Z</time>
      </trkpt>
      <trkpt lat="43.71823" lon="3.29364">
        <ele>362.8</ele>
        <time>2026-05-19T07:09:12Z</time>
      </trkpt>
      <trkpt lat="43.71818" lon="3.29356">
        <ele>361.9</ele>
        <time>2026-05-19T07:09:17Z</time>
      </trkpt>
      <trkpt lat="43.71813" lon="3.29349">
        <ele>361.2</ele>
        <time>2026-05-19T07:09:22Z</time>
      </trkpt>
      <trkpt lat="43.71807" lon="3.29345">
        <ele>360.9</ele>
        <time>2026-05-19T07:09:27Z</time>
      </trkpt>
      <trkpt lat="43.71801" lon="3.29341">
        <ele>360.6</ele>
        <time>2026-05-19T07:09:32Z</time>
      </trkpt>
      <trkpt lat="43.71794" lon="3.29341">
        <ele>360.7</ele>
        <time>2026-05-19T07:09:37Z</time>
      </trkpt>
      <trkpt lat="43.71787" lon="3.29335">
        <ele>360.3</ele>
        <time>2026-05-19T07:09:42Z</time>
      </trkpt>
      <trkpt lat="43.7178" lon="3.29327">
        <ele>360.8</ele>
        <time>2026-05-19T07:09:47Z</time>
      </trkpt>
      <trkpt lat="43.71778" lon="3.2932">
        <ele>361.4</ele>
        <time>2026-05-19T07:09:52Z</time>
      </trkpt>
      <trkpt lat="43.71778" lon="3.29309">
        <ele>362.3</ele>
        <time>2026-05-19T07:09:57Z</time>
      </trkpt>
      <trkpt lat="43.7178" lon="3.29299">
        <ele>363</ele>
        <time>2026-05-19T07:10:02Z</time>
      </trkpt>
      <trkpt lat="43.71781" lon="3.2929">
        <ele>363.6</ele>
        <time>2026-05-19T07:10:07Z</time>
      </trkpt>
      <trkpt lat="43.71782" lon="3.29281">
        <ele>364.3</ele>
        <time>2026-05-19T07:10:12Z</time>
      </trkpt>
      <trkpt lat="43.71782" lon="3.29273">
        <ele>364.9</ele>
        <time>2026-05-19T07:10:17Z</time>
      </trkpt>
      <trkpt lat="43.71778" lon="3.29265">
        <ele>365.8</ele>
        <time>2026-05-19T07:10:22Z</time>
      </trkpt>
      <trkpt lat="43.71772" lon="3.2927">
        <ele>365.7</ele>
        <time>2026-05-19T07:10:27Z</time>
      </trkpt>
      <trkpt lat="43.7177" lon="3.2928">
        <ele>365</ele>
        <time>2026-05-19T07:10:32Z</time>
      </trkpt>
      <trkpt lat="43.71767" lon="3.29289">
        <ele>364.4</ele>
        <time>2026-05-19T07:10:37Z</time>
      </trkpt>
      <trkpt lat="43.71762" lon="3.29296">
        <ele>364</ele>
        <time>2026-05-19T07:10:42Z</time>
      </trkpt>
      <trkpt lat="43.71757" lon="3.29301">
        <ele>363.8</ele>
        <time>2026-05-19T07:10:47Z</time>
      </trkpt>
      <trkpt lat="43.71751" lon="3.29304">
        <ele>363.8</ele>
        <time>2026-05-19T07:10:52Z</time>
      </trkpt>
      <trkpt lat="43.71744" lon="3.29303">
        <ele>362.9</ele>
        <time>2026-05-19T07:10:57Z</time>
      </trkpt>
      <trkpt lat="43.71738" lon="3.29303">
        <ele>361.8</ele>
        <time>2026-05-19T07:11:02Z</time>
      </trkpt>
      <trkpt lat="43.71732" lon="3.29304">
        <ele>360.6</ele>
        <time>2026-05-19T07:11:07Z</time>
      </trkpt>
      <trkpt lat="43.71726" lon="3.29305">
        <ele>359.5</ele>
        <time>2026-05-19T07:11:12Z</time>
      </trkpt>
      <trkpt lat="43.71719" lon="3.29306">
        <ele>358.2</ele>
        <time>2026-05-19T07:11:17Z</time>
      </trkpt>
      <trkpt lat="43.71713" lon="3.29306">
        <ele>357.1</ele>
        <time>2026-05-19T07:11:22Z</time>
      </trkpt>
      <trkpt lat="43.71707" lon="3.29306">
        <ele>356.1</ele>
        <time>2026-05-19T07:11:27Z</time>
      </trkpt>
      <trkpt lat="43.717" lon="3.29309">
        <ele>354.6</ele>
        <time>2026-05-19T07:11:32Z</time>
      </trkpt>
      <trkpt lat="43.71693" lon="3.29306">
        <ele>353.6</ele>
        <time>2026-05-19T07:11:37Z</time>
      </trkpt>
      <trkpt lat="43.71686" lon="3.29302">
        <ele>352.7</ele>
        <time>2026-05-19T07:11:42Z</time>
      </trkpt>
      <trkpt lat="43.71681" lon="3.29295">
        <ele>352.3</ele>
        <time>2026-05-19T07:11:47Z</time>
      </trkpt>
      <trkpt lat="43.71676" lon="3.2929">
        <ele>351.8</ele>
        <time>2026-05-19T07:11:52Z</time>
      </trkpt>
      <trkpt lat="43.7167" lon="3.29284">
        <ele>351.2</ele>
        <time>2026-05-19T07:11:57Z</time>
      </trkpt>
      <trkpt lat="43.71667" lon="3.29276">
        <ele>351.2</ele>
        <time>2026-05-19T07:12:02Z</time>
      </trkpt>
      <trkpt lat="43.71664" lon="3.2927">
        <ele>350.8</ele>
        <time>2026-05-19T07:12:07Z</time>
      </trkpt>
      <trkpt lat="43.71665" lon="3.29261">
        <ele>351.7</ele>
        <time>2026-05-19T07:12:12Z</time>
      </trkpt>
      <trkpt lat="43.71661" lon="3.29257">
        <ele>350.8</ele>
        <time>2026-05-19T07:12:17Z</time>
      </trkpt>
      <trkpt lat="43.71655" lon="3.29254">
        <ele>349.2</ele>
        <time>2026-05-19T07:12:22Z</time>
      </trkpt>
      <trkpt lat="43.71651" lon="3.29251">
        <ele>348.2</ele>
        <time>2026-05-19T07:12:27Z</time>
      </trkpt>
      <trkpt lat="43.71649" lon="3.2925">
        <ele>347.7</ele>
        <time>2026-05-19T07:12:32Z</time>
      </trkpt>
      <trkpt lat="43.71648" lon="3.29249">
        <ele>347.5</ele>
        <time>2026-05-19T07:12:37Z</time>
      </trkpt>
      <trkpt lat="43.71648" lon="3.29249">
        <ele>347.5</ele>
        <time>2026-05-19T07:12:42Z</time>
      </trkpt>
      <trkpt lat="43.71648" lon="3.29249">
        <ele>347.5</ele>
        <time>2026-05-19T07:12:47Z</time>
      </trkpt>
      <trkpt lat="43.71648" lon="3.29249">
        <ele>347.5</ele>
        <time>2026-05-19T07:12:52Z</time>
      </trkpt>
      <trkpt lat="43.71648" lon="3.29249">
        <ele>347.5</ele>
        <time>2026-05-19T07:12:57Z</time>
      </trkpt>
      <trkpt lat="43.71648" lon="3.29249">
        <ele>347.5</ele>
        <time>2026-05-19T07:13:02Z</time>
      </trkpt>
      <trkpt lat="43.71648" lon="3.29249">
        <ele>347.5</ele>
        <time>2026-05-19T07:13:07Z</time>
      </trkpt>
      <trkpt lat="43.71648" lon="3.29249">
        <ele>347.5</ele>
        <time>2026-05-19T07:13:12Z</time>
      </trkpt>
      <trkpt lat="43.71648" lon="3.29249">
        <ele>347.5</ele>
        <time>2026-05-19T07:13:17Z</time>
      </trkpt>
      <trkpt lat="43.71648" lon="3.29249">
        <ele>347.5</ele>
        <time>2026-05-19T07:13:22Z</time>
      </trkpt>
      <trkpt lat="43.71648" lon="3.29249">
        <ele>347.5</ele>
        <time>2026-05-19T07:13:27Z</time>
      </trkpt>
      <trkpt lat="43.71648" lon="3.29249">
        <ele>347.5</ele>
        <time>2026-05-19T07:13:32Z</time>
      </trkpt>
      <trkpt lat="43.71648" lon="3.29249">
        <ele>347.5</ele>
        <time>2026-05-19T07:13:37Z</time>
      </trkpt>
      <trkpt lat="43.71648" lon="3.29249">
        <ele>347.5</ele>
        <time>2026-05-19T07:13:42Z</time>
      </trkpt>
      <trkpt lat="43.71648" lon="3.29249">
        <ele>347.5</ele>
        <time>2026-05-19T07:13:47Z</time>
      </trkpt>
      <trkpt lat="43.71648" lon="3.29249">
        <ele>347.5</ele>
        <time>2026-05-19T07:13:52Z</time>
      </trkpt>
      <trkpt lat="43.71656" lon="3.2925">
        <ele>349.8</ele>
        <time>2026-05-19T07:13:57Z</time>
      </trkpt>
      <trkpt lat="43.71664" lon="3.2925">
        <ele>352.2</ele>
        <time>2026-05-19T07:14:02Z</time>
      </trkpt>
      <trkpt lat="43.71671" lon="3.29249">
        <ele>354</ele>
        <time>2026-05-19T07:14:07Z</time>
      </trkpt>
      <trkpt lat="43.71678" lon="3.29247">
        <ele>355.6</ele>
        <time>2026-05-19T07:14:12Z</time>
      </trkpt>
      <trkpt lat="43.71683" lon="3.29245">
        <ele>356.9</ele>
        <time>2026-05-19T07:14:17Z</time>
      </trkpt>
      <trkpt lat="43.71685" lon="3.29245">
        <ele>357.2</ele>
        <time>2026-05-19T07:14:22Z</time>
      </trkpt>
      <trkpt lat="43.71687" lon="3.29245">
        <ele>357.6</ele>
        <time>2026-05-19T07:14:27Z</time>
      </trkpt>
      <trkpt lat="43.71687" lon="3.29245">
        <ele>357.6</ele>
        <time>2026-05-19T07:14:32Z</time>
      </trkpt>
      <trkpt lat="43.71691" lon="3.29246">
        <ele>358.2</ele>
        <time>2026-05-19T07:14:37Z</time>
      </trkpt>
      <trkpt lat="43.71697" lon="3.29246">
        <ele>359.4</ele>
        <time>2026-05-19T07:14:42Z</time>
      </trkpt>
      <trkpt lat="43.71704" lon="3.29243">
        <ele>361.2</ele>
        <time>2026-05-19T07:14:47Z</time>
      </trkpt>
      <trkpt lat="43.7171" lon="3.29245">
        <ele>362</ele>
        <time>2026-05-19T07:14:52Z</time>
      </trkpt>
      <trkpt lat="43.71711" lon="3.29247">
        <ele>361.9</ele>
        <time>2026-05-19T07:14:57Z</time>
      </trkpt>
      <trkpt lat="43.71715" lon="3.29244">
        <ele>363.1</ele>
        <time>2026-05-19T07:15:02Z</time>
      </trkpt>
      <trkpt lat="43.7172" lon="3.29241">
        <ele>364.5</ele>
        <time>2026-05-19T07:15:07Z</time>
      </trkpt>
      <trkpt lat="43.71726" lon="3.2924">
        <ele>365.8</ele>
        <time>2026-05-19T07:15:12Z</time>
      </trkpt>
      <trkpt lat="43.71732" lon="3.29236">
        <ele>367.6</ele>
        <time>2026-05-19T07:15:17Z</time>
      </trkpt>
      <trkpt lat="43.71737" lon="3.29231">
        <ele>369.2</ele>
        <time>2026-05-19T07:15:22Z</time>
      </trkpt>
      <trkpt lat="43.71742" lon="3.29225">
        <ele>371.1</ele>
        <time>2026-05-19T07:15:27Z</time>
      </trkpt>
      <trkpt lat="43.71746" lon="3.29217">
        <ele>373</ele>
        <time>2026-05-19T07:15:32Z</time>
      </trkpt>
      <trkpt lat="43.7175" lon="3.29208">
        <ele>375</ele>
        <time>2026-05-19T07:15:37Z</time>
      </trkpt>
      <trkpt lat="43.71751" lon="3.29198">
        <ele>376.4</ele>
        <time>2026-05-19T07:15:42Z</time>
      </trkpt>
      <trkpt lat="43.71753" lon="3.29189">
        <ele>377.6</ele>
        <time>2026-05-19T07:15:47Z</time>
      </trkpt>
      <trkpt lat="43.71756" lon="3.29184">
        <ele>378.1</ele>
        <time>2026-05-19T07:15:52Z</time>
      </trkpt>
      <trkpt lat="43.71762" lon="3.29177">
        <ele>378.8</ele>
        <time>2026-05-19T07:15:57Z</time>
      </trkpt>
      <trkpt lat="43.71767" lon="3.29175">
        <ele>378.8</ele>
        <time>2026-05-19T07:16:02Z</time>
      </trkpt>
      <trkpt lat="43.71775" lon="3.29176">
        <ele>378.1</ele>
        <time>2026-05-19T07:16:07Z</time>
      </trkpt>
      <trkpt lat="43.71781" lon="3.29179">
        <ele>377.3</ele>
        <time>2026-05-19T07:16:12Z</time>
      </trkpt>
      <trkpt lat="43.71789" lon="3.29183">
        <ele>376.2</ele>
        <time>2026-05-19T07:16:17Z</time>
      </trkpt>
      <trkpt lat="43.71797" lon="3.29185">
        <ele>375.4</ele>
        <time>2026-05-19T07:16:22Z</time>
      </trkpt>
      <trkpt lat="43.71803" lon="3.29186">
        <ele>374.9</ele>
        <time>2026-05-19T07:16:27Z</time>
      </trkpt>
      <trkpt lat="43.7181" lon="3.29186">
        <ele>374.4</ele>
        <time>2026-05-19T07:16:32Z</time>
      </trkpt>
      <trkpt lat="43.71817" lon="3.29188">
        <ele>373.7</ele>
        <time>2026-05-19T07:16:37Z</time>
      </trkpt>
      <trkpt lat="43.71825" lon="3.29187">
        <ele>373.4</ele>
        <time>2026-05-19T07:16:42Z</time>
      </trkpt>
      <trkpt lat="43.7183" lon="3.29189">
        <ele>372.7</ele>
        <time>2026-05-19T07:16:47Z</time>
      </trkpt>
      <trkpt lat="43.71837" lon="3.2919">
        <ele>372.4</ele>
        <time>2026-05-19T07:16:52Z</time>
      </trkpt>
      <trkpt lat="43.71843" lon="3.29192">
        <ele>372.2</ele>
        <time>2026-05-19T07:16:57Z</time>
      </trkpt>
      <trkpt lat="43.71849" lon="3.29192">
        <ele>372.3</ele>
        <time>2026-05-19T07:17:02Z</time>
      </trkpt>
      <trkpt lat="43.71854" lon="3.29191">
        <ele>372.5</ele>
        <time>2026-05-19T07:17:07Z</time>
      </trkpt>
      <trkpt lat="43.71861" lon="3.29188">
        <ele>373.2</ele>
        <time>2026-05-19T07:17:12Z</time>
      </trkpt>
      <trkpt lat="43.71867" lon="3.29181">
        <ele>374.6</ele>
        <time>2026-05-19T07:17:17Z</time>
      </trkpt>
      <trkpt lat="43.71873" lon="3.29179">
        <ele>375.1</ele>
        <time>2026-05-19T07:17:22Z</time>
      </trkpt>
      <trkpt lat="43.71879" lon="3.29176">
        <ele>375.8</ele>
        <time>2026-05-19T07:17:27Z</time>
      </trkpt>
      <trkpt lat="43.71886" lon="3.2917">
        <ele>377.2</ele>
        <time>2026-05-19T07:17:32Z</time>
      </trkpt>
      <trkpt lat="43.71892" lon="3.29166">
        <ele>378.2</ele>
        <time>2026-05-19T07:17:37Z</time>
      </trkpt>
      <trkpt lat="43.71896" lon="3.29159">
        <ele>379.8</ele>
        <time>2026-05-19T07:17:42Z</time>
      </trkpt>
      <trkpt lat="43.71904" lon="3.29154">
        <ele>381</ele>
        <time>2026-05-19T07:17:47Z</time>
      </trkpt>
      <trkpt lat="43.71907" lon="3.29146">
        <ele>382.6</ele>
        <time>2026-05-19T07:17:52Z</time>
      </trkpt>
      <trkpt lat="43.71911" lon="3.2914">
        <ele>383.9</ele>
        <time>2026-05-19T07:17:57Z</time>
      </trkpt>
      <trkpt lat="43.71918" lon="3.29141">
        <ele>383.8</ele>
        <time>2026-05-19T07:18:02Z</time>
      </trkpt>
      <trkpt lat="43.71921" lon="3.29141">
        <ele>383.5</ele>
        <time>2026-05-19T07:18:07Z</time>
      </trkpt>
      <trkpt lat="43.71927" lon="3.29131">
        <ele>384.9</ele>
        <time>2026-05-19T07:18:12Z</time>
      </trkpt>
      <trkpt lat="43.71931" lon="3.29124">
        <ele>385.9</ele>
        <time>2026-05-19T07:18:17Z</time>
      </trkpt>
      <trkpt lat="43.71935" lon="3.29116">
        <ele>387.1</ele>
        <time>2026-05-19T07:18:22Z</time>
      </trkpt>
      <trkpt lat="43.7194" lon="3.29109">
        <ele>388.1</ele>
        <time>2026-05-19T07:18:27Z</time>
      </trkpt>
      <trkpt lat="43.71944" lon="3.29101">
        <ele>389.4</ele>
        <time>2026-05-19T07:18:32Z</time>
      </trkpt>
      <trkpt lat="43.71945" lon="3.29095">
        <ele>390.6</ele>
        <time>2026-05-19T07:18:37Z</time>
      </trkpt>
      <trkpt lat="43.71941" lon="3.29089">
        <ele>392.1</ele>
        <time>2026-05-19T07:18:42Z</time>
      </trkpt>
      <trkpt lat="43.71935" lon="3.29087">
        <ele>392.9</ele>
        <time>2026-05-19T07:18:47Z</time>
      </trkpt>
      <trkpt lat="43.71933" lon="3.29089">
        <ele>392.7</ele>
        <time>2026-05-19T07:18:52Z</time>
      </trkpt>
      <trkpt lat="43.71934" lon="3.2909">
        <ele>392.4</ele>
        <time>2026-05-19T07:18:57Z</time>
      </trkpt>
      <trkpt lat="43.71932" lon="3.29095">
        <ele>391.6</ele>
        <time>2026-05-19T07:19:02Z</time>
      </trkpt>
      <trkpt lat="43.71929" lon="3.291">
        <ele>390.8</ele>
        <time>2026-05-19T07:19:07Z</time>
      </trkpt>
      <trkpt lat="43.71926" lon="3.29106">
        <ele>389.9</ele>
        <time>2026-05-19T07:19:12Z</time>
      </trkpt>
      <trkpt lat="43.71924" lon="3.29113">
        <ele>388.7</ele>
        <time>2026-05-19T07:19:17Z</time>
      </trkpt>
      <trkpt lat="43.71921" lon="3.29116">
        <ele>388.4</ele>
        <time>2026-05-19T07:19:22Z</time>
      </trkpt>
      <trkpt lat="43.71916" lon="3.29122">
        <ele>387.6</ele>
        <time>2026-05-19T07:19:27Z</time>
      </trkpt>
      <trkpt lat="43.71912" lon="3.29127">
        <ele>386.5</ele>
        <time>2026-05-19T07:19:32Z</time>
      </trkpt>
      <trkpt lat="43.71907" lon="3.29131">
        <ele>385.5</ele>
        <time>2026-05-19T07:19:37Z</time>
      </trkpt>
      <trkpt lat="43.71902" lon="3.29135">
        <ele>384.6</ele>
        <time>2026-05-19T07:19:42Z</time>
      </trkpt>
      <trkpt lat="43.71902" lon="3.29138">
        <ele>384</ele>
        <time>2026-05-19T07:19:47Z</time>
      </trkpt>
      <trkpt lat="43.71904" lon="3.29142">
        <ele>383.3</ele>
        <time>2026-05-19T07:19:52Z</time>
      </trkpt>
      <trkpt lat="43.71904" lon="3.29142">
        <ele>383.3</ele>
        <time>2026-05-19T07:19:57Z</time>
      </trkpt>
      <trkpt lat="43.71904" lon="3.29142">
        <ele>383.3</ele>
        <time>2026-05-19T07:20:02Z</time>
      </trkpt>
      <trkpt lat="43.71904" lon="3.29142">
        <ele>383.3</ele>
        <time>2026-05-19T07:20:07Z</time>
      </trkpt>
      <trkpt lat="43.71904" lon="3.29142">
        <ele>383.3</ele>
        <time>2026-05-19T07:20:12Z</time>
      </trkpt>
      <trkpt lat="43.71904" lon="3.29142">
        <ele>383.3</ele>
        <time>2026-05-19T07:20:17Z</time>
      </trkpt>
      <trkpt lat="43.71904" lon="3.29142">
        <ele>383.3</ele>
        <time>2026-05-19T07:20:22Z</time>
      </trkpt>
      <trkpt lat="43.71897" lon="3.29143">
        <ele>382.9</ele>
        <time>2026-05-19T07:20:27Z</time>
      </trkpt>
      <trkpt lat="43.71888" lon="3.29146">
        <ele>382</ele>
        <time>2026-05-19T07:20:32Z</time>
      </trkpt>
      <trkpt lat="43.71882" lon="3.29146">
        <ele>381.8</ele>
        <time>2026-05-19T07:20:37Z</time>
      </trkpt>
      <trkpt lat="43.71879" lon="3.29147">
        <ele>381.5</ele>
        <time>2026-05-19T07:20:42Z</time>
      </trkpt>
      <trkpt lat="43.71871" lon="3.29145">
        <ele>381.7</ele>
        <time>2026-05-19T07:20:47Z</time>
      </trkpt>
      <trkpt lat="43.71864" lon="3.29143">
        <ele>381.8</ele>
        <time>2026-05-19T07:20:52Z</time>
      </trkpt>
      <trkpt lat="43.71858" lon="3.29141">
        <ele>382</ele>
        <time>2026-05-19T07:20:57Z</time>
      </trkpt>
      <trkpt lat="43.71853" lon="3.29139">
        <ele>382.3</ele>
        <time>2026-05-19T07:21:02Z</time>
      </trkpt>
      <trkpt lat="43.71849" lon="3.29136">
        <ele>382.8</ele>
        <time>2026-05-19T07:21:07Z</time>
      </trkpt>
      <trkpt lat="43.71843" lon="3.29134">
        <ele>383</ele>
        <time>2026-05-19T07:21:12Z</time>
      </trkpt>
      <trkpt lat="43.71838" lon="3.29131">
        <ele>383.4</ele>
        <time>2026-05-19T07:21:17Z</time>
      </trkpt>
      <trkpt lat="43.71833" lon="3.29127">
        <ele>384.1</ele>
        <time>2026-05-19T07:21:22Z</time>
      </trkpt>
      <trkpt lat="43.71828" lon="3.29124">
        <ele>384.9</ele>
        <time>2026-05-19T07:21:27Z</time>
      </trkpt>
      <trkpt lat="43.71824" lon="3.29122">
        <ele>385.4</ele>
        <time>2026-05-19T07:21:32Z</time>
      </trkpt>
      <trkpt lat="43.71819" lon="3.29117">
        <ele>386.6</ele>
        <time>2026-05-19T07:21:37Z</time>
      </trkpt>
      <trkpt lat="43.71815" lon="3.29112">
        <ele>387.7</ele>
        <time>2026-05-19T07:21:42Z</time>
      </trkpt>
      <trkpt lat="43.71813" lon="3.29107">
        <ele>388.7</ele>
        <time>2026-05-19T07:21:47Z</time>
      </trkpt>
      <trkpt lat="43.7181" lon="3.291">
        <ele>390.1</ele>
        <time>2026-05-19T07:21:52Z</time>
      </trkpt>
      <trkpt lat="43.71806" lon="3.29094">
        <ele>391.3</ele>
        <time>2026-05-19T07:21:57Z</time>
      </trkpt>
      <trkpt lat="43.71804" lon="3.29087">
        <ele>392.7</ele>
        <time>2026-05-19T07:22:02Z</time>
      </trkpt>
      <trkpt lat="43.71802" lon="3.2908">
        <ele>394.1</ele>
        <time>2026-05-19T07:22:07Z</time>
      </trkpt>
      <trkpt lat="43.71802" lon="3.29072">
        <ele>396</ele>
        <time>2026-05-19T07:22:12Z</time>
      </trkpt>
      <trkpt lat="43.71804" lon="3.29064">
        <ele>397.8</ele>
        <time>2026-05-19T07:22:17Z</time>
      </trkpt>
      <trkpt lat="43.71805" lon="3.29057">
        <ele>399.3</ele>
        <time>2026-05-19T07:22:22Z</time>
      </trkpt>
      <trkpt lat="43.71801" lon="3.2905">
        <ele>401</ele>
        <time>2026-05-19T07:22:27Z</time>
      </trkpt>
      <trkpt lat="43.71797" lon="3.29044">
        <ele>402.4</ele>
        <time>2026-05-19T07:22:32Z</time>
      </trkpt>
      <trkpt lat="43.71791" lon="3.29039">
        <ele>403.6</ele>
        <time>2026-05-19T07:22:37Z</time>
      </trkpt>
      <trkpt lat="43.71786" lon="3.29039">
        <ele>403.7</ele>
        <time>2026-05-19T07:22:42Z</time>
      </trkpt>
      <trkpt lat="43.71779" lon="3.29041">
        <ele>403.3</ele>
        <time>2026-05-19T07:22:47Z</time>
      </trkpt>
      <trkpt lat="43.71774" lon="3.29043">
        <ele>402.9</ele>
        <time>2026-05-19T07:22:52Z</time>
      </trkpt>
      <trkpt lat="43.71769" lon="3.29046">
        <ele>402.3</ele>
        <time>2026-05-19T07:22:57Z</time>
      </trkpt>
      <trkpt lat="43.71763" lon="3.29049">
        <ele>401.7</ele>
        <time>2026-05-19T07:23:02Z</time>
      </trkpt>
      <trkpt lat="43.71757" lon="3.29051">
        <ele>401.3</ele>
        <time>2026-05-19T07:23:07Z</time>
      </trkpt>
      <trkpt lat="43.71752" lon="3.29053">
        <ele>400.9</ele>
        <time>2026-05-19T07:23:12Z</time>
      </trkpt>
      <trkpt lat="43.71746" lon="3.29057">
        <ele>399</ele>
        <time>2026-05-19T07:23:17Z</time>
      </trkpt>
      <trkpt lat="43.71741" lon="3.2906">
        <ele>397.1</ele>
        <time>2026-05-19T07:23:22Z</time>
      </trkpt>
      <trkpt lat="43.71736" lon="3.29063">
        <ele>395.2</ele>
        <time>2026-05-19T07:23:27Z</time>
      </trkpt>
      <trkpt lat="43.71731" lon="3.29065">
        <ele>393.5</ele>
        <time>2026-05-19T07:23:32Z</time>
      </trkpt>
      <trkpt lat="43.71725" lon="3.29068">
        <ele>391.5</ele>
        <time>2026-05-19T07:23:37Z</time>
      </trkpt>
      <trkpt lat="43.7172" lon="3.29071">
        <ele>389.7</ele>
        <time>2026-05-19T07:23:42Z</time>
      </trkpt>
      <trkpt lat="43.71716" lon="3.29073">
        <ele>388.3</ele>
        <time>2026-05-19T07:23:47Z</time>
      </trkpt>
      <trkpt lat="43.71713" lon="3.29074">
        <ele>387.4</ele>
        <time>2026-05-19T07:23:52Z</time>
      </trkpt>
      <trkpt lat="43.71712" lon="3.29074">
        <ele>387.2</ele>
        <time>2026-05-19T07:23:57Z</time>
      </trkpt>
      <trkpt lat="43.71711" lon="3.29075">
        <ele>386.7</ele>
        <time>2026-05-19T07:24:02Z</time>
      </trkpt>
      <trkpt lat="43.7171" lon="3.2908">
        <ele>385.5</ele>
        <time>2026-05-19T07:24:07Z</time>
      </trkpt>
      <trkpt lat="43.7171" lon="3.2908">
        <ele>385.5</ele>
        <time>2026-05-19T07:24:12Z</time>
      </trkpt>
      <trkpt lat="43.7171" lon="3.2908">
        <ele>385.5</ele>
        <time>2026-05-19T07:24:17Z</time>
      </trkpt>
      <trkpt lat="43.7171" lon="3.2908">
        <ele>385.5</ele>
        <time>2026-05-19T07:24:22Z</time>
      </trkpt>
      <trkpt lat="43.7171" lon="3.2908">
        <ele>385.5</ele>
        <time>2026-05-19T07:24:27Z</time>
      </trkpt>
      <trkpt lat="43.7171" lon="3.2908">
        <ele>385.5</ele>
        <time>2026-05-19T07:24:32Z</time>
      </trkpt>
      <trkpt lat="43.7171" lon="3.2908">
        <ele>385.5</ele>
        <time>2026-05-19T07:24:37Z</time>
      </trkpt>
      <trkpt lat="43.7171" lon="3.2908">
        <ele>385.5</ele>
        <time>2026-05-19T07:24:42Z</time>
      </trkpt>
      <trkpt lat="43.7171" lon="3.2908">
        <ele>385.5</ele>
        <time>2026-05-19T07:24:47Z</time>
      </trkpt>
      <trkpt lat="43.7171" lon="3.2908">
        <ele>385.5</ele>
        <time>2026-05-19T07:24:52Z</time>
      </trkpt>
      <trkpt lat="43.7171" lon="3.2908">
        <ele>385.5</ele>
        <time>2026-05-19T07:24:57Z</time>
      </trkpt>
      <trkpt lat="43.7171" lon="3.2908">
        <ele>385.5</ele>
        <time>2026-05-19T07:25:02Z</time>
      </trkpt>
      <trkpt lat="43.71705" lon="3.29084">
        <ele>383.6</ele>
        <time>2026-05-19T07:25:07Z</time>
      </trkpt>
      <trkpt lat="43.71697" lon="3.29083">
        <ele>382</ele>
        <time>2026-05-19T07:25:12Z</time>
      </trkpt>
      <trkpt lat="43.71692" lon="3.29084">
        <ele>380.7</ele>
        <time>2026-05-19T07:25:17Z</time>
      </trkpt>
      <trkpt lat="43.71689" lon="3.29083">
        <ele>380.2</ele>
        <time>2026-05-19T07:25:22Z</time>
      </trkpt>
      <trkpt lat="43.71688" lon="3.29083">
        <ele>379.9</ele>
        <time>2026-05-19T07:25:27Z</time>
      </trkpt>
      <trkpt lat="43.71687" lon="3.29083">
        <ele>379.7</ele>
        <time>2026-05-19T07:25:32Z</time>
      </trkpt>
      <trkpt lat="43.71687" lon="3.29083">
        <ele>379.7</ele>
        <time>2026-05-19T07:25:37Z</time>
      </trkpt>
      <trkpt lat="43.71687" lon="3.29083">
        <ele>379.7</ele>
        <time>2026-05-19T07:25:42Z</time>
      </trkpt>
      <trkpt lat="43.71685" lon="3.29081">
        <ele>379.6</ele>
        <time>2026-05-19T07:25:47Z</time>
      </trkpt>
      <trkpt lat="43.71681" lon="3.29078">
        <ele>379.2</ele>
        <time>2026-05-19T07:25:52Z</time>
      </trkpt>
      <trkpt lat="43.71677" lon="3.29072">
        <ele>379.2</ele>
        <time>2026-05-19T07:25:57Z</time>
      </trkpt>
      <trkpt lat="43.71673" lon="3.29067">
        <ele>379.1</ele>
        <time>2026-05-19T07:26:02Z</time>
      </trkpt>
      <trkpt lat="43.7167" lon="3.29062">
        <ele>379.1</ele>
        <time>2026-05-19T07:26:07Z</time>
      </trkpt>
      <trkpt lat="43.71666" lon="3.29055">
        <ele>379.3</ele>
        <time>2026-05-19T07:26:12Z</time>
      </trkpt>
      <trkpt lat="43.71663" lon="3.29048">
        <ele>379.8</ele>
        <time>2026-05-19T07:26:17Z</time>
      </trkpt>
      <trkpt lat="43.7166" lon="3.29041">
        <ele>380.3</ele>
        <time>2026-05-19T07:26:22Z</time>
      </trkpt>
      <trkpt lat="43.71657" lon="3.29033">
        <ele>381</ele>
        <time>2026-05-19T07:26:27Z</time>
      </trkpt>
      <trkpt lat="43.71655" lon="3.29026">
        <ele>381.7</ele>
        <time>2026-05-19T07:26:32Z</time>
      </trkpt>
      <trkpt lat="43.71654" lon="3.29024">
        <ele>381.8</ele>
        <time>2026-05-19T07:26:37Z</time>
      </trkpt>
      <trkpt lat="43.71653" lon="3.29024">
        <ele>381.6</ele>
        <time>2026-05-19T07:26:42Z</time>
      </trkpt>
      <trkpt lat="43.71653" lon="3.2902">
        <ele>382.2</ele>
        <time>2026-05-19T07:26:47Z</time>
      </trkpt>
      <trkpt lat="43.71653" lon="3.29016">
        <ele>382.8</ele>
        <time>2026-05-19T07:26:52Z</time>
      </trkpt>
      <trkpt lat="43.71653" lon="3.29016">
        <ele>382.8</ele>
        <time>2026-05-19T07:26:57Z</time>
      </trkpt>
      <trkpt lat="43.71653" lon="3.29016">
        <ele>382.8</ele>
        <time>2026-05-19T07:27:02Z</time>
      </trkpt>
      <trkpt lat="43.71653" lon="3.29016">
        <ele>382.8</ele>
        <time>2026-05-19T07:27:07Z</time>
      </trkpt>
      <trkpt lat="43.71653" lon="3.29016">
        <ele>382.8</ele>
        <time>2026-05-19T07:27:12Z</time>
      </trkpt>
      <trkpt lat="43.71652" lon="3.29013">
        <ele>383.1</ele>
        <time>2026-05-19T07:27:17Z</time>
      </trkpt>
      <trkpt lat="43.71651" lon="3.29004">
        <ele>384.4</ele>
        <time>2026-05-19T07:27:22Z</time>
      </trkpt>
      <trkpt lat="43.71651" lon="3.28995">
        <ele>386</ele>
        <time>2026-05-19T07:27:27Z</time>
      </trkpt>
      <trkpt lat="43.71651" lon="3.28988">
        <ele>387.4</ele>
        <time>2026-05-19T07:27:32Z</time>
      </trkpt>
      <trkpt lat="43.7165" lon="3.2898">
        <ele>388.8</ele>
        <time>2026-05-19T07:27:37Z</time>
      </trkpt>
      <trkpt lat="43.71647" lon="3.28972">
        <ele>389.8</ele>
        <time>2026-05-19T07:27:42Z</time>
      </trkpt>
      <trkpt lat="43.71645" lon="3.28964">
        <ele>391.1</ele>
        <time>2026-05-19T07:27:47Z</time>
      </trkpt>
      <trkpt lat="43.71643" lon="3.28957">
        <ele>392.2</ele>
        <time>2026-05-19T07:27:52Z</time>
      </trkpt>
      <trkpt lat="43.71641" lon="3.28949">
        <ele>393.4</ele>
        <time>2026-05-19T07:27:57Z</time>
      </trkpt>
      <trkpt lat="43.71639" lon="3.28941">
        <ele>394.7</ele>
        <time>2026-05-19T07:28:02Z</time>
      </trkpt>
      <trkpt lat="43.71637" lon="3.28933">
        <ele>396</ele>
        <time>2026-05-19T07:28:07Z</time>
      </trkpt>
      <trkpt lat="43.71633" lon="3.28926">
        <ele>396.8</ele>
        <time>2026-05-19T07:28:12Z</time>
      </trkpt>
      <trkpt lat="43.71629" lon="3.28919">
        <ele>397.6</ele>
        <time>2026-05-19T07:28:17Z</time>
      </trkpt>
      <trkpt lat="43.71625" lon="3.28914">
        <ele>398</ele>
        <time>2026-05-19T07:28:22Z</time>
      </trkpt>
      <trkpt lat="43.71621" lon="3.28909">
        <ele>398.4</ele>
        <time>2026-05-19T07:28:27Z</time>
      </trkpt>
      <trkpt lat="43.71618" lon="3.28901">
        <ele>399.6</ele>
        <time>2026-05-19T07:28:32Z</time>
      </trkpt>
      <trkpt lat="43.71614" lon="3.28894">
        <ele>400.4</ele>
        <time>2026-05-19T07:28:37Z</time>
      </trkpt>
      <trkpt lat="43.7161" lon="3.28886">
        <ele>401.4</ele>
        <time>2026-05-19T07:28:42Z</time>
      </trkpt>
      <trkpt lat="43.71607" lon="3.28879">
        <ele>402.4</ele>
        <time>2026-05-19T07:28:47Z</time>
      </trkpt>
      <trkpt lat="43.71605" lon="3.28871">
        <ele>403.7</ele>
        <time>2026-05-19T07:28:52Z</time>
      </trkpt>
      <trkpt lat="43.71602" lon="3.28863">
        <ele>404.9</ele>
        <time>2026-05-19T07:28:57Z</time>
      </trkpt>
      <trkpt lat="43.716" lon="3.28859">
        <ele>405.4</ele>
        <time>2026-05-19T07:29:02Z</time>
      </trkpt>
      <trkpt lat="43.71598" lon="3.28854">
        <ele>406.1</ele>
        <time>2026-05-19T07:29:07Z</time>
      </trkpt>
      <trkpt lat="43.71595" lon="3.28846">
        <ele>407.2</ele>
        <time>2026-05-19T07:29:12Z</time>
      </trkpt>
      <trkpt lat="43.71591" lon="3.28838">
        <ele>408.2</ele>
        <time>2026-05-19T07:29:17Z</time>
      </trkpt>
      <trkpt lat="43.71589" lon="3.28832">
        <ele>409.1</ele>
        <time>2026-05-19T07:29:22Z</time>
      </trkpt>
      <trkpt lat="43.71586" lon="3.28826">
        <ele>409.8</ele>
        <time>2026-05-19T07:29:27Z</time>
      </trkpt>
      <trkpt lat="43.71582" lon="3.28818">
        <ele>410.9</ele>
        <time>2026-05-19T07:29:32Z</time>
      </trkpt>
      <trkpt lat="43.71578" lon="3.28812">
        <ele>411.9</ele>
        <time>2026-05-19T07:29:37Z</time>
      </trkpt>
      <trkpt lat="43.71575" lon="3.28806">
        <ele>413</ele>
        <time>2026-05-19T07:29:42Z</time>
      </trkpt>
      <trkpt lat="43.71572" lon="3.28798">
        <ele>414.5</ele>
        <time>2026-05-19T07:29:47Z</time>
      </trkpt>
      <trkpt lat="43.71569" lon="3.28792">
        <ele>415.6</ele>
        <time>2026-05-19T07:29:52Z</time>
      </trkpt>
      <trkpt lat="43.71565" lon="3.28786">
        <ele>416.7</ele>
        <time>2026-05-19T07:29:57Z</time>
      </trkpt>
      <trkpt lat="43.71562" lon="3.28781">
        <ele>417.7</ele>
        <time>2026-05-19T07:30:02Z</time>
      </trkpt>
      <trkpt lat="43.7156" lon="3.2878">
        <ele>417.8</ele>
        <time>2026-05-19T07:30:07Z</time>
      </trkpt>
      <trkpt lat="43.7156" lon="3.2878">
        <ele>417.8</ele>
        <time>2026-05-19T07:30:12Z</time>
      </trkpt>
      <trkpt lat="43.7156" lon="3.2878">
        <ele>417.8</ele>
        <time>2026-05-19T07:30:17Z</time>
      </trkpt>
      <trkpt lat="43.7156" lon="3.2878">
        <ele>417.8</ele>
        <time>2026-05-19T07:30:22Z</time>
      </trkpt>
      <trkpt lat="43.7156" lon="3.2878">
        <ele>417.8</ele>
        <time>2026-05-19T07:30:27Z</time>
      </trkpt>
      <trkpt lat="43.7156" lon="3.2878">
        <ele>417.8</ele>
        <time>2026-05-19T07:30:32Z</time>
      </trkpt>
      <trkpt lat="43.7156" lon="3.2878">
        <ele>417.8</ele>
        <time>2026-05-19T07:30:37Z</time>
      </trkpt>
      <trkpt lat="43.7156" lon="3.2878">
        <ele>417.8</ele>
        <time>2026-05-19T07:30:42Z</time>
      </trkpt>
      <trkpt lat="43.7156" lon="3.2878">
        <ele>417.8</ele>
        <time>2026-05-19T07:30:47Z</time>
      </trkpt>
      <trkpt lat="43.7156" lon="3.2878">
        <ele>417.8</ele>
        <time>2026-05-19T07:30:52Z</time>
      </trkpt>
      <trkpt lat="43.7156" lon="3.2878">
        <ele>417.8</ele>
        <time>2026-05-19T07:30:57Z</time>
      </trkpt>
      <trkpt lat="43.7156" lon="3.2878">
        <ele>417.8</ele>
        <time>2026-05-19T07:31:02Z</time>
      </trkpt>
      <trkpt lat="43.7156" lon="3.2878">
        <ele>417.8</ele>
        <time>2026-05-19T07:31:07Z</time>
      </trkpt>
      <trkpt lat="43.7156" lon="3.2878">
        <ele>417.8</ele>
        <time>2026-05-19T07:31:12Z</time>
      </trkpt>
      <trkpt lat="43.7156" lon="3.2878">
        <ele>417.8</ele>
        <time>2026-05-19T07:31:17Z</time>
      </trkpt>
      <trkpt lat="43.7156" lon="3.28774">
        <ele>419.1</ele>
        <time>2026-05-19T07:31:22Z</time>
      </trkpt>
      <trkpt lat="43.71556" lon="3.28766">
        <ele>420.7</ele>
        <time>2026-05-19T07:31:27Z</time>
      </trkpt>
      <trkpt lat="43.71553" lon="3.2876">
        <ele>421.9</ele>
        <time>2026-05-19T07:31:32Z</time>
      </trkpt>
      <trkpt lat="43.71549" lon="3.28752">
        <ele>423.6</ele>
        <time>2026-05-19T07:31:37Z</time>
      </trkpt>
      <trkpt lat="43.71545" lon="3.28745">
        <ele>425.4</ele>
        <time>2026-05-19T07:31:42Z</time>
      </trkpt>
      <trkpt lat="43.71543" lon="3.28739">
        <ele>427</ele>
        <time>2026-05-19T07:31:47Z</time>
      </trkpt>
      <trkpt lat="43.71539" lon="3.28733">
        <ele>428.7</ele>
        <time>2026-05-19T07:31:52Z</time>
      </trkpt>
      <trkpt lat="43.71535" lon="3.28728">
        <ele>429.9</ele>
        <time>2026-05-19T07:31:57Z</time>
      </trkpt>
      <trkpt lat="43.7153" lon="3.28723">
        <ele>431.2</ele>
        <time>2026-05-19T07:32:02Z</time>
      </trkpt>
      <trkpt lat="43.71525" lon="3.28721">
        <ele>431.6</ele>
        <time>2026-05-19T07:32:07Z</time>
      </trkpt>
      <trkpt lat="43.71519" lon="3.28719">
        <ele>431.9</ele>
        <time>2026-05-19T07:32:12Z</time>
      </trkpt>
      <trkpt lat="43.71514" lon="3.28719">
        <ele>431.8</ele>
        <time>2026-05-19T07:32:17Z</time>
      </trkpt>
      <trkpt lat="43.71508" lon="3.28719">
        <ele>431.7</ele>
        <time>2026-05-19T07:32:22Z</time>
      </trkpt>
      <trkpt lat="43.71502" lon="3.2872">
        <ele>431.3</ele>
        <time>2026-05-19T07:32:27Z</time>
      </trkpt>
      <trkpt lat="43.71497" lon="3.2872">
        <ele>430.8</ele>
        <time>2026-05-19T07:32:32Z</time>
      </trkpt>
      <trkpt lat="43.71492" lon="3.28722">
        <ele>429.6</ele>
        <time>2026-05-19T07:32:37Z</time>
      </trkpt>
      <trkpt lat="43.71486" lon="3.28723">
        <ele>428.6</ele>
        <time>2026-05-19T07:32:42Z</time>
      </trkpt>
      <trkpt lat="43.71479" lon="3.28724">
        <ele>427.4</ele>
        <time>2026-05-19T07:32:47Z</time>
      </trkpt>
      <trkpt lat="43.71473" lon="3.28724">
        <ele>426.6</ele>
        <time>2026-05-19T07:32:52Z</time>
      </trkpt>
      <trkpt lat="43.71468" lon="3.28724">
        <ele>425.9</ele>
        <time>2026-05-19T07:32:57Z</time>
      </trkpt>
      <trkpt lat="43.71462" lon="3.28724">
        <ele>425.1</ele>
        <time>2026-05-19T07:33:02Z</time>
      </trkpt>
      <trkpt lat="43.71457" lon="3.28724">
        <ele>424.4</ele>
        <time>2026-05-19T07:33:07Z</time>
      </trkpt>
      <trkpt lat="43.71451" lon="3.28724">
        <ele>423.6</ele>
        <time>2026-05-19T07:33:12Z</time>
      </trkpt>
      <trkpt lat="43.71445" lon="3.28722">
        <ele>423.2</ele>
        <time>2026-05-19T07:33:17Z</time>
      </trkpt>
      <trkpt lat="43.7144" lon="3.28723">
        <ele>422.3</ele>
        <time>2026-05-19T07:33:22Z</time>
      </trkpt>
      <trkpt lat="43.7144" lon="3.28725">
        <ele>421.8</ele>
        <time>2026-05-19T07:33:27Z</time>
      </trkpt>
      <trkpt lat="43.71439" lon="3.28726">
        <ele>421.4</ele>
        <time>2026-05-19T07:33:32Z</time>
      </trkpt>
      <trkpt lat="43.71439" lon="3.28726">
        <ele>421.4</ele>
        <time>2026-05-19T07:33:37Z</time>
      </trkpt>
      <trkpt lat="43.71439" lon="3.28726">
        <ele>421.4</ele>
        <time>2026-05-19T07:33:42Z</time>
      </trkpt>
      <trkpt lat="43.71439" lon="3.28726">
        <ele>421.4</ele>
        <time>2026-05-19T07:33:47Z</time>
      </trkpt>
      <trkpt lat="43.71439" lon="3.28726">
        <ele>421.4</ele>
        <time>2026-05-19T07:33:52Z</time>
      </trkpt>
      <trkpt lat="43.71439" lon="3.28726">
        <ele>421.4</ele>
        <time>2026-05-19T07:33:57Z</time>
      </trkpt>
      <trkpt lat="43.71439" lon="3.28726">
        <ele>421.4</ele>
        <time>2026-05-19T07:34:02Z</time>
      </trkpt>
      <trkpt lat="43.71434" lon="3.28723">
        <ele>421.5</ele>
        <time>2026-05-19T07:34:07Z</time>
      </trkpt>
      <trkpt lat="43.71431" lon="3.28721">
        <ele>421.6</ele>
        <time>2026-05-19T07:34:12Z</time>
      </trkpt>
      <trkpt lat="43.71427" lon="3.28717">
        <ele>422.1</ele>
        <time>2026-05-19T07:34:17Z</time>
      </trkpt>
      <trkpt lat="43.71422" lon="3.28713">
        <ele>422.5</ele>
        <time>2026-05-19T07:34:22Z</time>
      </trkpt>
      <trkpt lat="43.71416" lon="3.2871">
        <ele>422.5</ele>
        <time>2026-05-19T07:34:27Z</time>
      </trkpt>
      <trkpt lat="43.71411" lon="3.28707">
        <ele>422.6</ele>
        <time>2026-05-19T07:34:32Z</time>
      </trkpt>
      <trkpt lat="43.71406" lon="3.28704">
        <ele>422.8</ele>
        <time>2026-05-19T07:34:37Z</time>
      </trkpt>
      <trkpt lat="43.71399" lon="3.28699">
        <ele>423.4</ele>
        <time>2026-05-19T07:34:42Z</time>
      </trkpt>
      <trkpt lat="43.71394" lon="3.28696">
        <ele>423.6</ele>
        <time>2026-05-19T07:34:47Z</time>
      </trkpt>
      <trkpt lat="43.71389" lon="3.28692">
        <ele>424.2</ele>
        <time>2026-05-19T07:34:52Z</time>
      </trkpt>
      <trkpt lat="43.71385" lon="3.28686">
        <ele>425.4</ele>
        <time>2026-05-19T07:34:57Z</time>
      </trkpt>
      <trkpt lat="43.7138" lon="3.28683">
        <ele>425.7</ele>
        <time>2026-05-19T07:35:02Z</time>
      </trkpt>
      <trkpt lat="43.71373" lon="3.28679">
        <ele>426.2</ele>
        <time>2026-05-19T07:35:07Z</time>
      </trkpt>
      <trkpt lat="43.71368" lon="3.28675">
        <ele>426.8</ele>
        <time>2026-05-19T07:35:12Z</time>
      </trkpt>
      <trkpt lat="43.71362" lon="3.28671">
        <ele>427.4</ele>
        <time>2026-05-19T07:35:17Z</time>
      </trkpt>
      <trkpt lat="43.71359" lon="3.28672">
        <ele>426.8</ele>
        <time>2026-05-19T07:35:22Z</time>
      </trkpt>
      <trkpt lat="43.71358" lon="3.28671">
        <ele>427</ele>
        <time>2026-05-19T07:35:27Z</time>
      </trkpt>
      <trkpt lat="43.71358" lon="3.28671">
        <ele>427</ele>
        <time>2026-05-19T07:35:32Z</time>
      </trkpt>
      <trkpt lat="43.71358" lon="3.28671">
        <ele>427</ele>
        <time>2026-05-19T07:35:37Z</time>
      </trkpt>
      <trkpt lat="43.71358" lon="3.28671">
        <ele>427</ele>
        <time>2026-05-19T07:35:42Z</time>
      </trkpt>
      <trkpt lat="43.71355" lon="3.2867">
        <ele>427.1</ele>
        <time>2026-05-19T07:35:47Z</time>
      </trkpt>
      <trkpt lat="43.71351" lon="3.28663">
        <ele>428.4</ele>
        <time>2026-05-19T07:35:52Z</time>
      </trkpt>
      <trkpt lat="43.71347" lon="3.28658">
        <ele>429.1</ele>
        <time>2026-05-19T07:35:57Z</time>
      </trkpt>
      <trkpt lat="43.71341" lon="3.28653">
        <ele>429.5</ele>
        <time>2026-05-19T07:36:02Z</time>
      </trkpt>
      <trkpt lat="43.71336" lon="3.28647">
        <ele>430.3</ele>
        <time>2026-05-19T07:36:07Z</time>
      </trkpt>
      <trkpt lat="43.71332" lon="3.28642">
        <ele>431</ele>
        <time>2026-05-19T07:36:12Z</time>
      </trkpt>
      <trkpt lat="43.71326" lon="3.28638">
        <ele>431.5</ele>
        <time>2026-05-19T07:36:17Z</time>
      </trkpt>
      <trkpt lat="43.7132" lon="3.28635">
        <ele>431.8</ele>
        <time>2026-05-19T07:36:22Z</time>
      </trkpt>
      <trkpt lat="43.71316" lon="3.28628">
        <ele>433</ele>
        <time>2026-05-19T07:36:27Z</time>
      </trkpt>
      <trkpt lat="43.7131" lon="3.28625">
        <ele>433.2</ele>
        <time>2026-05-19T07:36:32Z</time>
      </trkpt>
      <trkpt lat="43.71305" lon="3.28619">
        <ele>434.1</ele>
        <time>2026-05-19T07:36:37Z</time>
      </trkpt>
      <trkpt lat="43.713" lon="3.28614">
        <ele>434.8</ele>
        <time>2026-05-19T07:36:42Z</time>
      </trkpt>
      <trkpt lat="43.71295" lon="3.28609">
        <ele>435.4</ele>
        <time>2026-05-19T07:36:47Z</time>
      </trkpt>
      <trkpt lat="43.71291" lon="3.28603">
        <ele>436.3</ele>
        <time>2026-05-19T07:36:52Z</time>
      </trkpt>
      <trkpt lat="43.71286" lon="3.28598">
        <ele>436.9</ele>
        <time>2026-05-19T07:36:57Z</time>
      </trkpt>
      <trkpt lat="43.71282" lon="3.28592">
        <ele>437.7</ele>
        <time>2026-05-19T07:37:02Z</time>
      </trkpt>
      <trkpt lat="43.71279" lon="3.28584">
        <ele>439</ele>
        <time>2026-05-19T07:37:07Z</time>
      </trkpt>
      <trkpt lat="43.71274" lon="3.28578">
        <ele>439.7</ele>
        <time>2026-05-19T07:37:12Z</time>
      </trkpt>
      <trkpt lat="43.71269" lon="3.28573">
        <ele>440.3</ele>
        <time>2026-05-19T07:37:17Z</time>
      </trkpt>
      <trkpt lat="43.71266" lon="3.28567">
        <ele>441.2</ele>
        <time>2026-05-19T07:37:22Z</time>
      </trkpt>
      <trkpt lat="43.71261" lon="3.2856">
        <ele>442.1</ele>
        <time>2026-05-19T07:37:27Z</time>
      </trkpt>
      <trkpt lat="43.71257" lon="3.28555">
        <ele>442.7</ele>
        <time>2026-05-19T07:37:32Z</time>
      </trkpt>
      <trkpt lat="43.71251" lon="3.2855">
        <ele>443.1</ele>
        <time>2026-05-19T07:37:37Z</time>
      </trkpt>
      <trkpt lat="43.71247" lon="3.28545">
        <ele>443.5</ele>
        <time>2026-05-19T07:37:42Z</time>
      </trkpt>
      <trkpt lat="43.71242" lon="3.2854">
        <ele>443.7</ele>
        <time>2026-05-19T07:37:47Z</time>
      </trkpt>
      <trkpt lat="43.71237" lon="3.28536">
        <ele>443.8</ele>
        <time>2026-05-19T07:37:52Z</time>
      </trkpt>
      <trkpt lat="43.71232" lon="3.28532">
        <ele>443.9</ele>
        <time>2026-05-19T07:37:57Z</time>
      </trkpt>
      <trkpt lat="43.71228" lon="3.2853">
        <ele>443.7</ele>
        <time>2026-05-19T07:38:02Z</time>
      </trkpt>
      <trkpt lat="43.71228" lon="3.2853">
        <ele>443.7</ele>
        <time>2026-05-19T07:38:07Z</time>
      </trkpt>
      <trkpt lat="43.71228" lon="3.2853">
        <ele>443.7</ele>
        <time>2026-05-19T07:38:12Z</time>
      </trkpt>
      <trkpt lat="43.71228" lon="3.2853">
        <ele>443.7</ele>
        <time>2026-05-19T07:38:17Z</time>
      </trkpt>
      <trkpt lat="43.71223" lon="3.28524">
        <ele>444.1</ele>
        <time>2026-05-19T07:38:22Z</time>
      </trkpt>
      <trkpt lat="43.7122" lon="3.28522">
        <ele>444.1</ele>
        <time>2026-05-19T07:38:27Z</time>
      </trkpt>
      <trkpt lat="43.71214" lon="3.28519">
        <ele>443.8</ele>
        <time>2026-05-19T07:38:32Z</time>
      </trkpt>
      <trkpt lat="43.7121" lon="3.28515">
        <ele>444</ele>
        <time>2026-05-19T07:38:37Z</time>
      </trkpt>
      <trkpt lat="43.71205" lon="3.2851">
        <ele>444.3</ele>
        <time>2026-05-19T07:38:42Z</time>
      </trkpt>
      <trkpt lat="43.712" lon="3.28508">
        <ele>444</ele>
        <time>2026-05-19T07:38:47Z</time>
      </trkpt>
      <trkpt lat="43.71195" lon="3.28504">
        <ele>444</ele>
        <time>2026-05-19T07:38:52Z</time>
      </trkpt>
      <trkpt lat="43.7119" lon="3.28501">
        <ele>443.9</ele>
        <time>2026-05-19T07:38:57Z</time>
      </trkpt>
      <trkpt lat="43.71185" lon="3.28497">
        <ele>443.9</ele>
        <time>2026-05-19T07:39:02Z</time>
      </trkpt>
      <trkpt lat="43.7118" lon="3.28493">
        <ele>443.8</ele>
        <time>2026-05-19T07:39:07Z</time>
      </trkpt>
      <trkpt lat="43.71174" lon="3.28489">
        <ele>443.5</ele>
        <time>2026-05-19T07:39:12Z</time>
      </trkpt>
      <trkpt lat="43.71169" lon="3.28486">
        <ele>443.2</ele>
        <time>2026-05-19T07:39:17Z</time>
      </trkpt>
      <trkpt lat="43.71166" lon="3.2848">
        <ele>443.6</ele>
        <time>2026-05-19T07:39:22Z</time>
      </trkpt>
      <trkpt lat="43.71162" lon="3.28475">
        <ele>443.7</ele>
        <time>2026-05-19T07:39:27Z</time>
      </trkpt>
      <trkpt lat="43.71157" lon="3.2847">
        <ele>443.8</ele>
        <time>2026-05-19T07:39:32Z</time>
      </trkpt>
      <trkpt lat="43.71154" lon="3.28463">
        <ele>444.4</ele>
        <time>2026-05-19T07:39:37Z</time>
      </trkpt>
      <trkpt lat="43.71151" lon="3.28456">
        <ele>444.9</ele>
        <time>2026-05-19T07:39:42Z</time>
      </trkpt>
      <trkpt lat="43.7115" lon="3.28448">
        <ele>445.9</ele>
        <time>2026-05-19T07:39:47Z</time>
      </trkpt>
      <trkpt lat="43.71149" lon="3.28442">
        <ele>446.5</ele>
        <time>2026-05-19T07:39:52Z</time>
      </trkpt>
      <trkpt lat="43.71149" lon="3.28435">
        <ele>447.5</ele>
        <time>2026-05-19T07:39:57Z</time>
      </trkpt>
      <trkpt lat="43.71149" lon="3.28427">
        <ele>448.5</ele>
        <time>2026-05-19T07:40:02Z</time>
      </trkpt>
      <trkpt lat="43.7115" lon="3.28419">
        <ele>449.7</ele>
        <time>2026-05-19T07:40:07Z</time>
      </trkpt>
      <trkpt lat="43.71151" lon="3.28412">
        <ele>451</ele>
        <time>2026-05-19T07:40:12Z</time>
      </trkpt>
      <trkpt lat="43.71151" lon="3.28404">
        <ele>452.5</ele>
        <time>2026-05-19T07:40:17Z</time>
      </trkpt>
      <trkpt lat="43.7115" lon="3.28397">
        <ele>453.7</ele>
        <time>2026-05-19T07:40:22Z</time>
      </trkpt>
      <trkpt lat="43.71149" lon="3.28388">
        <ele>455.2</ele>
        <time>2026-05-19T07:40:27Z</time>
      </trkpt>
      <trkpt lat="43.71147" lon="3.28381">
        <ele>456.3</ele>
        <time>2026-05-19T07:40:32Z</time>
      </trkpt>
      <trkpt lat="43.71143" lon="3.28376">
        <ele>456.7</ele>
        <time>2026-05-19T07:40:37Z</time>
      </trkpt>
      <trkpt lat="43.71139" lon="3.28372">
        <ele>456.9</ele>
        <time>2026-05-19T07:40:42Z</time>
      </trkpt>
      <trkpt lat="43.71135" lon="3.28365">
        <ele>457.6</ele>
        <time>2026-05-19T07:40:47Z</time>
      </trkpt>
      <trkpt lat="43.71132" lon="3.2836">
        <ele>458.2</ele>
        <time>2026-05-19T07:40:52Z</time>
      </trkpt>
      <trkpt lat="43.71126" lon="3.28355">
        <ele>458.2</ele>
        <time>2026-05-19T07:40:57Z</time>
      </trkpt>
      <trkpt lat="43.71121" lon="3.28349">
        <ele>458.6</ele>
        <time>2026-05-19T07:41:02Z</time>
      </trkpt>
      <trkpt lat="43.71118" lon="3.28344">
        <ele>459.1</ele>
        <time>2026-05-19T07:41:07Z</time>
      </trkpt>
      <trkpt lat="43.71115" lon="3.28337">
        <ele>459.9</ele>
        <time>2026-05-19T07:41:12Z</time>
      </trkpt>
      <trkpt lat="43.71116" lon="3.28329">
        <ele>461.3</ele>
        <time>2026-05-19T07:41:17Z</time>
      </trkpt>
      <trkpt lat="43.71118" lon="3.28324">
        <ele>462.4</ele>
        <time>2026-05-19T07:41:22Z</time>
      </trkpt>
      <trkpt lat="43.71122" lon="3.2832">
        <ele>463.6</ele>
        <time>2026-05-19T07:41:27Z</time>
      </trkpt>
      <trkpt lat="43.71125" lon="3.28315">
        <ele>464.7</ele>
        <time>2026-05-19T07:41:32Z</time>
      </trkpt>
      <trkpt lat="43.71132" lon="3.28317">
        <ele>465.5</ele>
        <time>2026-05-19T07:41:37Z</time>
      </trkpt>
      <trkpt lat="43.71139" lon="3.28322">
        <ele>465.8</ele>
        <time>2026-05-19T07:41:42Z</time>
      </trkpt>
      <trkpt lat="43.71144" lon="3.28324">
        <ele>466.2</ele>
        <time>2026-05-19T07:41:47Z</time>
      </trkpt>
      <trkpt lat="43.71148" lon="3.28329">
        <ele>466</ele>
        <time>2026-05-19T07:41:52Z</time>
      </trkpt>
      <trkpt lat="43.71153" lon="3.28333">
        <ele>466.1</ele>
        <time>2026-05-19T07:41:57Z</time>
      </trkpt>
      <trkpt lat="43.71156" lon="3.28339">
        <ele>465.4</ele>
        <time>2026-05-19T07:42:02Z</time>
      </trkpt>
      <trkpt lat="43.71159" lon="3.28343">
        <ele>465.1</ele>
        <time>2026-05-19T07:42:07Z</time>
      </trkpt>
      <trkpt lat="43.71163" lon="3.2835">
        <ele>464.3</ele>
        <time>2026-05-19T07:42:12Z</time>
      </trkpt>
      <trkpt lat="43.71166" lon="3.28356">
        <ele>463.6</ele>
        <time>2026-05-19T07:42:17Z</time>
      </trkpt>
      <trkpt lat="43.71169" lon="3.28362">
        <ele>463</ele>
        <time>2026-05-19T07:42:22Z</time>
      </trkpt>
      <trkpt lat="43.71173" lon="3.28368">
        <ele>462.8</ele>
        <time>2026-05-19T07:42:27Z</time>
      </trkpt>
      <trkpt lat="43.71175" lon="3.28374">
        <ele>462</ele>
        <time>2026-05-19T07:42:32Z</time>
      </trkpt>
      <trkpt lat="43.71177" lon="3.2838">
        <ele>461.3</ele>
        <time>2026-05-19T07:42:37Z</time>
      </trkpt>
      <trkpt lat="43.7118" lon="3.28387">
        <ele>460.5</ele>
        <time>2026-05-19T07:42:42Z</time>
      </trkpt>
      <trkpt lat="43.71182" lon="3.28395">
        <ele>459.3</ele>
        <time>2026-05-19T07:42:47Z</time>
      </trkpt>
      <trkpt lat="43.71186" lon="3.28403">
        <ele>458.5</ele>
        <time>2026-05-19T07:42:52Z</time>
      </trkpt>
      <trkpt lat="43.71186" lon="3.28405">
        <ele>458.1</ele>
        <time>2026-05-19T07:42:57Z</time>
      </trkpt>
      <trkpt lat="43.71185" lon="3.28406">
        <ele>457.7</ele>
        <time>2026-05-19T07:43:02Z</time>
      </trkpt>
      <trkpt lat="43.71185" lon="3.28406">
        <ele>457.7</ele>
        <time>2026-05-19T07:43:07Z</time>
      </trkpt>
      <trkpt lat="43.71185" lon="3.28406">
        <ele>457.7</ele>
        <time>2026-05-19T07:43:12Z</time>
      </trkpt>
      <trkpt lat="43.71185" lon="3.28406">
        <ele>457.7</ele>
        <time>2026-05-19T07:43:17Z</time>
      </trkpt>
      <trkpt lat="43.7119" lon="3.28411">
        <ele>457.7</ele>
        <time>2026-05-19T07:43:22Z</time>
      </trkpt>
      <trkpt lat="43.71195" lon="3.28413">
        <ele>458.2</ele>
        <time>2026-05-19T07:43:27Z</time>
      </trkpt>
      <trkpt lat="43.71201" lon="3.28414">
        <ele>459.2</ele>
        <time>2026-05-19T07:43:32Z</time>
      </trkpt>
      <trkpt lat="43.71207" lon="3.28415">
        <ele>460.1</ele>
        <time>2026-05-19T07:43:37Z</time>
      </trkpt>
      <trkpt lat="43.71212" lon="3.28416">
        <ele>460.9</ele>
        <time>2026-05-19T07:43:42Z</time>
      </trkpt>
      <trkpt lat="43.71218" lon="3.28416">
        <ele>462</ele>
        <time>2026-05-19T07:43:47Z</time>
      </trkpt>
      <trkpt lat="43.71224" lon="3.28416">
        <ele>463.2</ele>
        <time>2026-05-19T07:43:52Z</time>
      </trkpt>
      <trkpt lat="43.71225" lon="3.28419">
        <ele>462.8</ele>
        <time>2026-05-19T07:43:57Z</time>
      </trkpt>
      <trkpt lat="43.71226" lon="3.2842">
        <ele>462.8</ele>
        <time>2026-05-19T07:44:02Z</time>
      </trkpt>
      <trkpt lat="43.71226" lon="3.2842">
        <ele>462.8</ele>
        <time>2026-05-19T07:44:07Z</time>
      </trkpt>
      <trkpt lat="43.71226" lon="3.2842">
        <ele>462.8</ele>
        <time>2026-05-19T07:44:12Z</time>
      </trkpt>
      <trkpt lat="43.71226" lon="3.2842">
        <ele>462.8</ele>
        <time>2026-05-19T07:44:17Z</time>
      </trkpt>
      <trkpt lat="43.71235" lon="3.28421">
        <ele>464.3</ele>
        <time>2026-05-19T07:44:22Z</time>
      </trkpt>
      <trkpt lat="43.71242" lon="3.28419">
        <ele>466</ele>
        <time>2026-05-19T07:44:27Z</time>
      </trkpt>
      <trkpt lat="43.71248" lon="3.28419">
        <ele>467.2</ele>
        <time>2026-05-19T07:44:32Z</time>
      </trkpt>
      <trkpt lat="43.71253" lon="3.2842">
        <ele>468</ele>
        <time>2026-05-19T07:44:37Z</time>
      </trkpt>
      <trkpt lat="43.71259" lon="3.2842">
        <ele>469.2</ele>
        <time>2026-05-19T07:44:42Z</time>
      </trkpt>
      <trkpt lat="43.71265" lon="3.28421">
        <ele>470.2</ele>
        <time>2026-05-19T07:44:47Z</time>
      </trkpt>
      <trkpt lat="43.71271" lon="3.28422">
        <ele>471.1</ele>
        <time>2026-05-19T07:44:52Z</time>
      </trkpt>
      <trkpt lat="43.71277" lon="3.28422">
        <ele>472.3</ele>
        <time>2026-05-19T07:44:57Z</time>
      </trkpt>
      <trkpt lat="43.71284" lon="3.28422">
        <ele>473.7</ele>
        <time>2026-05-19T07:45:02Z</time>
      </trkpt>
      <trkpt lat="43.7129" lon="3.28425">
        <ele>474.2</ele>
        <time>2026-05-19T07:45:07Z</time>
      </trkpt>
      <trkpt lat="43.71295" lon="3.28426">
        <ele>474.9</ele>
        <time>2026-05-19T07:45:12Z</time>
      </trkpt>
      <trkpt lat="43.71301" lon="3.28428">
        <ele>475.6</ele>
        <time>2026-05-19T07:45:17Z</time>
      </trkpt>
      <trkpt lat="43.71307" lon="3.28428">
        <ele>476.7</ele>
        <time>2026-05-19T07:45:22Z</time>
      </trkpt>
      <trkpt lat="43.71312" lon="3.28429">
        <ele>477.4</ele>
        <time>2026-05-19T07:45:27Z</time>
      </trkpt>
      <trkpt lat="43.71318" lon="3.28431">
        <ele>478</ele>
        <time>2026-05-19T07:45:32Z</time>
      </trkpt>
      <trkpt lat="43.71324" lon="3.28431">
        <ele>479.1</ele>
        <time>2026-05-19T07:45:37Z</time>
      </trkpt>
      <trkpt lat="43.71329" lon="3.28432">
        <ele>479.8</ele>
        <time>2026-05-19T07:45:42Z</time>
      </trkpt>
      <trkpt lat="43.71334" lon="3.28432">
        <ele>480.6</ele>
        <time>2026-05-19T07:45:47Z</time>
      </trkpt>
      <trkpt lat="43.71339" lon="3.28433">
        <ele>480.7</ele>
        <time>2026-05-19T07:45:52Z</time>
      </trkpt>
      <trkpt lat="43.71342" lon="3.28434">
        <ele>480.6</ele>
        <time>2026-05-19T07:45:57Z</time>
      </trkpt>
      <trkpt lat="43.71343" lon="3.28436">
        <ele>480.1</ele>
        <time>2026-05-19T07:46:02Z</time>
      </trkpt>
      <trkpt lat="43.71348" lon="3.28434">
        <ele>481</ele>
        <time>2026-05-19T07:46:07Z</time>
      </trkpt>
      <trkpt lat="43.71354" lon="3.28433">
        <ele>481.6</ele>
        <time>2026-05-19T07:46:12Z</time>
      </trkpt>
      <trkpt lat="43.7136" lon="3.28432">
        <ele>482.3</ele>
        <time>2026-05-19T07:46:17Z</time>
      </trkpt>
      <trkpt lat="43.71366" lon="3.2843">
        <ele>483.2</ele>
        <time>2026-05-19T07:46:22Z</time>
      </trkpt>
      <trkpt lat="43.71373" lon="3.28429">
        <ele>484</ele>
        <time>2026-05-19T07:46:27Z</time>
      </trkpt>
      <trkpt lat="43.71378" lon="3.28428">
        <ele>484.6</ele>
        <time>2026-05-19T07:46:32Z</time>
      </trkpt>
      <trkpt lat="43.71384" lon="3.28428">
        <ele>484.9</ele>
        <time>2026-05-19T07:46:37Z</time>
      </trkpt>
      <trkpt lat="43.71389" lon="3.28427">
        <ele>485.5</ele>
        <time>2026-05-19T07:46:42Z</time>
      </trkpt>
      <trkpt lat="43.71391" lon="3.28429">
        <ele>485.1</ele>
        <time>2026-05-19T07:46:47Z</time>
      </trkpt>
      <trkpt lat="43.71393" lon="3.28429">
        <ele>485.2</ele>
        <time>2026-05-19T07:46:52Z</time>
      </trkpt>
      <trkpt lat="43.71398" lon="3.28428">
        <ele>485.8</ele>
        <time>2026-05-19T07:46:57Z</time>
      </trkpt>
      <trkpt lat="43.71404" lon="3.28427">
        <ele>486.5</ele>
        <time>2026-05-19T07:47:02Z</time>
      </trkpt>
      <trkpt lat="43.71409" lon="3.28426">
        <ele>487.1</ele>
        <time>2026-05-19T07:47:07Z</time>
      </trkpt>
      <trkpt lat="43.71416" lon="3.28425">
        <ele>487.8</ele>
        <time>2026-05-19T07:47:12Z</time>
      </trkpt>
      <trkpt lat="43.71422" lon="3.28423">
        <ele>488.6</ele>
        <time>2026-05-19T07:47:17Z</time>
      </trkpt>
      <trkpt lat="43.71428" lon="3.28422">
        <ele>489.2</ele>
        <time>2026-05-19T07:47:22Z</time>
      </trkpt>
      <trkpt lat="43.71434" lon="3.28421">
        <ele>489.7</ele>
        <time>2026-05-19T07:47:27Z</time>
      </trkpt>
      <trkpt lat="43.7144" lon="3.28419">
        <ele>490.5</ele>
        <time>2026-05-19T07:47:32Z</time>
      </trkpt>
      <trkpt lat="43.71445" lon="3.28416">
        <ele>491.6</ele>
        <time>2026-05-19T07:47:37Z</time>
      </trkpt>
      <trkpt lat="43.71447" lon="3.28415">
        <ele>492.1</ele>
        <time>2026-05-19T07:47:42Z</time>
      </trkpt>
      <trkpt lat="43.71447" lon="3.28415">
        <ele>492.1</ele>
        <time>2026-05-19T07:47:47Z</time>
      </trkpt>
      <trkpt lat="43.71447" lon="3.28415">
        <ele>492.1</ele>
        <time>2026-05-19T07:47:52Z</time>
      </trkpt>
      <trkpt lat="43.71447" lon="3.28415">
        <ele>492.1</ele>
        <time>2026-05-19T07:47:57Z</time>
      </trkpt>
      <trkpt lat="43.71447" lon="3.28415">
        <ele>492.1</ele>
        <time>2026-05-19T07:48:02Z</time>
      </trkpt>
      <trkpt lat="43.71447" lon="3.28415">
        <ele>492.1</ele>
        <time>2026-05-19T07:48:07Z</time>
      </trkpt>
      <trkpt lat="43.71449" lon="3.28417">
        <ele>491.5</ele>
        <time>2026-05-19T07:48:12Z</time>
      </trkpt>
      <trkpt lat="43.71453" lon="3.28415">
        <ele>492.4</ele>
        <time>2026-05-19T07:48:17Z</time>
      </trkpt>
      <trkpt lat="43.71458" lon="3.28414">
        <ele>493</ele>
        <time>2026-05-19T07:48:22Z</time>
      </trkpt>
      <trkpt lat="43.71464" lon="3.28412">
        <ele>494</ele>
        <time>2026-05-19T07:48:27Z</time>
      </trkpt>
      <trkpt lat="43.7147" lon="3.2841">
        <ele>495</ele>
        <time>2026-05-19T07:48:32Z</time>
      </trkpt>
      <trkpt lat="43.71475" lon="3.28408">
        <ele>495.9</ele>
        <time>2026-05-19T07:48:37Z</time>
      </trkpt>
      <trkpt lat="43.71481" lon="3.28405">
        <ele>497.2</ele>
        <time>2026-05-19T07:48:42Z</time>
      </trkpt>
      <trkpt lat="43.71487" lon="3.28404">
        <ele>497.9</ele>
        <time>2026-05-19T07:48:47Z</time>
      </trkpt>
      <trkpt lat="43.71492" lon="3.28402">
        <ele>498.8</ele>
        <time>2026-05-19T07:48:52Z</time>
      </trkpt>
      <trkpt lat="43.71499" lon="3.28401">
        <ele>499.4</ele>
        <time>2026-05-19T07:48:57Z</time>
      </trkpt>
      <trkpt lat="43.71504" lon="3.28399">
        <ele>500.3</ele>
        <time>2026-05-19T07:49:02Z</time>
      </trkpt>
      <trkpt lat="43.7151" lon="3.28398">
        <ele>500.7</ele>
        <time>2026-05-19T07:49:07Z</time>
      </trkpt>
      <trkpt lat="43.71516" lon="3.28397">
        <ele>501.2</ele>
        <time>2026-05-19T07:49:12Z</time>
      </trkpt>
      <trkpt lat="43.71523" lon="3.28396">
        <ele>501.7</ele>
        <time>2026-05-19T07:49:17Z</time>
      </trkpt>
      <trkpt lat="43.71529" lon="3.28395">
        <ele>502.2</ele>
        <time>2026-05-19T07:49:22Z</time>
      </trkpt>
      <trkpt lat="43.71535" lon="3.28393">
        <ele>503</ele>
        <time>2026-05-19T07:49:27Z</time>
      </trkpt>
      <trkpt lat="43.71542" lon="3.28392">
        <ele>503.5</ele>
        <time>2026-05-19T07:49:32Z</time>
      </trkpt>
      <trkpt lat="43.71548" lon="3.28392">
        <ele>503.6</ele>
        <time>2026-05-19T07:49:37Z</time>
      </trkpt>
      <trkpt lat="43.71555" lon="3.28392">
        <ele>503.8</ele>
        <time>2026-05-19T07:49:42Z</time>
      </trkpt>
      <trkpt lat="43.71561" lon="3.28393">
        <ele>503.6</ele>
        <time>2026-05-19T07:49:47Z</time>
      </trkpt>
      <trkpt lat="43.71569" lon="3.28393">
        <ele>503.8</ele>
        <time>2026-05-19T07:49:52Z</time>
      </trkpt>
      <trkpt lat="43.71573" lon="3.28396">
        <ele>503</ele>
        <time>2026-05-19T07:49:57Z</time>
      </trkpt>
      <trkpt lat="43.71579" lon="3.28399">
        <ele>502.2</ele>
        <time>2026-05-19T07:50:02Z</time>
      </trkpt>
      <trkpt lat="43.71584" lon="3.28403">
        <ele>501.2</ele>
        <time>2026-05-19T07:50:07Z</time>
      </trkpt>
      <trkpt lat="43.71589" lon="3.28408">
        <ele>500.3</ele>
        <time>2026-05-19T07:50:12Z</time>
      </trkpt>
      <trkpt lat="43.71595" lon="3.28411">
        <ele>500.1</ele>
        <time>2026-05-19T07:50:17Z</time>
      </trkpt>
      <trkpt lat="43.716" lon="3.28415">
        <ele>499.5</ele>
        <time>2026-05-19T07:50:22Z</time>
      </trkpt>
      <trkpt lat="43.71605" lon="3.28421">
        <ele>498.6</ele>
        <time>2026-05-19T07:50:27Z</time>
      </trkpt>
      <trkpt lat="43.71611" lon="3.28425">
        <ele>498.3</ele>
        <time>2026-05-19T07:50:32Z</time>
      </trkpt>
      <trkpt lat="43.71617" lon="3.2843">
        <ele>497.8</ele>
        <time>2026-05-19T07:50:37Z</time>
      </trkpt>
      <trkpt lat="43.71622" lon="3.28435">
        <ele>497.2</ele>
        <time>2026-05-19T07:50:42Z</time>
      </trkpt>
      <trkpt lat="43.71627" lon="3.2844">
        <ele>496.6</ele>
        <time>2026-05-19T07:50:47Z</time>
      </trkpt>
      <trkpt lat="43.71632" lon="3.28446">
        <ele>495.8</ele>
        <time>2026-05-19T07:50:52Z</time>
      </trkpt>
      <trkpt lat="43.71636" lon="3.28452">
        <ele>494.8</ele>
        <time>2026-05-19T07:50:57Z</time>
      </trkpt>
      <trkpt lat="43.7164" lon="3.28459">
        <ele>493.6</ele>
        <time>2026-05-19T07:51:02Z</time>
      </trkpt>
      <trkpt lat="43.71644" lon="3.28466">
        <ele>492.4</ele>
        <time>2026-05-19T07:51:07Z</time>
      </trkpt>
      <trkpt lat="43.71648" lon="3.28473">
        <ele>491.2</ele>
        <time>2026-05-19T07:51:12Z</time>
      </trkpt>
      <trkpt lat="43.71652" lon="3.28478">
        <ele>490.5</ele>
        <time>2026-05-19T07:51:17Z</time>
      </trkpt>
      <trkpt lat="43.71656" lon="3.28486">
        <ele>489.1</ele>
        <time>2026-05-19T07:51:22Z</time>
      </trkpt>
      <trkpt lat="43.71661" lon="3.28492">
        <ele>488.2</ele>
        <time>2026-05-19T07:51:27Z</time>
      </trkpt>
      <trkpt lat="43.71664" lon="3.285">
        <ele>486.7</ele>
        <time>2026-05-19T07:51:32Z</time>
      </trkpt>
      <trkpt lat="43.71667" lon="3.28507">
        <ele>485.8</ele>
        <time>2026-05-19T07:51:37Z</time>
      </trkpt>
      <trkpt lat="43.71671" lon="3.28514">
        <ele>485.9</ele>
        <time>2026-05-19T07:51:42Z</time>
      </trkpt>
      <trkpt lat="43.71674" lon="3.28519">
        <ele>486.1</ele>
        <time>2026-05-19T07:51:47Z</time>
      </trkpt>
      <trkpt lat="43.71678" lon="3.28525">
        <ele>486.4</ele>
        <time>2026-05-19T07:51:52Z</time>
      </trkpt>
      <trkpt lat="43.71681" lon="3.28532">
        <ele>486.2</ele>
        <time>2026-05-19T07:51:57Z</time>
      </trkpt>
      <trkpt lat="43.71685" lon="3.28539">
        <ele>486.4</ele>
        <time>2026-05-19T07:52:02Z</time>
      </trkpt>
      <trkpt lat="43.71687" lon="3.28546">
        <ele>485.9</ele>
        <time>2026-05-19T07:52:07Z</time>
      </trkpt>
      <trkpt lat="43.7169" lon="3.28553">
        <ele>485.8</ele>
        <time>2026-05-19T07:52:12Z</time>
      </trkpt>
      <trkpt lat="43.71694" lon="3.28559">
        <ele>486.2</ele>
        <time>2026-05-19T07:52:17Z</time>
      </trkpt>
      <trkpt lat="43.71696" lon="3.28568">
        <ele>485.4</ele>
        <time>2026-05-19T07:52:22Z</time>
      </trkpt>
      <trkpt lat="43.71698" lon="3.28576">
        <ele>484.7</ele>
        <time>2026-05-19T07:52:27Z</time>
      </trkpt>
      <trkpt lat="43.71701" lon="3.28584">
        <ele>484.5</ele>
        <time>2026-05-19T07:52:32Z</time>
      </trkpt>
      <trkpt lat="43.71704" lon="3.28588">
        <ele>484.8</ele>
        <time>2026-05-19T07:52:37Z</time>
      </trkpt>
      <trkpt lat="43.71705" lon="3.28589">
        <ele>485</ele>
        <time>2026-05-19T07:52:42Z</time>
      </trkpt>
      <trkpt lat="43.7171" lon="3.28588">
        <ele>487.1</ele>
        <time>2026-05-19T07:52:47Z</time>
      </trkpt>
      <trkpt lat="43.71714" lon="3.28587">
        <ele>488.9</ele>
        <time>2026-05-19T07:52:52Z</time>
      </trkpt>
      <trkpt lat="43.71716" lon="3.28588">
        <ele>489.5</ele>
        <time>2026-05-19T07:52:57Z</time>
      </trkpt>
      <trkpt lat="43.71717" lon="3.28587">
        <ele>490.1</ele>
        <time>2026-05-19T07:53:02Z</time>
      </trkpt>
      <trkpt lat="43.71717" lon="3.28587">
        <ele>490.1</ele>
        <time>2026-05-19T07:53:07Z</time>
      </trkpt>
      <trkpt lat="43.71717" lon="3.28587">
        <ele>490.1</ele>
        <time>2026-05-19T07:53:12Z</time>
      </trkpt>
      <trkpt lat="43.71717" lon="3.28587">
        <ele>490.1</ele>
        <time>2026-05-19T07:53:17Z</time>
      </trkpt>
      <trkpt lat="43.71717" lon="3.28587">
        <ele>490.1</ele>
        <time>2026-05-19T07:53:22Z</time>
      </trkpt>
      <trkpt lat="43.71717" lon="3.28587">
        <ele>490.1</ele>
        <time>2026-05-19T07:53:27Z</time>
      </trkpt>
      <trkpt lat="43.71712" lon="3.28583">
        <ele>489</ele>
        <time>2026-05-19T07:53:32Z</time>
      </trkpt>
      <trkpt lat="43.71709" lon="3.28574">
        <ele>489.4</ele>
        <time>2026-05-19T07:53:37Z</time>
      </trkpt>
      <trkpt lat="43.7171" lon="3.28571">
        <ele>490.3</ele>
        <time>2026-05-19T07:53:42Z</time>
      </trkpt>
      <trkpt lat="43.71709" lon="3.28571">
        <ele>489.9</ele>
        <time>2026-05-19T07:53:47Z</time>
      </trkpt>
      <trkpt lat="43.71707" lon="3.28565">
        <ele>490.2</ele>
        <time>2026-05-19T07:53:52Z</time>
      </trkpt>
      <trkpt lat="43.71705" lon="3.28559">
        <ele>490.4</ele>
        <time>2026-05-19T07:53:57Z</time>
      </trkpt>
      <trkpt lat="43.71704" lon="3.28558">
        <ele>490.2</ele>
        <time>2026-05-19T07:54:02Z</time>
      </trkpt>
      <trkpt lat="43.71702" lon="3.28559">
        <ele>489.3</ele>
        <time>2026-05-19T07:54:07Z</time>
      </trkpt>
      <trkpt lat="43.71702" lon="3.2856">
        <ele>489.1</ele>
        <time>2026-05-19T07:54:12Z</time>
      </trkpt>
      <trkpt lat="43.717" lon="3.28551">
        <ele>489.9</ele>
        <time>2026-05-19T07:54:17Z</time>
      </trkpt>
      <trkpt lat="43.717" lon="3.28541">
        <ele>491.7</ele>
        <time>2026-05-19T07:54:22Z</time>
      </trkpt>
      <trkpt lat="43.71699" lon="3.28532">
        <ele>492.9</ele>
        <time>2026-05-19T07:54:27Z</time>
      </trkpt>
      <trkpt lat="43.71696" lon="3.28524">
        <ele>493.3</ele>
        <time>2026-05-19T07:54:32Z</time>
      </trkpt>
      <trkpt lat="43.71694" lon="3.28514">
        <ele>494.3</ele>
        <time>2026-05-19T07:54:37Z</time>
      </trkpt>
      <trkpt lat="43.71693" lon="3.28506">
        <ele>495.4</ele>
        <time>2026-05-19T07:54:42Z</time>
      </trkpt>
      <trkpt lat="43.71692" lon="3.28496">
        <ele>497.1</ele>
        <time>2026-05-19T07:54:47Z</time>
      </trkpt>
      <trkpt lat="43.71689" lon="3.28489">
        <ele>497.6</ele>
        <time>2026-05-19T07:54:52Z</time>
      </trkpt>
      <trkpt lat="43.71688" lon="3.2848">
        <ele>499.4</ele>
        <time>2026-05-19T07:54:57Z</time>
      </trkpt>
      <trkpt lat="43.71686" lon="3.28473">
        <ele>500.4</ele>
        <time>2026-05-19T07:55:02Z</time>
      </trkpt>
      <trkpt lat="43.71683" lon="3.28465">
        <ele>501.2</ele>
        <time>2026-05-19T07:55:07Z</time>
      </trkpt>
      <trkpt lat="43.71681" lon="3.28458">
        <ele>502.2</ele>
        <time>2026-05-19T07:55:12Z</time>
      </trkpt>
      <trkpt lat="43.71677" lon="3.2845">
        <ele>502.6</ele>
        <time>2026-05-19T07:55:17Z</time>
      </trkpt>
      <trkpt lat="43.71674" lon="3.28444">
        <ele>503</ele>
        <time>2026-05-19T07:55:22Z</time>
      </trkpt>
      <trkpt lat="43.71672" lon="3.28436">
        <ele>504.2</ele>
        <time>2026-05-19T07:55:27Z</time>
      </trkpt>
      <trkpt lat="43.71668" lon="3.2843">
        <ele>504.3</ele>
        <time>2026-05-19T07:55:32Z</time>
      </trkpt>
      <trkpt lat="43.71665" lon="3.28424">
        <ele>505</ele>
        <time>2026-05-19T07:55:37Z</time>
      </trkpt>
      <trkpt lat="43.71663" lon="3.28421">
        <ele>505.5</ele>
        <time>2026-05-19T07:55:42Z</time>
      </trkpt>
      <trkpt lat="43.71663" lon="3.28421">
        <ele>505.5</ele>
        <time>2026-05-19T07:55:47Z</time>
      </trkpt>
      <trkpt lat="43.71663" lon="3.2842">
        <ele>505.8</ele>
        <time>2026-05-19T07:55:52Z</time>
      </trkpt>
      <trkpt lat="43.71663" lon="3.2842">
        <ele>505.8</ele>
        <time>2026-05-19T07:55:57Z</time>
      </trkpt>
      <trkpt lat="43.71663" lon="3.2842">
        <ele>505.8</ele>
        <time>2026-05-19T07:56:02Z</time>
      </trkpt>
      <trkpt lat="43.71663" lon="3.2842">
        <ele>505.8</ele>
        <time>2026-05-19T07:56:07Z</time>
      </trkpt>
      <trkpt lat="43.71663" lon="3.2842">
        <ele>505.8</ele>
        <time>2026-05-19T07:56:12Z</time>
      </trkpt>
      <trkpt lat="43.71663" lon="3.2842">
        <ele>505.8</ele>
        <time>2026-05-19T07:56:17Z</time>
      </trkpt>
      <trkpt lat="43.71663" lon="3.2842">
        <ele>505.8</ele>
        <time>2026-05-19T07:56:22Z</time>
      </trkpt>
      <trkpt lat="43.71663" lon="3.2842">
        <ele>505.8</ele>
        <time>2026-05-19T07:56:27Z</time>
      </trkpt>
      <trkpt lat="43.71663" lon="3.2842">
        <ele>505.8</ele>
        <time>2026-05-19T07:56:32Z</time>
      </trkpt>
      <trkpt lat="43.71663" lon="3.2842">
        <ele>505.8</ele>
        <time>2026-05-19T07:56:37Z</time>
      </trkpt>
      <trkpt lat="43.71663" lon="3.2842">
        <ele>505.8</ele>
        <time>2026-05-19T07:56:42Z</time>
      </trkpt>
      <trkpt lat="43.71663" lon="3.2842">
        <ele>505.8</ele>
        <time>2026-05-19T07:56:47Z</time>
      </trkpt>
      <trkpt lat="43.71663" lon="3.2842">
        <ele>505.8</ele>
        <time>2026-05-19T07:56:52Z</time>
      </trkpt>
      <trkpt lat="43.71663" lon="3.2842">
        <ele>505.8</ele>
        <time>2026-05-19T07:56:57Z</time>
      </trkpt>
      <trkpt lat="43.71663" lon="3.2842">
        <ele>505.8</ele>
        <time>2026-05-19T07:57:02Z</time>
      </trkpt>
      <trkpt lat="43.71663" lon="3.2842">
        <ele>505.8</ele>
        <time>2026-05-19T07:57:07Z</time>
      </trkpt>
      <trkpt lat="43.71663" lon="3.2842">
        <ele>505.8</ele>
        <time>2026-05-19T07:57:12Z</time>
      </trkpt>
      <trkpt lat="43.71663" lon="3.2842">
        <ele>505.8</ele>
        <time>2026-05-19T07:57:17Z</time>
      </trkpt>
      <trkpt lat="43.71653" lon="3.28413">
        <ele>506.4</ele>
        <time>2026-05-19T07:57:22Z</time>
      </trkpt>
      <trkpt lat="43.7165" lon="3.28404">
        <ele>508.6</ele>
        <time>2026-05-19T07:57:27Z</time>
      </trkpt>
      <trkpt lat="43.71646" lon="3.28397">
        <ele>510.1</ele>
        <time>2026-05-19T07:57:32Z</time>
      </trkpt>
      <trkpt lat="43.71643" lon="3.28391">
        <ele>511.4</ele>
        <time>2026-05-19T07:57:37Z</time>
      </trkpt>
      <trkpt lat="43.71641" lon="3.28384">
        <ele>513.2</ele>
        <time>2026-05-19T07:57:42Z</time>
      </trkpt>
      <trkpt lat="43.71638" lon="3.28378">
        <ele>514.6</ele>
        <time>2026-05-19T07:57:47Z</time>
      </trkpt>
      <trkpt lat="43.71635" lon="3.28372">
        <ele>515.9</ele>
        <time>2026-05-19T07:57:52Z</time>
      </trkpt>
      <trkpt lat="43.71632" lon="3.28365">
        <ele>517.6</ele>
        <time>2026-05-19T07:57:57Z</time>
      </trkpt>
      <trkpt lat="43.7163" lon="3.28358">
        <ele>519.4</ele>
        <time>2026-05-19T07:58:02Z</time>
      </trkpt>
      <trkpt lat="43.71627" lon="3.28351">
        <ele>521.1</ele>
        <time>2026-05-19T07:58:07Z</time>
      </trkpt>
      <trkpt lat="43.71623" lon="3.28345">
        <ele>522.4</ele>
        <time>2026-05-19T07:58:12Z</time>
      </trkpt>
      <trkpt lat="43.71618" lon="3.28337">
        <ele>524.3</ele>
        <time>2026-05-19T07:58:17Z</time>
      </trkpt>
      <trkpt lat="43.71613" lon="3.28331">
        <ele>525.7</ele>
        <time>2026-05-19T07:58:22Z</time>
      </trkpt>
      <trkpt lat="43.71609" lon="3.28326">
        <ele>527.2</ele>
        <time>2026-05-19T07:58:27Z</time>
      </trkpt>
      <trkpt lat="43.71604" lon="3.28321">
        <ele>528.8</ele>
        <time>2026-05-19T07:58:32Z</time>
      </trkpt>
      <trkpt lat="43.71598" lon="3.28317">
        <ele>529.9</ele>
        <time>2026-05-19T07:58:37Z</time>
      </trkpt>
      <trkpt lat="43.71593" lon="3.28312">
        <ele>531.6</ele>
        <time>2026-05-19T07:58:42Z</time>
      </trkpt>
      <trkpt lat="43.71588" lon="3.2831">
        <ele>532.1</ele>
        <time>2026-05-19T07:58:47Z</time>
      </trkpt>
      <trkpt lat="43.71583" lon="3.28309">
        <ele>532.2</ele>
        <time>2026-05-19T07:58:52Z</time>
      </trkpt>
      <trkpt lat="43.71577" lon="3.28306">
        <ele>533.6</ele>
        <time>2026-05-19T07:58:57Z</time>
      </trkpt>
      <trkpt lat="43.71572" lon="3.28304">
        <ele>534.5</ele>
        <time>2026-05-19T07:59:02Z</time>
      </trkpt>
      <trkpt lat="43.71567" lon="3.28302">
        <ele>535.4</ele>
        <time>2026-05-19T07:59:07Z</time>
      </trkpt>
      <trkpt lat="43.71561" lon="3.283">
        <ele>536.3</ele>
        <time>2026-05-19T07:59:12Z</time>
      </trkpt>
      <trkpt lat="43.71555" lon="3.28297">
        <ele>537.6</ele>
        <time>2026-05-19T07:59:17Z</time>
      </trkpt>
      <trkpt lat="43.7155" lon="3.28295">
        <ele>538.5</ele>
        <time>2026-05-19T07:59:22Z</time>
      </trkpt>
      <trkpt lat="43.71545" lon="3.28293">
        <ele>539.4</ele>
        <time>2026-05-19T07:59:27Z</time>
      </trkpt>
      <trkpt lat="43.71539" lon="3.2829">
        <ele>540.7</ele>
        <time>2026-05-19T07:59:32Z</time>
      </trkpt>
      <trkpt lat="43.71534" lon="3.28288">
        <ele>541.6</ele>
        <time>2026-05-19T07:59:37Z</time>
      </trkpt>
      <trkpt lat="43.71528" lon="3.28287">
        <ele>542.1</ele>
        <time>2026-05-19T07:59:42Z</time>
      </trkpt>
      <trkpt lat="43.71523" lon="3.28285">
        <ele>543</ele>
        <time>2026-05-19T07:59:47Z</time>
      </trkpt>
      <trkpt lat="43.71517" lon="3.28283">
        <ele>543.9</ele>
        <time>2026-05-19T07:59:52Z</time>
      </trkpt>
      <trkpt lat="43.71511" lon="3.28281">
        <ele>544.8</ele>
        <time>2026-05-19T07:59:57Z</time>
      </trkpt>
      <trkpt lat="43.71506" lon="3.28279">
        <ele>545.7</ele>
        <time>2026-05-19T08:00:02Z</time>
      </trkpt>
      <trkpt lat="43.71501" lon="3.28277">
        <ele>546.6</ele>
        <time>2026-05-19T08:00:07Z</time>
      </trkpt>
      <trkpt lat="43.71495" lon="3.28275">
        <ele>547.4</ele>
        <time>2026-05-19T08:00:12Z</time>
      </trkpt>
      <trkpt lat="43.7149" lon="3.28272">
        <ele>548.6</ele>
        <time>2026-05-19T08:00:17Z</time>
      </trkpt>
      <trkpt lat="43.71484" lon="3.28271">
        <ele>549</ele>
        <time>2026-05-19T08:00:22Z</time>
      </trkpt>
      <trkpt lat="43.71478" lon="3.28268">
        <ele>550.2</ele>
        <time>2026-05-19T08:00:27Z</time>
      </trkpt>
      <trkpt lat="43.71472" lon="3.28266">
        <ele>550.9</ele>
        <time>2026-05-19T08:00:32Z</time>
      </trkpt>
      <trkpt lat="43.71467" lon="3.28264">
        <ele>551.7</ele>
        <time>2026-05-19T08:00:37Z</time>
      </trkpt>
      <trkpt lat="43.71461" lon="3.28263">
        <ele>552.1</ele>
        <time>2026-05-19T08:00:42Z</time>
      </trkpt>
      <trkpt lat="43.71456" lon="3.28262">
        <ele>552.4</ele>
        <time>2026-05-19T08:00:47Z</time>
      </trkpt>
      <trkpt lat="43.7145" lon="3.2826">
        <ele>553.2</ele>
        <time>2026-05-19T08:00:52Z</time>
      </trkpt>
      <trkpt lat="43.71444" lon="3.2826">
        <ele>553.1</ele>
        <time>2026-05-19T08:00:57Z</time>
      </trkpt>
      <trkpt lat="43.71438" lon="3.28261">
        <ele>552.6</ele>
        <time>2026-05-19T08:01:02Z</time>
      </trkpt>
      <trkpt lat="43.71434" lon="3.28261">
        <ele>552.6</ele>
        <time>2026-05-19T08:01:07Z</time>
      </trkpt>
      <trkpt lat="43.71429" lon="3.28262">
        <ele>552.1</ele>
        <time>2026-05-19T08:01:12Z</time>
      </trkpt>
      <trkpt lat="43.71423" lon="3.28262">
        <ele>552</ele>
        <time>2026-05-19T08:01:17Z</time>
      </trkpt>
      <trkpt lat="43.71417" lon="3.28262">
        <ele>552</ele>
        <time>2026-05-19T08:01:22Z</time>
      </trkpt>
      <trkpt lat="43.71412" lon="3.28264">
        <ele>550.9</ele>
        <time>2026-05-19T08:01:27Z</time>
      </trkpt>
      <trkpt lat="43.71406" lon="3.28265">
        <ele>550.3</ele>
        <time>2026-05-19T08:01:32Z</time>
      </trkpt>
      <trkpt lat="43.71401" lon="3.28266">
        <ele>549.7</ele>
        <time>2026-05-19T08:01:37Z</time>
      </trkpt>
      <trkpt lat="43.71394" lon="3.28267">
        <ele>549</ele>
        <time>2026-05-19T08:01:42Z</time>
      </trkpt>
      <trkpt lat="43.71389" lon="3.28266">
        <ele>549.2</ele>
        <time>2026-05-19T08:01:47Z</time>
      </trkpt>
      <trkpt lat="43.71385" lon="3.28264">
        <ele>549.9</ele>
        <time>2026-05-19T08:01:52Z</time>
      </trkpt>
      <trkpt lat="43.71379" lon="3.28263">
        <ele>550.1</ele>
        <time>2026-05-19T08:01:57Z</time>
      </trkpt>
      <trkpt lat="43.71374" lon="3.28261">
        <ele>550.8</ele>
        <time>2026-05-19T08:02:02Z</time>
      </trkpt>
      <trkpt lat="43.71368" lon="3.2826">
        <ele>551</ele>
        <time>2026-05-19T08:02:07Z</time>
      </trkpt>
      <trkpt lat="43.71362" lon="3.28259">
        <ele>551.2</ele>
        <time>2026-05-19T08:02:12Z</time>
      </trkpt>
      <trkpt lat="43.71357" lon="3.2826">
        <ele>550.6</ele>
        <time>2026-05-19T08:02:17Z</time>
      </trkpt>
      <trkpt lat="43.71353" lon="3.28258">
        <ele>551.3</ele>
        <time>2026-05-19T08:02:22Z</time>
      </trkpt>
      <trkpt lat="43.71347" lon="3.28255">
        <ele>552.3</ele>
        <time>2026-05-19T08:02:27Z</time>
      </trkpt>
      <trkpt lat="43.71341" lon="3.28254">
        <ele>552.6</ele>
        <time>2026-05-19T08:02:32Z</time>
      </trkpt>
      <trkpt lat="43.71335" lon="3.28253">
        <ele>552.8</ele>
        <time>2026-05-19T08:02:37Z</time>
      </trkpt>
      <trkpt lat="43.7133" lon="3.28251">
        <ele>552.1</ele>
        <time>2026-05-19T08:02:42Z</time>
      </trkpt>
      <trkpt lat="43.71324" lon="3.28249">
        <ele>550</ele>
        <time>2026-05-19T08:02:47Z</time>
      </trkpt>
      <trkpt lat="43.71319" lon="3.28247">
        <ele>548.1</ele>
        <time>2026-05-19T08:02:52Z</time>
      </trkpt>
      <trkpt lat="43.71314" lon="3.28246">
        <ele>546.1</ele>
        <time>2026-05-19T08:02:57Z</time>
      </trkpt>
      <trkpt lat="43.71309" lon="3.28243">
        <ele>544.4</ele>
        <time>2026-05-19T08:03:02Z</time>
      </trkpt>
      <trkpt lat="43.71303" lon="3.28241">
        <ele>542.1</ele>
        <time>2026-05-19T08:03:07Z</time>
      </trkpt>
      <trkpt lat="43.71297" lon="3.28238">
        <ele>540</ele>
        <time>2026-05-19T08:03:12Z</time>
      </trkpt>
      <trkpt lat="43.71291" lon="3.28237">
        <ele>537.6</ele>
        <time>2026-05-19T08:03:17Z</time>
      </trkpt>
      <trkpt lat="43.71285" lon="3.28234">
        <ele>535.5</ele>
        <time>2026-05-19T08:03:22Z</time>
      </trkpt>
      <trkpt lat="43.71281" lon="3.28234">
        <ele>533.8</ele>
        <time>2026-05-19T08:03:27Z</time>
      </trkpt>
      <trkpt lat="43.71279" lon="3.28236">
        <ele>532.5</ele>
        <time>2026-05-19T08:03:32Z</time>
      </trkpt>
      <trkpt lat="43.71278" lon="3.28237">
        <ele>531.9</ele>
        <time>2026-05-19T08:03:37Z</time>
      </trkpt>
      <trkpt lat="43.71278" lon="3.28237">
        <ele>531.9</ele>
        <time>2026-05-19T08:03:42Z</time>
      </trkpt>
      <trkpt lat="43.71278" lon="3.28237">
        <ele>531.9</ele>
        <time>2026-05-19T08:03:47Z</time>
      </trkpt>
      <trkpt lat="43.71275" lon="3.28234">
        <ele>531.2</ele>
        <time>2026-05-19T08:03:52Z</time>
      </trkpt>
      <trkpt lat="43.71271" lon="3.2823">
        <ele>530.3</ele>
        <time>2026-05-19T08:03:57Z</time>
      </trkpt>
      <trkpt lat="43.71266" lon="3.28227">
        <ele>528.8</ele>
        <time>2026-05-19T08:04:02Z</time>
      </trkpt>
      <trkpt lat="43.71261" lon="3.28224">
        <ele>527.3</ele>
        <time>2026-05-19T08:04:07Z</time>
      </trkpt>
      <trkpt lat="43.71257" lon="3.28221">
        <ele>526.2</ele>
        <time>2026-05-19T08:04:12Z</time>
      </trkpt>
      <trkpt lat="43.71251" lon="3.28216">
        <ele>524.8</ele>
        <time>2026-05-19T08:04:17Z</time>
      </trkpt>
      <trkpt lat="43.71249" lon="3.28211">
        <ele>525</ele>
        <time>2026-05-19T08:04:22Z</time>
      </trkpt>
      <trkpt lat="43.71249" lon="3.28203">
        <ele>526.7</ele>
        <time>2026-05-19T08:04:27Z</time>
      </trkpt>
      <trkpt lat="43.71251" lon="3.28195">
        <ele>529.3</ele>
        <time>2026-05-19T08:04:32Z</time>
      </trkpt>
      <trkpt lat="43.71256" lon="3.2819">
        <ele>532.3</ele>
        <time>2026-05-19T08:04:37Z</time>
      </trkpt>
      <trkpt lat="43.71263" lon="3.28184">
        <ele>536.3</ele>
        <time>2026-05-19T08:04:42Z</time>
      </trkpt>
      <trkpt lat="43.71268" lon="3.2818">
        <ele>539</ele>
        <time>2026-05-19T08:04:47Z</time>
      </trkpt>
      <trkpt lat="43.71274" lon="3.28176">
        <ele>542.1</ele>
        <time>2026-05-19T08:04:52Z</time>
      </trkpt>
      <trkpt lat="43.7128" lon="3.28173">
        <ele>545</ele>
        <time>2026-05-19T08:04:57Z</time>
      </trkpt>
      <trkpt lat="43.71285" lon="3.28167">
        <ele>548</ele>
        <time>2026-05-19T08:05:02Z</time>
      </trkpt>
      <trkpt lat="43.71291" lon="3.28162">
        <ele>550.5</ele>
        <time>2026-05-19T08:05:07Z</time>
      </trkpt>
      <trkpt lat="43.71292" lon="3.28154">
        <ele>551.2</ele>
        <time>2026-05-19T08:05:12Z</time>
      </trkpt>
      <trkpt lat="43.7129" lon="3.28145">
        <ele>551</ele>
        <time>2026-05-19T08:05:17Z</time>
      </trkpt>
      <trkpt lat="43.71288" lon="3.28137">
        <ele>550.7</ele>
        <time>2026-05-19T08:05:22Z</time>
      </trkpt>
      <trkpt lat="43.71287" lon="3.28128">
        <ele>550.9</ele>
        <time>2026-05-19T08:05:27Z</time>
      </trkpt>
      <trkpt lat="43.71285" lon="3.28119">
        <ele>550.8</ele>
        <time>2026-05-19T08:05:32Z</time>
      </trkpt>
      <trkpt lat="43.71283" lon="3.28111">
        <ele>550.6</ele>
        <time>2026-05-19T08:05:37Z</time>
      </trkpt>
      <trkpt lat="43.71282" lon="3.28105">
        <ele>550.7</ele>
        <time>2026-05-19T08:05:42Z</time>
      </trkpt>
      <trkpt lat="43.71281" lon="3.28102">
        <ele>550.6</ele>
        <time>2026-05-19T08:05:47Z</time>
      </trkpt>
      <trkpt lat="43.71278" lon="3.28094">
        <ele>550.3</ele>
        <time>2026-05-19T08:05:52Z</time>
      </trkpt>
      <trkpt lat="43.71275" lon="3.28084">
        <ele>550.3</ele>
        <time>2026-05-19T08:05:57Z</time>
      </trkpt>
      <trkpt lat="43.71274" lon="3.28078">
        <ele>550.6</ele>
        <time>2026-05-19T08:06:02Z</time>
      </trkpt>
      <trkpt lat="43.71271" lon="3.2807">
        <ele>550.6</ele>
        <time>2026-05-19T08:06:07Z</time>
      </trkpt>
      <trkpt lat="43.71268" lon="3.28062">
        <ele>550.6</ele>
        <time>2026-05-19T08:06:12Z</time>
      </trkpt>
      <trkpt lat="43.71264" lon="3.28052">
        <ele>550.6</ele>
        <time>2026-05-19T08:06:17Z</time>
      </trkpt>
      <trkpt lat="43.71259" lon="3.28044">
        <ele>550.1</ele>
        <time>2026-05-19T08:06:22Z</time>
      </trkpt>
      <trkpt lat="43.71253" lon="3.28036">
        <ele>549.3</ele>
        <time>2026-05-19T08:06:27Z</time>
      </trkpt>
      <trkpt lat="43.71249" lon="3.28033">
        <ele>548.4</ele>
        <time>2026-05-19T08:06:32Z</time>
      </trkpt>
      <trkpt lat="43.71245" lon="3.28026">
        <ele>547.6</ele>
        <time>2026-05-19T08:06:37Z</time>
      </trkpt>
      <trkpt lat="43.7124" lon="3.2802">
        <ele>546.4</ele>
        <time>2026-05-19T08:06:42Z</time>
      </trkpt>
      <trkpt lat="43.71235" lon="3.28015">
        <ele>545.1</ele>
        <time>2026-05-19T08:06:47Z</time>
      </trkpt>
      <trkpt lat="43.71229" lon="3.28009">
        <ele>543.6</ele>
        <time>2026-05-19T08:06:52Z</time>
      </trkpt>
      <trkpt lat="43.71225" lon="3.28007">
        <ele>542.4</ele>
        <time>2026-05-19T08:06:57Z</time>
      </trkpt>
      <trkpt lat="43.71224" lon="3.28007">
        <ele>542.1</ele>
        <time>2026-05-19T08:07:02Z</time>
      </trkpt>
      <trkpt lat="43.71224" lon="3.28007">
        <ele>542.1</ele>
        <time>2026-05-19T08:07:07Z</time>
      </trkpt>
      <trkpt lat="43.71224" lon="3.28007">
        <ele>542.1</ele>
        <time>2026-05-19T08:07:12Z</time>
      </trkpt>
      <trkpt lat="43.71224" lon="3.28007">
        <ele>542.1</ele>
        <time>2026-05-19T08:07:16Z</time>
      </trkpt>
      <trkpt lat="43.71224" lon="3.28007">
        <ele>542.1</ele>
        <time>2026-05-19T08:07:22Z</time>
      </trkpt>
      <trkpt lat="43.71223" lon="3.28005">
        <ele>542</ele>
        <time>2026-05-19T08:07:27Z</time>
      </trkpt>
      <trkpt lat="43.71219" lon="3.27997">
        <ele>541.6</ele>
        <time>2026-05-19T08:07:32Z</time>
      </trkpt>
      <trkpt lat="43.71214" lon="3.27991">
        <ele>540.8</ele>
        <time>2026-05-19T08:07:37Z</time>
      </trkpt>
      <trkpt lat="43.71209" lon="3.27983">
        <ele>540.3</ele>
        <time>2026-05-19T08:07:42Z</time>
      </trkpt>
      <trkpt lat="43.71206" lon="3.27976">
        <ele>540.3</ele>
        <time>2026-05-19T08:07:47Z</time>
      </trkpt>
      <trkpt lat="43.71202" lon="3.27966">
        <ele>540.6</ele>
        <time>2026-05-19T08:07:52Z</time>
      </trkpt>
      <trkpt lat="43.712" lon="3.27957">
        <ele>541.3</ele>
        <time>2026-05-19T08:07:57Z</time>
      </trkpt>
      <trkpt lat="43.71198" lon="3.27948">
        <ele>542.1</ele>
        <time>2026-05-19T08:08:02Z</time>
      </trkpt>
      <trkpt lat="43.71198" lon="3.27938">
        <ele>543.7</ele>
        <time>2026-05-19T08:08:07Z</time>
      </trkpt>
      <trkpt lat="43.71197" lon="3.27929">
        <ele>544.8</ele>
        <time>2026-05-19T08:08:12Z</time>
      </trkpt>
      <trkpt lat="43.71197" lon="3.27919">
        <ele>546.4</ele>
        <time>2026-05-19T08:08:17Z</time>
      </trkpt>
      <trkpt lat="43.71196" lon="3.2791">
        <ele>547.6</ele>
        <time>2026-05-19T08:08:22Z</time>
      </trkpt>
      <trkpt lat="43.71195" lon="3.27899">
        <ele>549.3</ele>
        <time>2026-05-19T08:08:27Z</time>
      </trkpt>
      <trkpt lat="43.71196" lon="3.27889">
        <ele>551.4</ele>
        <time>2026-05-19T08:08:32Z</time>
      </trkpt>
      <trkpt lat="43.71195" lon="3.27879">
        <ele>552.9</ele>
        <time>2026-05-19T08:08:37Z</time>
      </trkpt>
      <trkpt lat="43.71195" lon="3.27869">
        <ele>554.7</ele>
        <time>2026-05-19T08:08:42Z</time>
      </trkpt>
      <trkpt lat="43.71194" lon="3.2786">
        <ele>556.1</ele>
        <time>2026-05-19T08:08:47Z</time>
      </trkpt>
      <trkpt lat="43.71194" lon="3.2785">
        <ele>557.9</ele>
        <time>2026-05-19T08:08:52Z</time>
      </trkpt>
      <trkpt lat="43.71192" lon="3.27842">
        <ele>558.9</ele>
        <time>2026-05-19T08:08:57Z</time>
      </trkpt>
      <trkpt lat="43.71191" lon="3.27835">
        <ele>560</ele>
        <time>2026-05-19T08:09:02Z</time>
      </trkpt>
      <trkpt lat="43.71188" lon="3.27826">
        <ele>561.3</ele>
        <time>2026-05-19T08:09:07Z</time>
      </trkpt>
      <trkpt lat="43.71182" lon="3.27818">
        <ele>561.9</ele>
        <time>2026-05-19T08:09:12Z</time>
      </trkpt>
      <trkpt lat="43.71176" lon="3.27811">
        <ele>562.3</ele>
        <time>2026-05-19T08:09:17Z</time>
      </trkpt>
      <trkpt lat="43.7117" lon="3.27806">
        <ele>562.2</ele>
        <time>2026-05-19T08:09:22Z</time>
      </trkpt>
      <trkpt lat="43.71164" lon="3.27802">
        <ele>562.1</ele>
        <time>2026-05-19T08:09:27Z</time>
      </trkpt>
      <trkpt lat="43.71157" lon="3.27798">
        <ele>561.9</ele>
        <time>2026-05-19T08:09:32Z</time>
      </trkpt>
      <trkpt lat="43.71151" lon="3.27793">
        <ele>562.1</ele>
        <time>2026-05-19T08:09:37Z</time>
      </trkpt>
      <trkpt lat="43.71146" lon="3.27791">
        <ele>561.8</ele>
        <time>2026-05-19T08:09:42Z</time>
      </trkpt>
      <trkpt lat="43.71145" lon="3.2779">
        <ele>561.9</ele>
        <time>2026-05-19T08:09:47Z</time>
      </trkpt>
      <trkpt lat="43.71144" lon="3.2779">
        <ele>561.7</ele>
        <time>2026-05-19T08:09:52Z</time>
      </trkpt>
      <trkpt lat="43.71141" lon="3.27784">
        <ele>562.7</ele>
        <time>2026-05-19T08:09:57Z</time>
      </trkpt>
      <trkpt lat="43.71137" lon="3.27781">
        <ele>562.7</ele>
        <time>2026-05-19T08:10:02Z</time>
      </trkpt>
      <trkpt lat="43.71137" lon="3.27781">
        <ele>562.7</ele>
        <time>2026-05-19T08:10:07Z</time>
      </trkpt>
      <trkpt lat="43.71136" lon="3.27782">
        <ele>562.3</ele>
        <time>2026-05-19T08:10:12Z</time>
      </trkpt>
      <trkpt lat="43.71133" lon="3.2778">
        <ele>562.3</ele>
        <time>2026-05-19T08:10:17Z</time>
      </trkpt>
      <trkpt lat="43.71129" lon="3.27775">
        <ele>562.8</ele>
        <time>2026-05-19T08:10:22Z</time>
      </trkpt>
      <trkpt lat="43.71123" lon="3.27768">
        <ele>563.5</ele>
        <time>2026-05-19T08:10:27Z</time>
      </trkpt>
      <trkpt lat="43.71118" lon="3.27762">
        <ele>564</ele>
        <time>2026-05-19T08:10:32Z</time>
      </trkpt>
      <trkpt lat="43.71114" lon="3.27757">
        <ele>564.5</ele>
        <time>2026-05-19T08:10:37Z</time>
      </trkpt>
      <trkpt lat="43.71108" lon="3.27749">
        <ele>565.3</ele>
        <time>2026-05-19T08:10:42Z</time>
      </trkpt>
      <trkpt lat="43.71103" lon="3.27743">
        <ele>565.7</ele>
        <time>2026-05-19T08:10:47Z</time>
      </trkpt>
      <trkpt lat="43.71097" lon="3.27736">
        <ele>566.1</ele>
        <time>2026-05-19T08:10:52Z</time>
      </trkpt>
      <trkpt lat="43.7109" lon="3.27731">
        <ele>566</ele>
        <time>2026-05-19T08:10:57Z</time>
      </trkpt>
      <trkpt lat="43.71085" lon="3.27726">
        <ele>566.2</ele>
        <time>2026-05-19T08:11:02Z</time>
      </trkpt>
      <trkpt lat="43.71079" lon="3.27722">
        <ele>565.6</ele>
        <time>2026-05-19T08:11:07Z</time>
      </trkpt>
      <trkpt lat="43.71072" lon="3.27718">
        <ele>564.6</ele>
        <time>2026-05-19T08:11:12Z</time>
      </trkpt>
      <trkpt lat="43.71064" lon="3.27716">
        <ele>563</ele>
        <time>2026-05-19T08:11:17Z</time>
      </trkpt>
      <trkpt lat="43.71058" lon="3.27714">
        <ele>562</ele>
        <time>2026-05-19T08:11:22Z</time>
      </trkpt>
      <trkpt lat="43.7105" lon="3.27711">
        <ele>560.7</ele>
        <time>2026-05-19T08:11:27Z</time>
      </trkpt>
      <trkpt lat="43.71044" lon="3.27709">
        <ele>559.7</ele>
        <time>2026-05-19T08:11:32Z</time>
      </trkpt>
      <trkpt lat="43.71042" lon="3.27706">
        <ele>559.9</ele>
        <time>2026-05-19T08:11:37Z</time>
      </trkpt>
      <trkpt lat="43.71042" lon="3.27706">
        <ele>559.9</ele>
        <time>2026-05-19T08:11:42Z</time>
      </trkpt>
      <trkpt lat="43.71042" lon="3.27706">
        <ele>559.9</ele>
        <time>2026-05-19T08:11:47Z</time>
      </trkpt>
      <trkpt lat="43.71042" lon="3.27706">
        <ele>559.9</ele>
        <time>2026-05-19T08:11:52Z</time>
      </trkpt>
      <trkpt lat="43.71042" lon="3.27706">
        <ele>559.9</ele>
        <time>2026-05-19T08:11:57Z</time>
      </trkpt>
      <trkpt lat="43.71042" lon="3.27706">
        <ele>559.9</ele>
        <time>2026-05-19T08:12:02Z</time>
      </trkpt>
      <trkpt lat="43.71042" lon="3.27706">
        <ele>559.9</ele>
        <time>2026-05-19T08:12:07Z</time>
      </trkpt>
      <trkpt lat="43.71042" lon="3.27706">
        <ele>559.9</ele>
        <time>2026-05-19T08:12:12Z</time>
      </trkpt>
      <trkpt lat="43.71042" lon="3.27706">
        <ele>559.9</ele>
        <time>2026-05-19T08:12:17Z</time>
      </trkpt>
      <trkpt lat="43.71042" lon="3.27706">
        <ele>559.9</ele>
        <time>2026-05-19T08:12:22Z</time>
      </trkpt>
      <trkpt lat="43.71042" lon="3.27706">
        <ele>559.9</ele>
        <time>2026-05-19T08:12:27Z</time>
      </trkpt>
      <trkpt lat="43.71042" lon="3.27706">
        <ele>559.9</ele>
        <time>2026-05-19T08:12:32Z</time>
      </trkpt>
      <trkpt lat="43.71042" lon="3.27706">
        <ele>559.9</ele>
        <time>2026-05-19T08:12:37Z</time>
      </trkpt>
      <trkpt lat="43.71042" lon="3.27706">
        <ele>559.9</ele>
        <time>2026-05-19T08:12:42Z</time>
      </trkpt>
      <trkpt lat="43.71042" lon="3.27706">
        <ele>559.9</ele>
        <time>2026-05-19T08:12:47Z</time>
      </trkpt>
      <trkpt lat="43.71042" lon="3.27706">
        <ele>559.9</ele>
        <time>2026-05-19T08:12:52Z</time>
      </trkpt>
      <trkpt lat="43.71042" lon="3.27706">
        <ele>559.9</ele>
        <time>2026-05-19T08:12:57Z</time>
      </trkpt>
      <trkpt lat="43.71042" lon="3.27706">
        <ele>559.9</ele>
        <time>2026-05-19T08:13:02Z</time>
      </trkpt>
      <trkpt lat="43.71042" lon="3.27706">
        <ele>559.9</ele>
        <time>2026-05-19T08:13:07Z</time>
      </trkpt>
      <trkpt lat="43.71042" lon="3.27706">
        <ele>559.9</ele>
        <time>2026-05-19T08:13:12Z</time>
      </trkpt>
      <trkpt lat="43.71042" lon="3.27706">
        <ele>559.9</ele>
        <time>2026-05-19T08:13:17Z</time>
      </trkpt>
      <trkpt lat="43.71042" lon="3.27706">
        <ele>559.9</ele>
        <time>2026-05-19T08:13:22Z</time>
      </trkpt>
      <trkpt lat="43.71042" lon="3.27706">
        <ele>559.9</ele>
        <time>2026-05-19T08:13:27Z</time>
      </trkpt>
      <trkpt lat="43.71042" lon="3.27706">
        <ele>559.9</ele>
        <time>2026-05-19T08:13:32Z</time>
      </trkpt>
      <trkpt lat="43.71042" lon="3.27706">
        <ele>559.9</ele>
        <time>2026-05-19T08:13:37Z</time>
      </trkpt>
      <trkpt lat="43.71042" lon="3.27706">
        <ele>559.9</ele>
        <time>2026-05-19T08:13:42Z</time>
      </trkpt>
      <trkpt lat="43.71042" lon="3.27706">
        <ele>559.9</ele>
        <time>2026-05-19T08:13:47Z</time>
      </trkpt>
      <trkpt lat="43.71036" lon="3.27701">
        <ele>559.7</ele>
        <time>2026-05-19T08:13:52Z</time>
      </trkpt>
      <trkpt lat="43.71031" lon="3.27697">
        <ele>559.5</ele>
        <time>2026-05-19T08:13:57Z</time>
      </trkpt>
      <trkpt lat="43.71027" lon="3.27691">
        <ele>560.2</ele>
        <time>2026-05-19T08:14:02Z</time>
      </trkpt>
      <trkpt lat="43.71022" lon="3.27684">
        <ele>560.9</ele>
        <time>2026-05-19T08:14:07Z</time>
      </trkpt>
      <trkpt lat="43.71019" lon="3.27676">
        <ele>562.4</ele>
        <time>2026-05-19T08:14:12Z</time>
      </trkpt>
      <trkpt lat="43.71015" lon="3.27669">
        <ele>563.4</ele>
        <time>2026-05-19T08:14:17Z</time>
      </trkpt>
      <trkpt lat="43.71011" lon="3.27661">
        <ele>564.5</ele>
        <time>2026-05-19T08:14:22Z</time>
      </trkpt>
      <trkpt lat="43.71005" lon="3.27654">
        <ele>564.9</ele>
        <time>2026-05-19T08:14:27Z</time>
      </trkpt>
      <trkpt lat="43.71001" lon="3.27648">
        <ele>565.4</ele>
        <time>2026-05-19T08:14:32Z</time>
      </trkpt>
      <trkpt lat="43.70994" lon="3.27641">
        <ele>565.7</ele>
        <time>2026-05-19T08:14:37Z</time>
      </trkpt>
      <trkpt lat="43.70989" lon="3.27637">
        <ele>565.7</ele>
        <time>2026-05-19T08:14:42Z</time>
      </trkpt>
      <trkpt lat="43.70983" lon="3.27633">
        <ele>565.6</ele>
        <time>2026-05-19T08:14:47Z</time>
      </trkpt>
      <trkpt lat="43.70975" lon="3.27629">
        <ele>565.1</ele>
        <time>2026-05-19T08:14:52Z</time>
      </trkpt>
      <trkpt lat="43.70969" lon="3.27626">
        <ele>564.8</ele>
        <time>2026-05-19T08:14:57Z</time>
      </trkpt>
      <trkpt lat="43.70962" lon="3.27621">
        <ele>565</ele>
        <time>2026-05-19T08:15:02Z</time>
      </trkpt>
      <trkpt lat="43.70955" lon="3.27617">
        <ele>564.9</ele>
        <time>2026-05-19T08:15:07Z</time>
      </trkpt>
      <trkpt lat="43.70949" lon="3.27613">
        <ele>565</ele>
        <time>2026-05-19T08:15:12Z</time>
      </trkpt>
      <trkpt lat="43.70943" lon="3.27608">
        <ele>565.4</ele>
        <time>2026-05-19T08:15:17Z</time>
      </trkpt>
      <trkpt lat="43.70936" lon="3.27604">
        <ele>565.5</ele>
        <time>2026-05-19T08:15:22Z</time>
      </trkpt>
      <trkpt lat="43.7093" lon="3.27599">
        <ele>566.1</ele>
        <time>2026-05-19T08:15:27Z</time>
      </trkpt>
      <trkpt lat="43.70923" lon="3.27594">
        <ele>566.6</ele>
        <time>2026-05-19T08:15:32Z</time>
      </trkpt>
      <trkpt lat="43.70916" lon="3.2759">
        <ele>566.8</ele>
        <time>2026-05-19T08:15:37Z</time>
      </trkpt>
      <trkpt lat="43.70909" lon="3.27587">
        <ele>566.6</ele>
        <time>2026-05-19T08:15:42Z</time>
      </trkpt>
      <trkpt lat="43.70904" lon="3.27583">
        <ele>567.1</ele>
        <time>2026-05-19T08:15:47Z</time>
      </trkpt>
      <trkpt lat="43.70897" lon="3.27578">
        <ele>566.6</ele>
        <time>2026-05-19T08:15:52Z</time>
      </trkpt>
      <trkpt lat="43.70893" lon="3.27573">
        <ele>566.7</ele>
        <time>2026-05-19T08:15:57Z</time>
      </trkpt>
      <trkpt lat="43.70891" lon="3.2757">
        <ele>566.8</ele>
        <time>2026-05-19T08:16:02Z</time>
      </trkpt>
      <trkpt lat="43.70889" lon="3.2757">
        <ele>566.5</ele>
        <time>2026-05-19T08:16:07Z</time>
      </trkpt>
      <trkpt lat="43.70884" lon="3.27565">
        <ele>566.5</ele>
        <time>2026-05-19T08:16:12Z</time>
      </trkpt>
      <trkpt lat="43.70879" lon="3.27559">
        <ele>566.7</ele>
        <time>2026-05-19T08:16:17Z</time>
      </trkpt>
      <trkpt lat="43.70876" lon="3.2755">
        <ele>567.6</ele>
        <time>2026-05-19T08:16:22Z</time>
      </trkpt>
      <trkpt lat="43.70873" lon="3.27542">
        <ele>568.4</ele>
        <time>2026-05-19T08:16:27Z</time>
      </trkpt>
      <trkpt lat="43.70872" lon="3.27533">
        <ele>569.7</ele>
        <time>2026-05-19T08:16:32Z</time>
      </trkpt>
      <trkpt lat="43.70872" lon="3.27523">
        <ele>571.2</ele>
        <time>2026-05-19T08:16:37Z</time>
      </trkpt>
      <trkpt lat="43.70873" lon="3.27511">
        <ele>573.1</ele>
        <time>2026-05-19T08:16:42Z</time>
      </trkpt>
      <trkpt lat="43.70872" lon="3.27501">
        <ele>574.6</ele>
        <time>2026-05-19T08:16:47Z</time>
      </trkpt>
      <trkpt lat="43.70873" lon="3.27488">
        <ele>574.5</ele>
        <time>2026-05-19T08:16:52Z</time>
      </trkpt>
      <trkpt lat="43.70871" lon="3.27481">
        <ele>574.1</ele>
        <time>2026-05-19T08:16:57Z</time>
      </trkpt>
      <trkpt lat="43.70869" lon="3.27476">
        <ele>573.8</ele>
        <time>2026-05-19T08:17:02Z</time>
      </trkpt>
      <trkpt lat="43.70869" lon="3.27464">
        <ele>573.5</ele>
        <time>2026-05-19T08:17:07Z</time>
      </trkpt>
      <trkpt lat="43.70869" lon="3.27464">
        <ele>573.5</ele>
        <time>2026-05-19T08:17:12Z</time>
      </trkpt>
      <trkpt lat="43.70869" lon="3.27464">
        <ele>573.5</ele>
        <time>2026-05-19T08:17:17Z</time>
      </trkpt>
      <trkpt lat="43.70869" lon="3.27464">
        <ele>573.5</ele>
        <time>2026-05-19T08:17:22Z</time>
      </trkpt>
      <trkpt lat="43.70869" lon="3.27464">
        <ele>573.5</ele>
        <time>2026-05-19T08:17:27Z</time>
      </trkpt>
      <trkpt lat="43.70869" lon="3.27464">
        <ele>573.5</ele>
        <time>2026-05-19T08:17:32Z</time>
      </trkpt>
      <trkpt lat="43.70869" lon="3.27464">
        <ele>573.5</ele>
        <time>2026-05-19T08:17:37Z</time>
      </trkpt>
      <trkpt lat="43.70869" lon="3.27464">
        <ele>573.5</ele>
        <time>2026-05-19T08:17:42Z</time>
      </trkpt>
      <trkpt lat="43.70869" lon="3.27464">
        <ele>573.5</ele>
        <time>2026-05-19T08:17:47Z</time>
      </trkpt>
      <trkpt lat="43.70869" lon="3.27464">
        <ele>573.5</ele>
        <time>2026-05-19T08:17:52Z</time>
      </trkpt>
      <trkpt lat="43.70869" lon="3.27464">
        <ele>573.5</ele>
        <time>2026-05-19T08:17:57Z</time>
      </trkpt>
      <trkpt lat="43.70869" lon="3.27464">
        <ele>573.5</ele>
        <time>2026-05-19T08:18:02Z</time>
      </trkpt>
      <trkpt lat="43.70869" lon="3.27464">
        <ele>573.5</ele>
        <time>2026-05-19T08:18:07Z</time>
      </trkpt>
      <trkpt lat="43.70869" lon="3.27464">
        <ele>573.5</ele>
        <time>2026-05-19T08:18:12Z</time>
      </trkpt>
      <trkpt lat="43.70869" lon="3.27464">
        <ele>573.5</ele>
        <time>2026-05-19T08:18:17Z</time>
      </trkpt>
      <trkpt lat="43.70869" lon="3.27464">
        <ele>573.5</ele>
        <time>2026-05-19T08:18:22Z</time>
      </trkpt>
      <trkpt lat="43.70869" lon="3.27464">
        <ele>573.5</ele>
        <time>2026-05-19T08:18:27Z</time>
      </trkpt>
      <trkpt lat="43.70869" lon="3.27464">
        <ele>573.5</ele>
        <time>2026-05-19T08:18:32Z</time>
      </trkpt>
      <trkpt lat="43.70879" lon="3.27462">
        <ele>574.5</ele>
        <time>2026-05-19T08:18:37Z</time>
      </trkpt>
      <trkpt lat="43.70879" lon="3.27454">
        <ele>574.3</ele>
        <time>2026-05-19T08:18:42Z</time>
      </trkpt>
      <trkpt lat="43.70881" lon="3.27454">
        <ele>574.6</ele>
        <time>2026-05-19T08:18:47Z</time>
      </trkpt>
      <trkpt lat="43.70881" lon="3.27454">
        <ele>574.6</ele>
        <time>2026-05-19T08:18:52Z</time>
      </trkpt>
      <trkpt lat="43.70881" lon="3.27454">
        <ele>574.6</ele>
        <time>2026-05-19T08:18:57Z</time>
      </trkpt>
      <trkpt lat="43.70882" lon="3.27452">
        <ele>574.6</ele>
        <time>2026-05-19T08:19:02Z</time>
      </trkpt>
      <trkpt lat="43.70884" lon="3.27442">
        <ele>574.6</ele>
        <time>2026-05-19T08:19:07Z</time>
      </trkpt>
      <trkpt lat="43.70886" lon="3.27432">
        <ele>574.6</ele>
        <time>2026-05-19T08:19:12Z</time>
      </trkpt>
      <trkpt lat="43.70888" lon="3.27424">
        <ele>574.7</ele>
        <time>2026-05-19T08:19:17Z</time>
      </trkpt>
      <trkpt lat="43.7089" lon="3.27414">
        <ele>574.5</ele>
        <time>2026-05-19T08:19:22Z</time>
      </trkpt>
      <trkpt lat="43.70892" lon="3.27403">
        <ele>573.7</ele>
        <time>2026-05-19T08:19:27Z</time>
      </trkpt>
      <trkpt lat="43.70893" lon="3.27397">
        <ele>573.2</ele>
        <time>2026-05-19T08:19:32Z</time>
      </trkpt>
      <trkpt lat="43.70894" lon="3.27386">
        <ele>572.2</ele>
        <time>2026-05-19T08:19:37Z</time>
      </trkpt>
      <trkpt lat="43.70896" lon="3.27379">
        <ele>571.8</ele>
        <time>2026-05-19T08:19:41Z</time>
      </trkpt>
      <trkpt lat="43.70899" lon="3.2737">
        <ele>571.3</ele>
        <time>2026-05-19T08:19:46Z</time>
      </trkpt>
      <trkpt lat="43.70899" lon="3.27362">
        <ele>570.5</ele>
        <time>2026-05-19T08:19:51Z</time>
      </trkpt>
      <trkpt lat="43.70899" lon="3.27353">
        <ele>569.6</ele>
        <time>2026-05-19T08:19:56Z</time>
      </trkpt>
      <trkpt lat="43.70897" lon="3.27345">
        <ele>568.6</ele>
        <time>2026-05-19T08:20:01Z</time>
      </trkpt>
      <trkpt lat="43.70897" lon="3.27336">
        <ele>567.7</ele>
        <time>2026-05-19T08:20:06Z</time>
      </trkpt>
      <trkpt lat="43.70895" lon="3.27327">
        <ele>566.8</ele>
        <time>2026-05-19T08:20:11Z</time>
      </trkpt>
      <trkpt lat="43.70894" lon="3.27317">
        <ele>566</ele>
        <time>2026-05-19T08:20:16Z</time>
      </trkpt>
      <trkpt lat="43.70894" lon="3.27311">
        <ele>565.7</ele>
        <time>2026-05-19T08:20:21Z</time>
      </trkpt>
      <trkpt lat="43.70894" lon="3.2731">
        <ele>565.6</ele>
        <time>2026-05-19T08:20:26Z</time>
      </trkpt>
      <trkpt lat="43.70894" lon="3.27305">
        <ele>565.3</ele>
        <time>2026-05-19T08:20:31Z</time>
      </trkpt>
      <trkpt lat="43.70894" lon="3.27295">
        <ele>564.7</ele>
        <time>2026-05-19T08:20:36Z</time>
      </trkpt>
      <trkpt lat="43.70893" lon="3.27286">
        <ele>564</ele>
        <time>2026-05-19T08:20:41Z</time>
      </trkpt>
      <trkpt lat="43.70893" lon="3.27277">
        <ele>563.4</ele>
        <time>2026-05-19T08:20:46Z</time>
      </trkpt>
      <trkpt lat="43.70893" lon="3.27268">
        <ele>562.9</ele>
        <time>2026-05-19T08:20:51Z</time>
      </trkpt>
      <trkpt lat="43.70892" lon="3.27257">
        <ele>561.9</ele>
        <time>2026-05-19T08:20:56Z</time>
      </trkpt>
      <trkpt lat="43.70891" lon="3.27249">
        <ele>561.2</ele>
        <time>2026-05-19T08:21:01Z</time>
      </trkpt>
      <trkpt lat="43.70891" lon="3.27239">
        <ele>560.5</ele>
        <time>2026-05-19T08:21:06Z</time>
      </trkpt>
      <trkpt lat="43.70892" lon="3.27227">
        <ele>559.9</ele>
        <time>2026-05-19T08:21:11Z</time>
      </trkpt>
      <trkpt lat="43.70893" lon="3.27211">
        <ele>559.1</ele>
        <time>2026-05-19T08:21:16Z</time>
      </trkpt>
      <trkpt lat="43.70891" lon="3.27206">
        <ele>558.2</ele>
        <time>2026-05-19T08:21:21Z</time>
      </trkpt>
      <trkpt lat="43.70893" lon="3.2719">
        <ele>557.6</ele>
        <time>2026-05-19T08:21:26Z</time>
      </trkpt>
      <trkpt lat="43.70891" lon="3.27186">
        <ele>556.9</ele>
        <time>2026-05-19T08:21:31Z</time>
      </trkpt>
      <trkpt lat="43.70892" lon="3.27171">
        <ele>556.1</ele>
        <time>2026-05-19T08:21:36Z</time>
      </trkpt>
      <trkpt lat="43.7089" lon="3.27165">
        <ele>555.4</ele>
        <time>2026-05-19T08:21:41Z</time>
      </trkpt>
      <trkpt lat="43.70898" lon="3.27166">
        <ele>557.3</ele>
        <time>2026-05-19T08:21:46Z</time>
      </trkpt>
      <trkpt lat="43.70904" lon="3.27154">
        <ele>559</ele>
        <time>2026-05-19T08:21:51Z</time>
      </trkpt>
      <trkpt lat="43.70907" lon="3.27151">
        <ele>559.7</ele>
        <time>2026-05-19T08:21:56Z</time>
      </trkpt>
      <trkpt lat="43.70913" lon="3.2714">
        <ele>561</ele>
        <time>2026-05-19T08:22:01Z</time>
      </trkpt>
      <trkpt lat="43.70925" lon="3.27126">
        <ele>564</ele>
        <time>2026-05-19T08:22:06Z</time>
      </trkpt>
      <trkpt lat="43.70928" lon="3.27122">
        <ele>564.8</ele>
        <time>2026-05-19T08:22:11Z</time>
      </trkpt>
      <trkpt lat="43.70934" lon="3.27113">
        <ele>566.4</ele>
        <time>2026-05-19T08:22:16Z</time>
      </trkpt>
      <trkpt lat="43.70937" lon="3.27109">
        <ele>567.1</ele>
        <time>2026-05-19T08:22:21Z</time>
      </trkpt>
      <trkpt lat="43.70943" lon="3.27098">
        <ele>568.6</ele>
        <time>2026-05-19T08:22:26Z</time>
      </trkpt>
      <trkpt lat="43.70948" lon="3.27091">
        <ele>569.8</ele>
        <time>2026-05-19T08:22:31Z</time>
      </trkpt>
      <trkpt lat="43.70953" lon="3.27083">
        <ele>571.1</ele>
        <time>2026-05-19T08:22:36Z</time>
      </trkpt>
      <trkpt lat="43.70954" lon="3.27073">
        <ele>572.2</ele>
        <time>2026-05-19T08:22:41Z</time>
      </trkpt>
      <trkpt lat="43.70954" lon="3.27063">
        <ele>573</ele>
        <time>2026-05-19T08:22:46Z</time>
      </trkpt>
      <trkpt lat="43.70954" lon="3.27054">
        <ele>573.7</ele>
        <time>2026-05-19T08:22:51Z</time>
      </trkpt>
      <trkpt lat="43.70954" lon="3.27043">
        <ele>574.6</ele>
        <time>2026-05-19T08:22:56Z</time>
      </trkpt>
      <trkpt lat="43.70955" lon="3.27034">
        <ele>575.6</ele>
        <time>2026-05-19T08:23:01Z</time>
      </trkpt>
      <trkpt lat="43.70956" lon="3.27024">
        <ele>576.6</ele>
        <time>2026-05-19T08:23:06Z</time>
      </trkpt>
      <trkpt lat="43.70956" lon="3.27015">
        <ele>577.3</ele>
        <time>2026-05-19T08:23:11Z</time>
      </trkpt>
      <trkpt lat="43.70956" lon="3.27005">
        <ele>578.2</ele>
        <time>2026-05-19T08:23:16Z</time>
      </trkpt>
      <trkpt lat="43.70956" lon="3.26994">
        <ele>579.2</ele>
        <time>2026-05-19T08:23:21Z</time>
      </trkpt>
      <trkpt lat="43.70956" lon="3.26985">
        <ele>580.1</ele>
        <time>2026-05-19T08:23:26Z</time>
      </trkpt>
      <trkpt lat="43.70956" lon="3.26975">
        <ele>581.2</ele>
        <time>2026-05-19T08:23:31Z</time>
      </trkpt>
      <trkpt lat="43.70956" lon="3.26965">
        <ele>582.2</ele>
        <time>2026-05-19T08:23:36Z</time>
      </trkpt>
      <trkpt lat="43.70957" lon="3.26955">
        <ele>583.4</ele>
        <time>2026-05-19T08:23:41Z</time>
      </trkpt>
      <trkpt lat="43.70958" lon="3.26944">
        <ele>584.7</ele>
        <time>2026-05-19T08:23:46Z</time>
      </trkpt>
      <trkpt lat="43.70961" lon="3.26935">
        <ele>585.9</ele>
        <time>2026-05-19T08:23:51Z</time>
      </trkpt>
      <trkpt lat="43.70962" lon="3.26926">
        <ele>586.9</ele>
        <time>2026-05-19T08:23:56Z</time>
      </trkpt>
      <trkpt lat="43.70962" lon="3.2692">
        <ele>587.5</ele>
        <time>2026-05-19T08:24:01Z</time>
      </trkpt>
      <trkpt lat="43.70962" lon="3.2692">
        <ele>587.5</ele>
        <time>2026-05-19T08:24:06Z</time>
      </trkpt>
      <trkpt lat="43.70962" lon="3.2692">
        <ele>587.5</ele>
        <time>2026-05-19T08:24:11Z</time>
      </trkpt>
      <trkpt lat="43.70962" lon="3.2692">
        <ele>587.5</ele>
        <time>2026-05-19T08:24:16Z</time>
      </trkpt>
      <trkpt lat="43.70962" lon="3.2692">
        <ele>587.5</ele>
        <time>2026-05-19T08:24:21Z</time>
      </trkpt>
      <trkpt lat="43.70962" lon="3.2692">
        <ele>587.5</ele>
        <time>2026-05-19T08:24:26Z</time>
      </trkpt>
      <trkpt lat="43.70962" lon="3.2692">
        <ele>587.5</ele>
        <time>2026-05-19T08:24:31Z</time>
      </trkpt>
      <trkpt lat="43.70962" lon="3.2692">
        <ele>587.5</ele>
        <time>2026-05-19T08:24:36Z</time>
      </trkpt>
      <trkpt lat="43.70962" lon="3.2692">
        <ele>587.5</ele>
        <time>2026-05-19T08:24:41Z</time>
      </trkpt>
      <trkpt lat="43.70962" lon="3.2692">
        <ele>587.5</ele>
        <time>2026-05-19T08:24:46Z</time>
      </trkpt>
      <trkpt lat="43.70962" lon="3.2692">
        <ele>587.5</ele>
        <time>2026-05-19T08:24:51Z</time>
      </trkpt>
      <trkpt lat="43.70962" lon="3.2692">
        <ele>587.5</ele>
        <time>2026-05-19T08:24:56Z</time>
      </trkpt>
      <trkpt lat="43.70962" lon="3.2692">
        <ele>587.5</ele>
        <time>2026-05-19T08:25:01Z</time>
      </trkpt>
      <trkpt lat="43.70962" lon="3.2692">
        <ele>587.5</ele>
        <time>2026-05-19T08:25:06Z</time>
      </trkpt>
      <trkpt lat="43.70962" lon="3.2692">
        <ele>587.5</ele>
        <time>2026-05-19T08:25:11Z</time>
      </trkpt>
      <trkpt lat="43.70962" lon="3.2692">
        <ele>587.5</ele>
        <time>2026-05-19T08:25:16Z</time>
      </trkpt>
      <trkpt lat="43.70962" lon="3.2692">
        <ele>587.5</ele>
        <time>2026-05-19T08:25:21Z</time>
      </trkpt>
      <trkpt lat="43.70962" lon="3.2692">
        <ele>587.5</ele>
        <time>2026-05-19T08:25:26Z</time>
      </trkpt>
      <trkpt lat="43.70962" lon="3.2692">
        <ele>587.5</ele>
        <time>2026-05-19T08:25:31Z</time>
      </trkpt>
      <trkpt lat="43.70962" lon="3.2692">
        <ele>587.5</ele>
        <time>2026-05-19T08:25:36Z</time>
      </trkpt>
      <trkpt lat="43.70962" lon="3.2692">
        <ele>587.5</ele>
        <time>2026-05-19T08:25:41Z</time>
      </trkpt>
      <trkpt lat="43.70963" lon="3.26916">
        <ele>588</ele>
        <time>2026-05-19T08:25:46Z</time>
      </trkpt>
      <trkpt lat="43.70965" lon="3.26904">
        <ele>589.6</ele>
        <time>2026-05-19T08:25:51Z</time>
      </trkpt>
      <trkpt lat="43.70964" lon="3.26894">
        <ele>590.8</ele>
        <time>2026-05-19T08:25:56Z</time>
      </trkpt>
      <trkpt lat="43.70964" lon="3.26884">
        <ele>592</ele>
        <time>2026-05-19T08:26:01Z</time>
      </trkpt>
      <trkpt lat="43.70964" lon="3.26875">
        <ele>593.1</ele>
        <time>2026-05-19T08:26:06Z</time>
      </trkpt>
      <trkpt lat="43.70965" lon="3.26868">
        <ele>594</ele>
        <time>2026-05-19T08:26:11Z</time>
      </trkpt>
      <trkpt lat="43.70965" lon="3.26868">
        <ele>594</ele>
        <time>2026-05-19T08:26:16Z</time>
      </trkpt>
      <trkpt lat="43.70965" lon="3.26868">
        <ele>594</ele>
        <time>2026-05-19T08:26:21Z</time>
      </trkpt>
      <trkpt lat="43.70965" lon="3.26868">
        <ele>594</ele>
        <time>2026-05-19T08:26:26Z</time>
      </trkpt>
      <trkpt lat="43.70965" lon="3.26868">
        <ele>594</ele>
        <time>2026-05-19T08:26:31Z</time>
      </trkpt>
      <trkpt lat="43.70967" lon="3.26865">
        <ele>594.4</ele>
        <time>2026-05-19T08:26:36Z</time>
      </trkpt>
      <trkpt lat="43.70967" lon="3.26855">
        <ele>595.6</ele>
        <time>2026-05-19T08:26:41Z</time>
      </trkpt>
      <trkpt lat="43.70966" lon="3.26845">
        <ele>596.8</ele>
        <time>2026-05-19T08:26:46Z</time>
      </trkpt>
      <trkpt lat="43.70965" lon="3.2684">
        <ele>597.4</ele>
        <time>2026-05-19T08:26:51Z</time>
      </trkpt>
      <trkpt lat="43.70964" lon="3.26839">
        <ele>597.6</ele>
        <time>2026-05-19T08:26:56Z</time>
      </trkpt>
      <trkpt lat="43.70963" lon="3.26834">
        <ele>598.2</ele>
        <time>2026-05-19T08:27:01Z</time>
      </trkpt>
      <trkpt lat="43.7096" lon="3.26827">
        <ele>599</ele>
        <time>2026-05-19T08:27:06Z</time>
      </trkpt>
      <trkpt lat="43.70955" lon="3.2682">
        <ele>599.9</ele>
        <time>2026-05-19T08:27:11Z</time>
      </trkpt>
      <trkpt lat="43.7095" lon="3.26816">
        <ele>600.5</ele>
        <time>2026-05-19T08:27:16Z</time>
      </trkpt>
      <trkpt lat="43.70946" lon="3.26813">
        <ele>601.1</ele>
        <time>2026-05-19T08:27:21Z</time>
      </trkpt>
      <trkpt lat="43.70942" lon="3.26812">
        <ele>601.5</ele>
        <time>2026-05-19T08:27:26Z</time>
      </trkpt>
      <trkpt lat="43.70937" lon="3.2681">
        <ele>602</ele>
        <time>2026-05-19T08:27:31Z</time>
      </trkpt>
      <trkpt lat="43.70931" lon="3.26811">
        <ele>602.3</ele>
        <time>2026-05-19T08:27:36Z</time>
      </trkpt>
      <trkpt lat="43.70926" lon="3.2681">
        <ele>602.7</ele>
        <time>2026-05-19T08:27:41Z</time>
      </trkpt>
      <trkpt lat="43.70919" lon="3.2681">
        <ele>603.2</ele>
        <time>2026-05-19T08:27:46Z</time>
      </trkpt>
      <trkpt lat="43.70913" lon="3.26811">
        <ele>603.2</ele>
        <time>2026-05-19T08:27:51Z</time>
      </trkpt>
      <trkpt lat="43.70907" lon="3.2681">
        <ele>603.4</ele>
        <time>2026-05-19T08:27:56Z</time>
      </trkpt>
      <trkpt lat="43.70906" lon="3.26811">
        <ele>603.3</ele>
        <time>2026-05-19T08:28:01Z</time>
      </trkpt>
      <trkpt lat="43.70904" lon="3.26812">
        <ele>603.2</ele>
        <time>2026-05-19T08:28:06Z</time>
      </trkpt>
      <trkpt lat="43.70898" lon="3.26814">
        <ele>603</ele>
        <time>2026-05-19T08:28:11Z</time>
      </trkpt>
      <trkpt lat="43.70891" lon="3.26815">
        <ele>602.9</ele>
        <time>2026-05-19T08:28:16Z</time>
      </trkpt>
      <trkpt lat="43.70885" lon="3.26815">
        <ele>602.9</ele>
        <time>2026-05-19T08:28:21Z</time>
      </trkpt>
      <trkpt lat="43.70878" lon="3.26816">
        <ele>602.9</ele>
        <time>2026-05-19T08:28:26Z</time>
      </trkpt>
      <trkpt lat="43.70872" lon="3.26816">
        <ele>602.9</ele>
        <time>2026-05-19T08:28:31Z</time>
      </trkpt>
      <trkpt lat="43.70865" lon="3.26817">
        <ele>602.9</ele>
        <time>2026-05-19T08:28:36Z</time>
      </trkpt>
      <trkpt lat="43.70858" lon="3.26817">
        <ele>602.9</ele>
        <time>2026-05-19T08:28:41Z</time>
      </trkpt>
      <trkpt lat="43.70852" lon="3.26819">
        <ele>602.7</ele>
        <time>2026-05-19T08:28:46Z</time>
      </trkpt>
      <trkpt lat="43.70846" lon="3.26819">
        <ele>602.8</ele>
        <time>2026-05-19T08:28:51Z</time>
      </trkpt>
      <trkpt lat="43.7084" lon="3.26819">
        <ele>602.8</ele>
        <time>2026-05-19T08:28:56Z</time>
      </trkpt>
      <trkpt lat="43.70835" lon="3.26819">
        <ele>602.9</ele>
        <time>2026-05-19T08:29:01Z</time>
      </trkpt>
      <trkpt lat="43.70829" lon="3.2682">
        <ele>601.8</ele>
        <time>2026-05-19T08:29:06Z</time>
      </trkpt>
      <trkpt lat="43.70823" lon="3.26821">
        <ele>600.2</ele>
        <time>2026-05-19T08:29:11Z</time>
      </trkpt>
      <trkpt lat="43.70817" lon="3.26821">
        <ele>598.8</ele>
        <time>2026-05-19T08:29:16Z</time>
      </trkpt>
      <trkpt lat="43.70811" lon="3.26822">
        <ele>597.3</ele>
        <time>2026-05-19T08:29:21Z</time>
      </trkpt>
      <trkpt lat="43.70806" lon="3.26823">
        <ele>596</ele>
        <time>2026-05-19T08:29:26Z</time>
      </trkpt>
      <trkpt lat="43.708" lon="3.26824">
        <ele>594.4</ele>
        <time>2026-05-19T08:29:31Z</time>
      </trkpt>
      <trkpt lat="43.70795" lon="3.26823">
        <ele>593.4</ele>
        <time>2026-05-19T08:29:36Z</time>
      </trkpt>
      <trkpt lat="43.7079" lon="3.26822">
        <ele>592.4</ele>
        <time>2026-05-19T08:29:41Z</time>
      </trkpt>
      <trkpt lat="43.70785" lon="3.26821">
        <ele>591.4</ele>
        <time>2026-05-19T08:29:46Z</time>
      </trkpt>
      <trkpt lat="43.7078" lon="3.2682">
        <ele>590.4</ele>
        <time>2026-05-19T08:29:51Z</time>
      </trkpt>
      <trkpt lat="43.70777" lon="3.26819">
        <ele>589.8</ele>
        <time>2026-05-19T08:29:56Z</time>
      </trkpt>
      <trkpt lat="43.70772" lon="3.26818">
        <ele>588.8</ele>
        <time>2026-05-19T08:30:01Z</time>
      </trkpt>
      <trkpt lat="43.70766" lon="3.26815">
        <ele>588</ele>
        <time>2026-05-19T08:30:06Z</time>
      </trkpt>
      <trkpt lat="43.7076" lon="3.26811">
        <ele>587.3</ele>
        <time>2026-05-19T08:30:11Z</time>
      </trkpt>
      <trkpt lat="43.70757" lon="3.26807">
        <ele>587.3</ele>
        <time>2026-05-19T08:30:16Z</time>
      </trkpt>
      <trkpt lat="43.70757" lon="3.26807">
        <ele>587.3</ele>
        <time>2026-05-19T08:30:21Z</time>
      </trkpt>
      <trkpt lat="43.70757" lon="3.26807">
        <ele>587.3</ele>
        <time>2026-05-19T08:30:26Z</time>
      </trkpt>
      <trkpt lat="43.70757" lon="3.26807">
        <ele>587.3</ele>
        <time>2026-05-19T08:30:31Z</time>
      </trkpt>
      <trkpt lat="43.70752" lon="3.26805">
        <ele>586.5</ele>
        <time>2026-05-19T08:30:36Z</time>
      </trkpt>
      <trkpt lat="43.70748" lon="3.26799">
        <ele>586.9</ele>
        <time>2026-05-19T08:30:41Z</time>
      </trkpt>
      <trkpt lat="43.70744" lon="3.26793">
        <ele>587.5</ele>
        <time>2026-05-19T08:30:46Z</time>
      </trkpt>
      <trkpt lat="43.7074" lon="3.26786">
        <ele>588.2</ele>
        <time>2026-05-19T08:30:51Z</time>
      </trkpt>
      <trkpt lat="43.70736" lon="3.26779">
        <ele>588.9</ele>
        <time>2026-05-19T08:30:56Z</time>
      </trkpt>
      <trkpt lat="43.70732" lon="3.26772">
        <ele>589.6</ele>
        <time>2026-05-19T08:31:01Z</time>
      </trkpt>
      <trkpt lat="43.70728" lon="3.26765">
        <ele>590.3</ele>
        <time>2026-05-19T08:31:06Z</time>
      </trkpt>
      <trkpt lat="43.70724" lon="3.26758">
        <ele>590.9</ele>
        <time>2026-05-19T08:31:11Z</time>
      </trkpt>
      <trkpt lat="43.7072" lon="3.2675">
        <ele>591.7</ele>
        <time>2026-05-19T08:31:16Z</time>
      </trkpt>
      <trkpt lat="43.70716" lon="3.26743">
        <ele>592.2</ele>
        <time>2026-05-19T08:31:21Z</time>
      </trkpt>
      <trkpt lat="43.70711" lon="3.26736">
        <ele>592.6</ele>
        <time>2026-05-19T08:31:26Z</time>
      </trkpt>
      <trkpt lat="43.70707" lon="3.26729">
        <ele>593.2</ele>
        <time>2026-05-19T08:31:31Z</time>
      </trkpt>
      <trkpt lat="43.70702" lon="3.26722">
        <ele>593.6</ele>
        <time>2026-05-19T08:31:36Z</time>
      </trkpt>
      <trkpt lat="43.70697" lon="3.26717">
        <ele>593.8</ele>
        <time>2026-05-19T08:31:41Z</time>
      </trkpt>
      <trkpt lat="43.70692" lon="3.26711">
        <ele>594.1</ele>
        <time>2026-05-19T08:31:46Z</time>
      </trkpt>
      <trkpt lat="43.70686" lon="3.26706">
        <ele>594.1</ele>
        <time>2026-05-19T08:31:51Z</time>
      </trkpt>
      <trkpt lat="43.7068" lon="3.26699">
        <ele>594.4</ele>
        <time>2026-05-19T08:31:56Z</time>
      </trkpt>
      <trkpt lat="43.70675" lon="3.26692">
        <ele>594.9</ele>
        <time>2026-05-19T08:32:01Z</time>
      </trkpt>
      <trkpt lat="43.7067" lon="3.26685">
        <ele>595.4</ele>
        <time>2026-05-19T08:32:06Z</time>
      </trkpt>
      <trkpt lat="43.70664" lon="3.26678">
        <ele>596.2</ele>
        <time>2026-05-19T08:32:11Z</time>
      </trkpt>
      <trkpt lat="43.70659" lon="3.26668">
        <ele>598</ele>
        <time>2026-05-19T08:32:16Z</time>
      </trkpt>
      <trkpt lat="43.70656" lon="3.26659">
        <ele>599.9</ele>
        <time>2026-05-19T08:32:21Z</time>
      </trkpt>
      <trkpt lat="43.70654" lon="3.26651">
        <ele>601.6</ele>
        <time>2026-05-19T08:32:26Z</time>
      </trkpt>
      <trkpt lat="43.70651" lon="3.26643">
        <ele>603.3</ele>
        <time>2026-05-19T08:32:31Z</time>
      </trkpt>
      <trkpt lat="43.70649" lon="3.26635">
        <ele>604.9</ele>
        <time>2026-05-19T08:32:36Z</time>
      </trkpt>
      <trkpt lat="43.70645" lon="3.26626">
        <ele>606.7</ele>
        <time>2026-05-19T08:32:41Z</time>
      </trkpt>
      <trkpt lat="43.70642" lon="3.26617">
        <ele>608.3</ele>
        <time>2026-05-19T08:32:46Z</time>
      </trkpt>
      <trkpt lat="43.70639" lon="3.26609">
        <ele>609.7</ele>
        <time>2026-05-19T08:32:51Z</time>
      </trkpt>
      <trkpt lat="43.70635" lon="3.26602">
        <ele>610.9</ele>
        <time>2026-05-19T08:32:56Z</time>
      </trkpt>
      <trkpt lat="43.70632" lon="3.26598">
        <ele>611.4</ele>
        <time>2026-05-19T08:33:01Z</time>
      </trkpt>
      <trkpt lat="43.70629" lon="3.26594">
        <ele>611.9</ele>
        <time>2026-05-19T08:33:06Z</time>
      </trkpt>
      <trkpt lat="43.70625" lon="3.2659">
        <ele>612.3</ele>
        <time>2026-05-19T08:33:11Z</time>
      </trkpt>
      <trkpt lat="43.7062" lon="3.26586">
        <ele>612.6</ele>
        <time>2026-05-19T08:33:16Z</time>
      </trkpt>
      <trkpt lat="43.70616" lon="3.26583">
        <ele>612.8</ele>
        <time>2026-05-19T08:33:21Z</time>
      </trkpt>
      <trkpt lat="43.70611" lon="3.2658">
        <ele>612.9</ele>
        <time>2026-05-19T08:33:26Z</time>
      </trkpt>
      <trkpt lat="43.70605" lon="3.26579">
        <ele>612.5</ele>
        <time>2026-05-19T08:33:31Z</time>
      </trkpt>
      <trkpt lat="43.70599" lon="3.26577">
        <ele>612.2</ele>
        <time>2026-05-19T08:33:36Z</time>
      </trkpt>
      <trkpt lat="43.70593" lon="3.26576">
        <ele>611.8</ele>
        <time>2026-05-19T08:33:41Z</time>
      </trkpt>
      <trkpt lat="43.70587" lon="3.26576">
        <ele>611.2</ele>
        <time>2026-05-19T08:33:46Z</time>
      </trkpt>
      <trkpt lat="43.70582" lon="3.26576">
        <ele>610.5</ele>
        <time>2026-05-19T08:33:51Z</time>
      </trkpt>
      <trkpt lat="43.70576" lon="3.26575">
        <ele>608.8</ele>
        <time>2026-05-19T08:33:56Z</time>
      </trkpt>
      <trkpt lat="43.7057" lon="3.26575">
        <ele>607</ele>
        <time>2026-05-19T08:34:01Z</time>
      </trkpt>
      <trkpt lat="43.70564" lon="3.26571">
        <ele>605.6</ele>
        <time>2026-05-19T08:34:06Z</time>
      </trkpt>
      <trkpt lat="43.7056" lon="3.26567">
        <ele>604.9</ele>
        <time>2026-05-19T08:34:11Z</time>
      </trkpt>
      <trkpt lat="43.70556" lon="3.26565">
        <ele>603.9</ele>
        <time>2026-05-19T08:34:16Z</time>
      </trkpt>
      <trkpt lat="43.70552" lon="3.26563">
        <ele>602.9</ele>
        <time>2026-05-19T08:34:21Z</time>
      </trkpt>
      <trkpt lat="43.70545" lon="3.26561">
        <ele>600.9</ele>
        <time>2026-05-19T08:34:26Z</time>
      </trkpt>
      <trkpt lat="43.7054" lon="3.26558">
        <ele>599.7</ele>
        <time>2026-05-19T08:34:31Z</time>
      </trkpt>
      <trkpt lat="43.70536" lon="3.26554">
        <ele>598.9</ele>
        <time>2026-05-19T08:34:36Z</time>
      </trkpt>
      <trkpt lat="43.70531" lon="3.26548">
        <ele>598</ele>
        <time>2026-05-19T08:34:41Z</time>
      </trkpt>
      <trkpt lat="43.70527" lon="3.2654">
        <ele>597.6</ele>
        <time>2026-05-19T08:34:46Z</time>
      </trkpt>
      <trkpt lat="43.70522" lon="3.26534">
        <ele>596.6</ele>
        <time>2026-05-19T08:34:51Z</time>
      </trkpt>
      <trkpt lat="43.70518" lon="3.26524">
        <ele>596.4</ele>
        <time>2026-05-19T08:34:56Z</time>
      </trkpt>
      <trkpt lat="43.70515" lon="3.26516">
        <ele>596.3</ele>
        <time>2026-05-19T08:35:01Z</time>
      </trkpt>
      <trkpt lat="43.70511" lon="3.26508">
        <ele>595.8</ele>
        <time>2026-05-19T08:35:06Z</time>
      </trkpt>
      <trkpt lat="43.70507" lon="3.265">
        <ele>595.3</ele>
        <time>2026-05-19T08:35:11Z</time>
      </trkpt>
      <trkpt lat="43.70503" lon="3.26492">
        <ele>594.6</ele>
        <time>2026-05-19T08:35:16Z</time>
      </trkpt>
      <trkpt lat="43.705" lon="3.26484">
        <ele>594.3</ele>
        <time>2026-05-19T08:35:21Z</time>
      </trkpt>
      <trkpt lat="43.70497" lon="3.26474">
        <ele>594.4</ele>
        <time>2026-05-19T08:35:26Z</time>
      </trkpt>
      <trkpt lat="43.70495" lon="3.26465">
        <ele>594.7</ele>
        <time>2026-05-19T08:35:31Z</time>
      </trkpt>
      <trkpt lat="43.70493" lon="3.26457">
        <ele>594.9</ele>
        <time>2026-05-19T08:35:36Z</time>
      </trkpt>
      <trkpt lat="43.70491" lon="3.26448">
        <ele>595.3</ele>
        <time>2026-05-19T08:35:41Z</time>
      </trkpt>
      <trkpt lat="43.70488" lon="3.26438">
        <ele>595.6</ele>
        <time>2026-05-19T08:35:46Z</time>
      </trkpt>
      <trkpt lat="43.70486" lon="3.26427">
        <ele>596.3</ele>
        <time>2026-05-19T08:35:51Z</time>
      </trkpt>
      <trkpt lat="43.70484" lon="3.26418">
        <ele>596.8</ele>
        <time>2026-05-19T08:35:56Z</time>
      </trkpt>
      <trkpt lat="43.7048" lon="3.26409">
        <ele>597.4</ele>
        <time>2026-05-19T08:36:01Z</time>
      </trkpt>
      <trkpt lat="43.70479" lon="3.26398">
        <ele>598.9</ele>
        <time>2026-05-19T08:36:06Z</time>
      </trkpt>
      <trkpt lat="43.70477" lon="3.26389">
        <ele>600</ele>
        <time>2026-05-19T08:36:11Z</time>
      </trkpt>
      <trkpt lat="43.70475" lon="3.26381">
        <ele>601</ele>
        <time>2026-05-19T08:36:16Z</time>
      </trkpt>
      <trkpt lat="43.70473" lon="3.26371">
        <ele>602.3</ele>
        <time>2026-05-19T08:36:21Z</time>
      </trkpt>
      <trkpt lat="43.7047" lon="3.26363">
        <ele>603.1</ele>
        <time>2026-05-19T08:36:26Z</time>
      </trkpt>
      <trkpt lat="43.70466" lon="3.26354">
        <ele>604</ele>
        <time>2026-05-19T08:36:31Z</time>
      </trkpt>
      <trkpt lat="43.70463" lon="3.26345">
        <ele>605.1</ele>
        <time>2026-05-19T08:36:36Z</time>
      </trkpt>
      <trkpt lat="43.7046" lon="3.26336">
        <ele>606.3</ele>
        <time>2026-05-19T08:36:41Z</time>
      </trkpt>
      <trkpt lat="43.70457" lon="3.26328">
        <ele>607.2</ele>
        <time>2026-05-19T08:36:46Z</time>
      </trkpt>
      <trkpt lat="43.70456" lon="3.26319">
        <ele>608.6</ele>
        <time>2026-05-19T08:36:51Z</time>
      </trkpt>
      <trkpt lat="43.70453" lon="3.2631">
        <ele>609.8</ele>
        <time>2026-05-19T08:36:56Z</time>
      </trkpt>
      <trkpt lat="43.70451" lon="3.26301">
        <ele>611.2</ele>
        <time>2026-05-19T08:37:01Z</time>
      </trkpt>
      <trkpt lat="43.70449" lon="3.26293">
        <ele>612.4</ele>
        <time>2026-05-19T08:37:06Z</time>
      </trkpt>
      <trkpt lat="43.70446" lon="3.26285">
        <ele>613.5</ele>
        <time>2026-05-19T08:37:11Z</time>
      </trkpt>
      <trkpt lat="43.70444" lon="3.26276">
        <ele>615</ele>
        <time>2026-05-19T08:37:16Z</time>
      </trkpt>
      <trkpt lat="43.70442" lon="3.26267">
        <ele>616.4</ele>
        <time>2026-05-19T08:37:21Z</time>
      </trkpt>
      <trkpt lat="43.70441" lon="3.2626">
        <ele>617.6</ele>
        <time>2026-05-19T08:37:26Z</time>
      </trkpt>
      <trkpt lat="43.70437" lon="3.26251">
        <ele>619</ele>
        <time>2026-05-19T08:37:31Z</time>
      </trkpt>
      <trkpt lat="43.70436" lon="3.26242">
        <ele>620.3</ele>
        <time>2026-05-19T08:37:36Z</time>
      </trkpt>
      <trkpt lat="43.70433" lon="3.26233">
        <ele>621.6</ele>
        <time>2026-05-19T08:37:41Z</time>
      </trkpt>
      <trkpt lat="43.70432" lon="3.26225">
        <ele>622.7</ele>
        <time>2026-05-19T08:37:46Z</time>
      </trkpt>
      <trkpt lat="43.70429" lon="3.26221">
        <ele>623.3</ele>
        <time>2026-05-19T08:37:51Z</time>
      </trkpt>
      <trkpt lat="43.70427" lon="3.26211">
        <ele>624.8</ele>
        <time>2026-05-19T08:37:56Z</time>
      </trkpt>
      <trkpt lat="43.70425" lon="3.26203">
        <ele>626</ele>
        <time>2026-05-19T08:38:01Z</time>
      </trkpt>
      <trkpt lat="43.70422" lon="3.26194">
        <ele>627.4</ele>
        <time>2026-05-19T08:38:06Z</time>
      </trkpt>
      <trkpt lat="43.70419" lon="3.26186">
        <ele>628.7</ele>
        <time>2026-05-19T08:38:11Z</time>
      </trkpt>
      <trkpt lat="43.70417" lon="3.26178">
        <ele>630.1</ele>
        <time>2026-05-19T08:38:16Z</time>
      </trkpt>
      <trkpt lat="43.70413" lon="3.2617">
        <ele>631.8</ele>
        <time>2026-05-19T08:38:21Z</time>
      </trkpt>
      <trkpt lat="43.70411" lon="3.26161">
        <ele>632.8</ele>
        <time>2026-05-19T08:38:26Z</time>
      </trkpt>
      <trkpt lat="43.70408" lon="3.26153">
        <ele>633.4</ele>
        <time>2026-05-19T08:38:31Z</time>
      </trkpt>
      <trkpt lat="43.70405" lon="3.26144">
        <ele>634</ele>
        <time>2026-05-19T08:38:36Z</time>
      </trkpt>
      <trkpt lat="43.70403" lon="3.26137">
        <ele>634.4</ele>
        <time>2026-05-19T08:38:41Z</time>
      </trkpt>
      <trkpt lat="43.704" lon="3.26129">
        <ele>634.9</ele>
        <time>2026-05-19T08:38:46Z</time>
      </trkpt>
      <trkpt lat="43.70394" lon="3.26123">
        <ele>635.4</ele>
        <time>2026-05-19T08:38:51Z</time>
      </trkpt>
      <trkpt lat="43.70388" lon="3.26119">
        <ele>635.9</ele>
        <time>2026-05-19T08:38:56Z</time>
      </trkpt>
      <trkpt lat="43.70381" lon="3.26115">
        <ele>636.3</ele>
        <time>2026-05-19T08:39:01Z</time>
      </trkpt>
      <trkpt lat="43.70376" lon="3.26113">
        <ele>636.6</ele>
        <time>2026-05-19T08:39:06Z</time>
      </trkpt>
      <trkpt lat="43.70369" lon="3.26111">
        <ele>637</ele>
        <time>2026-05-19T08:39:11Z</time>
      </trkpt>
      <trkpt lat="43.70362" lon="3.26109">
        <ele>637.3</ele>
        <time>2026-05-19T08:39:16Z</time>
      </trkpt>
      <trkpt lat="43.70355" lon="3.26106">
        <ele>637.6</ele>
        <time>2026-05-19T08:39:21Z</time>
      </trkpt>
      <trkpt lat="43.70347" lon="3.261">
        <ele>637.9</ele>
        <time>2026-05-19T08:39:26Z</time>
      </trkpt>
      <trkpt lat="43.7034" lon="3.26094">
        <ele>638</ele>
        <time>2026-05-19T08:39:31Z</time>
      </trkpt>
      <trkpt lat="43.70333" lon="3.2609">
        <ele>638.2</ele>
        <time>2026-05-19T08:39:36Z</time>
      </trkpt>
      <trkpt lat="43.70326" lon="3.26087">
        <ele>638</ele>
        <time>2026-05-19T08:39:41Z</time>
      </trkpt>
      <trkpt lat="43.70319" lon="3.26082">
        <ele>637.6</ele>
        <time>2026-05-19T08:39:46Z</time>
      </trkpt>
      <trkpt lat="43.70314" lon="3.26078">
        <ele>636.7</ele>
        <time>2026-05-19T08:39:51Z</time>
      </trkpt>
      <trkpt lat="43.70308" lon="3.2607">
        <ele>635</ele>
        <time>2026-05-19T08:39:56Z</time>
      </trkpt>
      <trkpt lat="43.70302" lon="3.26063">
        <ele>633.3</ele>
        <time>2026-05-19T08:40:01Z</time>
      </trkpt>
      <trkpt lat="43.70297" lon="3.26056">
        <ele>631.6</ele>
        <time>2026-05-19T08:40:06Z</time>
      </trkpt>
      <trkpt lat="43.70292" lon="3.26051">
        <ele>630.3</ele>
        <time>2026-05-19T08:40:11Z</time>
      </trkpt>
      <trkpt lat="43.70287" lon="3.26045">
        <ele>628.8</ele>
        <time>2026-05-19T08:40:16Z</time>
      </trkpt>
      <trkpt lat="43.70281" lon="3.2604">
        <ele>627.3</ele>
        <time>2026-05-19T08:40:21Z</time>
      </trkpt>
      <trkpt lat="43.70276" lon="3.26034">
        <ele>625.6</ele>
        <time>2026-05-19T08:40:26Z</time>
      </trkpt>
      <trkpt lat="43.70271" lon="3.26026">
        <ele>623.3</ele>
        <time>2026-05-19T08:40:31Z</time>
      </trkpt>
      <trkpt lat="43.70265" lon="3.26021">
        <ele>621.7</ele>
        <time>2026-05-19T08:40:36Z</time>
      </trkpt>
      <trkpt lat="43.70259" lon="3.26019">
        <ele>620.7</ele>
        <time>2026-05-19T08:40:41Z</time>
      </trkpt>
      <trkpt lat="43.70251" lon="3.26019">
        <ele>620.1</ele>
        <time>2026-05-19T08:40:46Z</time>
      </trkpt>
      <trkpt lat="43.70245" lon="3.2602">
        <ele>620.3</ele>
        <time>2026-05-19T08:40:51Z</time>
      </trkpt>
      <trkpt lat="43.7024" lon="3.26021">
        <ele>620.5</ele>
        <time>2026-05-19T08:40:56Z</time>
      </trkpt>
      <trkpt lat="43.70235" lon="3.26021">
        <ele>620.5</ele>
        <time>2026-05-19T08:41:01Z</time>
      </trkpt>
      <trkpt lat="43.70225" lon="3.26019">
        <ele>620</ele>
        <time>2026-05-19T08:41:06Z</time>
      </trkpt>
      <trkpt lat="43.70217" lon="3.26018">
        <ele>619.8</ele>
        <time>2026-05-19T08:41:11Z</time>
      </trkpt>
      <trkpt lat="43.70213" lon="3.26016">
        <ele>619.2</ele>
        <time>2026-05-19T08:41:16Z</time>
      </trkpt>
      <trkpt lat="43.70214" lon="3.26013">
        <ele>618.4</ele>
        <time>2026-05-19T08:41:21Z</time>
      </trkpt>
      <trkpt lat="43.70214" lon="3.26012">
        <ele>618.2</ele>
        <time>2026-05-19T08:41:26Z</time>
      </trkpt>
      <trkpt lat="43.70214" lon="3.26012">
        <ele>618.2</ele>
        <time>2026-05-19T08:41:31Z</time>
      </trkpt>
      <trkpt lat="43.70214" lon="3.26012">
        <ele>618.2</ele>
        <time>2026-05-19T08:41:36Z</time>
      </trkpt>
      <trkpt lat="43.70214" lon="3.26012">
        <ele>618.2</ele>
        <time>2026-05-19T08:41:41Z</time>
      </trkpt>
      <trkpt lat="43.70213" lon="3.26011">
        <ele>617.9</ele>
        <time>2026-05-19T08:41:46Z</time>
      </trkpt>
      <trkpt lat="43.70209" lon="3.26014">
        <ele>618.7</ele>
        <time>2026-05-19T08:41:51Z</time>
      </trkpt>
      <trkpt lat="43.70203" lon="3.26012">
        <ele>618.2</ele>
        <time>2026-05-19T08:41:56Z</time>
      </trkpt>
      <trkpt lat="43.70197" lon="3.26011">
        <ele>617.9</ele>
        <time>2026-05-19T08:42:01Z</time>
      </trkpt>
      <trkpt lat="43.70193" lon="3.26011">
        <ele>617.9</ele>
        <time>2026-05-19T08:42:06Z</time>
      </trkpt>
      <trkpt lat="43.70188" lon="3.2601">
        <ele>617.6</ele>
        <time>2026-05-19T08:42:11Z</time>
      </trkpt>
      <trkpt lat="43.70183" lon="3.26009">
        <ele>617.4</ele>
        <time>2026-05-19T08:42:16Z</time>
      </trkpt>
      <trkpt lat="43.70177" lon="3.26009">
        <ele>617.4</ele>
        <time>2026-05-19T08:42:21Z</time>
      </trkpt>
      <trkpt lat="43.7017" lon="3.26008">
        <ele>617.1</ele>
        <time>2026-05-19T08:42:26Z</time>
      </trkpt>
      <trkpt lat="43.70164" lon="3.26006">
        <ele>616.7</ele>
        <time>2026-05-19T08:42:31Z</time>
      </trkpt>
      <trkpt lat="43.70158" lon="3.26005">
        <ele>616.6</ele>
        <time>2026-05-19T08:42:36Z</time>
      </trkpt>
      <trkpt lat="43.70152" lon="3.26001">
        <ele>615.8</ele>
        <time>2026-05-19T08:42:41Z</time>
      </trkpt>
      <trkpt lat="43.70147" lon="3.25999">
        <ele>615.5</ele>
        <time>2026-05-19T08:42:46Z</time>
      </trkpt>
      <trkpt lat="43.70139" lon="3.25998">
        <ele>615.7</ele>
        <time>2026-05-19T08:42:51Z</time>
      </trkpt>
      <trkpt lat="43.70132" lon="3.25996">
        <ele>615.6</ele>
        <time>2026-05-19T08:42:56Z</time>
      </trkpt>
      <trkpt lat="43.70125" lon="3.25995">
        <ele>615.8</ele>
        <time>2026-05-19T08:43:01Z</time>
      </trkpt>
      <trkpt lat="43.70118" lon="3.25993">
        <ele>615.7</ele>
        <time>2026-05-19T08:43:06Z</time>
      </trkpt>
      <trkpt lat="43.70112" lon="3.2599">
        <ele>615.5</ele>
        <time>2026-05-19T08:43:11Z</time>
      </trkpt>
      <trkpt lat="43.70104" lon="3.25985">
        <ele>615.1</ele>
        <time>2026-05-19T08:43:16Z</time>
      </trkpt>
      <trkpt lat="43.70096" lon="3.25981">
        <ele>614.9</ele>
        <time>2026-05-19T08:43:21Z</time>
      </trkpt>
      <trkpt lat="43.70089" lon="3.25977">
        <ele>614.7</ele>
        <time>2026-05-19T08:43:26Z</time>
      </trkpt>
      <trkpt lat="43.70082" lon="3.25974">
        <ele>614.6</ele>
        <time>2026-05-19T08:43:31Z</time>
      </trkpt>
      <trkpt lat="43.70075" lon="3.2597">
        <ele>614.3</ele>
        <time>2026-05-19T08:43:36Z</time>
      </trkpt>
      <trkpt lat="43.70067" lon="3.25966">
        <ele>614.1</ele>
        <time>2026-05-19T08:43:41Z</time>
      </trkpt>
      <trkpt lat="43.70061" lon="3.25962">
        <ele>613.9</ele>
        <time>2026-05-19T08:43:46Z</time>
      </trkpt>
      <trkpt lat="43.70055" lon="3.25959">
        <ele>613.8</ele>
        <time>2026-05-19T08:43:51Z</time>
      </trkpt>
      <trkpt lat="43.70048" lon="3.25955">
        <ele>613.6</ele>
        <time>2026-05-19T08:43:56Z</time>
      </trkpt>
      <trkpt lat="43.70042" lon="3.2595">
        <ele>613.4</ele>
        <time>2026-05-19T08:44:01Z</time>
      </trkpt>
      <trkpt lat="43.70036" lon="3.25945">
        <ele>613.2</ele>
        <time>2026-05-19T08:44:06Z</time>
      </trkpt>
      <trkpt lat="43.70031" lon="3.25939">
        <ele>612.9</ele>
        <time>2026-05-19T08:44:11Z</time>
      </trkpt>
      <trkpt lat="43.70028" lon="3.25932">
        <ele>612.4</ele>
        <time>2026-05-19T08:44:16Z</time>
      </trkpt>
      <trkpt lat="43.70024" lon="3.25925">
        <ele>612</ele>
        <time>2026-05-19T08:44:21Z</time>
      </trkpt>
      <trkpt lat="43.70019" lon="3.25913">
        <ele>611.4</ele>
        <time>2026-05-19T08:44:26Z</time>
      </trkpt>
      <trkpt lat="43.70016" lon="3.25903">
        <ele>611.1</ele>
        <time>2026-05-19T08:44:31Z</time>
      </trkpt>
      <trkpt lat="43.70014" lon="3.25894">
        <ele>610.9</ele>
        <time>2026-05-19T08:44:36Z</time>
      </trkpt>
      <trkpt lat="43.70012" lon="3.25885">
        <ele>610.6</ele>
        <time>2026-05-19T08:44:41Z</time>
      </trkpt>
      <trkpt lat="43.70008" lon="3.25877">
        <ele>610.7</ele>
        <time>2026-05-19T08:44:46Z</time>
      </trkpt>
      <trkpt lat="43.70004" lon="3.2587">
        <ele>610.8</ele>
        <time>2026-05-19T08:44:51Z</time>
      </trkpt>
      <trkpt lat="43.7" lon="3.25863">
        <ele>611.1</ele>
        <time>2026-05-19T08:44:56Z</time>
      </trkpt>
      <trkpt lat="43.69994" lon="3.25857">
        <ele>611.2</ele>
        <time>2026-05-19T08:45:01Z</time>
      </trkpt>
      <trkpt lat="43.6999" lon="3.25851">
        <ele>611.3</ele>
        <time>2026-05-19T08:45:06Z</time>
      </trkpt>
      <trkpt lat="43.69984" lon="3.25845">
        <ele>611.5</ele>
        <time>2026-05-19T08:45:11Z</time>
      </trkpt>
      <trkpt lat="43.69978" lon="3.25839">
        <ele>611.8</ele>
        <time>2026-05-19T08:45:16Z</time>
      </trkpt>
      <trkpt lat="43.69972" lon="3.25833">
        <ele>612</ele>
        <time>2026-05-19T08:45:21Z</time>
      </trkpt>
      <trkpt lat="43.69967" lon="3.25827">
        <ele>612.1</ele>
        <time>2026-05-19T08:45:26Z</time>
      </trkpt>
      <trkpt lat="43.69961" lon="3.25822">
        <ele>612.3</ele>
        <time>2026-05-19T08:45:31Z</time>
      </trkpt>
      <trkpt lat="43.69956" lon="3.25817">
        <ele>612.5</ele>
        <time>2026-05-19T08:45:36Z</time>
      </trkpt>
      <trkpt lat="43.6995" lon="3.25811">
        <ele>612.8</ele>
        <time>2026-05-19T08:45:41Z</time>
      </trkpt>
      <trkpt lat="43.69945" lon="3.25805">
        <ele>613</ele>
        <time>2026-05-19T08:45:46Z</time>
      </trkpt>
      <trkpt lat="43.6994" lon="3.258">
        <ele>613.4</ele>
        <time>2026-05-19T08:45:51Z</time>
      </trkpt>
      <trkpt lat="43.69935" lon="3.25794">
        <ele>613.7</ele>
        <time>2026-05-19T08:45:56Z</time>
      </trkpt>
      <trkpt lat="43.69933" lon="3.25791">
        <ele>613.8</ele>
        <time>2026-05-19T08:46:01Z</time>
      </trkpt>
      <trkpt lat="43.69934" lon="3.25789">
        <ele>613.7</ele>
        <time>2026-05-19T08:46:06Z</time>
      </trkpt>
      <trkpt lat="43.69934" lon="3.25789">
        <ele>613.7</ele>
        <time>2026-05-19T08:46:11Z</time>
      </trkpt>
      <trkpt lat="43.69932" lon="3.25785">
        <ele>613.8</ele>
        <time>2026-05-19T08:46:16Z</time>
      </trkpt>
      <trkpt lat="43.69926" lon="3.2578">
        <ele>614.3</ele>
        <time>2026-05-19T08:46:21Z</time>
      </trkpt>
      <trkpt lat="43.69921" lon="3.25775">
        <ele>614.8</ele>
        <time>2026-05-19T08:46:26Z</time>
      </trkpt>
      <trkpt lat="43.69915" lon="3.25769">
        <ele>615.4</ele>
        <time>2026-05-19T08:46:31Z</time>
      </trkpt>
      <trkpt lat="43.6991" lon="3.25764">
        <ele>615.7</ele>
        <time>2026-05-19T08:46:36Z</time>
      </trkpt>
      <trkpt lat="43.69905" lon="3.25757">
        <ele>616</ele>
        <time>2026-05-19T08:46:41Z</time>
      </trkpt>
      <trkpt lat="43.699" lon="3.25751">
        <ele>616.2</ele>
        <time>2026-05-19T08:46:46Z</time>
      </trkpt>
      <trkpt lat="43.69897" lon="3.25742">
        <ele>615.9</ele>
        <time>2026-05-19T08:46:51Z</time>
      </trkpt>
      <trkpt lat="43.69893" lon="3.25733">
        <ele>615.7</ele>
        <time>2026-05-19T08:46:56Z</time>
      </trkpt>
      <trkpt lat="43.69889" lon="3.25723">
        <ele>615.5</ele>
        <time>2026-05-19T08:47:01Z</time>
      </trkpt>
      <trkpt lat="43.69886" lon="3.25713">
        <ele>615.2</ele>
        <time>2026-05-19T08:47:06Z</time>
      </trkpt>
      <trkpt lat="43.69884" lon="3.25704">
        <ele>614.9</ele>
        <time>2026-05-19T08:47:11Z</time>
      </trkpt>
      <trkpt lat="43.69881" lon="3.25695">
        <ele>614.7</ele>
        <time>2026-05-19T08:47:16Z</time>
      </trkpt>
      <trkpt lat="43.69878" lon="3.25685">
        <ele>614.6</ele>
        <time>2026-05-19T08:47:21Z</time>
      </trkpt>
      <trkpt lat="43.69874" lon="3.25676">
        <ele>614.6</ele>
        <time>2026-05-19T08:47:26Z</time>
      </trkpt>
      <trkpt lat="43.6987" lon="3.25667">
        <ele>614.6</ele>
        <time>2026-05-19T08:47:31Z</time>
      </trkpt>
      <trkpt lat="43.69866" lon="3.25658">
        <ele>614.6</ele>
        <time>2026-05-19T08:47:36Z</time>
      </trkpt>
      <trkpt lat="43.69863" lon="3.25649">
        <ele>614.4</ele>
        <time>2026-05-19T08:47:41Z</time>
      </trkpt>
      <trkpt lat="43.69859" lon="3.2564">
        <ele>614.3</ele>
        <time>2026-05-19T08:47:46Z</time>
      </trkpt>
      <trkpt lat="43.69853" lon="3.25632">
        <ele>614.6</ele>
        <time>2026-05-19T08:47:51Z</time>
      </trkpt>
      <trkpt lat="43.6985" lon="3.25622">
        <ele>614.3</ele>
        <time>2026-05-19T08:47:56Z</time>
      </trkpt>
      <trkpt lat="43.69846" lon="3.25613">
        <ele>614.3</ele>
        <time>2026-05-19T08:48:01Z</time>
      </trkpt>
      <trkpt lat="43.69842" lon="3.25603">
        <ele>614.1</ele>
        <time>2026-05-19T08:48:06Z</time>
      </trkpt>
      <trkpt lat="43.69838" lon="3.25594">
        <ele>614.1</ele>
        <time>2026-05-19T08:48:11Z</time>
      </trkpt>
      <trkpt lat="43.69834" lon="3.25585">
        <ele>614</ele>
        <time>2026-05-19T08:48:16Z</time>
      </trkpt>
      <trkpt lat="43.6983" lon="3.25577">
        <ele>613.7</ele>
        <time>2026-05-19T08:48:21Z</time>
      </trkpt>
      <trkpt lat="43.69825" lon="3.25569">
        <ele>613.5</ele>
        <time>2026-05-19T08:48:26Z</time>
      </trkpt>
      <trkpt lat="43.6982" lon="3.2556">
        <ele>613.3</ele>
        <time>2026-05-19T08:48:31Z</time>
      </trkpt>
      <trkpt lat="43.69816" lon="3.25552">
        <ele>613.1</ele>
        <time>2026-05-19T08:48:36Z</time>
      </trkpt>
      <trkpt lat="43.69813" lon="3.25545">
        <ele>612.9</ele>
        <time>2026-05-19T08:48:41Z</time>
      </trkpt>
      <trkpt lat="43.69812" lon="3.25543">
        <ele>612.9</ele>
        <time>2026-05-19T08:48:46Z</time>
      </trkpt>
      <trkpt lat="43.69812" lon="3.25542">
        <ele>612.8</ele>
        <time>2026-05-19T08:48:51Z</time>
      </trkpt>
      <trkpt lat="43.69809" lon="3.25534">
        <ele>612.6</ele>
        <time>2026-05-19T08:48:56Z</time>
      </trkpt>
      <trkpt lat="43.69803" lon="3.25527">
        <ele>612.9</ele>
        <time>2026-05-19T08:49:01Z</time>
      </trkpt>
      <trkpt lat="43.69798" lon="3.2552">
        <ele>613.2</ele>
        <time>2026-05-19T08:49:06Z</time>
      </trkpt>
      <trkpt lat="43.69793" lon="3.25512">
        <ele>613.4</ele>
        <time>2026-05-19T08:49:11Z</time>
      </trkpt>
      <trkpt lat="43.6979" lon="3.25503">
        <ele>613.4</ele>
        <time>2026-05-19T08:49:16Z</time>
      </trkpt>
      <trkpt lat="43.69784" lon="3.25496">
        <ele>613.8</ele>
        <time>2026-05-19T08:49:21Z</time>
      </trkpt>
      <trkpt lat="43.69779" lon="3.2549">
        <ele>614.2</ele>
        <time>2026-05-19T08:49:26Z</time>
      </trkpt>
      <trkpt lat="43.69774" lon="3.25483">
        <ele>614.5</ele>
        <time>2026-05-19T08:49:31Z</time>
      </trkpt>
      <trkpt lat="43.69767" lon="3.25477">
        <ele>615.1</ele>
        <time>2026-05-19T08:49:36Z</time>
      </trkpt>
      <trkpt lat="43.6976" lon="3.25471">
        <ele>615.8</ele>
        <time>2026-05-19T08:49:41Z</time>
      </trkpt>
      <trkpt lat="43.69754" lon="3.25467">
        <ele>616.4</ele>
        <time>2026-05-19T08:49:46Z</time>
      </trkpt>
      <trkpt lat="43.69749" lon="3.2546">
        <ele>616.7</ele>
        <time>2026-05-19T08:49:51Z</time>
      </trkpt>
      <trkpt lat="43.69743" lon="3.25454">
        <ele>616.7</ele>
        <time>2026-05-19T08:49:56Z</time>
      </trkpt>
      <trkpt lat="43.69738" lon="3.25448">
        <ele>616.8</ele>
        <time>2026-05-19T08:50:01Z</time>
      </trkpt>
      <trkpt lat="43.69733" lon="3.2544">
        <ele>616.9</ele>
        <time>2026-05-19T08:50:06Z</time>
      </trkpt>
      <trkpt lat="43.69728" lon="3.25435">
        <ele>617.2</ele>
        <time>2026-05-19T08:50:11Z</time>
      </trkpt>
      <trkpt lat="43.69724" lon="3.25429">
        <ele>617.4</ele>
        <time>2026-05-19T08:50:16Z</time>
      </trkpt>
      <trkpt lat="43.69719" lon="3.25422">
        <ele>617.8</ele>
        <time>2026-05-19T08:50:21Z</time>
      </trkpt>
      <trkpt lat="43.69716" lon="3.25416">
        <ele>618</ele>
        <time>2026-05-19T08:50:26Z</time>
      </trkpt>
      <trkpt lat="43.69713" lon="3.25408">
        <ele>617.6</ele>
        <time>2026-05-19T08:50:31Z</time>
      </trkpt>
      <trkpt lat="43.69709" lon="3.25401">
        <ele>617.4</ele>
        <time>2026-05-19T08:50:36Z</time>
      </trkpt>
      <trkpt lat="43.69705" lon="3.25394">
        <ele>617.2</ele>
        <time>2026-05-19T08:50:41Z</time>
      </trkpt>
      <trkpt lat="43.697" lon="3.25388">
        <ele>617.2</ele>
        <time>2026-05-19T08:50:46Z</time>
      </trkpt>
      <trkpt lat="43.69695" lon="3.25382">
        <ele>617.1</ele>
        <time>2026-05-19T08:50:51Z</time>
      </trkpt>
      <trkpt lat="43.69691" lon="3.25375">
        <ele>616.9</ele>
        <time>2026-05-19T08:50:56Z</time>
      </trkpt>
      <trkpt lat="43.69685" lon="3.25371">
        <ele>617.1</ele>
        <time>2026-05-19T08:51:01Z</time>
      </trkpt>
      <trkpt lat="43.6968" lon="3.25367">
        <ele>617.2</ele>
        <time>2026-05-19T08:51:06Z</time>
      </trkpt>
      <trkpt lat="43.69674" lon="3.25363">
        <ele>617.4</ele>
        <time>2026-05-19T08:51:11Z</time>
      </trkpt>
      <trkpt lat="43.69668" lon="3.25358">
        <ele>617.5</ele>
        <time>2026-05-19T08:51:16Z</time>
      </trkpt>
      <trkpt lat="43.69661" lon="3.25353">
        <ele>617.2</ele>
        <time>2026-05-19T08:51:21Z</time>
      </trkpt>
      <trkpt lat="43.69654" lon="3.25347">
        <ele>616.7</ele>
        <time>2026-05-19T08:51:26Z</time>
      </trkpt>
      <trkpt lat="43.69648" lon="3.25341">
        <ele>616.3</ele>
        <time>2026-05-19T08:51:31Z</time>
      </trkpt>
      <trkpt lat="43.69643" lon="3.25337">
        <ele>616.1</ele>
        <time>2026-05-19T08:51:36Z</time>
      </trkpt>
      <trkpt lat="43.69637" lon="3.25332">
        <ele>616</ele>
        <time>2026-05-19T08:51:41Z</time>
      </trkpt>
      <trkpt lat="43.69631" lon="3.25328">
        <ele>615.9</ele>
        <time>2026-05-19T08:51:46Z</time>
      </trkpt>
      <trkpt lat="43.69627" lon="3.25322">
        <ele>615.5</ele>
        <time>2026-05-19T08:51:51Z</time>
      </trkpt>
      <trkpt lat="43.6962" lon="3.25317">
        <ele>615.4</ele>
        <time>2026-05-19T08:51:56Z</time>
      </trkpt>
      <trkpt lat="43.69612" lon="3.25312">
        <ele>615.4</ele>
        <time>2026-05-19T08:52:01Z</time>
      </trkpt>
      <trkpt lat="43.69606" lon="3.25308">
        <ele>615.4</ele>
        <time>2026-05-19T08:52:06Z</time>
      </trkpt>
      <trkpt lat="43.696" lon="3.25303">
        <ele>615.4</ele>
        <time>2026-05-19T08:52:11Z</time>
      </trkpt>
      <trkpt lat="43.69594" lon="3.25301">
        <ele>615.5</ele>
        <time>2026-05-19T08:52:16Z</time>
      </trkpt>
      <trkpt lat="43.69587" lon="3.25299">
        <ele>615.8</ele>
        <time>2026-05-19T08:52:21Z</time>
      </trkpt>
      <trkpt lat="43.69582" lon="3.25296">
        <ele>615.7</ele>
        <time>2026-05-19T08:52:26Z</time>
      </trkpt>
      <trkpt lat="43.69575" lon="3.25293">
        <ele>615.1</ele>
        <time>2026-05-19T08:52:31Z</time>
      </trkpt>
      <trkpt lat="43.69568" lon="3.25289">
        <ele>614.6</ele>
        <time>2026-05-19T08:52:36Z</time>
      </trkpt>
      <trkpt lat="43.69561" lon="3.25287">
        <ele>614.1</ele>
        <time>2026-05-19T08:52:41Z</time>
      </trkpt>
      <trkpt lat="43.69554" lon="3.25286">
        <ele>613.7</ele>
        <time>2026-05-19T08:52:46Z</time>
      </trkpt>
      <trkpt lat="43.69548" lon="3.25286">
        <ele>613.5</ele>
        <time>2026-05-19T08:52:51Z</time>
      </trkpt>
      <trkpt lat="43.69541" lon="3.25285">
        <ele>613.1</ele>
        <time>2026-05-19T08:52:56Z</time>
      </trkpt>
      <trkpt lat="43.69535" lon="3.25285">
        <ele>612.8</ele>
        <time>2026-05-19T08:53:01Z</time>
      </trkpt>
      <trkpt lat="43.69528" lon="3.25284">
        <ele>612.5</ele>
        <time>2026-05-19T08:53:06Z</time>
      </trkpt>
      <trkpt lat="43.69521" lon="3.25284">
        <ele>612.2</ele>
        <time>2026-05-19T08:53:11Z</time>
      </trkpt>
      <trkpt lat="43.69515" lon="3.25282">
        <ele>611.9</ele>
        <time>2026-05-19T08:53:16Z</time>
      </trkpt>
      <trkpt lat="43.69507" lon="3.2528">
        <ele>611.6</ele>
        <time>2026-05-19T08:53:21Z</time>
      </trkpt>
      <trkpt lat="43.695" lon="3.25279">
        <ele>611.3</ele>
        <time>2026-05-19T08:53:26Z</time>
      </trkpt>
      <trkpt lat="43.69494" lon="3.25274">
        <ele>610.3</ele>
        <time>2026-05-19T08:53:31Z</time>
      </trkpt>
      <trkpt lat="43.69488" lon="3.25271">
        <ele>609.3</ele>
        <time>2026-05-19T08:53:36Z</time>
      </trkpt>
      <trkpt lat="43.69481" lon="3.25265">
        <ele>608.3</ele>
        <time>2026-05-19T08:53:41Z</time>
      </trkpt>
      <trkpt lat="43.69475" lon="3.25258">
        <ele>607.7</ele>
        <time>2026-05-19T08:53:46Z</time>
      </trkpt>
      <trkpt lat="43.6947" lon="3.25252">
        <ele>607.2</ele>
        <time>2026-05-19T08:53:51Z</time>
      </trkpt>
      <trkpt lat="43.69464" lon="3.25245">
        <ele>606.6</ele>
        <time>2026-05-19T08:53:56Z</time>
      </trkpt>
      <trkpt lat="43.6946" lon="3.25236">
        <ele>606.4</ele>
        <time>2026-05-19T08:54:01Z</time>
      </trkpt>
      <trkpt lat="43.69456" lon="3.25229">
        <ele>606</ele>
        <time>2026-05-19T08:54:06Z</time>
      </trkpt>
      <trkpt lat="43.69453" lon="3.25222">
        <ele>605.8</ele>
        <time>2026-05-19T08:54:11Z</time>
      </trkpt>
      <trkpt lat="43.69449" lon="3.25214">
        <ele>605.5</ele>
        <time>2026-05-19T08:54:16Z</time>
      </trkpt>
      <trkpt lat="43.69445" lon="3.25207">
        <ele>605.1</ele>
        <time>2026-05-19T08:54:21Z</time>
      </trkpt>
      <trkpt lat="43.69441" lon="3.25199">
        <ele>604.8</ele>
        <time>2026-05-19T08:54:26Z</time>
      </trkpt>
      <trkpt lat="43.69437" lon="3.25191">
        <ele>604.5</ele>
        <time>2026-05-19T08:54:31Z</time>
      </trkpt>
      <trkpt lat="43.69434" lon="3.25185">
        <ele>604.2</ele>
        <time>2026-05-19T08:54:36Z</time>
      </trkpt>
      <trkpt lat="43.69431" lon="3.2518">
        <ele>603.9</ele>
        <time>2026-05-19T08:54:41Z</time>
      </trkpt>
      <trkpt lat="43.69431" lon="3.2518">
        <ele>603.9</ele>
        <time>2026-05-19T08:54:46Z</time>
      </trkpt>
      <trkpt lat="43.69431" lon="3.2518">
        <ele>603.9</ele>
        <time>2026-05-19T08:54:51Z</time>
      </trkpt>
      <trkpt lat="43.69431" lon="3.2518">
        <ele>603.9</ele>
        <time>2026-05-19T08:54:56Z</time>
      </trkpt>
      <trkpt lat="43.6943" lon="3.25176">
        <ele>603.9</ele>
        <time>2026-05-19T08:55:01Z</time>
      </trkpt>
      <trkpt lat="43.69426" lon="3.25173">
        <ele>603.3</ele>
        <time>2026-05-19T08:55:06Z</time>
      </trkpt>
      <trkpt lat="43.69425" lon="3.25171">
        <ele>603.2</ele>
        <time>2026-05-19T08:55:11Z</time>
      </trkpt>
      <trkpt lat="43.69423" lon="3.25165">
        <ele>603.1</ele>
        <time>2026-05-19T08:55:16Z</time>
      </trkpt>
      <trkpt lat="43.6942" lon="3.25159">
        <ele>602.8</ele>
        <time>2026-05-19T08:55:21Z</time>
      </trkpt>
      <trkpt lat="43.69418" lon="3.25153">
        <ele>602.7</ele>
        <time>2026-05-19T08:55:26Z</time>
      </trkpt>
      <trkpt lat="43.69415" lon="3.25145">
        <ele>602.2</ele>
        <time>2026-05-19T08:55:31Z</time>
      </trkpt>
      <trkpt lat="43.69412" lon="3.25137">
        <ele>601.6</ele>
        <time>2026-05-19T08:55:36Z</time>
      </trkpt>
      <trkpt lat="43.69409" lon="3.25129">
        <ele>601</ele>
        <time>2026-05-19T08:55:41Z</time>
      </trkpt>
      <trkpt lat="43.69405" lon="3.25121">
        <ele>600.3</ele>
        <time>2026-05-19T08:55:46Z</time>
      </trkpt>
      <trkpt lat="43.69402" lon="3.25113">
        <ele>599.9</ele>
        <time>2026-05-19T08:55:51Z</time>
      </trkpt>
      <trkpt lat="43.69399" lon="3.25104">
        <ele>599.8</ele>
        <time>2026-05-19T08:55:56Z</time>
      </trkpt>
      <trkpt lat="43.69397" lon="3.25095">
        <ele>599.9</ele>
        <time>2026-05-19T08:56:01Z</time>
      </trkpt>
      <trkpt lat="43.69395" lon="3.25086">
        <ele>600.1</ele>
        <time>2026-05-19T08:56:06Z</time>
      </trkpt>
      <trkpt lat="43.69394" lon="3.25076">
        <ele>601.3</ele>
        <time>2026-05-19T08:56:11Z</time>
      </trkpt>
      <trkpt lat="43.69393" lon="3.25066">
        <ele>602.7</ele>
        <time>2026-05-19T08:56:16Z</time>
      </trkpt>
      <trkpt lat="43.69391" lon="3.25057">
        <ele>603.8</ele>
        <time>2026-05-19T08:56:21Z</time>
      </trkpt>
      <trkpt lat="43.6939" lon="3.2505">
        <ele>604.8</ele>
        <time>2026-05-19T08:56:26Z</time>
      </trkpt>
      <trkpt lat="43.69387" lon="3.25041">
        <ele>605.8</ele>
        <time>2026-05-19T08:56:31Z</time>
      </trkpt>
      <trkpt lat="43.69385" lon="3.25033">
        <ele>606.9</ele>
        <time>2026-05-19T08:56:36Z</time>
      </trkpt>
      <trkpt lat="43.69381" lon="3.25025">
        <ele>607.7</ele>
        <time>2026-05-19T08:56:41Z</time>
      </trkpt>
      <trkpt lat="43.69377" lon="3.25016">
        <ele>608.8</ele>
        <time>2026-05-19T08:56:46Z</time>
      </trkpt>
      <trkpt lat="43.69375" lon="3.25011">
        <ele>609.5</ele>
        <time>2026-05-19T08:56:51Z</time>
      </trkpt>
      <trkpt lat="43.69373" lon="3.25007">
        <ele>610</ele>
        <time>2026-05-19T08:56:56Z</time>
      </trkpt>
      <trkpt lat="43.69371" lon="3.25001">
        <ele>610.9</ele>
        <time>2026-05-19T08:57:01Z</time>
      </trkpt>
      <trkpt lat="43.6937" lon="3.25">
        <ele>611</ele>
        <time>2026-05-19T08:57:06Z</time>
      </trkpt>
      <trkpt lat="43.6937" lon="3.24999">
        <ele>611.2</ele>
        <time>2026-05-19T08:57:11Z</time>
      </trkpt>
      <trkpt lat="43.69366" lon="3.24992">
        <ele>612.2</ele>
        <time>2026-05-19T08:57:16Z</time>
      </trkpt>
      <trkpt lat="43.69363" lon="3.24984">
        <ele>613.5</ele>
        <time>2026-05-19T08:57:21Z</time>
      </trkpt>
      <trkpt lat="43.6936" lon="3.24977">
        <ele>614.7</ele>
        <time>2026-05-19T08:57:26Z</time>
      </trkpt>
      <trkpt lat="43.69357" lon="3.24971">
        <ele>615.7</ele>
        <time>2026-05-19T08:57:31Z</time>
      </trkpt>
      <trkpt lat="43.69354" lon="3.24965">
        <ele>616.7</ele>
        <time>2026-05-19T08:57:36Z</time>
      </trkpt>
      <trkpt lat="43.69352" lon="3.24958">
        <ele>618</ele>
        <time>2026-05-19T08:57:41Z</time>
      </trkpt>
      <trkpt lat="43.69349" lon="3.24952">
        <ele>619.1</ele>
        <time>2026-05-19T08:57:46Z</time>
      </trkpt>
      <trkpt lat="43.69346" lon="3.24944">
        <ele>620.6</ele>
        <time>2026-05-19T08:57:51Z</time>
      </trkpt>
      <trkpt lat="43.69343" lon="3.24938">
        <ele>621.7</ele>
        <time>2026-05-19T08:57:56Z</time>
      </trkpt>
      <trkpt lat="43.69341" lon="3.24932">
        <ele>623</ele>
        <time>2026-05-19T08:58:01Z</time>
      </trkpt>
      <trkpt lat="43.69338" lon="3.24925">
        <ele>624.4</ele>
        <time>2026-05-19T08:58:06Z</time>
      </trkpt>
      <trkpt lat="43.69335" lon="3.24919">
        <ele>625.6</ele>
        <time>2026-05-19T08:58:11Z</time>
      </trkpt>
      <trkpt lat="43.69331" lon="3.24913">
        <ele>626.8</ele>
        <time>2026-05-19T08:58:16Z</time>
      </trkpt>
      <trkpt lat="43.69327" lon="3.24908">
        <ele>627.9</ele>
        <time>2026-05-19T08:58:21Z</time>
      </trkpt>
      <trkpt lat="43.69323" lon="3.24901">
        <ele>629.4</ele>
        <time>2026-05-19T08:58:26Z</time>
      </trkpt>
      <trkpt lat="43.69317" lon="3.24896">
        <ele>630.5</ele>
        <time>2026-05-19T08:58:31Z</time>
      </trkpt>
      <trkpt lat="43.69311" lon="3.24893">
        <ele>631.1</ele>
        <time>2026-05-19T08:58:36Z</time>
      </trkpt>
      <trkpt lat="43.69305" lon="3.24892">
        <ele>631.2</ele>
        <time>2026-05-19T08:58:41Z</time>
      </trkpt>
      <trkpt lat="43.693" lon="3.24891">
        <ele>631.3</ele>
        <time>2026-05-19T08:58:46Z</time>
      </trkpt>
      <trkpt lat="43.69295" lon="3.24891">
        <ele>631.3</ele>
        <time>2026-05-19T08:58:51Z</time>
      </trkpt>
      <trkpt lat="43.6929" lon="3.2489">
        <ele>631.4</ele>
        <time>2026-05-19T08:58:56Z</time>
      </trkpt>
      <trkpt lat="43.69285" lon="3.24889">
        <ele>631.5</ele>
        <time>2026-05-19T08:59:01Z</time>
      </trkpt>
      <trkpt lat="43.69279" lon="3.24888">
        <ele>631.7</ele>
        <time>2026-05-19T08:59:06Z</time>
      </trkpt>
      <trkpt lat="43.69274" lon="3.24887">
        <ele>631.8</ele>
        <time>2026-05-19T08:59:11Z</time>
      </trkpt>
      <trkpt lat="43.69269" lon="3.24885">
        <ele>632.2</ele>
        <time>2026-05-19T08:59:16Z</time>
      </trkpt>
      <trkpt lat="43.69263" lon="3.24884">
        <ele>632.3</ele>
        <time>2026-05-19T08:59:21Z</time>
      </trkpt>
      <trkpt lat="43.69258" lon="3.24881">
        <ele>632.8</ele>
        <time>2026-05-19T08:59:26Z</time>
      </trkpt>
      <trkpt lat="43.69252" lon="3.2488">
        <ele>633</ele>
        <time>2026-05-19T08:59:31Z</time>
      </trkpt>
      <trkpt lat="43.69246" lon="3.24879">
        <ele>632.4</ele>
        <time>2026-05-19T08:59:36Z</time>
      </trkpt>
      <trkpt lat="43.69241" lon="3.24878">
        <ele>631.8</ele>
        <time>2026-05-19T08:59:41Z</time>
      </trkpt>
      <trkpt lat="43.69239" lon="3.24877">
        <ele>631.7</ele>
        <time>2026-05-19T08:59:46Z</time>
      </trkpt>
      <trkpt lat="43.69238" lon="3.24876">
        <ele>631.7</ele>
        <time>2026-05-19T08:59:51Z</time>
      </trkpt>
      <trkpt lat="43.69233" lon="3.24876">
        <ele>630.8</ele>
        <time>2026-05-19T08:59:56Z</time>
      </trkpt>
      <trkpt lat="43.69228" lon="3.24876">
        <ele>630</ele>
        <time>2026-05-19T09:00:01Z</time>
      </trkpt>
      <trkpt lat="43.69222" lon="3.24875">
        <ele>629.1</ele>
        <time>2026-05-19T09:00:06Z</time>
      </trkpt>
      <trkpt lat="43.69216" lon="3.24875">
        <ele>628.1</ele>
        <time>2026-05-19T09:00:11Z</time>
      </trkpt>
      <trkpt lat="43.69213" lon="3.24874">
        <ele>627.8</ele>
        <time>2026-05-19T09:00:16Z</time>
      </trkpt>
      <trkpt lat="43.69212" lon="3.24874">
        <ele>627.6</ele>
        <time>2026-05-19T09:00:21Z</time>
      </trkpt>
      <trkpt lat="43.69208" lon="3.24874">
        <ele>626.9</ele>
        <time>2026-05-19T09:00:26Z</time>
      </trkpt>
      <trkpt lat="43.69203" lon="3.24875">
        <ele>625.8</ele>
        <time>2026-05-19T09:00:31Z</time>
      </trkpt>
      <trkpt lat="43.69198" lon="3.24872">
        <ele>625.5</ele>
        <time>2026-05-19T09:00:36Z</time>
      </trkpt>
      <trkpt lat="43.69192" lon="3.24871">
        <ele>624.7</ele>
        <time>2026-05-19T09:00:41Z</time>
      </trkpt>
      <trkpt lat="43.69187" lon="3.24868">
        <ele>624.4</ele>
        <time>2026-05-19T09:00:46Z</time>
      </trkpt>
      <trkpt lat="43.69182" lon="3.24865">
        <ele>624</ele>
        <time>2026-05-19T09:00:51Z</time>
      </trkpt>
      <trkpt lat="43.69177" lon="3.2486">
        <ele>624.1</ele>
        <time>2026-05-19T09:00:56Z</time>
      </trkpt>
      <trkpt lat="43.69172" lon="3.24854">
        <ele>624.3</ele>
        <time>2026-05-19T09:01:01Z</time>
      </trkpt>
      <trkpt lat="43.69167" lon="3.24848">
        <ele>624.4</ele>
        <time>2026-05-19T09:01:06Z</time>
      </trkpt>
      <trkpt lat="43.69164" lon="3.24842">
        <ele>625.6</ele>
        <time>2026-05-19T09:01:11Z</time>
      </trkpt>
      <trkpt lat="43.6916" lon="3.24836">
        <ele>626.9</ele>
        <time>2026-05-19T09:01:16Z</time>
      </trkpt>
      <trkpt lat="43.69155" lon="3.24828">
        <ele>628.9</ele>
        <time>2026-05-19T09:01:21Z</time>
      </trkpt>
      <trkpt lat="43.69151" lon="3.24823">
        <ele>630.4</ele>
        <time>2026-05-19T09:01:26Z</time>
      </trkpt>
      <trkpt lat="43.69147" lon="3.24819">
        <ele>631.6</ele>
        <time>2026-05-19T09:01:31Z</time>
      </trkpt>
      <trkpt lat="43.69143" lon="3.24812">
        <ele>633.7</ele>
        <time>2026-05-19T09:01:36Z</time>
      </trkpt>
      <trkpt lat="43.6914" lon="3.24805">
        <ele>635.6</ele>
        <time>2026-05-19T09:01:41Z</time>
      </trkpt>
      <trkpt lat="43.69137" lon="3.24798">
        <ele>637.6</ele>
        <time>2026-05-19T09:01:46Z</time>
      </trkpt>
      <trkpt lat="43.69135" lon="3.2479">
        <ele>639.8</ele>
        <time>2026-05-19T09:01:51Z</time>
      </trkpt>
      <trkpt lat="43.69133" lon="3.24782">
        <ele>642</ele>
        <time>2026-05-19T09:01:56Z</time>
      </trkpt>
      <trkpt lat="43.69131" lon="3.24775">
        <ele>644</ele>
        <time>2026-05-19T09:02:01Z</time>
      </trkpt>
      <trkpt lat="43.69129" lon="3.24768">
        <ele>646</ele>
        <time>2026-05-19T09:02:06Z</time>
      </trkpt>
      <trkpt lat="43.69125" lon="3.24763">
        <ele>647.6</ele>
        <time>2026-05-19T09:02:11Z</time>
      </trkpt>
      <trkpt lat="43.6912" lon="3.24757">
        <ele>649.5</ele>
        <time>2026-05-19T09:02:16Z</time>
      </trkpt>
      <trkpt lat="43.69116" lon="3.24753">
        <ele>650.8</ele>
        <time>2026-05-19T09:02:21Z</time>
      </trkpt>
      <trkpt lat="43.69113" lon="3.24751">
        <ele>651.6</ele>
        <time>2026-05-19T09:02:26Z</time>
      </trkpt>
      <trkpt lat="43.69108" lon="3.2475">
        <ele>652.2</ele>
        <time>2026-05-19T09:02:31Z</time>
      </trkpt>
      <trkpt lat="43.69102" lon="3.24748">
        <ele>653.1</ele>
        <time>2026-05-19T09:02:36Z</time>
      </trkpt>
      <trkpt lat="43.69097" lon="3.24748">
        <ele>653.4</ele>
        <time>2026-05-19T09:02:41Z</time>
      </trkpt>
      <trkpt lat="43.69091" lon="3.24749">
        <ele>653.6</ele>
        <time>2026-05-19T09:02:46Z</time>
      </trkpt>
      <trkpt lat="43.69086" lon="3.24748">
        <ele>654.2</ele>
        <time>2026-05-19T09:02:51Z</time>
      </trkpt>
      <trkpt lat="43.6908" lon="3.24748">
        <ele>654.9</ele>
        <time>2026-05-19T09:02:56Z</time>
      </trkpt>
      <trkpt lat="43.69075" lon="3.24747">
        <ele>655.8</ele>
        <time>2026-05-19T09:03:01Z</time>
      </trkpt>
      <trkpt lat="43.69069" lon="3.24745">
        <ele>657</ele>
        <time>2026-05-19T09:03:06Z</time>
      </trkpt>
      <trkpt lat="43.69063" lon="3.24744">
        <ele>658</ele>
        <time>2026-05-19T09:03:11Z</time>
      </trkpt>
      <trkpt lat="43.69057" lon="3.24743">
        <ele>659</ele>
        <time>2026-05-19T09:03:16Z</time>
      </trkpt>
      <trkpt lat="43.69051" lon="3.24743">
        <ele>659.9</ele>
        <time>2026-05-19T09:03:21Z</time>
      </trkpt>
      <trkpt lat="43.69045" lon="3.24742">
        <ele>660.8</ele>
        <time>2026-05-19T09:03:26Z</time>
      </trkpt>
      <trkpt lat="43.69039" lon="3.24742">
        <ele>661.6</ele>
        <time>2026-05-19T09:03:31Z</time>
      </trkpt>
      <trkpt lat="43.69033" lon="3.24742">
        <ele>662.5</ele>
        <time>2026-05-19T09:03:36Z</time>
      </trkpt>
      <trkpt lat="43.69026" lon="3.24743">
        <ele>663.4</ele>
        <time>2026-05-19T09:03:41Z</time>
      </trkpt>
      <trkpt lat="43.6902" lon="3.24744">
        <ele>664.2</ele>
        <time>2026-05-19T09:03:46Z</time>
      </trkpt>
      <trkpt lat="43.69014" lon="3.24745">
        <ele>665</ele>
        <time>2026-05-19T09:03:51Z</time>
      </trkpt>
      <trkpt lat="43.69009" lon="3.24747">
        <ele>665.7</ele>
        <time>2026-05-19T09:03:56Z</time>
      </trkpt>
      <trkpt lat="43.69003" lon="3.24749">
        <ele>666.5</ele>
        <time>2026-05-19T09:04:01Z</time>
      </trkpt>
      <trkpt lat="43.68997" lon="3.2475">
        <ele>667</ele>
        <time>2026-05-19T09:04:06Z</time>
      </trkpt>
      <trkpt lat="43.68991" lon="3.24751">
        <ele>666.9</ele>
        <time>2026-05-19T09:04:11Z</time>
      </trkpt>
      <trkpt lat="43.68985" lon="3.24754">
        <ele>666.4</ele>
        <time>2026-05-19T09:04:16Z</time>
      </trkpt>
      <trkpt lat="43.6898" lon="3.24756">
        <ele>666.1</ele>
        <time>2026-05-19T09:04:21Z</time>
      </trkpt>
      <trkpt lat="43.68974" lon="3.2476">
        <ele>665.6</ele>
        <time>2026-05-19T09:04:26Z</time>
      </trkpt>
      <trkpt lat="43.68969" lon="3.24762">
        <ele>665.5</ele>
        <time>2026-05-19T09:04:31Z</time>
      </trkpt>
      <trkpt lat="43.68963" lon="3.24766">
        <ele>665.2</ele>
        <time>2026-05-19T09:04:36Z</time>
      </trkpt>
      <trkpt lat="43.68958" lon="3.24768">
        <ele>665.3</ele>
        <time>2026-05-19T09:04:41Z</time>
      </trkpt>
      <trkpt lat="43.68953" lon="3.24771">
        <ele>665.2</ele>
        <time>2026-05-19T09:04:46Z</time>
      </trkpt>
      <trkpt lat="43.68947" lon="3.24774">
        <ele>665.4</ele>
        <time>2026-05-19T09:04:51Z</time>
      </trkpt>
      <trkpt lat="43.68942" lon="3.24776">
        <ele>665.6</ele>
        <time>2026-05-19T09:04:56Z</time>
      </trkpt>
      <trkpt lat="43.68936" lon="3.24778">
        <ele>666</ele>
        <time>2026-05-19T09:05:01Z</time>
      </trkpt>
      <trkpt lat="43.6893" lon="3.24781">
        <ele>666.3</ele>
        <time>2026-05-19T09:05:06Z</time>
      </trkpt>
      <trkpt lat="43.68925" lon="3.24782">
        <ele>666.8</ele>
        <time>2026-05-19T09:05:11Z</time>
      </trkpt>
      <trkpt lat="43.68919" lon="3.24782">
        <ele>667.4</ele>
        <time>2026-05-19T09:05:16Z</time>
      </trkpt>
      <trkpt lat="43.68913" lon="3.24781">
        <ele>667.6</ele>
        <time>2026-05-19T09:05:21Z</time>
      </trkpt>
      <trkpt lat="43.68908" lon="3.24781">
        <ele>667.7</ele>
        <time>2026-05-19T09:05:26Z</time>
      </trkpt>
      <trkpt lat="43.68902" lon="3.2478">
        <ele>667.7</ele>
        <time>2026-05-19T09:05:31Z</time>
      </trkpt>
      <trkpt lat="43.68896" lon="3.2478">
        <ele>667.7</ele>
        <time>2026-05-19T09:05:36Z</time>
      </trkpt>
      <trkpt lat="43.6889" lon="3.2478">
        <ele>667.7</ele>
        <time>2026-05-19T09:05:41Z</time>
      </trkpt>
      <trkpt lat="43.68884" lon="3.2478">
        <ele>667.7</ele>
        <time>2026-05-19T09:05:46Z</time>
      </trkpt>
      <trkpt lat="43.6888" lon="3.24779">
        <ele>667.7</ele>
        <time>2026-05-19T09:05:51Z</time>
      </trkpt>
      <trkpt lat="43.68874" lon="3.24778">
        <ele>667.7</ele>
        <time>2026-05-19T09:05:56Z</time>
      </trkpt>
      <trkpt lat="43.68869" lon="3.24779">
        <ele>667.7</ele>
        <time>2026-05-19T09:06:01Z</time>
      </trkpt>
      <trkpt lat="43.68865" lon="3.24776">
        <ele>667.6</ele>
        <time>2026-05-19T09:06:06Z</time>
      </trkpt>
      <trkpt lat="43.68864" lon="3.24772">
        <ele>667.3</ele>
        <time>2026-05-19T09:06:11Z</time>
      </trkpt>
      <trkpt lat="43.68867" lon="3.2477">
        <ele>667.3</ele>
        <time>2026-05-19T09:06:16Z</time>
      </trkpt>
      <trkpt lat="43.68873" lon="3.24768">
        <ele>667.2</ele>
        <time>2026-05-19T09:06:21Z</time>
      </trkpt>
      <trkpt lat="43.68878" lon="3.24764">
        <ele>667.1</ele>
        <time>2026-05-19T09:06:26Z</time>
      </trkpt>
      <trkpt lat="43.68883" lon="3.2476">
        <ele>667.1</ele>
        <time>2026-05-19T09:06:31Z</time>
      </trkpt>
      <trkpt lat="43.68883" lon="3.2476">
        <ele>667.1</ele>
        <time>2026-05-19T09:06:36Z</time>
      </trkpt>
      <trkpt lat="43.68883" lon="3.2476">
        <ele>667.1</ele>
        <time>2026-05-19T09:06:41Z</time>
      </trkpt>
      <trkpt lat="43.68883" lon="3.2476">
        <ele>667.1</ele>
        <time>2026-05-19T09:06:46Z</time>
      </trkpt>
      <trkpt lat="43.68883" lon="3.2476">
        <ele>667.1</ele>
        <time>2026-05-19T09:06:51Z</time>
      </trkpt>
      <trkpt lat="43.68883" lon="3.2476">
        <ele>667.1</ele>
        <time>2026-05-19T09:06:56Z</time>
      </trkpt>
      <trkpt lat="43.68883" lon="3.2476">
        <ele>667.1</ele>
        <time>2026-05-19T09:07:01Z</time>
      </trkpt>
      <trkpt lat="43.68883" lon="3.2476">
        <ele>667.1</ele>
        <time>2026-05-19T09:07:06Z</time>
      </trkpt>
      <trkpt lat="43.68883" lon="3.2476">
        <ele>667.1</ele>
        <time>2026-05-19T09:07:11Z</time>
      </trkpt>
      <trkpt lat="43.68883" lon="3.2476">
        <ele>667.1</ele>
        <time>2026-05-19T09:07:16Z</time>
      </trkpt>
      <trkpt lat="43.68883" lon="3.2476">
        <ele>667.1</ele>
        <time>2026-05-19T09:07:21Z</time>
      </trkpt>
      <trkpt lat="43.68883" lon="3.2476">
        <ele>667.1</ele>
        <time>2026-05-19T09:07:26Z</time>
      </trkpt>
      <trkpt lat="43.68883" lon="3.2476">
        <ele>667.1</ele>
        <time>2026-05-19T09:07:31Z</time>
      </trkpt>
      <trkpt lat="43.68883" lon="3.2476">
        <ele>667.1</ele>
        <time>2026-05-19T09:07:36Z</time>
      </trkpt>
      <trkpt lat="43.68883" lon="3.2476">
        <ele>667.1</ele>
        <time>2026-05-19T09:07:41Z</time>
      </trkpt>
      <trkpt lat="43.68883" lon="3.2476">
        <ele>667.1</ele>
        <time>2026-05-19T09:07:46Z</time>
      </trkpt>
      <trkpt lat="43.68883" lon="3.2476">
        <ele>667.1</ele>
        <time>2026-05-19T09:07:51Z</time>
      </trkpt>
      <trkpt lat="43.68883" lon="3.2476">
        <ele>667.1</ele>
        <time>2026-05-19T09:07:56Z</time>
      </trkpt>
      <trkpt lat="43.68879" lon="3.24754">
        <ele>666.8</ele>
        <time>2026-05-19T09:08:01Z</time>
      </trkpt>
      <trkpt lat="43.68873" lon="3.24753">
        <ele>666.6</ele>
        <time>2026-05-19T09:08:06Z</time>
      </trkpt>
      <trkpt lat="43.68868" lon="3.24755">
        <ele>666.5</ele>
        <time>2026-05-19T09:08:11Z</time>
      </trkpt>
      <trkpt lat="43.68863" lon="3.2476">
        <ele>666.6</ele>
        <time>2026-05-19T09:08:16Z</time>
      </trkpt>
      <trkpt lat="43.6886" lon="3.24765">
        <ele>666.9</ele>
        <time>2026-05-19T09:08:21Z</time>
      </trkpt>
      <trkpt lat="43.68856" lon="3.2477">
        <ele>667.1</ele>
        <time>2026-05-19T09:08:26Z</time>
      </trkpt>
      <trkpt lat="43.6885" lon="3.24772">
        <ele>667.2</ele>
        <time>2026-05-19T09:08:31Z</time>
      </trkpt>
      <trkpt lat="43.68843" lon="3.24775">
        <ele>667.4</ele>
        <time>2026-05-19T09:08:36Z</time>
      </trkpt>
      <trkpt lat="43.68836" lon="3.24774">
        <ele>667.3</ele>
        <time>2026-05-19T09:08:41Z</time>
      </trkpt>
      <trkpt lat="43.68828" lon="3.24774">
        <ele>667.2</ele>
        <time>2026-05-19T09:08:46Z</time>
      </trkpt>
      <trkpt lat="43.68822" lon="3.24773">
        <ele>667.1</ele>
        <time>2026-05-19T09:08:51Z</time>
      </trkpt>
      <trkpt lat="43.68816" lon="3.24772">
        <ele>666.9</ele>
        <time>2026-05-19T09:08:56Z</time>
      </trkpt>
      <trkpt lat="43.68814" lon="3.24769">
        <ele>666.6</ele>
        <time>2026-05-19T09:09:01Z</time>
      </trkpt>
      <trkpt lat="43.68814" lon="3.24769">
        <ele>666.6</ele>
        <time>2026-05-19T09:09:06Z</time>
      </trkpt>
      <trkpt lat="43.68814" lon="3.24769">
        <ele>666.6</ele>
        <time>2026-05-19T09:09:11Z</time>
      </trkpt>
      <trkpt lat="43.68814" lon="3.24769">
        <ele>666.6</ele>
        <time>2026-05-19T09:09:16Z</time>
      </trkpt>
      <trkpt lat="43.68809" lon="3.24767">
        <ele>666.3</ele>
        <time>2026-05-19T09:09:21Z</time>
      </trkpt>
      <trkpt lat="43.68802" lon="3.24766">
        <ele>666.2</ele>
        <time>2026-05-19T09:09:26Z</time>
      </trkpt>
      <trkpt lat="43.68795" lon="3.24767">
        <ele>666.2</ele>
        <time>2026-05-19T09:09:31Z</time>
      </trkpt>
      <trkpt lat="43.68789" lon="3.24767">
        <ele>666.1</ele>
        <time>2026-05-19T09:09:36Z</time>
      </trkpt>
      <trkpt lat="43.68783" lon="3.24767">
        <ele>666</ele>
        <time>2026-05-19T09:09:41Z</time>
      </trkpt>
      <trkpt lat="43.68777" lon="3.24768">
        <ele>666.1</ele>
        <time>2026-05-19T09:09:46Z</time>
      </trkpt>
      <trkpt lat="43.68769" lon="3.24768">
        <ele>666</ele>
        <time>2026-05-19T09:09:51Z</time>
      </trkpt>
      <trkpt lat="43.68762" lon="3.24768">
        <ele>665.9</ele>
        <time>2026-05-19T09:09:56Z</time>
      </trkpt>
      <trkpt lat="43.68756" lon="3.24767">
        <ele>665.7</ele>
        <time>2026-05-19T09:10:01Z</time>
      </trkpt>
      <trkpt lat="43.68751" lon="3.24767">
        <ele>665.6</ele>
        <time>2026-05-19T09:10:06Z</time>
      </trkpt>
      <trkpt lat="43.68744" lon="3.24766">
        <ele>665.3</ele>
        <time>2026-05-19T09:10:11Z</time>
      </trkpt>
      <trkpt lat="43.68737" lon="3.24766">
        <ele>665.1</ele>
        <time>2026-05-19T09:10:16Z</time>
      </trkpt>
      <trkpt lat="43.6873" lon="3.24766">
        <ele>664.9</ele>
        <time>2026-05-19T09:10:21Z</time>
      </trkpt>
      <trkpt lat="43.68724" lon="3.24767">
        <ele>664.8</ele>
        <time>2026-05-19T09:10:26Z</time>
      </trkpt>
      <trkpt lat="43.68717" lon="3.24765">
        <ele>664.3</ele>
        <time>2026-05-19T09:10:31Z</time>
      </trkpt>
      <trkpt lat="43.6871" lon="3.24763">
        <ele>663.9</ele>
        <time>2026-05-19T09:10:36Z</time>
      </trkpt>
      <trkpt lat="43.68703" lon="3.24764">
        <ele>663.7</ele>
        <time>2026-05-19T09:10:41Z</time>
      </trkpt>
      <trkpt lat="43.68696" lon="3.24764">
        <ele>663.5</ele>
        <time>2026-05-19T09:10:46Z</time>
      </trkpt>
      <trkpt lat="43.6869" lon="3.24765">
        <ele>663.4</ele>
        <time>2026-05-19T09:10:51Z</time>
      </trkpt>
      <trkpt lat="43.68682" lon="3.24766">
        <ele>663.2</ele>
        <time>2026-05-19T09:10:56Z</time>
      </trkpt>
      <trkpt lat="43.6868" lon="3.24768">
        <ele>663.4</ele>
        <time>2026-05-19T09:11:01Z</time>
      </trkpt>
      <trkpt lat="43.68679" lon="3.24767">
        <ele>663.2</ele>
        <time>2026-05-19T09:11:06Z</time>
      </trkpt>
      <trkpt lat="43.68678" lon="3.24768">
        <ele>663.3</ele>
        <time>2026-05-19T09:11:11Z</time>
      </trkpt>
      <trkpt lat="43.68672" lon="3.24771">
        <ele>663.4</ele>
        <time>2026-05-19T09:11:16Z</time>
      </trkpt>
      <trkpt lat="43.68665" lon="3.24774">
        <ele>663.6</ele>
        <time>2026-05-19T09:11:21Z</time>
      </trkpt>
      <trkpt lat="43.68658" lon="3.24777">
        <ele>663.9</ele>
        <time>2026-05-19T09:11:26Z</time>
      </trkpt>
      <trkpt lat="43.68652" lon="3.24781">
        <ele>664.4</ele>
        <time>2026-05-19T09:11:31Z</time>
      </trkpt>
      <trkpt lat="43.68646" lon="3.24785">
        <ele>664.9</ele>
        <time>2026-05-19T09:11:36Z</time>
      </trkpt>
      <trkpt lat="43.68639" lon="3.24789">
        <ele>665.4</ele>
        <time>2026-05-19T09:11:41Z</time>
      </trkpt>
      <trkpt lat="43.68632" lon="3.24791">
        <ele>665.6</ele>
        <time>2026-05-19T09:11:46Z</time>
      </trkpt>
      <trkpt lat="43.68626" lon="3.24794">
        <ele>666</ele>
        <time>2026-05-19T09:11:51Z</time>
      </trkpt>
      <trkpt lat="43.6862" lon="3.24797">
        <ele>666.4</ele>
        <time>2026-05-19T09:11:56Z</time>
      </trkpt>
      <trkpt lat="43.68613" lon="3.24801">
        <ele>666.9</ele>
        <time>2026-05-19T09:12:01Z</time>
      </trkpt>
      <trkpt lat="43.68606" lon="3.24803">
        <ele>667.2</ele>
        <time>2026-05-19T09:12:06Z</time>
      </trkpt>
      <trkpt lat="43.686" lon="3.24806">
        <ele>667.6</ele>
        <time>2026-05-19T09:12:11Z</time>
      </trkpt>
      <trkpt lat="43.68593" lon="3.24809">
        <ele>668</ele>
        <time>2026-05-19T09:12:16Z</time>
      </trkpt>
      <trkpt lat="43.68586" lon="3.24811">
        <ele>668.3</ele>
        <time>2026-05-19T09:12:21Z</time>
      </trkpt>
      <trkpt lat="43.68579" lon="3.24814">
        <ele>668.8</ele>
        <time>2026-05-19T09:12:26Z</time>
      </trkpt>
      <trkpt lat="43.68574" lon="3.24817">
        <ele>669.4</ele>
        <time>2026-05-19T09:12:31Z</time>
      </trkpt>
      <trkpt lat="43.68566" lon="3.24817">
        <ele>669.6</ele>
        <time>2026-05-19T09:12:36Z</time>
      </trkpt>
      <trkpt lat="43.68558" lon="3.24818">
        <ele>670</ele>
        <time>2026-05-19T09:12:41Z</time>
      </trkpt>
      <trkpt lat="43.68552" lon="3.24819">
        <ele>670.3</ele>
        <time>2026-05-19T09:12:46Z</time>
      </trkpt>
      <trkpt lat="43.68545" lon="3.24821">
        <ele>670.7</ele>
        <time>2026-05-19T09:12:51Z</time>
      </trkpt>
      <trkpt lat="43.68538" lon="3.24823">
        <ele>671.1</ele>
        <time>2026-05-19T09:12:56Z</time>
      </trkpt>
      <trkpt lat="43.68531" lon="3.24825">
        <ele>671.5</ele>
        <time>2026-05-19T09:13:01Z</time>
      </trkpt>
      <trkpt lat="43.68525" lon="3.24827">
        <ele>671.9</ele>
        <time>2026-05-19T09:13:06Z</time>
      </trkpt>
      <trkpt lat="43.68521" lon="3.24827">
        <ele>672</ele>
        <time>2026-05-19T09:13:11Z</time>
      </trkpt>
      <trkpt lat="43.68521" lon="3.24827">
        <ele>672</ele>
        <time>2026-05-19T09:13:16Z</time>
      </trkpt>
      <trkpt lat="43.6852" lon="3.24827">
        <ele>672</ele>
        <time>2026-05-19T09:13:21Z</time>
      </trkpt>
      <trkpt lat="43.6852" lon="3.24827">
        <ele>672</ele>
        <time>2026-05-19T09:13:26Z</time>
      </trkpt>
      <trkpt lat="43.6852" lon="3.24827">
        <ele>672</ele>
        <time>2026-05-19T09:13:31Z</time>
      </trkpt>
      <trkpt lat="43.6852" lon="3.24827">
        <ele>672</ele>
        <time>2026-05-19T09:13:36Z</time>
      </trkpt>
      <trkpt lat="43.6852" lon="3.24827">
        <ele>672</ele>
        <time>2026-05-19T09:13:41Z</time>
      </trkpt>
      <trkpt lat="43.6852" lon="3.24827">
        <ele>672</ele>
        <time>2026-05-19T09:13:46Z</time>
      </trkpt>
      <trkpt lat="43.6852" lon="3.24827">
        <ele>672</ele>
        <time>2026-05-19T09:13:51Z</time>
      </trkpt>
      <trkpt lat="43.6852" lon="3.24827">
        <ele>672</ele>
        <time>2026-05-19T09:13:56Z</time>
      </trkpt>
      <trkpt lat="43.6852" lon="3.24827">
        <ele>672</ele>
        <time>2026-05-19T09:14:01Z</time>
      </trkpt>
      <trkpt lat="43.6852" lon="3.24827">
        <ele>672</ele>
        <time>2026-05-19T09:14:06Z</time>
      </trkpt>
      <trkpt lat="43.6852" lon="3.24827">
        <ele>672</ele>
        <time>2026-05-19T09:14:11Z</time>
      </trkpt>
      <trkpt lat="43.6852" lon="3.24827">
        <ele>672</ele>
        <time>2026-05-19T09:14:16Z</time>
      </trkpt>
      <trkpt lat="43.6852" lon="3.24827">
        <ele>672</ele>
        <time>2026-05-19T09:14:21Z</time>
      </trkpt>
      <trkpt lat="43.6852" lon="3.24827">
        <ele>672</ele>
        <time>2026-05-19T09:14:26Z</time>
      </trkpt>
      <trkpt lat="43.6852" lon="3.24827">
        <ele>672</ele>
        <time>2026-05-19T09:14:31Z</time>
      </trkpt>
      <trkpt lat="43.6852" lon="3.24827">
        <ele>672</ele>
        <time>2026-05-19T09:14:36Z</time>
      </trkpt>
      <trkpt lat="43.6852" lon="3.24827">
        <ele>672</ele>
        <time>2026-05-19T09:14:41Z</time>
      </trkpt>
      <trkpt lat="43.6852" lon="3.24827">
        <ele>672</ele>
        <time>2026-05-19T09:14:46Z</time>
      </trkpt>
      <trkpt lat="43.68515" lon="3.24827">
        <ele>672.1</ele>
        <time>2026-05-19T09:14:51Z</time>
      </trkpt>
      <trkpt lat="43.68509" lon="3.24828">
        <ele>672.4</ele>
        <time>2026-05-19T09:14:56Z</time>
      </trkpt>
      <trkpt lat="43.68502" lon="3.2483">
        <ele>672.7</ele>
        <time>2026-05-19T09:15:01Z</time>
      </trkpt>
      <trkpt lat="43.68496" lon="3.24832">
        <ele>672.9</ele>
        <time>2026-05-19T09:15:06Z</time>
      </trkpt>
      <trkpt lat="43.6849" lon="3.24833">
        <ele>672.9</ele>
        <time>2026-05-19T09:15:11Z</time>
      </trkpt>
      <trkpt lat="43.68484" lon="3.24835">
        <ele>672.9</ele>
        <time>2026-05-19T09:15:16Z</time>
      </trkpt>
      <trkpt lat="43.68475" lon="3.24836">
        <ele>672.8</ele>
        <time>2026-05-19T09:15:21Z</time>
      </trkpt>
      <trkpt lat="43.68467" lon="3.24835">
        <ele>672.7</ele>
        <time>2026-05-19T09:15:26Z</time>
      </trkpt>
      <trkpt lat="43.6846" lon="3.24834">
        <ele>672.5</ele>
        <time>2026-05-19T09:15:31Z</time>
      </trkpt>
      <trkpt lat="43.68453" lon="3.24831">
        <ele>672.3</ele>
        <time>2026-05-19T09:15:36Z</time>
      </trkpt>
      <trkpt lat="43.68447" lon="3.24827">
        <ele>672.1</ele>
        <time>2026-05-19T09:15:41Z</time>
      </trkpt>
      <trkpt lat="43.68441" lon="3.24823">
        <ele>672</ele>
        <time>2026-05-19T09:15:46Z</time>
      </trkpt>
      <trkpt lat="43.68433" lon="3.24818">
        <ele>671.8</ele>
        <time>2026-05-19T09:15:51Z</time>
      </trkpt>
      <trkpt lat="43.68426" lon="3.24813">
        <ele>671.7</ele>
        <time>2026-05-19T09:15:56Z</time>
      </trkpt>
      <trkpt lat="43.68419" lon="3.24807">
        <ele>671.7</ele>
        <time>2026-05-19T09:16:01Z</time>
      </trkpt>
      <trkpt lat="43.68413" lon="3.24802">
        <ele>671.4</ele>
        <time>2026-05-19T09:16:06Z</time>
      </trkpt>
      <trkpt lat="43.68407" lon="3.24796">
        <ele>671</ele>
        <time>2026-05-19T09:16:11Z</time>
      </trkpt>
      <trkpt lat="43.684" lon="3.24792">
        <ele>670.6</ele>
        <time>2026-05-19T09:16:16Z</time>
      </trkpt>
      <trkpt lat="43.68394" lon="3.24787">
        <ele>670.2</ele>
        <time>2026-05-19T09:16:21Z</time>
      </trkpt>
      <trkpt lat="43.68387" lon="3.24783">
        <ele>669.8</ele>
        <time>2026-05-19T09:16:26Z</time>
      </trkpt>
      <trkpt lat="43.68381" lon="3.2478">
        <ele>669.5</ele>
        <time>2026-05-19T09:16:31Z</time>
      </trkpt>
      <trkpt lat="43.68374" lon="3.24777">
        <ele>669.1</ele>
        <time>2026-05-19T09:16:36Z</time>
      </trkpt>
      <trkpt lat="43.68367" lon="3.24774">
        <ele>668.7</ele>
        <time>2026-05-19T09:16:41Z</time>
      </trkpt>
      <trkpt lat="43.6836" lon="3.24771">
        <ele>668.4</ele>
        <time>2026-05-19T09:16:46Z</time>
      </trkpt>
      <trkpt lat="43.68354" lon="3.24769">
        <ele>668</ele>
        <time>2026-05-19T09:16:51Z</time>
      </trkpt>
      <trkpt lat="43.68346" lon="3.24767">
        <ele>667.6</ele>
        <time>2026-05-19T09:16:56Z</time>
      </trkpt>
      <trkpt lat="43.68339" lon="3.24764">
        <ele>667.3</ele>
        <time>2026-05-19T09:17:01Z</time>
      </trkpt>
      <trkpt lat="43.68332" lon="3.24761">
        <ele>666.9</ele>
        <time>2026-05-19T09:17:06Z</time>
      </trkpt>
      <trkpt lat="43.68326" lon="3.24759">
        <ele>666.4</ele>
        <time>2026-05-19T09:17:11Z</time>
      </trkpt>
      <trkpt lat="43.68319" lon="3.24756">
        <ele>665.8</ele>
        <time>2026-05-19T09:17:16Z</time>
      </trkpt>
      <trkpt lat="43.68311" lon="3.24755">
        <ele>665.1</ele>
        <time>2026-05-19T09:17:21Z</time>
      </trkpt>
      <trkpt lat="43.68304" lon="3.24753">
        <ele>664.5</ele>
        <time>2026-05-19T09:17:26Z</time>
      </trkpt>
      <trkpt lat="43.68296" lon="3.24753">
        <ele>663.8</ele>
        <time>2026-05-19T09:17:31Z</time>
      </trkpt>
      <trkpt lat="43.68289" lon="3.24751">
        <ele>663.3</ele>
        <time>2026-05-19T09:17:36Z</time>
      </trkpt>
      <trkpt lat="43.68283" lon="3.24749">
        <ele>662.8</ele>
        <time>2026-05-19T09:17:41Z</time>
      </trkpt>
      <trkpt lat="43.68275" lon="3.24749">
        <ele>662.1</ele>
        <time>2026-05-19T09:17:46Z</time>
      </trkpt>
      <trkpt lat="43.68267" lon="3.24749">
        <ele>661.4</ele>
        <time>2026-05-19T09:17:51Z</time>
      </trkpt>
      <trkpt lat="43.68258" lon="3.24748">
        <ele>660.6</ele>
        <time>2026-05-19T09:17:56Z</time>
      </trkpt>
      <trkpt lat="43.68252" lon="3.24749">
        <ele>660.1</ele>
        <time>2026-05-19T09:18:01Z</time>
      </trkpt>
      <trkpt lat="43.68244" lon="3.24751">
        <ele>659.5</ele>
        <time>2026-05-19T09:18:06Z</time>
      </trkpt>
      <trkpt lat="43.68236" lon="3.24751">
        <ele>658.8</ele>
        <time>2026-05-19T09:18:11Z</time>
      </trkpt>
      <trkpt lat="43.68229" lon="3.24752">
        <ele>658.2</ele>
        <time>2026-05-19T09:18:16Z</time>
      </trkpt>
      <trkpt lat="43.68228" lon="3.24751">
        <ele>658.1</ele>
        <time>2026-05-19T09:18:21Z</time>
      </trkpt>
      <trkpt lat="43.68227" lon="3.2475">
        <ele>658.1</ele>
        <time>2026-05-19T09:18:26Z</time>
      </trkpt>
      <trkpt lat="43.68227" lon="3.2475">
        <ele>658.1</ele>
        <time>2026-05-19T09:18:31Z</time>
      </trkpt>
      <trkpt lat="43.68227" lon="3.2475">
        <ele>658.1</ele>
        <time>2026-05-19T09:18:36Z</time>
      </trkpt>
      <trkpt lat="43.68227" lon="3.2475">
        <ele>658.1</ele>
        <time>2026-05-19T09:18:41Z</time>
      </trkpt>
      <trkpt lat="43.68227" lon="3.2475">
        <ele>658.1</ele>
        <time>2026-05-19T09:18:46Z</time>
      </trkpt>
      <trkpt lat="43.68227" lon="3.2475">
        <ele>658.1</ele>
        <time>2026-05-19T09:18:51Z</time>
      </trkpt>
      <trkpt lat="43.68227" lon="3.2475">
        <ele>658.1</ele>
        <time>2026-05-19T09:18:56Z</time>
      </trkpt>
      <trkpt lat="43.68227" lon="3.2475">
        <ele>658.1</ele>
        <time>2026-05-19T09:19:01Z</time>
      </trkpt>
      <trkpt lat="43.68227" lon="3.2475">
        <ele>658.1</ele>
        <time>2026-05-19T09:19:06Z</time>
      </trkpt>
      <trkpt lat="43.68227" lon="3.2475">
        <ele>658.1</ele>
        <time>2026-05-19T09:19:11Z</time>
      </trkpt>
      <trkpt lat="43.68227" lon="3.2475">
        <ele>658.1</ele>
        <time>2026-05-19T09:19:16Z</time>
      </trkpt>
      <trkpt lat="43.68227" lon="3.2475">
        <ele>658.1</ele>
        <time>2026-05-19T09:19:21Z</time>
      </trkpt>
      <trkpt lat="43.68222" lon="3.24748">
        <ele>657.6</ele>
        <time>2026-05-19T09:19:26Z</time>
      </trkpt>
      <trkpt lat="43.68217" lon="3.2475">
        <ele>657.2</ele>
        <time>2026-05-19T09:19:31Z</time>
      </trkpt>
      <trkpt lat="43.68211" lon="3.24749">
        <ele>656.7</ele>
        <time>2026-05-19T09:19:36Z</time>
      </trkpt>
      <trkpt lat="43.68205" lon="3.2475">
        <ele>656.2</ele>
        <time>2026-05-19T09:19:41Z</time>
      </trkpt>
      <trkpt lat="43.68199" lon="3.2475">
        <ele>655.7</ele>
        <time>2026-05-19T09:19:46Z</time>
      </trkpt>
      <trkpt lat="43.68193" lon="3.24749">
        <ele>655.1</ele>
        <time>2026-05-19T09:19:51Z</time>
      </trkpt>
      <trkpt lat="43.68186" lon="3.24748">
        <ele>654.5</ele>
        <time>2026-05-19T09:19:56Z</time>
      </trkpt>
      <trkpt lat="43.68179" lon="3.24747">
        <ele>653.8</ele>
        <time>2026-05-19T09:20:01Z</time>
      </trkpt>
      <trkpt lat="43.68173" lon="3.24747">
        <ele>653.3</ele>
        <time>2026-05-19T09:20:06Z</time>
      </trkpt>
      <trkpt lat="43.68166" lon="3.24747">
        <ele>652.7</ele>
        <time>2026-05-19T09:20:11Z</time>
      </trkpt>
      <trkpt lat="43.68162" lon="3.24745">
        <ele>652.1</ele>
        <time>2026-05-19T09:20:16Z</time>
      </trkpt>
      <trkpt lat="43.68157" lon="3.24745">
        <ele>651.5</ele>
        <time>2026-05-19T09:20:21Z</time>
      </trkpt>
      <trkpt lat="43.68154" lon="3.24745">
        <ele>651.2</ele>
        <time>2026-05-19T09:20:26Z</time>
      </trkpt>
      <trkpt lat="43.68152" lon="3.24744">
        <ele>650.9</ele>
        <time>2026-05-19T09:20:31Z</time>
      </trkpt>
      <trkpt lat="43.68145" lon="3.24744">
        <ele>650.1</ele>
        <time>2026-05-19T09:20:36Z</time>
      </trkpt>
      <trkpt lat="43.68139" lon="3.24744">
        <ele>649.5</ele>
        <time>2026-05-19T09:20:41Z</time>
      </trkpt>
      <trkpt lat="43.68131" lon="3.24743">
        <ele>648.5</ele>
        <time>2026-05-19T09:20:46Z</time>
      </trkpt>
      <trkpt lat="43.68123" lon="3.24742">
        <ele>647.5</ele>
        <time>2026-05-19T09:20:51Z</time>
      </trkpt>
      <trkpt lat="43.68116" lon="3.24742">
        <ele>646.7</ele>
        <time>2026-05-19T09:20:56Z</time>
      </trkpt>
      <trkpt lat="43.68109" lon="3.24741">
        <ele>645.9</ele>
        <time>2026-05-19T09:21:01Z</time>
      </trkpt>
      <trkpt lat="43.68101" lon="3.24739">
        <ele>644.8</ele>
        <time>2026-05-19T09:21:06Z</time>
      </trkpt>
      <trkpt lat="43.68093" lon="3.24737">
        <ele>643.7</ele>
        <time>2026-05-19T09:21:11Z</time>
      </trkpt>
      <trkpt lat="43.68086" lon="3.24735">
        <ele>642.7</ele>
        <time>2026-05-19T09:21:16Z</time>
      </trkpt>
      <trkpt lat="43.68079" lon="3.24733">
        <ele>641.4</ele>
        <time>2026-05-19T09:21:21Z</time>
      </trkpt>
      <trkpt lat="43.68072" lon="3.24731">
        <ele>639.9</ele>
        <time>2026-05-19T09:21:26Z</time>
      </trkpt>
      <trkpt lat="43.68064" lon="3.24729">
        <ele>638.3</ele>
        <time>2026-05-19T09:21:31Z</time>
      </trkpt>
      <trkpt lat="43.68057" lon="3.24727">
        <ele>636.8</ele>
        <time>2026-05-19T09:21:36Z</time>
      </trkpt>
      <trkpt lat="43.6805" lon="3.24726">
        <ele>635.5</ele>
        <time>2026-05-19T09:21:41Z</time>
      </trkpt>
      <trkpt lat="43.68043" lon="3.24724">
        <ele>634.2</ele>
        <time>2026-05-19T09:21:46Z</time>
      </trkpt>
      <trkpt lat="43.68034" lon="3.24722">
        <ele>632.5</ele>
        <time>2026-05-19T09:21:51Z</time>
      </trkpt>
      <trkpt lat="43.68028" lon="3.24721">
        <ele>631.4</ele>
        <time>2026-05-19T09:21:56Z</time>
      </trkpt>
      <trkpt lat="43.68022" lon="3.24719">
        <ele>630.3</ele>
        <time>2026-05-19T09:22:01Z</time>
      </trkpt>
      <trkpt lat="43.68014" lon="3.24717">
        <ele>628.9</ele>
        <time>2026-05-19T09:22:06Z</time>
      </trkpt>
      <trkpt lat="43.68005" lon="3.24715">
        <ele>627.4</ele>
        <time>2026-05-19T09:22:11Z</time>
      </trkpt>
      <trkpt lat="43.67997" lon="3.24716">
        <ele>625.9</ele>
        <time>2026-05-19T09:22:16Z</time>
      </trkpt>
      <trkpt lat="43.67989" lon="3.2472">
        <ele>624.2</ele>
        <time>2026-05-19T09:22:21Z</time>
      </trkpt>
      <trkpt lat="43.67982" lon="3.24725">
        <ele>622.7</ele>
        <time>2026-05-19T09:22:26Z</time>
      </trkpt>
      <trkpt lat="43.67975" lon="3.2473">
        <ele>621.1</ele>
        <time>2026-05-19T09:22:31Z</time>
      </trkpt>
      <trkpt lat="43.67969" lon="3.24735">
        <ele>619.8</ele>
        <time>2026-05-19T09:22:36Z</time>
      </trkpt>
      <trkpt lat="43.67963" lon="3.24742">
        <ele>618.5</ele>
        <time>2026-05-19T09:22:41Z</time>
      </trkpt>
      <trkpt lat="43.67957" lon="3.24748">
        <ele>617.2</ele>
        <time>2026-05-19T09:22:46Z</time>
      </trkpt>
      <trkpt lat="43.67951" lon="3.24753">
        <ele>615.7</ele>
        <time>2026-05-19T09:22:51Z</time>
      </trkpt>
      <trkpt lat="43.67945" lon="3.24757">
        <ele>614.1</ele>
        <time>2026-05-19T09:22:56Z</time>
      </trkpt>
      <trkpt lat="43.67939" lon="3.24754">
        <ele>612.9</ele>
        <time>2026-05-19T09:23:01Z</time>
      </trkpt>
      <trkpt lat="43.67934" lon="3.24748">
        <ele>611.9</ele>
        <time>2026-05-19T09:23:06Z</time>
      </trkpt>
      <trkpt lat="43.67931" lon="3.24741">
        <ele>611.2</ele>
        <time>2026-05-19T09:23:11Z</time>
      </trkpt>
      <trkpt lat="43.67928" lon="3.2473">
        <ele>610.6</ele>
        <time>2026-05-19T09:23:16Z</time>
      </trkpt>
      <trkpt lat="43.67925" lon="3.24721">
        <ele>609.9</ele>
        <time>2026-05-19T09:23:21Z</time>
      </trkpt>
      <trkpt lat="43.67923" lon="3.24712">
        <ele>609.4</ele>
        <time>2026-05-19T09:23:26Z</time>
      </trkpt>
      <trkpt lat="43.67923" lon="3.24702">
        <ele>609.4</ele>
        <time>2026-05-19T09:23:31Z</time>
      </trkpt>
      <trkpt lat="43.67923" lon="3.24692">
        <ele>609.4</ele>
        <time>2026-05-19T09:23:36Z</time>
      </trkpt>
      <trkpt lat="43.67924" lon="3.24681">
        <ele>609.6</ele>
        <time>2026-05-19T09:23:41Z</time>
      </trkpt>
      <trkpt lat="43.67924" lon="3.24671">
        <ele>609.6</ele>
        <time>2026-05-19T09:23:46Z</time>
      </trkpt>
      <trkpt lat="43.67926" lon="3.24661">
        <ele>609.7</ele>
        <time>2026-05-19T09:23:51Z</time>
      </trkpt>
      <trkpt lat="43.67921" lon="3.24653">
        <ele>608.3</ele>
        <time>2026-05-19T09:23:56Z</time>
      </trkpt>
      <trkpt lat="43.67915" lon="3.24648">
        <ele>606.7</ele>
        <time>2026-05-19T09:24:01Z</time>
      </trkpt>
      <trkpt lat="43.6791" lon="3.24646">
        <ele>605.3</ele>
        <time>2026-05-19T09:24:06Z</time>
      </trkpt>
      <trkpt lat="43.67908" lon="3.24646">
        <ele>604.8</ele>
        <time>2026-05-19T09:24:11Z</time>
      </trkpt>
      <trkpt lat="43.67904" lon="3.24647">
        <ele>603.8</ele>
        <time>2026-05-19T09:24:16Z</time>
      </trkpt>
      <trkpt lat="43.67898" lon="3.24646">
        <ele>602.3</ele>
        <time>2026-05-19T09:24:21Z</time>
      </trkpt>
      <trkpt lat="43.67892" lon="3.24644">
        <ele>600.8</ele>
        <time>2026-05-19T09:24:26Z</time>
      </trkpt>
      <trkpt lat="43.67887" lon="3.24639">
        <ele>599.5</ele>
        <time>2026-05-19T09:24:31Z</time>
      </trkpt>
      <trkpt lat="43.67883" lon="3.24632">
        <ele>598.7</ele>
        <time>2026-05-19T09:24:36Z</time>
      </trkpt>
      <trkpt lat="43.67883" lon="3.24623">
        <ele>598.7</ele>
        <time>2026-05-19T09:24:41Z</time>
      </trkpt>
      <trkpt lat="43.67882" lon="3.24615">
        <ele>598.6</ele>
        <time>2026-05-19T09:24:46Z</time>
      </trkpt>
      <trkpt lat="43.67882" lon="3.24605">
        <ele>598.8</ele>
        <time>2026-05-19T09:24:51Z</time>
      </trkpt>
      <trkpt lat="43.67883" lon="3.24596">
        <ele>599</ele>
        <time>2026-05-19T09:24:56Z</time>
      </trkpt>
      <trkpt lat="43.67888" lon="3.2459">
        <ele>599.9</ele>
        <time>2026-05-19T09:25:01Z</time>
      </trkpt>
      <trkpt lat="43.67893" lon="3.24585">
        <ele>600.6</ele>
        <time>2026-05-19T09:25:06Z</time>
      </trkpt>
      <trkpt lat="43.67897" lon="3.24587">
        <ele>601.2</ele>
        <time>2026-05-19T09:25:11Z</time>
      </trkpt>
      <trkpt lat="43.67897" lon="3.24587">
        <ele>601.2</ele>
        <time>2026-05-19T09:25:16Z</time>
      </trkpt>
      <trkpt lat="43.67897" lon="3.24587">
        <ele>601.2</ele>
        <time>2026-05-19T09:25:21Z</time>
      </trkpt>
      <trkpt lat="43.67897" lon="3.24587">
        <ele>601.2</ele>
        <time>2026-05-19T09:25:26Z</time>
      </trkpt>
      <trkpt lat="43.67897" lon="3.24587">
        <ele>601.2</ele>
        <time>2026-05-19T09:25:31Z</time>
      </trkpt>
      <trkpt lat="43.67897" lon="3.24587">
        <ele>601.2</ele>
        <time>2026-05-19T09:25:36Z</time>
      </trkpt>
      <trkpt lat="43.67897" lon="3.24587">
        <ele>601.2</ele>
        <time>2026-05-19T09:25:41Z</time>
      </trkpt>
      <trkpt lat="43.67897" lon="3.24587">
        <ele>601.2</ele>
        <time>2026-05-19T09:25:46Z</time>
      </trkpt>
      <trkpt lat="43.67897" lon="3.24587">
        <ele>601.2</ele>
        <time>2026-05-19T09:25:51Z</time>
      </trkpt>
      <trkpt lat="43.67897" lon="3.24587">
        <ele>601.2</ele>
        <time>2026-05-19T09:25:56Z</time>
      </trkpt>
      <trkpt lat="43.67897" lon="3.24587">
        <ele>601.2</ele>
        <time>2026-05-19T09:26:01Z</time>
      </trkpt>
      <trkpt lat="43.67897" lon="3.24587">
        <ele>601.2</ele>
        <time>2026-05-19T09:26:06Z</time>
      </trkpt>
      <trkpt lat="43.67897" lon="3.24587">
        <ele>601.2</ele>
        <time>2026-05-19T09:26:11Z</time>
      </trkpt>
      <trkpt lat="43.67897" lon="3.24587">
        <ele>601.2</ele>
        <time>2026-05-19T09:26:16Z</time>
      </trkpt>
      <trkpt lat="43.67897" lon="3.24587">
        <ele>601.2</ele>
        <time>2026-05-19T09:26:21Z</time>
      </trkpt>
      <trkpt lat="43.67897" lon="3.24587">
        <ele>601.2</ele>
        <time>2026-05-19T09:26:26Z</time>
      </trkpt>
      <trkpt lat="43.67897" lon="3.24587">
        <ele>601.2</ele>
        <time>2026-05-19T09:26:31Z</time>
      </trkpt>
      <trkpt lat="43.67897" lon="3.24587">
        <ele>601.2</ele>
        <time>2026-05-19T09:26:36Z</time>
      </trkpt>
      <trkpt lat="43.67897" lon="3.24587">
        <ele>601.2</ele>
        <time>2026-05-19T09:26:41Z</time>
      </trkpt>
      <trkpt lat="43.67897" lon="3.24587">
        <ele>601.2</ele>
        <time>2026-05-19T09:26:46Z</time>
      </trkpt>
      <trkpt lat="43.67897" lon="3.24587">
        <ele>601.2</ele>
        <time>2026-05-19T09:26:51Z</time>
      </trkpt>
      <trkpt lat="43.67897" lon="3.24587">
        <ele>601.2</ele>
        <time>2026-05-19T09:26:56Z</time>
      </trkpt>
      <trkpt lat="43.67897" lon="3.24587">
        <ele>601.2</ele>
        <time>2026-05-19T09:27:01Z</time>
      </trkpt>
      <trkpt lat="43.67897" lon="3.24587">
        <ele>601.2</ele>
        <time>2026-05-19T09:27:06Z</time>
      </trkpt>
      <trkpt lat="43.67897" lon="3.24587">
        <ele>601.2</ele>
        <time>2026-05-19T09:27:11Z</time>
      </trkpt>
      <trkpt lat="43.67897" lon="3.24587">
        <ele>601.2</ele>
        <time>2026-05-19T09:27:16Z</time>
      </trkpt>
      <trkpt lat="43.67897" lon="3.24587">
        <ele>601.2</ele>
        <time>2026-05-19T09:27:21Z</time>
      </trkpt>
      <trkpt lat="43.67897" lon="3.24587">
        <ele>601.2</ele>
        <time>2026-05-19T09:27:26Z</time>
      </trkpt>
      <trkpt lat="43.67897" lon="3.24587">
        <ele>601.2</ele>
        <time>2026-05-19T09:27:31Z</time>
      </trkpt>
      <trkpt lat="43.67897" lon="3.24587">
        <ele>601.2</ele>
        <time>2026-05-19T09:27:36Z</time>
      </trkpt>
      <trkpt lat="43.67897" lon="3.24587">
        <ele>601.2</ele>
        <time>2026-05-19T09:27:41Z</time>
      </trkpt>
      <trkpt lat="43.67897" lon="3.24587">
        <ele>601.2</ele>
        <time>2026-05-19T09:27:46Z</time>
      </trkpt>
      <trkpt lat="43.67903" lon="3.24582">
        <ele>602.1</ele>
        <time>2026-05-19T09:27:51Z</time>
      </trkpt>
      <trkpt lat="43.6791" lon="3.24578">
        <ele>603.4</ele>
        <time>2026-05-19T09:27:56Z</time>
      </trkpt>
      <trkpt lat="43.67916" lon="3.2457">
        <ele>604.7</ele>
        <time>2026-05-19T09:28:01Z</time>
      </trkpt>
      <trkpt lat="43.67916" lon="3.24563">
        <ele>605.1</ele>
        <time>2026-05-19T09:28:06Z</time>
      </trkpt>
      <trkpt lat="43.67912" lon="3.24556">
        <ele>605.1</ele>
        <time>2026-05-19T09:28:11Z</time>
      </trkpt>
      <trkpt lat="43.67909" lon="3.24548">
        <ele>605.3</ele>
        <time>2026-05-19T09:28:16Z</time>
      </trkpt>
      <trkpt lat="43.67904" lon="3.24542">
        <ele>605.1</ele>
        <time>2026-05-19T09:28:21Z</time>
      </trkpt>
      <trkpt lat="43.67899" lon="3.24536">
        <ele>605</ele>
        <time>2026-05-19T09:28:26Z</time>
      </trkpt>
      <trkpt lat="43.67894" lon="3.24529">
        <ele>605.1</ele>
        <time>2026-05-19T09:28:31Z</time>
      </trkpt>
      <trkpt lat="43.67888" lon="3.24523">
        <ele>605</ele>
        <time>2026-05-19T09:28:36Z</time>
      </trkpt>
      <trkpt lat="43.67883" lon="3.24517">
        <ele>605.1</ele>
        <time>2026-05-19T09:28:41Z</time>
      </trkpt>
      <trkpt lat="43.67877" lon="3.24509">
        <ele>605.3</ele>
        <time>2026-05-19T09:28:46Z</time>
      </trkpt>
      <trkpt lat="43.67874" lon="3.24501">
        <ele>605.8</ele>
        <time>2026-05-19T09:28:51Z</time>
      </trkpt>
      <trkpt lat="43.67871" lon="3.24492">
        <ele>606.2</ele>
        <time>2026-05-19T09:28:56Z</time>
      </trkpt>
      <trkpt lat="43.67868" lon="3.24484">
        <ele>606.4</ele>
        <time>2026-05-19T09:29:01Z</time>
      </trkpt>
      <trkpt lat="43.67863" lon="3.24477">
        <ele>606.4</ele>
        <time>2026-05-19T09:29:06Z</time>
      </trkpt>
      <trkpt lat="43.67857" lon="3.24471">
        <ele>606.3</ele>
        <time>2026-05-19T09:29:11Z</time>
      </trkpt>
      <trkpt lat="43.67849" lon="3.24469">
        <ele>605.8</ele>
        <time>2026-05-19T09:29:16Z</time>
      </trkpt>
      <trkpt lat="43.67841" lon="3.24467">
        <ele>605.2</ele>
        <time>2026-05-19T09:29:21Z</time>
      </trkpt>
      <trkpt lat="43.67834" lon="3.24467">
        <ele>604.6</ele>
        <time>2026-05-19T09:29:26Z</time>
      </trkpt>
      <trkpt lat="43.67826" lon="3.24465">
        <ele>605.1</ele>
        <time>2026-05-19T09:29:31Z</time>
      </trkpt>
      <trkpt lat="43.67817" lon="3.24465">
        <ele>605.6</ele>
        <time>2026-05-19T09:29:36Z</time>
      </trkpt>
      <trkpt lat="43.6781" lon="3.24465">
        <ele>606</ele>
        <time>2026-05-19T09:29:41Z</time>
      </trkpt>
      <trkpt lat="43.67803" lon="3.24465">
        <ele>606.3</ele>
        <time>2026-05-19T09:29:46Z</time>
      </trkpt>
      <trkpt lat="43.67795" lon="3.24465">
        <ele>606.8</ele>
        <time>2026-05-19T09:29:51Z</time>
      </trkpt>
      <trkpt lat="43.67788" lon="3.24466">
        <ele>607.1</ele>
        <time>2026-05-19T09:29:56Z</time>
      </trkpt>
      <trkpt lat="43.67779" lon="3.24467">
        <ele>607.6</ele>
        <time>2026-05-19T09:30:01Z</time>
      </trkpt>
      <trkpt lat="43.67772" lon="3.24467">
        <ele>608</ele>
        <time>2026-05-19T09:30:06Z</time>
      </trkpt>
      <trkpt lat="43.67766" lon="3.24464">
        <ele>608.4</ele>
        <time>2026-05-19T09:30:11Z</time>
      </trkpt>
      <trkpt lat="43.67759" lon="3.24461">
        <ele>608.9</ele>
        <time>2026-05-19T09:30:16Z</time>
      </trkpt>
      <trkpt lat="43.67751" lon="3.24459">
        <ele>609.4</ele>
        <time>2026-05-19T09:30:21Z</time>
      </trkpt>
      <trkpt lat="43.67745" lon="3.24457">
        <ele>609.6</ele>
        <time>2026-05-19T09:30:26Z</time>
      </trkpt>
      <trkpt lat="43.67738" lon="3.24455">
        <ele>609.7</ele>
        <time>2026-05-19T09:30:31Z</time>
      </trkpt>
      <trkpt lat="43.6773" lon="3.24453">
        <ele>609.8</ele>
        <time>2026-05-19T09:30:36Z</time>
      </trkpt>
      <trkpt lat="43.67723" lon="3.2445">
        <ele>609.9</ele>
        <time>2026-05-19T09:30:41Z</time>
      </trkpt>
      <trkpt lat="43.67717" lon="3.24449">
        <ele>609.9</ele>
        <time>2026-05-19T09:30:46Z</time>
      </trkpt>
      <trkpt lat="43.67712" lon="3.24449">
        <ele>609.9</ele>
        <time>2026-05-19T09:30:51Z</time>
      </trkpt>
      <trkpt lat="43.67707" lon="3.24448">
        <ele>609.9</ele>
        <time>2026-05-19T09:30:56Z</time>
      </trkpt>
      <trkpt lat="43.67701" lon="3.24446">
        <ele>610</ele>
        <time>2026-05-19T09:31:01Z</time>
      </trkpt>
      <trkpt lat="43.67697" lon="3.24444">
        <ele>610</ele>
        <time>2026-05-19T09:31:06Z</time>
      </trkpt>
      <trkpt lat="43.67689" lon="3.24442">
        <ele>610</ele>
        <time>2026-05-19T09:31:11Z</time>
      </trkpt>
      <trkpt lat="43.67682" lon="3.2444">
        <ele>610</ele>
        <time>2026-05-19T09:31:16Z</time>
      </trkpt>
      <trkpt lat="43.67675" lon="3.24437">
        <ele>610</ele>
        <time>2026-05-19T09:31:21Z</time>
      </trkpt>
      <trkpt lat="43.67668" lon="3.24433">
        <ele>610</ele>
        <time>2026-05-19T09:31:26Z</time>
      </trkpt>
      <trkpt lat="43.67662" lon="3.2443">
        <ele>609.8</ele>
        <time>2026-05-19T09:31:31Z</time>
      </trkpt>
      <trkpt lat="43.67656" lon="3.24428">
        <ele>609.6</ele>
        <time>2026-05-19T09:31:36Z</time>
      </trkpt>
      <trkpt lat="43.6765" lon="3.24428">
        <ele>609.4</ele>
        <time>2026-05-19T09:31:41Z</time>
      </trkpt>
      <trkpt lat="43.67644" lon="3.2443">
        <ele>609.2</ele>
        <time>2026-05-19T09:31:46Z</time>
      </trkpt>
      <trkpt lat="43.67638" lon="3.24431">
        <ele>608.9</ele>
        <time>2026-05-19T09:31:51Z</time>
      </trkpt>
      <trkpt lat="43.67632" lon="3.24434">
        <ele>608.6</ele>
        <time>2026-05-19T09:31:56Z</time>
      </trkpt>
      <trkpt lat="43.67625" lon="3.24436">
        <ele>608.2</ele>
        <time>2026-05-19T09:32:01Z</time>
      </trkpt>
      <trkpt lat="43.67619" lon="3.24437">
        <ele>607.9</ele>
        <time>2026-05-19T09:32:06Z</time>
      </trkpt>
      <trkpt lat="43.67613" lon="3.24439">
        <ele>607.5</ele>
        <time>2026-05-19T09:32:11Z</time>
      </trkpt>
      <trkpt lat="43.67606" lon="3.24439">
        <ele>607.2</ele>
        <time>2026-05-19T09:32:16Z</time>
      </trkpt>
      <trkpt lat="43.67599" lon="3.24439">
        <ele>606.9</ele>
        <time>2026-05-19T09:32:21Z</time>
      </trkpt>
      <trkpt lat="43.67593" lon="3.24437">
        <ele>606.7</ele>
        <time>2026-05-19T09:32:26Z</time>
      </trkpt>
      <trkpt lat="43.67586" lon="3.24438">
        <ele>606.3</ele>
        <time>2026-05-19T09:32:31Z</time>
      </trkpt>
      <trkpt lat="43.6758" lon="3.24436">
        <ele>606.1</ele>
        <time>2026-05-19T09:32:36Z</time>
      </trkpt>
      <trkpt lat="43.67572" lon="3.24433">
        <ele>605.8</ele>
        <time>2026-05-19T09:32:41Z</time>
      </trkpt>
      <trkpt lat="43.67565" lon="3.24431">
        <ele>605.4</ele>
        <time>2026-05-19T09:32:46Z</time>
      </trkpt>
      <trkpt lat="43.67558" lon="3.24429">
        <ele>605.1</ele>
        <time>2026-05-19T09:32:51Z</time>
      </trkpt>
      <trkpt lat="43.67551" lon="3.24425">
        <ele>605.1</ele>
        <time>2026-05-19T09:32:56Z</time>
      </trkpt>
      <trkpt lat="43.67544" lon="3.24422">
        <ele>605</ele>
        <time>2026-05-19T09:33:01Z</time>
      </trkpt>
      <trkpt lat="43.67538" lon="3.24419">
        <ele>605</ele>
        <time>2026-05-19T09:33:06Z</time>
      </trkpt>
      <trkpt lat="43.67538" lon="3.24414">
        <ele>605.4</ele>
        <time>2026-05-19T09:33:11Z</time>
      </trkpt>
      <trkpt lat="43.67537" lon="3.24411">
        <ele>605.5</ele>
        <time>2026-05-19T09:33:16Z</time>
      </trkpt>
      <trkpt lat="43.67536" lon="3.2441">
        <ele>605.5</ele>
        <time>2026-05-19T09:33:21Z</time>
      </trkpt>
      <trkpt lat="43.67536" lon="3.2441">
        <ele>605.5</ele>
        <time>2026-05-19T09:33:26Z</time>
      </trkpt>
      <trkpt lat="43.67536" lon="3.2441">
        <ele>605.5</ele>
        <time>2026-05-19T09:33:31Z</time>
      </trkpt>
      <trkpt lat="43.67536" lon="3.2441">
        <ele>605.5</ele>
        <time>2026-05-19T09:33:36Z</time>
      </trkpt>
      <trkpt lat="43.67536" lon="3.2441">
        <ele>605.5</ele>
        <time>2026-05-19T09:33:41Z</time>
      </trkpt>
      <trkpt lat="43.67536" lon="3.2441">
        <ele>605.5</ele>
        <time>2026-05-19T09:33:46Z</time>
      </trkpt>
      <trkpt lat="43.67536" lon="3.2441">
        <ele>605.5</ele>
        <time>2026-05-19T09:33:51Z</time>
      </trkpt>
      <trkpt lat="43.67536" lon="3.2441">
        <ele>605.5</ele>
        <time>2026-05-19T09:33:56Z</time>
      </trkpt>
      <trkpt lat="43.67536" lon="3.2441">
        <ele>605.5</ele>
        <time>2026-05-19T09:34:01Z</time>
      </trkpt>
      <trkpt lat="43.67536" lon="3.2441">
        <ele>605.5</ele>
        <time>2026-05-19T09:34:06Z</time>
      </trkpt>
      <trkpt lat="43.67536" lon="3.2441">
        <ele>605.5</ele>
        <time>2026-05-19T09:34:11Z</time>
      </trkpt>
      <trkpt lat="43.67536" lon="3.2441">
        <ele>605.5</ele>
        <time>2026-05-19T09:34:16Z</time>
      </trkpt>
      <trkpt lat="43.67536" lon="3.2441">
        <ele>605.5</ele>
        <time>2026-05-19T09:34:21Z</time>
      </trkpt>
      <trkpt lat="43.67536" lon="3.2441">
        <ele>605.5</ele>
        <time>2026-05-19T09:34:26Z</time>
      </trkpt>
      <trkpt lat="43.67536" lon="3.2441">
        <ele>605.5</ele>
        <time>2026-05-19T09:34:31Z</time>
      </trkpt>
      <trkpt lat="43.67536" lon="3.2441">
        <ele>605.5</ele>
        <time>2026-05-19T09:34:36Z</time>
      </trkpt>
      <trkpt lat="43.67536" lon="3.2441">
        <ele>605.5</ele>
        <time>2026-05-19T09:34:41Z</time>
      </trkpt>
      <trkpt lat="43.67536" lon="3.2441">
        <ele>605.5</ele>
        <time>2026-05-19T09:34:46Z</time>
      </trkpt>
      <trkpt lat="43.67536" lon="3.2441">
        <ele>605.5</ele>
        <time>2026-05-19T09:34:51Z</time>
      </trkpt>
      <trkpt lat="43.67536" lon="3.2441">
        <ele>605.5</ele>
        <time>2026-05-19T09:34:56Z</time>
      </trkpt>
      <trkpt lat="43.67536" lon="3.2441">
        <ele>605.5</ele>
        <time>2026-05-19T09:35:01Z</time>
      </trkpt>
      <trkpt lat="43.67536" lon="3.2441">
        <ele>605.5</ele>
        <time>2026-05-19T09:35:06Z</time>
      </trkpt>
      <trkpt lat="43.67536" lon="3.2441">
        <ele>605.5</ele>
        <time>2026-05-19T09:35:11Z</time>
      </trkpt>
      <trkpt lat="43.67536" lon="3.2441">
        <ele>605.5</ele>
        <time>2026-05-19T09:35:16Z</time>
      </trkpt>
      <trkpt lat="43.67536" lon="3.2441">
        <ele>605.5</ele>
        <time>2026-05-19T09:35:21Z</time>
      </trkpt>
      <trkpt lat="43.67536" lon="3.2441">
        <ele>605.5</ele>
        <time>2026-05-19T09:35:26Z</time>
      </trkpt>
      <trkpt lat="43.67536" lon="3.2441">
        <ele>605.5</ele>
        <time>2026-05-19T09:35:31Z</time>
      </trkpt>
      <trkpt lat="43.67536" lon="3.2441">
        <ele>605.5</ele>
        <time>2026-05-19T09:35:36Z</time>
      </trkpt>
      <trkpt lat="43.67536" lon="3.2441">
        <ele>605.5</ele>
        <time>2026-05-19T09:35:41Z</time>
      </trkpt>
      <trkpt lat="43.67536" lon="3.2441">
        <ele>605.5</ele>
        <time>2026-05-19T09:35:46Z</time>
      </trkpt>
      <trkpt lat="43.67536" lon="3.2441">
        <ele>605.5</ele>
        <time>2026-05-19T09:35:51Z</time>
      </trkpt>
      <trkpt lat="43.67536" lon="3.2441">
        <ele>605.5</ele>
        <time>2026-05-19T09:35:56Z</time>
      </trkpt>
      <trkpt lat="43.67536" lon="3.2441">
        <ele>605.5</ele>
        <time>2026-05-19T09:36:01Z</time>
      </trkpt>
      <trkpt lat="43.67536" lon="3.2441">
        <ele>605.5</ele>
        <time>2026-05-19T09:36:06Z</time>
      </trkpt>
      <trkpt lat="43.67536" lon="3.2441">
        <ele>605.5</ele>
        <time>2026-05-19T09:36:11Z</time>
      </trkpt>
      <trkpt lat="43.67536" lon="3.2441">
        <ele>605.5</ele>
        <time>2026-05-19T09:36:16Z</time>
      </trkpt>
      <trkpt lat="43.67536" lon="3.2441">
        <ele>605.5</ele>
        <time>2026-05-19T09:36:21Z</time>
      </trkpt>
      <trkpt lat="43.67536" lon="3.2441">
        <ele>605.5</ele>
        <time>2026-05-19T09:36:26Z</time>
      </trkpt>
      <trkpt lat="43.67536" lon="3.2441">
        <ele>605.5</ele>
        <time>2026-05-19T09:36:31Z</time>
      </trkpt>
      <trkpt lat="43.67536" lon="3.2441">
        <ele>605.5</ele>
        <time>2026-05-19T09:36:36Z</time>
      </trkpt>
      <trkpt lat="43.67536" lon="3.2441">
        <ele>605.5</ele>
        <time>2026-05-19T09:36:41Z</time>
      </trkpt>
      <trkpt lat="43.67536" lon="3.2441">
        <ele>605.5</ele>
        <time>2026-05-19T09:36:46Z</time>
      </trkpt>
      <trkpt lat="43.67536" lon="3.2441">
        <ele>605.5</ele>
        <time>2026-05-19T09:36:51Z</time>
      </trkpt>
      <trkpt lat="43.67536" lon="3.2441">
        <ele>605.5</ele>
        <time>2026-05-19T09:36:56Z</time>
      </trkpt>
      <trkpt lat="43.67536" lon="3.2441">
        <ele>605.5</ele>
        <time>2026-05-19T09:37:01Z</time>
      </trkpt>
      <trkpt lat="43.67536" lon="3.2441">
        <ele>605.5</ele>
        <time>2026-05-19T09:37:06Z</time>
      </trkpt>
      <trkpt lat="43.67536" lon="3.24414">
        <ele>605.3</ele>
        <time>2026-05-19T09:37:11Z</time>
      </trkpt>
      <trkpt lat="43.67531" lon="3.24417">
        <ele>604.8</ele>
        <time>2026-05-19T09:37:16Z</time>
      </trkpt>
      <trkpt lat="43.67526" lon="3.24416">
        <ele>604.6</ele>
        <time>2026-05-19T09:37:21Z</time>
      </trkpt>
      <trkpt lat="43.6752" lon="3.24416">
        <ele>604.2</ele>
        <time>2026-05-19T09:37:26Z</time>
      </trkpt>
      <trkpt lat="43.67513" lon="3.24415">
        <ele>603.9</ele>
        <time>2026-05-19T09:37:31Z</time>
      </trkpt>
      <trkpt lat="43.67506" lon="3.24413">
        <ele>603.6</ele>
        <time>2026-05-19T09:37:36Z</time>
      </trkpt>
      <trkpt lat="43.675" lon="3.24412">
        <ele>603.3</ele>
        <time>2026-05-19T09:37:41Z</time>
      </trkpt>
      <trkpt lat="43.67494" lon="3.24412">
        <ele>603</ele>
        <time>2026-05-19T09:37:46Z</time>
      </trkpt>
      <trkpt lat="43.67487" lon="3.24413">
        <ele>602.6</ele>
        <time>2026-05-19T09:37:51Z</time>
      </trkpt>
      <trkpt lat="43.6748" lon="3.24414">
        <ele>602.2</ele>
        <time>2026-05-19T09:37:56Z</time>
      </trkpt>
      <trkpt lat="43.67472" lon="3.24415">
        <ele>601.7</ele>
        <time>2026-05-19T09:38:01Z</time>
      </trkpt>
      <trkpt lat="43.67464" lon="3.24416">
        <ele>601.3</ele>
        <time>2026-05-19T09:38:06Z</time>
      </trkpt>
      <trkpt lat="43.67456" lon="3.24416">
        <ele>600.9</ele>
        <time>2026-05-19T09:38:11Z</time>
      </trkpt>
      <trkpt lat="43.67451" lon="3.24417">
        <ele>600.6</ele>
        <time>2026-05-19T09:38:16Z</time>
      </trkpt>
      <trkpt lat="43.67443" lon="3.24416">
        <ele>600.3</ele>
        <time>2026-05-19T09:38:21Z</time>
      </trkpt>
      <trkpt lat="43.67436" lon="3.24416">
        <ele>599.9</ele>
        <time>2026-05-19T09:38:26Z</time>
      </trkpt>
      <trkpt lat="43.67429" lon="3.24416">
        <ele>599.6</ele>
        <time>2026-05-19T09:38:31Z</time>
      </trkpt>
      <trkpt lat="43.67422" lon="3.24415">
        <ele>599.3</ele>
        <time>2026-05-19T09:38:36Z</time>
      </trkpt>
      <trkpt lat="43.67415" lon="3.24414">
        <ele>598.8</ele>
        <time>2026-05-19T09:38:41Z</time>
      </trkpt>
      <trkpt lat="43.67409" lon="3.24414">
        <ele>598.2</ele>
        <time>2026-05-19T09:38:46Z</time>
      </trkpt>
      <trkpt lat="43.67403" lon="3.24415">
        <ele>597.5</ele>
        <time>2026-05-19T09:38:51Z</time>
      </trkpt>
      <trkpt lat="43.67398" lon="3.24415">
        <ele>597</ele>
        <time>2026-05-19T09:38:56Z</time>
      </trkpt>
      <trkpt lat="43.67393" lon="3.24415">
        <ele>596.4</ele>
        <time>2026-05-19T09:39:01Z</time>
      </trkpt>
      <trkpt lat="43.67391" lon="3.24416">
        <ele>596.2</ele>
        <time>2026-05-19T09:39:06Z</time>
      </trkpt>
      <trkpt lat="43.67391" lon="3.24416">
        <ele>596.2</ele>
        <time>2026-05-19T09:39:11Z</time>
      </trkpt>
      <trkpt lat="43.67391" lon="3.24416">
        <ele>596.2</ele>
        <time>2026-05-19T09:39:16Z</time>
      </trkpt>
      <trkpt lat="43.67391" lon="3.24416">
        <ele>596.2</ele>
        <time>2026-05-19T09:39:21Z</time>
      </trkpt>
      <trkpt lat="43.67389" lon="3.24416">
        <ele>596</ele>
        <time>2026-05-19T09:39:26Z</time>
      </trkpt>
      <trkpt lat="43.67382" lon="3.24415">
        <ele>595.2</ele>
        <time>2026-05-19T09:39:31Z</time>
      </trkpt>
      <trkpt lat="43.67377" lon="3.24415">
        <ele>594.7</ele>
        <time>2026-05-19T09:39:36Z</time>
      </trkpt>
      <trkpt lat="43.67372" lon="3.24416">
        <ele>594.2</ele>
        <time>2026-05-19T09:39:41Z</time>
      </trkpt>
      <trkpt lat="43.67367" lon="3.24417">
        <ele>593.6</ele>
        <time>2026-05-19T09:39:46Z</time>
      </trkpt>
      <trkpt lat="43.67361" lon="3.24417">
        <ele>593</ele>
        <time>2026-05-19T09:39:51Z</time>
      </trkpt>
      <trkpt lat="43.67356" lon="3.24418">
        <ele>592.4</ele>
        <time>2026-05-19T09:39:56Z</time>
      </trkpt>
      <trkpt lat="43.6735" lon="3.24419">
        <ele>591.7</ele>
        <time>2026-05-19T09:40:01Z</time>
      </trkpt>
      <trkpt lat="43.67343" lon="3.2442">
        <ele>590.9</ele>
        <time>2026-05-19T09:40:06Z</time>
      </trkpt>
      <trkpt lat="43.67337" lon="3.24421">
        <ele>590.2</ele>
        <time>2026-05-19T09:40:11Z</time>
      </trkpt>
      <trkpt lat="43.67332" lon="3.24421">
        <ele>589.7</ele>
        <time>2026-05-19T09:40:16Z</time>
      </trkpt>
      <trkpt lat="43.67325" lon="3.24421">
        <ele>588.8</ele>
        <time>2026-05-19T09:40:21Z</time>
      </trkpt>
      <trkpt lat="43.67319" lon="3.24421">
        <ele>588.1</ele>
        <time>2026-05-19T09:40:26Z</time>
      </trkpt>
      <trkpt lat="43.67313" lon="3.24421">
        <ele>587.4</ele>
        <time>2026-05-19T09:40:31Z</time>
      </trkpt>
      <trkpt lat="43.67307" lon="3.24421">
        <ele>586.7</ele>
        <time>2026-05-19T09:40:36Z</time>
      </trkpt>
      <trkpt lat="43.67301" lon="3.2442">
        <ele>586</ele>
        <time>2026-05-19T09:40:41Z</time>
      </trkpt>
      <trkpt lat="43.67294" lon="3.24419">
        <ele>585.2</ele>
        <time>2026-05-19T09:40:46Z</time>
      </trkpt>
      <trkpt lat="43.67287" lon="3.24417">
        <ele>584.4</ele>
        <time>2026-05-19T09:40:51Z</time>
      </trkpt>
      <trkpt lat="43.6728" lon="3.24415">
        <ele>583.5</ele>
        <time>2026-05-19T09:40:56Z</time>
      </trkpt>
      <trkpt lat="43.67272" lon="3.24414">
        <ele>582.5</ele>
        <time>2026-05-19T09:41:01Z</time>
      </trkpt>
      <trkpt lat="43.67265" lon="3.24412">
        <ele>581.5</ele>
        <time>2026-05-19T09:41:06Z</time>
      </trkpt>
      <trkpt lat="43.67259" lon="3.24411">
        <ele>580.6</ele>
        <time>2026-05-19T09:41:11Z</time>
      </trkpt>
      <trkpt lat="43.67255" lon="3.24412">
        <ele>580.2</ele>
        <time>2026-05-19T09:41:16Z</time>
      </trkpt>
      <trkpt lat="43.67249" lon="3.24412">
        <ele>579.4</ele>
        <time>2026-05-19T09:41:21Z</time>
      </trkpt>
      <trkpt lat="43.67243" lon="3.24412">
        <ele>578.4</ele>
        <time>2026-05-19T09:41:26Z</time>
      </trkpt>
      <trkpt lat="43.67235" lon="3.24412">
        <ele>576.9</ele>
        <time>2026-05-19T09:41:31Z</time>
      </trkpt>
      <trkpt lat="43.67229" lon="3.24411">
        <ele>575.8</ele>
        <time>2026-05-19T09:41:36Z</time>
      </trkpt>
      <trkpt lat="43.67222" lon="3.24409">
        <ele>574.4</ele>
        <time>2026-05-19T09:41:41Z</time>
      </trkpt>
      <trkpt lat="43.67215" lon="3.24409">
        <ele>573.2</ele>
        <time>2026-05-19T09:41:46Z</time>
      </trkpt>
      <trkpt lat="43.67208" lon="3.24408">
        <ele>571.9</ele>
        <time>2026-05-19T09:41:51Z</time>
      </trkpt>
      <trkpt lat="43.67201" lon="3.2441">
        <ele>570.8</ele>
        <time>2026-05-19T09:41:56Z</time>
      </trkpt>
      <trkpt lat="43.67195" lon="3.24413">
        <ele>569.9</ele>
        <time>2026-05-19T09:42:01Z</time>
      </trkpt>
      <trkpt lat="43.67189" lon="3.24416">
        <ele>569</ele>
        <time>2026-05-19T09:42:06Z</time>
      </trkpt>
      <trkpt lat="43.67182" lon="3.24416">
        <ele>567.7</ele>
        <time>2026-05-19T09:42:11Z</time>
      </trkpt>
      <trkpt lat="43.67176" lon="3.24417">
        <ele>566.6</ele>
        <time>2026-05-19T09:42:16Z</time>
      </trkpt>
      <trkpt lat="43.67169" lon="3.24416">
        <ele>565.4</ele>
        <time>2026-05-19T09:42:21Z</time>
      </trkpt>
      <trkpt lat="43.67163" lon="3.24416">
        <ele>564.6</ele>
        <time>2026-05-19T09:42:26Z</time>
      </trkpt>
      <trkpt lat="43.67157" lon="3.24414">
        <ele>564</ele>
        <time>2026-05-19T09:42:31Z</time>
      </trkpt>
      <trkpt lat="43.6715" lon="3.2441">
        <ele>563.2</ele>
        <time>2026-05-19T09:42:36Z</time>
      </trkpt>
      <trkpt lat="43.67144" lon="3.24407">
        <ele>562.6</ele>
        <time>2026-05-19T09:42:41Z</time>
      </trkpt>
      <trkpt lat="43.67137" lon="3.24405">
        <ele>562</ele>
        <time>2026-05-19T09:42:46Z</time>
      </trkpt>
      <trkpt lat="43.67133" lon="3.24406">
        <ele>561.7</ele>
        <time>2026-05-19T09:42:51Z</time>
      </trkpt>
      <trkpt lat="43.67131" lon="3.24404">
        <ele>561.5</ele>
        <time>2026-05-19T09:42:56Z</time>
      </trkpt>
      <trkpt lat="43.67131" lon="3.24404">
        <ele>561.5</ele>
        <time>2026-05-19T09:43:01Z</time>
      </trkpt>
      <trkpt lat="43.67131" lon="3.24404">
        <ele>561.5</ele>
        <time>2026-05-19T09:43:06Z</time>
      </trkpt>
      <trkpt lat="43.67131" lon="3.24404">
        <ele>561.5</ele>
        <time>2026-05-19T09:43:11Z</time>
      </trkpt>
      <trkpt lat="43.67131" lon="3.24404">
        <ele>561.5</ele>
        <time>2026-05-19T09:43:16Z</time>
      </trkpt>
      <trkpt lat="43.67126" lon="3.24394">
        <ele>561.1</ele>
        <time>2026-05-19T09:43:21Z</time>
      </trkpt>
      <trkpt lat="43.6712" lon="3.24388">
        <ele>560.7</ele>
        <time>2026-05-19T09:43:26Z</time>
      </trkpt>
      <trkpt lat="43.67115" lon="3.24383">
        <ele>560.4</ele>
        <time>2026-05-19T09:43:31Z</time>
      </trkpt>
      <trkpt lat="43.67108" lon="3.24378">
        <ele>560.1</ele>
        <time>2026-05-19T09:43:36Z</time>
      </trkpt>
      <trkpt lat="43.67103" lon="3.24373">
        <ele>560</ele>
        <time>2026-05-19T09:43:41Z</time>
      </trkpt>
      <trkpt lat="43.67097" lon="3.24369">
        <ele>559.8</ele>
        <time>2026-05-19T09:43:46Z</time>
      </trkpt>
      <trkpt lat="43.67091" lon="3.24364">
        <ele>559.8</ele>
        <time>2026-05-19T09:43:51Z</time>
      </trkpt>
      <trkpt lat="43.67084" lon="3.2436">
        <ele>559.7</ele>
        <time>2026-05-19T09:43:56Z</time>
      </trkpt>
      <trkpt lat="43.67078" lon="3.24358">
        <ele>558.8</ele>
        <time>2026-05-19T09:44:01Z</time>
      </trkpt>
      <trkpt lat="43.67073" lon="3.24356">
        <ele>558</ele>
        <time>2026-05-19T09:44:06Z</time>
      </trkpt>
      <trkpt lat="43.67067" lon="3.24353">
        <ele>557.1</ele>
        <time>2026-05-19T09:44:11Z</time>
      </trkpt>
      <trkpt lat="43.6706" lon="3.2435">
        <ele>556.2</ele>
        <time>2026-05-19T09:44:16Z</time>
      </trkpt>
      <trkpt lat="43.67053" lon="3.24348">
        <ele>555.2</ele>
        <time>2026-05-19T09:44:21Z</time>
      </trkpt>
      <trkpt lat="43.67047" lon="3.24344">
        <ele>554.7</ele>
        <time>2026-05-19T09:44:26Z</time>
      </trkpt>
      <trkpt lat="43.67035" lon="3.24335">
        <ele>554.3</ele>
        <time>2026-05-19T09:44:31Z</time>
      </trkpt>
      <trkpt lat="43.67025" lon="3.24328">
        <ele>553.2</ele>
        <time>2026-05-19T09:44:36Z</time>
      </trkpt>
      <trkpt lat="43.67021" lon="3.24323">
        <ele>552.7</ele>
        <time>2026-05-19T09:44:41Z</time>
      </trkpt>
      <trkpt lat="43.67015" lon="3.2432">
        <ele>552</ele>
        <time>2026-05-19T09:44:46Z</time>
      </trkpt>
      <trkpt lat="43.6701" lon="3.24314">
        <ele>551.5</ele>
        <time>2026-05-19T09:44:51Z</time>
      </trkpt>
      <trkpt lat="43.67004" lon="3.24308">
        <ele>551</ele>
        <time>2026-05-19T09:44:56Z</time>
      </trkpt>
      <trkpt lat="43.66999" lon="3.243">
        <ele>550.5</ele>
        <time>2026-05-19T09:45:01Z</time>
      </trkpt>
      <trkpt lat="43.66995" lon="3.24293">
        <ele>549.3</ele>
        <time>2026-05-19T09:45:06Z</time>
      </trkpt>
      <trkpt lat="43.66992" lon="3.24285">
        <ele>548.7</ele>
        <time>2026-05-19T09:45:11Z</time>
      </trkpt>
      <trkpt lat="43.66986" lon="3.24279">
        <ele>547.3</ele>
        <time>2026-05-19T09:45:16Z</time>
      </trkpt>
      <trkpt lat="43.66982" lon="3.24272">
        <ele>546.7</ele>
        <time>2026-05-19T09:45:21Z</time>
      </trkpt>
      <trkpt lat="43.66975" lon="3.24268">
        <ele>545.2</ele>
        <time>2026-05-19T09:45:26Z</time>
      </trkpt>
      <trkpt lat="43.66969" lon="3.24265">
        <ele>544</ele>
        <time>2026-05-19T09:45:31Z</time>
      </trkpt>
      <trkpt lat="43.66963" lon="3.24261">
        <ele>543</ele>
        <time>2026-05-19T09:45:36Z</time>
      </trkpt>
      <trkpt lat="43.66957" lon="3.24257">
        <ele>542.2</ele>
        <time>2026-05-19T09:45:41Z</time>
      </trkpt>
      <trkpt lat="43.66949" lon="3.24253">
        <ele>541.1</ele>
        <time>2026-05-19T09:45:46Z</time>
      </trkpt>
      <trkpt lat="43.66943" lon="3.24249">
        <ele>540.3</ele>
        <time>2026-05-19T09:45:51Z</time>
      </trkpt>
      <trkpt lat="43.66936" lon="3.24244">
        <ele>538.8</ele>
        <time>2026-05-19T09:45:56Z</time>
      </trkpt>
      <trkpt lat="43.66932" lon="3.24238">
        <ele>537.9</ele>
        <time>2026-05-19T09:46:01Z</time>
      </trkpt>
      <trkpt lat="43.66927" lon="3.24232">
        <ele>536.9</ele>
        <time>2026-05-19T09:46:06Z</time>
      </trkpt>
      <trkpt lat="43.6692" lon="3.24225">
        <ele>535.8</ele>
        <time>2026-05-19T09:46:11Z</time>
      </trkpt>
      <trkpt lat="43.66914" lon="3.24219">
        <ele>534.8</ele>
        <time>2026-05-19T09:46:16Z</time>
      </trkpt>
      <trkpt lat="43.66909" lon="3.24212">
        <ele>534</ele>
        <time>2026-05-19T09:46:21Z</time>
      </trkpt>
      <trkpt lat="43.66905" lon="3.24206">
        <ele>533.4</ele>
        <time>2026-05-19T09:46:26Z</time>
      </trkpt>
      <trkpt lat="43.669" lon="3.24203">
        <ele>532.7</ele>
        <time>2026-05-19T09:46:31Z</time>
      </trkpt>
      <trkpt lat="43.66894" lon="3.24203">
        <ele>531.6</ele>
        <time>2026-05-19T09:46:36Z</time>
      </trkpt>
      <trkpt lat="43.66887" lon="3.24205">
        <ele>530.3</ele>
        <time>2026-05-19T09:46:41Z</time>
      </trkpt>
      <trkpt lat="43.6688" lon="3.24204">
        <ele>529.1</ele>
        <time>2026-05-19T09:46:46Z</time>
      </trkpt>
      <trkpt lat="43.66874" lon="3.24202">
        <ele>528.3</ele>
        <time>2026-05-19T09:46:51Z</time>
      </trkpt>
      <trkpt lat="43.66867" lon="3.24199">
        <ele>527.5</ele>
        <time>2026-05-19T09:46:56Z</time>
      </trkpt>
      <trkpt lat="43.66859" lon="3.24197">
        <ele>526.5</ele>
        <time>2026-05-19T09:47:01Z</time>
      </trkpt>
      <trkpt lat="43.66856" lon="3.24195">
        <ele>526.4</ele>
        <time>2026-05-19T09:47:06Z</time>
      </trkpt>
      <trkpt lat="43.66854" lon="3.24193">
        <ele>526.4</ele>
        <time>2026-05-19T09:47:11Z</time>
      </trkpt>
      <trkpt lat="43.66854" lon="3.24193">
        <ele>526.4</ele>
        <time>2026-05-19T09:47:16Z</time>
      </trkpt>
      <trkpt lat="43.66854" lon="3.24193">
        <ele>526.4</ele>
        <time>2026-05-19T09:47:21Z</time>
      </trkpt>
      <trkpt lat="43.66854" lon="3.24193">
        <ele>526.4</ele>
        <time>2026-05-19T09:47:26Z</time>
      </trkpt>
      <trkpt lat="43.66854" lon="3.24193">
        <ele>526.4</ele>
        <time>2026-05-19T09:47:31Z</time>
      </trkpt>
      <trkpt lat="43.66854" lon="3.24193">
        <ele>526.4</ele>
        <time>2026-05-19T09:47:36Z</time>
      </trkpt>
      <trkpt lat="43.66854" lon="3.24193">
        <ele>526.4</ele>
        <time>2026-05-19T09:47:41Z</time>
      </trkpt>
      <trkpt lat="43.66854" lon="3.24193">
        <ele>526.4</ele>
        <time>2026-05-19T09:47:46Z</time>
      </trkpt>
      <trkpt lat="43.66854" lon="3.24193">
        <ele>526.4</ele>
        <time>2026-05-19T09:47:51Z</time>
      </trkpt>
      <trkpt lat="43.6685" lon="3.24192">
        <ele>526</ele>
        <time>2026-05-19T09:47:56Z</time>
      </trkpt>
      <trkpt lat="43.66846" lon="3.24191">
        <ele>525.6</ele>
        <time>2026-05-19T09:48:01Z</time>
      </trkpt>
      <trkpt lat="43.6684" lon="3.24188">
        <ele>525.3</ele>
        <time>2026-05-19T09:48:06Z</time>
      </trkpt>
      <trkpt lat="43.66834" lon="3.24187">
        <ele>524.7</ele>
        <time>2026-05-19T09:48:11Z</time>
      </trkpt>
      <trkpt lat="43.66827" lon="3.24185">
        <ele>523.6</ele>
        <time>2026-05-19T09:48:16Z</time>
      </trkpt>
      <trkpt lat="43.66822" lon="3.24183">
        <ele>523</ele>
        <time>2026-05-19T09:48:21Z</time>
      </trkpt>
      <trkpt lat="43.66815" lon="3.24181">
        <ele>521.9</ele>
        <time>2026-05-19T09:48:26Z</time>
      </trkpt>
      <trkpt lat="43.66809" lon="3.24177">
        <ele>521.4</ele>
        <time>2026-05-19T09:48:31Z</time>
      </trkpt>
      <trkpt lat="43.66802" lon="3.24174">
        <ele>520.6</ele>
        <time>2026-05-19T09:48:36Z</time>
      </trkpt>
      <trkpt lat="43.66795" lon="3.2417">
        <ele>520</ele>
        <time>2026-05-19T09:48:41Z</time>
      </trkpt>
      <trkpt lat="43.66788" lon="3.24168">
        <ele>518.9</ele>
        <time>2026-05-19T09:48:46Z</time>
      </trkpt>
      <trkpt lat="43.66779" lon="3.24166">
        <ele>517.3</ele>
        <time>2026-05-19T09:48:51Z</time>
      </trkpt>
      <trkpt lat="43.66772" lon="3.24166">
        <ele>515.8</ele>
        <time>2026-05-19T09:48:56Z</time>
      </trkpt>
      <trkpt lat="43.66765" lon="3.24166">
        <ele>514.3</ele>
        <time>2026-05-19T09:49:01Z</time>
      </trkpt>
      <trkpt lat="43.66758" lon="3.24164">
        <ele>513</ele>
        <time>2026-05-19T09:49:06Z</time>
      </trkpt>
      <trkpt lat="43.66751" lon="3.24162">
        <ele>511.7</ele>
        <time>2026-05-19T09:49:11Z</time>
      </trkpt>
      <trkpt lat="43.66745" lon="3.24159">
        <ele>509.9</ele>
        <time>2026-05-19T09:49:16Z</time>
      </trkpt>
      <trkpt lat="43.66739" lon="3.24153">
        <ele>508.3</ele>
        <time>2026-05-19T09:49:21Z</time>
      </trkpt>
      <trkpt lat="43.66733" lon="3.24147">
        <ele>506.8</ele>
        <time>2026-05-19T09:49:26Z</time>
      </trkpt>
      <trkpt lat="43.66728" lon="3.24142">
        <ele>505.6</ele>
        <time>2026-05-19T09:49:31Z</time>
      </trkpt>
      <trkpt lat="43.66723" lon="3.24136">
        <ele>504.5</ele>
        <time>2026-05-19T09:49:36Z</time>
      </trkpt>
      <trkpt lat="43.66719" lon="3.2413">
        <ele>503.8</ele>
        <time>2026-05-19T09:49:41Z</time>
      </trkpt>
      <trkpt lat="43.66714" lon="3.24122">
        <ele>503.1</ele>
        <time>2026-05-19T09:49:46Z</time>
      </trkpt>
      <trkpt lat="43.66711" lon="3.24115">
        <ele>502.9</ele>
        <time>2026-05-19T09:49:51Z</time>
      </trkpt>
      <trkpt lat="43.66706" lon="3.24108">
        <ele>502.1</ele>
        <time>2026-05-19T09:49:56Z</time>
      </trkpt>
      <trkpt lat="43.66701" lon="3.24101">
        <ele>501.4</ele>
        <time>2026-05-19T09:50:01Z</time>
      </trkpt>
      <trkpt lat="43.66695" lon="3.24094">
        <ele>500.4</ele>
        <time>2026-05-19T09:50:06Z</time>
      </trkpt>
      <trkpt lat="43.66691" lon="3.24088">
        <ele>499.9</ele>
        <time>2026-05-19T09:50:11Z</time>
      </trkpt>
      <trkpt lat="43.66686" lon="3.24082">
        <ele>499.2</ele>
        <time>2026-05-19T09:50:16Z</time>
      </trkpt>
      <trkpt lat="43.66682" lon="3.24074">
        <ele>498.7</ele>
        <time>2026-05-19T09:50:21Z</time>
      </trkpt>
      <trkpt lat="43.66677" lon="3.24065">
        <ele>498.2</ele>
        <time>2026-05-19T09:50:26Z</time>
      </trkpt>
      <trkpt lat="43.66673" lon="3.2406">
        <ele>497.7</ele>
        <time>2026-05-19T09:50:31Z</time>
      </trkpt>
      <trkpt lat="43.66669" lon="3.24053">
        <ele>497.6</ele>
        <time>2026-05-19T09:50:36Z</time>
      </trkpt>
      <trkpt lat="43.66665" lon="3.24046">
        <ele>497.5</ele>
        <time>2026-05-19T09:50:41Z</time>
      </trkpt>
      <trkpt lat="43.66662" lon="3.24038">
        <ele>497.8</ele>
        <time>2026-05-19T09:50:46Z</time>
      </trkpt>
      <trkpt lat="43.66659" lon="3.24031">
        <ele>498</ele>
        <time>2026-05-19T09:50:51Z</time>
      </trkpt>
      <trkpt lat="43.66653" lon="3.24022">
        <ele>497.8</ele>
        <time>2026-05-19T09:50:56Z</time>
      </trkpt>
      <trkpt lat="43.66647" lon="3.24015">
        <ele>497.3</ele>
        <time>2026-05-19T09:51:01Z</time>
      </trkpt>
      <trkpt lat="43.66641" lon="3.24009">
        <ele>496.6</ele>
        <time>2026-05-19T09:51:06Z</time>
      </trkpt>
      <trkpt lat="43.66634" lon="3.24002">
        <ele>495.9</ele>
        <time>2026-05-19T09:51:11Z</time>
      </trkpt>
      <trkpt lat="43.66628" lon="3.23998">
        <ele>494.7</ele>
        <time>2026-05-19T09:51:16Z</time>
      </trkpt>
      <trkpt lat="43.66622" lon="3.23993">
        <ele>493.4</ele>
        <time>2026-05-19T09:51:21Z</time>
      </trkpt>
      <trkpt lat="43.66615" lon="3.23987">
        <ele>492</ele>
        <time>2026-05-19T09:51:26Z</time>
      </trkpt>
      <trkpt lat="43.66609" lon="3.23981">
        <ele>490.9</ele>
        <time>2026-05-19T09:51:31Z</time>
      </trkpt>
      <trkpt lat="43.66609" lon="3.23979">
        <ele>491</ele>
        <time>2026-05-19T09:51:36Z</time>
      </trkpt>
      <trkpt lat="43.66609" lon="3.23977">
        <ele>491.1</ele>
        <time>2026-05-19T09:51:41Z</time>
      </trkpt>
      <trkpt lat="43.66609" lon="3.23977">
        <ele>491.1</ele>
        <time>2026-05-19T09:51:46Z</time>
      </trkpt>
      <trkpt lat="43.66602" lon="3.23972">
        <ele>490</ele>
        <time>2026-05-19T09:51:51Z</time>
      </trkpt>
      <trkpt lat="43.66599" lon="3.2397">
        <ele>489.6</ele>
        <time>2026-05-19T09:51:56Z</time>
      </trkpt>
      <trkpt lat="43.66596" lon="3.23969">
        <ele>489.2</ele>
        <time>2026-05-19T09:52:01Z</time>
      </trkpt>
      <trkpt lat="43.66591" lon="3.23965">
        <ele>488.6</ele>
        <time>2026-05-19T09:52:06Z</time>
      </trkpt>
      <trkpt lat="43.66587" lon="3.23961">
        <ele>488.3</ele>
        <time>2026-05-19T09:52:11Z</time>
      </trkpt>
      <trkpt lat="43.66582" lon="3.23957">
        <ele>487.9</ele>
        <time>2026-05-19T09:52:16Z</time>
      </trkpt>
      <trkpt lat="43.66576" lon="3.23953">
        <ele>487.1</ele>
        <time>2026-05-19T09:52:21Z</time>
      </trkpt>
      <trkpt lat="43.6657" lon="3.23948">
        <ele>486.4</ele>
        <time>2026-05-19T09:52:26Z</time>
      </trkpt>
      <trkpt lat="43.66565" lon="3.23943">
        <ele>486</ele>
        <time>2026-05-19T09:52:31Z</time>
      </trkpt>
      <trkpt lat="43.6656" lon="3.23941">
        <ele>485.2</ele>
        <time>2026-05-19T09:52:36Z</time>
      </trkpt>
      <trkpt lat="43.66554" lon="3.23939">
        <ele>484.2</ele>
        <time>2026-05-19T09:52:41Z</time>
      </trkpt>
      <trkpt lat="43.66549" lon="3.23937">
        <ele>483.5</ele>
        <time>2026-05-19T09:52:46Z</time>
      </trkpt>
      <trkpt lat="43.66544" lon="3.23932">
        <ele>483</ele>
        <time>2026-05-19T09:52:51Z</time>
      </trkpt>
      <trkpt lat="43.66543" lon="3.2393">
        <ele>483</ele>
        <time>2026-05-19T09:52:56Z</time>
      </trkpt>
      <trkpt lat="43.66539" lon="3.23925">
        <ele>482.7</ele>
        <time>2026-05-19T09:53:01Z</time>
      </trkpt>
      <trkpt lat="43.66535" lon="3.2392">
        <ele>482.4</ele>
        <time>2026-05-19T09:53:06Z</time>
      </trkpt>
      <trkpt lat="43.66531" lon="3.23915">
        <ele>481.9</ele>
        <time>2026-05-19T09:53:11Z</time>
      </trkpt>
      <trkpt lat="43.66526" lon="3.23909">
        <ele>480.7</ele>
        <time>2026-05-19T09:53:16Z</time>
      </trkpt>
      <trkpt lat="43.66522" lon="3.23903">
        <ele>479.8</ele>
        <time>2026-05-19T09:53:21Z</time>
      </trkpt>
      <trkpt lat="43.66519" lon="3.23897">
        <ele>479.2</ele>
        <time>2026-05-19T09:53:26Z</time>
      </trkpt>
      <trkpt lat="43.66514" lon="3.23891">
        <ele>478.2</ele>
        <time>2026-05-19T09:53:31Z</time>
      </trkpt>
      <trkpt lat="43.6651" lon="3.23885">
        <ele>477.5</ele>
        <time>2026-05-19T09:53:36Z</time>
      </trkpt>
      <trkpt lat="43.66504" lon="3.23879">
        <ele>476.6</ele>
        <time>2026-05-19T09:53:41Z</time>
      </trkpt>
      <trkpt lat="43.66498" lon="3.23872">
        <ele>475.5</ele>
        <time>2026-05-19T09:53:46Z</time>
      </trkpt>
      <trkpt lat="43.66492" lon="3.23866">
        <ele>473.9</ele>
        <time>2026-05-19T09:53:51Z</time>
      </trkpt>
      <trkpt lat="43.66487" lon="3.2386">
        <ele>472.6</ele>
        <time>2026-05-19T09:53:56Z</time>
      </trkpt>
      <trkpt lat="43.66484" lon="3.23855">
        <ele>471.9</ele>
        <time>2026-05-19T09:54:01Z</time>
      </trkpt>
      <trkpt lat="43.66483" lon="3.23851">
        <ele>471.7</ele>
        <time>2026-05-19T09:54:06Z</time>
      </trkpt>
      <trkpt lat="43.66483" lon="3.2385">
        <ele>471.7</ele>
        <time>2026-05-19T09:54:11Z</time>
      </trkpt>
      <trkpt lat="43.66483" lon="3.2385">
        <ele>471.7</ele>
        <time>2026-05-19T09:54:16Z</time>
      </trkpt>
      <trkpt lat="43.66481" lon="3.23843">
        <ele>471.3</ele>
        <time>2026-05-19T09:54:21Z</time>
      </trkpt>
      <trkpt lat="43.66478" lon="3.23838">
        <ele>470.6</ele>
        <time>2026-05-19T09:54:26Z</time>
      </trkpt>
      <trkpt lat="43.66475" lon="3.23832">
        <ele>470</ele>
        <time>2026-05-19T09:54:31Z</time>
      </trkpt>
      <trkpt lat="43.66474" lon="3.23828">
        <ele>469.7</ele>
        <time>2026-05-19T09:54:36Z</time>
      </trkpt>
      <trkpt lat="43.66474" lon="3.23827">
        <ele>469.7</ele>
        <time>2026-05-19T09:54:41Z</time>
      </trkpt>
      <trkpt lat="43.66472" lon="3.23825">
        <ele>469.1</ele>
        <time>2026-05-19T09:54:46Z</time>
      </trkpt>
      <trkpt lat="43.66469" lon="3.23818">
        <ele>468.4</ele>
        <time>2026-05-19T09:54:51Z</time>
      </trkpt>
      <trkpt lat="43.66465" lon="3.23811">
        <ele>467.4</ele>
        <time>2026-05-19T09:54:56Z</time>
      </trkpt>
      <trkpt lat="43.66464" lon="3.23805">
        <ele>467.1</ele>
        <time>2026-05-19T09:55:01Z</time>
      </trkpt>
      <trkpt lat="43.66464" lon="3.23803">
        <ele>467.1</ele>
        <time>2026-05-19T09:55:06Z</time>
      </trkpt>
      <trkpt lat="43.66464" lon="3.23803">
        <ele>467.1</ele>
        <time>2026-05-19T09:55:11Z</time>
      </trkpt>
      <trkpt lat="43.66464" lon="3.23803">
        <ele>467.1</ele>
        <time>2026-05-19T09:55:16Z</time>
      </trkpt>
      <trkpt lat="43.66464" lon="3.23803">
        <ele>467.1</ele>
        <time>2026-05-19T09:55:21Z</time>
      </trkpt>
      <trkpt lat="43.66462" lon="3.23802">
        <ele>466.6</ele>
        <time>2026-05-19T09:55:26Z</time>
      </trkpt>
      <trkpt lat="43.66461" lon="3.23797">
        <ele>466.4</ele>
        <time>2026-05-19T09:55:31Z</time>
      </trkpt>
      <trkpt lat="43.6646" lon="3.23796">
        <ele>466.1</ele>
        <time>2026-05-19T09:55:36Z</time>
      </trkpt>
      <trkpt lat="43.6646" lon="3.23796">
        <ele>466.1</ele>
        <time>2026-05-19T09:55:41Z</time>
      </trkpt>
      <trkpt lat="43.6646" lon="3.23796">
        <ele>466.1</ele>
        <time>2026-05-19T09:55:46Z</time>
      </trkpt>
      <trkpt lat="43.6646" lon="3.23796">
        <ele>466.1</ele>
        <time>2026-05-19T09:55:51Z</time>
      </trkpt>
      <trkpt lat="43.6646" lon="3.23796">
        <ele>466.1</ele>
        <time>2026-05-19T09:55:56Z</time>
      </trkpt>
      <trkpt lat="43.6646" lon="3.23796">
        <ele>466.1</ele>
        <time>2026-05-19T09:56:01Z</time>
      </trkpt>
      <trkpt lat="43.6646" lon="3.23796">
        <ele>466.1</ele>
        <time>2026-05-19T09:56:06Z</time>
      </trkpt>
      <trkpt lat="43.6646" lon="3.23796">
        <ele>466.1</ele>
        <time>2026-05-19T09:56:11Z</time>
      </trkpt>
      <trkpt lat="43.6646" lon="3.23796">
        <ele>466.1</ele>
        <time>2026-05-19T09:56:16Z</time>
      </trkpt>
      <trkpt lat="43.6646" lon="3.23796">
        <ele>466.1</ele>
        <time>2026-05-19T09:56:21Z</time>
      </trkpt>
      <trkpt lat="43.6646" lon="3.23796">
        <ele>466.1</ele>
        <time>2026-05-19T09:56:26Z</time>
      </trkpt>
      <trkpt lat="43.6646" lon="3.23796">
        <ele>466.1</ele>
        <time>2026-05-19T09:56:31Z</time>
      </trkpt>
      <trkpt lat="43.6646" lon="3.23796">
        <ele>466.1</ele>
        <time>2026-05-19T09:56:36Z</time>
      </trkpt>
      <trkpt lat="43.6646" lon="3.23796">
        <ele>466.1</ele>
        <time>2026-05-19T09:56:41Z</time>
      </trkpt>
      <trkpt lat="43.6646" lon="3.23796">
        <ele>466.1</ele>
        <time>2026-05-19T09:56:46Z</time>
      </trkpt>
      <trkpt lat="43.6646" lon="3.23796">
        <ele>466.1</ele>
        <time>2026-05-19T09:56:51Z</time>
      </trkpt>
      <trkpt lat="43.6646" lon="3.23796">
        <ele>466.1</ele>
        <time>2026-05-19T09:56:56Z</time>
      </trkpt>
      <trkpt lat="43.6646" lon="3.23796">
        <ele>466.1</ele>
        <time>2026-05-19T09:57:01Z</time>
      </trkpt>
      <trkpt lat="43.6646" lon="3.23796">
        <ele>466.1</ele>
        <time>2026-05-19T09:57:06Z</time>
      </trkpt>
      <trkpt lat="43.6646" lon="3.23796">
        <ele>466.1</ele>
        <time>2026-05-19T09:57:11Z</time>
      </trkpt>
      <trkpt lat="43.6646" lon="3.23796">
        <ele>466.1</ele>
        <time>2026-05-19T09:57:16Z</time>
      </trkpt>
      <trkpt lat="43.6646" lon="3.23796">
        <ele>466.1</ele>
        <time>2026-05-19T09:57:21Z</time>
      </trkpt>
      <trkpt lat="43.6646" lon="3.23796">
        <ele>466.1</ele>
        <time>2026-05-19T09:57:26Z</time>
      </trkpt>
      <trkpt lat="43.6646" lon="3.23796">
        <ele>466.1</ele>
        <time>2026-05-19T09:57:31Z</time>
      </trkpt>
      <trkpt lat="43.6646" lon="3.23796">
        <ele>466.1</ele>
        <time>2026-05-19T09:57:36Z</time>
      </trkpt>
      <trkpt lat="43.6646" lon="3.23796">
        <ele>466.1</ele>
        <time>2026-05-19T09:57:41Z</time>
      </trkpt>
      <trkpt lat="43.6646" lon="3.23796">
        <ele>466.1</ele>
        <time>2026-05-19T09:57:46Z</time>
      </trkpt>
      <trkpt lat="43.6646" lon="3.23796">
        <ele>466.1</ele>
        <time>2026-05-19T09:57:51Z</time>
      </trkpt>
      <trkpt lat="43.6646" lon="3.23796">
        <ele>466.1</ele>
        <time>2026-05-19T09:57:56Z</time>
      </trkpt>
      <trkpt lat="43.6646" lon="3.23796">
        <ele>466.1</ele>
        <time>2026-05-19T09:58:01Z</time>
      </trkpt>
      <trkpt lat="43.6646" lon="3.23796">
        <ele>466.1</ele>
        <time>2026-05-19T09:58:06Z</time>
      </trkpt>
      <trkpt lat="43.6646" lon="3.23796">
        <ele>466.1</ele>
        <time>2026-05-19T09:58:11Z</time>
      </trkpt>
      <trkpt lat="43.6646" lon="3.23796">
        <ele>466.1</ele>
        <time>2026-05-19T09:58:16Z</time>
      </trkpt>
      <trkpt lat="43.6646" lon="3.23796">
        <ele>466.1</ele>
        <time>2026-05-19T09:58:21Z</time>
      </trkpt>
      <trkpt lat="43.6646" lon="3.23796">
        <ele>466.1</ele>
        <time>2026-05-19T09:58:26Z</time>
      </trkpt>
      <trkpt lat="43.6646" lon="3.23796">
        <ele>466.1</ele>
        <time>2026-05-19T09:58:31Z</time>
      </trkpt>
      <trkpt lat="43.6646" lon="3.23796">
        <ele>466.1</ele>
        <time>2026-05-19T09:58:36Z</time>
      </trkpt>
      <trkpt lat="43.6646" lon="3.23796">
        <ele>466.1</ele>
        <time>2026-05-19T09:58:41Z</time>
      </trkpt>
      <trkpt lat="43.6646" lon="3.23796">
        <ele>466.1</ele>
        <time>2026-05-19T09:58:46Z</time>
      </trkpt>
      <trkpt lat="43.6646" lon="3.23796">
        <ele>466.1</ele>
        <time>2026-05-19T09:58:51Z</time>
      </trkpt>
      <trkpt lat="43.6646" lon="3.23796">
        <ele>466.1</ele>
        <time>2026-05-19T09:58:56Z</time>
      </trkpt>
      <trkpt lat="43.6646" lon="3.23796">
        <ele>466.1</ele>
        <time>2026-05-19T09:59:01Z</time>
      </trkpt>
      <trkpt lat="43.6646" lon="3.23796">
        <ele>466.1</ele>
        <time>2026-05-19T09:59:06Z</time>
      </trkpt>
      <trkpt lat="43.6646" lon="3.23796">
        <ele>466.1</ele>
        <time>2026-05-19T09:59:11Z</time>
      </trkpt>
      <trkpt lat="43.6646" lon="3.23796">
        <ele>466.1</ele>
        <time>2026-05-19T09:59:16Z</time>
      </trkpt>
      <trkpt lat="43.6646" lon="3.23796">
        <ele>466.1</ele>
        <time>2026-05-19T09:59:21Z</time>
      </trkpt>
      <trkpt lat="43.6646" lon="3.23796">
        <ele>466.1</ele>
        <time>2026-05-19T09:59:26Z</time>
      </trkpt>
      <trkpt lat="43.6646" lon="3.23796">
        <ele>466.1</ele>
        <time>2026-05-19T09:59:31Z</time>
      </trkpt>
      <trkpt lat="43.6646" lon="3.23796">
        <ele>466.1</ele>
        <time>2026-05-19T09:59:36Z</time>
      </trkpt>
      <trkpt lat="43.6646" lon="3.23796">
        <ele>466.1</ele>
        <time>2026-05-19T09:59:41Z</time>
      </trkpt>
      <trkpt lat="43.6646" lon="3.23796">
        <ele>466.1</ele>
        <time>2026-05-19T09:59:46Z</time>
      </trkpt>
      <trkpt lat="43.6646" lon="3.23796">
        <ele>466.1</ele>
        <time>2026-05-19T09:59:51Z</time>
      </trkpt>
      <trkpt lat="43.6646" lon="3.23796">
        <ele>466.1</ele>
        <time>2026-05-19T09:59:56Z</time>
      </trkpt>
      <trkpt lat="43.6646" lon="3.23796">
        <ele>466.1</ele>
        <time>2026-05-19T10:00:01Z</time>
      </trkpt>
      <trkpt lat="43.6646" lon="3.23796">
        <ele>466.1</ele>
        <time>2026-05-19T10:00:06Z</time>
      </trkpt>
      <trkpt lat="43.6646" lon="3.23796">
        <ele>466.1</ele>
        <time>2026-05-19T10:00:11Z</time>
      </trkpt>
      <trkpt lat="43.6646" lon="3.23796">
        <ele>466.1</ele>
        <time>2026-05-19T10:00:16Z</time>
      </trkpt>
      <trkpt lat="43.6646" lon="3.23796">
        <ele>466.1</ele>
        <time>2026-05-19T10:00:21Z</time>
      </trkpt>
      <trkpt lat="43.6646" lon="3.23796">
        <ele>466.1</ele>
        <time>2026-05-19T10:00:26Z</time>
      </trkpt>
      <trkpt lat="43.6646" lon="3.23796">
        <ele>466.1</ele>
        <time>2026-05-19T10:00:31Z</time>
      </trkpt>
      <trkpt lat="43.6646" lon="3.23796">
        <ele>466.1</ele>
        <time>2026-05-19T10:00:36Z</time>
      </trkpt>
      <trkpt lat="43.6646" lon="3.23796">
        <ele>466.1</ele>
        <time>2026-05-19T10:00:41Z</time>
      </trkpt>
      <trkpt lat="43.6646" lon="3.23796">
        <ele>466.1</ele>
        <time>2026-05-19T10:00:46Z</time>
      </trkpt>
      <trkpt lat="43.6646" lon="3.23796">
        <ele>466.1</ele>
        <time>2026-05-19T10:00:51Z</time>
      </trkpt>
      <trkpt lat="43.6646" lon="3.23796">
        <ele>466.1</ele>
        <time>2026-05-19T10:00:56Z</time>
      </trkpt>
      <trkpt lat="43.6646" lon="3.23796">
        <ele>466.1</ele>
        <time>2026-05-19T10:01:01Z</time>
      </trkpt>
      <trkpt lat="43.6646" lon="3.23796">
        <ele>466.1</ele>
        <time>2026-05-19T10:01:06Z</time>
      </trkpt>
      <trkpt lat="43.6646" lon="3.23796">
        <ele>466.1</ele>
        <time>2026-05-19T10:01:11Z</time>
      </trkpt>
      <trkpt lat="43.6646" lon="3.23796">
        <ele>466.1</ele>
        <time>2026-05-19T10:01:16Z</time>
      </trkpt>
      <trkpt lat="43.6646" lon="3.23796">
        <ele>466.1</ele>
        <time>2026-05-19T10:01:21Z</time>
      </trkpt>
      <trkpt lat="43.6646" lon="3.23796">
        <ele>466.1</ele>
        <time>2026-05-19T10:01:26Z</time>
      </trkpt>
      <trkpt lat="43.6646" lon="3.23796">
        <ele>466.1</ele>
        <time>2026-05-19T10:01:31Z</time>
      </trkpt>
      <trkpt lat="43.6646" lon="3.23796">
        <ele>466.1</ele>
        <time>2026-05-19T10:01:36Z</time>
      </trkpt>
      <trkpt lat="43.6646" lon="3.23796">
        <ele>466.1</ele>
        <time>2026-05-19T10:01:41Z</time>
      </trkpt>
      <trkpt lat="43.6646" lon="3.23796">
        <ele>466.1</ele>
        <time>2026-05-19T10:01:46Z</time>
      </trkpt>
      <trkpt lat="43.6646" lon="3.23796">
        <ele>466.1</ele>
        <time>2026-05-19T10:01:51Z</time>
      </trkpt>
      <trkpt lat="43.6646" lon="3.23796">
        <ele>466.1</ele>
        <time>2026-05-19T10:01:56Z</time>
      </trkpt>
      <trkpt lat="43.6646" lon="3.23796">
        <ele>466.1</ele>
        <time>2026-05-19T10:02:01Z</time>
      </trkpt>
      <trkpt lat="43.6646" lon="3.23796">
        <ele>466.1</ele>
        <time>2026-05-19T10:02:06Z</time>
      </trkpt>
      <trkpt lat="43.6646" lon="3.23796">
        <ele>466.1</ele>
        <time>2026-05-19T10:02:11Z</time>
      </trkpt>
      <trkpt lat="43.6646" lon="3.23796">
        <ele>466.1</ele>
        <time>2026-05-19T10:02:16Z</time>
      </trkpt>
      <trkpt lat="43.6646" lon="3.23796">
        <ele>466.1</ele>
        <time>2026-05-19T10:02:21Z</time>
      </trkpt>
      <trkpt lat="43.6646" lon="3.23796">
        <ele>466.1</ele>
        <time>2026-05-19T10:02:26Z</time>
      </trkpt>
      <trkpt lat="43.6646" lon="3.23796">
        <ele>466.1</ele>
        <time>2026-05-19T10:02:31Z</time>
      </trkpt>
      <trkpt lat="43.6646" lon="3.23796">
        <ele>466.1</ele>
        <time>2026-05-19T10:02:36Z</time>
      </trkpt>
      <trkpt lat="43.6646" lon="3.23796">
        <ele>466.1</ele>
        <time>2026-05-19T10:02:41Z</time>
      </trkpt>
      <trkpt lat="43.6646" lon="3.23796">
        <ele>466.1</ele>
        <time>2026-05-19T10:02:46Z</time>
      </trkpt>
      <trkpt lat="43.6646" lon="3.23796">
        <ele>466.1</ele>
        <time>2026-05-19T10:02:51Z</time>
      </trkpt>
      <trkpt lat="43.6646" lon="3.23796">
        <ele>466.1</ele>
        <time>2026-05-19T10:02:56Z</time>
      </trkpt>
      <trkpt lat="43.6646" lon="3.23796">
        <ele>466.1</ele>
        <time>2026-05-19T10:03:01Z</time>
      </trkpt>
      <trkpt lat="43.6646" lon="3.23796">
        <ele>466.1</ele>
        <time>2026-05-19T10:03:06Z</time>
      </trkpt>
      <trkpt lat="43.6646" lon="3.23796">
        <ele>466.1</ele>
        <time>2026-05-19T10:03:11Z</time>
      </trkpt>
      <trkpt lat="43.6646" lon="3.23796">
        <ele>466.1</ele>
        <time>2026-05-19T10:03:16Z</time>
      </trkpt>
      <trkpt lat="43.6646" lon="3.23796">
        <ele>466.1</ele>
        <time>2026-05-19T10:03:21Z</time>
      </trkpt>
      <trkpt lat="43.6646" lon="3.23796">
        <ele>466.1</ele>
        <time>2026-05-19T10:03:26Z</time>
      </trkpt>
      <trkpt lat="43.6646" lon="3.23796">
        <ele>466.1</ele>
        <time>2026-05-19T10:03:31Z</time>
      </trkpt>
      <trkpt lat="43.6646" lon="3.23796">
        <ele>466.1</ele>
        <time>2026-05-19T10:03:36Z</time>
      </trkpt>
      <trkpt lat="43.6646" lon="3.23796">
        <ele>466.1</ele>
        <time>2026-05-19T10:03:41Z</time>
      </trkpt>
      <trkpt lat="43.6646" lon="3.23796">
        <ele>466.1</ele>
        <time>2026-05-19T10:03:46Z</time>
      </trkpt>
      <trkpt lat="43.6646" lon="3.23796">
        <ele>466.1</ele>
        <time>2026-05-19T10:03:51Z</time>
      </trkpt>
      <trkpt lat="43.6646" lon="3.23796">
        <ele>466.1</ele>
        <time>2026-05-19T10:03:56Z</time>
      </trkpt>
      <trkpt lat="43.6646" lon="3.23796">
        <ele>466.1</ele>
        <time>2026-05-19T10:04:01Z</time>
      </trkpt>
      <trkpt lat="43.6646" lon="3.23796">
        <ele>466.1</ele>
        <time>2026-05-19T10:04:06Z</time>
      </trkpt>
      <trkpt lat="43.6646" lon="3.23796">
        <ele>466.1</ele>
        <time>2026-05-19T10:04:11Z</time>
      </trkpt>
      <trkpt lat="43.6646" lon="3.23796">
        <ele>466.1</ele>
        <time>2026-05-19T10:04:16Z</time>
      </trkpt>
      <trkpt lat="43.6646" lon="3.23796">
        <ele>466.1</ele>
        <time>2026-05-19T10:04:21Z</time>
      </trkpt>
      <trkpt lat="43.6646" lon="3.23796">
        <ele>466.1</ele>
        <time>2026-05-19T10:04:26Z</time>
      </trkpt>
      <trkpt lat="43.6646" lon="3.23796">
        <ele>466.1</ele>
        <time>2026-05-19T10:04:31Z</time>
      </trkpt>
      <trkpt lat="43.6646" lon="3.23796">
        <ele>466.1</ele>
        <time>2026-05-19T10:04:36Z</time>
      </trkpt>
      <trkpt lat="43.6646" lon="3.23796">
        <ele>466.1</ele>
        <time>2026-05-19T10:04:41Z</time>
      </trkpt>
      <trkpt lat="43.6646" lon="3.23796">
        <ele>466.1</ele>
        <time>2026-05-19T10:04:46Z</time>
      </trkpt>
      <trkpt lat="43.6646" lon="3.23796">
        <ele>466.1</ele>
        <time>2026-05-19T10:04:51Z</time>
      </trkpt>
      <trkpt lat="43.6646" lon="3.23796">
        <ele>466.1</ele>
        <time>2026-05-19T10:04:56Z</time>
      </trkpt>
      <trkpt lat="43.6646" lon="3.23796">
        <ele>466.1</ele>
        <time>2026-05-19T10:05:01Z</time>
      </trkpt>
      <trkpt lat="43.6646" lon="3.23796">
        <ele>466.1</ele>
        <time>2026-05-19T10:05:06Z</time>
      </trkpt>
      <trkpt lat="43.6646" lon="3.23796">
        <ele>466.1</ele>
        <time>2026-05-19T10:05:11Z</time>
      </trkpt>
      <trkpt lat="43.6646" lon="3.23796">
        <ele>466.1</ele>
        <time>2026-05-19T10:05:16Z</time>
      </trkpt>
      <trkpt lat="43.6646" lon="3.23796">
        <ele>466.1</ele>
        <time>2026-05-19T10:05:21Z</time>
      </trkpt>
      <trkpt lat="43.6646" lon="3.23796">
        <ele>466.1</ele>
        <time>2026-05-19T10:05:26Z</time>
      </trkpt>
      <trkpt lat="43.6646" lon="3.23796">
        <ele>466.1</ele>
        <time>2026-05-19T10:05:31Z</time>
      </trkpt>
      <trkpt lat="43.6646" lon="3.23796">
        <ele>466.1</ele>
        <time>2026-05-19T10:05:36Z</time>
      </trkpt>
      <trkpt lat="43.6646" lon="3.23796">
        <ele>466.1</ele>
        <time>2026-05-19T10:05:41Z</time>
      </trkpt>
      <trkpt lat="43.6646" lon="3.23796">
        <ele>466.1</ele>
        <time>2026-05-19T10:05:46Z</time>
      </trkpt>
      <trkpt lat="43.6646" lon="3.23796">
        <ele>466.1</ele>
        <time>2026-05-19T10:05:51Z</time>
      </trkpt>
      <trkpt lat="43.6646" lon="3.23796">
        <ele>466.1</ele>
        <time>2026-05-19T10:05:56Z</time>
      </trkpt>
      <trkpt lat="43.66455" lon="3.23786">
        <ele>465</ele>
        <time>2026-05-19T10:06:01Z</time>
      </trkpt>
      <trkpt lat="43.66455" lon="3.23785">
        <ele>465</ele>
        <time>2026-05-19T10:06:06Z</time>
      </trkpt>
      <trkpt lat="43.66455" lon="3.23785">
        <ele>465</ele>
        <time>2026-05-19T10:06:11Z</time>
      </trkpt>
      <trkpt lat="43.66455" lon="3.23785">
        <ele>465</ele>
        <time>2026-05-19T10:06:16Z</time>
      </trkpt>
      <trkpt lat="43.66455" lon="3.23785">
        <ele>465</ele>
        <time>2026-05-19T10:06:21Z</time>
      </trkpt>
      <trkpt lat="43.66455" lon="3.23785">
        <ele>465</ele>
        <time>2026-05-19T10:06:26Z</time>
      </trkpt>
      <trkpt lat="43.66455" lon="3.23785">
        <ele>465</ele>
        <time>2026-05-19T10:06:31Z</time>
      </trkpt>
      <trkpt lat="43.66455" lon="3.23785">
        <ele>465</ele>
        <time>2026-05-19T10:06:36Z</time>
      </trkpt>
      <trkpt lat="43.66455" lon="3.23785">
        <ele>465</ele>
        <time>2026-05-19T10:06:41Z</time>
      </trkpt>
      <trkpt lat="43.6645" lon="3.23777">
        <ele>464</ele>
        <time>2026-05-19T10:06:46Z</time>
      </trkpt>
      <trkpt lat="43.66449" lon="3.23773">
        <ele>463.8</ele>
        <time>2026-05-19T10:06:51Z</time>
      </trkpt>
      <trkpt lat="43.66448" lon="3.23772">
        <ele>463.6</ele>
        <time>2026-05-19T10:06:56Z</time>
      </trkpt>
      <trkpt lat="43.66447" lon="3.23773">
        <ele>463.4</ele>
        <time>2026-05-19T10:07:01Z</time>
      </trkpt>
      <trkpt lat="43.66447" lon="3.23773">
        <ele>463.4</ele>
        <time>2026-05-19T10:07:06Z</time>
      </trkpt>
      <trkpt lat="43.66447" lon="3.23773">
        <ele>463.4</ele>
        <time>2026-05-19T10:07:11Z</time>
      </trkpt>
      <trkpt lat="43.66447" lon="3.23773">
        <ele>463.4</ele>
        <time>2026-05-19T10:07:16Z</time>
      </trkpt>
      <trkpt lat="43.66447" lon="3.23773">
        <ele>463.4</ele>
        <time>2026-05-19T10:07:21Z</time>
      </trkpt>
      <trkpt lat="43.66447" lon="3.23773">
        <ele>463.4</ele>
        <time>2026-05-19T10:07:26Z</time>
      </trkpt>
      <trkpt lat="43.66447" lon="3.23773">
        <ele>463.4</ele>
        <time>2026-05-19T10:07:31Z</time>
      </trkpt>
      <trkpt lat="43.66447" lon="3.23773">
        <ele>463.4</ele>
        <time>2026-05-19T10:07:36Z</time>
      </trkpt>
      <trkpt lat="43.66447" lon="3.23773">
        <ele>463.4</ele>
        <time>2026-05-19T10:07:41Z</time>
      </trkpt>
      <trkpt lat="43.66447" lon="3.23773">
        <ele>463.4</ele>
        <time>2026-05-19T10:07:46Z</time>
      </trkpt>
      <trkpt lat="43.66447" lon="3.23773">
        <ele>463.4</ele>
        <time>2026-05-19T10:07:51Z</time>
      </trkpt>
      <trkpt lat="43.66447" lon="3.23773">
        <ele>463.4</ele>
        <time>2026-05-19T10:07:56Z</time>
      </trkpt>
      <trkpt lat="43.66447" lon="3.23773">
        <ele>463.4</ele>
        <time>2026-05-19T10:08:01Z</time>
      </trkpt>
      <trkpt lat="43.66447" lon="3.23773">
        <ele>463.4</ele>
        <time>2026-05-19T10:08:06Z</time>
      </trkpt>
      <trkpt lat="43.66447" lon="3.23773">
        <ele>463.4</ele>
        <time>2026-05-19T10:08:11Z</time>
      </trkpt>
      <trkpt lat="43.66447" lon="3.23773">
        <ele>463.4</ele>
        <time>2026-05-19T10:08:16Z</time>
      </trkpt>
      <trkpt lat="43.66447" lon="3.23773">
        <ele>463.4</ele>
        <time>2026-05-19T10:08:21Z</time>
      </trkpt>
      <trkpt lat="43.66447" lon="3.23773">
        <ele>463.4</ele>
        <time>2026-05-19T10:08:26Z</time>
      </trkpt>
      <trkpt lat="43.66447" lon="3.23773">
        <ele>463.4</ele>
        <time>2026-05-19T10:08:31Z</time>
      </trkpt>
      <trkpt lat="43.66447" lon="3.23773">
        <ele>463.4</ele>
        <time>2026-05-19T10:08:36Z</time>
      </trkpt>
      <trkpt lat="43.66447" lon="3.23773">
        <ele>463.4</ele>
        <time>2026-05-19T10:08:41Z</time>
      </trkpt>
      <trkpt lat="43.66447" lon="3.23773">
        <ele>463.4</ele>
        <time>2026-05-19T10:08:46Z</time>
      </trkpt>
      <trkpt lat="43.66447" lon="3.23773">
        <ele>463.4</ele>
        <time>2026-05-19T10:08:51Z</time>
      </trkpt>
      <trkpt lat="43.66447" lon="3.23773">
        <ele>463.4</ele>
        <time>2026-05-19T10:08:56Z</time>
      </trkpt>
      <trkpt lat="43.66447" lon="3.23773">
        <ele>463.4</ele>
        <time>2026-05-19T10:09:01Z</time>
      </trkpt>
      <trkpt lat="43.66447" lon="3.23773">
        <ele>463.4</ele>
        <time>2026-05-19T10:09:06Z</time>
      </trkpt>
      <trkpt lat="43.66447" lon="3.23773">
        <ele>463.4</ele>
        <time>2026-05-19T10:09:11Z</time>
      </trkpt>
      <trkpt lat="43.66447" lon="3.23773">
        <ele>463.4</ele>
        <time>2026-05-19T10:09:16Z</time>
      </trkpt>
      <trkpt lat="43.66447" lon="3.23773">
        <ele>463.4</ele>
        <time>2026-05-19T10:09:21Z</time>
      </trkpt>
      <trkpt lat="43.66447" lon="3.23773">
        <ele>463.4</ele>
        <time>2026-05-19T10:09:26Z</time>
      </trkpt>
      <trkpt lat="43.66447" lon="3.23773">
        <ele>463.4</ele>
        <time>2026-05-19T10:09:31Z</time>
      </trkpt>
      <trkpt lat="43.66447" lon="3.23773">
        <ele>463.4</ele>
        <time>2026-05-19T10:09:36Z</time>
      </trkpt>
      <trkpt lat="43.66447" lon="3.23773">
        <ele>463.4</ele>
        <time>2026-05-19T10:09:41Z</time>
      </trkpt>
      <trkpt lat="43.66447" lon="3.23773">
        <ele>463.4</ele>
        <time>2026-05-19T10:09:46Z</time>
      </trkpt>
      <trkpt lat="43.66447" lon="3.23773">
        <ele>463.4</ele>
        <time>2026-05-19T10:09:51Z</time>
      </trkpt>
      <trkpt lat="43.66447" lon="3.23773">
        <ele>463.4</ele>
        <time>2026-05-19T10:09:56Z</time>
      </trkpt>
      <trkpt lat="43.66447" lon="3.23773">
        <ele>463.4</ele>
        <time>2026-05-19T10:10:01Z</time>
      </trkpt>
      <trkpt lat="43.66447" lon="3.23773">
        <ele>463.4</ele>
        <time>2026-05-19T10:10:06Z</time>
      </trkpt>
      <trkpt lat="43.66447" lon="3.23773">
        <ele>463.4</ele>
        <time>2026-05-19T10:10:11Z</time>
      </trkpt>
      <trkpt lat="43.66447" lon="3.23773">
        <ele>463.4</ele>
        <time>2026-05-19T10:10:16Z</time>
      </trkpt>
      <trkpt lat="43.66447" lon="3.23773">
        <ele>463.4</ele>
        <time>2026-05-19T10:10:21Z</time>
      </trkpt>
      <trkpt lat="43.66447" lon="3.23773">
        <ele>463.4</ele>
        <time>2026-05-19T10:10:26Z</time>
      </trkpt>
      <trkpt lat="43.66447" lon="3.23773">
        <ele>463.4</ele>
        <time>2026-05-19T10:10:31Z</time>
      </trkpt>
      <trkpt lat="43.66447" lon="3.23773">
        <ele>463.4</ele>
        <time>2026-05-19T10:10:36Z</time>
      </trkpt>
      <trkpt lat="43.66447" lon="3.23773">
        <ele>463.4</ele>
        <time>2026-05-19T10:10:41Z</time>
      </trkpt>
      <trkpt lat="43.66447" lon="3.23773">
        <ele>463.4</ele>
        <time>2026-05-19T10:10:46Z</time>
      </trkpt>
      <trkpt lat="43.66447" lon="3.23773">
        <ele>463.4</ele>
        <time>2026-05-19T10:10:51Z</time>
      </trkpt>
      <trkpt lat="43.66447" lon="3.23773">
        <ele>463.4</ele>
        <time>2026-05-19T10:10:56Z</time>
      </trkpt>
      <trkpt lat="43.66447" lon="3.23773">
        <ele>463.4</ele>
        <time>2026-05-19T10:11:01Z</time>
      </trkpt>
      <trkpt lat="43.66447" lon="3.23773">
        <ele>463.4</ele>
        <time>2026-05-19T10:11:06Z</time>
      </trkpt>
      <trkpt lat="43.66447" lon="3.23773">
        <ele>463.4</ele>
        <time>2026-05-19T10:11:11Z</time>
      </trkpt>
      <trkpt lat="43.66447" lon="3.23773">
        <ele>463.4</ele>
        <time>2026-05-19T10:11:16Z</time>
      </trkpt>
      <trkpt lat="43.66447" lon="3.23773">
        <ele>463.4</ele>
        <time>2026-05-19T10:11:21Z</time>
      </trkpt>
      <trkpt lat="43.66447" lon="3.23773">
        <ele>463.4</ele>
        <time>2026-05-19T10:11:26Z</time>
      </trkpt>
      <trkpt lat="43.66447" lon="3.23773">
        <ele>463.4</ele>
        <time>2026-05-19T10:11:31Z</time>
      </trkpt>
      <trkpt lat="43.66447" lon="3.23773">
        <ele>463.4</ele>
        <time>2026-05-19T10:11:36Z</time>
      </trkpt>
      <trkpt lat="43.66447" lon="3.23773">
        <ele>463.4</ele>
        <time>2026-05-19T10:11:41Z</time>
      </trkpt>
      <trkpt lat="43.66447" lon="3.23773">
        <ele>463.4</ele>
        <time>2026-05-19T10:11:46Z</time>
      </trkpt>
      <trkpt lat="43.66447" lon="3.23773">
        <ele>463.4</ele>
        <time>2026-05-19T10:11:51Z</time>
      </trkpt>
      <trkpt lat="43.66443" lon="3.23762">
        <ele>462.7</ele>
        <time>2026-05-19T10:11:56Z</time>
      </trkpt>
      <trkpt lat="43.66439" lon="3.23756">
        <ele>462</ele>
        <time>2026-05-19T10:12:01Z</time>
      </trkpt>
      <trkpt lat="43.66434" lon="3.23752">
        <ele>461.1</ele>
        <time>2026-05-19T10:12:06Z</time>
      </trkpt>
      <trkpt lat="43.6643" lon="3.23748">
        <ele>460.3</ele>
        <time>2026-05-19T10:12:11Z</time>
      </trkpt>
      <trkpt lat="43.66425" lon="3.23743">
        <ele>459.2</ele>
        <time>2026-05-19T10:12:16Z</time>
      </trkpt>
      <trkpt lat="43.6642" lon="3.23739">
        <ele>458.2</ele>
        <time>2026-05-19T10:12:21Z</time>
      </trkpt>
      <trkpt lat="43.66416" lon="3.23732">
        <ele>457.1</ele>
        <time>2026-05-19T10:12:26Z</time>
      </trkpt>
      <trkpt lat="43.66413" lon="3.23726">
        <ele>455.9</ele>
        <time>2026-05-19T10:12:31Z</time>
      </trkpt>
      <trkpt lat="43.66412" lon="3.23718">
        <ele>455.3</ele>
        <time>2026-05-19T10:12:36Z</time>
      </trkpt>
      <trkpt lat="43.66411" lon="3.23708">
        <ele>454.7</ele>
        <time>2026-05-19T10:12:41Z</time>
      </trkpt>
      <trkpt lat="43.66408" lon="3.237">
        <ele>453.5</ele>
        <time>2026-05-19T10:12:46Z</time>
      </trkpt>
      <trkpt lat="43.66406" lon="3.23693">
        <ele>452.7</ele>
        <time>2026-05-19T10:12:51Z</time>
      </trkpt>
      <trkpt lat="43.66404" lon="3.23686">
        <ele>452</ele>
        <time>2026-05-19T10:12:56Z</time>
      </trkpt>
      <trkpt lat="43.664" lon="3.2368">
        <ele>450.7</ele>
        <time>2026-05-19T10:13:01Z</time>
      </trkpt>
      <trkpt lat="43.66398" lon="3.23673">
        <ele>450</ele>
        <time>2026-05-19T10:13:06Z</time>
      </trkpt>
      <trkpt lat="43.66395" lon="3.23664">
        <ele>449.2</ele>
        <time>2026-05-19T10:13:11Z</time>
      </trkpt>
      <trkpt lat="43.66394" lon="3.23652">
        <ele>449.8</ele>
        <time>2026-05-19T10:13:16Z</time>
      </trkpt>
      <trkpt lat="43.66395" lon="3.23644">
        <ele>450.7</ele>
        <time>2026-05-19T10:13:21Z</time>
      </trkpt>
      <trkpt lat="43.66397" lon="3.2364">
        <ele>451.6</ele>
        <time>2026-05-19T10:13:26Z</time>
      </trkpt>
      <trkpt lat="43.664" lon="3.23636">
        <ele>452.7</ele>
        <time>2026-05-19T10:13:31Z</time>
      </trkpt>
      <trkpt lat="43.66405" lon="3.23633">
        <ele>454.3</ele>
        <time>2026-05-19T10:13:36Z</time>
      </trkpt>
      <trkpt lat="43.66409" lon="3.23628">
        <ele>455.7</ele>
        <time>2026-05-19T10:13:41Z</time>
      </trkpt>
      <trkpt lat="43.66414" lon="3.23623">
        <ele>457.4</ele>
        <time>2026-05-19T10:13:46Z</time>
      </trkpt>
      <trkpt lat="43.66421" lon="3.23623">
        <ele>458.4</ele>
        <time>2026-05-19T10:13:51Z</time>
      </trkpt>
      <trkpt lat="43.66429" lon="3.23624">
        <ele>458.9</ele>
        <time>2026-05-19T10:13:56Z</time>
      </trkpt>
      <trkpt lat="43.66434" lon="3.23626">
        <ele>459.1</ele>
        <time>2026-05-19T10:14:01Z</time>
      </trkpt>
      <trkpt lat="43.66441" lon="3.23628">
        <ele>459.5</ele>
        <time>2026-05-19T10:14:06Z</time>
      </trkpt>
      <trkpt lat="43.66446" lon="3.23633">
        <ele>459.6</ele>
        <time>2026-05-19T10:14:11Z</time>
      </trkpt>
      <trkpt lat="43.66452" lon="3.23637">
        <ele>459.9</ele>
        <time>2026-05-19T10:14:16Z</time>
      </trkpt>
      <trkpt lat="43.66457" lon="3.23641">
        <ele>460.2</ele>
        <time>2026-05-19T10:14:21Z</time>
      </trkpt>
      <trkpt lat="43.66465" lon="3.23645">
        <ele>460.7</ele>
        <time>2026-05-19T10:14:26Z</time>
      </trkpt>
      <trkpt lat="43.6647" lon="3.23649">
        <ele>461.1</ele>
        <time>2026-05-19T10:14:31Z</time>
      </trkpt>
      <trkpt lat="43.66476" lon="3.23652">
        <ele>461.6</ele>
        <time>2026-05-19T10:14:36Z</time>
      </trkpt>
      <trkpt lat="43.66481" lon="3.23657">
        <ele>462</ele>
        <time>2026-05-19T10:14:41Z</time>
      </trkpt>
      <trkpt lat="43.66487" lon="3.23662">
        <ele>462.6</ele>
        <time>2026-05-19T10:14:46Z</time>
      </trkpt>
      <trkpt lat="43.66491" lon="3.23669">
        <ele>463.3</ele>
        <time>2026-05-19T10:14:51Z</time>
      </trkpt>
      <trkpt lat="43.66496" lon="3.23676">
        <ele>464.5</ele>
        <time>2026-05-19T10:14:56Z</time>
      </trkpt>
      <trkpt lat="43.66501" lon="3.23682">
        <ele>465.6</ele>
        <time>2026-05-19T10:15:01Z</time>
      </trkpt>
      <trkpt lat="43.66507" lon="3.23686">
        <ele>465.4</ele>
        <time>2026-05-19T10:15:06Z</time>
      </trkpt>
      <trkpt lat="43.66512" lon="3.23692">
        <ele>465.6</ele>
        <time>2026-05-19T10:15:11Z</time>
      </trkpt>
      <trkpt lat="43.6652" lon="3.23697">
        <ele>465.5</ele>
        <time>2026-05-19T10:15:16Z</time>
      </trkpt>
      <trkpt lat="43.66526" lon="3.23702">
        <ele>465.5</ele>
        <time>2026-05-19T10:15:21Z</time>
      </trkpt>
      <trkpt lat="43.66533" lon="3.23707">
        <ele>465.6</ele>
        <time>2026-05-19T10:15:26Z</time>
      </trkpt>
      <trkpt lat="43.66538" lon="3.23711">
        <ele>465.7</ele>
        <time>2026-05-19T10:15:31Z</time>
      </trkpt>
      <trkpt lat="43.66544" lon="3.23717">
        <ele>466</ele>
        <time>2026-05-19T10:15:36Z</time>
      </trkpt>
      <trkpt lat="43.66551" lon="3.23722">
        <ele>466.1</ele>
        <time>2026-05-19T10:15:41Z</time>
      </trkpt>
      <trkpt lat="43.66557" lon="3.23722">
        <ele>465.6</ele>
        <time>2026-05-19T10:15:46Z</time>
      </trkpt>
      <trkpt lat="43.66565" lon="3.23723">
        <ele>465.2</ele>
        <time>2026-05-19T10:15:51Z</time>
      </trkpt>
      <trkpt lat="43.66572" lon="3.23725">
        <ele>464.9</ele>
        <time>2026-05-19T10:15:56Z</time>
      </trkpt>
      <trkpt lat="43.6658" lon="3.23728">
        <ele>464.8</ele>
        <time>2026-05-19T10:16:01Z</time>
      </trkpt>
      <trkpt lat="43.66588" lon="3.2373">
        <ele>464.1</ele>
        <time>2026-05-19T10:16:06Z</time>
      </trkpt>
      <trkpt lat="43.66597" lon="3.23731">
        <ele>462.7</ele>
        <time>2026-05-19T10:16:11Z</time>
      </trkpt>
      <trkpt lat="43.66604" lon="3.23732">
        <ele>461.7</ele>
        <time>2026-05-19T10:16:16Z</time>
      </trkpt>
      <trkpt lat="43.6661" lon="3.23733">
        <ele>460.8</ele>
        <time>2026-05-19T10:16:21Z</time>
      </trkpt>
      <trkpt lat="43.66614" lon="3.23734">
        <ele>460.3</ele>
        <time>2026-05-19T10:16:26Z</time>
      </trkpt>
      <trkpt lat="43.66619" lon="3.23737">
        <ele>459.9</ele>
        <time>2026-05-19T10:16:31Z</time>
      </trkpt>
      <trkpt lat="43.66625" lon="3.23739">
        <ele>459.2</ele>
        <time>2026-05-19T10:16:36Z</time>
      </trkpt>
      <trkpt lat="43.66632" lon="3.2374">
        <ele>458.2</ele>
        <time>2026-05-19T10:16:41Z</time>
      </trkpt>
      <trkpt lat="43.66639" lon="3.23741">
        <ele>457.2</ele>
        <time>2026-05-19T10:16:46Z</time>
      </trkpt>
      <trkpt lat="43.66646" lon="3.2374">
        <ele>455.8</ele>
        <time>2026-05-19T10:16:51Z</time>
      </trkpt>
      <trkpt lat="43.66653" lon="3.2374">
        <ele>454.6</ele>
        <time>2026-05-19T10:16:56Z</time>
      </trkpt>
      <trkpt lat="43.66656" lon="3.2374">
        <ele>454.1</ele>
        <time>2026-05-19T10:17:01Z</time>
      </trkpt>
      <trkpt lat="43.66656" lon="3.2374">
        <ele>454.1</ele>
        <time>2026-05-19T10:17:06Z</time>
      </trkpt>
      <trkpt lat="43.66656" lon="3.2374">
        <ele>454.1</ele>
        <time>2026-05-19T10:17:11Z</time>
      </trkpt>
      <trkpt lat="43.66656" lon="3.2374">
        <ele>454.1</ele>
        <time>2026-05-19T10:17:16Z</time>
      </trkpt>
      <trkpt lat="43.66656" lon="3.2374">
        <ele>454.1</ele>
        <time>2026-05-19T10:17:21Z</time>
      </trkpt>
      <trkpt lat="43.66656" lon="3.2374">
        <ele>454.1</ele>
        <time>2026-05-19T10:17:26Z</time>
      </trkpt>
      <trkpt lat="43.66656" lon="3.2374">
        <ele>454.1</ele>
        <time>2026-05-19T10:17:31Z</time>
      </trkpt>
      <trkpt lat="43.66656" lon="3.2374">
        <ele>454.1</ele>
        <time>2026-05-19T10:17:36Z</time>
      </trkpt>
      <trkpt lat="43.66656" lon="3.2374">
        <ele>454.1</ele>
        <time>2026-05-19T10:17:41Z</time>
      </trkpt>
      <trkpt lat="43.66668" lon="3.23738">
        <ele>451.8</ele>
        <time>2026-05-19T10:17:46Z</time>
      </trkpt>
      <trkpt lat="43.66668" lon="3.23738">
        <ele>451.8</ele>
        <time>2026-05-19T10:17:51Z</time>
      </trkpt>
      <trkpt lat="43.66668" lon="3.23738">
        <ele>451.8</ele>
        <time>2026-05-19T10:17:56Z</time>
      </trkpt>
      <trkpt lat="43.6667" lon="3.23738">
        <ele>451.6</ele>
        <time>2026-05-19T10:18:01Z</time>
      </trkpt>
      <trkpt lat="43.66674" lon="3.23739">
        <ele>451.3</ele>
        <time>2026-05-19T10:18:06Z</time>
      </trkpt>
      <trkpt lat="43.66675" lon="3.23739">
        <ele>451.2</ele>
        <time>2026-05-19T10:18:11Z</time>
      </trkpt>
      <trkpt lat="43.66676" lon="3.23738">
        <ele>450.9</ele>
        <time>2026-05-19T10:18:16Z</time>
      </trkpt>
      <trkpt lat="43.66676" lon="3.23738">
        <ele>450.9</ele>
        <time>2026-05-19T10:18:21Z</time>
      </trkpt>
      <trkpt lat="43.66676" lon="3.23738">
        <ele>450.9</ele>
        <time>2026-05-19T10:18:26Z</time>
      </trkpt>
      <trkpt lat="43.66676" lon="3.23738">
        <ele>450.9</ele>
        <time>2026-05-19T10:18:31Z</time>
      </trkpt>
      <trkpt lat="43.66676" lon="3.23738">
        <ele>450.9</ele>
        <time>2026-05-19T10:18:36Z</time>
      </trkpt>
      <trkpt lat="43.66676" lon="3.23738">
        <ele>450.9</ele>
        <time>2026-05-19T10:18:41Z</time>
      </trkpt>
      <trkpt lat="43.66676" lon="3.23738">
        <ele>450.9</ele>
        <time>2026-05-19T10:18:46Z</time>
      </trkpt>
      <trkpt lat="43.66676" lon="3.23738">
        <ele>450.9</ele>
        <time>2026-05-19T10:18:51Z</time>
      </trkpt>
      <trkpt lat="43.66676" lon="3.23738">
        <ele>450.9</ele>
        <time>2026-05-19T10:18:56Z</time>
      </trkpt>
      <trkpt lat="43.66676" lon="3.23738">
        <ele>450.9</ele>
        <time>2026-05-19T10:19:01Z</time>
      </trkpt>
      <trkpt lat="43.66676" lon="3.23738">
        <ele>450.9</ele>
        <time>2026-05-19T10:19:06Z</time>
      </trkpt>
      <trkpt lat="43.66676" lon="3.23738">
        <ele>450.9</ele>
        <time>2026-05-19T10:19:11Z</time>
      </trkpt>
      <trkpt lat="43.66676" lon="3.23738">
        <ele>450.9</ele>
        <time>2026-05-19T10:19:16Z</time>
      </trkpt>
      <trkpt lat="43.66676" lon="3.23738">
        <ele>450.9</ele>
        <time>2026-05-19T10:19:21Z</time>
      </trkpt>
      <trkpt lat="43.66676" lon="3.23738">
        <ele>450.9</ele>
        <time>2026-05-19T10:19:26Z</time>
      </trkpt>
      <trkpt lat="43.66676" lon="3.23738">
        <ele>450.9</ele>
        <time>2026-05-19T10:19:31Z</time>
      </trkpt>
      <trkpt lat="43.66676" lon="3.23738">
        <ele>450.9</ele>
        <time>2026-05-19T10:19:36Z</time>
      </trkpt>
      <trkpt lat="43.66676" lon="3.23738">
        <ele>450.9</ele>
        <time>2026-05-19T10:19:41Z</time>
      </trkpt>
      <trkpt lat="43.66676" lon="3.23738">
        <ele>450.9</ele>
        <time>2026-05-19T10:19:46Z</time>
      </trkpt>
      <trkpt lat="43.66676" lon="3.23738">
        <ele>450.9</ele>
        <time>2026-05-19T10:19:51Z</time>
      </trkpt>
      <trkpt lat="43.66676" lon="3.23738">
        <ele>450.9</ele>
        <time>2026-05-19T10:19:56Z</time>
      </trkpt>
      <trkpt lat="43.66676" lon="3.23738">
        <ele>450.9</ele>
        <time>2026-05-19T10:20:01Z</time>
      </trkpt>
      <trkpt lat="43.66676" lon="3.23738">
        <ele>450.9</ele>
        <time>2026-05-19T10:20:06Z</time>
      </trkpt>
      <trkpt lat="43.66676" lon="3.23738">
        <ele>450.9</ele>
        <time>2026-05-19T10:20:11Z</time>
      </trkpt>
      <trkpt lat="43.66676" lon="3.23738">
        <ele>450.9</ele>
        <time>2026-05-19T10:20:16Z</time>
      </trkpt>
      <trkpt lat="43.66676" lon="3.23738">
        <ele>450.9</ele>
        <time>2026-05-19T10:20:21Z</time>
      </trkpt>
      <trkpt lat="43.66676" lon="3.23738">
        <ele>450.9</ele>
        <time>2026-05-19T10:20:26Z</time>
      </trkpt>
      <trkpt lat="43.66676" lon="3.23738">
        <ele>450.9</ele>
        <time>2026-05-19T10:20:31Z</time>
      </trkpt>
      <trkpt lat="43.66676" lon="3.23738">
        <ele>450.9</ele>
        <time>2026-05-19T10:20:36Z</time>
      </trkpt>
      <trkpt lat="43.66676" lon="3.23738">
        <ele>450.9</ele>
        <time>2026-05-19T10:20:41Z</time>
      </trkpt>
      <trkpt lat="43.66676" lon="3.23738">
        <ele>450.9</ele>
        <time>2026-05-19T10:20:46Z</time>
      </trkpt>
      <trkpt lat="43.66676" lon="3.23738">
        <ele>450.9</ele>
        <time>2026-05-19T10:20:51Z</time>
      </trkpt>
      <trkpt lat="43.66676" lon="3.23738">
        <ele>450.9</ele>
        <time>2026-05-19T10:20:56Z</time>
      </trkpt>
      <trkpt lat="43.66676" lon="3.23738">
        <ele>450.9</ele>
        <time>2026-05-19T10:21:01Z</time>
      </trkpt>
      <trkpt lat="43.66676" lon="3.23738">
        <ele>450.9</ele>
        <time>2026-05-19T10:21:06Z</time>
      </trkpt>
      <trkpt lat="43.66676" lon="3.23738">
        <ele>450.9</ele>
        <time>2026-05-19T10:21:11Z</time>
      </trkpt>
      <trkpt lat="43.66676" lon="3.23738">
        <ele>450.9</ele>
        <time>2026-05-19T10:21:16Z</time>
      </trkpt>
      <trkpt lat="43.66676" lon="3.23738">
        <ele>450.9</ele>
        <time>2026-05-19T10:21:21Z</time>
      </trkpt>
      <trkpt lat="43.66676" lon="3.23738">
        <ele>450.9</ele>
        <time>2026-05-19T10:21:26Z</time>
      </trkpt>
      <trkpt lat="43.66676" lon="3.23738">
        <ele>450.9</ele>
        <time>2026-05-19T10:21:31Z</time>
      </trkpt>
      <trkpt lat="43.66676" lon="3.23738">
        <ele>450.9</ele>
        <time>2026-05-19T10:21:36Z</time>
      </trkpt>
      <trkpt lat="43.66676" lon="3.23738">
        <ele>450.9</ele>
        <time>2026-05-19T10:21:41Z</time>
      </trkpt>
      <trkpt lat="43.66676" lon="3.23738">
        <ele>450.9</ele>
        <time>2026-05-19T10:21:46Z</time>
      </trkpt>
      <trkpt lat="43.66676" lon="3.23738">
        <ele>450.9</ele>
        <time>2026-05-19T10:21:51Z</time>
      </trkpt>
      <trkpt lat="43.66676" lon="3.23738">
        <ele>450.9</ele>
        <time>2026-05-19T10:21:56Z</time>
      </trkpt>
      <trkpt lat="43.66676" lon="3.23738">
        <ele>450.9</ele>
        <time>2026-05-19T10:22:01Z</time>
      </trkpt>
      <trkpt lat="43.66676" lon="3.23738">
        <ele>450.9</ele>
        <time>2026-05-19T10:22:06Z</time>
      </trkpt>
      <trkpt lat="43.66676" lon="3.23738">
        <ele>450.9</ele>
        <time>2026-05-19T10:22:11Z</time>
      </trkpt>
      <trkpt lat="43.66676" lon="3.23738">
        <ele>450.9</ele>
        <time>2026-05-19T10:22:16Z</time>
      </trkpt>
      <trkpt lat="43.66676" lon="3.23738">
        <ele>450.9</ele>
        <time>2026-05-19T10:22:21Z</time>
      </trkpt>
      <trkpt lat="43.66676" lon="3.23738">
        <ele>450.9</ele>
        <time>2026-05-19T10:22:26Z</time>
      </trkpt>
      <trkpt lat="43.66676" lon="3.23738">
        <ele>450.9</ele>
        <time>2026-05-19T10:22:31Z</time>
      </trkpt>
      <trkpt lat="43.66676" lon="3.23738">
        <ele>450.9</ele>
        <time>2026-05-19T10:22:36Z</time>
      </trkpt>
      <trkpt lat="43.66676" lon="3.23738">
        <ele>450.9</ele>
        <time>2026-05-19T10:22:41Z</time>
      </trkpt>
      <trkpt lat="43.66676" lon="3.23738">
        <ele>450.9</ele>
        <time>2026-05-19T10:22:46Z</time>
      </trkpt>
      <trkpt lat="43.66676" lon="3.23738">
        <ele>450.9</ele>
        <time>2026-05-19T10:22:51Z</time>
      </trkpt>
      <trkpt lat="43.66676" lon="3.23738">
        <ele>450.9</ele>
        <time>2026-05-19T10:22:56Z</time>
      </trkpt>
      <trkpt lat="43.66676" lon="3.23738">
        <ele>450.9</ele>
        <time>2026-05-19T10:23:01Z</time>
      </trkpt>
      <trkpt lat="43.66676" lon="3.23738">
        <ele>450.9</ele>
        <time>2026-05-19T10:23:06Z</time>
      </trkpt>
      <trkpt lat="43.66676" lon="3.23738">
        <ele>450.9</ele>
        <time>2026-05-19T10:23:11Z</time>
      </trkpt>
      <trkpt lat="43.66676" lon="3.23738">
        <ele>450.9</ele>
        <time>2026-05-19T10:23:16Z</time>
      </trkpt>
      <trkpt lat="43.66676" lon="3.23738">
        <ele>450.9</ele>
        <time>2026-05-19T10:23:21Z</time>
      </trkpt>
      <trkpt lat="43.66676" lon="3.23738">
        <ele>450.9</ele>
        <time>2026-05-19T10:23:26Z</time>
      </trkpt>
      <trkpt lat="43.66676" lon="3.23738">
        <ele>450.9</ele>
        <time>2026-05-19T10:23:31Z</time>
      </trkpt>
      <trkpt lat="43.66676" lon="3.23738">
        <ele>450.9</ele>
        <time>2026-05-19T10:23:36Z</time>
      </trkpt>
      <trkpt lat="43.66676" lon="3.23738">
        <ele>450.9</ele>
        <time>2026-05-19T10:23:41Z</time>
      </trkpt>
      <trkpt lat="43.66676" lon="3.23738">
        <ele>450.9</ele>
        <time>2026-05-19T10:23:46Z</time>
      </trkpt>
      <trkpt lat="43.66676" lon="3.23738">
        <ele>450.9</ele>
        <time>2026-05-19T10:23:51Z</time>
      </trkpt>
      <trkpt lat="43.66676" lon="3.23738">
        <ele>450.9</ele>
        <time>2026-05-19T10:23:56Z</time>
      </trkpt>
      <trkpt lat="43.66676" lon="3.23738">
        <ele>450.9</ele>
        <time>2026-05-19T10:24:01Z</time>
      </trkpt>
      <trkpt lat="43.66676" lon="3.23738">
        <ele>450.9</ele>
        <time>2026-05-19T10:24:06Z</time>
      </trkpt>
      <trkpt lat="43.66676" lon="3.23738">
        <ele>450.9</ele>
        <time>2026-05-19T10:24:11Z</time>
      </trkpt>
      <trkpt lat="43.66676" lon="3.23738">
        <ele>450.9</ele>
        <time>2026-05-19T10:24:16Z</time>
      </trkpt>
      <trkpt lat="43.66676" lon="3.23738">
        <ele>450.9</ele>
        <time>2026-05-19T10:24:21Z</time>
      </trkpt>
      <trkpt lat="43.66676" lon="3.23738">
        <ele>450.9</ele>
        <time>2026-05-19T10:24:26Z</time>
      </trkpt>
      <trkpt lat="43.66676" lon="3.23738">
        <ele>450.9</ele>
        <time>2026-05-19T10:24:31Z</time>
      </trkpt>
      <trkpt lat="43.66676" lon="3.23738">
        <ele>450.9</ele>
        <time>2026-05-19T10:24:36Z</time>
      </trkpt>
      <trkpt lat="43.66676" lon="3.23738">
        <ele>450.9</ele>
        <time>2026-05-19T10:24:41Z</time>
      </trkpt>
      <trkpt lat="43.66676" lon="3.23738">
        <ele>450.9</ele>
        <time>2026-05-19T10:24:46Z</time>
      </trkpt>
      <trkpt lat="43.66676" lon="3.23738">
        <ele>450.9</ele>
        <time>2026-05-19T10:24:51Z</time>
      </trkpt>
      <trkpt lat="43.66676" lon="3.23738">
        <ele>450.9</ele>
        <time>2026-05-19T10:24:56Z</time>
      </trkpt>
      <trkpt lat="43.66676" lon="3.23738">
        <ele>450.9</ele>
        <time>2026-05-19T10:25:01Z</time>
      </trkpt>
      <trkpt lat="43.66676" lon="3.23738">
        <ele>450.9</ele>
        <time>2026-05-19T10:25:06Z</time>
      </trkpt>
      <trkpt lat="43.66676" lon="3.23738">
        <ele>450.9</ele>
        <time>2026-05-19T10:25:11Z</time>
      </trkpt>
      <trkpt lat="43.66676" lon="3.23738">
        <ele>450.9</ele>
        <time>2026-05-19T10:25:16Z</time>
      </trkpt>
      <trkpt lat="43.66676" lon="3.23738">
        <ele>450.9</ele>
        <time>2026-05-19T10:25:21Z</time>
      </trkpt>
      <trkpt lat="43.66676" lon="3.23738">
        <ele>450.9</ele>
        <time>2026-05-19T10:25:26Z</time>
      </trkpt>
      <trkpt lat="43.66676" lon="3.23738">
        <ele>450.9</ele>
        <time>2026-05-19T10:25:31Z</time>
      </trkpt>
      <trkpt lat="43.66676" lon="3.23738">
        <ele>450.9</ele>
        <time>2026-05-19T10:25:36Z</time>
      </trkpt>
      <trkpt lat="43.66676" lon="3.23738">
        <ele>450.9</ele>
        <time>2026-05-19T10:25:41Z</time>
      </trkpt>
      <trkpt lat="43.66676" lon="3.23738">
        <ele>450.9</ele>
        <time>2026-05-19T10:25:46Z</time>
      </trkpt>
      <trkpt lat="43.66676" lon="3.23738">
        <ele>450.9</ele>
        <time>2026-05-19T10:25:51Z</time>
      </trkpt>
      <trkpt lat="43.66676" lon="3.23738">
        <ele>450.9</ele>
        <time>2026-05-19T10:25:56Z</time>
      </trkpt>
      <trkpt lat="43.66676" lon="3.23738">
        <ele>450.9</ele>
        <time>2026-05-19T10:26:01Z</time>
      </trkpt>
      <trkpt lat="43.66676" lon="3.23738">
        <ele>450.9</ele>
        <time>2026-05-19T10:26:06Z</time>
      </trkpt>
      <trkpt lat="43.66676" lon="3.23738">
        <ele>450.9</ele>
        <time>2026-05-19T10:26:11Z</time>
      </trkpt>
      <trkpt lat="43.66676" lon="3.23738">
        <ele>450.9</ele>
        <time>2026-05-19T10:26:16Z</time>
      </trkpt>
      <trkpt lat="43.66676" lon="3.23738">
        <ele>450.9</ele>
        <time>2026-05-19T10:26:21Z</time>
      </trkpt>
      <trkpt lat="43.66676" lon="3.23738">
        <ele>450.9</ele>
        <time>2026-05-19T10:26:26Z</time>
      </trkpt>
      <trkpt lat="43.66676" lon="3.23738">
        <ele>450.9</ele>
        <time>2026-05-19T10:26:31Z</time>
      </trkpt>
      <trkpt lat="43.66676" lon="3.23738">
        <ele>450.9</ele>
        <time>2026-05-19T10:26:36Z</time>
      </trkpt>
      <trkpt lat="43.66676" lon="3.23738">
        <ele>450.9</ele>
        <time>2026-05-19T10:26:41Z</time>
      </trkpt>
      <trkpt lat="43.66676" lon="3.23738">
        <ele>450.9</ele>
        <time>2026-05-19T10:26:46Z</time>
      </trkpt>
      <trkpt lat="43.66676" lon="3.23738">
        <ele>450.9</ele>
        <time>2026-05-19T10:26:51Z</time>
      </trkpt>
      <trkpt lat="43.66676" lon="3.23738">
        <ele>450.9</ele>
        <time>2026-05-19T10:26:56Z</time>
      </trkpt>
      <trkpt lat="43.66676" lon="3.23738">
        <ele>450.9</ele>
        <time>2026-05-19T10:27:01Z</time>
      </trkpt>
      <trkpt lat="43.66676" lon="3.23738">
        <ele>450.9</ele>
        <time>2026-05-19T10:27:06Z</time>
      </trkpt>
      <trkpt lat="43.66676" lon="3.23738">
        <ele>450.9</ele>
        <time>2026-05-19T10:27:11Z</time>
      </trkpt>
      <trkpt lat="43.66676" lon="3.23738">
        <ele>450.9</ele>
        <time>2026-05-19T10:27:16Z</time>
      </trkpt>
      <trkpt lat="43.66676" lon="3.23738">
        <ele>450.9</ele>
        <time>2026-05-19T10:27:21Z</time>
      </trkpt>
      <trkpt lat="43.66676" lon="3.23738">
        <ele>450.9</ele>
        <time>2026-05-19T10:27:26Z</time>
      </trkpt>
      <trkpt lat="43.66676" lon="3.23738">
        <ele>450.9</ele>
        <time>2026-05-19T10:27:31Z</time>
      </trkpt>
      <trkpt lat="43.66676" lon="3.23738">
        <ele>450.9</ele>
        <time>2026-05-19T10:27:36Z</time>
      </trkpt>
      <trkpt lat="43.66676" lon="3.23738">
        <ele>450.9</ele>
        <time>2026-05-19T10:27:41Z</time>
      </trkpt>
      <trkpt lat="43.66676" lon="3.23738">
        <ele>450.9</ele>
        <time>2026-05-19T10:27:46Z</time>
      </trkpt>
      <trkpt lat="43.66676" lon="3.23738">
        <ele>450.9</ele>
        <time>2026-05-19T10:27:51Z</time>
      </trkpt>
      <trkpt lat="43.66676" lon="3.23738">
        <ele>450.9</ele>
        <time>2026-05-19T10:27:56Z</time>
      </trkpt>
      <trkpt lat="43.66676" lon="3.23738">
        <ele>450.9</ele>
        <time>2026-05-19T10:28:01Z</time>
      </trkpt>
      <trkpt lat="43.66676" lon="3.23738">
        <ele>450.9</ele>
        <time>2026-05-19T10:28:06Z</time>
      </trkpt>
      <trkpt lat="43.66676" lon="3.23738">
        <ele>450.9</ele>
        <time>2026-05-19T10:28:11Z</time>
      </trkpt>
      <trkpt lat="43.66676" lon="3.23738">
        <ele>450.9</ele>
        <time>2026-05-19T10:28:16Z</time>
      </trkpt>
      <trkpt lat="43.66676" lon="3.23738">
        <ele>450.9</ele>
        <time>2026-05-19T10:28:21Z</time>
      </trkpt>
      <trkpt lat="43.66676" lon="3.23738">
        <ele>450.9</ele>
        <time>2026-05-19T10:28:26Z</time>
      </trkpt>
      <trkpt lat="43.66683" lon="3.23738">
        <ele>450.1</ele>
        <time>2026-05-19T10:28:31Z</time>
      </trkpt>
      <trkpt lat="43.66685" lon="3.23738">
        <ele>449.8</ele>
        <time>2026-05-19T10:28:36Z</time>
      </trkpt>
      <trkpt lat="43.66685" lon="3.23738">
        <ele>449.8</ele>
        <time>2026-05-19T10:28:41Z</time>
      </trkpt>
      <trkpt lat="43.66685" lon="3.23738">
        <ele>449.8</ele>
        <time>2026-05-19T10:28:46Z</time>
      </trkpt>
      <trkpt lat="43.66685" lon="3.23738">
        <ele>449.8</ele>
        <time>2026-05-19T10:28:51Z</time>
      </trkpt>
      <trkpt lat="43.66685" lon="3.23738">
        <ele>449.8</ele>
        <time>2026-05-19T10:28:56Z</time>
      </trkpt>
      <trkpt lat="43.66691" lon="3.23737">
        <ele>449</ele>
        <time>2026-05-19T10:29:01Z</time>
      </trkpt>
      <trkpt lat="43.66694" lon="3.23736">
        <ele>448.5</ele>
        <time>2026-05-19T10:29:06Z</time>
      </trkpt>
      <trkpt lat="43.66697" lon="3.23735">
        <ele>448</ele>
        <time>2026-05-19T10:29:11Z</time>
      </trkpt>
      <trkpt lat="43.667" lon="3.23734">
        <ele>447.5</ele>
        <time>2026-05-19T10:29:16Z</time>
      </trkpt>
      <trkpt lat="43.66705" lon="3.23734">
        <ele>446.9</ele>
        <time>2026-05-19T10:29:21Z</time>
      </trkpt>
      <trkpt lat="43.6671" lon="3.23732">
        <ele>446</ele>
        <time>2026-05-19T10:29:26Z</time>
      </trkpt>
      <trkpt lat="43.66714" lon="3.23732">
        <ele>445.5</ele>
        <time>2026-05-19T10:29:31Z</time>
      </trkpt>
      <trkpt lat="43.6672" lon="3.23735">
        <ele>445.3</ele>
        <time>2026-05-19T10:29:36Z</time>
      </trkpt>
      <trkpt lat="43.66724" lon="3.23737">
        <ele>445.2</ele>
        <time>2026-05-19T10:29:41Z</time>
      </trkpt>
      <trkpt lat="43.66727" lon="3.23737">
        <ele>444.8</ele>
        <time>2026-05-19T10:29:46Z</time>
      </trkpt>
      <trkpt lat="43.66729" lon="3.23737">
        <ele>444.6</ele>
        <time>2026-05-19T10:29:51Z</time>
      </trkpt>
      <trkpt lat="43.66735" lon="3.23734">
        <ele>443.4</ele>
        <time>2026-05-19T10:29:56Z</time>
      </trkpt>
      <trkpt lat="43.66738" lon="3.23728">
        <ele>442.2</ele>
        <time>2026-05-19T10:30:01Z</time>
      </trkpt>
      <trkpt lat="43.66736" lon="3.23719">
        <ele>441.1</ele>
        <time>2026-05-19T10:30:06Z</time>
      </trkpt>
      <trkpt lat="43.66732" lon="3.2371">
        <ele>440.2</ele>
        <time>2026-05-19T10:30:11Z</time>
      </trkpt>
      <trkpt lat="43.66729" lon="3.23703">
        <ele>439.5</ele>
        <time>2026-05-19T10:30:16Z</time>
      </trkpt>
      <trkpt lat="43.66726" lon="3.23695">
        <ele>438.6</ele>
        <time>2026-05-19T10:30:21Z</time>
      </trkpt>
      <trkpt lat="43.66721" lon="3.23688">
        <ele>438</ele>
        <time>2026-05-19T10:30:26Z</time>
      </trkpt>
      <trkpt lat="43.66718" lon="3.2368">
        <ele>437.1</ele>
        <time>2026-05-19T10:30:31Z</time>
      </trkpt>
      <trkpt lat="43.66714" lon="3.23672">
        <ele>436.3</ele>
        <time>2026-05-19T10:30:36Z</time>
      </trkpt>
      <trkpt lat="43.66708" lon="3.23667">
        <ele>436.1</ele>
        <time>2026-05-19T10:30:41Z</time>
      </trkpt>
      <trkpt lat="43.66703" lon="3.23663">
        <ele>436</ele>
        <time>2026-05-19T10:30:46Z</time>
      </trkpt>
      <trkpt lat="43.66699" lon="3.23661">
        <ele>436.2</ele>
        <time>2026-05-19T10:30:51Z</time>
      </trkpt>
      <trkpt lat="43.66696" lon="3.23657">
        <ele>435.9</ele>
        <time>2026-05-19T10:30:56Z</time>
      </trkpt>
      <trkpt lat="43.66694" lon="3.23652">
        <ele>435.4</ele>
        <time>2026-05-19T10:31:01Z</time>
      </trkpt>
      <trkpt lat="43.66695" lon="3.23643">
        <ele>434.1</ele>
        <time>2026-05-19T10:31:06Z</time>
      </trkpt>
      <trkpt lat="43.66694" lon="3.23635">
        <ele>433.1</ele>
        <time>2026-05-19T10:31:11Z</time>
      </trkpt>
      <trkpt lat="43.66696" lon="3.23625">
        <ele>431.6</ele>
        <time>2026-05-19T10:31:16Z</time>
      </trkpt>
      <trkpt lat="43.66695" lon="3.23612">
        <ele>429.9</ele>
        <time>2026-05-19T10:31:21Z</time>
      </trkpt>
      <trkpt lat="43.66695" lon="3.23604">
        <ele>428.8</ele>
        <time>2026-05-19T10:31:26Z</time>
      </trkpt>
      <trkpt lat="43.667" lon="3.23597">
        <ele>427.8</ele>
        <time>2026-05-19T10:31:31Z</time>
      </trkpt>
      <trkpt lat="43.66703" lon="3.23589">
        <ele>426.7</ele>
        <time>2026-05-19T10:31:36Z</time>
      </trkpt>
      <trkpt lat="43.66706" lon="3.23578">
        <ele>425.6</ele>
        <time>2026-05-19T10:31:41Z</time>
      </trkpt>
      <trkpt lat="43.6671" lon="3.2357">
        <ele>425.1</ele>
        <time>2026-05-19T10:31:46Z</time>
      </trkpt>
      <trkpt lat="43.66712" lon="3.23564">
        <ele>424.7</ele>
        <time>2026-05-19T10:31:51Z</time>
      </trkpt>
      <trkpt lat="43.66713" lon="3.23558">
        <ele>424.3</ele>
        <time>2026-05-19T10:31:56Z</time>
      </trkpt>
      <trkpt lat="43.66715" lon="3.23554">
        <ele>424.2</ele>
        <time>2026-05-19T10:32:01Z</time>
      </trkpt>
      <trkpt lat="43.66716" lon="3.23552">
        <ele>424.1</ele>
        <time>2026-05-19T10:32:06Z</time>
      </trkpt>
      <trkpt lat="43.66716" lon="3.23548">
        <ele>423.8</ele>
        <time>2026-05-19T10:32:11Z</time>
      </trkpt>
      <trkpt lat="43.66715" lon="3.23539">
        <ele>423.2</ele>
        <time>2026-05-19T10:32:16Z</time>
      </trkpt>
      <trkpt lat="43.66713" lon="3.23531">
        <ele>422.6</ele>
        <time>2026-05-19T10:32:21Z</time>
      </trkpt>
      <trkpt lat="43.66713" lon="3.23523">
        <ele>422.1</ele>
        <time>2026-05-19T10:32:26Z</time>
      </trkpt>
      <trkpt lat="43.66713" lon="3.23514">
        <ele>421.5</ele>
        <time>2026-05-19T10:32:31Z</time>
      </trkpt>
      <trkpt lat="43.6671" lon="3.23505">
        <ele>420.5</ele>
        <time>2026-05-19T10:32:36Z</time>
      </trkpt>
      <trkpt lat="43.66709" lon="3.23499">
        <ele>420</ele>
        <time>2026-05-19T10:32:41Z</time>
      </trkpt>
      <trkpt lat="43.66705" lon="3.23489">
        <ele>418.8</ele>
        <time>2026-05-19T10:32:46Z</time>
      </trkpt>
      <trkpt lat="43.66701" lon="3.23481">
        <ele>417.5</ele>
        <time>2026-05-19T10:32:51Z</time>
      </trkpt>
      <trkpt lat="43.66696" lon="3.23476">
        <ele>416.2</ele>
        <time>2026-05-19T10:32:56Z</time>
      </trkpt>
      <trkpt lat="43.66695" lon="3.23472">
        <ele>415.6</ele>
        <time>2026-05-19T10:33:01Z</time>
      </trkpt>
      <trkpt lat="43.66695" lon="3.23472">
        <ele>415.6</ele>
        <time>2026-05-19T10:33:06Z</time>
      </trkpt>
      <trkpt lat="43.66696" lon="3.23469">
        <ele>415.5</ele>
        <time>2026-05-19T10:33:11Z</time>
      </trkpt>
      <trkpt lat="43.66692" lon="3.23464">
        <ele>414.2</ele>
        <time>2026-05-19T10:33:16Z</time>
      </trkpt>
      <trkpt lat="43.66692" lon="3.23456">
        <ele>413.4</ele>
        <time>2026-05-19T10:33:21Z</time>
      </trkpt>
      <trkpt lat="43.66692" lon="3.23449">
        <ele>412.6</ele>
        <time>2026-05-19T10:33:26Z</time>
      </trkpt>
      <trkpt lat="43.66692" lon="3.23442">
        <ele>411.9</ele>
        <time>2026-05-19T10:33:31Z</time>
      </trkpt>
      <trkpt lat="43.66692" lon="3.2344">
        <ele>411.7</ele>
        <time>2026-05-19T10:33:36Z</time>
      </trkpt>
      <trkpt lat="43.66692" lon="3.23434">
        <ele>411</ele>
        <time>2026-05-19T10:33:41Z</time>
      </trkpt>
      <trkpt lat="43.66692" lon="3.23428">
        <ele>410.4</ele>
        <time>2026-05-19T10:33:46Z</time>
      </trkpt>
      <trkpt lat="43.66696" lon="3.2342">
        <ele>410.8</ele>
        <time>2026-05-19T10:33:51Z</time>
      </trkpt>
      <trkpt lat="43.66701" lon="3.23411">
        <ele>411.6</ele>
        <time>2026-05-19T10:33:56Z</time>
      </trkpt>
      <trkpt lat="43.66707" lon="3.23405">
        <ele>412.9</ele>
        <time>2026-05-19T10:34:01Z</time>
      </trkpt>
      <trkpt lat="43.66712" lon="3.23396">
        <ele>413.7</ele>
        <time>2026-05-19T10:34:06Z</time>
      </trkpt>
      <trkpt lat="43.66714" lon="3.23389">
        <ele>413.8</ele>
        <time>2026-05-19T10:34:11Z</time>
      </trkpt>
      <trkpt lat="43.66712" lon="3.23384">
        <ele>412.6</ele>
        <time>2026-05-19T10:34:16Z</time>
      </trkpt>
      <trkpt lat="43.66712" lon="3.23383">
        <ele>412.5</ele>
        <time>2026-05-19T10:34:21Z</time>
      </trkpt>
      <trkpt lat="43.66712" lon="3.23383">
        <ele>412.5</ele>
        <time>2026-05-19T10:34:26Z</time>
      </trkpt>
      <trkpt lat="43.66712" lon="3.23383">
        <ele>412.5</ele>
        <time>2026-05-19T10:34:31Z</time>
      </trkpt>
      <trkpt lat="43.66712" lon="3.23383">
        <ele>412.5</ele>
        <time>2026-05-19T10:34:36Z</time>
      </trkpt>
      <trkpt lat="43.66712" lon="3.23383">
        <ele>412.5</ele>
        <time>2026-05-19T10:34:41Z</time>
      </trkpt>
      <trkpt lat="43.66712" lon="3.23383">
        <ele>412.5</ele>
        <time>2026-05-19T10:34:46Z</time>
      </trkpt>
      <trkpt lat="43.66712" lon="3.23383">
        <ele>412.5</ele>
        <time>2026-05-19T10:34:51Z</time>
      </trkpt>
      <trkpt lat="43.66712" lon="3.23383">
        <ele>412.5</ele>
        <time>2026-05-19T10:34:56Z</time>
      </trkpt>
      <trkpt lat="43.66712" lon="3.23383">
        <ele>412.5</ele>
        <time>2026-05-19T10:35:01Z</time>
      </trkpt>
      <trkpt lat="43.66712" lon="3.23383">
        <ele>412.5</ele>
        <time>2026-05-19T10:35:06Z</time>
      </trkpt>
      <trkpt lat="43.66712" lon="3.23383">
        <ele>412.5</ele>
        <time>2026-05-19T10:35:11Z</time>
      </trkpt>
      <trkpt lat="43.66712" lon="3.23383">
        <ele>412.5</ele>
        <time>2026-05-19T10:35:16Z</time>
      </trkpt>
      <trkpt lat="43.66712" lon="3.23383">
        <ele>412.5</ele>
        <time>2026-05-19T10:35:21Z</time>
      </trkpt>
      <trkpt lat="43.66712" lon="3.23383">
        <ele>412.5</ele>
        <time>2026-05-19T10:35:26Z</time>
      </trkpt>
      <trkpt lat="43.66712" lon="3.23383">
        <ele>412.5</ele>
        <time>2026-05-19T10:35:31Z</time>
      </trkpt>
      <trkpt lat="43.66712" lon="3.23383">
        <ele>412.5</ele>
        <time>2026-05-19T10:35:36Z</time>
      </trkpt>
      <trkpt lat="43.66712" lon="3.23383">
        <ele>412.5</ele>
        <time>2026-05-19T10:35:41Z</time>
      </trkpt>
      <trkpt lat="43.66712" lon="3.23383">
        <ele>412.5</ele>
        <time>2026-05-19T10:35:46Z</time>
      </trkpt>
      <trkpt lat="43.66714" lon="3.23385">
        <ele>413.4</ele>
        <time>2026-05-19T10:35:51Z</time>
      </trkpt>
      <trkpt lat="43.66718" lon="3.23384">
        <ele>414.7</ele>
        <time>2026-05-19T10:35:56Z</time>
      </trkpt>
      <trkpt lat="43.66722" lon="3.23387">
        <ele>416.3</ele>
        <time>2026-05-19T10:36:01Z</time>
      </trkpt>
      <trkpt lat="43.66726" lon="3.23391">
        <ele>418</ele>
        <time>2026-05-19T10:36:06Z</time>
      </trkpt>
      <trkpt lat="43.66728" lon="3.23391">
        <ele>418.7</ele>
        <time>2026-05-19T10:36:11Z</time>
      </trkpt>
      <trkpt lat="43.66732" lon="3.23394">
        <ele>420.3</ele>
        <time>2026-05-19T10:36:16Z</time>
      </trkpt>
      <trkpt lat="43.66734" lon="3.23401">
        <ele>421.5</ele>
        <time>2026-05-19T10:36:21Z</time>
      </trkpt>
      <trkpt lat="43.66734" lon="3.23408">
        <ele>422.1</ele>
        <time>2026-05-19T10:36:26Z</time>
      </trkpt>
      <trkpt lat="43.66733" lon="3.23413">
        <ele>422.2</ele>
        <time>2026-05-19T10:36:31Z</time>
      </trkpt>
      <trkpt lat="43.66734" lon="3.23419">
        <ele>422.8</ele>
        <time>2026-05-19T10:36:36Z</time>
      </trkpt>
      <trkpt lat="43.66733" lon="3.2342">
        <ele>422.5</ele>
        <time>2026-05-19T10:36:41Z</time>
      </trkpt>
      <trkpt lat="43.66733" lon="3.2342">
        <ele>422.5</ele>
        <time>2026-05-19T10:36:46Z</time>
      </trkpt>
      <trkpt lat="43.66735" lon="3.23413">
        <ele>422.8</ele>
        <time>2026-05-19T10:36:51Z</time>
      </trkpt>
      <trkpt lat="43.66732" lon="3.23407">
        <ele>421.4</ele>
        <time>2026-05-19T10:36:56Z</time>
      </trkpt>
      <trkpt lat="43.66729" lon="3.23401">
        <ele>419.9</ele>
        <time>2026-05-19T10:37:01Z</time>
      </trkpt>
      <trkpt lat="43.66727" lon="3.23395">
        <ele>418.7</ele>
        <time>2026-05-19T10:37:06Z</time>
      </trkpt>
      <trkpt lat="43.6672" lon="3.23393">
        <ele>416.2</ele>
        <time>2026-05-19T10:37:11Z</time>
      </trkpt>
      <trkpt lat="43.66714" lon="3.23394">
        <ele>414.2</ele>
        <time>2026-05-19T10:37:16Z</time>
      </trkpt>
      <trkpt lat="43.66705" lon="3.234">
        <ele>411.8</ele>
        <time>2026-05-19T10:37:21Z</time>
      </trkpt>
      <trkpt lat="43.66701" lon="3.23403">
        <ele>410.8</ele>
        <time>2026-05-19T10:37:26Z</time>
      </trkpt>
      <trkpt lat="43.66701" lon="3.23405">
        <ele>411</ele>
        <time>2026-05-19T10:37:31Z</time>
      </trkpt>
      <trkpt lat="43.66701" lon="3.23406">
        <ele>411.1</ele>
        <time>2026-05-19T10:37:36Z</time>
      </trkpt>
      <trkpt lat="43.66701" lon="3.23406">
        <ele>411.1</ele>
        <time>2026-05-19T10:37:41Z</time>
      </trkpt>
      <trkpt lat="43.66699" lon="3.23412">
        <ele>411</ele>
        <time>2026-05-19T10:37:46Z</time>
      </trkpt>
      <trkpt lat="43.66699" lon="3.23415">
        <ele>411.3</ele>
        <time>2026-05-19T10:37:51Z</time>
      </trkpt>
      <trkpt lat="43.66701" lon="3.23419">
        <ele>412.3</ele>
        <time>2026-05-19T10:37:56Z</time>
      </trkpt>
      <trkpt lat="43.66702" lon="3.23421">
        <ele>412.8</ele>
        <time>2026-05-19T10:38:01Z</time>
      </trkpt>
      <trkpt lat="43.66702" lon="3.23421">
        <ele>412.8</ele>
        <time>2026-05-19T10:38:06Z</time>
      </trkpt>
      <trkpt lat="43.66702" lon="3.23421">
        <ele>412.8</ele>
        <time>2026-05-19T10:38:11Z</time>
      </trkpt>
      <trkpt lat="43.66711" lon="3.23427">
        <ele>416</ele>
        <time>2026-05-19T10:38:16Z</time>
      </trkpt>
      <trkpt lat="43.66714" lon="3.23427">
        <ele>416.9</ele>
        <time>2026-05-19T10:38:21Z</time>
      </trkpt>
      <trkpt lat="43.66716" lon="3.23427">
        <ele>417.5</ele>
        <time>2026-05-19T10:38:26Z</time>
      </trkpt>
      <trkpt lat="43.66718" lon="3.23429">
        <ele>418.2</ele>
        <time>2026-05-19T10:38:31Z</time>
      </trkpt>
      <trkpt lat="43.66715" lon="3.2343">
        <ele>417.3</ele>
        <time>2026-05-19T10:38:36Z</time>
      </trkpt>
      <trkpt lat="43.6671" lon="3.23425">
        <ele>415.6</ele>
        <time>2026-05-19T10:38:41Z</time>
      </trkpt>
      <trkpt lat="43.66704" lon="3.23421">
        <ele>413.4</ele>
        <time>2026-05-19T10:38:46Z</time>
      </trkpt>
      <trkpt lat="43.66701" lon="3.23418">
        <ele>412.2</ele>
        <time>2026-05-19T10:38:51Z</time>
      </trkpt>
      <trkpt lat="43.66697" lon="3.23414">
        <ele>410.6</ele>
        <time>2026-05-19T10:38:56Z</time>
      </trkpt>
      <trkpt lat="43.66696" lon="3.23404">
        <ele>409.2</ele>
        <time>2026-05-19T10:39:01Z</time>
      </trkpt>
      <trkpt lat="43.66699" lon="3.23392">
        <ele>409</ele>
        <time>2026-05-19T10:39:06Z</time>
      </trkpt>
      <trkpt lat="43.66706" lon="3.23384">
        <ele>410.6</ele>
        <time>2026-05-19T10:39:11Z</time>
      </trkpt>
      <trkpt lat="43.66711" lon="3.23381">
        <ele>412</ele>
        <time>2026-05-19T10:39:16Z</time>
      </trkpt>
      <trkpt lat="43.66715" lon="3.23374">
        <ele>412.7</ele>
        <time>2026-05-19T10:39:21Z</time>
      </trkpt>
      <trkpt lat="43.66718" lon="3.23366">
        <ele>413.1</ele>
        <time>2026-05-19T10:39:26Z</time>
      </trkpt>
      <trkpt lat="43.66719" lon="3.23359">
        <ele>412.8</ele>
        <time>2026-05-19T10:39:31Z</time>
      </trkpt>
      <trkpt lat="43.66718" lon="3.23357">
        <ele>412.2</ele>
        <time>2026-05-19T10:39:36Z</time>
      </trkpt>
      <trkpt lat="43.66717" lon="3.23357">
        <ele>411.9</ele>
        <time>2026-05-19T10:39:41Z</time>
      </trkpt>
      <trkpt lat="43.66717" lon="3.23357">
        <ele>411.9</ele>
        <time>2026-05-19T10:39:46Z</time>
      </trkpt>
      <trkpt lat="43.66717" lon="3.23357">
        <ele>411.9</ele>
        <time>2026-05-19T10:39:51Z</time>
      </trkpt>
      <trkpt lat="43.66717" lon="3.23357">
        <ele>411.9</ele>
        <time>2026-05-19T10:39:56Z</time>
      </trkpt>
      <trkpt lat="43.66717" lon="3.23357">
        <ele>411.9</ele>
        <time>2026-05-19T10:40:01Z</time>
      </trkpt>
      <trkpt lat="43.66717" lon="3.23357">
        <ele>411.9</ele>
        <time>2026-05-19T10:40:06Z</time>
      </trkpt>
      <trkpt lat="43.66717" lon="3.23357">
        <ele>411.9</ele>
        <time>2026-05-19T10:40:11Z</time>
      </trkpt>
      <trkpt lat="43.66717" lon="3.23357">
        <ele>411.9</ele>
        <time>2026-05-19T10:40:16Z</time>
      </trkpt>
      <trkpt lat="43.66717" lon="3.23357">
        <ele>411.9</ele>
        <time>2026-05-19T10:40:21Z</time>
      </trkpt>
      <trkpt lat="43.66717" lon="3.23357">
        <ele>411.9</ele>
        <time>2026-05-19T10:40:26Z</time>
      </trkpt>
      <trkpt lat="43.66717" lon="3.23357">
        <ele>411.9</ele>
        <time>2026-05-19T10:40:31Z</time>
      </trkpt>
      <trkpt lat="43.66717" lon="3.23357">
        <ele>411.9</ele>
        <time>2026-05-19T10:40:36Z</time>
      </trkpt>
      <trkpt lat="43.66717" lon="3.23357">
        <ele>411.9</ele>
        <time>2026-05-19T10:40:41Z</time>
      </trkpt>
      <trkpt lat="43.66717" lon="3.23357">
        <ele>411.9</ele>
        <time>2026-05-19T10:40:46Z</time>
      </trkpt>
      <trkpt lat="43.66717" lon="3.23357">
        <ele>411.9</ele>
        <time>2026-05-19T10:40:51Z</time>
      </trkpt>
      <trkpt lat="43.66717" lon="3.23357">
        <ele>411.9</ele>
        <time>2026-05-19T10:40:56Z</time>
      </trkpt>
      <trkpt lat="43.66717" lon="3.23357">
        <ele>411.9</ele>
        <time>2026-05-19T10:41:01Z</time>
      </trkpt>
      <trkpt lat="43.66714" lon="3.23355">
        <ele>410.6</ele>
        <time>2026-05-19T10:41:06Z</time>
      </trkpt>
      <trkpt lat="43.66714" lon="3.23355">
        <ele>410.6</ele>
        <time>2026-05-19T10:41:11Z</time>
      </trkpt>
      <trkpt lat="43.66715" lon="3.23345">
        <ele>410.1</ele>
        <time>2026-05-19T10:41:16Z</time>
      </trkpt>
      <trkpt lat="43.66718" lon="3.23337">
        <ele>410.4</ele>
        <time>2026-05-19T10:41:21Z</time>
      </trkpt>
      <trkpt lat="43.6672" lon="3.23332">
        <ele>410.8</ele>
        <time>2026-05-19T10:41:26Z</time>
      </trkpt>
      <trkpt lat="43.66719" lon="3.23327">
        <ele>410.4</ele>
        <time>2026-05-19T10:41:31Z</time>
      </trkpt>
      <trkpt lat="43.66715" lon="3.23322">
        <ele>408.8</ele>
        <time>2026-05-19T10:41:36Z</time>
      </trkpt>
      <trkpt lat="43.66711" lon="3.23312">
        <ele>407.2</ele>
        <time>2026-05-19T10:41:41Z</time>
      </trkpt>
      <trkpt lat="43.66708" lon="3.23301">
        <ele>406</ele>
        <time>2026-05-19T10:41:46Z</time>
      </trkpt>
      <trkpt lat="43.66708" lon="3.23299">
        <ele>406</ele>
        <time>2026-05-19T10:41:51Z</time>
      </trkpt>
      <trkpt lat="43.66706" lon="3.23295">
        <ele>405.2</ele>
        <time>2026-05-19T10:41:56Z</time>
      </trkpt>
      <trkpt lat="43.66704" lon="3.23286">
        <ele>404.3</ele>
        <time>2026-05-19T10:42:01Z</time>
      </trkpt>
      <trkpt lat="43.66703" lon="3.23276">
        <ele>403.8</ele>
        <time>2026-05-19T10:42:06Z</time>
      </trkpt>
      <trkpt lat="43.667" lon="3.23268">
        <ele>402.6</ele>
        <time>2026-05-19T10:42:11Z</time>
      </trkpt>
      <trkpt lat="43.66699" lon="3.23259">
        <ele>402.1</ele>
        <time>2026-05-19T10:42:16Z</time>
      </trkpt>
      <trkpt lat="43.66695" lon="3.23251">
        <ele>400.6</ele>
        <time>2026-05-19T10:42:21Z</time>
      </trkpt>
      <trkpt lat="43.66691" lon="3.23247">
        <ele>399.3</ele>
        <time>2026-05-19T10:42:26Z</time>
      </trkpt>
      <trkpt lat="43.66689" lon="3.23248">
        <ele>398.5</ele>
        <time>2026-05-19T10:42:31Z</time>
      </trkpt>
      <trkpt lat="43.66687" lon="3.23246">
        <ele>397.9</ele>
        <time>2026-05-19T10:42:36Z</time>
      </trkpt>
      <trkpt lat="43.66687" lon="3.23245">
        <ele>398</ele>
        <time>2026-05-19T10:42:41Z</time>
      </trkpt>
      <trkpt lat="43.66687" lon="3.23245">
        <ele>398</ele>
        <time>2026-05-19T10:42:46Z</time>
      </trkpt>
      <trkpt lat="43.66687" lon="3.23245">
        <ele>398</ele>
        <time>2026-05-19T10:42:51Z</time>
      </trkpt>
      <trkpt lat="43.66686" lon="3.23244">
        <ele>397.7</ele>
        <time>2026-05-19T10:42:56Z</time>
      </trkpt>
      <trkpt lat="43.66683" lon="3.23238">
        <ele>397.1</ele>
        <time>2026-05-19T10:43:01Z</time>
      </trkpt>
      <trkpt lat="43.66682" lon="3.23241">
        <ele>396.4</ele>
        <time>2026-05-19T10:43:06Z</time>
      </trkpt>
      <trkpt lat="43.66681" lon="3.23245">
        <ele>395.7</ele>
        <time>2026-05-19T10:43:11Z</time>
      </trkpt>
      <trkpt lat="43.66679" lon="3.23246">
        <ele>394.9</ele>
        <time>2026-05-19T10:43:16Z</time>
      </trkpt>
      <trkpt lat="43.66679" lon="3.23246">
        <ele>394.9</ele>
        <time>2026-05-19T10:43:21Z</time>
      </trkpt>
      <trkpt lat="43.66679" lon="3.23246">
        <ele>394.9</ele>
        <time>2026-05-19T10:43:26Z</time>
      </trkpt>
      <trkpt lat="43.66679" lon="3.23246">
        <ele>394.9</ele>
        <time>2026-05-19T10:43:31Z</time>
      </trkpt>
      <trkpt lat="43.66679" lon="3.23246">
        <ele>394.9</ele>
        <time>2026-05-19T10:43:36Z</time>
      </trkpt>
      <trkpt lat="43.66679" lon="3.23246">
        <ele>394.9</ele>
        <time>2026-05-19T10:43:41Z</time>
      </trkpt>
      <trkpt lat="43.66679" lon="3.23246">
        <ele>394.9</ele>
        <time>2026-05-19T10:43:46Z</time>
      </trkpt>
      <trkpt lat="43.66679" lon="3.23246">
        <ele>394.9</ele>
        <time>2026-05-19T10:43:51Z</time>
      </trkpt>
      <trkpt lat="43.66679" lon="3.23246">
        <ele>394.9</ele>
        <time>2026-05-19T10:43:56Z</time>
      </trkpt>
      <trkpt lat="43.66676" lon="3.23242">
        <ele>394.1</ele>
        <time>2026-05-19T10:44:01Z</time>
      </trkpt>
      <trkpt lat="43.66669" lon="3.23239">
        <ele>391.7</ele>
        <time>2026-05-19T10:44:06Z</time>
      </trkpt>
      <trkpt lat="43.66666" lon="3.23239">
        <ele>390.7</ele>
        <time>2026-05-19T10:44:11Z</time>
      </trkpt>
      <trkpt lat="43.66664" lon="3.23239">
        <ele>390.3</ele>
        <time>2026-05-19T10:44:16Z</time>
      </trkpt>
      <trkpt lat="43.66659" lon="3.23239">
        <ele>389.5</ele>
        <time>2026-05-19T10:44:21Z</time>
      </trkpt>
      <trkpt lat="43.66654" lon="3.23241">
        <ele>388.6</ele>
        <time>2026-05-19T10:44:26Z</time>
      </trkpt>
      <trkpt lat="43.66652" lon="3.23242">
        <ele>388.2</ele>
        <time>2026-05-19T10:44:31Z</time>
      </trkpt>
      <trkpt lat="43.6665" lon="3.23245">
        <ele>387.8</ele>
        <time>2026-05-19T10:44:36Z</time>
      </trkpt>
      <trkpt lat="43.66647" lon="3.23249">
        <ele>387.2</ele>
        <time>2026-05-19T10:44:41Z</time>
      </trkpt>
      <trkpt lat="43.66644" lon="3.2325">
        <ele>386.7</ele>
        <time>2026-05-19T10:44:46Z</time>
      </trkpt>
      <trkpt lat="43.66641" lon="3.23248">
        <ele>386.3</ele>
        <time>2026-05-19T10:44:51Z</time>
      </trkpt>
      <trkpt lat="43.66637" lon="3.23242">
        <ele>385.8</ele>
        <time>2026-05-19T10:44:56Z</time>
      </trkpt>
      <trkpt lat="43.66636" lon="3.23236">
        <ele>385.7</ele>
        <time>2026-05-19T10:45:01Z</time>
      </trkpt>
      <trkpt lat="43.66633" lon="3.2323">
        <ele>385.1</ele>
        <time>2026-05-19T10:45:06Z</time>
      </trkpt>
      <trkpt lat="43.66631" lon="3.23225">
        <ele>384.7</ele>
        <time>2026-05-19T10:45:11Z</time>
      </trkpt>
      <trkpt lat="43.66629" lon="3.23219">
        <ele>384.3</ele>
        <time>2026-05-19T10:45:16Z</time>
      </trkpt>
      <trkpt lat="43.66627" lon="3.23213">
        <ele>383.8</ele>
        <time>2026-05-19T10:45:21Z</time>
      </trkpt>
      <trkpt lat="43.66628" lon="3.23208">
        <ele>383.9</ele>
        <time>2026-05-19T10:45:26Z</time>
      </trkpt>
      <trkpt lat="43.66627" lon="3.23205">
        <ele>383.7</ele>
        <time>2026-05-19T10:45:31Z</time>
      </trkpt>
      <trkpt lat="43.66627" lon="3.23205">
        <ele>383.7</ele>
        <time>2026-05-19T10:45:36Z</time>
      </trkpt>
      <trkpt lat="43.66627" lon="3.23205">
        <ele>383.7</ele>
        <time>2026-05-19T10:45:41Z</time>
      </trkpt>
      <trkpt lat="43.66627" lon="3.23205">
        <ele>383.7</ele>
        <time>2026-05-19T10:45:46Z</time>
      </trkpt>
      <trkpt lat="43.66619" lon="3.23193">
        <ele>381.4</ele>
        <time>2026-05-19T10:45:51Z</time>
      </trkpt>
      <trkpt lat="43.66616" lon="3.23188">
        <ele>380.4</ele>
        <time>2026-05-19T10:45:56Z</time>
      </trkpt>
      <trkpt lat="43.66614" lon="3.23183">
        <ele>379.6</ele>
        <time>2026-05-19T10:46:01Z</time>
      </trkpt>
      <trkpt lat="43.66612" lon="3.2318">
        <ele>378.9</ele>
        <time>2026-05-19T10:46:06Z</time>
      </trkpt>
      <trkpt lat="43.6661" lon="3.23176">
        <ele>378.1</ele>
        <time>2026-05-19T10:46:11Z</time>
      </trkpt>
      <trkpt lat="43.66609" lon="3.23172">
        <ele>377.6</ele>
        <time>2026-05-19T10:46:16Z</time>
      </trkpt>
      <trkpt lat="43.66607" lon="3.23168">
        <ele>376.7</ele>
        <time>2026-05-19T10:46:21Z</time>
      </trkpt>
      <trkpt lat="43.66606" lon="3.2317">
        <ele>376.5</ele>
        <time>2026-05-19T10:46:26Z</time>
      </trkpt>
      <trkpt lat="43.66606" lon="3.23173">
        <ele>376.7</ele>
        <time>2026-05-19T10:46:31Z</time>
      </trkpt>
      <trkpt lat="43.66606" lon="3.23173">
        <ele>376.7</ele>
        <time>2026-05-19T10:46:36Z</time>
      </trkpt>
      <trkpt lat="43.66605" lon="3.23182">
        <ele>377</ele>
        <time>2026-05-19T10:46:41Z</time>
      </trkpt>
      <trkpt lat="43.66604" lon="3.23183">
        <ele>376.7</ele>
        <time>2026-05-19T10:46:46Z</time>
      </trkpt>
      <trkpt lat="43.66604" lon="3.23183">
        <ele>376.7</ele>
        <time>2026-05-19T10:46:51Z</time>
      </trkpt>
      <trkpt lat="43.666" lon="3.23173">
        <ele>374.9</ele>
        <time>2026-05-19T10:46:56Z</time>
      </trkpt>
      <trkpt lat="43.66598" lon="3.2317">
        <ele>374</ele>
        <time>2026-05-19T10:47:01Z</time>
      </trkpt>
      <trkpt lat="43.66598" lon="3.2317">
        <ele>374</ele>
        <time>2026-05-19T10:47:06Z</time>
      </trkpt>
      <trkpt lat="43.66596" lon="3.23165">
        <ele>373.1</ele>
        <time>2026-05-19T10:47:11Z</time>
      </trkpt>
      <trkpt lat="43.66591" lon="3.23161">
        <ele>371.4</ele>
        <time>2026-05-19T10:47:16Z</time>
      </trkpt>
      <trkpt lat="43.66589" lon="3.23157">
        <ele>370.7</ele>
        <time>2026-05-19T10:47:21Z</time>
      </trkpt>
      <trkpt lat="43.66587" lon="3.23152">
        <ele>369.9</ele>
        <time>2026-05-19T10:47:26Z</time>
      </trkpt>
      <trkpt lat="43.66584" lon="3.23147">
        <ele>368.8</ele>
        <time>2026-05-19T10:47:31Z</time>
      </trkpt>
      <trkpt lat="43.66583" lon="3.23142">
        <ele>368.4</ele>
        <time>2026-05-19T10:47:36Z</time>
      </trkpt>
      <trkpt lat="43.66581" lon="3.23137">
        <ele>368.5</ele>
        <time>2026-05-19T10:47:41Z</time>
      </trkpt>
      <trkpt lat="43.6658" lon="3.23132">
        <ele>368.4</ele>
        <time>2026-05-19T10:47:46Z</time>
      </trkpt>
      <trkpt lat="43.66577" lon="3.23127">
        <ele>368.4</ele>
        <time>2026-05-19T10:47:51Z</time>
      </trkpt>
      <trkpt lat="43.66576" lon="3.2312">
        <ele>368.3</ele>
        <time>2026-05-19T10:47:56Z</time>
      </trkpt>
      <trkpt lat="43.66572" lon="3.23118">
        <ele>368.4</ele>
        <time>2026-05-19T10:48:01Z</time>
      </trkpt>
      <trkpt lat="43.6657" lon="3.23114">
        <ele>368.3</ele>
        <time>2026-05-19T10:48:06Z</time>
      </trkpt>
      <trkpt lat="43.66568" lon="3.23111">
        <ele>368.2</ele>
        <time>2026-05-19T10:48:11Z</time>
      </trkpt>
      <trkpt lat="43.66565" lon="3.23107">
        <ele>368.1</ele>
        <time>2026-05-19T10:48:16Z</time>
      </trkpt>
      <trkpt lat="43.66562" lon="3.23102">
        <ele>367.9</ele>
        <time>2026-05-19T10:48:21Z</time>
      </trkpt>
      <trkpt lat="43.6656" lon="3.23097">
        <ele>367.6</ele>
        <time>2026-05-19T10:48:26Z</time>
      </trkpt>
      <trkpt lat="43.66557" lon="3.23093">
        <ele>367.4</ele>
        <time>2026-05-19T10:48:31Z</time>
      </trkpt>
      <trkpt lat="43.66555" lon="3.2309">
        <ele>367.1</ele>
        <time>2026-05-19T10:48:36Z</time>
      </trkpt>
      <trkpt lat="43.66553" lon="3.23086">
        <ele>366.8</ele>
        <time>2026-05-19T10:48:41Z</time>
      </trkpt>
      <trkpt lat="43.66551" lon="3.23082">
        <ele>366.6</ele>
        <time>2026-05-19T10:48:46Z</time>
      </trkpt>
      <trkpt lat="43.66549" lon="3.23078">
        <ele>366.6</ele>
        <time>2026-05-19T10:48:51Z</time>
      </trkpt>
      <trkpt lat="43.66545" lon="3.23074">
        <ele>366.5</ele>
        <time>2026-05-19T10:48:56Z</time>
      </trkpt>
      <trkpt lat="43.66543" lon="3.23069">
        <ele>366.3</ele>
        <time>2026-05-19T10:49:01Z</time>
      </trkpt>
      <trkpt lat="43.66538" lon="3.23065">
        <ele>365.9</ele>
        <time>2026-05-19T10:49:06Z</time>
      </trkpt>
      <trkpt lat="43.66534" lon="3.23063">
        <ele>365.6</ele>
        <time>2026-05-19T10:49:11Z</time>
      </trkpt>
      <trkpt lat="43.66532" lon="3.23058">
        <ele>365.2</ele>
        <time>2026-05-19T10:49:16Z</time>
      </trkpt>
      <trkpt lat="43.6653" lon="3.23053">
        <ele>364.7</ele>
        <time>2026-05-19T10:49:21Z</time>
      </trkpt>
      <trkpt lat="43.66526" lon="3.23052">
        <ele>364.3</ele>
        <time>2026-05-19T10:49:26Z</time>
      </trkpt>
      <trkpt lat="43.66524" lon="3.2305">
        <ele>363.9</ele>
        <time>2026-05-19T10:49:31Z</time>
      </trkpt>
      <trkpt lat="43.66522" lon="3.2305">
        <ele>363.7</ele>
        <time>2026-05-19T10:49:36Z</time>
      </trkpt>
      <trkpt lat="43.66521" lon="3.23049">
        <ele>363.5</ele>
        <time>2026-05-19T10:49:41Z</time>
      </trkpt>
      <trkpt lat="43.66516" lon="3.23048">
        <ele>362.8</ele>
        <time>2026-05-19T10:49:46Z</time>
      </trkpt>
      <trkpt lat="43.66513" lon="3.23044">
        <ele>362</ele>
        <time>2026-05-19T10:49:51Z</time>
      </trkpt>
      <trkpt lat="43.66512" lon="3.23036">
        <ele>361</ele>
        <time>2026-05-19T10:49:56Z</time>
      </trkpt>
      <trkpt lat="43.66512" lon="3.23028">
        <ele>360.2</ele>
        <time>2026-05-19T10:50:01Z</time>
      </trkpt>
      <trkpt lat="43.66511" lon="3.23021">
        <ele>359.2</ele>
        <time>2026-05-19T10:50:06Z</time>
      </trkpt>
      <trkpt lat="43.6651" lon="3.23016">
        <ele>358.5</ele>
        <time>2026-05-19T10:50:11Z</time>
      </trkpt>
      <trkpt lat="43.66508" lon="3.23011">
        <ele>357.4</ele>
        <time>2026-05-19T10:50:16Z</time>
      </trkpt>
      <trkpt lat="43.66504" lon="3.23007">
        <ele>356</ele>
        <time>2026-05-19T10:50:21Z</time>
      </trkpt>
      <trkpt lat="43.66499" lon="3.23002">
        <ele>354.2</ele>
        <time>2026-05-19T10:50:26Z</time>
      </trkpt>
      <trkpt lat="43.66497" lon="3.22996">
        <ele>354</ele>
        <time>2026-05-19T10:50:31Z</time>
      </trkpt>
      <trkpt lat="43.66495" lon="3.22989">
        <ele>354.2</ele>
        <time>2026-05-19T10:50:36Z</time>
      </trkpt>
      <trkpt lat="43.66493" lon="3.22983">
        <ele>354.3</ele>
        <time>2026-05-19T10:50:41Z</time>
      </trkpt>
      <trkpt lat="43.66491" lon="3.22977">
        <ele>354.3</ele>
        <time>2026-05-19T10:50:46Z</time>
      </trkpt>
      <trkpt lat="43.66484" lon="3.22974">
        <ele>353.4</ele>
        <time>2026-05-19T10:50:51Z</time>
      </trkpt>
      <trkpt lat="43.66476" lon="3.22974">
        <ele>352.1</ele>
        <time>2026-05-19T10:50:56Z</time>
      </trkpt>
      <trkpt lat="43.6647" lon="3.2297">
        <ele>351.2</ele>
        <time>2026-05-19T10:51:01Z</time>
      </trkpt>
      <trkpt lat="43.66466" lon="3.22968">
        <ele>350.5</ele>
        <time>2026-05-19T10:51:06Z</time>
      </trkpt>
      <trkpt lat="43.6646" lon="3.22966">
        <ele>349.4</ele>
        <time>2026-05-19T10:51:11Z</time>
      </trkpt>
      <trkpt lat="43.66457" lon="3.22961">
        <ele>348.6</ele>
        <time>2026-05-19T10:51:16Z</time>
      </trkpt>
      <trkpt lat="43.66452" lon="3.22959">
        <ele>347.5</ele>
        <time>2026-05-19T10:51:21Z</time>
      </trkpt>
      <trkpt lat="43.66449" lon="3.22955">
        <ele>346.7</ele>
        <time>2026-05-19T10:51:26Z</time>
      </trkpt>
      <trkpt lat="43.66446" lon="3.22952">
        <ele>345.8</ele>
        <time>2026-05-19T10:51:31Z</time>
      </trkpt>
      <trkpt lat="43.66442" lon="3.22948">
        <ele>344.6</ele>
        <time>2026-05-19T10:51:36Z</time>
      </trkpt>
      <trkpt lat="43.66438" lon="3.22944">
        <ele>343.3</ele>
        <time>2026-05-19T10:51:41Z</time>
      </trkpt>
      <trkpt lat="43.66435" lon="3.2294">
        <ele>342.2</ele>
        <time>2026-05-19T10:51:46Z</time>
      </trkpt>
      <trkpt lat="43.66432" lon="3.22934">
        <ele>340.8</ele>
        <time>2026-05-19T10:51:51Z</time>
      </trkpt>
      <trkpt lat="43.66429" lon="3.22929">
        <ele>339.4</ele>
        <time>2026-05-19T10:51:56Z</time>
      </trkpt>
      <trkpt lat="43.66427" lon="3.22923">
        <ele>338</ele>
        <time>2026-05-19T10:52:01Z</time>
      </trkpt>
      <trkpt lat="43.66426" lon="3.22917">
        <ele>337</ele>
        <time>2026-05-19T10:52:06Z</time>
      </trkpt>
      <trkpt lat="43.66423" lon="3.22912">
        <ele>335.9</ele>
        <time>2026-05-19T10:52:11Z</time>
      </trkpt>
      <trkpt lat="43.66421" lon="3.22908">
        <ele>335.3</ele>
        <time>2026-05-19T10:52:16Z</time>
      </trkpt>
      <trkpt lat="43.66419" lon="3.22904">
        <ele>334.6</ele>
        <time>2026-05-19T10:52:21Z</time>
      </trkpt>
      <trkpt lat="43.66416" lon="3.229">
        <ele>333.8</ele>
        <time>2026-05-19T10:52:26Z</time>
      </trkpt>
      <trkpt lat="43.66413" lon="3.22894">
        <ele>333.8</ele>
        <time>2026-05-19T10:52:31Z</time>
      </trkpt>
      <trkpt lat="43.6641" lon="3.22889">
        <ele>333.7</ele>
        <time>2026-05-19T10:52:36Z</time>
      </trkpt>
      <trkpt lat="43.66409" lon="3.22886">
        <ele>333.7</ele>
        <time>2026-05-19T10:52:41Z</time>
      </trkpt>
      <trkpt lat="43.66406" lon="3.22882">
        <ele>333.6</ele>
        <time>2026-05-19T10:52:46Z</time>
      </trkpt>
      <trkpt lat="43.66405" lon="3.22878">
        <ele>333.6</ele>
        <time>2026-05-19T10:52:51Z</time>
      </trkpt>
      <trkpt lat="43.66403" lon="3.22873">
        <ele>333.5</ele>
        <time>2026-05-19T10:52:56Z</time>
      </trkpt>
      <trkpt lat="43.66401" lon="3.22868">
        <ele>333.3</ele>
        <time>2026-05-19T10:53:01Z</time>
      </trkpt>
      <trkpt lat="43.66399" lon="3.22863">
        <ele>333.2</ele>
        <time>2026-05-19T10:53:06Z</time>
      </trkpt>
      <trkpt lat="43.66398" lon="3.22858">
        <ele>333</ele>
        <time>2026-05-19T10:53:11Z</time>
      </trkpt>
      <trkpt lat="43.66397" lon="3.22852">
        <ele>332.8</ele>
        <time>2026-05-19T10:53:16Z</time>
      </trkpt>
      <trkpt lat="43.66396" lon="3.22849">
        <ele>332.7</ele>
        <time>2026-05-19T10:53:21Z</time>
      </trkpt>
      <trkpt lat="43.66394" lon="3.22844">
        <ele>332.5</ele>
        <time>2026-05-19T10:53:26Z</time>
      </trkpt>
      <trkpt lat="43.66392" lon="3.2284">
        <ele>332.3</ele>
        <time>2026-05-19T10:53:31Z</time>
      </trkpt>
      <trkpt lat="43.66391" lon="3.22836">
        <ele>332.2</ele>
        <time>2026-05-19T10:53:36Z</time>
      </trkpt>
      <trkpt lat="43.66389" lon="3.22832">
        <ele>332</ele>
        <time>2026-05-19T10:53:41Z</time>
      </trkpt>
      <trkpt lat="43.66388" lon="3.22829">
        <ele>331.8</ele>
        <time>2026-05-19T10:53:46Z</time>
      </trkpt>
      <trkpt lat="43.66386" lon="3.22828">
        <ele>331.7</ele>
        <time>2026-05-19T10:53:51Z</time>
      </trkpt>
      <trkpt lat="43.66382" lon="3.22826">
        <ele>331.5</ele>
        <time>2026-05-19T10:53:56Z</time>
      </trkpt>
      <trkpt lat="43.66377" lon="3.22824">
        <ele>331.1</ele>
        <time>2026-05-19T10:54:01Z</time>
      </trkpt>
      <trkpt lat="43.66373" lon="3.22819">
        <ele>330.7</ele>
        <time>2026-05-19T10:54:06Z</time>
      </trkpt>
      <trkpt lat="43.66369" lon="3.22814">
        <ele>330.2</ele>
        <time>2026-05-19T10:54:11Z</time>
      </trkpt>
      <trkpt lat="43.66368" lon="3.22807">
        <ele>329.8</ele>
        <time>2026-05-19T10:54:16Z</time>
      </trkpt>
      <trkpt lat="43.66368" lon="3.22801">
        <ele>329.4</ele>
        <time>2026-05-19T10:54:21Z</time>
      </trkpt>
      <trkpt lat="43.66368" lon="3.22798">
        <ele>329.3</ele>
        <time>2026-05-19T10:54:26Z</time>
      </trkpt>
      <trkpt lat="43.66369" lon="3.22797">
        <ele>329.3</ele>
        <time>2026-05-19T10:54:31Z</time>
      </trkpt>
      <trkpt lat="43.66369" lon="3.22797">
        <ele>329.3</ele>
        <time>2026-05-19T10:54:36Z</time>
      </trkpt>
      <trkpt lat="43.66368" lon="3.22789">
        <ele>328.8</ele>
        <time>2026-05-19T10:54:41Z</time>
      </trkpt>
      <trkpt lat="43.66364" lon="3.22786">
        <ele>328.2</ele>
        <time>2026-05-19T10:54:46Z</time>
      </trkpt>
      <trkpt lat="43.66362" lon="3.22781">
        <ele>327.7</ele>
        <time>2026-05-19T10:54:51Z</time>
      </trkpt>
      <trkpt lat="43.66361" lon="3.22776">
        <ele>327.3</ele>
        <time>2026-05-19T10:54:56Z</time>
      </trkpt>
      <trkpt lat="43.66362" lon="3.2277">
        <ele>327</ele>
        <time>2026-05-19T10:55:01Z</time>
      </trkpt>
      <trkpt lat="43.66362" lon="3.22765">
        <ele>326.7</ele>
        <time>2026-05-19T10:55:06Z</time>
      </trkpt>
      <trkpt lat="43.66361" lon="3.22762">
        <ele>326.4</ele>
        <time>2026-05-19T10:55:11Z</time>
      </trkpt>
      <trkpt lat="43.6636" lon="3.22759">
        <ele>326.1</ele>
        <time>2026-05-19T10:55:16Z</time>
      </trkpt>
      <trkpt lat="43.66359" lon="3.22756">
        <ele>325.8</ele>
        <time>2026-05-19T10:55:21Z</time>
      </trkpt>
      <trkpt lat="43.66357" lon="3.2275">
        <ele>325.1</ele>
        <time>2026-05-19T10:55:26Z</time>
      </trkpt>
      <trkpt lat="43.66357" lon="3.22745">
        <ele>325</ele>
        <time>2026-05-19T10:55:31Z</time>
      </trkpt>
      <trkpt lat="43.66358" lon="3.22737">
        <ele>325.1</ele>
        <time>2026-05-19T10:55:36Z</time>
      </trkpt>
      <trkpt lat="43.6636" lon="3.2273">
        <ele>325.2</ele>
        <time>2026-05-19T10:55:41Z</time>
      </trkpt>
      <trkpt lat="43.6636" lon="3.22729">
        <ele>325.2</ele>
        <time>2026-05-19T10:55:46Z</time>
      </trkpt>
      <trkpt lat="43.66359" lon="3.22728">
        <ele>325</ele>
        <time>2026-05-19T10:55:51Z</time>
      </trkpt>
      <trkpt lat="43.66359" lon="3.22728">
        <ele>325</ele>
        <time>2026-05-19T10:55:56Z</time>
      </trkpt>
      <trkpt lat="43.66359" lon="3.22728">
        <ele>325</ele>
        <time>2026-05-19T10:56:01Z</time>
      </trkpt>
      <trkpt lat="43.66359" lon="3.22728">
        <ele>325</ele>
        <time>2026-05-19T10:56:06Z</time>
      </trkpt>
      <trkpt lat="43.66362" lon="3.2272">
        <ele>325.3</ele>
        <time>2026-05-19T10:56:11Z</time>
      </trkpt>
      <trkpt lat="43.66362" lon="3.22716">
        <ele>325.2</ele>
        <time>2026-05-19T10:56:16Z</time>
      </trkpt>
      <trkpt lat="43.66361" lon="3.22711">
        <ele>325</ele>
        <time>2026-05-19T10:56:21Z</time>
      </trkpt>
      <trkpt lat="43.6636" lon="3.22706">
        <ele>324.8</ele>
        <time>2026-05-19T10:56:26Z</time>
      </trkpt>
      <trkpt lat="43.6636" lon="3.22704">
        <ele>324.8</ele>
        <time>2026-05-19T10:56:31Z</time>
      </trkpt>
      <trkpt lat="43.6636" lon="3.22702">
        <ele>324.8</ele>
        <time>2026-05-19T10:56:36Z</time>
      </trkpt>
      <trkpt lat="43.6636" lon="3.22702">
        <ele>324.8</ele>
        <time>2026-05-19T10:56:41Z</time>
      </trkpt>
      <trkpt lat="43.6636" lon="3.22702">
        <ele>324.8</ele>
        <time>2026-05-19T10:56:46Z</time>
      </trkpt>
      <trkpt lat="43.66362" lon="3.227">
        <ele>325</ele>
        <time>2026-05-19T10:56:51Z</time>
      </trkpt>
      <trkpt lat="43.66362" lon="3.227">
        <ele>325</ele>
        <time>2026-05-19T10:56:56Z</time>
      </trkpt>
      <trkpt lat="43.66362" lon="3.227">
        <ele>325</ele>
        <time>2026-05-19T10:57:01Z</time>
      </trkpt>
      <trkpt lat="43.66362" lon="3.227">
        <ele>325</ele>
        <time>2026-05-19T10:57:06Z</time>
      </trkpt>
      <trkpt lat="43.66362" lon="3.227">
        <ele>325</ele>
        <time>2026-05-19T10:57:11Z</time>
      </trkpt>
      <trkpt lat="43.66362" lon="3.227">
        <ele>325</ele>
        <time>2026-05-19T10:57:16Z</time>
      </trkpt>
      <trkpt lat="43.66362" lon="3.227">
        <ele>325</ele>
        <time>2026-05-19T10:57:21Z</time>
      </trkpt>
      <trkpt lat="43.66362" lon="3.227">
        <ele>325</ele>
        <time>2026-05-19T10:57:26Z</time>
      </trkpt>
      <trkpt lat="43.66362" lon="3.227">
        <ele>325</ele>
        <time>2026-05-19T10:57:31Z</time>
      </trkpt>
      <trkpt lat="43.66362" lon="3.227">
        <ele>325</ele>
        <time>2026-05-19T10:57:36Z</time>
      </trkpt>
      <trkpt lat="43.66362" lon="3.227">
        <ele>325</ele>
        <time>2026-05-19T10:57:41Z</time>
      </trkpt>
      <trkpt lat="43.66362" lon="3.227">
        <ele>325</ele>
        <time>2026-05-19T10:57:46Z</time>
      </trkpt>
      <trkpt lat="43.66362" lon="3.227">
        <ele>325</ele>
        <time>2026-05-19T10:57:51Z</time>
      </trkpt>
      <trkpt lat="43.66362" lon="3.227">
        <ele>325</ele>
        <time>2026-05-19T10:57:56Z</time>
      </trkpt>
      <trkpt lat="43.66362" lon="3.227">
        <ele>325</ele>
        <time>2026-05-19T10:58:01Z</time>
      </trkpt>
      <trkpt lat="43.66362" lon="3.227">
        <ele>325</ele>
        <time>2026-05-19T10:58:06Z</time>
      </trkpt>
      <trkpt lat="43.66362" lon="3.227">
        <ele>325</ele>
        <time>2026-05-19T10:58:11Z</time>
      </trkpt>
      <trkpt lat="43.66362" lon="3.227">
        <ele>325</ele>
        <time>2026-05-19T10:58:16Z</time>
      </trkpt>
      <trkpt lat="43.66362" lon="3.227">
        <ele>325</ele>
        <time>2026-05-19T10:58:21Z</time>
      </trkpt>
      <trkpt lat="43.66362" lon="3.227">
        <ele>325</ele>
        <time>2026-05-19T10:58:26Z</time>
      </trkpt>
      <trkpt lat="43.66362" lon="3.227">
        <ele>325</ele>
        <time>2026-05-19T10:58:31Z</time>
      </trkpt>
      <trkpt lat="43.66362" lon="3.227">
        <ele>325</ele>
        <time>2026-05-19T10:58:36Z</time>
      </trkpt>
      <trkpt lat="43.66362" lon="3.227">
        <ele>325</ele>
        <time>2026-05-19T10:58:41Z</time>
      </trkpt>
      <trkpt lat="43.66362" lon="3.227">
        <ele>325</ele>
        <time>2026-05-19T10:58:46Z</time>
      </trkpt>
      <trkpt lat="43.66362" lon="3.227">
        <ele>325</ele>
        <time>2026-05-19T10:58:51Z</time>
      </trkpt>
      <trkpt lat="43.66362" lon="3.227">
        <ele>325</ele>
        <time>2026-05-19T10:58:56Z</time>
      </trkpt>
      <trkpt lat="43.66362" lon="3.227">
        <ele>325</ele>
        <time>2026-05-19T10:59:01Z</time>
      </trkpt>
      <trkpt lat="43.66362" lon="3.227">
        <ele>325</ele>
        <time>2026-05-19T10:59:06Z</time>
      </trkpt>
      <trkpt lat="43.66362" lon="3.227">
        <ele>325</ele>
        <time>2026-05-19T10:59:11Z</time>
      </trkpt>
      <trkpt lat="43.66359" lon="3.227">
        <ele>324.6</ele>
        <time>2026-05-19T10:59:16Z</time>
      </trkpt>
      <trkpt lat="43.66356" lon="3.22695">
        <ele>324.2</ele>
        <time>2026-05-19T10:59:21Z</time>
      </trkpt>
      <trkpt lat="43.66354" lon="3.22691">
        <ele>323.8</ele>
        <time>2026-05-19T10:59:26Z</time>
      </trkpt>
      <trkpt lat="43.66353" lon="3.22688">
        <ele>323.7</ele>
        <time>2026-05-19T10:59:31Z</time>
      </trkpt>
      <trkpt lat="43.66351" lon="3.22685">
        <ele>323.4</ele>
        <time>2026-05-19T10:59:36Z</time>
      </trkpt>
      <trkpt lat="43.66348" lon="3.22682">
        <ele>323</ele>
        <time>2026-05-19T10:59:41Z</time>
      </trkpt>
      <trkpt lat="43.66346" lon="3.22677">
        <ele>322.7</ele>
        <time>2026-05-19T10:59:46Z</time>
      </trkpt>
      <trkpt lat="43.66343" lon="3.2267">
        <ele>322.2</ele>
        <time>2026-05-19T10:59:51Z</time>
      </trkpt>
      <trkpt lat="43.66339" lon="3.22663">
        <ele>321.7</ele>
        <time>2026-05-19T10:59:56Z</time>
      </trkpt>
      <trkpt lat="43.66336" lon="3.22656">
        <ele>321.4</ele>
        <time>2026-05-19T11:00:01Z</time>
      </trkpt>
      <trkpt lat="43.66331" lon="3.22648">
        <ele>321.3</ele>
        <time>2026-05-19T11:00:06Z</time>
      </trkpt>
      <trkpt lat="43.66326" lon="3.22641">
        <ele>321.6</ele>
        <time>2026-05-19T11:00:11Z</time>
      </trkpt>
      <trkpt lat="43.66322" lon="3.22635">
        <ele>321.7</ele>
        <time>2026-05-19T11:00:16Z</time>
      </trkpt>
      <trkpt lat="43.66321" lon="3.22628">
        <ele>321.8</ele>
        <time>2026-05-19T11:00:21Z</time>
      </trkpt>
      <trkpt lat="43.6632" lon="3.2262">
        <ele>321.8</ele>
        <time>2026-05-19T11:00:26Z</time>
      </trkpt>
      <trkpt lat="43.66319" lon="3.22613">
        <ele>321.8</ele>
        <time>2026-05-19T11:00:31Z</time>
      </trkpt>
      <trkpt lat="43.66318" lon="3.2261">
        <ele>321.8</ele>
        <time>2026-05-19T11:00:36Z</time>
      </trkpt>
      <trkpt lat="43.66317" lon="3.2261">
        <ele>321.9</ele>
        <time>2026-05-19T11:00:41Z</time>
      </trkpt>
      <trkpt lat="43.66317" lon="3.2261">
        <ele>321.9</ele>
        <time>2026-05-19T11:00:46Z</time>
      </trkpt>
      <trkpt lat="43.66319" lon="3.22603">
        <ele>321.8</ele>
        <time>2026-05-19T11:00:51Z</time>
      </trkpt>
      <trkpt lat="43.66321" lon="3.22602">
        <ele>321.8</ele>
        <time>2026-05-19T11:00:56Z</time>
      </trkpt>
      <trkpt lat="43.66325" lon="3.22597">
        <ele>321.8</ele>
        <time>2026-05-19T11:01:01Z</time>
      </trkpt>
      <trkpt lat="43.66327" lon="3.22594">
        <ele>321.9</ele>
        <time>2026-05-19T11:01:06Z</time>
      </trkpt>
      <trkpt lat="43.66328" lon="3.22592">
        <ele>321.9</ele>
        <time>2026-05-19T11:01:11Z</time>
      </trkpt>
      <trkpt lat="43.66328" lon="3.22591">
        <ele>321.9</ele>
        <time>2026-05-19T11:01:16Z</time>
      </trkpt>
      <trkpt lat="43.66328" lon="3.22591">
        <ele>321.9</ele>
        <time>2026-05-19T11:01:21Z</time>
      </trkpt>
      <trkpt lat="43.66328" lon="3.22591">
        <ele>321.9</ele>
        <time>2026-05-19T11:01:26Z</time>
      </trkpt>
      <trkpt lat="43.66328" lon="3.22583">
        <ele>321.9</ele>
        <time>2026-05-19T11:01:31Z</time>
      </trkpt>
      <trkpt lat="43.66328" lon="3.22576">
        <ele>321.6</ele>
        <time>2026-05-19T11:01:36Z</time>
      </trkpt>
      <trkpt lat="43.66331" lon="3.22568">
        <ele>321.2</ele>
        <time>2026-05-19T11:01:41Z</time>
      </trkpt>
      <trkpt lat="43.66332" lon="3.22559">
        <ele>320.8</ele>
        <time>2026-05-19T11:01:46Z</time>
      </trkpt>
      <trkpt lat="43.66333" lon="3.22549">
        <ele>320.3</ele>
        <time>2026-05-19T11:01:51Z</time>
      </trkpt>
      <trkpt lat="43.66334" lon="3.22542">
        <ele>320</ele>
        <time>2026-05-19T11:01:56Z</time>
      </trkpt>
      <trkpt lat="43.66338" lon="3.22534">
        <ele>319.7</ele>
        <time>2026-05-19T11:02:01Z</time>
      </trkpt>
      <trkpt lat="43.66339" lon="3.2253">
        <ele>319.5</ele>
        <time>2026-05-19T11:02:06Z</time>
      </trkpt>
      <trkpt lat="43.66339" lon="3.22526">
        <ele>319.3</ele>
        <time>2026-05-19T11:02:11Z</time>
      </trkpt>
      <trkpt lat="43.66338" lon="3.22517">
        <ele>318.8</ele>
        <time>2026-05-19T11:02:16Z</time>
      </trkpt>
      <trkpt lat="43.66339" lon="3.22507">
        <ele>318.3</ele>
        <time>2026-05-19T11:02:21Z</time>
      </trkpt>
      <trkpt lat="43.66339" lon="3.22502">
        <ele>318.1</ele>
        <time>2026-05-19T11:02:26Z</time>
      </trkpt>
      <trkpt lat="43.66338" lon="3.22494">
        <ele>317.5</ele>
        <time>2026-05-19T11:02:31Z</time>
      </trkpt>
      <trkpt lat="43.66339" lon="3.22493">
        <ele>317.4</ele>
        <time>2026-05-19T11:02:36Z</time>
      </trkpt>
      <trkpt lat="43.6634" lon="3.22493">
        <ele>317.4</ele>
        <time>2026-05-19T11:02:41Z</time>
      </trkpt>
      <trkpt lat="43.6634" lon="3.22493">
        <ele>317.4</ele>
        <time>2026-05-19T11:02:46Z</time>
      </trkpt>
      <trkpt lat="43.6634" lon="3.22493">
        <ele>317.4</ele>
        <time>2026-05-19T11:02:51Z</time>
      </trkpt>
      <trkpt lat="43.66342" lon="3.22494">
        <ele>317.5</ele>
        <time>2026-05-19T11:02:56Z</time>
      </trkpt>
      <trkpt lat="43.66342" lon="3.22494">
        <ele>317.5</ele>
        <time>2026-05-19T11:03:01Z</time>
      </trkpt>
      <trkpt lat="43.66342" lon="3.22494">
        <ele>317.5</ele>
        <time>2026-05-19T11:03:06Z</time>
      </trkpt>
      <trkpt lat="43.66342" lon="3.22491">
        <ele>317.3</ele>
        <time>2026-05-19T11:03:11Z</time>
      </trkpt>
      <trkpt lat="43.66347" lon="3.22487">
        <ele>317</ele>
        <time>2026-05-19T11:03:16Z</time>
      </trkpt>
      <trkpt lat="43.66351" lon="3.22485">
        <ele>316.9</ele>
        <time>2026-05-19T11:03:21Z</time>
      </trkpt>
      <trkpt lat="43.66353" lon="3.22484">
        <ele>316.8</ele>
        <time>2026-05-19T11:03:26Z</time>
      </trkpt>
      <trkpt lat="43.66357" lon="3.22478">
        <ele>316.4</ele>
        <time>2026-05-19T11:03:31Z</time>
      </trkpt>
      <trkpt lat="43.66362" lon="3.22472">
        <ele>316</ele>
        <time>2026-05-19T11:03:36Z</time>
      </trkpt>
      <trkpt lat="43.66365" lon="3.22467">
        <ele>315.7</ele>
        <time>2026-05-19T11:03:41Z</time>
      </trkpt>
      <trkpt lat="43.66369" lon="3.2246">
        <ele>315.3</ele>
        <time>2026-05-19T11:03:46Z</time>
      </trkpt>
      <trkpt lat="43.66371" lon="3.22454">
        <ele>314.9</ele>
        <time>2026-05-19T11:03:51Z</time>
      </trkpt>
      <trkpt lat="43.66374" lon="3.22445">
        <ele>314.3</ele>
        <time>2026-05-19T11:03:56Z</time>
      </trkpt>
      <trkpt lat="43.66373" lon="3.22438">
        <ele>313.9</ele>
        <time>2026-05-19T11:04:01Z</time>
      </trkpt>
      <trkpt lat="43.66371" lon="3.2243">
        <ele>313.3</ele>
        <time>2026-05-19T11:04:06Z</time>
      </trkpt>
      <trkpt lat="43.66372" lon="3.22421">
        <ele>312.7</ele>
        <time>2026-05-19T11:04:11Z</time>
      </trkpt>
      <trkpt lat="43.66371" lon="3.22413">
        <ele>312.2</ele>
        <time>2026-05-19T11:04:16Z</time>
      </trkpt>
      <trkpt lat="43.66371" lon="3.22404">
        <ele>311.7</ele>
        <time>2026-05-19T11:04:21Z</time>
      </trkpt>
      <trkpt lat="43.66369" lon="3.22394">
        <ele>311</ele>
        <time>2026-05-19T11:04:26Z</time>
      </trkpt>
      <trkpt lat="43.66368" lon="3.22384">
        <ele>310.5</ele>
        <time>2026-05-19T11:04:31Z</time>
      </trkpt>
      <trkpt lat="43.66367" lon="3.22377">
        <ele>310</ele>
        <time>2026-05-19T11:04:36Z</time>
      </trkpt>
      <trkpt lat="43.66365" lon="3.22368">
        <ele>309.4</ele>
        <time>2026-05-19T11:04:41Z</time>
      </trkpt>
      <trkpt lat="43.66363" lon="3.22359">
        <ele>308.9</ele>
        <time>2026-05-19T11:04:46Z</time>
      </trkpt>
      <trkpt lat="43.66364" lon="3.2235">
        <ele>308.4</ele>
        <time>2026-05-19T11:04:51Z</time>
      </trkpt>
      <trkpt lat="43.66365" lon="3.22341">
        <ele>307.9</ele>
        <time>2026-05-19T11:04:56Z</time>
      </trkpt>
      <trkpt lat="43.66369" lon="3.22333">
        <ele>307.7</ele>
        <time>2026-05-19T11:05:01Z</time>
      </trkpt>
      <trkpt lat="43.66374" lon="3.22325">
        <ele>307.9</ele>
        <time>2026-05-19T11:05:06Z</time>
      </trkpt>
      <trkpt lat="43.66378" lon="3.22319">
        <ele>308</ele>
        <time>2026-05-19T11:05:11Z</time>
      </trkpt>
      <trkpt lat="43.66379" lon="3.22311">
        <ele>307.9</ele>
        <time>2026-05-19T11:05:16Z</time>
      </trkpt>
      <trkpt lat="43.66381" lon="3.22302">
        <ele>307.9</ele>
        <time>2026-05-19T11:05:21Z</time>
      </trkpt>
      <trkpt lat="43.66383" lon="3.22299">
        <ele>308</ele>
        <time>2026-05-19T11:05:26Z</time>
      </trkpt>
      <trkpt lat="43.66385" lon="3.22291">
        <ele>308</ele>
        <time>2026-05-19T11:05:31Z</time>
      </trkpt>
      <trkpt lat="43.66389" lon="3.22282">
        <ele>308.1</ele>
        <time>2026-05-19T11:05:36Z</time>
      </trkpt>
      <trkpt lat="43.66394" lon="3.22276">
        <ele>308.2</ele>
        <time>2026-05-19T11:05:41Z</time>
      </trkpt>
      <trkpt lat="43.66398" lon="3.2227">
        <ele>308.3</ele>
        <time>2026-05-19T11:05:46Z</time>
      </trkpt>
      <trkpt lat="43.66401" lon="3.22265">
        <ele>308.4</ele>
        <time>2026-05-19T11:05:51Z</time>
      </trkpt>
      <trkpt lat="43.66403" lon="3.22257">
        <ele>308.4</ele>
        <time>2026-05-19T11:05:56Z</time>
      </trkpt>
      <trkpt lat="43.66405" lon="3.22249">
        <ele>308.5</ele>
        <time>2026-05-19T11:06:01Z</time>
      </trkpt>
      <trkpt lat="43.66406" lon="3.2224">
        <ele>308.7</ele>
        <time>2026-05-19T11:06:06Z</time>
      </trkpt>
      <trkpt lat="43.66409" lon="3.22232">
        <ele>309.1</ele>
        <time>2026-05-19T11:06:11Z</time>
      </trkpt>
      <trkpt lat="43.66413" lon="3.22224">
        <ele>309.4</ele>
        <time>2026-05-19T11:06:16Z</time>
      </trkpt>
      <trkpt lat="43.66415" lon="3.22214">
        <ele>309.8</ele>
        <time>2026-05-19T11:06:21Z</time>
      </trkpt>
      <trkpt lat="43.66417" lon="3.22204">
        <ele>310.1</ele>
        <time>2026-05-19T11:06:26Z</time>
      </trkpt>
      <trkpt lat="43.66419" lon="3.22194">
        <ele>310.4</ele>
        <time>2026-05-19T11:06:31Z</time>
      </trkpt>
      <trkpt lat="43.66421" lon="3.22183">
        <ele>310.7</ele>
        <time>2026-05-19T11:06:36Z</time>
      </trkpt>
      <trkpt lat="43.66423" lon="3.22174">
        <ele>311</ele>
        <time>2026-05-19T11:06:41Z</time>
      </trkpt>
      <trkpt lat="43.66426" lon="3.22165">
        <ele>311.2</ele>
        <time>2026-05-19T11:06:46Z</time>
      </trkpt>
      <trkpt lat="43.66429" lon="3.2216">
        <ele>311.4</ele>
        <time>2026-05-19T11:06:51Z</time>
      </trkpt>
      <trkpt lat="43.66431" lon="3.22151">
        <ele>311.6</ele>
        <time>2026-05-19T11:06:56Z</time>
      </trkpt>
      <trkpt lat="43.66432" lon="3.22145">
        <ele>311.7</ele>
        <time>2026-05-19T11:07:01Z</time>
      </trkpt>
      <trkpt lat="43.66432" lon="3.22139">
        <ele>311.8</ele>
        <time>2026-05-19T11:07:06Z</time>
      </trkpt>
      <trkpt lat="43.66433" lon="3.22131">
        <ele>311.9</ele>
        <time>2026-05-19T11:07:11Z</time>
      </trkpt>
      <trkpt lat="43.66433" lon="3.22124">
        <ele>312</ele>
        <time>2026-05-19T11:07:16Z</time>
      </trkpt>
      <trkpt lat="43.66432" lon="3.22118">
        <ele>312.1</ele>
        <time>2026-05-19T11:07:21Z</time>
      </trkpt>
      <trkpt lat="43.66433" lon="3.22111">
        <ele>312.2</ele>
        <time>2026-05-19T11:07:26Z</time>
      </trkpt>
      <trkpt lat="43.66432" lon="3.22105">
        <ele>312.2</ele>
        <time>2026-05-19T11:07:31Z</time>
      </trkpt>
      <trkpt lat="43.66432" lon="3.22096">
        <ele>312.4</ele>
        <time>2026-05-19T11:07:36Z</time>
      </trkpt>
      <trkpt lat="43.66431" lon="3.22088">
        <ele>312.5</ele>
        <time>2026-05-19T11:07:41Z</time>
      </trkpt>
      <trkpt lat="43.6643" lon="3.2208">
        <ele>312.5</ele>
        <time>2026-05-19T11:07:46Z</time>
      </trkpt>
      <trkpt lat="43.66427" lon="3.22071">
        <ele>312.3</ele>
        <time>2026-05-19T11:07:51Z</time>
      </trkpt>
      <trkpt lat="43.66424" lon="3.22064">
        <ele>312.1</ele>
        <time>2026-05-19T11:07:56Z</time>
      </trkpt>
      <trkpt lat="43.66421" lon="3.22057">
        <ele>311.9</ele>
        <time>2026-05-19T11:08:01Z</time>
      </trkpt>
      <trkpt lat="43.66418" lon="3.22051">
        <ele>311.7</ele>
        <time>2026-05-19T11:08:06Z</time>
      </trkpt>
      <trkpt lat="43.66415" lon="3.22044">
        <ele>311.5</ele>
        <time>2026-05-19T11:08:11Z</time>
      </trkpt>
      <trkpt lat="43.66413" lon="3.22035">
        <ele>311.3</ele>
        <time>2026-05-19T11:08:16Z</time>
      </trkpt>
      <trkpt lat="43.66413" lon="3.22025">
        <ele>311.2</ele>
        <time>2026-05-19T11:08:21Z</time>
      </trkpt>
      <trkpt lat="43.66413" lon="3.22016">
        <ele>311.1</ele>
        <time>2026-05-19T11:08:26Z</time>
      </trkpt>
      <trkpt lat="43.66413" lon="3.22008">
        <ele>311</ele>
        <time>2026-05-19T11:08:31Z</time>
      </trkpt>
      <trkpt lat="43.66414" lon="3.22">
        <ele>310.9</ele>
        <time>2026-05-19T11:08:36Z</time>
      </trkpt>
      <trkpt lat="43.66415" lon="3.21991">
        <ele>310.7</ele>
        <time>2026-05-19T11:08:41Z</time>
      </trkpt>
      <trkpt lat="43.66416" lon="3.21983">
        <ele>310.6</ele>
        <time>2026-05-19T11:08:46Z</time>
      </trkpt>
      <trkpt lat="43.66416" lon="3.21974">
        <ele>310.4</ele>
        <time>2026-05-19T11:08:51Z</time>
      </trkpt>
      <trkpt lat="43.66416" lon="3.21962">
        <ele>310.1</ele>
        <time>2026-05-19T11:08:56Z</time>
      </trkpt>
      <trkpt lat="43.66418" lon="3.21953">
        <ele>310</ele>
        <time>2026-05-19T11:09:01Z</time>
      </trkpt>
      <trkpt lat="43.66419" lon="3.21948">
        <ele>309.9</ele>
        <time>2026-05-19T11:09:06Z</time>
      </trkpt>
      <trkpt lat="43.6642" lon="3.21941">
        <ele>309.8</ele>
        <time>2026-05-19T11:09:11Z</time>
      </trkpt>
      <trkpt lat="43.66421" lon="3.21932">
        <ele>309.7</ele>
        <time>2026-05-19T11:09:16Z</time>
      </trkpt>
      <trkpt lat="43.66423" lon="3.21924">
        <ele>309.6</ele>
        <time>2026-05-19T11:09:21Z</time>
      </trkpt>
      <trkpt lat="43.66424" lon="3.21917">
        <ele>309.5</ele>
        <time>2026-05-19T11:09:26Z</time>
      </trkpt>
      <trkpt lat="43.66424" lon="3.21908">
        <ele>309.2</ele>
        <time>2026-05-19T11:09:31Z</time>
      </trkpt>
      <trkpt lat="43.66425" lon="3.21897">
        <ele>308.9</ele>
        <time>2026-05-19T11:09:36Z</time>
      </trkpt>
      <trkpt lat="43.66424" lon="3.21887">
        <ele>308.4</ele>
        <time>2026-05-19T11:09:41Z</time>
      </trkpt>
      <trkpt lat="43.66421" lon="3.21878">
        <ele>307.9</ele>
        <time>2026-05-19T11:09:46Z</time>
      </trkpt>
      <trkpt lat="43.66419" lon="3.21868">
        <ele>307.4</ele>
        <time>2026-05-19T11:09:51Z</time>
      </trkpt>
      <trkpt lat="43.66417" lon="3.21858">
        <ele>306.9</ele>
        <time>2026-05-19T11:09:56Z</time>
      </trkpt>
      <trkpt lat="43.66415" lon="3.21848">
        <ele>306.4</ele>
        <time>2026-05-19T11:10:01Z</time>
      </trkpt>
      <trkpt lat="43.66415" lon="3.21837">
        <ele>306</ele>
        <time>2026-05-19T11:10:06Z</time>
      </trkpt>
      <trkpt lat="43.66415" lon="3.21827">
        <ele>305.8</ele>
        <time>2026-05-19T11:10:11Z</time>
      </trkpt>
      <trkpt lat="43.66416" lon="3.21822">
        <ele>305.7</ele>
        <time>2026-05-19T11:10:16Z</time>
      </trkpt>
      <trkpt lat="43.66417" lon="3.21819">
        <ele>305.7</ele>
        <time>2026-05-19T11:10:21Z</time>
      </trkpt>
      <trkpt lat="43.6642" lon="3.21811">
        <ele>305.7</ele>
        <time>2026-05-19T11:10:26Z</time>
      </trkpt>
      <trkpt lat="43.66423" lon="3.21804">
        <ele>305.8</ele>
        <time>2026-05-19T11:10:31Z</time>
      </trkpt>
      <trkpt lat="43.66425" lon="3.21796">
        <ele>305.7</ele>
        <time>2026-05-19T11:10:36Z</time>
      </trkpt>
      <trkpt lat="43.66427" lon="3.21788">
        <ele>305.7</ele>
        <time>2026-05-19T11:10:41Z</time>
      </trkpt>
      <trkpt lat="43.66429" lon="3.21781">
        <ele>305.8</ele>
        <time>2026-05-19T11:10:46Z</time>
      </trkpt>
      <trkpt lat="43.66432" lon="3.21773">
        <ele>305.9</ele>
        <time>2026-05-19T11:10:51Z</time>
      </trkpt>
      <trkpt lat="43.66438" lon="3.21767">
        <ele>306.3</ele>
        <time>2026-05-19T11:10:56Z</time>
      </trkpt>
      <trkpt lat="43.66445" lon="3.21767">
        <ele>306.9</ele>
        <time>2026-05-19T11:11:01Z</time>
      </trkpt>
      <trkpt lat="43.66452" lon="3.21767">
        <ele>307.5</ele>
        <time>2026-05-19T11:11:06Z</time>
      </trkpt>
      <trkpt lat="43.66456" lon="3.21767">
        <ele>307.9</ele>
        <time>2026-05-19T11:11:11Z</time>
      </trkpt>
      <trkpt lat="43.6646" lon="3.21768">
        <ele>308.3</ele>
        <time>2026-05-19T11:11:16Z</time>
      </trkpt>
      <trkpt lat="43.66463" lon="3.21768">
        <ele>308.5</ele>
        <time>2026-05-19T11:11:21Z</time>
      </trkpt>
      <trkpt lat="43.66464" lon="3.21768">
        <ele>308.6</ele>
        <time>2026-05-19T11:11:26Z</time>
      </trkpt>
      <trkpt lat="43.66465" lon="3.21767">
        <ele>308.7</ele>
        <time>2026-05-19T11:11:31Z</time>
      </trkpt>
      <trkpt lat="43.66469" lon="3.21771">
        <ele>309.1</ele>
        <time>2026-05-19T11:11:36Z</time>
      </trkpt>
      <trkpt lat="43.66474" lon="3.21773">
        <ele>309.5</ele>
        <time>2026-05-19T11:11:41Z</time>
      </trkpt>
      <trkpt lat="43.66478" lon="3.21779">
        <ele>309.8</ele>
        <time>2026-05-19T11:11:46Z</time>
      </trkpt>
      <trkpt lat="43.66482" lon="3.21784">
        <ele>310.1</ele>
        <time>2026-05-19T11:11:51Z</time>
      </trkpt>
      <trkpt lat="43.66483" lon="3.21788">
        <ele>310.2</ele>
        <time>2026-05-19T11:11:56Z</time>
      </trkpt>
      <trkpt lat="43.66482" lon="3.21789">
        <ele>310.1</ele>
        <time>2026-05-19T11:12:01Z</time>
      </trkpt>
      <trkpt lat="43.66485" lon="3.21792">
        <ele>310.3</ele>
        <time>2026-05-19T11:12:06Z</time>
      </trkpt>
      <trkpt lat="43.66488" lon="3.21794">
        <ele>310.5</ele>
        <time>2026-05-19T11:12:11Z</time>
      </trkpt>
      <trkpt lat="43.66491" lon="3.21798">
        <ele>310.7</ele>
        <time>2026-05-19T11:12:16Z</time>
      </trkpt>
      <trkpt lat="43.66496" lon="3.21801">
        <ele>311.1</ele>
        <time>2026-05-19T11:12:21Z</time>
      </trkpt>
      <trkpt lat="43.665" lon="3.21804">
        <ele>311.4</ele>
        <time>2026-05-19T11:12:26Z</time>
      </trkpt>
      <trkpt lat="43.66502" lon="3.21806">
        <ele>311.6</ele>
        <time>2026-05-19T11:12:31Z</time>
      </trkpt>
      <trkpt lat="43.66506" lon="3.21808">
        <ele>312</ele>
        <time>2026-05-19T11:12:36Z</time>
      </trkpt>
      <trkpt lat="43.6651" lon="3.2181">
        <ele>312.5</ele>
        <time>2026-05-19T11:12:41Z</time>
      </trkpt>
      <trkpt lat="43.66515" lon="3.21813">
        <ele>313</ele>
        <time>2026-05-19T11:12:46Z</time>
      </trkpt>
      <trkpt lat="43.6652" lon="3.21815">
        <ele>313.6</ele>
        <time>2026-05-19T11:12:51Z</time>
      </trkpt>
      <trkpt lat="43.66525" lon="3.21819">
        <ele>314.1</ele>
        <time>2026-05-19T11:12:56Z</time>
      </trkpt>
      <trkpt lat="43.66529" lon="3.21822">
        <ele>314.5</ele>
        <time>2026-05-19T11:13:01Z</time>
      </trkpt>
      <trkpt lat="43.66533" lon="3.21826">
        <ele>314.8</ele>
        <time>2026-05-19T11:13:06Z</time>
      </trkpt>
      <trkpt lat="43.66537" lon="3.21827">
        <ele>315.2</ele>
        <time>2026-05-19T11:13:11Z</time>
      </trkpt>
      <trkpt lat="43.66541" lon="3.2183">
        <ele>315.5</ele>
        <time>2026-05-19T11:13:16Z</time>
      </trkpt>
      <trkpt lat="43.66545" lon="3.21831">
        <ele>315.9</ele>
        <time>2026-05-19T11:13:21Z</time>
      </trkpt>
      <trkpt lat="43.66548" lon="3.2183">
        <ele>316.3</ele>
        <time>2026-05-19T11:13:26Z</time>
      </trkpt>
      <trkpt lat="43.66554" lon="3.2183">
        <ele>317</ele>
        <time>2026-05-19T11:13:31Z</time>
      </trkpt>
      <trkpt lat="43.66559" lon="3.21832">
        <ele>317.4</ele>
        <time>2026-05-19T11:13:36Z</time>
      </trkpt>
      <trkpt lat="43.66562" lon="3.21833">
        <ele>317.7</ele>
        <time>2026-05-19T11:13:41Z</time>
      </trkpt>
      <trkpt lat="43.66566" lon="3.21836">
        <ele>318.2</ele>
        <time>2026-05-19T11:13:46Z</time>
      </trkpt>
      <trkpt lat="43.6657" lon="3.21839">
        <ele>318.7</ele>
        <time>2026-05-19T11:13:51Z</time>
      </trkpt>
      <trkpt lat="43.66573" lon="3.21845">
        <ele>319.1</ele>
        <time>2026-05-19T11:13:56Z</time>
      </trkpt>
      <trkpt lat="43.66577" lon="3.21849">
        <ele>319.5</ele>
        <time>2026-05-19T11:14:01Z</time>
      </trkpt>
      <trkpt lat="43.6658" lon="3.21853">
        <ele>319.9</ele>
        <time>2026-05-19T11:14:06Z</time>
      </trkpt>
      <trkpt lat="43.66584" lon="3.21856">
        <ele>320.4</ele>
        <time>2026-05-19T11:14:11Z</time>
      </trkpt>
      <trkpt lat="43.66588" lon="3.2186">
        <ele>321.4</ele>
        <time>2026-05-19T11:14:16Z</time>
      </trkpt>
      <trkpt lat="43.66591" lon="3.21864">
        <ele>322.1</ele>
        <time>2026-05-19T11:14:21Z</time>
      </trkpt>
      <trkpt lat="43.66595" lon="3.2187">
        <ele>323</ele>
        <time>2026-05-19T11:14:26Z</time>
      </trkpt>
      <trkpt lat="43.66599" lon="3.21876">
        <ele>323.8</ele>
        <time>2026-05-19T11:14:31Z</time>
      </trkpt>
      <trkpt lat="43.66603" lon="3.21882">
        <ele>324.5</ele>
        <time>2026-05-19T11:14:36Z</time>
      </trkpt>
      <trkpt lat="43.66606" lon="3.21888">
        <ele>324.9</ele>
        <time>2026-05-19T11:14:41Z</time>
      </trkpt>
      <trkpt lat="43.66611" lon="3.21893">
        <ele>325.6</ele>
        <time>2026-05-19T11:14:46Z</time>
      </trkpt>
      <trkpt lat="43.66615" lon="3.21896">
        <ele>326.2</ele>
        <time>2026-05-19T11:14:51Z</time>
      </trkpt>
      <trkpt lat="43.66615" lon="3.21897">
        <ele>326.1</ele>
        <time>2026-05-19T11:14:56Z</time>
      </trkpt>
      <trkpt lat="43.66615" lon="3.21897">
        <ele>326.1</ele>
        <time>2026-05-19T11:15:01Z</time>
      </trkpt>
      <trkpt lat="43.66615" lon="3.21897">
        <ele>326.1</ele>
        <time>2026-05-19T11:15:06Z</time>
      </trkpt>
      <trkpt lat="43.66615" lon="3.21897">
        <ele>326.1</ele>
        <time>2026-05-19T11:15:11Z</time>
      </trkpt>
      <trkpt lat="43.66615" lon="3.21897">
        <ele>326.1</ele>
        <time>2026-05-19T11:15:16Z</time>
      </trkpt>
      <trkpt lat="43.66615" lon="3.21897">
        <ele>326.1</ele>
        <time>2026-05-19T11:15:21Z</time>
      </trkpt>
      <trkpt lat="43.66615" lon="3.21897">
        <ele>326.1</ele>
        <time>2026-05-19T11:15:26Z</time>
      </trkpt>
      <trkpt lat="43.66615" lon="3.21897">
        <ele>326.1</ele>
        <time>2026-05-19T11:15:31Z</time>
      </trkpt>
      <trkpt lat="43.66615" lon="3.21897">
        <ele>326.1</ele>
        <time>2026-05-19T11:15:36Z</time>
      </trkpt>
      <trkpt lat="43.66615" lon="3.21897">
        <ele>326.1</ele>
        <time>2026-05-19T11:15:41Z</time>
      </trkpt>
      <trkpt lat="43.66615" lon="3.21897">
        <ele>326.1</ele>
        <time>2026-05-19T11:15:46Z</time>
      </trkpt>
      <trkpt lat="43.66615" lon="3.21897">
        <ele>326.1</ele>
        <time>2026-05-19T11:15:51Z</time>
      </trkpt>
      <trkpt lat="43.66615" lon="3.21897">
        <ele>326.1</ele>
        <time>2026-05-19T11:15:56Z</time>
      </trkpt>
      <trkpt lat="43.66615" lon="3.21897">
        <ele>326.1</ele>
        <time>2026-05-19T11:16:01Z</time>
      </trkpt>
      <trkpt lat="43.66615" lon="3.21897">
        <ele>326.1</ele>
        <time>2026-05-19T11:16:06Z</time>
      </trkpt>
      <trkpt lat="43.66615" lon="3.21897">
        <ele>326.1</ele>
        <time>2026-05-19T11:16:11Z</time>
      </trkpt>
      <trkpt lat="43.66615" lon="3.21897">
        <ele>326.1</ele>
        <time>2026-05-19T11:16:16Z</time>
      </trkpt>
      <trkpt lat="43.66615" lon="3.21897">
        <ele>326.1</ele>
        <time>2026-05-19T11:16:21Z</time>
      </trkpt>
      <trkpt lat="43.66615" lon="3.21897">
        <ele>326.1</ele>
        <time>2026-05-19T11:16:26Z</time>
      </trkpt>
      <trkpt lat="43.66615" lon="3.21897">
        <ele>326.1</ele>
        <time>2026-05-19T11:16:31Z</time>
      </trkpt>
      <trkpt lat="43.66615" lon="3.21897">
        <ele>326.1</ele>
        <time>2026-05-19T11:16:36Z</time>
      </trkpt>
      <trkpt lat="43.66615" lon="3.21897">
        <ele>326.1</ele>
        <time>2026-05-19T11:16:41Z</time>
      </trkpt>
      <trkpt lat="43.66615" lon="3.21897">
        <ele>326.1</ele>
        <time>2026-05-19T11:16:46Z</time>
      </trkpt>
      <trkpt lat="43.66615" lon="3.21897">
        <ele>326.1</ele>
        <time>2026-05-19T11:16:51Z</time>
      </trkpt>
      <trkpt lat="43.66615" lon="3.21897">
        <ele>326.1</ele>
        <time>2026-05-19T11:16:56Z</time>
      </trkpt>
      <trkpt lat="43.66615" lon="3.21897">
        <ele>326.1</ele>
        <time>2026-05-19T11:17:01Z</time>
      </trkpt>
      <trkpt lat="43.66615" lon="3.21897">
        <ele>326.1</ele>
        <time>2026-05-19T11:17:06Z</time>
      </trkpt>
      <trkpt lat="43.66615" lon="3.21897">
        <ele>326.1</ele>
        <time>2026-05-19T11:17:11Z</time>
      </trkpt>
      <trkpt lat="43.66615" lon="3.21897">
        <ele>326.1</ele>
        <time>2026-05-19T11:17:16Z</time>
      </trkpt>
      <trkpt lat="43.66615" lon="3.21897">
        <ele>326.1</ele>
        <time>2026-05-19T11:17:21Z</time>
      </trkpt>
      <trkpt lat="43.66615" lon="3.21897">
        <ele>326.1</ele>
        <time>2026-05-19T11:17:26Z</time>
      </trkpt>
      <trkpt lat="43.66615" lon="3.21897">
        <ele>326.1</ele>
        <time>2026-05-19T11:17:31Z</time>
      </trkpt>
      <trkpt lat="43.66615" lon="3.21897">
        <ele>326.1</ele>
        <time>2026-05-19T11:17:36Z</time>
      </trkpt>
      <trkpt lat="43.66615" lon="3.21897">
        <ele>326.1</ele>
        <time>2026-05-19T11:17:41Z</time>
      </trkpt>
      <trkpt lat="43.66615" lon="3.21897">
        <ele>326.1</ele>
        <time>2026-05-19T11:17:46Z</time>
      </trkpt>
      <trkpt lat="43.66615" lon="3.21897">
        <ele>326.1</ele>
        <time>2026-05-19T11:17:51Z</time>
      </trkpt>
      <trkpt lat="43.66615" lon="3.21897">
        <ele>326.1</ele>
        <time>2026-05-19T11:17:56Z</time>
      </trkpt>
      <trkpt lat="43.66615" lon="3.21897">
        <ele>326.1</ele>
        <time>2026-05-19T11:18:01Z</time>
      </trkpt>
      <trkpt lat="43.66615" lon="3.21897">
        <ele>326.1</ele>
        <time>2026-05-19T11:18:06Z</time>
      </trkpt>
      <trkpt lat="43.66615" lon="3.21897">
        <ele>326.1</ele>
        <time>2026-05-19T11:18:11Z</time>
      </trkpt>
      <trkpt lat="43.66615" lon="3.21897">
        <ele>326.1</ele>
        <time>2026-05-19T11:18:16Z</time>
      </trkpt>
      <trkpt lat="43.66615" lon="3.21897">
        <ele>326.1</ele>
        <time>2026-05-19T11:18:21Z</time>
      </trkpt>
      <trkpt lat="43.66615" lon="3.21897">
        <ele>326.1</ele>
        <time>2026-05-19T11:18:26Z</time>
      </trkpt>
      <trkpt lat="43.66615" lon="3.21897">
        <ele>326.1</ele>
        <time>2026-05-19T11:18:31Z</time>
      </trkpt>
      <trkpt lat="43.66622" lon="3.21904">
        <ele>326.9</ele>
        <time>2026-05-19T11:18:36Z</time>
      </trkpt>
      <trkpt lat="43.66626" lon="3.21912">
        <ele>326.9</ele>
        <time>2026-05-19T11:18:41Z</time>
      </trkpt>
      <trkpt lat="43.66629" lon="3.21919">
        <ele>326.9</ele>
        <time>2026-05-19T11:18:46Z</time>
      </trkpt>
      <trkpt lat="43.66632" lon="3.21926">
        <ele>326.9</ele>
        <time>2026-05-19T11:18:51Z</time>
      </trkpt>
      <trkpt lat="43.66636" lon="3.21932">
        <ele>327</ele>
        <time>2026-05-19T11:18:56Z</time>
      </trkpt>
      <trkpt lat="43.6664" lon="3.21937">
        <ele>327.2</ele>
        <time>2026-05-19T11:19:01Z</time>
      </trkpt>
      <trkpt lat="43.66641" lon="3.21939">
        <ele>327.1</ele>
        <time>2026-05-19T11:19:06Z</time>
      </trkpt>
      <trkpt lat="43.66643" lon="3.21938">
        <ele>327.4</ele>
        <time>2026-05-19T11:19:11Z</time>
      </trkpt>
      <trkpt lat="43.66644" lon="3.21937">
        <ele>327.6</ele>
        <time>2026-05-19T11:19:16Z</time>
      </trkpt>
      <trkpt lat="43.66644" lon="3.21937">
        <ele>327.6</ele>
        <time>2026-05-19T11:19:21Z</time>
      </trkpt>
      <trkpt lat="43.66644" lon="3.21937">
        <ele>327.6</ele>
        <time>2026-05-19T11:19:26Z</time>
      </trkpt>
      <trkpt lat="43.66644" lon="3.21937">
        <ele>327.6</ele>
        <time>2026-05-19T11:19:31Z</time>
      </trkpt>
      <trkpt lat="43.66644" lon="3.21937">
        <ele>327.6</ele>
        <time>2026-05-19T11:19:36Z</time>
      </trkpt>
      <trkpt lat="43.66644" lon="3.21937">
        <ele>327.6</ele>
        <time>2026-05-19T11:19:41Z</time>
      </trkpt>
      <trkpt lat="43.66644" lon="3.21937">
        <ele>327.6</ele>
        <time>2026-05-19T11:19:46Z</time>
      </trkpt>
      <trkpt lat="43.66644" lon="3.21937">
        <ele>327.6</ele>
        <time>2026-05-19T11:19:51Z</time>
      </trkpt>
      <trkpt lat="43.66644" lon="3.21937">
        <ele>327.6</ele>
        <time>2026-05-19T11:19:56Z</time>
      </trkpt>
      <trkpt lat="43.66644" lon="3.21937">
        <ele>327.6</ele>
        <time>2026-05-19T11:20:01Z</time>
      </trkpt>
      <trkpt lat="43.66644" lon="3.21937">
        <ele>327.6</ele>
        <time>2026-05-19T11:20:06Z</time>
      </trkpt>
      <trkpt lat="43.66644" lon="3.21937">
        <ele>327.6</ele>
        <time>2026-05-19T11:20:11Z</time>
      </trkpt>
      <trkpt lat="43.66644" lon="3.21937">
        <ele>327.6</ele>
        <time>2026-05-19T11:20:16Z</time>
      </trkpt>
      <trkpt lat="43.66644" lon="3.21937">
        <ele>327.6</ele>
        <time>2026-05-19T11:20:21Z</time>
      </trkpt>
      <trkpt lat="43.66644" lon="3.21937">
        <ele>327.6</ele>
        <time>2026-05-19T11:20:26Z</time>
      </trkpt>
      <trkpt lat="43.66644" lon="3.21937">
        <ele>327.6</ele>
        <time>2026-05-19T11:20:31Z</time>
      </trkpt>
      <trkpt lat="43.66644" lon="3.21937">
        <ele>327.6</ele>
        <time>2026-05-19T11:20:36Z</time>
      </trkpt>
      <trkpt lat="43.66644" lon="3.21937">
        <ele>327.6</ele>
        <time>2026-05-19T11:20:41Z</time>
      </trkpt>
      <trkpt lat="43.66644" lon="3.21937">
        <ele>327.6</ele>
        <time>2026-05-19T11:20:46Z</time>
      </trkpt>
      <trkpt lat="43.66644" lon="3.21937">
        <ele>327.6</ele>
        <time>2026-05-19T11:20:51Z</time>
      </trkpt>
      <trkpt lat="43.66644" lon="3.21937">
        <ele>327.6</ele>
        <time>2026-05-19T11:20:56Z</time>
      </trkpt>
      <trkpt lat="43.66644" lon="3.21937">
        <ele>327.6</ele>
        <time>2026-05-19T11:21:01Z</time>
      </trkpt>
      <trkpt lat="43.66644" lon="3.21937">
        <ele>327.6</ele>
        <time>2026-05-19T11:21:06Z</time>
      </trkpt>
      <trkpt lat="43.66644" lon="3.21937">
        <ele>327.6</ele>
        <time>2026-05-19T11:21:11Z</time>
      </trkpt>
      <trkpt lat="43.66644" lon="3.21937">
        <ele>327.6</ele>
        <time>2026-05-19T11:21:16Z</time>
      </trkpt>
      <trkpt lat="43.66644" lon="3.21937">
        <ele>327.6</ele>
        <time>2026-05-19T11:21:21Z</time>
      </trkpt>
      <trkpt lat="43.66646" lon="3.2194">
        <ele>327.6</ele>
        <time>2026-05-19T11:21:26Z</time>
      </trkpt>
      <trkpt lat="43.6665" lon="3.21939">
        <ele>328.1</ele>
        <time>2026-05-19T11:21:31Z</time>
      </trkpt>
      <trkpt lat="43.66655" lon="3.21941">
        <ele>328.5</ele>
        <time>2026-05-19T11:21:36Z</time>
      </trkpt>
      <trkpt lat="43.66661" lon="3.21944">
        <ele>328.8</ele>
        <time>2026-05-19T11:21:41Z</time>
      </trkpt>
      <trkpt lat="43.66666" lon="3.21945">
        <ele>329.2</ele>
        <time>2026-05-19T11:21:46Z</time>
      </trkpt>
      <trkpt lat="43.66669" lon="3.21948">
        <ele>329.2</ele>
        <time>2026-05-19T11:21:51Z</time>
      </trkpt>
      <trkpt lat="43.66673" lon="3.2195">
        <ele>329.5</ele>
        <time>2026-05-19T11:21:56Z</time>
      </trkpt>
      <trkpt lat="43.66679" lon="3.21952">
        <ele>329.9</ele>
        <time>2026-05-19T11:22:01Z</time>
      </trkpt>
      <trkpt lat="43.66688" lon="3.21951">
        <ele>330.9</ele>
        <time>2026-05-19T11:22:06Z</time>
      </trkpt>
      <trkpt lat="43.66695" lon="3.21948">
        <ele>332</ele>
        <time>2026-05-19T11:22:11Z</time>
      </trkpt>
      <trkpt lat="43.667" lon="3.21945">
        <ele>332.9</ele>
        <time>2026-05-19T11:22:16Z</time>
      </trkpt>
      <trkpt lat="43.66702" lon="3.2194">
        <ele>333.6</ele>
        <time>2026-05-19T11:22:21Z</time>
      </trkpt>
      <trkpt lat="43.667" lon="3.21936">
        <ele>333.9</ele>
        <time>2026-05-19T11:22:26Z</time>
      </trkpt>
      <trkpt lat="43.667" lon="3.21936">
        <ele>333.9</ele>
        <time>2026-05-19T11:22:31Z</time>
      </trkpt>
      <trkpt lat="43.667" lon="3.21936">
        <ele>333.9</ele>
        <time>2026-05-19T11:22:36Z</time>
      </trkpt>
      <trkpt lat="43.667" lon="3.21936">
        <ele>333.9</ele>
        <time>2026-05-19T11:22:41Z</time>
      </trkpt>
      <trkpt lat="43.667" lon="3.21936">
        <ele>333.9</ele>
        <time>2026-05-19T11:22:46Z</time>
      </trkpt>
      <trkpt lat="43.667" lon="3.21936">
        <ele>333.9</ele>
        <time>2026-05-19T11:22:51Z</time>
      </trkpt>
      <trkpt lat="43.66698" lon="3.21928">
        <ele>334.5</ele>
        <time>2026-05-19T11:22:56Z</time>
      </trkpt>
      <trkpt lat="43.66697" lon="3.21924">
        <ele>334.8</ele>
        <time>2026-05-19T11:23:01Z</time>
      </trkpt>
      <trkpt lat="43.66697" lon="3.21924">
        <ele>334.8</ele>
        <time>2026-05-19T11:23:06Z</time>
      </trkpt>
      <trkpt lat="43.66697" lon="3.21924">
        <ele>334.8</ele>
        <time>2026-05-19T11:23:11Z</time>
      </trkpt>
      <trkpt lat="43.66691" lon="3.21913">
        <ele>335.5</ele>
        <time>2026-05-19T11:23:16Z</time>
      </trkpt>
      <trkpt lat="43.6669" lon="3.21912">
        <ele>335.5</ele>
        <time>2026-05-19T11:23:21Z</time>
      </trkpt>
      <trkpt lat="43.6669" lon="3.21912">
        <ele>335.5</ele>
        <time>2026-05-19T11:23:26Z</time>
      </trkpt>
      <trkpt lat="43.66686" lon="3.219">
        <ele>336.8</ele>
        <time>2026-05-19T11:23:31Z</time>
      </trkpt>
      <trkpt lat="43.66686" lon="3.21899">
        <ele>336.9</ele>
        <time>2026-05-19T11:23:36Z</time>
      </trkpt>
      <trkpt lat="43.66684" lon="3.21893">
        <ele>337.5</ele>
        <time>2026-05-19T11:23:41Z</time>
      </trkpt>
      <trkpt lat="43.66682" lon="3.2189">
        <ele>337.7</ele>
        <time>2026-05-19T11:23:46Z</time>
      </trkpt>
      <trkpt lat="43.66682" lon="3.2189">
        <ele>337.7</ele>
        <time>2026-05-19T11:23:51Z</time>
      </trkpt>
      <trkpt lat="43.66682" lon="3.2189">
        <ele>337.7</ele>
        <time>2026-05-19T11:23:56Z</time>
      </trkpt>
      <trkpt lat="43.66676" lon="3.2188">
        <ele>338.4</ele>
        <time>2026-05-19T11:24:01Z</time>
      </trkpt>
      <trkpt lat="43.66676" lon="3.2188">
        <ele>338.4</ele>
        <time>2026-05-19T11:24:06Z</time>
      </trkpt>
      <trkpt lat="43.66676" lon="3.2188">
        <ele>338.4</ele>
        <time>2026-05-19T11:24:11Z</time>
      </trkpt>
      <trkpt lat="43.66676" lon="3.2188">
        <ele>338.4</ele>
        <time>2026-05-19T11:24:16Z</time>
      </trkpt>
      <trkpt lat="43.66676" lon="3.2188">
        <ele>338.4</ele>
        <time>2026-05-19T11:24:21Z</time>
      </trkpt>
      <trkpt lat="43.66676" lon="3.2188">
        <ele>338.4</ele>
        <time>2026-05-19T11:24:26Z</time>
      </trkpt>
      <trkpt lat="43.66674" lon="3.21874">
        <ele>339.1</ele>
        <time>2026-05-19T11:24:31Z</time>
      </trkpt>
      <trkpt lat="43.66673" lon="3.2187">
        <ele>339.5</ele>
        <time>2026-05-19T11:24:36Z</time>
      </trkpt>
      <trkpt lat="43.66674" lon="3.21867">
        <ele>340.1</ele>
        <time>2026-05-19T11:24:41Z</time>
      </trkpt>
      <trkpt lat="43.66675" lon="3.21867">
        <ele>340.2</ele>
        <time>2026-05-19T11:24:46Z</time>
      </trkpt>
      <trkpt lat="43.66675" lon="3.21867">
        <ele>340.2</ele>
        <time>2026-05-19T11:24:51Z</time>
      </trkpt>
      <trkpt lat="43.66678" lon="3.21858">
        <ele>341.9</ele>
        <time>2026-05-19T11:24:56Z</time>
      </trkpt>
      <trkpt lat="43.66677" lon="3.21854">
        <ele>342.4</ele>
        <time>2026-05-19T11:25:01Z</time>
      </trkpt>
      <trkpt lat="43.66676" lon="3.21851">
        <ele>342.7</ele>
        <time>2026-05-19T11:25:06Z</time>
      </trkpt>
      <trkpt lat="43.66676" lon="3.21851">
        <ele>342.7</ele>
        <time>2026-05-19T11:25:11Z</time>
      </trkpt>
      <trkpt lat="43.66676" lon="3.21851">
        <ele>342.7</ele>
        <time>2026-05-19T11:25:16Z</time>
      </trkpt>
      <trkpt lat="43.66676" lon="3.21851">
        <ele>342.7</ele>
        <time>2026-05-19T11:25:21Z</time>
      </trkpt>
      <trkpt lat="43.66676" lon="3.21834">
        <ele>345.1</ele>
        <time>2026-05-19T11:25:26Z</time>
      </trkpt>
      <trkpt lat="43.66675" lon="3.21829">
        <ele>345.9</ele>
        <time>2026-05-19T11:25:31Z</time>
      </trkpt>
      <trkpt lat="43.66674" lon="3.21825">
        <ele>346.5</ele>
        <time>2026-05-19T11:25:36Z</time>
      </trkpt>
      <trkpt lat="43.66672" lon="3.2182">
        <ele>347.2</ele>
        <time>2026-05-19T11:25:41Z</time>
      </trkpt>
      <trkpt lat="43.66669" lon="3.21815">
        <ele>347.7</ele>
        <time>2026-05-19T11:25:46Z</time>
      </trkpt>
      <trkpt lat="43.66666" lon="3.21813">
        <ele>347.4</ele>
        <time>2026-05-19T11:25:51Z</time>
      </trkpt>
      <trkpt lat="43.66666" lon="3.21813">
        <ele>347.4</ele>
        <time>2026-05-19T11:25:56Z</time>
      </trkpt>
      <trkpt lat="43.66666" lon="3.21813">
        <ele>347.4</ele>
        <time>2026-05-19T11:26:01Z</time>
      </trkpt>
      <trkpt lat="43.66654" lon="3.21808">
        <ele>344.4</ele>
        <time>2026-05-19T11:26:06Z</time>
      </trkpt>
      <trkpt lat="43.66654" lon="3.21808">
        <ele>344.4</ele>
        <time>2026-05-19T11:26:11Z</time>
      </trkpt>
      <trkpt lat="43.66654" lon="3.21808">
        <ele>344.4</ele>
        <time>2026-05-19T11:26:16Z</time>
      </trkpt>
      <trkpt lat="43.66654" lon="3.21808">
        <ele>344.4</ele>
        <time>2026-05-19T11:26:21Z</time>
      </trkpt>
      <trkpt lat="43.66645" lon="3.21803">
        <ele>342.3</ele>
        <time>2026-05-19T11:26:26Z</time>
      </trkpt>
      <trkpt lat="43.66644" lon="3.21802">
        <ele>342.1</ele>
        <time>2026-05-19T11:26:31Z</time>
      </trkpt>
      <trkpt lat="43.66644" lon="3.21802">
        <ele>342.1</ele>
        <time>2026-05-19T11:26:36Z</time>
      </trkpt>
      <trkpt lat="43.66644" lon="3.21802">
        <ele>342.1</ele>
        <time>2026-05-19T11:26:41Z</time>
      </trkpt>
      <trkpt lat="43.66637" lon="3.21796">
        <ele>340.6</ele>
        <time>2026-05-19T11:26:46Z</time>
      </trkpt>
      <trkpt lat="43.66637" lon="3.21796">
        <ele>340.6</ele>
        <time>2026-05-19T11:26:51Z</time>
      </trkpt>
      <trkpt lat="43.66637" lon="3.21796">
        <ele>340.6</ele>
        <time>2026-05-19T11:26:56Z</time>
      </trkpt>
      <trkpt lat="43.66637" lon="3.21796">
        <ele>340.6</ele>
        <time>2026-05-19T11:27:01Z</time>
      </trkpt>
      <trkpt lat="43.66632" lon="3.21784">
        <ele>340.4</ele>
        <time>2026-05-19T11:27:06Z</time>
      </trkpt>
      <trkpt lat="43.66632" lon="3.21784">
        <ele>340.4</ele>
        <time>2026-05-19T11:27:11Z</time>
      </trkpt>
      <trkpt lat="43.66627" lon="3.21779">
        <ele>339.3</ele>
        <time>2026-05-19T11:27:16Z</time>
      </trkpt>
      <trkpt lat="43.66628" lon="3.21778">
        <ele>339.7</ele>
        <time>2026-05-19T11:27:21Z</time>
      </trkpt>
      <trkpt lat="43.66627" lon="3.21769">
        <ele>340.5</ele>
        <time>2026-05-19T11:27:26Z</time>
      </trkpt>
      <trkpt lat="43.66626" lon="3.21766">
        <ele>340.5</ele>
        <time>2026-05-19T11:27:31Z</time>
      </trkpt>
      <trkpt lat="43.66625" lon="3.21762">
        <ele>340.6</ele>
        <time>2026-05-19T11:27:36Z</time>
      </trkpt>
      <trkpt lat="43.66623" lon="3.21758">
        <ele>340.2</ele>
        <time>2026-05-19T11:27:41Z</time>
      </trkpt>
      <trkpt lat="43.66621" lon="3.21754">
        <ele>339.9</ele>
        <time>2026-05-19T11:27:46Z</time>
      </trkpt>
      <trkpt lat="43.66621" lon="3.21754">
        <ele>339.9</ele>
        <time>2026-05-19T11:27:51Z</time>
      </trkpt>
      <trkpt lat="43.66617" lon="3.21748">
        <ele>339.1</ele>
        <time>2026-05-19T11:27:56Z</time>
      </trkpt>
      <trkpt lat="43.66614" lon="3.21745">
        <ele>338.3</ele>
        <time>2026-05-19T11:28:01Z</time>
      </trkpt>
      <trkpt lat="43.66613" lon="3.21742">
        <ele>338.4</ele>
        <time>2026-05-19T11:28:06Z</time>
      </trkpt>
      <trkpt lat="43.66612" lon="3.2174">
        <ele>338.3</ele>
        <time>2026-05-19T11:28:11Z</time>
      </trkpt>
      <trkpt lat="43.66612" lon="3.2174">
        <ele>338.3</ele>
        <time>2026-05-19T11:28:16Z</time>
      </trkpt>
      <trkpt lat="43.66607" lon="3.21728">
        <ele>338</ele>
        <time>2026-05-19T11:28:21Z</time>
      </trkpt>
      <trkpt lat="43.66605" lon="3.21724">
        <ele>337.8</ele>
        <time>2026-05-19T11:28:26Z</time>
      </trkpt>
      <trkpt lat="43.66605" lon="3.21723">
        <ele>337.9</ele>
        <time>2026-05-19T11:28:31Z</time>
      </trkpt>
      <trkpt lat="43.66603" lon="3.21718">
        <ele>337.8</ele>
        <time>2026-05-19T11:28:36Z</time>
      </trkpt>
      <trkpt lat="43.66602" lon="3.21715">
        <ele>337.8</ele>
        <time>2026-05-19T11:28:41Z</time>
      </trkpt>
      <trkpt lat="43.666" lon="3.21709">
        <ele>337.8</ele>
        <time>2026-05-19T11:28:46Z</time>
      </trkpt>
      <trkpt lat="43.66599" lon="3.21705">
        <ele>337.9</ele>
        <time>2026-05-19T11:28:51Z</time>
      </trkpt>
      <trkpt lat="43.66598" lon="3.21701">
        <ele>338.1</ele>
        <time>2026-05-19T11:28:56Z</time>
      </trkpt>
      <trkpt lat="43.66597" lon="3.21697">
        <ele>338.2</ele>
        <time>2026-05-19T11:29:01Z</time>
      </trkpt>
      <trkpt lat="43.66597" lon="3.2169">
        <ele>339.2</ele>
        <time>2026-05-19T11:29:06Z</time>
      </trkpt>
      <trkpt lat="43.66597" lon="3.21686">
        <ele>339.8</ele>
        <time>2026-05-19T11:29:11Z</time>
      </trkpt>
      <trkpt lat="43.66598" lon="3.21685">
        <ele>340.4</ele>
        <time>2026-05-19T11:29:16Z</time>
      </trkpt>
      <trkpt lat="43.66598" lon="3.21685">
        <ele>340.4</ele>
        <time>2026-05-19T11:29:21Z</time>
      </trkpt>
      <trkpt lat="43.66598" lon="3.21685">
        <ele>340.4</ele>
        <time>2026-05-19T11:29:26Z</time>
      </trkpt>
      <trkpt lat="43.66598" lon="3.21685">
        <ele>340.4</ele>
        <time>2026-05-19T11:29:31Z</time>
      </trkpt>
      <trkpt lat="43.66608" lon="3.21685">
        <ele>345</ele>
        <time>2026-05-19T11:29:36Z</time>
      </trkpt>
      <trkpt lat="43.66609" lon="3.21687">
        <ele>345.2</ele>
        <time>2026-05-19T11:29:41Z</time>
      </trkpt>
      <trkpt lat="43.66609" lon="3.21687">
        <ele>345.2</ele>
        <time>2026-05-19T11:29:46Z</time>
      </trkpt>
      <trkpt lat="43.66609" lon="3.21687">
        <ele>345.2</ele>
        <time>2026-05-19T11:29:51Z</time>
      </trkpt>
      <trkpt lat="43.66609" lon="3.21687">
        <ele>345.2</ele>
        <time>2026-05-19T11:29:56Z</time>
      </trkpt>
      <trkpt lat="43.66609" lon="3.21687">
        <ele>345.2</ele>
        <time>2026-05-19T11:30:01Z</time>
      </trkpt>
      <trkpt lat="43.66619" lon="3.21685">
        <ele>350.1</ele>
        <time>2026-05-19T11:30:06Z</time>
      </trkpt>
      <trkpt lat="43.66619" lon="3.21685">
        <ele>350.1</ele>
        <time>2026-05-19T11:30:11Z</time>
      </trkpt>
      <trkpt lat="43.66619" lon="3.21685">
        <ele>350.1</ele>
        <time>2026-05-19T11:30:16Z</time>
      </trkpt>
      <trkpt lat="43.66626" lon="3.21684">
        <ele>353.6</ele>
        <time>2026-05-19T11:30:21Z</time>
      </trkpt>
      <trkpt lat="43.66627" lon="3.21683">
        <ele>354.2</ele>
        <time>2026-05-19T11:30:26Z</time>
      </trkpt>
      <trkpt lat="43.66627" lon="3.21683">
        <ele>354.2</ele>
        <time>2026-05-19T11:30:31Z</time>
      </trkpt>
      <trkpt lat="43.66627" lon="3.21683">
        <ele>354.2</ele>
        <time>2026-05-19T11:30:36Z</time>
      </trkpt>
      <trkpt lat="43.66636" lon="3.21681">
        <ele>358.7</ele>
        <time>2026-05-19T11:30:41Z</time>
      </trkpt>
      <trkpt lat="43.66639" lon="3.21682">
        <ele>360</ele>
        <time>2026-05-19T11:30:46Z</time>
      </trkpt>
      <trkpt lat="43.66642" lon="3.21683">
        <ele>361.2</ele>
        <time>2026-05-19T11:30:51Z</time>
      </trkpt>
      <trkpt lat="43.66646" lon="3.21682">
        <ele>363.2</ele>
        <time>2026-05-19T11:30:56Z</time>
      </trkpt>
      <trkpt lat="43.66648" lon="3.21682">
        <ele>364.2</ele>
        <time>2026-05-19T11:31:01Z</time>
      </trkpt>
      <trkpt lat="43.66651" lon="3.21683">
        <ele>365.4</ele>
        <time>2026-05-19T11:31:06Z</time>
      </trkpt>
      <trkpt lat="43.66653" lon="3.21682">
        <ele>366.5</ele>
        <time>2026-05-19T11:31:11Z</time>
      </trkpt>
      <trkpt lat="43.66657" lon="3.21682">
        <ele>368.4</ele>
        <time>2026-05-19T11:31:16Z</time>
      </trkpt>
      <trkpt lat="43.6666" lon="3.21685">
        <ele>369.2</ele>
        <time>2026-05-19T11:31:21Z</time>
      </trkpt>
      <trkpt lat="43.66663" lon="3.21687">
        <ele>370.2</ele>
        <time>2026-05-19T11:31:26Z</time>
      </trkpt>
      <trkpt lat="43.66665" lon="3.21687">
        <ele>371.1</ele>
        <time>2026-05-19T11:31:31Z</time>
      </trkpt>
      <trkpt lat="43.66665" lon="3.21687">
        <ele>371.1</ele>
        <time>2026-05-19T11:31:36Z</time>
      </trkpt>
      <trkpt lat="43.66665" lon="3.21687">
        <ele>371.1</ele>
        <time>2026-05-19T11:31:41Z</time>
      </trkpt>
      <trkpt lat="43.66666" lon="3.21686">
        <ele>371.7</ele>
        <time>2026-05-19T11:31:46Z</time>
      </trkpt>
      <trkpt lat="43.66671" lon="3.21688">
        <ele>372.9</ele>
        <time>2026-05-19T11:31:51Z</time>
      </trkpt>
      <trkpt lat="43.66675" lon="3.21688">
        <ele>374.1</ele>
        <time>2026-05-19T11:31:56Z</time>
      </trkpt>
      <trkpt lat="43.66679" lon="3.21688">
        <ele>375.2</ele>
        <time>2026-05-19T11:32:01Z</time>
      </trkpt>
      <trkpt lat="43.6668" lon="3.21687">
        <ele>375.7</ele>
        <time>2026-05-19T11:32:06Z</time>
      </trkpt>
      <trkpt lat="43.66683" lon="3.21685">
        <ele>377.1</ele>
        <time>2026-05-19T11:32:11Z</time>
      </trkpt>
      <trkpt lat="43.66688" lon="3.21682">
        <ele>379.2</ele>
        <time>2026-05-19T11:32:16Z</time>
      </trkpt>
      <trkpt lat="43.66691" lon="3.21678">
        <ele>381</ele>
        <time>2026-05-19T11:32:21Z</time>
      </trkpt>
      <trkpt lat="43.66693" lon="3.21676">
        <ele>382.1</ele>
        <time>2026-05-19T11:32:26Z</time>
      </trkpt>
      <trkpt lat="43.66696" lon="3.21673">
        <ele>383.7</ele>
        <time>2026-05-19T11:32:31Z</time>
      </trkpt>
      <trkpt lat="43.66697" lon="3.21669">
        <ele>384.9</ele>
        <time>2026-05-19T11:32:36Z</time>
      </trkpt>
      <trkpt lat="43.66698" lon="3.21667">
        <ele>385.7</ele>
        <time>2026-05-19T11:32:41Z</time>
      </trkpt>
      <trkpt lat="43.66698" lon="3.21667">
        <ele>385.7</ele>
        <time>2026-05-19T11:32:46Z</time>
      </trkpt>
      <trkpt lat="43.66698" lon="3.21667">
        <ele>385.7</ele>
        <time>2026-05-19T11:32:51Z</time>
      </trkpt>
      <trkpt lat="43.66698" lon="3.21667">
        <ele>385.7</ele>
        <time>2026-05-19T11:32:56Z</time>
      </trkpt>
      <trkpt lat="43.66698" lon="3.21667">
        <ele>385.7</ele>
        <time>2026-05-19T11:33:01Z</time>
      </trkpt>
      <trkpt lat="43.66698" lon="3.21667">
        <ele>385.7</ele>
        <time>2026-05-19T11:33:06Z</time>
      </trkpt>
      <trkpt lat="43.66698" lon="3.21667">
        <ele>385.7</ele>
        <time>2026-05-19T11:33:11Z</time>
      </trkpt>
      <trkpt lat="43.66698" lon="3.21667">
        <ele>385.7</ele>
        <time>2026-05-19T11:33:16Z</time>
      </trkpt>
      <trkpt lat="43.66706" lon="3.21659">
        <ele>389.6</ele>
        <time>2026-05-19T11:33:21Z</time>
      </trkpt>
      <trkpt lat="43.66706" lon="3.21659">
        <ele>389.6</ele>
        <time>2026-05-19T11:33:26Z</time>
      </trkpt>
      <trkpt lat="43.66706" lon="3.21659">
        <ele>389.6</ele>
        <time>2026-05-19T11:33:31Z</time>
      </trkpt>
      <trkpt lat="43.66706" lon="3.21659">
        <ele>389.6</ele>
        <time>2026-05-19T11:33:36Z</time>
      </trkpt>
      <trkpt lat="43.66714" lon="3.21665">
        <ele>391</ele>
        <time>2026-05-19T11:33:41Z</time>
      </trkpt>
      <trkpt lat="43.66715" lon="3.21666">
        <ele>391.2</ele>
        <time>2026-05-19T11:33:46Z</time>
      </trkpt>
      <trkpt lat="43.66719" lon="3.21668">
        <ele>392</ele>
        <time>2026-05-19T11:33:51Z</time>
      </trkpt>
      <trkpt lat="43.66723" lon="3.2167">
        <ele>392.7</ele>
        <time>2026-05-19T11:33:56Z</time>
      </trkpt>
      <trkpt lat="43.66726" lon="3.21674">
        <ele>392.6</ele>
        <time>2026-05-19T11:34:01Z</time>
      </trkpt>
      <trkpt lat="43.66729" lon="3.21678">
        <ele>392.4</ele>
        <time>2026-05-19T11:34:06Z</time>
      </trkpt>
      <trkpt lat="43.66732" lon="3.2168">
        <ele>392.8</ele>
        <time>2026-05-19T11:34:11Z</time>
      </trkpt>
      <trkpt lat="43.66732" lon="3.2168">
        <ele>392.8</ele>
        <time>2026-05-19T11:34:16Z</time>
      </trkpt>
      <trkpt lat="43.66732" lon="3.2168">
        <ele>392.8</ele>
        <time>2026-05-19T11:34:21Z</time>
      </trkpt>
      <trkpt lat="43.66732" lon="3.2168">
        <ele>392.8</ele>
        <time>2026-05-19T11:34:26Z</time>
      </trkpt>
      <trkpt lat="43.66732" lon="3.2168">
        <ele>392.8</ele>
        <time>2026-05-19T11:34:31Z</time>
      </trkpt>
      <trkpt lat="43.66735" lon="3.21681">
        <ele>393.4</ele>
        <time>2026-05-19T11:34:36Z</time>
      </trkpt>
      <trkpt lat="43.6674" lon="3.21684">
        <ele>394.1</ele>
        <time>2026-05-19T11:34:41Z</time>
      </trkpt>
      <trkpt lat="43.66746" lon="3.21684">
        <ele>395.8</ele>
        <time>2026-05-19T11:34:46Z</time>
      </trkpt>
      <trkpt lat="43.6675" lon="3.21679">
        <ele>398.4</ele>
        <time>2026-05-19T11:34:51Z</time>
      </trkpt>
      <trkpt lat="43.66752" lon="3.21678">
        <ele>398.9</ele>
        <time>2026-05-19T11:34:56Z</time>
      </trkpt>
      <trkpt lat="43.66751" lon="3.21678">
        <ele>398.8</ele>
        <time>2026-05-19T11:35:01Z</time>
      </trkpt>
      <trkpt lat="43.66751" lon="3.21678">
        <ele>398.8</ele>
        <time>2026-05-19T11:35:06Z</time>
      </trkpt>
      <trkpt lat="43.66751" lon="3.21678">
        <ele>398.8</ele>
        <time>2026-05-19T11:35:11Z</time>
      </trkpt>
      <trkpt lat="43.66751" lon="3.21678">
        <ele>398.8</ele>
        <time>2026-05-19T11:35:16Z</time>
      </trkpt>
      <trkpt lat="43.66748" lon="3.21669">
        <ele>400.7</ele>
        <time>2026-05-19T11:35:21Z</time>
      </trkpt>
      <trkpt lat="43.66747" lon="3.21661">
        <ele>402</ele>
        <time>2026-05-19T11:35:26Z</time>
      </trkpt>
      <trkpt lat="43.66747" lon="3.21652">
        <ele>403.5</ele>
        <time>2026-05-19T11:35:31Z</time>
      </trkpt>
      <trkpt lat="43.66747" lon="3.21645">
        <ele>404.7</ele>
        <time>2026-05-19T11:35:36Z</time>
      </trkpt>
      <trkpt lat="43.66748" lon="3.21636">
        <ele>406.5</ele>
        <time>2026-05-19T11:35:41Z</time>
      </trkpt>
      <trkpt lat="43.66748" lon="3.21629">
        <ele>407.7</ele>
        <time>2026-05-19T11:35:46Z</time>
      </trkpt>
      <trkpt lat="43.66747" lon="3.21621">
        <ele>408.7</ele>
        <time>2026-05-19T11:35:51Z</time>
      </trkpt>
      <trkpt lat="43.66747" lon="3.21612">
        <ele>410.2</ele>
        <time>2026-05-19T11:35:56Z</time>
      </trkpt>
      <trkpt lat="43.66748" lon="3.21603">
        <ele>412.1</ele>
        <time>2026-05-19T11:36:01Z</time>
      </trkpt>
      <trkpt lat="43.66749" lon="3.21593">
        <ele>414.1</ele>
        <time>2026-05-19T11:36:06Z</time>
      </trkpt>
      <trkpt lat="43.6675" lon="3.21583">
        <ele>416</ele>
        <time>2026-05-19T11:36:11Z</time>
      </trkpt>
      <trkpt lat="43.6675" lon="3.21575">
        <ele>417</ele>
        <time>2026-05-19T11:36:16Z</time>
      </trkpt>
      <trkpt lat="43.6675" lon="3.21567">
        <ele>418</ele>
        <time>2026-05-19T11:36:21Z</time>
      </trkpt>
      <trkpt lat="43.66751" lon="3.21559">
        <ele>418.8</ele>
        <time>2026-05-19T11:36:26Z</time>
      </trkpt>
      <trkpt lat="43.66753" lon="3.21549">
        <ele>419.9</ele>
        <time>2026-05-19T11:36:31Z</time>
      </trkpt>
      <trkpt lat="43.66753" lon="3.21539">
        <ele>421</ele>
        <time>2026-05-19T11:36:36Z</time>
      </trkpt>
      <trkpt lat="43.66756" lon="3.21529">
        <ele>421.9</ele>
        <time>2026-05-19T11:36:41Z</time>
      </trkpt>
      <trkpt lat="43.66757" lon="3.21519">
        <ele>422.9</ele>
        <time>2026-05-19T11:36:46Z</time>
      </trkpt>
      <trkpt lat="43.66759" lon="3.21509">
        <ele>423.7</ele>
        <time>2026-05-19T11:36:51Z</time>
      </trkpt>
      <trkpt lat="43.66761" lon="3.21499">
        <ele>424.4</ele>
        <time>2026-05-19T11:36:56Z</time>
      </trkpt>
      <trkpt lat="43.66763" lon="3.2149">
        <ele>424.2</ele>
        <time>2026-05-19T11:37:01Z</time>
      </trkpt>
      <trkpt lat="43.66764" lon="3.2148">
        <ele>424.2</ele>
        <time>2026-05-19T11:37:06Z</time>
      </trkpt>
      <trkpt lat="43.66765" lon="3.2147">
        <ele>424.1</ele>
        <time>2026-05-19T11:37:11Z</time>
      </trkpt>
      <trkpt lat="43.66769" lon="3.21459">
        <ele>423.6</ele>
        <time>2026-05-19T11:37:16Z</time>
      </trkpt>
      <trkpt lat="43.66771" lon="3.21448">
        <ele>423.4</ele>
        <time>2026-05-19T11:37:21Z</time>
      </trkpt>
      <trkpt lat="43.66771" lon="3.21441">
        <ele>423.5</ele>
        <time>2026-05-19T11:37:26Z</time>
      </trkpt>
      <trkpt lat="43.66772" lon="3.21433">
        <ele>423.4</ele>
        <time>2026-05-19T11:37:31Z</time>
      </trkpt>
      <trkpt lat="43.66771" lon="3.21426">
        <ele>423.6</ele>
        <time>2026-05-19T11:37:36Z</time>
      </trkpt>
      <trkpt lat="43.66769" lon="3.21426">
        <ele>423.9</ele>
        <time>2026-05-19T11:37:41Z</time>
      </trkpt>
      <trkpt lat="43.66771" lon="3.21429">
        <ele>423.6</ele>
        <time>2026-05-19T11:37:46Z</time>
      </trkpt>
      <trkpt lat="43.66774" lon="3.21438">
        <ele>423.1</ele>
        <time>2026-05-19T11:37:51Z</time>
      </trkpt>
      <trkpt lat="43.66777" lon="3.21446">
        <ele>422.6</ele>
        <time>2026-05-19T11:37:56Z</time>
      </trkpt>
      <trkpt lat="43.66782" lon="3.21451">
        <ele>421.8</ele>
        <time>2026-05-19T11:38:01Z</time>
      </trkpt>
      <trkpt lat="43.66789" lon="3.21454">
        <ele>420.7</ele>
        <time>2026-05-19T11:38:06Z</time>
      </trkpt>
      <trkpt lat="43.66796" lon="3.21458">
        <ele>419.6</ele>
        <time>2026-05-19T11:38:11Z</time>
      </trkpt>
      <trkpt lat="43.66802" lon="3.21461">
        <ele>418.7</ele>
        <time>2026-05-19T11:38:16Z</time>
      </trkpt>
      <trkpt lat="43.66802" lon="3.21461">
        <ele>418.7</ele>
        <time>2026-05-19T11:38:21Z</time>
      </trkpt>
      <trkpt lat="43.66805" lon="3.21463">
        <ele>418.2</ele>
        <time>2026-05-19T11:38:26Z</time>
      </trkpt>
      <trkpt lat="43.66813" lon="3.21467">
        <ele>417</ele>
        <time>2026-05-19T11:38:31Z</time>
      </trkpt>
      <trkpt lat="43.66819" lon="3.2147">
        <ele>416.1</ele>
        <time>2026-05-19T11:38:36Z</time>
      </trkpt>
      <trkpt lat="43.66825" lon="3.21473">
        <ele>415.2</ele>
        <time>2026-05-19T11:38:41Z</time>
      </trkpt>
      <trkpt lat="43.66829" lon="3.21476">
        <ele>414.6</ele>
        <time>2026-05-19T11:38:46Z</time>
      </trkpt>
      <trkpt lat="43.66834" lon="3.2148">
        <ele>414</ele>
        <time>2026-05-19T11:38:51Z</time>
      </trkpt>
      <trkpt lat="43.6684" lon="3.21486">
        <ele>413.6</ele>
        <time>2026-05-19T11:38:56Z</time>
      </trkpt>
      <trkpt lat="43.66845" lon="3.21489">
        <ele>413.4</ele>
        <time>2026-05-19T11:39:01Z</time>
      </trkpt>
      <trkpt lat="43.66848" lon="3.2149">
        <ele>413.2</ele>
        <time>2026-05-19T11:39:06Z</time>
      </trkpt>
      <trkpt lat="43.66851" lon="3.2149">
        <ele>413.1</ele>
        <time>2026-05-19T11:39:11Z</time>
      </trkpt>
      <trkpt lat="43.66856" lon="3.2149">
        <ele>412.8</ele>
        <time>2026-05-19T11:39:16Z</time>
      </trkpt>
      <trkpt lat="43.6686" lon="3.21491">
        <ele>412.6</ele>
        <time>2026-05-19T11:39:21Z</time>
      </trkpt>
      <trkpt lat="43.66866" lon="3.21494">
        <ele>412.3</ele>
        <time>2026-05-19T11:39:26Z</time>
      </trkpt>
      <trkpt lat="43.66871" lon="3.21498">
        <ele>412.2</ele>
        <time>2026-05-19T11:39:31Z</time>
      </trkpt>
      <trkpt lat="43.66874" lon="3.21502">
        <ele>412</ele>
        <time>2026-05-19T11:39:36Z</time>
      </trkpt>
      <trkpt lat="43.66876" lon="3.21507">
        <ele>411.7</ele>
        <time>2026-05-19T11:39:41Z</time>
      </trkpt>
      <trkpt lat="43.66879" lon="3.2151">
        <ele>411.5</ele>
        <time>2026-05-19T11:39:46Z</time>
      </trkpt>
      <trkpt lat="43.6688" lon="3.21516">
        <ele>411.3</ele>
        <time>2026-05-19T11:39:51Z</time>
      </trkpt>
      <trkpt lat="43.66882" lon="3.2152">
        <ele>411</ele>
        <time>2026-05-19T11:39:56Z</time>
      </trkpt>
      <trkpt lat="43.66885" lon="3.21524">
        <ele>410.8</ele>
        <time>2026-05-19T11:40:01Z</time>
      </trkpt>
      <trkpt lat="43.66887" lon="3.21528">
        <ele>410.5</ele>
        <time>2026-05-19T11:40:06Z</time>
      </trkpt>
      <trkpt lat="43.66889" lon="3.21534">
        <ele>410.2</ele>
        <time>2026-05-19T11:40:11Z</time>
      </trkpt>
      <trkpt lat="43.66891" lon="3.2154">
        <ele>409.9</ele>
        <time>2026-05-19T11:40:16Z</time>
      </trkpt>
      <trkpt lat="43.66895" lon="3.21544">
        <ele>409.6</ele>
        <time>2026-05-19T11:40:21Z</time>
      </trkpt>
      <trkpt lat="43.66899" lon="3.21547">
        <ele>409.3</ele>
        <time>2026-05-19T11:40:26Z</time>
      </trkpt>
      <trkpt lat="43.66903" lon="3.21548">
        <ele>409</ele>
        <time>2026-05-19T11:40:31Z</time>
      </trkpt>
      <trkpt lat="43.66909" lon="3.21549">
        <ele>408.7</ele>
        <time>2026-05-19T11:40:36Z</time>
      </trkpt>
      <trkpt lat="43.66914" lon="3.2155">
        <ele>408.3</ele>
        <time>2026-05-19T11:40:41Z</time>
      </trkpt>
      <trkpt lat="43.66918" lon="3.21553">
        <ele>408.3</ele>
        <time>2026-05-19T11:40:46Z</time>
      </trkpt>
      <trkpt lat="43.66923" lon="3.21557">
        <ele>408.9</ele>
        <time>2026-05-19T11:40:51Z</time>
      </trkpt>
      <trkpt lat="43.66927" lon="3.21561">
        <ele>409.3</ele>
        <time>2026-05-19T11:40:56Z</time>
      </trkpt>
      <trkpt lat="43.6693" lon="3.21565">
        <ele>409.7</ele>
        <time>2026-05-19T11:41:01Z</time>
      </trkpt>
      <trkpt lat="43.66935" lon="3.21569">
        <ele>410.3</ele>
        <time>2026-05-19T11:41:06Z</time>
      </trkpt>
      <trkpt lat="43.6694" lon="3.21573">
        <ele>410.9</ele>
        <time>2026-05-19T11:41:11Z</time>
      </trkpt>
      <trkpt lat="43.66945" lon="3.21574">
        <ele>411.7</ele>
        <time>2026-05-19T11:41:16Z</time>
      </trkpt>
      <trkpt lat="43.66949" lon="3.21572">
        <ele>412.3</ele>
        <time>2026-05-19T11:41:21Z</time>
      </trkpt>
      <trkpt lat="43.66953" lon="3.21571">
        <ele>413</ele>
        <time>2026-05-19T11:41:26Z</time>
      </trkpt>
      <trkpt lat="43.66957" lon="3.21571">
        <ele>413.6</ele>
        <time>2026-05-19T11:41:31Z</time>
      </trkpt>
      <trkpt lat="43.66961" lon="3.21572">
        <ele>414.2</ele>
        <time>2026-05-19T11:41:36Z</time>
      </trkpt>
      <trkpt lat="43.66962" lon="3.21571">
        <ele>414.4</ele>
        <time>2026-05-19T11:41:41Z</time>
      </trkpt>
      <trkpt lat="43.66963" lon="3.2157">
        <ele>414.5</ele>
        <time>2026-05-19T11:41:46Z</time>
      </trkpt>
      <trkpt lat="43.66963" lon="3.2157">
        <ele>414.5</ele>
        <time>2026-05-19T11:41:51Z</time>
      </trkpt>
      <trkpt lat="43.66964" lon="3.21565">
        <ele>414.8</ele>
        <time>2026-05-19T11:41:56Z</time>
      </trkpt>
      <trkpt lat="43.66961" lon="3.21561">
        <ele>414.4</ele>
        <time>2026-05-19T11:42:01Z</time>
      </trkpt>
      <trkpt lat="43.66958" lon="3.21555">
        <ele>414.1</ele>
        <time>2026-05-19T11:42:06Z</time>
      </trkpt>
      <trkpt lat="43.66956" lon="3.21548">
        <ele>414</ele>
        <time>2026-05-19T11:42:11Z</time>
      </trkpt>
      <trkpt lat="43.66954" lon="3.21541">
        <ele>413.9</ele>
        <time>2026-05-19T11:42:16Z</time>
      </trkpt>
      <trkpt lat="43.66952" lon="3.21533">
        <ele>413.8</ele>
        <time>2026-05-19T11:42:21Z</time>
      </trkpt>
      <trkpt lat="43.6695" lon="3.21525">
        <ele>413.7</ele>
        <time>2026-05-19T11:42:26Z</time>
      </trkpt>
      <trkpt lat="43.6695" lon="3.21518">
        <ele>413.9</ele>
        <time>2026-05-19T11:42:31Z</time>
      </trkpt>
      <trkpt lat="43.66947" lon="3.21512">
        <ele>413.7</ele>
        <time>2026-05-19T11:42:36Z</time>
      </trkpt>
      <trkpt lat="43.66947" lon="3.21505">
        <ele>413.9</ele>
        <time>2026-05-19T11:42:41Z</time>
      </trkpt>
      <trkpt lat="43.66946" lon="3.21497">
        <ele>413.8</ele>
        <time>2026-05-19T11:42:46Z</time>
      </trkpt>
      <trkpt lat="43.66945" lon="3.21489">
        <ele>413.3</ele>
        <time>2026-05-19T11:42:51Z</time>
      </trkpt>
      <trkpt lat="43.66945" lon="3.2148">
        <ele>413</ele>
        <time>2026-05-19T11:42:56Z</time>
      </trkpt>
      <trkpt lat="43.66944" lon="3.21472">
        <ele>412.6</ele>
        <time>2026-05-19T11:43:01Z</time>
      </trkpt>
      <trkpt lat="43.66946" lon="3.21464">
        <ele>412.6</ele>
        <time>2026-05-19T11:43:06Z</time>
      </trkpt>
      <trkpt lat="43.66945" lon="3.2146">
        <ele>412.3</ele>
        <time>2026-05-19T11:43:11Z</time>
      </trkpt>
      <trkpt lat="43.66944" lon="3.21456">
        <ele>412</ele>
        <time>2026-05-19T11:43:16Z</time>
      </trkpt>
      <trkpt lat="43.66944" lon="3.21456">
        <ele>412</ele>
        <time>2026-05-19T11:43:21Z</time>
      </trkpt>
      <trkpt lat="43.66943" lon="3.21447">
        <ele>411.6</ele>
        <time>2026-05-19T11:43:26Z</time>
      </trkpt>
      <trkpt lat="43.66944" lon="3.21442">
        <ele>411.5</ele>
        <time>2026-05-19T11:43:31Z</time>
      </trkpt>
      <trkpt lat="43.66945" lon="3.21435">
        <ele>411.4</ele>
        <time>2026-05-19T11:43:36Z</time>
      </trkpt>
      <trkpt lat="43.66945" lon="3.21429">
        <ele>411.2</ele>
        <time>2026-05-19T11:43:41Z</time>
      </trkpt>
      <trkpt lat="43.66945" lon="3.21422">
        <ele>410.9</ele>
        <time>2026-05-19T11:43:46Z</time>
      </trkpt>
      <trkpt lat="43.66945" lon="3.21415">
        <ele>410.7</ele>
        <time>2026-05-19T11:43:51Z</time>
      </trkpt>
      <trkpt lat="43.66945" lon="3.21407">
        <ele>410.7</ele>
        <time>2026-05-19T11:43:56Z</time>
      </trkpt>
      <trkpt lat="43.66945" lon="3.21398">
        <ele>410.7</ele>
        <time>2026-05-19T11:44:01Z</time>
      </trkpt>
      <trkpt lat="43.66945" lon="3.21389">
        <ele>410.7</ele>
        <time>2026-05-19T11:44:06Z</time>
      </trkpt>
      <trkpt lat="43.66946" lon="3.21381">
        <ele>410.9</ele>
        <time>2026-05-19T11:44:11Z</time>
      </trkpt>
      <trkpt lat="43.66947" lon="3.21373">
        <ele>411.1</ele>
        <time>2026-05-19T11:44:16Z</time>
      </trkpt>
      <trkpt lat="43.66946" lon="3.21366">
        <ele>410.9</ele>
        <time>2026-05-19T11:44:21Z</time>
      </trkpt>
      <trkpt lat="43.66946" lon="3.21358">
        <ele>410.9</ele>
        <time>2026-05-19T11:44:26Z</time>
      </trkpt>
      <trkpt lat="43.66945" lon="3.21349">
        <ele>410.8</ele>
        <time>2026-05-19T11:44:31Z</time>
      </trkpt>
      <trkpt lat="43.66945" lon="3.21339">
        <ele>410.8</ele>
        <time>2026-05-19T11:44:36Z</time>
      </trkpt>
      <trkpt lat="43.66946" lon="3.21331">
        <ele>410.9</ele>
        <time>2026-05-19T11:44:41Z</time>
      </trkpt>
      <trkpt lat="43.66947" lon="3.21323">
        <ele>411.1</ele>
        <time>2026-05-19T11:44:46Z</time>
      </trkpt>
      <trkpt lat="43.66946" lon="3.21314">
        <ele>410.9</ele>
        <time>2026-05-19T11:44:51Z</time>
      </trkpt>
      <trkpt lat="43.66946" lon="3.21305">
        <ele>410.9</ele>
        <time>2026-05-19T11:44:56Z</time>
      </trkpt>
      <trkpt lat="43.66946" lon="3.21299">
        <ele>411</ele>
        <time>2026-05-19T11:45:01Z</time>
      </trkpt>
      <trkpt lat="43.66945" lon="3.21294">
        <ele>410.8</ele>
        <time>2026-05-19T11:45:06Z</time>
      </trkpt>
      <trkpt lat="43.66945" lon="3.21288">
        <ele>410.8</ele>
        <time>2026-05-19T11:45:11Z</time>
      </trkpt>
      <trkpt lat="43.66945" lon="3.21286">
        <ele>410.8</ele>
        <time>2026-05-19T11:45:16Z</time>
      </trkpt>
      <trkpt lat="43.66945" lon="3.21286">
        <ele>410.8</ele>
        <time>2026-05-19T11:45:21Z</time>
      </trkpt>
      <trkpt lat="43.66945" lon="3.2128">
        <ele>410.8</ele>
        <time>2026-05-19T11:45:26Z</time>
      </trkpt>
      <trkpt lat="43.66944" lon="3.21274">
        <ele>410.6</ele>
        <time>2026-05-19T11:45:31Z</time>
      </trkpt>
      <trkpt lat="43.66943" lon="3.21268">
        <ele>410.4</ele>
        <time>2026-05-19T11:45:36Z</time>
      </trkpt>
      <trkpt lat="43.66942" lon="3.21262">
        <ele>410.2</ele>
        <time>2026-05-19T11:45:41Z</time>
      </trkpt>
      <trkpt lat="43.66941" lon="3.21254">
        <ele>410</ele>
        <time>2026-05-19T11:45:46Z</time>
      </trkpt>
      <trkpt lat="43.6694" lon="3.21246">
        <ele>409.6</ele>
        <time>2026-05-19T11:45:51Z</time>
      </trkpt>
      <trkpt lat="43.6694" lon="3.21236">
        <ele>409.3</ele>
        <time>2026-05-19T11:45:56Z</time>
      </trkpt>
      <trkpt lat="43.66939" lon="3.21228">
        <ele>408.8</ele>
        <time>2026-05-19T11:46:01Z</time>
      </trkpt>
      <trkpt lat="43.6694" lon="3.21219">
        <ele>408.7</ele>
        <time>2026-05-19T11:46:06Z</time>
      </trkpt>
      <trkpt lat="43.66942" lon="3.21211">
        <ele>408.9</ele>
        <time>2026-05-19T11:46:11Z</time>
      </trkpt>
      <trkpt lat="43.66942" lon="3.21207">
        <ele>408.8</ele>
        <time>2026-05-19T11:46:16Z</time>
      </trkpt>
      <trkpt lat="43.66941" lon="3.21206">
        <ele>408.5</ele>
        <time>2026-05-19T11:46:21Z</time>
      </trkpt>
      <trkpt lat="43.66941" lon="3.21206">
        <ele>408.5</ele>
        <time>2026-05-19T11:46:26Z</time>
      </trkpt>
      <trkpt lat="43.66941" lon="3.21206">
        <ele>408.5</ele>
        <time>2026-05-19T11:46:31Z</time>
      </trkpt>
      <trkpt lat="43.66941" lon="3.21206">
        <ele>408.5</ele>
        <time>2026-05-19T11:46:36Z</time>
      </trkpt>
      <trkpt lat="43.66941" lon="3.21206">
        <ele>408.5</ele>
        <time>2026-05-19T11:46:41Z</time>
      </trkpt>
      <trkpt lat="43.66941" lon="3.21206">
        <ele>408.5</ele>
        <time>2026-05-19T11:46:46Z</time>
      </trkpt>
      <trkpt lat="43.66941" lon="3.21206">
        <ele>408.5</ele>
        <time>2026-05-19T11:46:51Z</time>
      </trkpt>
      <trkpt lat="43.66941" lon="3.21206">
        <ele>408.5</ele>
        <time>2026-05-19T11:46:56Z</time>
      </trkpt>
      <trkpt lat="43.66946" lon="3.21191">
        <ele>409.1</ele>
        <time>2026-05-19T11:47:01Z</time>
      </trkpt>
      <trkpt lat="43.66946" lon="3.21191">
        <ele>409.1</ele>
        <time>2026-05-19T11:47:06Z</time>
      </trkpt>
      <trkpt lat="43.66945" lon="3.21186">
        <ele>408.7</ele>
        <time>2026-05-19T11:47:11Z</time>
      </trkpt>
      <trkpt lat="43.66945" lon="3.21175">
        <ele>408.4</ele>
        <time>2026-05-19T11:47:16Z</time>
      </trkpt>
      <trkpt lat="43.66946" lon="3.21164">
        <ele>408.2</ele>
        <time>2026-05-19T11:47:21Z</time>
      </trkpt>
      <trkpt lat="43.66947" lon="3.21156">
        <ele>407.9</ele>
        <time>2026-05-19T11:47:26Z</time>
      </trkpt>
      <trkpt lat="43.66945" lon="3.21147">
        <ele>406.9</ele>
        <time>2026-05-19T11:47:31Z</time>
      </trkpt>
      <trkpt lat="43.66946" lon="3.21139">
        <ele>406.6</ele>
        <time>2026-05-19T11:47:36Z</time>
      </trkpt>
      <trkpt lat="43.66946" lon="3.2113">
        <ele>406</ele>
        <time>2026-05-19T11:47:41Z</time>
      </trkpt>
      <trkpt lat="43.66946" lon="3.21122">
        <ele>405.5</ele>
        <time>2026-05-19T11:47:46Z</time>
      </trkpt>
      <trkpt lat="43.66945" lon="3.21113">
        <ele>404.7</ele>
        <time>2026-05-19T11:47:51Z</time>
      </trkpt>
      <trkpt lat="43.66945" lon="3.21105">
        <ele>404.2</ele>
        <time>2026-05-19T11:47:56Z</time>
      </trkpt>
      <trkpt lat="43.66945" lon="3.21096">
        <ele>403.6</ele>
        <time>2026-05-19T11:48:01Z</time>
      </trkpt>
      <trkpt lat="43.66945" lon="3.21088">
        <ele>403.1</ele>
        <time>2026-05-19T11:48:06Z</time>
      </trkpt>
      <trkpt lat="43.66947" lon="3.21075">
        <ele>403.3</ele>
        <time>2026-05-19T11:48:11Z</time>
      </trkpt>
      <trkpt lat="43.66949" lon="3.21066">
        <ele>403.7</ele>
        <time>2026-05-19T11:48:16Z</time>
      </trkpt>
      <trkpt lat="43.66949" lon="3.21056">
        <ele>403.6</ele>
        <time>2026-05-19T11:48:21Z</time>
      </trkpt>
      <trkpt lat="43.66952" lon="3.21051">
        <ele>404.4</ele>
        <time>2026-05-19T11:48:26Z</time>
      </trkpt>
      <trkpt lat="43.66953" lon="3.21043">
        <ele>404.5</ele>
        <time>2026-05-19T11:48:31Z</time>
      </trkpt>
      <trkpt lat="43.66953" lon="3.21034">
        <ele>404.4</ele>
        <time>2026-05-19T11:48:36Z</time>
      </trkpt>
      <trkpt lat="43.66951" lon="3.21026">
        <ele>403.8</ele>
        <time>2026-05-19T11:48:41Z</time>
      </trkpt>
      <trkpt lat="43.6695" lon="3.2102">
        <ele>403.4</ele>
        <time>2026-05-19T11:48:46Z</time>
      </trkpt>
      <trkpt lat="43.66952" lon="3.21009">
        <ele>403.9</ele>
        <time>2026-05-19T11:48:51Z</time>
      </trkpt>
      <trkpt lat="43.66953" lon="3.21003">
        <ele>404.1</ele>
        <time>2026-05-19T11:48:56Z</time>
      </trkpt>
      <trkpt lat="43.66952" lon="3.20993">
        <ele>404.7</ele>
        <time>2026-05-19T11:49:01Z</time>
      </trkpt>
      <trkpt lat="43.66951" lon="3.20986">
        <ele>405.4</ele>
        <time>2026-05-19T11:49:06Z</time>
      </trkpt>
      <trkpt lat="43.66951" lon="3.20977">
        <ele>406.7</ele>
        <time>2026-05-19T11:49:11Z</time>
      </trkpt>
      <trkpt lat="43.6695" lon="3.20969">
        <ele>407.6</ele>
        <time>2026-05-19T11:49:16Z</time>
      </trkpt>
      <trkpt lat="43.66952" lon="3.20966">
        <ele>408.5</ele>
        <time>2026-05-19T11:49:21Z</time>
      </trkpt>
      <trkpt lat="43.66954" lon="3.20968">
        <ele>408.7</ele>
        <time>2026-05-19T11:49:26Z</time>
      </trkpt>
      <trkpt lat="43.66954" lon="3.20968">
        <ele>408.7</ele>
        <time>2026-05-19T11:49:31Z</time>
      </trkpt>
      <trkpt lat="43.66954" lon="3.20968">
        <ele>408.7</ele>
        <time>2026-05-19T11:49:36Z</time>
      </trkpt>
      <trkpt lat="43.66951" lon="3.20963">
        <ele>408.7</ele>
        <time>2026-05-19T11:49:41Z</time>
      </trkpt>
      <trkpt lat="43.66946" lon="3.20955">
        <ele>408.7</ele>
        <time>2026-05-19T11:49:46Z</time>
      </trkpt>
      <trkpt lat="43.6694" lon="3.20951">
        <ele>407.9</ele>
        <time>2026-05-19T11:49:51Z</time>
      </trkpt>
      <trkpt lat="43.66935" lon="3.20945">
        <ele>407.8</ele>
        <time>2026-05-19T11:49:56Z</time>
      </trkpt>
      <trkpt lat="43.6693" lon="3.20938">
        <ele>407.9</ele>
        <time>2026-05-19T11:50:01Z</time>
      </trkpt>
      <trkpt lat="43.66927" lon="3.20931">
        <ele>408.5</ele>
        <time>2026-05-19T11:50:06Z</time>
      </trkpt>
      <trkpt lat="43.66927" lon="3.20927">
        <ele>409.1</ele>
        <time>2026-05-19T11:50:11Z</time>
      </trkpt>
      <trkpt lat="43.66929" lon="3.20924">
        <ele>410</ele>
        <time>2026-05-19T11:50:16Z</time>
      </trkpt>
      <trkpt lat="43.66927" lon="3.20917">
        <ele>410.8</ele>
        <time>2026-05-19T11:50:21Z</time>
      </trkpt>
      <trkpt lat="43.66927" lon="3.20912">
        <ele>411.6</ele>
        <time>2026-05-19T11:50:26Z</time>
      </trkpt>
      <trkpt lat="43.66929" lon="3.2091">
        <ele>412.3</ele>
        <time>2026-05-19T11:50:31Z</time>
      </trkpt>
      <trkpt lat="43.6693" lon="3.2091">
        <ele>412.5</ele>
        <time>2026-05-19T11:50:36Z</time>
      </trkpt>
      <trkpt lat="43.66929" lon="3.20916">
        <ele>411.3</ele>
        <time>2026-05-19T11:50:41Z</time>
      </trkpt>
      <trkpt lat="43.66924" lon="3.2092">
        <ele>409.7</ele>
        <time>2026-05-19T11:50:46Z</time>
      </trkpt>
      <trkpt lat="43.66917" lon="3.20918">
        <ele>408.8</ele>
        <time>2026-05-19T11:50:51Z</time>
      </trkpt>
      <trkpt lat="43.66914" lon="3.20917">
        <ele>408.2</ele>
        <time>2026-05-19T11:50:56Z</time>
      </trkpt>
      <trkpt lat="43.66909" lon="3.20914">
        <ele>407.3</ele>
        <time>2026-05-19T11:51:01Z</time>
      </trkpt>
      <trkpt lat="43.66905" lon="3.20907">
        <ele>407.4</ele>
        <time>2026-05-19T11:51:06Z</time>
      </trkpt>
      <trkpt lat="43.66901" lon="3.20904">
        <ele>406.9</ele>
        <time>2026-05-19T11:51:11Z</time>
      </trkpt>
      <trkpt lat="43.66897" lon="3.209">
        <ele>406.6</ele>
        <time>2026-05-19T11:51:16Z</time>
      </trkpt>
      <trkpt lat="43.66897" lon="3.209">
        <ele>406.6</ele>
        <time>2026-05-19T11:51:21Z</time>
      </trkpt>
      <trkpt lat="43.66897" lon="3.209">
        <ele>406.6</ele>
        <time>2026-05-19T11:51:26Z</time>
      </trkpt>
      <trkpt lat="43.66897" lon="3.209">
        <ele>406.6</ele>
        <time>2026-05-19T11:51:31Z</time>
      </trkpt>
      <trkpt lat="43.66897" lon="3.209">
        <ele>406.6</ele>
        <time>2026-05-19T11:51:36Z</time>
      </trkpt>
      <trkpt lat="43.66897" lon="3.209">
        <ele>406.6</ele>
        <time>2026-05-19T11:51:41Z</time>
      </trkpt>
      <trkpt lat="43.66897" lon="3.209">
        <ele>406.6</ele>
        <time>2026-05-19T11:51:46Z</time>
      </trkpt>
      <trkpt lat="43.66897" lon="3.209">
        <ele>406.6</ele>
        <time>2026-05-19T11:51:51Z</time>
      </trkpt>
      <trkpt lat="43.66897" lon="3.209">
        <ele>406.6</ele>
        <time>2026-05-19T11:51:56Z</time>
      </trkpt>
      <trkpt lat="43.66897" lon="3.209">
        <ele>406.6</ele>
        <time>2026-05-19T11:52:01Z</time>
      </trkpt>
      <trkpt lat="43.66897" lon="3.209">
        <ele>406.6</ele>
        <time>2026-05-19T11:52:06Z</time>
      </trkpt>
      <trkpt lat="43.66897" lon="3.209">
        <ele>406.6</ele>
        <time>2026-05-19T11:52:11Z</time>
      </trkpt>
      <trkpt lat="43.66897" lon="3.20894">
        <ele>407.7</ele>
        <time>2026-05-19T11:52:16Z</time>
      </trkpt>
      <trkpt lat="43.66892" lon="3.20888">
        <ele>407.6</ele>
        <time>2026-05-19T11:52:21Z</time>
      </trkpt>
      <trkpt lat="43.66888" lon="3.20885">
        <ele>407.2</ele>
        <time>2026-05-19T11:52:26Z</time>
      </trkpt>
      <trkpt lat="43.66888" lon="3.20887">
        <ele>406.8</ele>
        <time>2026-05-19T11:52:31Z</time>
      </trkpt>
      <trkpt lat="43.66888" lon="3.20887">
        <ele>406.8</ele>
        <time>2026-05-19T11:52:36Z</time>
      </trkpt>
      <trkpt lat="43.66882" lon="3.20881">
        <ele>406.6</ele>
        <time>2026-05-19T11:52:41Z</time>
      </trkpt>
      <trkpt lat="43.66878" lon="3.20878">
        <ele>406.3</ele>
        <time>2026-05-19T11:52:46Z</time>
      </trkpt>
      <trkpt lat="43.66875" lon="3.20878">
        <ele>405.6</ele>
        <time>2026-05-19T11:52:51Z</time>
      </trkpt>
      <trkpt lat="43.66873" lon="3.20878">
        <ele>405.2</ele>
        <time>2026-05-19T11:52:56Z</time>
      </trkpt>
      <trkpt lat="43.66873" lon="3.20878">
        <ele>405.2</ele>
        <time>2026-05-19T11:53:01Z</time>
      </trkpt>
      <trkpt lat="43.66873" lon="3.20878">
        <ele>405.2</ele>
        <time>2026-05-19T11:53:06Z</time>
      </trkpt>
      <trkpt lat="43.66873" lon="3.20878">
        <ele>405.2</ele>
        <time>2026-05-19T11:53:11Z</time>
      </trkpt>
      <trkpt lat="43.66873" lon="3.20878">
        <ele>405.2</ele>
        <time>2026-05-19T11:53:16Z</time>
      </trkpt>
      <trkpt lat="43.66873" lon="3.20878">
        <ele>405.2</ele>
        <time>2026-05-19T11:53:21Z</time>
      </trkpt>
      <trkpt lat="43.66873" lon="3.20878">
        <ele>405.2</ele>
        <time>2026-05-19T11:53:26Z</time>
      </trkpt>
      <trkpt lat="43.66873" lon="3.20878">
        <ele>405.2</ele>
        <time>2026-05-19T11:53:31Z</time>
      </trkpt>
      <trkpt lat="43.66873" lon="3.20878">
        <ele>405.2</ele>
        <time>2026-05-19T11:53:36Z</time>
      </trkpt>
      <trkpt lat="43.66873" lon="3.20878">
        <ele>405.2</ele>
        <time>2026-05-19T11:53:41Z</time>
      </trkpt>
      <trkpt lat="43.66873" lon="3.20878">
        <ele>405.2</ele>
        <time>2026-05-19T11:53:46Z</time>
      </trkpt>
      <trkpt lat="43.66873" lon="3.20878">
        <ele>405.2</ele>
        <time>2026-05-19T11:53:51Z</time>
      </trkpt>
      <trkpt lat="43.66873" lon="3.20878">
        <ele>405.2</ele>
        <time>2026-05-19T11:53:56Z</time>
      </trkpt>
      <trkpt lat="43.66873" lon="3.20878">
        <ele>405.2</ele>
        <time>2026-05-19T11:54:01Z</time>
      </trkpt>
      <trkpt lat="43.66873" lon="3.20878">
        <ele>405.2</ele>
        <time>2026-05-19T11:54:06Z</time>
      </trkpt>
      <trkpt lat="43.66872" lon="3.20873">
        <ele>406</ele>
        <time>2026-05-19T11:54:11Z</time>
      </trkpt>
      <trkpt lat="43.66867" lon="3.20867">
        <ele>406.2</ele>
        <time>2026-05-19T11:54:16Z</time>
      </trkpt>
      <trkpt lat="43.66863" lon="3.20859">
        <ele>407.2</ele>
        <time>2026-05-19T11:54:21Z</time>
      </trkpt>
      <trkpt lat="43.66859" lon="3.20855">
        <ele>407.3</ele>
        <time>2026-05-19T11:54:26Z</time>
      </trkpt>
      <trkpt lat="43.66856" lon="3.20848">
        <ele>408.4</ele>
        <time>2026-05-19T11:54:31Z</time>
      </trkpt>
      <trkpt lat="43.66852" lon="3.20842">
        <ele>409.1</ele>
        <time>2026-05-19T11:54:36Z</time>
      </trkpt>
      <trkpt lat="43.6685" lon="3.20834">
        <ele>410.6</ele>
        <time>2026-05-19T11:54:41Z</time>
      </trkpt>
      <trkpt lat="43.66847" lon="3.20826">
        <ele>410.9</ele>
        <time>2026-05-19T11:54:46Z</time>
      </trkpt>
      <trkpt lat="43.66843" lon="3.20818">
        <ele>411</ele>
        <time>2026-05-19T11:54:51Z</time>
      </trkpt>
      <trkpt lat="43.66843" lon="3.20813">
        <ele>411.4</ele>
        <time>2026-05-19T11:54:56Z</time>
      </trkpt>
      <trkpt lat="43.66841" lon="3.20809">
        <ele>411.4</ele>
        <time>2026-05-19T11:55:01Z</time>
      </trkpt>
      <trkpt lat="43.66834" lon="3.20804">
        <ele>410.6</ele>
        <time>2026-05-19T11:55:06Z</time>
      </trkpt>
      <trkpt lat="43.66828" lon="3.20801">
        <ele>409.2</ele>
        <time>2026-05-19T11:55:11Z</time>
      </trkpt>
      <trkpt lat="43.66823" lon="3.20796">
        <ele>408.2</ele>
        <time>2026-05-19T11:55:16Z</time>
      </trkpt>
      <trkpt lat="43.66821" lon="3.20794">
        <ele>407.8</ele>
        <time>2026-05-19T11:55:21Z</time>
      </trkpt>
      <trkpt lat="43.6682" lon="3.20794">
        <ele>407.5</ele>
        <time>2026-05-19T11:55:26Z</time>
      </trkpt>
      <trkpt lat="43.6682" lon="3.20794">
        <ele>407.5</ele>
        <time>2026-05-19T11:55:31Z</time>
      </trkpt>
      <trkpt lat="43.6682" lon="3.20794">
        <ele>407.5</ele>
        <time>2026-05-19T11:55:36Z</time>
      </trkpt>
      <trkpt lat="43.6682" lon="3.20794">
        <ele>407.5</ele>
        <time>2026-05-19T11:55:41Z</time>
      </trkpt>
      <trkpt lat="43.6682" lon="3.20794">
        <ele>407.5</ele>
        <time>2026-05-19T11:55:46Z</time>
      </trkpt>
      <trkpt lat="43.66817" lon="3.20786">
        <ele>407.5</ele>
        <time>2026-05-19T11:55:51Z</time>
      </trkpt>
      <trkpt lat="43.66813" lon="3.20778">
        <ele>407.2</ele>
        <time>2026-05-19T11:55:56Z</time>
      </trkpt>
      <trkpt lat="43.66809" lon="3.20772">
        <ele>406.8</ele>
        <time>2026-05-19T11:56:01Z</time>
      </trkpt>
      <trkpt lat="43.66804" lon="3.20765">
        <ele>406.3</ele>
        <time>2026-05-19T11:56:06Z</time>
      </trkpt>
      <trkpt lat="43.66801" lon="3.20758">
        <ele>406.3</ele>
        <time>2026-05-19T11:56:11Z</time>
      </trkpt>
      <trkpt lat="43.66797" lon="3.2075">
        <ele>406.3</ele>
        <time>2026-05-19T11:56:16Z</time>
      </trkpt>
      <trkpt lat="43.66794" lon="3.20741">
        <ele>406.6</ele>
        <time>2026-05-19T11:56:21Z</time>
      </trkpt>
      <trkpt lat="43.66791" lon="3.20734">
        <ele>406.8</ele>
        <time>2026-05-19T11:56:26Z</time>
      </trkpt>
      <trkpt lat="43.66788" lon="3.20727">
        <ele>406.9</ele>
        <time>2026-05-19T11:56:31Z</time>
      </trkpt>
      <trkpt lat="43.66785" lon="3.2072">
        <ele>407.1</ele>
        <time>2026-05-19T11:56:36Z</time>
      </trkpt>
      <trkpt lat="43.66784" lon="3.20713">
        <ele>407.8</ele>
        <time>2026-05-19T11:56:41Z</time>
      </trkpt>
      <trkpt lat="43.66781" lon="3.20705">
        <ele>408.1</ele>
        <time>2026-05-19T11:56:46Z</time>
      </trkpt>
      <trkpt lat="43.66778" lon="3.20696">
        <ele>408.6</ele>
        <time>2026-05-19T11:56:51Z</time>
      </trkpt>
      <trkpt lat="43.66776" lon="3.20689">
        <ele>409.1</ele>
        <time>2026-05-19T11:56:56Z</time>
      </trkpt>
      <trkpt lat="43.66773" lon="3.2068">
        <ele>409.7</ele>
        <time>2026-05-19T11:57:01Z</time>
      </trkpt>
      <trkpt lat="43.66772" lon="3.20669">
        <ele>410.9</ele>
        <time>2026-05-19T11:57:06Z</time>
      </trkpt>
      <trkpt lat="43.6677" lon="3.2066">
        <ele>411.1</ele>
        <time>2026-05-19T11:57:11Z</time>
      </trkpt>
      <trkpt lat="43.66767" lon="3.20651">
        <ele>410.8</ele>
        <time>2026-05-19T11:57:16Z</time>
      </trkpt>
      <trkpt lat="43.66764" lon="3.2064">
        <ele>410.6</ele>
        <time>2026-05-19T11:57:21Z</time>
      </trkpt>
      <trkpt lat="43.66761" lon="3.20631">
        <ele>410.4</ele>
        <time>2026-05-19T11:57:26Z</time>
      </trkpt>
      <trkpt lat="43.66761" lon="3.20623">
        <ele>410.7</ele>
        <time>2026-05-19T11:57:31Z</time>
      </trkpt>
      <trkpt lat="43.66761" lon="3.20621">
        <ele>410.8</ele>
        <time>2026-05-19T11:57:36Z</time>
      </trkpt>
      <trkpt lat="43.66761" lon="3.20619">
        <ele>410.8</ele>
        <time>2026-05-19T11:57:41Z</time>
      </trkpt>
      <trkpt lat="43.66761" lon="3.20619">
        <ele>410.8</ele>
        <time>2026-05-19T11:57:46Z</time>
      </trkpt>
      <trkpt lat="43.66761" lon="3.20619">
        <ele>410.8</ele>
        <time>2026-05-19T11:57:51Z</time>
      </trkpt>
      <trkpt lat="43.66761" lon="3.20619">
        <ele>410.8</ele>
        <time>2026-05-19T11:57:56Z</time>
      </trkpt>
      <trkpt lat="43.66761" lon="3.20619">
        <ele>410.8</ele>
        <time>2026-05-19T11:58:01Z</time>
      </trkpt>
      <trkpt lat="43.66757" lon="3.20609">
        <ele>410.4</ele>
        <time>2026-05-19T11:58:06Z</time>
      </trkpt>
      <trkpt lat="43.66756" lon="3.20601">
        <ele>410.5</ele>
        <time>2026-05-19T11:58:11Z</time>
      </trkpt>
      <trkpt lat="43.66756" lon="3.20592">
        <ele>410.8</ele>
        <time>2026-05-19T11:58:16Z</time>
      </trkpt>
      <trkpt lat="43.66755" lon="3.20584">
        <ele>410.9</ele>
        <time>2026-05-19T11:58:21Z</time>
      </trkpt>
      <trkpt lat="43.66753" lon="3.20573">
        <ele>410.3</ele>
        <time>2026-05-19T11:58:26Z</time>
      </trkpt>
      <trkpt lat="43.66752" lon="3.20565">
        <ele>409.9</ele>
        <time>2026-05-19T11:58:31Z</time>
      </trkpt>
      <trkpt lat="43.66751" lon="3.20557">
        <ele>409.6</ele>
        <time>2026-05-19T11:58:36Z</time>
      </trkpt>
      <trkpt lat="43.6675" lon="3.20547">
        <ele>409.1</ele>
        <time>2026-05-19T11:58:41Z</time>
      </trkpt>
      <trkpt lat="43.66749" lon="3.20536">
        <ele>408.4</ele>
        <time>2026-05-19T11:58:46Z</time>
      </trkpt>
      <trkpt lat="43.66748" lon="3.20526">
        <ele>407.8</ele>
        <time>2026-05-19T11:58:51Z</time>
      </trkpt>
      <trkpt lat="43.66748" lon="3.20516">
        <ele>407.5</ele>
        <time>2026-05-19T11:58:56Z</time>
      </trkpt>
      <trkpt lat="43.66747" lon="3.20506">
        <ele>406.8</ele>
        <time>2026-05-19T11:59:01Z</time>
      </trkpt>
      <trkpt lat="43.66746" lon="3.20499">
        <ele>406.2</ele>
        <time>2026-05-19T11:59:06Z</time>
      </trkpt>
      <trkpt lat="43.66745" lon="3.20496">
        <ele>405.7</ele>
        <time>2026-05-19T11:59:11Z</time>
      </trkpt>
      <trkpt lat="43.66745" lon="3.20493">
        <ele>405.6</ele>
        <time>2026-05-19T11:59:16Z</time>
      </trkpt>
      <trkpt lat="43.66745" lon="3.20493">
        <ele>405.6</ele>
        <time>2026-05-19T11:59:21Z</time>
      </trkpt>
      <trkpt lat="43.66744" lon="3.20486">
        <ele>404.9</ele>
        <time>2026-05-19T11:59:26Z</time>
      </trkpt>
      <trkpt lat="43.66742" lon="3.20478">
        <ele>403.7</ele>
        <time>2026-05-19T11:59:31Z</time>
      </trkpt>
      <trkpt lat="43.66741" lon="3.2047">
        <ele>403</ele>
        <time>2026-05-19T11:59:36Z</time>
      </trkpt>
      <trkpt lat="43.6674" lon="3.20462">
        <ele>402.2</ele>
        <time>2026-05-19T11:59:41Z</time>
      </trkpt>
      <trkpt lat="43.6674" lon="3.20453">
        <ele>401.9</ele>
        <time>2026-05-19T11:59:46Z</time>
      </trkpt>
      <trkpt lat="43.66738" lon="3.20444">
        <ele>400.6</ele>
        <time>2026-05-19T11:59:51Z</time>
      </trkpt>
      <trkpt lat="43.66737" lon="3.20434">
        <ele>399.8</ele>
        <time>2026-05-19T11:59:56Z</time>
      </trkpt>
      <trkpt lat="43.66736" lon="3.20424">
        <ele>398.9</ele>
        <time>2026-05-19T12:00:01Z</time>
      </trkpt>
      <trkpt lat="43.66734" lon="3.20413">
        <ele>397.7</ele>
        <time>2026-05-19T12:00:06Z</time>
      </trkpt>
      <trkpt lat="43.66733" lon="3.20404">
        <ele>397.1</ele>
        <time>2026-05-19T12:00:11Z</time>
      </trkpt>
      <trkpt lat="43.66733" lon="3.20394">
        <ele>397</ele>
        <time>2026-05-19T12:00:16Z</time>
      </trkpt>
      <trkpt lat="43.66732" lon="3.20385">
        <ele>396.4</ele>
        <time>2026-05-19T12:00:21Z</time>
      </trkpt>
      <trkpt lat="43.6673" lon="3.20378">
        <ele>395.4</ele>
        <time>2026-05-19T12:00:26Z</time>
      </trkpt>
      <trkpt lat="43.66727" lon="3.20371">
        <ele>394</ele>
        <time>2026-05-19T12:00:31Z</time>
      </trkpt>
      <trkpt lat="43.66722" lon="3.20362">
        <ele>391.6</ele>
        <time>2026-05-19T12:00:36Z</time>
      </trkpt>
      <trkpt lat="43.66718" lon="3.20354">
        <ele>389.7</ele>
        <time>2026-05-19T12:00:41Z</time>
      </trkpt>
      <trkpt lat="43.66713" lon="3.20348">
        <ele>387.3</ele>
        <time>2026-05-19T12:00:46Z</time>
      </trkpt>
      <trkpt lat="43.66709" lon="3.20339">
        <ele>385.4</ele>
        <time>2026-05-19T12:00:51Z</time>
      </trkpt>
      <trkpt lat="43.66704" lon="3.20331">
        <ele>382.8</ele>
        <time>2026-05-19T12:00:56Z</time>
      </trkpt>
      <trkpt lat="43.667" lon="3.20324">
        <ele>380.4</ele>
        <time>2026-05-19T12:01:01Z</time>
      </trkpt>
      <trkpt lat="43.66694" lon="3.20318">
        <ele>377.2</ele>
        <time>2026-05-19T12:01:06Z</time>
      </trkpt>
      <trkpt lat="43.6669" lon="3.20318">
        <ele>375.4</ele>
        <time>2026-05-19T12:01:11Z</time>
      </trkpt>
      <trkpt lat="43.66687" lon="3.20319">
        <ele>374.2</ele>
        <time>2026-05-19T12:01:16Z</time>
      </trkpt>
      <trkpt lat="43.66685" lon="3.20318">
        <ele>373.2</ele>
        <time>2026-05-19T12:01:21Z</time>
      </trkpt>
      <trkpt lat="43.66683" lon="3.20313">
        <ele>371.9</ele>
        <time>2026-05-19T12:01:26Z</time>
      </trkpt>
      <trkpt lat="43.66685" lon="3.20307">
        <ele>372.3</ele>
        <time>2026-05-19T12:01:31Z</time>
      </trkpt>
      <trkpt lat="43.66686" lon="3.20301">
        <ele>372.3</ele>
        <time>2026-05-19T12:01:36Z</time>
      </trkpt>
      <trkpt lat="43.66687" lon="3.20295">
        <ele>372.3</ele>
        <time>2026-05-19T12:01:41Z</time>
      </trkpt>
      <trkpt lat="43.66687" lon="3.20289">
        <ele>371.8</ele>
        <time>2026-05-19T12:01:46Z</time>
      </trkpt>
      <trkpt lat="43.66688" lon="3.20281">
        <ele>371.6</ele>
        <time>2026-05-19T12:01:51Z</time>
      </trkpt>
      <trkpt lat="43.6669" lon="3.20273">
        <ele>371.9</ele>
        <time>2026-05-19T12:01:56Z</time>
      </trkpt>
      <trkpt lat="43.66691" lon="3.20265">
        <ele>371.7</ele>
        <time>2026-05-19T12:02:01Z</time>
      </trkpt>
      <trkpt lat="43.66691" lon="3.20258">
        <ele>371.1</ele>
        <time>2026-05-19T12:02:06Z</time>
      </trkpt>
      <trkpt lat="43.66691" lon="3.20252">
        <ele>370.7</ele>
        <time>2026-05-19T12:02:11Z</time>
      </trkpt>
      <trkpt lat="43.66691" lon="3.20244">
        <ele>369.8</ele>
        <time>2026-05-19T12:02:16Z</time>
      </trkpt>
      <trkpt lat="43.66692" lon="3.20235">
        <ele>369.1</ele>
        <time>2026-05-19T12:02:21Z</time>
      </trkpt>
      <trkpt lat="43.66692" lon="3.20227">
        <ele>368.1</ele>
        <time>2026-05-19T12:02:26Z</time>
      </trkpt>
      <trkpt lat="43.66693" lon="3.20219">
        <ele>367.5</ele>
        <time>2026-05-19T12:02:31Z</time>
      </trkpt>
      <trkpt lat="43.66694" lon="3.20211">
        <ele>367</ele>
        <time>2026-05-19T12:02:36Z</time>
      </trkpt>
      <trkpt lat="43.66694" lon="3.20204">
        <ele>366.1</ele>
        <time>2026-05-19T12:02:41Z</time>
      </trkpt>
      <trkpt lat="43.66694" lon="3.20198">
        <ele>365.4</ele>
        <time>2026-05-19T12:02:46Z</time>
      </trkpt>
      <trkpt lat="43.66693" lon="3.20191">
        <ele>364</ele>
        <time>2026-05-19T12:02:51Z</time>
      </trkpt>
      <trkpt lat="43.66693" lon="3.20182">
        <ele>362.9</ele>
        <time>2026-05-19T12:02:56Z</time>
      </trkpt>
      <trkpt lat="43.66693" lon="3.20174">
        <ele>361.9</ele>
        <time>2026-05-19T12:03:01Z</time>
      </trkpt>
      <trkpt lat="43.66695" lon="3.20166">
        <ele>361.8</ele>
        <time>2026-05-19T12:03:06Z</time>
      </trkpt>
      <trkpt lat="43.66696" lon="3.20158">
        <ele>361.2</ele>
        <time>2026-05-19T12:03:11Z</time>
      </trkpt>
      <trkpt lat="43.66696" lon="3.20149">
        <ele>360</ele>
        <time>2026-05-19T12:03:16Z</time>
      </trkpt>
      <trkpt lat="43.66696" lon="3.20142">
        <ele>359.1</ele>
        <time>2026-05-19T12:03:21Z</time>
      </trkpt>
      <trkpt lat="43.66696" lon="3.20135">
        <ele>358.2</ele>
        <time>2026-05-19T12:03:26Z</time>
      </trkpt>
      <trkpt lat="43.66696" lon="3.20128">
        <ele>357.3</ele>
        <time>2026-05-19T12:03:31Z</time>
      </trkpt>
      <trkpt lat="43.66695" lon="3.20121">
        <ele>355.9</ele>
        <time>2026-05-19T12:03:36Z</time>
      </trkpt>
      <trkpt lat="43.66696" lon="3.20115">
        <ele>355.6</ele>
        <time>2026-05-19T12:03:41Z</time>
      </trkpt>
      <trkpt lat="43.66695" lon="3.20108">
        <ele>354.2</ele>
        <time>2026-05-19T12:03:46Z</time>
      </trkpt>
      <trkpt lat="43.66694" lon="3.201">
        <ele>352.7</ele>
        <time>2026-05-19T12:03:51Z</time>
      </trkpt>
      <trkpt lat="43.66695" lon="3.2009">
        <ele>351.8</ele>
        <time>2026-05-19T12:03:56Z</time>
      </trkpt>
      <trkpt lat="43.66695" lon="3.20082">
        <ele>350.7</ele>
        <time>2026-05-19T12:04:01Z</time>
      </trkpt>
      <trkpt lat="43.66695" lon="3.20077">
        <ele>350</ele>
        <time>2026-05-19T12:04:06Z</time>
      </trkpt>
      <trkpt lat="43.66697" lon="3.20072">
        <ele>350.2</ele>
        <time>2026-05-19T12:04:11Z</time>
      </trkpt>
      <trkpt lat="43.66699" lon="3.20065">
        <ele>350</ele>
        <time>2026-05-19T12:04:16Z</time>
      </trkpt>
      <trkpt lat="43.667" lon="3.20058">
        <ele>349.4</ele>
        <time>2026-05-19T12:04:21Z</time>
      </trkpt>
      <trkpt lat="43.66701" lon="3.2005">
        <ele>348.6</ele>
        <time>2026-05-19T12:04:26Z</time>
      </trkpt>
      <trkpt lat="43.66701" lon="3.20043">
        <ele>347.5</ele>
        <time>2026-05-19T12:04:31Z</time>
      </trkpt>
      <trkpt lat="43.66703" lon="3.20038">
        <ele>347.5</ele>
        <time>2026-05-19T12:04:36Z</time>
      </trkpt>
      <trkpt lat="43.66707" lon="3.20032">
        <ele>348.2</ele>
        <time>2026-05-19T12:04:41Z</time>
      </trkpt>
      <trkpt lat="43.6671" lon="3.20029">
        <ele>348.8</ele>
        <time>2026-05-19T12:04:46Z</time>
      </trkpt>
      <trkpt lat="43.66713" lon="3.20027">
        <ele>349.7</ele>
        <time>2026-05-19T12:04:51Z</time>
      </trkpt>
      <trkpt lat="43.66715" lon="3.20023">
        <ele>349.7</ele>
        <time>2026-05-19T12:04:56Z</time>
      </trkpt>
      <trkpt lat="43.66717" lon="3.20019">
        <ele>349.8</ele>
        <time>2026-05-19T12:05:01Z</time>
      </trkpt>
      <trkpt lat="43.66718" lon="3.20015">
        <ele>349.5</ele>
        <time>2026-05-19T12:05:06Z</time>
      </trkpt>
      <trkpt lat="43.6672" lon="3.20011">
        <ele>349.5</ele>
        <time>2026-05-19T12:05:11Z</time>
      </trkpt>
      <trkpt lat="43.66723" lon="3.20009">
        <ele>350.2</ele>
        <time>2026-05-19T12:05:16Z</time>
      </trkpt>
      <trkpt lat="43.66726" lon="3.20006">
        <ele>350.8</ele>
        <time>2026-05-19T12:05:21Z</time>
      </trkpt>
      <trkpt lat="43.6673" lon="3.20004">
        <ele>351.8</ele>
        <time>2026-05-19T12:05:26Z</time>
      </trkpt>
      <trkpt lat="43.66734" lon="3.20002">
        <ele>352.8</ele>
        <time>2026-05-19T12:05:31Z</time>
      </trkpt>
      <trkpt lat="43.66737" lon="3.2">
        <ele>353.5</ele>
        <time>2026-05-19T12:05:36Z</time>
      </trkpt>
      <trkpt lat="43.66741" lon="3.19999">
        <ele>354.7</ele>
        <time>2026-05-19T12:05:41Z</time>
      </trkpt>
      <trkpt lat="43.66745" lon="3.19998">
        <ele>355.9</ele>
        <time>2026-05-19T12:05:46Z</time>
      </trkpt>
      <trkpt lat="43.66749" lon="3.19997">
        <ele>357</ele>
        <time>2026-05-19T12:05:51Z</time>
      </trkpt>
      <trkpt lat="43.66751" lon="3.19993">
        <ele>356.8</ele>
        <time>2026-05-19T12:05:56Z</time>
      </trkpt>
      <trkpt lat="43.66754" lon="3.1999">
        <ele>356.9</ele>
        <time>2026-05-19T12:06:01Z</time>
      </trkpt>
      <trkpt lat="43.66756" lon="3.19987">
        <ele>356.8</ele>
        <time>2026-05-19T12:06:06Z</time>
      </trkpt>
      <trkpt lat="43.66757" lon="3.19985">
        <ele>356.6</ele>
        <time>2026-05-19T12:06:11Z</time>
      </trkpt>
      <trkpt lat="43.66757" lon="3.19985">
        <ele>356.6</ele>
        <time>2026-05-19T12:06:16Z</time>
      </trkpt>
      <trkpt lat="43.66763" lon="3.19974">
        <ele>355.9</ele>
        <time>2026-05-19T12:06:21Z</time>
      </trkpt>
      <trkpt lat="43.66763" lon="3.19974">
        <ele>355.9</ele>
        <time>2026-05-19T12:06:26Z</time>
      </trkpt>
      <trkpt lat="43.66763" lon="3.19974">
        <ele>355.9</ele>
        <time>2026-05-19T12:06:31Z</time>
      </trkpt>
      <trkpt lat="43.66768" lon="3.19962">
        <ele>354.7</ele>
        <time>2026-05-19T12:06:36Z</time>
      </trkpt>
      <trkpt lat="43.66769" lon="3.19961">
        <ele>354.8</ele>
        <time>2026-05-19T12:06:41Z</time>
      </trkpt>
      <trkpt lat="43.66769" lon="3.19961">
        <ele>354.8</ele>
        <time>2026-05-19T12:06:46Z</time>
      </trkpt>
      <trkpt lat="43.66769" lon="3.19961">
        <ele>354.8</ele>
        <time>2026-05-19T12:06:51Z</time>
      </trkpt>
      <trkpt lat="43.66769" lon="3.19961">
        <ele>354.8</ele>
        <time>2026-05-19T12:06:56Z</time>
      </trkpt>
      <trkpt lat="43.66774" lon="3.19947">
        <ele>353.4</ele>
        <time>2026-05-19T12:07:01Z</time>
      </trkpt>
      <trkpt lat="43.66774" lon="3.19947">
        <ele>353.4</ele>
        <time>2026-05-19T12:07:06Z</time>
      </trkpt>
      <trkpt lat="43.66774" lon="3.19947">
        <ele>353.4</ele>
        <time>2026-05-19T12:07:11Z</time>
      </trkpt>
      <trkpt lat="43.66774" lon="3.19947">
        <ele>353.4</ele>
        <time>2026-05-19T12:07:16Z</time>
      </trkpt>
      <trkpt lat="43.66776" lon="3.19931">
        <ele>350.9</ele>
        <time>2026-05-19T12:07:21Z</time>
      </trkpt>
      <trkpt lat="43.66774" lon="3.19926">
        <ele>349.4</ele>
        <time>2026-05-19T12:07:26Z</time>
      </trkpt>
      <trkpt lat="43.66774" lon="3.19926">
        <ele>349.4</ele>
        <time>2026-05-19T12:07:31Z</time>
      </trkpt>
      <trkpt lat="43.66774" lon="3.19926">
        <ele>349.4</ele>
        <time>2026-05-19T12:07:36Z</time>
      </trkpt>
      <trkpt lat="43.66768" lon="3.19913">
        <ele>346.2</ele>
        <time>2026-05-19T12:07:41Z</time>
      </trkpt>
      <trkpt lat="43.66762" lon="3.19908">
        <ele>344.8</ele>
        <time>2026-05-19T12:07:46Z</time>
      </trkpt>
      <trkpt lat="43.66759" lon="3.19902">
        <ele>344.3</ele>
        <time>2026-05-19T12:07:51Z</time>
      </trkpt>
      <trkpt lat="43.66756" lon="3.19896">
        <ele>343.7</ele>
        <time>2026-05-19T12:07:56Z</time>
      </trkpt>
      <trkpt lat="43.66751" lon="3.19892">
        <ele>342.5</ele>
        <time>2026-05-19T12:08:01Z</time>
      </trkpt>
      <trkpt lat="43.66746" lon="3.19887">
        <ele>341.6</ele>
        <time>2026-05-19T12:08:06Z</time>
      </trkpt>
      <trkpt lat="43.66741" lon="3.19884">
        <ele>340.7</ele>
        <time>2026-05-19T12:08:11Z</time>
      </trkpt>
      <trkpt lat="43.66736" lon="3.19879">
        <ele>339.8</ele>
        <time>2026-05-19T12:08:16Z</time>
      </trkpt>
      <trkpt lat="43.66732" lon="3.19874">
        <ele>339</ele>
        <time>2026-05-19T12:08:21Z</time>
      </trkpt>
      <trkpt lat="43.66729" lon="3.1987">
        <ele>338.5</ele>
        <time>2026-05-19T12:08:26Z</time>
      </trkpt>
      <trkpt lat="43.66725" lon="3.19867">
        <ele>337.6</ele>
        <time>2026-05-19T12:08:31Z</time>
      </trkpt>
      <trkpt lat="43.66721" lon="3.19863">
        <ele>336.8</ele>
        <time>2026-05-19T12:08:36Z</time>
      </trkpt>
      <trkpt lat="43.66717" lon="3.19859">
        <ele>335.9</ele>
        <time>2026-05-19T12:08:41Z</time>
      </trkpt>
      <trkpt lat="43.66712" lon="3.19855">
        <ele>334.8</ele>
        <time>2026-05-19T12:08:46Z</time>
      </trkpt>
      <trkpt lat="43.66708" lon="3.19853">
        <ele>333.8</ele>
        <time>2026-05-19T12:08:51Z</time>
      </trkpt>
      <trkpt lat="43.66703" lon="3.19851">
        <ele>332.6</ele>
        <time>2026-05-19T12:08:56Z</time>
      </trkpt>
      <trkpt lat="43.66699" lon="3.19849">
        <ele>331.6</ele>
        <time>2026-05-19T12:09:01Z</time>
      </trkpt>
      <trkpt lat="43.66693" lon="3.19847">
        <ele>330.1</ele>
        <time>2026-05-19T12:09:06Z</time>
      </trkpt>
      <trkpt lat="43.66687" lon="3.19844">
        <ele>328.5</ele>
        <time>2026-05-19T12:09:11Z</time>
      </trkpt>
      <trkpt lat="43.66681" lon="3.19843">
        <ele>327</ele>
        <time>2026-05-19T12:09:16Z</time>
      </trkpt>
      <trkpt lat="43.66675" lon="3.19842">
        <ele>325.4</ele>
        <time>2026-05-19T12:09:21Z</time>
      </trkpt>
      <trkpt lat="43.6667" lon="3.19841">
        <ele>324.1</ele>
        <time>2026-05-19T12:09:26Z</time>
      </trkpt>
      <trkpt lat="43.66664" lon="3.19841">
        <ele>322.9</ele>
        <time>2026-05-19T12:09:31Z</time>
      </trkpt>
      <trkpt lat="43.66661" lon="3.19842">
        <ele>322.4</ele>
        <time>2026-05-19T12:09:36Z</time>
      </trkpt>
      <trkpt lat="43.66655" lon="3.19842">
        <ele>321.5</ele>
        <time>2026-05-19T12:09:41Z</time>
      </trkpt>
      <trkpt lat="43.6665" lon="3.19844">
        <ele>320.8</ele>
        <time>2026-05-19T12:09:46Z</time>
      </trkpt>
      <trkpt lat="43.66646" lon="3.19847">
        <ele>320.3</ele>
        <time>2026-05-19T12:09:51Z</time>
      </trkpt>
      <trkpt lat="43.66639" lon="3.19849">
        <ele>319.3</ele>
        <time>2026-05-19T12:09:56Z</time>
      </trkpt>
      <trkpt lat="43.66632" lon="3.1985">
        <ele>318.3</ele>
        <time>2026-05-19T12:10:01Z</time>
      </trkpt>
      <trkpt lat="43.66626" lon="3.19852">
        <ele>317.4</ele>
        <time>2026-05-19T12:10:06Z</time>
      </trkpt>
      <trkpt lat="43.66623" lon="3.19851">
        <ele>316.9</ele>
        <time>2026-05-19T12:10:11Z</time>
      </trkpt>
      <trkpt lat="43.66619" lon="3.19847">
        <ele>316.1</ele>
        <time>2026-05-19T12:10:16Z</time>
      </trkpt>
      <trkpt lat="43.66616" lon="3.19842">
        <ele>315.5</ele>
        <time>2026-05-19T12:10:21Z</time>
      </trkpt>
      <trkpt lat="43.66612" lon="3.19838">
        <ele>314.7</ele>
        <time>2026-05-19T12:10:26Z</time>
      </trkpt>
      <trkpt lat="43.66608" lon="3.19835">
        <ele>313.9</ele>
        <time>2026-05-19T12:10:31Z</time>
      </trkpt>
      <trkpt lat="43.66606" lon="3.19831">
        <ele>313.4</ele>
        <time>2026-05-19T12:10:36Z</time>
      </trkpt>
      <trkpt lat="43.66604" lon="3.19826">
        <ele>312.9</ele>
        <time>2026-05-19T12:10:41Z</time>
      </trkpt>
      <trkpt lat="43.66601" lon="3.19824">
        <ele>312.4</ele>
        <time>2026-05-19T12:10:46Z</time>
      </trkpt>
      <trkpt lat="43.66599" lon="3.19825">
        <ele>312.1</ele>
        <time>2026-05-19T12:10:51Z</time>
      </trkpt>
      <trkpt lat="43.66599" lon="3.19825">
        <ele>312.1</ele>
        <time>2026-05-19T12:10:56Z</time>
      </trkpt>
      <trkpt lat="43.66599" lon="3.19825">
        <ele>312.1</ele>
        <time>2026-05-19T12:11:01Z</time>
      </trkpt>
      <trkpt lat="43.66599" lon="3.19825">
        <ele>312.1</ele>
        <time>2026-05-19T12:11:06Z</time>
      </trkpt>
      <trkpt lat="43.66599" lon="3.19825">
        <ele>312.1</ele>
        <time>2026-05-19T12:11:11Z</time>
      </trkpt>
      <trkpt lat="43.66599" lon="3.19825">
        <ele>312.1</ele>
        <time>2026-05-19T12:11:16Z</time>
      </trkpt>
      <trkpt lat="43.66599" lon="3.19825">
        <ele>312.1</ele>
        <time>2026-05-19T12:11:21Z</time>
      </trkpt>
      <trkpt lat="43.66599" lon="3.19825">
        <ele>312.1</ele>
        <time>2026-05-19T12:11:26Z</time>
      </trkpt>
      <trkpt lat="43.66599" lon="3.19825">
        <ele>312.1</ele>
        <time>2026-05-19T12:11:31Z</time>
      </trkpt>
      <trkpt lat="43.666" lon="3.19812">
        <ele>311.7</ele>
        <time>2026-05-19T12:11:36Z</time>
      </trkpt>
      <trkpt lat="43.666" lon="3.19811">
        <ele>311.6</ele>
        <time>2026-05-19T12:11:41Z</time>
      </trkpt>
      <trkpt lat="43.666" lon="3.19811">
        <ele>311.6</ele>
        <time>2026-05-19T12:11:46Z</time>
      </trkpt>
      <trkpt lat="43.666" lon="3.19811">
        <ele>311.6</ele>
        <time>2026-05-19T12:11:51Z</time>
      </trkpt>
      <trkpt lat="43.66598" lon="3.19796">
        <ele>310.7</ele>
        <time>2026-05-19T12:11:56Z</time>
      </trkpt>
      <trkpt lat="43.66596" lon="3.19791">
        <ele>310.1</ele>
        <time>2026-05-19T12:12:01Z</time>
      </trkpt>
      <trkpt lat="43.66594" lon="3.19787">
        <ele>309.6</ele>
        <time>2026-05-19T12:12:06Z</time>
      </trkpt>
      <trkpt lat="43.66591" lon="3.19784">
        <ele>308.9</ele>
        <time>2026-05-19T12:12:11Z</time>
      </trkpt>
      <trkpt lat="43.66588" lon="3.19783">
        <ele>308.4</ele>
        <time>2026-05-19T12:12:16Z</time>
      </trkpt>
      <trkpt lat="43.66586" lon="3.19779">
        <ele>307.8</ele>
        <time>2026-05-19T12:12:21Z</time>
      </trkpt>
      <trkpt lat="43.66585" lon="3.19776">
        <ele>307.5</ele>
        <time>2026-05-19T12:12:26Z</time>
      </trkpt>
      <trkpt lat="43.66584" lon="3.19773">
        <ele>307.2</ele>
        <time>2026-05-19T12:12:31Z</time>
      </trkpt>
      <trkpt lat="43.66582" lon="3.19769">
        <ele>306.8</ele>
        <time>2026-05-19T12:12:36Z</time>
      </trkpt>
      <trkpt lat="43.6658" lon="3.19765">
        <ele>306.5</ele>
        <time>2026-05-19T12:12:41Z</time>
      </trkpt>
      <trkpt lat="43.66579" lon="3.19761">
        <ele>306.3</ele>
        <time>2026-05-19T12:12:46Z</time>
      </trkpt>
      <trkpt lat="43.66578" lon="3.19757">
        <ele>306</ele>
        <time>2026-05-19T12:12:51Z</time>
      </trkpt>
      <trkpt lat="43.66575" lon="3.19755">
        <ele>305.7</ele>
        <time>2026-05-19T12:12:56Z</time>
      </trkpt>
      <trkpt lat="43.66573" lon="3.19752">
        <ele>305.5</ele>
        <time>2026-05-19T12:13:01Z</time>
      </trkpt>
      <trkpt lat="43.66571" lon="3.1975">
        <ele>305.3</ele>
        <time>2026-05-19T12:13:06Z</time>
      </trkpt>
      <trkpt lat="43.6657" lon="3.19747">
        <ele>305.2</ele>
        <time>2026-05-19T12:13:11Z</time>
      </trkpt>
      <trkpt lat="43.66569" lon="3.19744">
        <ele>305</ele>
        <time>2026-05-19T12:13:16Z</time>
      </trkpt>
      <trkpt lat="43.66568" lon="3.19741">
        <ele>304.9</ele>
        <time>2026-05-19T12:13:21Z</time>
      </trkpt>
      <trkpt lat="43.66567" lon="3.19737">
        <ele>304.8</ele>
        <time>2026-05-19T12:13:26Z</time>
      </trkpt>
      <trkpt lat="43.66566" lon="3.19732">
        <ele>304.7</ele>
        <time>2026-05-19T12:13:31Z</time>
      </trkpt>
      <trkpt lat="43.66565" lon="3.19726">
        <ele>304.5</ele>
        <time>2026-05-19T12:13:36Z</time>
      </trkpt>
      <trkpt lat="43.66565" lon="3.19721">
        <ele>304.4</ele>
        <time>2026-05-19T12:13:41Z</time>
      </trkpt>
      <trkpt lat="43.66566" lon="3.19717">
        <ele>304.4</ele>
        <time>2026-05-19T12:13:46Z</time>
      </trkpt>
      <trkpt lat="43.66567" lon="3.19716">
        <ele>304.5</ele>
        <time>2026-05-19T12:13:51Z</time>
      </trkpt>
      <trkpt lat="43.66567" lon="3.19716">
        <ele>304.5</ele>
        <time>2026-05-19T12:13:56Z</time>
      </trkpt>
      <trkpt lat="43.66566" lon="3.19704">
        <ele>304.2</ele>
        <time>2026-05-19T12:14:01Z</time>
      </trkpt>
      <trkpt lat="43.66564" lon="3.19698">
        <ele>303.9</ele>
        <time>2026-05-19T12:14:06Z</time>
      </trkpt>
      <trkpt lat="43.66565" lon="3.19692">
        <ele>303.9</ele>
        <time>2026-05-19T12:14:11Z</time>
      </trkpt>
      <trkpt lat="43.66563" lon="3.19688">
        <ele>303.7</ele>
        <time>2026-05-19T12:14:16Z</time>
      </trkpt>
      <trkpt lat="43.6656" lon="3.19684">
        <ele>303.4</ele>
        <time>2026-05-19T12:14:21Z</time>
      </trkpt>
      <trkpt lat="43.66558" lon="3.19682">
        <ele>303.2</ele>
        <time>2026-05-19T12:14:26Z</time>
      </trkpt>
      <trkpt lat="43.66556" lon="3.19679">
        <ele>302.9</ele>
        <time>2026-05-19T12:14:31Z</time>
      </trkpt>
      <trkpt lat="43.66553" lon="3.19678">
        <ele>302.7</ele>
        <time>2026-05-19T12:14:36Z</time>
      </trkpt>
      <trkpt lat="43.6655" lon="3.19679">
        <ele>302.5</ele>
        <time>2026-05-19T12:14:41Z</time>
      </trkpt>
      <trkpt lat="43.66546" lon="3.19679">
        <ele>302.1</ele>
        <time>2026-05-19T12:14:46Z</time>
      </trkpt>
      <trkpt lat="43.66545" lon="3.19678">
        <ele>302</ele>
        <time>2026-05-19T12:14:51Z</time>
      </trkpt>
      <trkpt lat="43.66544" lon="3.19676">
        <ele>301.9</ele>
        <time>2026-05-19T12:14:56Z</time>
      </trkpt>
      <trkpt lat="43.6654" lon="3.19675">
        <ele>301.6</ele>
        <time>2026-05-19T12:15:01Z</time>
      </trkpt>
      <trkpt lat="43.66535" lon="3.19673">
        <ele>301.1</ele>
        <time>2026-05-19T12:15:06Z</time>
      </trkpt>
      <trkpt lat="43.66532" lon="3.19671">
        <ele>300.8</ele>
        <time>2026-05-19T12:15:11Z</time>
      </trkpt>
      <trkpt lat="43.66529" lon="3.1967">
        <ele>300.5</ele>
        <time>2026-05-19T12:15:16Z</time>
      </trkpt>
      <trkpt lat="43.66528" lon="3.19669">
        <ele>300.4</ele>
        <time>2026-05-19T12:15:21Z</time>
      </trkpt>
      <trkpt lat="43.66526" lon="3.19666">
        <ele>300.2</ele>
        <time>2026-05-19T12:15:26Z</time>
      </trkpt>
      <trkpt lat="43.66524" lon="3.19664">
        <ele>300</ele>
        <time>2026-05-19T12:15:31Z</time>
      </trkpt>
      <trkpt lat="43.66522" lon="3.19661">
        <ele>299.8</ele>
        <time>2026-05-19T12:15:36Z</time>
      </trkpt>
      <trkpt lat="43.6652" lon="3.19659">
        <ele>299.6</ele>
        <time>2026-05-19T12:15:41Z</time>
      </trkpt>
      <trkpt lat="43.66518" lon="3.19657">
        <ele>299.4</ele>
        <time>2026-05-19T12:15:46Z</time>
      </trkpt>
      <trkpt lat="43.66516" lon="3.19654">
        <ele>299.2</ele>
        <time>2026-05-19T12:15:51Z</time>
      </trkpt>
      <trkpt lat="43.66513" lon="3.19651">
        <ele>298.9</ele>
        <time>2026-05-19T12:15:56Z</time>
      </trkpt>
      <trkpt lat="43.6651" lon="3.19646">
        <ele>298.6</ele>
        <time>2026-05-19T12:16:01Z</time>
      </trkpt>
      <trkpt lat="43.66506" lon="3.19641">
        <ele>298.2</ele>
        <time>2026-05-19T12:16:06Z</time>
      </trkpt>
      <trkpt lat="43.66504" lon="3.19635">
        <ele>298</ele>
        <time>2026-05-19T12:16:11Z</time>
      </trkpt>
      <trkpt lat="43.66502" lon="3.19631">
        <ele>297.8</ele>
        <time>2026-05-19T12:16:16Z</time>
      </trkpt>
      <trkpt lat="43.665" lon="3.19629">
        <ele>297.5</ele>
        <time>2026-05-19T12:16:21Z</time>
      </trkpt>
      <trkpt lat="43.66495" lon="3.19627">
        <ele>297.2</ele>
        <time>2026-05-19T12:16:26Z</time>
      </trkpt>
      <trkpt lat="43.66491" lon="3.19625">
        <ele>296.9</ele>
        <time>2026-05-19T12:16:31Z</time>
      </trkpt>
      <trkpt lat="43.6649" lon="3.1962">
        <ele>296.7</ele>
        <time>2026-05-19T12:16:36Z</time>
      </trkpt>
      <trkpt lat="43.66491" lon="3.19613">
        <ele>296.7</ele>
        <time>2026-05-19T12:16:41Z</time>
      </trkpt>
      <trkpt lat="43.66491" lon="3.19609">
        <ele>296.6</ele>
        <time>2026-05-19T12:16:46Z</time>
      </trkpt>
      <trkpt lat="43.66492" lon="3.19607">
        <ele>296.7</ele>
        <time>2026-05-19T12:16:51Z</time>
      </trkpt>
      <trkpt lat="43.66492" lon="3.19607">
        <ele>296.7</ele>
        <time>2026-05-19T12:16:56Z</time>
      </trkpt>
      <trkpt lat="43.66492" lon="3.19599">
        <ele>296.6</ele>
        <time>2026-05-19T12:17:01Z</time>
      </trkpt>
      <trkpt lat="43.66493" lon="3.19594">
        <ele>296.6</ele>
        <time>2026-05-19T12:17:06Z</time>
      </trkpt>
      <trkpt lat="43.66492" lon="3.19587">
        <ele>296.4</ele>
        <time>2026-05-19T12:17:11Z</time>
      </trkpt>
      <trkpt lat="43.6649" lon="3.19581">
        <ele>296</ele>
        <time>2026-05-19T12:17:16Z</time>
      </trkpt>
      <trkpt lat="43.66487" lon="3.19572">
        <ele>295.1</ele>
        <time>2026-05-19T12:17:21Z</time>
      </trkpt>
      <trkpt lat="43.66487" lon="3.19568">
        <ele>294.8</ele>
        <time>2026-05-19T12:17:26Z</time>
      </trkpt>
      <trkpt lat="43.66486" lon="3.19562">
        <ele>294.3</ele>
        <time>2026-05-19T12:17:31Z</time>
      </trkpt>
      <trkpt lat="43.66482" lon="3.19556">
        <ele>293.6</ele>
        <time>2026-05-19T12:17:36Z</time>
      </trkpt>
      <trkpt lat="43.66477" lon="3.1955">
        <ele>292.9</ele>
        <time>2026-05-19T12:17:41Z</time>
      </trkpt>
      <trkpt lat="43.66475" lon="3.19541">
        <ele>292.3</ele>
        <time>2026-05-19T12:17:46Z</time>
      </trkpt>
      <trkpt lat="43.66473" lon="3.19532">
        <ele>291.6</ele>
        <time>2026-05-19T12:17:51Z</time>
      </trkpt>
      <trkpt lat="43.66471" lon="3.19524">
        <ele>291.1</ele>
        <time>2026-05-19T12:17:56Z</time>
      </trkpt>
      <trkpt lat="43.66467" lon="3.19519">
        <ele>290.7</ele>
        <time>2026-05-19T12:18:01Z</time>
      </trkpt>
      <trkpt lat="43.66464" lon="3.19512">
        <ele>290.2</ele>
        <time>2026-05-19T12:18:06Z</time>
      </trkpt>
      <trkpt lat="43.66459" lon="3.19504">
        <ele>289.7</ele>
        <time>2026-05-19T12:18:11Z</time>
      </trkpt>
      <trkpt lat="43.66455" lon="3.19497">
        <ele>289.4</ele>
        <time>2026-05-19T12:18:16Z</time>
      </trkpt>
      <trkpt lat="43.66452" lon="3.1949">
        <ele>289.1</ele>
        <time>2026-05-19T12:18:21Z</time>
      </trkpt>
      <trkpt lat="43.66447" lon="3.19481">
        <ele>288.8</ele>
        <time>2026-05-19T12:18:26Z</time>
      </trkpt>
      <trkpt lat="43.66444" lon="3.19469">
        <ele>288.3</ele>
        <time>2026-05-19T12:18:31Z</time>
      </trkpt>
      <trkpt lat="43.66442" lon="3.19457">
        <ele>287.9</ele>
        <time>2026-05-19T12:18:36Z</time>
      </trkpt>
      <trkpt lat="43.66441" lon="3.19446">
        <ele>287.5</ele>
        <time>2026-05-19T12:18:41Z</time>
      </trkpt>
      <trkpt lat="43.6644" lon="3.19437">
        <ele>287.2</ele>
        <time>2026-05-19T12:18:46Z</time>
      </trkpt>
      <trkpt lat="43.66439" lon="3.19428">
        <ele>286.9</ele>
        <time>2026-05-19T12:18:51Z</time>
      </trkpt>
      <trkpt lat="43.66438" lon="3.19417">
        <ele>286.5</ele>
        <time>2026-05-19T12:18:56Z</time>
      </trkpt>
      <trkpt lat="43.66436" lon="3.19406">
        <ele>286</ele>
        <time>2026-05-19T12:19:01Z</time>
      </trkpt>
      <trkpt lat="43.66435" lon="3.19396">
        <ele>285.4</ele>
        <time>2026-05-19T12:19:06Z</time>
      </trkpt>
      <trkpt lat="43.66435" lon="3.19387">
        <ele>285</ele>
        <time>2026-05-19T12:19:11Z</time>
      </trkpt>
      <trkpt lat="43.66435" lon="3.19376">
        <ele>284.5</ele>
        <time>2026-05-19T12:19:16Z</time>
      </trkpt>
      <trkpt lat="43.66435" lon="3.19366">
        <ele>284</ele>
        <time>2026-05-19T12:19:21Z</time>
      </trkpt>
      <trkpt lat="43.66435" lon="3.19358">
        <ele>283.6</ele>
        <time>2026-05-19T12:19:26Z</time>
      </trkpt>
      <trkpt lat="43.66434" lon="3.19353">
        <ele>283.4</ele>
        <time>2026-05-19T12:19:31Z</time>
      </trkpt>
      <trkpt lat="43.66434" lon="3.19347">
        <ele>283.1</ele>
        <time>2026-05-19T12:19:36Z</time>
      </trkpt>
      <trkpt lat="43.66435" lon="3.19343">
        <ele>282.9</ele>
        <time>2026-05-19T12:19:41Z</time>
      </trkpt>
      <trkpt lat="43.66435" lon="3.19342">
        <ele>282.9</ele>
        <time>2026-05-19T12:19:46Z</time>
      </trkpt>
      <trkpt lat="43.66435" lon="3.19342">
        <ele>282.9</ele>
        <time>2026-05-19T12:19:51Z</time>
      </trkpt>
      <trkpt lat="43.66435" lon="3.19342">
        <ele>282.9</ele>
        <time>2026-05-19T12:19:56Z</time>
      </trkpt>
      <trkpt lat="43.66435" lon="3.19342">
        <ele>282.9</ele>
        <time>2026-05-19T12:20:01Z</time>
      </trkpt>
      <trkpt lat="43.66435" lon="3.19342">
        <ele>282.9</ele>
        <time>2026-05-19T12:20:06Z</time>
      </trkpt>
      <trkpt lat="43.66432" lon="3.1934">
        <ele>282.7</ele>
        <time>2026-05-19T12:20:11Z</time>
      </trkpt>
      <trkpt lat="43.66428" lon="3.19338">
        <ele>282.5</ele>
        <time>2026-05-19T12:20:16Z</time>
      </trkpt>
      <trkpt lat="43.66425" lon="3.19335">
        <ele>282.3</ele>
        <time>2026-05-19T12:20:21Z</time>
      </trkpt>
      <trkpt lat="43.66422" lon="3.1933">
        <ele>282</ele>
        <time>2026-05-19T12:20:26Z</time>
      </trkpt>
      <trkpt lat="43.66419" lon="3.19324">
        <ele>281.7</ele>
        <time>2026-05-19T12:20:31Z</time>
      </trkpt>
      <trkpt lat="43.66419" lon="3.19323">
        <ele>281.7</ele>
        <time>2026-05-19T12:20:36Z</time>
      </trkpt>
      <trkpt lat="43.66417" lon="3.19319">
        <ele>281.5</ele>
        <time>2026-05-19T12:20:41Z</time>
      </trkpt>
      <trkpt lat="43.66415" lon="3.1931">
        <ele>281.2</ele>
        <time>2026-05-19T12:20:46Z</time>
      </trkpt>
      <trkpt lat="43.66414" lon="3.19299">
        <ele>280.8</ele>
        <time>2026-05-19T12:20:51Z</time>
      </trkpt>
      <trkpt lat="43.66414" lon="3.1929">
        <ele>280.5</ele>
        <time>2026-05-19T12:20:56Z</time>
      </trkpt>
      <trkpt lat="43.66414" lon="3.19285">
        <ele>280.3</ele>
        <time>2026-05-19T12:21:01Z</time>
      </trkpt>
      <trkpt lat="43.6642" lon="3.1928">
        <ele>280.2</ele>
        <time>2026-05-19T12:21:06Z</time>
      </trkpt>
      <trkpt lat="43.66425" lon="3.19272">
        <ele>280.1</ele>
        <time>2026-05-19T12:21:11Z</time>
      </trkpt>
      <trkpt lat="43.66429" lon="3.19268">
        <ele>280.1</ele>
        <time>2026-05-19T12:21:16Z</time>
      </trkpt>
      <trkpt lat="43.66432" lon="3.1926">
        <ele>279.9</ele>
        <time>2026-05-19T12:21:21Z</time>
      </trkpt>
      <trkpt lat="43.66434" lon="3.1926">
        <ele>280</ele>
        <time>2026-05-19T12:21:26Z</time>
      </trkpt>
      <trkpt lat="43.66436" lon="3.19261">
        <ele>280.1</ele>
        <time>2026-05-19T12:21:31Z</time>
      </trkpt>
      <trkpt lat="43.66436" lon="3.19264">
        <ele>280.2</ele>
        <time>2026-05-19T12:21:36Z</time>
      </trkpt>
      <trkpt lat="43.66436" lon="3.19264">
        <ele>280.2</ele>
        <time>2026-05-19T12:21:41Z</time>
      </trkpt>
      <trkpt lat="43.66436" lon="3.19264">
        <ele>280.2</ele>
        <time>2026-05-19T12:21:46Z</time>
      </trkpt>
      <trkpt lat="43.66436" lon="3.19264">
        <ele>280.2</ele>
        <time>2026-05-19T12:21:51Z</time>
      </trkpt>
      <trkpt lat="43.66436" lon="3.19264">
        <ele>280.2</ele>
        <time>2026-05-19T12:21:56Z</time>
      </trkpt>
      <trkpt lat="43.66436" lon="3.19264">
        <ele>280.2</ele>
        <time>2026-05-19T12:22:01Z</time>
      </trkpt>
      <trkpt lat="43.66436" lon="3.19264">
        <ele>280.2</ele>
        <time>2026-05-19T12:22:06Z</time>
      </trkpt>
      <trkpt lat="43.66436" lon="3.19264">
        <ele>280.2</ele>
        <time>2026-05-19T12:22:11Z</time>
      </trkpt>
      <trkpt lat="43.66436" lon="3.19264">
        <ele>280.2</ele>
        <time>2026-05-19T12:22:16Z</time>
      </trkpt>
      <trkpt lat="43.66436" lon="3.19264">
        <ele>280.2</ele>
        <time>2026-05-19T12:22:21Z</time>
      </trkpt>
      <trkpt lat="43.66436" lon="3.19264">
        <ele>280.2</ele>
        <time>2026-05-19T12:22:26Z</time>
      </trkpt>
      <trkpt lat="43.66436" lon="3.19264">
        <ele>280.2</ele>
        <time>2026-05-19T12:22:31Z</time>
      </trkpt>
      <trkpt lat="43.66436" lon="3.19264">
        <ele>280.2</ele>
        <time>2026-05-19T12:22:36Z</time>
      </trkpt>
      <trkpt lat="43.66436" lon="3.19264">
        <ele>280.2</ele>
        <time>2026-05-19T12:22:41Z</time>
      </trkpt>
      <trkpt lat="43.66436" lon="3.19264">
        <ele>280.2</ele>
        <time>2026-05-19T12:22:46Z</time>
      </trkpt>
      <trkpt lat="43.66436" lon="3.19264">
        <ele>280.2</ele>
        <time>2026-05-19T12:22:51Z</time>
      </trkpt>
      <trkpt lat="43.66436" lon="3.19264">
        <ele>280.2</ele>
        <time>2026-05-19T12:22:56Z</time>
      </trkpt>
      <trkpt lat="43.66436" lon="3.19264">
        <ele>280.2</ele>
        <time>2026-05-19T12:23:01Z</time>
      </trkpt>
      <trkpt lat="43.66436" lon="3.19264">
        <ele>280.2</ele>
        <time>2026-05-19T12:23:06Z</time>
      </trkpt>
      <trkpt lat="43.66436" lon="3.19264">
        <ele>280.2</ele>
        <time>2026-05-19T12:23:11Z</time>
      </trkpt>
      <trkpt lat="43.66436" lon="3.19264">
        <ele>280.2</ele>
        <time>2026-05-19T12:23:16Z</time>
      </trkpt>
      <trkpt lat="43.66436" lon="3.19264">
        <ele>280.2</ele>
        <time>2026-05-19T12:23:21Z</time>
      </trkpt>
      <trkpt lat="43.66436" lon="3.19264">
        <ele>280.2</ele>
        <time>2026-05-19T12:23:26Z</time>
      </trkpt>
      <trkpt lat="43.66436" lon="3.19264">
        <ele>280.2</ele>
        <time>2026-05-19T12:23:31Z</time>
      </trkpt>
      <trkpt lat="43.66436" lon="3.19264">
        <ele>280.2</ele>
        <time>2026-05-19T12:23:36Z</time>
      </trkpt>
      <trkpt lat="43.66436" lon="3.19264">
        <ele>280.2</ele>
        <time>2026-05-19T12:23:41Z</time>
      </trkpt>
      <trkpt lat="43.66436" lon="3.19264">
        <ele>280.2</ele>
        <time>2026-05-19T12:23:46Z</time>
      </trkpt>
      <trkpt lat="43.66436" lon="3.19264">
        <ele>280.2</ele>
        <time>2026-05-19T12:23:51Z</time>
      </trkpt>
      <trkpt lat="43.66436" lon="3.19264">
        <ele>280.2</ele>
        <time>2026-05-19T12:23:56Z</time>
      </trkpt>
      <trkpt lat="43.66436" lon="3.19264">
        <ele>280.2</ele>
        <time>2026-05-19T12:24:01Z</time>
      </trkpt>
      <trkpt lat="43.66436" lon="3.19264">
        <ele>280.2</ele>
        <time>2026-05-19T12:24:06Z</time>
      </trkpt>
      <trkpt lat="43.66436" lon="3.19264">
        <ele>280.2</ele>
        <time>2026-05-19T12:24:11Z</time>
      </trkpt>
      <trkpt lat="43.66436" lon="3.19264">
        <ele>280.2</ele>
        <time>2026-05-19T12:24:16Z</time>
      </trkpt>
      <trkpt lat="43.66436" lon="3.19264">
        <ele>280.2</ele>
        <time>2026-05-19T12:24:21Z</time>
      </trkpt>
      <trkpt lat="43.66436" lon="3.19264">
        <ele>280.2</ele>
        <time>2026-05-19T12:24:26Z</time>
      </trkpt>
      <trkpt lat="43.66436" lon="3.19264">
        <ele>280.2</ele>
        <time>2026-05-19T12:24:31Z</time>
      </trkpt>
      <trkpt lat="43.66436" lon="3.19264">
        <ele>280.2</ele>
        <time>2026-05-19T12:24:36Z</time>
      </trkpt>
      <trkpt lat="43.66436" lon="3.19264">
        <ele>280.2</ele>
        <time>2026-05-19T12:24:41Z</time>
      </trkpt>
      <trkpt lat="43.66436" lon="3.19264">
        <ele>280.2</ele>
        <time>2026-05-19T12:24:46Z</time>
      </trkpt>
      <trkpt lat="43.66436" lon="3.19264">
        <ele>280.2</ele>
        <time>2026-05-19T12:24:51Z</time>
      </trkpt>
      <trkpt lat="43.66436" lon="3.19264">
        <ele>280.2</ele>
        <time>2026-05-19T12:24:56Z</time>
      </trkpt>
      <trkpt lat="43.66436" lon="3.19264">
        <ele>280.2</ele>
        <time>2026-05-19T12:25:01Z</time>
      </trkpt>
      <trkpt lat="43.66436" lon="3.19264">
        <ele>280.2</ele>
        <time>2026-05-19T12:25:06Z</time>
      </trkpt>
      <trkpt lat="43.66436" lon="3.19264">
        <ele>280.2</ele>
        <time>2026-05-19T12:25:11Z</time>
      </trkpt>
      <trkpt lat="43.66436" lon="3.19264">
        <ele>280.2</ele>
        <time>2026-05-19T12:25:16Z</time>
      </trkpt>
      <trkpt lat="43.66436" lon="3.19264">
        <ele>280.2</ele>
        <time>2026-05-19T12:25:21Z</time>
      </trkpt>
      <trkpt lat="43.66436" lon="3.19264">
        <ele>280.2</ele>
        <time>2026-05-19T12:25:26Z</time>
      </trkpt>
      <trkpt lat="43.66436" lon="3.19264">
        <ele>280.2</ele>
        <time>2026-05-19T12:25:31Z</time>
      </trkpt>
      <trkpt lat="43.66436" lon="3.19264">
        <ele>280.2</ele>
        <time>2026-05-19T12:25:36Z</time>
      </trkpt>
      <trkpt lat="43.66436" lon="3.19264">
        <ele>280.2</ele>
        <time>2026-05-19T12:25:41Z</time>
      </trkpt>
      <trkpt lat="43.66436" lon="3.19264">
        <ele>280.2</ele>
        <time>2026-05-19T12:25:46Z</time>
      </trkpt>
      <trkpt lat="43.66436" lon="3.19264">
        <ele>280.2</ele>
        <time>2026-05-19T12:25:51Z</time>
      </trkpt>
      <trkpt lat="43.66436" lon="3.19264">
        <ele>280.2</ele>
        <time>2026-05-19T12:25:56Z</time>
      </trkpt>
      <trkpt lat="43.66436" lon="3.19264">
        <ele>280.2</ele>
        <time>2026-05-19T12:26:01Z</time>
      </trkpt>
      <trkpt lat="43.66436" lon="3.19264">
        <ele>280.2</ele>
        <time>2026-05-19T12:26:06Z</time>
      </trkpt>
      <trkpt lat="43.66436" lon="3.19264">
        <ele>280.2</ele>
        <time>2026-05-19T12:26:11Z</time>
      </trkpt>
      <trkpt lat="43.66434" lon="3.1926">
        <ele>280</ele>
        <time>2026-05-19T12:26:16Z</time>
      </trkpt>
      <trkpt lat="43.66433" lon="3.19252">
        <ele>279.7</ele>
        <time>2026-05-19T12:26:21Z</time>
      </trkpt>
      <trkpt lat="43.66432" lon="3.19245">
        <ele>279.3</ele>
        <time>2026-05-19T12:26:26Z</time>
      </trkpt>
      <trkpt lat="43.66434" lon="3.19239">
        <ele>279.2</ele>
        <time>2026-05-19T12:26:31Z</time>
      </trkpt>
      <trkpt lat="43.66438" lon="3.19232">
        <ele>279</ele>
        <time>2026-05-19T12:26:36Z</time>
      </trkpt>
      <trkpt lat="43.6644" lon="3.19224">
        <ele>278.7</ele>
        <time>2026-05-19T12:26:41Z</time>
      </trkpt>
      <trkpt lat="43.6644" lon="3.19214">
        <ele>278.3</ele>
        <time>2026-05-19T12:26:46Z</time>
      </trkpt>
      <trkpt lat="43.66438" lon="3.19205">
        <ele>277.9</ele>
        <time>2026-05-19T12:26:51Z</time>
      </trkpt>
      <trkpt lat="43.66439" lon="3.19196">
        <ele>277.5</ele>
        <time>2026-05-19T12:26:56Z</time>
      </trkpt>
      <trkpt lat="43.66439" lon="3.19185">
        <ele>277</ele>
        <time>2026-05-19T12:27:01Z</time>
      </trkpt>
      <trkpt lat="43.66439" lon="3.19176">
        <ele>276.7</ele>
        <time>2026-05-19T12:27:06Z</time>
      </trkpt>
      <trkpt lat="43.66439" lon="3.19166">
        <ele>276.2</ele>
        <time>2026-05-19T12:27:11Z</time>
      </trkpt>
      <trkpt lat="43.6644" lon="3.19157">
        <ele>275.8</ele>
        <time>2026-05-19T12:27:16Z</time>
      </trkpt>
      <trkpt lat="43.6644" lon="3.19153">
        <ele>275.7</ele>
        <time>2026-05-19T12:27:21Z</time>
      </trkpt>
      <trkpt lat="43.6644" lon="3.19146">
        <ele>275.4</ele>
        <time>2026-05-19T12:27:26Z</time>
      </trkpt>
      <trkpt lat="43.66438" lon="3.19135">
        <ele>274.8</ele>
        <time>2026-05-19T12:27:31Z</time>
      </trkpt>
      <trkpt lat="43.66438" lon="3.19125">
        <ele>274.4</ele>
        <time>2026-05-19T12:27:36Z</time>
      </trkpt>
      <trkpt lat="43.66439" lon="3.19116">
        <ele>274</ele>
        <time>2026-05-19T12:27:41Z</time>
      </trkpt>
      <trkpt lat="43.6644" lon="3.19106">
        <ele>273.6</ele>
        <time>2026-05-19T12:27:46Z</time>
      </trkpt>
      <trkpt lat="43.6644" lon="3.19098">
        <ele>273.2</ele>
        <time>2026-05-19T12:27:51Z</time>
      </trkpt>
      <trkpt lat="43.6644" lon="3.19089">
        <ele>272.8</ele>
        <time>2026-05-19T12:27:56Z</time>
      </trkpt>
      <trkpt lat="43.66439" lon="3.19079">
        <ele>272.4</ele>
        <time>2026-05-19T12:28:01Z</time>
      </trkpt>
      <trkpt lat="43.66436" lon="3.19069">
        <ele>272.1</ele>
        <time>2026-05-19T12:28:06Z</time>
      </trkpt>
      <trkpt lat="43.66434" lon="3.19061">
        <ele>271.8</ele>
        <time>2026-05-19T12:28:11Z</time>
      </trkpt>
      <trkpt lat="43.66432" lon="3.19051">
        <ele>271.5</ele>
        <time>2026-05-19T12:28:16Z</time>
      </trkpt>
      <trkpt lat="43.6643" lon="3.19041">
        <ele>271.2</ele>
        <time>2026-05-19T12:28:21Z</time>
      </trkpt>
      <trkpt lat="43.66429" lon="3.19032">
        <ele>271</ele>
        <time>2026-05-19T12:28:26Z</time>
      </trkpt>
      <trkpt lat="43.66429" lon="3.19023">
        <ele>270.7</ele>
        <time>2026-05-19T12:28:31Z</time>
      </trkpt>
      <trkpt lat="43.66428" lon="3.19014">
        <ele>270.5</ele>
        <time>2026-05-19T12:28:36Z</time>
      </trkpt>
      <trkpt lat="43.66429" lon="3.19003">
        <ele>270.2</ele>
        <time>2026-05-19T12:28:41Z</time>
      </trkpt>
      <trkpt lat="43.6643" lon="3.18994">
        <ele>270.2</ele>
        <time>2026-05-19T12:28:46Z</time>
      </trkpt>
      <trkpt lat="43.66431" lon="3.18986">
        <ele>270.2</ele>
        <time>2026-05-19T12:28:51Z</time>
      </trkpt>
      <trkpt lat="43.6643" lon="3.18984">
        <ele>270.2</ele>
        <time>2026-05-19T12:28:56Z</time>
      </trkpt>
      <trkpt lat="43.66432" lon="3.18978">
        <ele>270.2</ele>
        <time>2026-05-19T12:29:01Z</time>
      </trkpt>
      <trkpt lat="43.66436" lon="3.18968">
        <ele>270.2</ele>
        <time>2026-05-19T12:29:06Z</time>
      </trkpt>
      <trkpt lat="43.66438" lon="3.1896">
        <ele>270.3</ele>
        <time>2026-05-19T12:29:11Z</time>
      </trkpt>
      <trkpt lat="43.66442" lon="3.18951">
        <ele>270.3</ele>
        <time>2026-05-19T12:29:16Z</time>
      </trkpt>
      <trkpt lat="43.66444" lon="3.18944">
        <ele>270.3</ele>
        <time>2026-05-19T12:29:21Z</time>
      </trkpt>
      <trkpt lat="43.66444" lon="3.18935">
        <ele>270.3</ele>
        <time>2026-05-19T12:29:26Z</time>
      </trkpt>
      <trkpt lat="43.66441" lon="3.18925">
        <ele>270.3</ele>
        <time>2026-05-19T12:29:31Z</time>
      </trkpt>
      <trkpt lat="43.66441" lon="3.18916">
        <ele>270.3</ele>
        <time>2026-05-19T12:29:36Z</time>
      </trkpt>
      <trkpt lat="43.66444" lon="3.18907">
        <ele>269.8</ele>
        <time>2026-05-19T12:29:41Z</time>
      </trkpt>
      <trkpt lat="43.66448" lon="3.18901">
        <ele>269.6</ele>
        <time>2026-05-19T12:29:46Z</time>
      </trkpt>
      <trkpt lat="43.66453" lon="3.18894">
        <ele>269.2</ele>
        <time>2026-05-19T12:29:51Z</time>
      </trkpt>
      <trkpt lat="43.66457" lon="3.18887">
        <ele>268.9</ele>
        <time>2026-05-19T12:29:56Z</time>
      </trkpt>
      <trkpt lat="43.66462" lon="3.18879">
        <ele>268.5</ele>
        <time>2026-05-19T12:30:01Z</time>
      </trkpt>
      <trkpt lat="43.66466" lon="3.18872">
        <ele>268.1</ele>
        <time>2026-05-19T12:30:06Z</time>
      </trkpt>
      <trkpt lat="43.66471" lon="3.18864">
        <ele>267.7</ele>
        <time>2026-05-19T12:30:11Z</time>
      </trkpt>
      <trkpt lat="43.66475" lon="3.18859">
        <ele>267.4</ele>
        <time>2026-05-19T12:30:16Z</time>
      </trkpt>
      <trkpt lat="43.66481" lon="3.18849">
        <ele>266.9</ele>
        <time>2026-05-19T12:30:21Z</time>
      </trkpt>
      <trkpt lat="43.66485" lon="3.18844">
        <ele>266.6</ele>
        <time>2026-05-19T12:30:26Z</time>
      </trkpt>
      <trkpt lat="43.66491" lon="3.18835">
        <ele>266.1</ele>
        <time>2026-05-19T12:30:31Z</time>
      </trkpt>
      <trkpt lat="43.66494" lon="3.18832">
        <ele>266</ele>
        <time>2026-05-19T12:30:36Z</time>
      </trkpt>
      <trkpt lat="43.665" lon="3.18822">
        <ele>265.6</ele>
        <time>2026-05-19T12:30:41Z</time>
      </trkpt>
      <trkpt lat="43.66504" lon="3.18817">
        <ele>265.5</ele>
        <time>2026-05-19T12:30:46Z</time>
      </trkpt>
      <trkpt lat="43.66509" lon="3.18809">
        <ele>265.3</ele>
        <time>2026-05-19T12:30:51Z</time>
      </trkpt>
      <trkpt lat="43.66512" lon="3.18801">
        <ele>265.1</ele>
        <time>2026-05-19T12:30:56Z</time>
      </trkpt>
      <trkpt lat="43.66517" lon="3.18795">
        <ele>265</ele>
        <time>2026-05-19T12:31:01Z</time>
      </trkpt>
      <trkpt lat="43.66523" lon="3.18786">
        <ele>264.8</ele>
        <time>2026-05-19T12:31:06Z</time>
      </trkpt>
      <trkpt lat="43.66528" lon="3.18777">
        <ele>264.6</ele>
        <time>2026-05-19T12:31:11Z</time>
      </trkpt>
      <trkpt lat="43.66532" lon="3.18773">
        <ele>264.6</ele>
        <time>2026-05-19T12:31:16Z</time>
      </trkpt>
      <trkpt lat="43.66536" lon="3.1876">
        <ele>264.2</ele>
        <time>2026-05-19T12:31:21Z</time>
      </trkpt>
      <trkpt lat="43.66542" lon="3.1875">
        <ele>264</ele>
        <time>2026-05-19T12:31:26Z</time>
      </trkpt>
      <trkpt lat="43.66546" lon="3.18746">
        <ele>264</ele>
        <time>2026-05-19T12:31:31Z</time>
      </trkpt>
      <trkpt lat="43.66551" lon="3.18737">
        <ele>263.8</ele>
        <time>2026-05-19T12:31:36Z</time>
      </trkpt>
      <trkpt lat="43.66557" lon="3.18727">
        <ele>263.6</ele>
        <time>2026-05-19T12:31:41Z</time>
      </trkpt>
      <trkpt lat="43.6656" lon="3.18717">
        <ele>263.4</ele>
        <time>2026-05-19T12:31:46Z</time>
      </trkpt>
      <trkpt lat="43.66564" lon="3.18714">
        <ele>263.3</ele>
        <time>2026-05-19T12:31:51Z</time>
      </trkpt>
      <trkpt lat="43.6657" lon="3.18703">
        <ele>263.1</ele>
        <time>2026-05-19T12:31:56Z</time>
      </trkpt>
      <trkpt lat="43.66574" lon="3.187">
        <ele>263</ele>
        <time>2026-05-19T12:32:01Z</time>
      </trkpt>
      <trkpt lat="43.6658" lon="3.18689">
        <ele>262.8</ele>
        <time>2026-05-19T12:32:06Z</time>
      </trkpt>
      <trkpt lat="43.66584" lon="3.18686">
        <ele>262.7</ele>
        <time>2026-05-19T12:32:11Z</time>
      </trkpt>
      <trkpt lat="43.66583" lon="3.18674">
        <ele>262.3</ele>
        <time>2026-05-19T12:32:16Z</time>
      </trkpt>
      <trkpt lat="43.66577" lon="3.1867">
        <ele>262</ele>
        <time>2026-05-19T12:32:21Z</time>
      </trkpt>
      <trkpt lat="43.66581" lon="3.18661">
        <ele>261.8</ele>
        <time>2026-05-19T12:32:26Z</time>
      </trkpt>
      <trkpt lat="43.66585" lon="3.18652">
        <ele>261.7</ele>
        <time>2026-05-19T12:32:31Z</time>
      </trkpt>
      <trkpt lat="43.66588" lon="3.18646">
        <ele>261.5</ele>
        <time>2026-05-19T12:32:36Z</time>
      </trkpt>
      <trkpt lat="43.66592" lon="3.18639">
        <ele>261.4</ele>
        <time>2026-05-19T12:32:41Z</time>
      </trkpt>
      <trkpt lat="43.66596" lon="3.1863">
        <ele>261.2</ele>
        <time>2026-05-19T12:32:46Z</time>
      </trkpt>
      <trkpt lat="43.66599" lon="3.18624">
        <ele>261.1</ele>
        <time>2026-05-19T12:32:51Z</time>
      </trkpt>
      <trkpt lat="43.66602" lon="3.18616">
        <ele>260.9</ele>
        <time>2026-05-19T12:32:56Z</time>
      </trkpt>
      <trkpt lat="43.66606" lon="3.18607">
        <ele>260.8</ele>
        <time>2026-05-19T12:33:01Z</time>
      </trkpt>
      <trkpt lat="43.66609" lon="3.186">
        <ele>260.6</ele>
        <time>2026-05-19T12:33:06Z</time>
      </trkpt>
      <trkpt lat="43.66614" lon="3.1859">
        <ele>260.5</ele>
        <time>2026-05-19T12:33:11Z</time>
      </trkpt>
      <trkpt lat="43.66618" lon="3.18582">
        <ele>260.4</ele>
        <time>2026-05-19T12:33:16Z</time>
      </trkpt>
      <trkpt lat="43.66622" lon="3.18574">
        <ele>260.5</ele>
        <time>2026-05-19T12:33:21Z</time>
      </trkpt>
      <trkpt lat="43.66628" lon="3.18566">
        <ele>260.5</ele>
        <time>2026-05-19T12:33:26Z</time>
      </trkpt>
      <trkpt lat="43.66634" lon="3.18558">
        <ele>260.6</ele>
        <time>2026-05-19T12:33:31Z</time>
      </trkpt>
      <trkpt lat="43.66639" lon="3.18552">
        <ele>260.7</ele>
        <time>2026-05-19T12:33:36Z</time>
      </trkpt>
      <trkpt lat="43.66644" lon="3.18544">
        <ele>260.7</ele>
        <time>2026-05-19T12:33:41Z</time>
      </trkpt>
      <trkpt lat="43.6665" lon="3.18537">
        <ele>260.8</ele>
        <time>2026-05-19T12:33:46Z</time>
      </trkpt>
      <trkpt lat="43.66653" lon="3.18531">
        <ele>260.8</ele>
        <time>2026-05-19T12:33:51Z</time>
      </trkpt>
      <trkpt lat="43.66658" lon="3.18521">
        <ele>260.9</ele>
        <time>2026-05-19T12:33:56Z</time>
      </trkpt>
      <trkpt lat="43.66663" lon="3.18512">
        <ele>261</ele>
        <time>2026-05-19T12:34:01Z</time>
      </trkpt>
      <trkpt lat="43.66667" lon="3.18507">
        <ele>261</ele>
        <time>2026-05-19T12:34:06Z</time>
      </trkpt>
      <trkpt lat="43.66672" lon="3.185">
        <ele>261.1</ele>
        <time>2026-05-19T12:34:11Z</time>
      </trkpt>
      <trkpt lat="43.66677" lon="3.18493">
        <ele>260.9</ele>
        <time>2026-05-19T12:34:16Z</time>
      </trkpt>
      <trkpt lat="43.66676" lon="3.18489">
        <ele>260.7</ele>
        <time>2026-05-19T12:34:21Z</time>
      </trkpt>
      <trkpt lat="43.66675" lon="3.18482">
        <ele>260.3</ele>
        <time>2026-05-19T12:34:26Z</time>
      </trkpt>
      <trkpt lat="43.66676" lon="3.18478">
        <ele>260.2</ele>
        <time>2026-05-19T12:34:31Z</time>
      </trkpt>
      <trkpt lat="43.66681" lon="3.18468">
        <ele>259.8</ele>
        <time>2026-05-19T12:34:36Z</time>
      </trkpt>
      <trkpt lat="43.66686" lon="3.18462">
        <ele>259.6</ele>
        <time>2026-05-19T12:34:41Z</time>
      </trkpt>
      <trkpt lat="43.66691" lon="3.18453">
        <ele>259.3</ele>
        <time>2026-05-19T12:34:46Z</time>
      </trkpt>
      <trkpt lat="43.66695" lon="3.18445">
        <ele>259</ele>
        <time>2026-05-19T12:34:51Z</time>
      </trkpt>
      <trkpt lat="43.66699" lon="3.1844">
        <ele>258.9</ele>
        <time>2026-05-19T12:34:56Z</time>
      </trkpt>
      <trkpt lat="43.66704" lon="3.18433">
        <ele>258.7</ele>
        <time>2026-05-19T12:35:01Z</time>
      </trkpt>
      <trkpt lat="43.66708" lon="3.18424">
        <ele>258.3</ele>
        <time>2026-05-19T12:35:06Z</time>
      </trkpt>
      <trkpt lat="43.66712" lon="3.18416">
        <ele>258.1</ele>
        <time>2026-05-19T12:35:11Z</time>
      </trkpt>
      <trkpt lat="43.66707" lon="3.18409">
        <ele>257.7</ele>
        <time>2026-05-19T12:35:16Z</time>
      </trkpt>
      <trkpt lat="43.667" lon="3.18404">
        <ele>257.5</ele>
        <time>2026-05-19T12:35:21Z</time>
      </trkpt>
      <trkpt lat="43.66693" lon="3.18399">
        <ele>257.2</ele>
        <time>2026-05-19T12:35:26Z</time>
      </trkpt>
      <trkpt lat="43.66687" lon="3.18394">
        <ele>257</ele>
        <time>2026-05-19T12:35:31Z</time>
      </trkpt>
      <trkpt lat="43.66682" lon="3.18391">
        <ele>256.9</ele>
        <time>2026-05-19T12:35:36Z</time>
      </trkpt>
      <trkpt lat="43.66678" lon="3.18389">
        <ele>256.8</ele>
        <time>2026-05-19T12:35:41Z</time>
      </trkpt>
      <trkpt lat="43.66673" lon="3.18387">
        <ele>256.7</ele>
        <time>2026-05-19T12:35:46Z</time>
      </trkpt>
      <trkpt lat="43.66672" lon="3.18388">
        <ele>256.7</ele>
        <time>2026-05-19T12:35:51Z</time>
      </trkpt>
      <trkpt lat="43.6667" lon="3.18385">
        <ele>256.7</ele>
        <time>2026-05-19T12:35:56Z</time>
      </trkpt>
      <trkpt lat="43.66665" lon="3.18381">
        <ele>256.6</ele>
        <time>2026-05-19T12:36:01Z</time>
      </trkpt>
      <trkpt lat="43.6666" lon="3.18376">
        <ele>256.5</ele>
        <time>2026-05-19T12:36:06Z</time>
      </trkpt>
      <trkpt lat="43.66657" lon="3.18373">
        <ele>256.4</ele>
        <time>2026-05-19T12:36:11Z</time>
      </trkpt>
      <trkpt lat="43.66657" lon="3.18372">
        <ele>256.4</ele>
        <time>2026-05-19T12:36:16Z</time>
      </trkpt>
      <trkpt lat="43.66657" lon="3.18371">
        <ele>256.4</ele>
        <time>2026-05-19T12:36:21Z</time>
      </trkpt>
      <trkpt lat="43.66657" lon="3.18371">
        <ele>256.4</ele>
        <time>2026-05-19T12:36:26Z</time>
      </trkpt>
      <trkpt lat="43.66657" lon="3.18371">
        <ele>256.4</ele>
        <time>2026-05-19T12:36:31Z</time>
      </trkpt>
      <trkpt lat="43.66653" lon="3.18368">
        <ele>256.3</ele>
        <time>2026-05-19T12:36:36Z</time>
      </trkpt>
      <trkpt lat="43.66647" lon="3.18363">
        <ele>256.2</ele>
        <time>2026-05-19T12:36:41Z</time>
      </trkpt>
      <trkpt lat="43.6664" lon="3.18359">
        <ele>256.1</ele>
        <time>2026-05-19T12:36:46Z</time>
      </trkpt>
      <trkpt lat="43.66634" lon="3.18354">
        <ele>256</ele>
        <time>2026-05-19T12:36:51Z</time>
      </trkpt>
      <trkpt lat="43.66627" lon="3.18352">
        <ele>255.9</ele>
        <time>2026-05-19T12:36:56Z</time>
      </trkpt>
      <trkpt lat="43.6662" lon="3.18347">
        <ele>255.7</ele>
        <time>2026-05-19T12:37:01Z</time>
      </trkpt>
      <trkpt lat="43.66613" lon="3.18344">
        <ele>255.6</ele>
        <time>2026-05-19T12:37:06Z</time>
      </trkpt>
      <trkpt lat="43.66606" lon="3.1834">
        <ele>255.4</ele>
        <time>2026-05-19T12:37:11Z</time>
      </trkpt>
      <trkpt lat="43.66601" lon="3.18337">
        <ele>255.3</ele>
        <time>2026-05-19T12:37:16Z</time>
      </trkpt>
      <trkpt lat="43.66595" lon="3.18334">
        <ele>255.2</ele>
        <time>2026-05-19T12:37:21Z</time>
      </trkpt>
      <trkpt lat="43.66589" lon="3.18333">
        <ele>255.1</ele>
        <time>2026-05-19T12:37:26Z</time>
      </trkpt>
      <trkpt lat="43.66583" lon="3.1833">
        <ele>254.9</ele>
        <time>2026-05-19T12:37:31Z</time>
      </trkpt>
      <trkpt lat="43.66576" lon="3.18328">
        <ele>254.9</ele>
        <time>2026-05-19T12:37:36Z</time>
      </trkpt>
      <trkpt lat="43.66569" lon="3.18329">
        <ele>254.9</ele>
        <time>2026-05-19T12:37:41Z</time>
      </trkpt>
      <trkpt lat="43.66561" lon="3.18328">
        <ele>254.9</ele>
        <time>2026-05-19T12:37:46Z</time>
      </trkpt>
      <trkpt lat="43.66554" lon="3.18325">
        <ele>254.8</ele>
        <time>2026-05-19T12:37:51Z</time>
      </trkpt>
      <trkpt lat="43.66547" lon="3.18324">
        <ele>254.8</ele>
        <time>2026-05-19T12:37:56Z</time>
      </trkpt>
      <trkpt lat="43.66541" lon="3.18322">
        <ele>254.7</ele>
        <time>2026-05-19T12:38:01Z</time>
      </trkpt>
      <trkpt lat="43.66534" lon="3.1832">
        <ele>254.7</ele>
        <time>2026-05-19T12:38:06Z</time>
      </trkpt>
      <trkpt lat="43.66528" lon="3.18318">
        <ele>254.6</ele>
        <time>2026-05-19T12:38:11Z</time>
      </trkpt>
      <trkpt lat="43.66521" lon="3.18317">
        <ele>254.6</ele>
        <time>2026-05-19T12:38:16Z</time>
      </trkpt>
      <trkpt lat="43.66514" lon="3.18314">
        <ele>254.5</ele>
        <time>2026-05-19T12:38:21Z</time>
      </trkpt>
      <trkpt lat="43.66507" lon="3.18311">
        <ele>254.5</ele>
        <time>2026-05-19T12:38:26Z</time>
      </trkpt>
      <trkpt lat="43.665" lon="3.18312">
        <ele>254.5</ele>
        <time>2026-05-19T12:38:31Z</time>
      </trkpt>
      <trkpt lat="43.66493" lon="3.1831">
        <ele>254.2</ele>
        <time>2026-05-19T12:38:36Z</time>
      </trkpt>
      <trkpt lat="43.66485" lon="3.18308">
        <ele>254</ele>
        <time>2026-05-19T12:38:41Z</time>
      </trkpt>
      <trkpt lat="43.66479" lon="3.18304">
        <ele>253.7</ele>
        <time>2026-05-19T12:38:46Z</time>
      </trkpt>
      <trkpt lat="43.66473" lon="3.183">
        <ele>253.5</ele>
        <time>2026-05-19T12:38:51Z</time>
      </trkpt>
      <trkpt lat="43.66471" lon="3.18298">
        <ele>253.4</ele>
        <time>2026-05-19T12:38:56Z</time>
      </trkpt>
      <trkpt lat="43.6647" lon="3.18298">
        <ele>253.4</ele>
        <time>2026-05-19T12:39:01Z</time>
      </trkpt>
      <trkpt lat="43.6647" lon="3.18298">
        <ele>253.4</ele>
        <time>2026-05-19T12:39:06Z</time>
      </trkpt>
      <trkpt lat="43.6647" lon="3.18298">
        <ele>253.4</ele>
        <time>2026-05-19T12:39:11Z</time>
      </trkpt>
      <trkpt lat="43.6647" lon="3.18298">
        <ele>253.4</ele>
        <time>2026-05-19T12:39:16Z</time>
      </trkpt>
      <trkpt lat="43.66467" lon="3.18294">
        <ele>253.2</ele>
        <time>2026-05-19T12:39:21Z</time>
      </trkpt>
      <trkpt lat="43.66461" lon="3.18289">
        <ele>253</ele>
        <time>2026-05-19T12:39:26Z</time>
      </trkpt>
      <trkpt lat="43.66457" lon="3.18282">
        <ele>252.9</ele>
        <time>2026-05-19T12:39:31Z</time>
      </trkpt>
      <trkpt lat="43.66455" lon="3.18274">
        <ele>252.7</ele>
        <time>2026-05-19T12:39:36Z</time>
      </trkpt>
      <trkpt lat="43.66453" lon="3.18265">
        <ele>252.6</ele>
        <time>2026-05-19T12:39:41Z</time>
      </trkpt>
      <trkpt lat="43.66451" lon="3.18257">
        <ele>252.5</ele>
        <time>2026-05-19T12:39:46Z</time>
      </trkpt>
      <trkpt lat="43.66451" lon="3.18249">
        <ele>252.4</ele>
        <time>2026-05-19T12:39:51Z</time>
      </trkpt>
      <trkpt lat="43.66449" lon="3.18239">
        <ele>251.9</ele>
        <time>2026-05-19T12:39:56Z</time>
      </trkpt>
      <trkpt lat="43.66446" lon="3.18229">
        <ele>251.4</ele>
        <time>2026-05-19T12:40:01Z</time>
      </trkpt>
      <trkpt lat="43.66445" lon="3.1822">
        <ele>251</ele>
        <time>2026-05-19T12:40:06Z</time>
      </trkpt>
      <trkpt lat="43.66441" lon="3.18212">
        <ele>250.6</ele>
        <time>2026-05-19T12:40:11Z</time>
      </trkpt>
      <trkpt lat="43.66439" lon="3.18202">
        <ele>250.1</ele>
        <time>2026-05-19T12:40:16Z</time>
      </trkpt>
      <trkpt lat="43.66438" lon="3.18192">
        <ele>249.7</ele>
        <time>2026-05-19T12:40:21Z</time>
      </trkpt>
      <trkpt lat="43.66439" lon="3.18181">
        <ele>249.2</ele>
        <time>2026-05-19T12:40:26Z</time>
      </trkpt>
      <trkpt lat="43.6644" lon="3.1817">
        <ele>248.7</ele>
        <time>2026-05-19T12:40:31Z</time>
      </trkpt>
      <trkpt lat="43.6644" lon="3.1816">
        <ele>248.5</ele>
        <time>2026-05-19T12:40:36Z</time>
      </trkpt>
      <trkpt lat="43.66442" lon="3.18145">
        <ele>248.4</ele>
        <time>2026-05-19T12:40:41Z</time>
      </trkpt>
      <trkpt lat="43.66446" lon="3.18141">
        <ele>248.5</ele>
        <time>2026-05-19T12:40:46Z</time>
      </trkpt>
      <trkpt lat="43.66446" lon="3.18132">
        <ele>248.4</ele>
        <time>2026-05-19T12:40:51Z</time>
      </trkpt>
      <trkpt lat="43.66444" lon="3.18123">
        <ele>248.3</ele>
        <time>2026-05-19T12:40:56Z</time>
      </trkpt>
      <trkpt lat="43.6644" lon="3.18114">
        <ele>248.2</ele>
        <time>2026-05-19T12:41:01Z</time>
      </trkpt>
      <trkpt lat="43.66435" lon="3.18106">
        <ele>248.1</ele>
        <time>2026-05-19T12:41:06Z</time>
      </trkpt>
      <trkpt lat="43.66429" lon="3.18102">
        <ele>248.1</ele>
        <time>2026-05-19T12:41:11Z</time>
      </trkpt>
      <trkpt lat="43.66423" lon="3.18097">
        <ele>248</ele>
        <time>2026-05-19T12:41:16Z</time>
      </trkpt>
      <trkpt lat="43.66419" lon="3.18092">
        <ele>248</ele>
        <time>2026-05-19T12:41:21Z</time>
      </trkpt>
      <trkpt lat="43.66415" lon="3.18086">
        <ele>248.1</ele>
        <time>2026-05-19T12:41:26Z</time>
      </trkpt>
      <trkpt lat="43.66414" lon="3.18084">
        <ele>248.1</ele>
        <time>2026-05-19T12:41:31Z</time>
      </trkpt>
      <trkpt lat="43.66416" lon="3.18079">
        <ele>248</ele>
        <time>2026-05-19T12:41:36Z</time>
      </trkpt>
      <trkpt lat="43.66422" lon="3.18072">
        <ele>248</ele>
        <time>2026-05-19T12:41:41Z</time>
      </trkpt>
      <trkpt lat="43.66428" lon="3.18071">
        <ele>248</ele>
        <time>2026-05-19T12:41:46Z</time>
      </trkpt>
      <trkpt lat="43.66432" lon="3.18072">
        <ele>248</ele>
        <time>2026-05-19T12:41:51Z</time>
      </trkpt>
      <trkpt lat="43.66433" lon="3.18073">
        <ele>248</ele>
        <time>2026-05-19T12:41:56Z</time>
      </trkpt>
      <trkpt lat="43.66437" lon="3.18071">
        <ele>248</ele>
        <time>2026-05-19T12:42:01Z</time>
      </trkpt>
      <trkpt lat="43.66441" lon="3.1807">
        <ele>248</ele>
        <time>2026-05-19T12:42:06Z</time>
      </trkpt>
      <trkpt lat="43.66441" lon="3.1807">
        <ele>248</ele>
        <time>2026-05-19T12:42:11Z</time>
      </trkpt>
      <trkpt lat="43.66441" lon="3.1807">
        <ele>248</ele>
        <time>2026-05-19T12:42:16Z</time>
      </trkpt>
      <trkpt lat="43.66441" lon="3.1807">
        <ele>248</ele>
        <time>2026-05-19T12:42:21Z</time>
      </trkpt>
      <trkpt lat="43.66441" lon="3.1807">
        <ele>248</ele>
        <time>2026-05-19T12:42:26Z</time>
      </trkpt>
      <trkpt lat="43.66441" lon="3.1807">
        <ele>248</ele>
        <time>2026-05-19T12:42:31Z</time>
      </trkpt>
      <trkpt lat="43.66441" lon="3.1807">
        <ele>248</ele>
        <time>2026-05-19T12:42:36Z</time>
      </trkpt>
      <trkpt lat="43.66441" lon="3.1807">
        <ele>248</ele>
        <time>2026-05-19T12:42:41Z</time>
      </trkpt>
      <trkpt lat="43.66441" lon="3.1807">
        <ele>248</ele>
        <time>2026-05-19T12:42:46Z</time>
      </trkpt>
      <trkpt lat="43.66441" lon="3.1807">
        <ele>248</ele>
        <time>2026-05-19T12:42:51Z</time>
      </trkpt>
      <trkpt lat="43.66441" lon="3.1807">
        <ele>248</ele>
        <time>2026-05-19T12:42:56Z</time>
      </trkpt>
      <trkpt lat="43.66441" lon="3.1807">
        <ele>248</ele>
        <time>2026-05-19T12:43:01Z</time>
      </trkpt>
      <trkpt lat="43.66441" lon="3.1807">
        <ele>248</ele>
        <time>2026-05-19T12:43:06Z</time>
      </trkpt>
      <trkpt lat="43.66446" lon="3.18066">
        <ele>248</ele>
        <time>2026-05-19T12:43:11Z</time>
      </trkpt>
      <trkpt lat="43.66448" lon="3.18062">
        <ele>248</ele>
        <time>2026-05-19T12:43:16Z</time>
      </trkpt>
      <trkpt lat="43.66453" lon="3.18058">
        <ele>248</ele>
        <time>2026-05-19T12:43:21Z</time>
      </trkpt>
      <trkpt lat="43.66458" lon="3.18055">
        <ele>248</ele>
        <time>2026-05-19T12:43:26Z</time>
      </trkpt>
      <trkpt lat="43.66463" lon="3.18051">
        <ele>248</ele>
        <time>2026-05-19T12:43:31Z</time>
      </trkpt>
      <trkpt lat="43.66468" lon="3.18045">
        <ele>248</ele>
        <time>2026-05-19T12:43:36Z</time>
      </trkpt>
      <trkpt lat="43.66473" lon="3.18037">
        <ele>248</ele>
        <time>2026-05-19T12:43:41Z</time>
      </trkpt>
      <trkpt lat="43.66477" lon="3.18032">
        <ele>248</ele>
        <time>2026-05-19T12:43:46Z</time>
      </trkpt>
      <trkpt lat="43.66483" lon="3.18025">
        <ele>248</ele>
        <time>2026-05-19T12:43:51Z</time>
      </trkpt>
      <trkpt lat="43.66487" lon="3.18018">
        <ele>248</ele>
        <time>2026-05-19T12:43:56Z</time>
      </trkpt>
      <trkpt lat="43.66483" lon="3.18005">
        <ele>248</ele>
        <time>2026-05-19T12:44:01Z</time>
      </trkpt>
      <trkpt lat="43.66482" lon="3.17994">
        <ele>248</ele>
        <time>2026-05-19T12:44:06Z</time>
      </trkpt>
      <trkpt lat="43.6648" lon="3.17984">
        <ele>247.9</ele>
        <time>2026-05-19T12:44:11Z</time>
      </trkpt>
      <trkpt lat="43.6648" lon="3.17974">
        <ele>247.8</ele>
        <time>2026-05-19T12:44:16Z</time>
      </trkpt>
      <trkpt lat="43.6648" lon="3.17965">
        <ele>247.8</ele>
        <time>2026-05-19T12:44:21Z</time>
      </trkpt>
      <trkpt lat="43.6648" lon="3.17955">
        <ele>247.7</ele>
        <time>2026-05-19T12:44:26Z</time>
      </trkpt>
      <trkpt lat="43.6648" lon="3.17945">
        <ele>247.7</ele>
        <time>2026-05-19T12:44:31Z</time>
      </trkpt>
      <trkpt lat="43.6648" lon="3.17935">
        <ele>247.6</ele>
        <time>2026-05-19T12:44:36Z</time>
      </trkpt>
      <trkpt lat="43.6648" lon="3.17926">
        <ele>247.5</ele>
        <time>2026-05-19T12:44:41Z</time>
      </trkpt>
      <trkpt lat="43.66479" lon="3.17919">
        <ele>247.5</ele>
        <time>2026-05-19T12:44:46Z</time>
      </trkpt>
      <trkpt lat="43.66479" lon="3.17907">
        <ele>247.4</ele>
        <time>2026-05-19T12:44:51Z</time>
      </trkpt>
      <trkpt lat="43.66481" lon="3.17899">
        <ele>247.2</ele>
        <time>2026-05-19T12:44:56Z</time>
      </trkpt>
      <trkpt lat="43.66483" lon="3.1789">
        <ele>247.1</ele>
        <time>2026-05-19T12:45:01Z</time>
      </trkpt>
      <trkpt lat="43.66483" lon="3.1788">
        <ele>247</ele>
        <time>2026-05-19T12:45:06Z</time>
      </trkpt>
      <trkpt lat="43.66484" lon="3.1787">
        <ele>246.8</ele>
        <time>2026-05-19T12:45:11Z</time>
      </trkpt>
      <trkpt lat="43.66483" lon="3.17861">
        <ele>246.7</ele>
        <time>2026-05-19T12:45:16Z</time>
      </trkpt>
      <trkpt lat="43.66486" lon="3.17849">
        <ele>246.5</ele>
        <time>2026-05-19T12:45:21Z</time>
      </trkpt>
      <trkpt lat="43.66487" lon="3.17843">
        <ele>246.4</ele>
        <time>2026-05-19T12:45:26Z</time>
      </trkpt>
      <trkpt lat="43.66488" lon="3.17831">
        <ele>246.3</ele>
        <time>2026-05-19T12:45:31Z</time>
      </trkpt>
      <trkpt lat="43.66491" lon="3.17819">
        <ele>246.6</ele>
        <time>2026-05-19T12:45:36Z</time>
      </trkpt>
      <trkpt lat="43.66491" lon="3.17812">
        <ele>246.7</ele>
        <time>2026-05-19T12:45:41Z</time>
      </trkpt>
      <trkpt lat="43.66493" lon="3.17799">
        <ele>247</ele>
        <time>2026-05-19T12:45:46Z</time>
      </trkpt>
      <trkpt lat="43.66494" lon="3.17791">
        <ele>247.2</ele>
        <time>2026-05-19T12:45:51Z</time>
      </trkpt>
      <trkpt lat="43.66493" lon="3.17786">
        <ele>247.3</ele>
        <time>2026-05-19T12:45:56Z</time>
      </trkpt>
      <trkpt lat="43.665" lon="3.17777">
        <ele>247.4</ele>
        <time>2026-05-19T12:46:01Z</time>
      </trkpt>
      <trkpt lat="43.66502" lon="3.17768">
        <ele>247.5</ele>
        <time>2026-05-19T12:46:06Z</time>
      </trkpt>
      <trkpt lat="43.66504" lon="3.17753">
        <ele>247.8</ele>
        <time>2026-05-19T12:46:11Z</time>
      </trkpt>
      <trkpt lat="43.66503" lon="3.17747">
        <ele>247.9</ele>
        <time>2026-05-19T12:46:16Z</time>
      </trkpt>
      <trkpt lat="43.66505" lon="3.17733">
        <ele>247.8</ele>
        <time>2026-05-19T12:46:21Z</time>
      </trkpt>
      <trkpt lat="43.66507" lon="3.17719">
        <ele>247.7</ele>
        <time>2026-05-19T12:46:26Z</time>
      </trkpt>
      <trkpt lat="43.66506" lon="3.17712">
        <ele>247.7</ele>
        <time>2026-05-19T12:46:31Z</time>
      </trkpt>
      <trkpt lat="43.66509" lon="3.17705">
        <ele>247.6</ele>
        <time>2026-05-19T12:46:36Z</time>
      </trkpt>
      <trkpt lat="43.66512" lon="3.17689">
        <ele>247.4</ele>
        <time>2026-05-19T12:46:41Z</time>
      </trkpt>
      <trkpt lat="43.66512" lon="3.17684">
        <ele>247.3</ele>
        <time>2026-05-19T12:46:46Z</time>
      </trkpt>
      <trkpt lat="43.66514" lon="3.17672">
        <ele>247.2</ele>
        <time>2026-05-19T12:46:51Z</time>
      </trkpt>
      <trkpt lat="43.66518" lon="3.17674">
        <ele>247</ele>
        <time>2026-05-19T12:46:56Z</time>
      </trkpt>
      <trkpt lat="43.66529" lon="3.17668">
        <ele>246.3</ele>
        <time>2026-05-19T12:47:01Z</time>
      </trkpt>
      <trkpt lat="43.66535" lon="3.17665">
        <ele>245.9</ele>
        <time>2026-05-19T12:47:06Z</time>
      </trkpt>
      <trkpt lat="43.66537" lon="3.17659">
        <ele>245.9</ele>
        <time>2026-05-19T12:47:11Z</time>
      </trkpt>
      <trkpt lat="43.66543" lon="3.17651">
        <ele>245.6</ele>
        <time>2026-05-19T12:47:16Z</time>
      </trkpt>
      <trkpt lat="43.66547" lon="3.17639">
        <ele>245.6</ele>
        <time>2026-05-19T12:47:21Z</time>
      </trkpt>
      <trkpt lat="43.66547" lon="3.17631">
        <ele>245.7</ele>
        <time>2026-05-19T12:47:26Z</time>
      </trkpt>
      <trkpt lat="43.66547" lon="3.17623">
        <ele>245.8</ele>
        <time>2026-05-19T12:47:31Z</time>
      </trkpt>
      <trkpt lat="43.66549" lon="3.17609">
        <ele>245.9</ele>
        <time>2026-05-19T12:47:36Z</time>
      </trkpt>
      <trkpt lat="43.66549" lon="3.17599">
        <ele>246</ele>
        <time>2026-05-19T12:47:41Z</time>
      </trkpt>
      <trkpt lat="43.66548" lon="3.17594">
        <ele>246.1</ele>
        <time>2026-05-19T12:47:46Z</time>
      </trkpt>
      <trkpt lat="43.6655" lon="3.17581">
        <ele>246.2</ele>
        <time>2026-05-19T12:47:51Z</time>
      </trkpt>
      <trkpt lat="43.66558" lon="3.17574">
        <ele>246.1</ele>
        <time>2026-05-19T12:47:56Z</time>
      </trkpt>
      <trkpt lat="43.66571" lon="3.17572">
        <ele>245.7</ele>
        <time>2026-05-19T12:48:01Z</time>
      </trkpt>
      <trkpt lat="43.66576" lon="3.1756">
        <ele>245.8</ele>
        <time>2026-05-19T12:48:06Z</time>
      </trkpt>
      <trkpt lat="43.66577" lon="3.17556">
        <ele>245.9</ele>
        <time>2026-05-19T12:48:11Z</time>
      </trkpt>
      <trkpt lat="43.66578" lon="3.17549">
        <ele>246</ele>
        <time>2026-05-19T12:48:16Z</time>
      </trkpt>
      <trkpt lat="43.66579" lon="3.1754">
        <ele>246.2</ele>
        <time>2026-05-19T12:48:21Z</time>
      </trkpt>
      <trkpt lat="43.66579" lon="3.17531">
        <ele>246.4</ele>
        <time>2026-05-19T12:48:26Z</time>
      </trkpt>
      <trkpt lat="43.66579" lon="3.17523">
        <ele>246.6</ele>
        <time>2026-05-19T12:48:31Z</time>
      </trkpt>
      <trkpt lat="43.66579" lon="3.17513">
        <ele>246.8</ele>
        <time>2026-05-19T12:48:36Z</time>
      </trkpt>
      <trkpt lat="43.6658" lon="3.17505">
        <ele>247</ele>
        <time>2026-05-19T12:48:41Z</time>
      </trkpt>
      <trkpt lat="43.6658" lon="3.17497">
        <ele>247.1</ele>
        <time>2026-05-19T12:48:46Z</time>
      </trkpt>
      <trkpt lat="43.66581" lon="3.17487">
        <ele>247.2</ele>
        <time>2026-05-19T12:48:51Z</time>
      </trkpt>
      <trkpt lat="43.66583" lon="3.17478">
        <ele>247.3</ele>
        <time>2026-05-19T12:48:56Z</time>
      </trkpt>
      <trkpt lat="43.66585" lon="3.17467">
        <ele>247.3</ele>
        <time>2026-05-19T12:49:01Z</time>
      </trkpt>
      <trkpt lat="43.66588" lon="3.17457">
        <ele>247.3</ele>
        <time>2026-05-19T12:49:06Z</time>
      </trkpt>
      <trkpt lat="43.6659" lon="3.17447">
        <ele>247.4</ele>
        <time>2026-05-19T12:49:11Z</time>
      </trkpt>
      <trkpt lat="43.66591" lon="3.1744">
        <ele>247.4</ele>
        <time>2026-05-19T12:49:16Z</time>
      </trkpt>
      <trkpt lat="43.66593" lon="3.1743">
        <ele>247.5</ele>
        <time>2026-05-19T12:49:21Z</time>
      </trkpt>
      <trkpt lat="43.66594" lon="3.17423">
        <ele>247.5</ele>
        <time>2026-05-19T12:49:26Z</time>
      </trkpt>
      <trkpt lat="43.66597" lon="3.17411">
        <ele>247.6</ele>
        <time>2026-05-19T12:49:31Z</time>
      </trkpt>
      <trkpt lat="43.66598" lon="3.17405">
        <ele>247.7</ele>
        <time>2026-05-19T12:49:36Z</time>
      </trkpt>
      <trkpt lat="43.66601" lon="3.17393">
        <ele>247.8</ele>
        <time>2026-05-19T12:49:41Z</time>
      </trkpt>
      <trkpt lat="43.66605" lon="3.17387">
        <ele>247.7</ele>
        <time>2026-05-19T12:49:46Z</time>
      </trkpt>
      <trkpt lat="43.66608" lon="3.17379">
        <ele>247.7</ele>
        <time>2026-05-19T12:49:51Z</time>
      </trkpt>
      <trkpt lat="43.66611" lon="3.17369">
        <ele>247.8</ele>
        <time>2026-05-19T12:49:56Z</time>
      </trkpt>
      <trkpt lat="43.66614" lon="3.17358">
        <ele>247.8</ele>
        <time>2026-05-19T12:50:01Z</time>
      </trkpt>
      <trkpt lat="43.66618" lon="3.17355">
        <ele>247.6</ele>
        <time>2026-05-19T12:50:06Z</time>
      </trkpt>
      <trkpt lat="43.66618" lon="3.17346">
        <ele>247.7</ele>
        <time>2026-05-19T12:50:11Z</time>
      </trkpt>
      <trkpt lat="43.66619" lon="3.17336">
        <ele>247.8</ele>
        <time>2026-05-19T12:50:16Z</time>
      </trkpt>
      <trkpt lat="43.66619" lon="3.17325">
        <ele>247.9</ele>
        <time>2026-05-19T12:50:21Z</time>
      </trkpt>
      <trkpt lat="43.66619" lon="3.17316">
        <ele>247.9</ele>
        <time>2026-05-19T12:50:26Z</time>
      </trkpt>
      <trkpt lat="43.6662" lon="3.17305">
        <ele>247.8</ele>
        <time>2026-05-19T12:50:31Z</time>
      </trkpt>
      <trkpt lat="43.66621" lon="3.17299">
        <ele>247.7</ele>
        <time>2026-05-19T12:50:36Z</time>
      </trkpt>
      <trkpt lat="43.66627" lon="3.17292">
        <ele>247.4</ele>
        <time>2026-05-19T12:50:41Z</time>
      </trkpt>
      <trkpt lat="43.66633" lon="3.17291">
        <ele>247</ele>
        <time>2026-05-19T12:50:46Z</time>
      </trkpt>
      <trkpt lat="43.66635" lon="3.17288">
        <ele>246.9</ele>
        <time>2026-05-19T12:50:51Z</time>
      </trkpt>
      <trkpt lat="43.66633" lon="3.17277">
        <ele>247</ele>
        <time>2026-05-19T12:50:56Z</time>
      </trkpt>
      <trkpt lat="43.66629" lon="3.1727">
        <ele>247.3</ele>
        <time>2026-05-19T12:51:01Z</time>
      </trkpt>
      <trkpt lat="43.66626" lon="3.17263">
        <ele>247.4</ele>
        <time>2026-05-19T12:51:06Z</time>
      </trkpt>
      <trkpt lat="43.66624" lon="3.17254">
        <ele>247.6</ele>
        <time>2026-05-19T12:51:11Z</time>
      </trkpt>
      <trkpt lat="43.66621" lon="3.17247">
        <ele>247.6</ele>
        <time>2026-05-19T12:51:16Z</time>
      </trkpt>
      <trkpt lat="43.6662" lon="3.17236">
        <ele>247.2</ele>
        <time>2026-05-19T12:51:21Z</time>
      </trkpt>
      <trkpt lat="43.66621" lon="3.17227">
        <ele>246.8</ele>
        <time>2026-05-19T12:51:26Z</time>
      </trkpt>
      <trkpt lat="43.6662" lon="3.17219">
        <ele>246.5</ele>
        <time>2026-05-19T12:51:31Z</time>
      </trkpt>
      <trkpt lat="43.6662" lon="3.17211">
        <ele>246.1</ele>
        <time>2026-05-19T12:51:36Z</time>
      </trkpt>
      <trkpt lat="43.66619" lon="3.17201">
        <ele>245.8</ele>
        <time>2026-05-19T12:51:41Z</time>
      </trkpt>
      <trkpt lat="43.66618" lon="3.17191">
        <ele>245.4</ele>
        <time>2026-05-19T12:51:46Z</time>
      </trkpt>
      <trkpt lat="43.66618" lon="3.1718">
        <ele>244.9</ele>
        <time>2026-05-19T12:51:51Z</time>
      </trkpt>
      <trkpt lat="43.66619" lon="3.17171">
        <ele>244.5</ele>
        <time>2026-05-19T12:51:56Z</time>
      </trkpt>
      <trkpt lat="43.66619" lon="3.1716">
        <ele>244</ele>
        <time>2026-05-19T12:52:01Z</time>
      </trkpt>
      <trkpt lat="43.66619" lon="3.17151">
        <ele>243.7</ele>
        <time>2026-05-19T12:52:06Z</time>
      </trkpt>
      <trkpt lat="43.66619" lon="3.17142">
        <ele>243.4</ele>
        <time>2026-05-19T12:52:11Z</time>
      </trkpt>
      <trkpt lat="43.66616" lon="3.17135">
        <ele>243.2</ele>
        <time>2026-05-19T12:52:16Z</time>
      </trkpt>
      <trkpt lat="43.66612" lon="3.17131">
        <ele>243.2</ele>
        <time>2026-05-19T12:52:21Z</time>
      </trkpt>
      <trkpt lat="43.66606" lon="3.17127">
        <ele>243.3</ele>
        <time>2026-05-19T12:52:26Z</time>
      </trkpt>
      <trkpt lat="43.666" lon="3.17122">
        <ele>243.3</ele>
        <time>2026-05-19T12:52:31Z</time>
      </trkpt>
      <trkpt lat="43.66595" lon="3.17117">
        <ele>243.2</ele>
        <time>2026-05-19T12:52:36Z</time>
      </trkpt>
      <trkpt lat="43.66589" lon="3.17115">
        <ele>243.3</ele>
        <time>2026-05-19T12:52:41Z</time>
      </trkpt>
      <trkpt lat="43.66582" lon="3.17113">
        <ele>243.6</ele>
        <time>2026-05-19T12:52:46Z</time>
      </trkpt>
      <trkpt lat="43.66576" lon="3.17113">
        <ele>244.2</ele>
        <time>2026-05-19T12:52:51Z</time>
      </trkpt>
      <trkpt lat="43.66569" lon="3.17109">
        <ele>244.9</ele>
        <time>2026-05-19T12:52:56Z</time>
      </trkpt>
      <trkpt lat="43.66563" lon="3.17108">
        <ele>245.5</ele>
        <time>2026-05-19T12:53:01Z</time>
      </trkpt>
      <trkpt lat="43.66557" lon="3.17107">
        <ele>246.2</ele>
        <time>2026-05-19T12:53:06Z</time>
      </trkpt>
      <trkpt lat="43.66551" lon="3.17104">
        <ele>246.8</ele>
        <time>2026-05-19T12:53:11Z</time>
      </trkpt>
      <trkpt lat="43.66545" lon="3.17101">
        <ele>247.4</ele>
        <time>2026-05-19T12:53:16Z</time>
      </trkpt>
      <trkpt lat="43.66538" lon="3.17098">
        <ele>248.2</ele>
        <time>2026-05-19T12:53:21Z</time>
      </trkpt>
      <trkpt lat="43.66531" lon="3.17094">
        <ele>249</ele>
        <time>2026-05-19T12:53:26Z</time>
      </trkpt>
      <trkpt lat="43.66526" lon="3.17088">
        <ele>249.6</ele>
        <time>2026-05-19T12:53:31Z</time>
      </trkpt>
      <trkpt lat="43.66522" lon="3.17079">
        <ele>250</ele>
        <time>2026-05-19T12:53:36Z</time>
      </trkpt>
      <trkpt lat="43.66517" lon="3.1707">
        <ele>250.3</ele>
        <time>2026-05-19T12:53:41Z</time>
      </trkpt>
      <trkpt lat="43.66512" lon="3.17065">
        <ele>250.8</ele>
        <time>2026-05-19T12:53:46Z</time>
      </trkpt>
      <trkpt lat="43.66506" lon="3.17056">
        <ele>251.3</ele>
        <time>2026-05-19T12:53:51Z</time>
      </trkpt>
      <trkpt lat="43.66502" lon="3.17049">
        <ele>251.5</ele>
        <time>2026-05-19T12:53:56Z</time>
      </trkpt>
      <trkpt lat="43.66497" lon="3.17044">
        <ele>251.9</ele>
        <time>2026-05-19T12:54:01Z</time>
      </trkpt>
      <trkpt lat="43.66492" lon="3.17038">
        <ele>252.2</ele>
        <time>2026-05-19T12:54:06Z</time>
      </trkpt>
      <trkpt lat="43.66487" lon="3.17032">
        <ele>252.5</ele>
        <time>2026-05-19T12:54:11Z</time>
      </trkpt>
      <trkpt lat="43.66481" lon="3.17026">
        <ele>252.8</ele>
        <time>2026-05-19T12:54:16Z</time>
      </trkpt>
      <trkpt lat="43.66477" lon="3.1702">
        <ele>253</ele>
        <time>2026-05-19T12:54:21Z</time>
      </trkpt>
      <trkpt lat="43.66474" lon="3.17013">
        <ele>253</ele>
        <time>2026-05-19T12:54:26Z</time>
      </trkpt>
      <trkpt lat="43.6647" lon="3.17005">
        <ele>253.1</ele>
        <time>2026-05-19T12:54:31Z</time>
      </trkpt>
      <trkpt lat="43.66468" lon="3.16998">
        <ele>253</ele>
        <time>2026-05-19T12:54:36Z</time>
      </trkpt>
      <trkpt lat="43.66469" lon="3.1699">
        <ele>252.7</ele>
        <time>2026-05-19T12:54:41Z</time>
      </trkpt>
      <trkpt lat="43.6647" lon="3.16983">
        <ele>252.4</ele>
        <time>2026-05-19T12:54:46Z</time>
      </trkpt>
      <trkpt lat="43.66471" lon="3.16973">
        <ele>252</ele>
        <time>2026-05-19T12:54:51Z</time>
      </trkpt>
      <trkpt lat="43.66474" lon="3.16964">
        <ele>251.5</ele>
        <time>2026-05-19T12:54:56Z</time>
      </trkpt>
      <trkpt lat="43.66476" lon="3.16955">
        <ele>251.1</ele>
        <time>2026-05-19T12:55:01Z</time>
      </trkpt>
      <trkpt lat="43.6648" lon="3.16947">
        <ele>250.5</ele>
        <time>2026-05-19T12:55:06Z</time>
      </trkpt>
      <trkpt lat="43.66482" lon="3.16938">
        <ele>250.1</ele>
        <time>2026-05-19T12:55:11Z</time>
      </trkpt>
      <trkpt lat="43.66484" lon="3.16931">
        <ele>249.7</ele>
        <time>2026-05-19T12:55:16Z</time>
      </trkpt>
      <trkpt lat="43.66486" lon="3.16925">
        <ele>249.4</ele>
        <time>2026-05-19T12:55:21Z</time>
      </trkpt>
      <trkpt lat="43.66487" lon="3.16919">
        <ele>249.2</ele>
        <time>2026-05-19T12:55:26Z</time>
      </trkpt>
      <trkpt lat="43.66488" lon="3.16913">
        <ele>249.2</ele>
        <time>2026-05-19T12:55:31Z</time>
      </trkpt>
      <trkpt lat="43.66489" lon="3.16907">
        <ele>249.5</ele>
        <time>2026-05-19T12:55:36Z</time>
      </trkpt>
      <trkpt lat="43.66491" lon="3.16902">
        <ele>249.6</ele>
        <time>2026-05-19T12:55:41Z</time>
      </trkpt>
      <trkpt lat="43.66494" lon="3.16896">
        <ele>249.7</ele>
        <time>2026-05-19T12:55:46Z</time>
      </trkpt>
      <trkpt lat="43.66496" lon="3.1689">
        <ele>249.9</ele>
        <time>2026-05-19T12:55:51Z</time>
      </trkpt>
      <trkpt lat="43.66499" lon="3.16884">
        <ele>250</ele>
        <time>2026-05-19T12:55:56Z</time>
      </trkpt>
      <trkpt lat="43.66502" lon="3.16878">
        <ele>250.2</ele>
        <time>2026-05-19T12:56:01Z</time>
      </trkpt>
      <trkpt lat="43.66507" lon="3.16871">
        <ele>250.4</ele>
        <time>2026-05-19T12:56:06Z</time>
      </trkpt>
      <trkpt lat="43.66512" lon="3.16865">
        <ele>250.6</ele>
        <time>2026-05-19T12:56:11Z</time>
      </trkpt>
      <trkpt lat="43.66514" lon="3.16862">
        <ele>250.7</ele>
        <time>2026-05-19T12:56:16Z</time>
      </trkpt>
      <trkpt lat="43.66518" lon="3.16856">
        <ele>250.8</ele>
        <time>2026-05-19T12:56:21Z</time>
      </trkpt>
      <trkpt lat="43.66522" lon="3.16849">
        <ele>251.1</ele>
        <time>2026-05-19T12:56:26Z</time>
      </trkpt>
      <trkpt lat="43.66526" lon="3.16841">
        <ele>251.3</ele>
        <time>2026-05-19T12:56:31Z</time>
      </trkpt>
      <trkpt lat="43.66528" lon="3.16832">
        <ele>251.6</ele>
        <time>2026-05-19T12:56:36Z</time>
      </trkpt>
      <trkpt lat="43.6653" lon="3.16822">
        <ele>250.8</ele>
        <time>2026-05-19T12:56:41Z</time>
      </trkpt>
      <trkpt lat="43.66531" lon="3.16817">
        <ele>250.3</ele>
        <time>2026-05-19T12:56:46Z</time>
      </trkpt>
      <trkpt lat="43.66529" lon="3.1681">
        <ele>250</ele>
        <time>2026-05-19T12:56:51Z</time>
      </trkpt>
      <trkpt lat="43.66527" lon="3.16803">
        <ele>249.7</ele>
        <time>2026-05-19T12:56:56Z</time>
      </trkpt>
      <trkpt lat="43.66528" lon="3.16802">
        <ele>249.5</ele>
        <time>2026-05-19T12:57:01Z</time>
      </trkpt>
      <trkpt lat="43.66528" lon="3.16801">
        <ele>249.4</ele>
        <time>2026-05-19T12:57:06Z</time>
      </trkpt>
      <trkpt lat="43.66522" lon="3.16796">
        <ele>249.7</ele>
        <time>2026-05-19T12:57:11Z</time>
      </trkpt>
      <trkpt lat="43.66518" lon="3.16792">
        <ele>249.8</ele>
        <time>2026-05-19T12:57:16Z</time>
      </trkpt>
      <trkpt lat="43.66514" lon="3.16786">
        <ele>249.9</ele>
        <time>2026-05-19T12:57:21Z</time>
      </trkpt>
      <trkpt lat="43.6651" lon="3.16781">
        <ele>250</ele>
        <time>2026-05-19T12:57:26Z</time>
      </trkpt>
      <trkpt lat="43.66506" lon="3.16774">
        <ele>250.2</ele>
        <time>2026-05-19T12:57:31Z</time>
      </trkpt>
      <trkpt lat="43.66501" lon="3.1677">
        <ele>250.6</ele>
        <time>2026-05-19T12:57:36Z</time>
      </trkpt>
      <trkpt lat="43.66493" lon="3.16765">
        <ele>250.9</ele>
        <time>2026-05-19T12:57:41Z</time>
      </trkpt>
      <trkpt lat="43.66487" lon="3.16758">
        <ele>250.9</ele>
        <time>2026-05-19T12:57:46Z</time>
      </trkpt>
      <trkpt lat="43.66482" lon="3.16753">
        <ele>251</ele>
        <time>2026-05-19T12:57:51Z</time>
      </trkpt>
      <trkpt lat="43.66476" lon="3.1675">
        <ele>251.2</ele>
        <time>2026-05-19T12:57:56Z</time>
      </trkpt>
      <trkpt lat="43.66472" lon="3.16743">
        <ele>250.5</ele>
        <time>2026-05-19T12:58:01Z</time>
      </trkpt>
      <trkpt lat="43.66467" lon="3.16736">
        <ele>249.9</ele>
        <time>2026-05-19T12:58:06Z</time>
      </trkpt>
      <trkpt lat="43.66463" lon="3.16727">
        <ele>249.1</ele>
        <time>2026-05-19T12:58:11Z</time>
      </trkpt>
      <trkpt lat="43.66459" lon="3.16716">
        <ele>248.1</ele>
        <time>2026-05-19T12:58:16Z</time>
      </trkpt>
      <trkpt lat="43.66458" lon="3.16704">
        <ele>246.8</ele>
        <time>2026-05-19T12:58:21Z</time>
      </trkpt>
      <trkpt lat="43.66459" lon="3.16693">
        <ele>245.4</ele>
        <time>2026-05-19T12:58:26Z</time>
      </trkpt>
      <trkpt lat="43.6646" lon="3.16679">
        <ele>243.7</ele>
        <time>2026-05-19T12:58:31Z</time>
      </trkpt>
      <trkpt lat="43.6646" lon="3.1667">
        <ele>242.7</ele>
        <time>2026-05-19T12:58:36Z</time>
      </trkpt>
      <trkpt lat="43.66461" lon="3.16658">
        <ele>241.2</ele>
        <time>2026-05-19T12:58:41Z</time>
      </trkpt>
      <trkpt lat="43.66461" lon="3.16649">
        <ele>240.1</ele>
        <time>2026-05-19T12:58:46Z</time>
      </trkpt>
      <trkpt lat="43.66462" lon="3.16634">
        <ele>238.3</ele>
        <time>2026-05-19T12:58:51Z</time>
      </trkpt>
      <trkpt lat="43.66467" lon="3.16633">
        <ele>237.8</ele>
        <time>2026-05-19T12:58:56Z</time>
      </trkpt>
      <trkpt lat="43.66475" lon="3.16629">
        <ele>236.7</ele>
        <time>2026-05-19T12:59:01Z</time>
      </trkpt>
      <trkpt lat="43.66476" lon="3.16619">
        <ele>235.6</ele>
        <time>2026-05-19T12:59:06Z</time>
      </trkpt>
      <trkpt lat="43.66475" lon="3.1661">
        <ele>234.7</ele>
        <time>2026-05-19T12:59:11Z</time>
      </trkpt>
      <trkpt lat="43.66474" lon="3.16601">
        <ele>233.8</ele>
        <time>2026-05-19T12:59:16Z</time>
      </trkpt>
      <trkpt lat="43.66471" lon="3.16592">
        <ele>233</ele>
        <time>2026-05-19T12:59:21Z</time>
      </trkpt>
      <trkpt lat="43.66466" lon="3.16586">
        <ele>232.5</ele>
        <time>2026-05-19T12:59:26Z</time>
      </trkpt>
      <trkpt lat="43.66461" lon="3.16579">
        <ele>232.3</ele>
        <time>2026-05-19T12:59:31Z</time>
      </trkpt>
      <trkpt lat="43.66456" lon="3.16571">
        <ele>232.1</ele>
        <time>2026-05-19T12:59:36Z</time>
      </trkpt>
      <trkpt lat="43.66451" lon="3.16566">
        <ele>232.1</ele>
        <time>2026-05-19T12:59:41Z</time>
      </trkpt>
      <trkpt lat="43.66447" lon="3.1656">
        <ele>232</ele>
        <time>2026-05-19T12:59:46Z</time>
      </trkpt>
      <trkpt lat="43.66442" lon="3.16554">
        <ele>231.9</ele>
        <time>2026-05-19T12:59:51Z</time>
      </trkpt>
      <trkpt lat="43.66438" lon="3.16548">
        <ele>231.8</ele>
        <time>2026-05-19T12:59:56Z</time>
      </trkpt>
      <trkpt lat="43.66433" lon="3.16541">
        <ele>231.6</ele>
        <time>2026-05-19T13:00:01Z</time>
      </trkpt>
      <trkpt lat="43.66427" lon="3.16532">
        <ele>231.3</ele>
        <time>2026-05-19T13:00:06Z</time>
      </trkpt>
      <trkpt lat="43.66422" lon="3.16525">
        <ele>231.1</ele>
        <time>2026-05-19T13:00:11Z</time>
      </trkpt>
      <trkpt lat="43.66416" lon="3.16517">
        <ele>230.9</ele>
        <time>2026-05-19T13:00:16Z</time>
      </trkpt>
      <trkpt lat="43.66411" lon="3.16509">
        <ele>230.7</ele>
        <time>2026-05-19T13:00:21Z</time>
      </trkpt>
      <trkpt lat="43.66406" lon="3.16502">
        <ele>230.6</ele>
        <time>2026-05-19T13:00:26Z</time>
      </trkpt>
      <trkpt lat="43.664" lon="3.16496">
        <ele>230.7</ele>
        <time>2026-05-19T13:00:31Z</time>
      </trkpt>
      <trkpt lat="43.66395" lon="3.16488">
        <ele>230.7</ele>
        <time>2026-05-19T13:00:36Z</time>
      </trkpt>
      <trkpt lat="43.6639" lon="3.16483">
        <ele>230.7</ele>
        <time>2026-05-19T13:00:41Z</time>
      </trkpt>
      <trkpt lat="43.66385" lon="3.16476">
        <ele>230.7</ele>
        <time>2026-05-19T13:00:46Z</time>
      </trkpt>
      <trkpt lat="43.6638" lon="3.16468">
        <ele>230.7</ele>
        <time>2026-05-19T13:00:51Z</time>
      </trkpt>
      <trkpt lat="43.66375" lon="3.16463">
        <ele>230.7</ele>
        <time>2026-05-19T13:00:56Z</time>
      </trkpt>
      <trkpt lat="43.6637" lon="3.16455">
        <ele>230.6</ele>
        <time>2026-05-19T13:01:01Z</time>
      </trkpt>
      <trkpt lat="43.66365" lon="3.16448">
        <ele>230.5</ele>
        <time>2026-05-19T13:01:06Z</time>
      </trkpt>
      <trkpt lat="43.6636" lon="3.16441">
        <ele>230.3</ele>
        <time>2026-05-19T13:01:11Z</time>
      </trkpt>
      <trkpt lat="43.66354" lon="3.16434">
        <ele>230.2</ele>
        <time>2026-05-19T13:01:16Z</time>
      </trkpt>
      <trkpt lat="43.6635" lon="3.16428">
        <ele>230.1</ele>
        <time>2026-05-19T13:01:21Z</time>
      </trkpt>
      <trkpt lat="43.66345" lon="3.16421">
        <ele>229.9</ele>
        <time>2026-05-19T13:01:26Z</time>
      </trkpt>
      <trkpt lat="43.66339" lon="3.16413">
        <ele>229.8</ele>
        <time>2026-05-19T13:01:31Z</time>
      </trkpt>
      <trkpt lat="43.66335" lon="3.16408">
        <ele>229.8</ele>
        <time>2026-05-19T13:01:36Z</time>
      </trkpt>
      <trkpt lat="43.6633" lon="3.16402">
        <ele>229.7</ele>
        <time>2026-05-19T13:01:41Z</time>
      </trkpt>
      <trkpt lat="43.66326" lon="3.16396">
        <ele>229.6</ele>
        <time>2026-05-19T13:01:46Z</time>
      </trkpt>
      <trkpt lat="43.66321" lon="3.16389">
        <ele>229.4</ele>
        <time>2026-05-19T13:01:51Z</time>
      </trkpt>
      <trkpt lat="43.66316" lon="3.16383">
        <ele>229.3</ele>
        <time>2026-05-19T13:01:56Z</time>
      </trkpt>
      <trkpt lat="43.6631" lon="3.16376">
        <ele>229.2</ele>
        <time>2026-05-19T13:02:01Z</time>
      </trkpt>
      <trkpt lat="43.66305" lon="3.1637">
        <ele>229</ele>
        <time>2026-05-19T13:02:06Z</time>
      </trkpt>
      <trkpt lat="43.66298" lon="3.16364">
        <ele>228.9</ele>
        <time>2026-05-19T13:02:11Z</time>
      </trkpt>
      <trkpt lat="43.66292" lon="3.16358">
        <ele>228.7</ele>
        <time>2026-05-19T13:02:16Z</time>
      </trkpt>
      <trkpt lat="43.66285" lon="3.16351">
        <ele>228.5</ele>
        <time>2026-05-19T13:02:21Z</time>
      </trkpt>
      <trkpt lat="43.66279" lon="3.16343">
        <ele>228.3</ele>
        <time>2026-05-19T13:02:26Z</time>
      </trkpt>
      <trkpt lat="43.66274" lon="3.16336">
        <ele>228.1</ele>
        <time>2026-05-19T13:02:31Z</time>
      </trkpt>
      <trkpt lat="43.66268" lon="3.16329">
        <ele>227.9</ele>
        <time>2026-05-19T13:02:36Z</time>
      </trkpt>
      <trkpt lat="43.66262" lon="3.16321">
        <ele>227.8</ele>
        <time>2026-05-19T13:02:41Z</time>
      </trkpt>
      <trkpt lat="43.66256" lon="3.16315">
        <ele>227.8</ele>
        <time>2026-05-19T13:02:46Z</time>
      </trkpt>
      <trkpt lat="43.66252" lon="3.16309">
        <ele>227.7</ele>
        <time>2026-05-19T13:02:51Z</time>
      </trkpt>
      <trkpt lat="43.66248" lon="3.16303">
        <ele>227.8</ele>
        <time>2026-05-19T13:02:56Z</time>
      </trkpt>
      <trkpt lat="43.66241" lon="3.16297">
        <ele>228.2</ele>
        <time>2026-05-19T13:03:01Z</time>
      </trkpt>
      <trkpt lat="43.66235" lon="3.16289">
        <ele>228.5</ele>
        <time>2026-05-19T13:03:06Z</time>
      </trkpt>
      <trkpt lat="43.66231" lon="3.16282">
        <ele>228.6</ele>
        <time>2026-05-19T13:03:11Z</time>
      </trkpt>
      <trkpt lat="43.66228" lon="3.16275">
        <ele>228.7</ele>
        <time>2026-05-19T13:03:16Z</time>
      </trkpt>
      <trkpt lat="43.66225" lon="3.16268">
        <ele>228.7</ele>
        <time>2026-05-19T13:03:21Z</time>
      </trkpt>
      <trkpt lat="43.66223" lon="3.16257">
        <ele>228.5</ele>
        <time>2026-05-19T13:03:26Z</time>
      </trkpt>
      <trkpt lat="43.66223" lon="3.1625">
        <ele>228.3</ele>
        <time>2026-05-19T13:03:31Z</time>
      </trkpt>
      <trkpt lat="43.66232" lon="3.16243">
        <ele>227.6</ele>
        <time>2026-05-19T13:03:36Z</time>
      </trkpt>
      <trkpt lat="43.66239" lon="3.16241">
        <ele>227.2</ele>
        <time>2026-05-19T13:03:41Z</time>
      </trkpt>
      <trkpt lat="43.66239" lon="3.16241">
        <ele>227.2</ele>
        <time>2026-05-19T13:03:46Z</time>
      </trkpt>
      <trkpt lat="43.6624" lon="3.16241">
        <ele>227.2</ele>
        <time>2026-05-19T13:03:51Z</time>
      </trkpt>
      <trkpt lat="43.6624" lon="3.16241">
        <ele>227.2</ele>
        <time>2026-05-19T13:03:56Z</time>
      </trkpt>
      <trkpt lat="43.66237" lon="3.16235">
        <ele>227.1</ele>
        <time>2026-05-19T13:04:01Z</time>
      </trkpt>
      <trkpt lat="43.66233" lon="3.16227">
        <ele>227</ele>
        <time>2026-05-19T13:04:06Z</time>
      </trkpt>
      <trkpt lat="43.66228" lon="3.16218">
        <ele>226.8</ele>
        <time>2026-05-19T13:04:11Z</time>
      </trkpt>
      <trkpt lat="43.66224" lon="3.16209">
        <ele>226.5</ele>
        <time>2026-05-19T13:04:16Z</time>
      </trkpt>
      <trkpt lat="43.66219" lon="3.162">
        <ele>226.2</ele>
        <time>2026-05-19T13:04:21Z</time>
      </trkpt>
      <trkpt lat="43.66215" lon="3.16192">
        <ele>225.8</ele>
        <time>2026-05-19T13:04:26Z</time>
      </trkpt>
      <trkpt lat="43.66211" lon="3.16185">
        <ele>225.5</ele>
        <time>2026-05-19T13:04:31Z</time>
      </trkpt>
      <trkpt lat="43.66208" lon="3.16176">
        <ele>225</ele>
        <time>2026-05-19T13:04:36Z</time>
      </trkpt>
      <trkpt lat="43.66204" lon="3.16167">
        <ele>224.5</ele>
        <time>2026-05-19T13:04:41Z</time>
      </trkpt>
      <trkpt lat="43.662" lon="3.16157">
        <ele>224.5</ele>
        <time>2026-05-19T13:04:46Z</time>
      </trkpt>
      <trkpt lat="43.66197" lon="3.16147">
        <ele>224.7</ele>
        <time>2026-05-19T13:04:51Z</time>
      </trkpt>
      <trkpt lat="43.66194" lon="3.16139">
        <ele>224.8</ele>
        <time>2026-05-19T13:04:56Z</time>
      </trkpt>
      <trkpt lat="43.6619" lon="3.1613">
        <ele>224.9</ele>
        <time>2026-05-19T13:05:01Z</time>
      </trkpt>
      <trkpt lat="43.66188" lon="3.16123">
        <ele>225</ele>
        <time>2026-05-19T13:05:06Z</time>
      </trkpt>
      <trkpt lat="43.66185" lon="3.16119">
        <ele>225.1</ele>
        <time>2026-05-19T13:05:11Z</time>
      </trkpt>
      <trkpt lat="43.66186" lon="3.16117">
        <ele>225.1</ele>
        <time>2026-05-19T13:05:16Z</time>
      </trkpt>
      <trkpt lat="43.66185" lon="3.16116">
        <ele>225.2</ele>
        <time>2026-05-19T13:05:21Z</time>
      </trkpt>
      <trkpt lat="43.66185" lon="3.16116">
        <ele>225.2</ele>
        <time>2026-05-19T13:05:26Z</time>
      </trkpt>
      <trkpt lat="43.66185" lon="3.16116">
        <ele>225.2</ele>
        <time>2026-05-19T13:05:31Z</time>
      </trkpt>
      <trkpt lat="43.66185" lon="3.16116">
        <ele>225.2</ele>
        <time>2026-05-19T13:05:36Z</time>
      </trkpt>
      <trkpt lat="43.66181" lon="3.16105">
        <ele>225.4</ele>
        <time>2026-05-19T13:05:41Z</time>
      </trkpt>
      <trkpt lat="43.66181" lon="3.16104">
        <ele>225.4</ele>
        <time>2026-05-19T13:05:46Z</time>
      </trkpt>
      <trkpt lat="43.66181" lon="3.16104">
        <ele>225.4</ele>
        <time>2026-05-19T13:05:51Z</time>
      </trkpt>
      <trkpt lat="43.66181" lon="3.16104">
        <ele>225.4</ele>
        <time>2026-05-19T13:05:56Z</time>
      </trkpt>
      <trkpt lat="43.66181" lon="3.16104">
        <ele>225.4</ele>
        <time>2026-05-19T13:06:01Z</time>
      </trkpt>
      <trkpt lat="43.66181" lon="3.16104">
        <ele>225.4</ele>
        <time>2026-05-19T13:06:06Z</time>
      </trkpt>
      <trkpt lat="43.66181" lon="3.16104">
        <ele>225.4</ele>
        <time>2026-05-19T13:06:11Z</time>
      </trkpt>
      <trkpt lat="43.66181" lon="3.16104">
        <ele>225.4</ele>
        <time>2026-05-19T13:06:16Z</time>
      </trkpt>
      <trkpt lat="43.66181" lon="3.16104">
        <ele>225.4</ele>
        <time>2026-05-19T13:06:21Z</time>
      </trkpt>
      <trkpt lat="43.66181" lon="3.16104">
        <ele>225.4</ele>
        <time>2026-05-19T13:06:26Z</time>
      </trkpt>
      <trkpt lat="43.66181" lon="3.16104">
        <ele>225.4</ele>
        <time>2026-05-19T13:06:31Z</time>
      </trkpt>
      <trkpt lat="43.66181" lon="3.16104">
        <ele>225.4</ele>
        <time>2026-05-19T13:06:36Z</time>
      </trkpt>
      <trkpt lat="43.66181" lon="3.16104">
        <ele>225.4</ele>
        <time>2026-05-19T13:06:41Z</time>
      </trkpt>
      <trkpt lat="43.66181" lon="3.16104">
        <ele>225.4</ele>
        <time>2026-05-19T13:06:46Z</time>
      </trkpt>
      <trkpt lat="43.66181" lon="3.16104">
        <ele>225.4</ele>
        <time>2026-05-19T13:06:51Z</time>
      </trkpt>
      <trkpt lat="43.66173" lon="3.16099">
        <ele>225.6</ele>
        <time>2026-05-19T13:06:56Z</time>
      </trkpt>
      <trkpt lat="43.66168" lon="3.16094">
        <ele>225.7</ele>
        <time>2026-05-19T13:07:01Z</time>
      </trkpt>
      <trkpt lat="43.66164" lon="3.16088">
        <ele>226</ele>
        <time>2026-05-19T13:07:06Z</time>
      </trkpt>
      <trkpt lat="43.6616" lon="3.16079">
        <ele>226.4</ele>
        <time>2026-05-19T13:07:11Z</time>
      </trkpt>
      <trkpt lat="43.66157" lon="3.16068">
        <ele>226.5</ele>
        <time>2026-05-19T13:07:16Z</time>
      </trkpt>
      <trkpt lat="43.66154" lon="3.16057">
        <ele>226.7</ele>
        <time>2026-05-19T13:07:21Z</time>
      </trkpt>
      <trkpt lat="43.66151" lon="3.16049">
        <ele>226.8</ele>
        <time>2026-05-19T13:07:26Z</time>
      </trkpt>
      <trkpt lat="43.66148" lon="3.1604">
        <ele>226.8</ele>
        <time>2026-05-19T13:07:31Z</time>
      </trkpt>
      <trkpt lat="43.66144" lon="3.16031">
        <ele>226.9</ele>
        <time>2026-05-19T13:07:36Z</time>
      </trkpt>
      <trkpt lat="43.6614" lon="3.16022">
        <ele>226.8</ele>
        <time>2026-05-19T13:07:41Z</time>
      </trkpt>
      <trkpt lat="43.66136" lon="3.16016">
        <ele>226.8</ele>
        <time>2026-05-19T13:07:46Z</time>
      </trkpt>
      <trkpt lat="43.66131" lon="3.16007">
        <ele>226.7</ele>
        <time>2026-05-19T13:07:51Z</time>
      </trkpt>
      <trkpt lat="43.66126" lon="3.15998">
        <ele>226.5</ele>
        <time>2026-05-19T13:07:56Z</time>
      </trkpt>
      <trkpt lat="43.66121" lon="3.15991">
        <ele>226.3</ele>
        <time>2026-05-19T13:08:01Z</time>
      </trkpt>
      <trkpt lat="43.66116" lon="3.15985">
        <ele>226.2</ele>
        <time>2026-05-19T13:08:06Z</time>
      </trkpt>
      <trkpt lat="43.66111" lon="3.15977">
        <ele>226.1</ele>
        <time>2026-05-19T13:08:11Z</time>
      </trkpt>
      <trkpt lat="43.66107" lon="3.15969">
        <ele>225.9</ele>
        <time>2026-05-19T13:08:16Z</time>
      </trkpt>
      <trkpt lat="43.66102" lon="3.15962">
        <ele>225.8</ele>
        <time>2026-05-19T13:08:21Z</time>
      </trkpt>
      <trkpt lat="43.66097" lon="3.15956">
        <ele>225.6</ele>
        <time>2026-05-19T13:08:26Z</time>
      </trkpt>
      <trkpt lat="43.66092" lon="3.15947">
        <ele>225.5</ele>
        <time>2026-05-19T13:08:31Z</time>
      </trkpt>
      <trkpt lat="43.66087" lon="3.15942">
        <ele>225.3</ele>
        <time>2026-05-19T13:08:36Z</time>
      </trkpt>
      <trkpt lat="43.66083" lon="3.15936">
        <ele>225.3</ele>
        <time>2026-05-19T13:08:41Z</time>
      </trkpt>
      <trkpt lat="43.66078" lon="3.15928">
        <ele>225.9</ele>
        <time>2026-05-19T13:08:46Z</time>
      </trkpt>
      <trkpt lat="43.6607" lon="3.15924">
        <ele>227.1</ele>
        <time>2026-05-19T13:08:51Z</time>
      </trkpt>
      <trkpt lat="43.66063" lon="3.15921">
        <ele>228</ele>
        <time>2026-05-19T13:08:56Z</time>
      </trkpt>
      <trkpt lat="43.6606" lon="3.1592">
        <ele>228.4</ele>
        <time>2026-05-19T13:09:01Z</time>
      </trkpt>
      <trkpt lat="43.66053" lon="3.15916">
        <ele>229.3</ele>
        <time>2026-05-19T13:09:06Z</time>
      </trkpt>
      <trkpt lat="43.66046" lon="3.15915">
        <ele>230.3</ele>
        <time>2026-05-19T13:09:11Z</time>
      </trkpt>
      <trkpt lat="43.66039" lon="3.15913">
        <ele>231.2</ele>
        <time>2026-05-19T13:09:16Z</time>
      </trkpt>
      <trkpt lat="43.66033" lon="3.15911">
        <ele>232</ele>
        <time>2026-05-19T13:09:21Z</time>
      </trkpt>
      <trkpt lat="43.66028" lon="3.15908">
        <ele>232.5</ele>
        <time>2026-05-19T13:09:26Z</time>
      </trkpt>
      <trkpt lat="43.66025" lon="3.15906">
        <ele>232.8</ele>
        <time>2026-05-19T13:09:31Z</time>
      </trkpt>
      <trkpt lat="43.66023" lon="3.15907">
        <ele>233.2</ele>
        <time>2026-05-19T13:09:36Z</time>
      </trkpt>
      <trkpt lat="43.66023" lon="3.15907">
        <ele>233.2</ele>
        <time>2026-05-19T13:09:41Z</time>
      </trkpt>
      <trkpt lat="43.66023" lon="3.15907">
        <ele>233.2</ele>
        <time>2026-05-19T13:09:46Z</time>
      </trkpt>
      <trkpt lat="43.66023" lon="3.15907">
        <ele>233.2</ele>
        <time>2026-05-19T13:09:51Z</time>
      </trkpt>
      <trkpt lat="43.66021" lon="3.15908">
        <ele>233.5</ele>
        <time>2026-05-19T13:09:56Z</time>
      </trkpt>
      <trkpt lat="43.66017" lon="3.15903">
        <ele>233.7</ele>
        <time>2026-05-19T13:10:01Z</time>
      </trkpt>
      <trkpt lat="43.66013" lon="3.15896">
        <ele>233.8</ele>
        <time>2026-05-19T13:10:06Z</time>
      </trkpt>
      <trkpt lat="43.66009" lon="3.1589">
        <ele>234</ele>
        <time>2026-05-19T13:10:11Z</time>
      </trkpt>
      <trkpt lat="43.66004" lon="3.15883">
        <ele>234.1</ele>
        <time>2026-05-19T13:10:16Z</time>
      </trkpt>
      <trkpt lat="43.66" lon="3.15873">
        <ele>233.9</ele>
        <time>2026-05-19T13:10:21Z</time>
      </trkpt>
      <trkpt lat="43.65996" lon="3.15866">
        <ele>234</ele>
        <time>2026-05-19T13:10:26Z</time>
      </trkpt>
      <trkpt lat="43.65992" lon="3.15857">
        <ele>234</ele>
        <time>2026-05-19T13:10:31Z</time>
      </trkpt>
      <trkpt lat="43.65989" lon="3.15848">
        <ele>233.9</ele>
        <time>2026-05-19T13:10:36Z</time>
      </trkpt>
      <trkpt lat="43.65985" lon="3.15838">
        <ele>233.8</ele>
        <time>2026-05-19T13:10:41Z</time>
      </trkpt>
      <trkpt lat="43.65984" lon="3.1583">
        <ele>233.6</ele>
        <time>2026-05-19T13:10:46Z</time>
      </trkpt>
      <trkpt lat="43.6598" lon="3.15822">
        <ele>234</ele>
        <time>2026-05-19T13:10:51Z</time>
      </trkpt>
      <trkpt lat="43.65977" lon="3.15815">
        <ele>234.3</ele>
        <time>2026-05-19T13:10:56Z</time>
      </trkpt>
      <trkpt lat="43.65974" lon="3.15808">
        <ele>234.6</ele>
        <time>2026-05-19T13:11:01Z</time>
      </trkpt>
      <trkpt lat="43.65971" lon="3.15798">
        <ele>234.9</ele>
        <time>2026-05-19T13:11:06Z</time>
      </trkpt>
      <trkpt lat="43.65968" lon="3.15788">
        <ele>235.2</ele>
        <time>2026-05-19T13:11:11Z</time>
      </trkpt>
      <trkpt lat="43.65967" lon="3.15779">
        <ele>235.2</ele>
        <time>2026-05-19T13:11:16Z</time>
      </trkpt>
      <trkpt lat="43.65965" lon="3.15774">
        <ele>235.5</ele>
        <time>2026-05-19T13:11:21Z</time>
      </trkpt>
      <trkpt lat="43.65964" lon="3.15772">
        <ele>235.7</ele>
        <time>2026-05-19T13:11:26Z</time>
      </trkpt>
      <trkpt lat="43.65963" lon="3.15771">
        <ele>235.9</ele>
        <time>2026-05-19T13:11:31Z</time>
      </trkpt>
      <trkpt lat="43.65963" lon="3.15771">
        <ele>235.9</ele>
        <time>2026-05-19T13:11:36Z</time>
      </trkpt>
      <trkpt lat="43.65963" lon="3.15771">
        <ele>235.9</ele>
        <time>2026-05-19T13:11:41Z</time>
      </trkpt>
      <trkpt lat="43.65962" lon="3.15764">
        <ele>236</ele>
        <time>2026-05-19T13:11:46Z</time>
      </trkpt>
      <trkpt lat="43.6596" lon="3.15754">
        <ele>236.2</ele>
        <time>2026-05-19T13:11:51Z</time>
      </trkpt>
      <trkpt lat="43.65957" lon="3.15746">
        <ele>236.6</ele>
        <time>2026-05-19T13:11:56Z</time>
      </trkpt>
      <trkpt lat="43.65954" lon="3.15738">
        <ele>236.7</ele>
        <time>2026-05-19T13:12:01Z</time>
      </trkpt>
      <trkpt lat="43.6595" lon="3.15732">
        <ele>237.2</ele>
        <time>2026-05-19T13:12:06Z</time>
      </trkpt>
      <trkpt lat="43.65947" lon="3.15724">
        <ele>237.4</ele>
        <time>2026-05-19T13:12:11Z</time>
      </trkpt>
      <trkpt lat="43.65945" lon="3.15715">
        <ele>237.2</ele>
        <time>2026-05-19T13:12:16Z</time>
      </trkpt>
      <trkpt lat="43.65942" lon="3.15708">
        <ele>237.3</ele>
        <time>2026-05-19T13:12:21Z</time>
      </trkpt>
      <trkpt lat="43.65938" lon="3.15699">
        <ele>237.5</ele>
        <time>2026-05-19T13:12:26Z</time>
      </trkpt>
      <trkpt lat="43.65935" lon="3.15691">
        <ele>237.5</ele>
        <time>2026-05-19T13:12:31Z</time>
      </trkpt>
      <trkpt lat="43.65932" lon="3.15684">
        <ele>237.5</ele>
        <time>2026-05-19T13:12:36Z</time>
      </trkpt>
      <trkpt lat="43.65928" lon="3.15677">
        <ele>237.8</ele>
        <time>2026-05-19T13:12:41Z</time>
      </trkpt>
      <trkpt lat="43.65925" lon="3.15671">
        <ele>237.8</ele>
        <time>2026-05-19T13:12:46Z</time>
      </trkpt>
      <trkpt lat="43.65924" lon="3.15668">
        <ele>237.8</ele>
        <time>2026-05-19T13:12:51Z</time>
      </trkpt>
      <trkpt lat="43.65923" lon="3.15668">
        <ele>238</ele>
        <time>2026-05-19T13:12:56Z</time>
      </trkpt>
      <trkpt lat="43.65917" lon="3.15668">
        <ele>239.1</ele>
        <time>2026-05-19T13:13:01Z</time>
      </trkpt>
      <trkpt lat="43.65912" lon="3.15666">
        <ele>240</ele>
        <time>2026-05-19T13:13:06Z</time>
      </trkpt>
      <trkpt lat="43.65906" lon="3.15666">
        <ele>241.3</ele>
        <time>2026-05-19T13:13:11Z</time>
      </trkpt>
      <trkpt lat="43.65905" lon="3.15666">
        <ele>241.5</ele>
        <time>2026-05-19T13:13:16Z</time>
      </trkpt>
      <trkpt lat="43.65905" lon="3.15668">
        <ele>241.7</ele>
        <time>2026-05-19T13:13:21Z</time>
      </trkpt>
      <trkpt lat="43.65905" lon="3.15672">
        <ele>242.1</ele>
        <time>2026-05-19T13:13:26Z</time>
      </trkpt>
      <trkpt lat="43.65903" lon="3.15676">
        <ele>242.9</ele>
        <time>2026-05-19T13:13:31Z</time>
      </trkpt>
      <trkpt lat="43.65898" lon="3.15676">
        <ele>244.1</ele>
        <time>2026-05-19T13:13:36Z</time>
      </trkpt>
      <trkpt lat="43.65898" lon="3.1568">
        <ele>244.5</ele>
        <time>2026-05-19T13:13:41Z</time>
      </trkpt>
      <trkpt lat="43.65899" lon="3.15684">
        <ele>244.7</ele>
        <time>2026-05-19T13:13:46Z</time>
      </trkpt>
      <trkpt lat="43.659" lon="3.15688">
        <ele>244.9</ele>
        <time>2026-05-19T13:13:51Z</time>
      </trkpt>
      <trkpt lat="43.65902" lon="3.15691">
        <ele>244.7</ele>
        <time>2026-05-19T13:13:56Z</time>
      </trkpt>
      <trkpt lat="43.65902" lon="3.15691">
        <ele>244.7</ele>
        <time>2026-05-19T13:14:01Z</time>
      </trkpt>
      <trkpt lat="43.65902" lon="3.15691">
        <ele>244.7</ele>
        <time>2026-05-19T13:14:06Z</time>
      </trkpt>
      <trkpt lat="43.65902" lon="3.15691">
        <ele>244.7</ele>
        <time>2026-05-19T13:14:11Z</time>
      </trkpt>
      <trkpt lat="43.65902" lon="3.15691">
        <ele>244.7</ele>
        <time>2026-05-19T13:14:16Z</time>
      </trkpt>
      <trkpt lat="43.65902" lon="3.15691">
        <ele>244.7</ele>
        <time>2026-05-19T13:14:21Z</time>
      </trkpt>
      <trkpt lat="43.65902" lon="3.15691">
        <ele>244.7</ele>
        <time>2026-05-19T13:14:26Z</time>
      </trkpt>
      <trkpt lat="43.65902" lon="3.15691">
        <ele>244.7</ele>
        <time>2026-05-19T13:14:31Z</time>
      </trkpt>
      <trkpt lat="43.65902" lon="3.15691">
        <ele>244.7</ele>
        <time>2026-05-19T13:14:36Z</time>
      </trkpt>
      <trkpt lat="43.65902" lon="3.15691">
        <ele>244.7</ele>
        <time>2026-05-19T13:14:41Z</time>
      </trkpt>
      <trkpt lat="43.65902" lon="3.15691">
        <ele>244.7</ele>
        <time>2026-05-19T13:14:46Z</time>
      </trkpt>
      <trkpt lat="43.65902" lon="3.15691">
        <ele>244.7</ele>
        <time>2026-05-19T13:14:51Z</time>
      </trkpt>
      <trkpt lat="43.65902" lon="3.15691">
        <ele>244.7</ele>
        <time>2026-05-19T13:14:56Z</time>
      </trkpt>
      <trkpt lat="43.65902" lon="3.15691">
        <ele>244.7</ele>
        <time>2026-05-19T13:15:01Z</time>
      </trkpt>
      <trkpt lat="43.65902" lon="3.15691">
        <ele>244.7</ele>
        <time>2026-05-19T13:15:06Z</time>
      </trkpt>
      <trkpt lat="43.65902" lon="3.15691">
        <ele>244.7</ele>
        <time>2026-05-19T13:15:11Z</time>
      </trkpt>
      <trkpt lat="43.65902" lon="3.15691">
        <ele>244.7</ele>
        <time>2026-05-19T13:15:16Z</time>
      </trkpt>
      <trkpt lat="43.65902" lon="3.15691">
        <ele>244.7</ele>
        <time>2026-05-19T13:15:21Z</time>
      </trkpt>
      <trkpt lat="43.65902" lon="3.15691">
        <ele>244.7</ele>
        <time>2026-05-19T13:15:26Z</time>
      </trkpt>
      <trkpt lat="43.65902" lon="3.15691">
        <ele>244.7</ele>
        <time>2026-05-19T13:15:31Z</time>
      </trkpt>
      <trkpt lat="43.65902" lon="3.15691">
        <ele>244.7</ele>
        <time>2026-05-19T13:15:36Z</time>
      </trkpt>
      <trkpt lat="43.65902" lon="3.15691">
        <ele>244.7</ele>
        <time>2026-05-19T13:15:41Z</time>
      </trkpt>
      <trkpt lat="43.65897" lon="3.1568">
        <ele>244.7</ele>
        <time>2026-05-19T13:15:46Z</time>
      </trkpt>
      <trkpt lat="43.659" lon="3.15675">
        <ele>243.5</ele>
        <time>2026-05-19T13:15:51Z</time>
      </trkpt>
      <trkpt lat="43.65905" lon="3.15671">
        <ele>242</ele>
        <time>2026-05-19T13:15:56Z</time>
      </trkpt>
      <trkpt lat="43.6591" lon="3.15667">
        <ele>240.5</ele>
        <time>2026-05-19T13:16:01Z</time>
      </trkpt>
      <trkpt lat="43.65915" lon="3.15662">
        <ele>239.2</ele>
        <time>2026-05-19T13:16:06Z</time>
      </trkpt>
      <trkpt lat="43.6592" lon="3.15656">
        <ele>238.1</ele>
        <time>2026-05-19T13:16:11Z</time>
      </trkpt>
      <trkpt lat="43.65919" lon="3.15648">
        <ele>238.1</ele>
        <time>2026-05-19T13:16:16Z</time>
      </trkpt>
      <trkpt lat="43.65915" lon="3.1564">
        <ele>238.6</ele>
        <time>2026-05-19T13:16:21Z</time>
      </trkpt>
      <trkpt lat="43.65912" lon="3.15632">
        <ele>238.9</ele>
        <time>2026-05-19T13:16:26Z</time>
      </trkpt>
      <trkpt lat="43.6591" lon="3.15628">
        <ele>239.1</ele>
        <time>2026-05-19T13:16:31Z</time>
      </trkpt>
      <trkpt lat="43.6591" lon="3.15628">
        <ele>239.1</ele>
        <time>2026-05-19T13:16:36Z</time>
      </trkpt>
      <trkpt lat="43.65908" lon="3.15628">
        <ele>239.4</ele>
        <time>2026-05-19T13:16:41Z</time>
      </trkpt>
      <trkpt lat="43.65904" lon="3.15619">
        <ele>239.5</ele>
        <time>2026-05-19T13:16:46Z</time>
      </trkpt>
      <trkpt lat="43.65902" lon="3.15611">
        <ele>239.4</ele>
        <time>2026-05-19T13:16:51Z</time>
      </trkpt>
      <trkpt lat="43.65901" lon="3.15607">
        <ele>239.3</ele>
        <time>2026-05-19T13:16:56Z</time>
      </trkpt>
      <trkpt lat="43.65901" lon="3.15607">
        <ele>239.3</ele>
        <time>2026-05-19T13:17:01Z</time>
      </trkpt>
      <trkpt lat="43.65901" lon="3.15607">
        <ele>239.3</ele>
        <time>2026-05-19T13:17:06Z</time>
      </trkpt>
      <trkpt lat="43.65897" lon="3.15602">
        <ele>239.5</ele>
        <time>2026-05-19T13:17:11Z</time>
      </trkpt>
      <trkpt lat="43.65893" lon="3.15596">
        <ele>239.5</ele>
        <time>2026-05-19T13:17:16Z</time>
      </trkpt>
      <trkpt lat="43.65888" lon="3.15589">
        <ele>239.5</ele>
        <time>2026-05-19T13:17:21Z</time>
      </trkpt>
      <trkpt lat="43.65884" lon="3.15583">
        <ele>239.3</ele>
        <time>2026-05-19T13:17:26Z</time>
      </trkpt>
      <trkpt lat="43.65879" lon="3.15577">
        <ele>239.1</ele>
        <time>2026-05-19T13:17:31Z</time>
      </trkpt>
      <trkpt lat="43.65873" lon="3.15572">
        <ele>239.1</ele>
        <time>2026-05-19T13:17:36Z</time>
      </trkpt>
      <trkpt lat="43.65869" lon="3.15566">
        <ele>238.9</ele>
        <time>2026-05-19T13:17:41Z</time>
      </trkpt>
      <trkpt lat="43.65866" lon="3.1556">
        <ele>238.6</ele>
        <time>2026-05-19T13:17:46Z</time>
      </trkpt>
      <trkpt lat="43.65864" lon="3.15554">
        <ele>238.2</ele>
        <time>2026-05-19T13:17:51Z</time>
      </trkpt>
      <trkpt lat="43.65861" lon="3.15547">
        <ele>237.8</ele>
        <time>2026-05-19T13:17:56Z</time>
      </trkpt>
      <trkpt lat="43.65857" lon="3.15539">
        <ele>237.4</ele>
        <time>2026-05-19T13:18:01Z</time>
      </trkpt>
      <trkpt lat="43.65852" lon="3.15531">
        <ele>237.1</ele>
        <time>2026-05-19T13:18:06Z</time>
      </trkpt>
      <trkpt lat="43.65849" lon="3.15526">
        <ele>236.9</ele>
        <time>2026-05-19T13:18:11Z</time>
      </trkpt>
      <trkpt lat="43.65846" lon="3.15518">
        <ele>236.5</ele>
        <time>2026-05-19T13:18:16Z</time>
      </trkpt>
      <trkpt lat="43.65843" lon="3.15512">
        <ele>236.2</ele>
        <time>2026-05-19T13:18:21Z</time>
      </trkpt>
      <trkpt lat="43.65839" lon="3.15504">
        <ele>235.9</ele>
        <time>2026-05-19T13:18:26Z</time>
      </trkpt>
      <trkpt lat="43.65836" lon="3.15498">
        <ele>235.7</ele>
        <time>2026-05-19T13:18:31Z</time>
      </trkpt>
      <trkpt lat="43.65831" lon="3.15491">
        <ele>235.5</ele>
        <time>2026-05-19T13:18:36Z</time>
      </trkpt>
      <trkpt lat="43.65827" lon="3.15485">
        <ele>235.3</ele>
        <time>2026-05-19T13:18:41Z</time>
      </trkpt>
      <trkpt lat="43.65824" lon="3.15479">
        <ele>235.1</ele>
        <time>2026-05-19T13:18:46Z</time>
      </trkpt>
      <trkpt lat="43.65821" lon="3.15471">
        <ele>234.8</ele>
        <time>2026-05-19T13:18:51Z</time>
      </trkpt>
      <trkpt lat="43.65817" lon="3.15464">
        <ele>234.5</ele>
        <time>2026-05-19T13:18:56Z</time>
      </trkpt>
      <trkpt lat="43.65814" lon="3.15455">
        <ele>234.1</ele>
        <time>2026-05-19T13:19:01Z</time>
      </trkpt>
      <trkpt lat="43.65809" lon="3.15448">
        <ele>233.9</ele>
        <time>2026-05-19T13:19:06Z</time>
      </trkpt>
      <trkpt lat="43.65805" lon="3.15442">
        <ele>233.8</ele>
        <time>2026-05-19T13:19:11Z</time>
      </trkpt>
      <trkpt lat="43.65802" lon="3.15431">
        <ele>233.3</ele>
        <time>2026-05-19T13:19:16Z</time>
      </trkpt>
      <trkpt lat="43.65797" lon="3.15419">
        <ele>232.9</ele>
        <time>2026-05-19T13:19:21Z</time>
      </trkpt>
      <trkpt lat="43.65793" lon="3.15411">
        <ele>232.5</ele>
        <time>2026-05-19T13:19:26Z</time>
      </trkpt>
      <trkpt lat="43.65789" lon="3.15404">
        <ele>232.2</ele>
        <time>2026-05-19T13:19:31Z</time>
      </trkpt>
      <trkpt lat="43.65783" lon="3.15396">
        <ele>232</ele>
        <time>2026-05-19T13:19:36Z</time>
      </trkpt>
      <trkpt lat="43.65778" lon="3.15389">
        <ele>231.9</ele>
        <time>2026-05-19T13:19:41Z</time>
      </trkpt>
      <trkpt lat="43.65773" lon="3.15383">
        <ele>231.8</ele>
        <time>2026-05-19T13:19:46Z</time>
      </trkpt>
      <trkpt lat="43.65768" lon="3.1538">
        <ele>232</ele>
        <time>2026-05-19T13:19:51Z</time>
      </trkpt>
      <trkpt lat="43.65761" lon="3.15374">
        <ele>232.2</ele>
        <time>2026-05-19T13:19:56Z</time>
      </trkpt>
      <trkpt lat="43.65757" lon="3.15367">
        <ele>232.1</ele>
        <time>2026-05-19T13:20:01Z</time>
      </trkpt>
      <trkpt lat="43.65752" lon="3.1536">
        <ele>232.1</ele>
        <time>2026-05-19T13:20:06Z</time>
      </trkpt>
      <trkpt lat="43.65745" lon="3.15358">
        <ele>232.3</ele>
        <time>2026-05-19T13:20:11Z</time>
      </trkpt>
      <trkpt lat="43.65739" lon="3.15356">
        <ele>232.4</ele>
        <time>2026-05-19T13:20:16Z</time>
      </trkpt>
      <trkpt lat="43.65733" lon="3.15352">
        <ele>232.5</ele>
        <time>2026-05-19T13:20:21Z</time>
      </trkpt>
      <trkpt lat="43.65727" lon="3.15347">
        <ele>232.4</ele>
        <time>2026-05-19T13:20:26Z</time>
      </trkpt>
      <trkpt lat="43.65719" lon="3.15341">
        <ele>232.4</ele>
        <time>2026-05-19T13:20:31Z</time>
      </trkpt>
      <trkpt lat="43.65714" lon="3.15338">
        <ele>232.5</ele>
        <time>2026-05-19T13:20:36Z</time>
      </trkpt>
      <trkpt lat="43.65708" lon="3.15333">
        <ele>232.5</ele>
        <time>2026-05-19T13:20:41Z</time>
      </trkpt>
      <trkpt lat="43.65701" lon="3.15327">
        <ele>232.2</ele>
        <time>2026-05-19T13:20:46Z</time>
      </trkpt>
      <trkpt lat="43.65696" lon="3.15323">
        <ele>232.1</ele>
        <time>2026-05-19T13:20:51Z</time>
      </trkpt>
      <trkpt lat="43.65689" lon="3.15321">
        <ele>232.2</ele>
        <time>2026-05-19T13:20:56Z</time>
      </trkpt>
      <trkpt lat="43.65683" lon="3.15318">
        <ele>232.2</ele>
        <time>2026-05-19T13:21:01Z</time>
      </trkpt>
      <trkpt lat="43.65677" lon="3.15316">
        <ele>232.3</ele>
        <time>2026-05-19T13:21:06Z</time>
      </trkpt>
      <trkpt lat="43.65672" lon="3.15312">
        <ele>232.2</ele>
        <time>2026-05-19T13:21:11Z</time>
      </trkpt>
      <trkpt lat="43.65666" lon="3.15309">
        <ele>232.4</ele>
        <time>2026-05-19T13:21:16Z</time>
      </trkpt>
      <trkpt lat="43.6566" lon="3.15305">
        <ele>233.3</ele>
        <time>2026-05-19T13:21:21Z</time>
      </trkpt>
      <trkpt lat="43.65653" lon="3.15301">
        <ele>234.5</ele>
        <time>2026-05-19T13:21:26Z</time>
      </trkpt>
      <trkpt lat="43.65648" lon="3.15297">
        <ele>235.2</ele>
        <time>2026-05-19T13:21:31Z</time>
      </trkpt>
      <trkpt lat="43.65643" lon="3.15295">
        <ele>236.1</ele>
        <time>2026-05-19T13:21:36Z</time>
      </trkpt>
      <trkpt lat="43.65641" lon="3.15291">
        <ele>236.2</ele>
        <time>2026-05-19T13:21:41Z</time>
      </trkpt>
      <trkpt lat="43.65637" lon="3.15288">
        <ele>236.8</ele>
        <time>2026-05-19T13:21:46Z</time>
      </trkpt>
      <trkpt lat="43.65631" lon="3.15286">
        <ele>237.9</ele>
        <time>2026-05-19T13:21:51Z</time>
      </trkpt>
      <trkpt lat="43.65626" lon="3.15283">
        <ele>238.7</ele>
        <time>2026-05-19T13:21:56Z</time>
      </trkpt>
      <trkpt lat="43.65621" lon="3.15279">
        <ele>239.4</ele>
        <time>2026-05-19T13:22:01Z</time>
      </trkpt>
      <trkpt lat="43.65616" lon="3.15275">
        <ele>240.1</ele>
        <time>2026-05-19T13:22:06Z</time>
      </trkpt>
      <trkpt lat="43.65609" lon="3.15271">
        <ele>241.3</ele>
        <time>2026-05-19T13:22:11Z</time>
      </trkpt>
      <trkpt lat="43.65606" lon="3.15271">
        <ele>241.9</ele>
        <time>2026-05-19T13:22:16Z</time>
      </trkpt>
      <trkpt lat="43.65602" lon="3.1527">
        <ele>242.6</ele>
        <time>2026-05-19T13:22:21Z</time>
      </trkpt>
      <trkpt lat="43.65597" lon="3.15268">
        <ele>243.5</ele>
        <time>2026-05-19T13:22:26Z</time>
      </trkpt>
      <trkpt lat="43.65593" lon="3.15269">
        <ele>244.4</ele>
        <time>2026-05-19T13:22:31Z</time>
      </trkpt>
      <trkpt lat="43.6559" lon="3.1527">
        <ele>245.1</ele>
        <time>2026-05-19T13:22:36Z</time>
      </trkpt>
      <trkpt lat="43.65586" lon="3.15273">
        <ele>246.1</ele>
        <time>2026-05-19T13:22:41Z</time>
      </trkpt>
      <trkpt lat="43.65581" lon="3.15276">
        <ele>247.4</ele>
        <time>2026-05-19T13:22:46Z</time>
      </trkpt>
      <trkpt lat="43.6558" lon="3.15275">
        <ele>247.5</ele>
        <time>2026-05-19T13:22:51Z</time>
      </trkpt>
      <trkpt lat="43.65578" lon="3.15272">
        <ele>247.7</ele>
        <time>2026-05-19T13:22:56Z</time>
      </trkpt>
      <trkpt lat="43.65574" lon="3.15269">
        <ele>248.3</ele>
        <time>2026-05-19T13:23:01Z</time>
      </trkpt>
      <trkpt lat="43.6557" lon="3.15263">
        <ele>248.6</ele>
        <time>2026-05-19T13:23:06Z</time>
      </trkpt>
      <trkpt lat="43.65567" lon="3.15258">
        <ele>248.7</ele>
        <time>2026-05-19T13:23:11Z</time>
      </trkpt>
      <trkpt lat="43.65566" lon="3.15251">
        <ele>248.2</ele>
        <time>2026-05-19T13:23:16Z</time>
      </trkpt>
      <trkpt lat="43.65565" lon="3.15243">
        <ele>246.8</ele>
        <time>2026-05-19T13:23:21Z</time>
      </trkpt>
      <trkpt lat="43.65564" lon="3.15233">
        <ele>244.8</ele>
        <time>2026-05-19T13:23:26Z</time>
      </trkpt>
      <trkpt lat="43.65561" lon="3.15224">
        <ele>243.3</ele>
        <time>2026-05-19T13:23:31Z</time>
      </trkpt>
      <trkpt lat="43.65557" lon="3.15216">
        <ele>242.1</ele>
        <time>2026-05-19T13:23:36Z</time>
      </trkpt>
      <trkpt lat="43.65553" lon="3.15209">
        <ele>241</ele>
        <time>2026-05-19T13:23:41Z</time>
      </trkpt>
      <trkpt lat="43.65546" lon="3.15202">
        <ele>240.2</ele>
        <time>2026-05-19T13:23:46Z</time>
      </trkpt>
      <trkpt lat="43.6554" lon="3.15196">
        <ele>239.4</ele>
        <time>2026-05-19T13:23:51Z</time>
      </trkpt>
      <trkpt lat="43.65534" lon="3.15191">
        <ele>238.8</ele>
        <time>2026-05-19T13:23:56Z</time>
      </trkpt>
      <trkpt lat="43.6553" lon="3.15188">
        <ele>238.4</ele>
        <time>2026-05-19T13:24:01Z</time>
      </trkpt>
      <trkpt lat="43.65524" lon="3.15185">
        <ele>238.2</ele>
        <time>2026-05-19T13:24:06Z</time>
      </trkpt>
      <trkpt lat="43.65518" lon="3.1518">
        <ele>237.4</ele>
        <time>2026-05-19T13:24:11Z</time>
      </trkpt>
      <trkpt lat="43.65512" lon="3.15175">
        <ele>236.5</ele>
        <time>2026-05-19T13:24:16Z</time>
      </trkpt>
      <trkpt lat="43.65506" lon="3.1517">
        <ele>235.5</ele>
        <time>2026-05-19T13:24:21Z</time>
      </trkpt>
      <trkpt lat="43.65501" lon="3.15167">
        <ele>235</ele>
        <time>2026-05-19T13:24:26Z</time>
      </trkpt>
      <trkpt lat="43.65494" lon="3.15164">
        <ele>234.1</ele>
        <time>2026-05-19T13:24:31Z</time>
      </trkpt>
      <trkpt lat="43.65486" lon="3.1516">
        <ele>232.9</ele>
        <time>2026-05-19T13:24:36Z</time>
      </trkpt>
      <trkpt lat="43.65483" lon="3.15153">
        <ele>231.5</ele>
        <time>2026-05-19T13:24:41Z</time>
      </trkpt>
      <trkpt lat="43.65482" lon="3.15146">
        <ele>230.3</ele>
        <time>2026-05-19T13:24:46Z</time>
      </trkpt>
      <trkpt lat="43.65486" lon="3.1514">
        <ele>229.6</ele>
        <time>2026-05-19T13:24:51Z</time>
      </trkpt>
      <trkpt lat="43.65493" lon="3.15135">
        <ele>229.2</ele>
        <time>2026-05-19T13:24:56Z</time>
      </trkpt>
      <trkpt lat="43.65496" lon="3.15132">
        <ele>228.9</ele>
        <time>2026-05-19T13:25:01Z</time>
      </trkpt>
      <trkpt lat="43.65496" lon="3.15132">
        <ele>228.9</ele>
        <time>2026-05-19T13:25:06Z</time>
      </trkpt>
      <trkpt lat="43.65496" lon="3.15132">
        <ele>228.9</ele>
        <time>2026-05-19T13:25:11Z</time>
      </trkpt>
      <trkpt lat="43.65496" lon="3.15132">
        <ele>228.9</ele>
        <time>2026-05-19T13:25:16Z</time>
      </trkpt>
      <trkpt lat="43.65496" lon="3.15132">
        <ele>228.9</ele>
        <time>2026-05-19T13:25:21Z</time>
      </trkpt>
      <trkpt lat="43.65496" lon="3.15132">
        <ele>228.9</ele>
        <time>2026-05-19T13:25:26Z</time>
      </trkpt>
      <trkpt lat="43.65496" lon="3.15132">
        <ele>228.9</ele>
        <time>2026-05-19T13:25:31Z</time>
      </trkpt>
      <trkpt lat="43.65496" lon="3.15132">
        <ele>228.9</ele>
        <time>2026-05-19T13:25:36Z</time>
      </trkpt>
      <trkpt lat="43.65496" lon="3.15132">
        <ele>228.9</ele>
        <time>2026-05-19T13:25:41Z</time>
      </trkpt>
      <trkpt lat="43.65496" lon="3.15132">
        <ele>228.9</ele>
        <time>2026-05-19T13:25:46Z</time>
      </trkpt>
      <trkpt lat="43.65496" lon="3.15132">
        <ele>228.9</ele>
        <time>2026-05-19T13:25:51Z</time>
      </trkpt>
      <trkpt lat="43.65497" lon="3.15131">
        <ele>228.8</ele>
        <time>2026-05-19T13:25:56Z</time>
      </trkpt>
      <trkpt lat="43.65497" lon="3.15131">
        <ele>228.8</ele>
        <time>2026-05-19T13:26:01Z</time>
      </trkpt>
      <trkpt lat="43.65497" lon="3.15131">
        <ele>228.8</ele>
        <time>2026-05-19T13:26:06Z</time>
      </trkpt>
      <trkpt lat="43.65497" lon="3.15131">
        <ele>228.8</ele>
        <time>2026-05-19T13:26:11Z</time>
      </trkpt>
      <trkpt lat="43.65497" lon="3.15131">
        <ele>228.8</ele>
        <time>2026-05-19T13:26:16Z</time>
      </trkpt>
      <trkpt lat="43.65497" lon="3.15131">
        <ele>228.8</ele>
        <time>2026-05-19T13:26:21Z</time>
      </trkpt>
      <trkpt lat="43.65502" lon="3.15126">
        <ele>228.1</ele>
        <time>2026-05-19T13:26:26Z</time>
      </trkpt>
      <trkpt lat="43.65505" lon="3.15121">
        <ele>227.1</ele>
        <time>2026-05-19T13:26:31Z</time>
      </trkpt>
      <trkpt lat="43.65509" lon="3.15117">
        <ele>226.3</ele>
        <time>2026-05-19T13:26:36Z</time>
      </trkpt>
      <trkpt lat="43.6551" lon="3.15119">
        <ele>226.5</ele>
        <time>2026-05-19T13:26:41Z</time>
      </trkpt>
      <trkpt lat="43.65511" lon="3.1512">
        <ele>226.7</ele>
        <time>2026-05-19T13:26:46Z</time>
      </trkpt>
      <trkpt lat="43.65511" lon="3.15119">
        <ele>226.5</ele>
        <time>2026-05-19T13:26:51Z</time>
      </trkpt>
      <trkpt lat="43.65516" lon="3.15113">
        <ele>225.3</ele>
        <time>2026-05-19T13:26:56Z</time>
      </trkpt>
      <trkpt lat="43.6552" lon="3.15109">
        <ele>224.5</ele>
        <time>2026-05-19T13:27:01Z</time>
      </trkpt>
      <trkpt lat="43.65522" lon="3.15108">
        <ele>224.3</ele>
        <time>2026-05-19T13:27:06Z</time>
      </trkpt>
      <trkpt lat="43.65525" lon="3.15107">
        <ele>224</ele>
        <time>2026-05-19T13:27:11Z</time>
      </trkpt>
      <trkpt lat="43.6553" lon="3.15103">
        <ele>223.2</ele>
        <time>2026-05-19T13:27:16Z</time>
      </trkpt>
      <trkpt lat="43.65535" lon="3.15097">
        <ele>222.2</ele>
        <time>2026-05-19T13:27:21Z</time>
      </trkpt>
      <trkpt lat="43.65539" lon="3.15088">
        <ele>220.7</ele>
        <time>2026-05-19T13:27:26Z</time>
      </trkpt>
      <trkpt lat="43.65542" lon="3.15078">
        <ele>220.1</ele>
        <time>2026-05-19T13:27:31Z</time>
      </trkpt>
      <trkpt lat="43.65544" lon="3.15069">
        <ele>220.2</ele>
        <time>2026-05-19T13:27:36Z</time>
      </trkpt>
      <trkpt lat="43.65547" lon="3.15057">
        <ele>220.4</ele>
        <time>2026-05-19T13:27:41Z</time>
      </trkpt>
      <trkpt lat="43.6555" lon="3.15047">
        <ele>220.6</ele>
        <time>2026-05-19T13:27:46Z</time>
      </trkpt>
      <trkpt lat="43.65552" lon="3.15039">
        <ele>220.7</ele>
        <time>2026-05-19T13:27:51Z</time>
      </trkpt>
      <trkpt lat="43.65554" lon="3.15029">
        <ele>221</ele>
        <time>2026-05-19T13:27:56Z</time>
      </trkpt>
      <trkpt lat="43.65555" lon="3.15024">
        <ele>221.1</ele>
        <time>2026-05-19T13:28:01Z</time>
      </trkpt>
      <trkpt lat="43.65558" lon="3.15015">
        <ele>221.3</ele>
        <time>2026-05-19T13:28:06Z</time>
      </trkpt>
      <trkpt lat="43.65562" lon="3.15006">
        <ele>221.6</ele>
        <time>2026-05-19T13:28:11Z</time>
      </trkpt>
      <trkpt lat="43.65567" lon="3.14998">
        <ele>221.9</ele>
        <time>2026-05-19T13:28:16Z</time>
      </trkpt>
      <trkpt lat="43.65572" lon="3.1499">
        <ele>222.1</ele>
        <time>2026-05-19T13:28:21Z</time>
      </trkpt>
      <trkpt lat="43.65576" lon="3.14982">
        <ele>222.4</ele>
        <time>2026-05-19T13:28:26Z</time>
      </trkpt>
      <trkpt lat="43.6558" lon="3.14976">
        <ele>222.6</ele>
        <time>2026-05-19T13:28:31Z</time>
      </trkpt>
      <trkpt lat="43.65585" lon="3.14971">
        <ele>222.7</ele>
        <time>2026-05-19T13:28:36Z</time>
      </trkpt>
      <trkpt lat="43.6559" lon="3.14967">
        <ele>222.9</ele>
        <time>2026-05-19T13:28:41Z</time>
      </trkpt>
      <trkpt lat="43.65593" lon="3.14963">
        <ele>223.1</ele>
        <time>2026-05-19T13:28:46Z</time>
      </trkpt>
      <trkpt lat="43.65599" lon="3.14963">
        <ele>223.2</ele>
        <time>2026-05-19T13:28:51Z</time>
      </trkpt>
      <trkpt lat="43.65606" lon="3.14967">
        <ele>223.2</ele>
        <time>2026-05-19T13:28:56Z</time>
      </trkpt>
      <trkpt lat="43.65614" lon="3.1497">
        <ele>223.1</ele>
        <time>2026-05-19T13:29:01Z</time>
      </trkpt>
      <trkpt lat="43.65622" lon="3.14973">
        <ele>223.1</ele>
        <time>2026-05-19T13:29:06Z</time>
      </trkpt>
      <trkpt lat="43.65629" lon="3.1498">
        <ele>222.7</ele>
        <time>2026-05-19T13:29:11Z</time>
      </trkpt>
      <trkpt lat="43.65635" lon="3.14983">
        <ele>222.5</ele>
        <time>2026-05-19T13:29:16Z</time>
      </trkpt>
      <trkpt lat="43.65642" lon="3.14989">
        <ele>222.1</ele>
        <time>2026-05-19T13:29:21Z</time>
      </trkpt>
      <trkpt lat="43.65648" lon="3.14993">
        <ele>221.8</ele>
        <time>2026-05-19T13:29:26Z</time>
      </trkpt>
      <trkpt lat="43.65652" lon="3.14998">
        <ele>221.3</ele>
        <time>2026-05-19T13:29:31Z</time>
      </trkpt>
      <trkpt lat="43.65661" lon="3.15003">
        <ele>221</ele>
        <time>2026-05-19T13:29:36Z</time>
      </trkpt>
      <trkpt lat="43.65666" lon="3.15008">
        <ele>220.9</ele>
        <time>2026-05-19T13:29:41Z</time>
      </trkpt>
      <trkpt lat="43.65673" lon="3.1501">
        <ele>221.1</ele>
        <time>2026-05-19T13:29:46Z</time>
      </trkpt>
      <trkpt lat="43.6568" lon="3.15014">
        <ele>221.3</ele>
        <time>2026-05-19T13:29:51Z</time>
      </trkpt>
      <trkpt lat="43.65684" lon="3.15019">
        <ele>221.3</ele>
        <time>2026-05-19T13:29:56Z</time>
      </trkpt>
      <trkpt lat="43.65688" lon="3.15025">
        <ele>221.4</ele>
        <time>2026-05-19T13:30:01Z</time>
      </trkpt>
      <trkpt lat="43.65689" lon="3.15035">
        <ele>221.3</ele>
        <time>2026-05-19T13:30:06Z</time>
      </trkpt>
      <trkpt lat="43.65688" lon="3.15045">
        <ele>221.1</ele>
        <time>2026-05-19T13:30:11Z</time>
      </trkpt>
      <trkpt lat="43.65684" lon="3.15053">
        <ele>220.9</ele>
        <time>2026-05-19T13:30:16Z</time>
      </trkpt>
      <trkpt lat="43.65677" lon="3.15059">
        <ele>220.6</ele>
        <time>2026-05-19T13:30:21Z</time>
      </trkpt>
      <trkpt lat="43.6567" lon="3.15062">
        <ele>220.3</ele>
        <time>2026-05-19T13:30:26Z</time>
      </trkpt>
      <trkpt lat="43.65664" lon="3.15063">
        <ele>220.2</ele>
        <time>2026-05-19T13:30:31Z</time>
      </trkpt>
      <trkpt lat="43.65658" lon="3.15062">
        <ele>220.2</ele>
        <time>2026-05-19T13:30:36Z</time>
      </trkpt>
      <trkpt lat="43.65652" lon="3.15057">
        <ele>220.3</ele>
        <time>2026-05-19T13:30:41Z</time>
      </trkpt>
      <trkpt lat="43.65648" lon="3.15058">
        <ele>220.2</ele>
        <time>2026-05-19T13:30:46Z</time>
      </trkpt>
      <trkpt lat="43.65647" lon="3.15055">
        <ele>220.3</ele>
        <time>2026-05-19T13:30:51Z</time>
      </trkpt>
      <trkpt lat="43.65647" lon="3.15055">
        <ele>220.3</ele>
        <time>2026-05-19T13:30:51Z</time>
      </trkpt>
      <trkpt lat="43.65634" lon="3.15082">
        <ele>219.6</ele>
        <time>2026-05-19T13:59:01Z</time>
      </trkpt>
      <trkpt lat="43.65647" lon="3.1505">
        <ele>220.4</ele>
        <time>2026-05-19T13:59:07Z</time>
      </trkpt>
      <trkpt lat="43.65651" lon="3.15049">
        <ele>220.4</ele>
        <time>2026-05-19T13:59:12Z</time>
      </trkpt>
      <trkpt lat="43.6566" lon="3.15052">
        <ele>220.4</ele>
        <time>2026-05-19T13:59:17Z</time>
      </trkpt>
      <trkpt lat="43.65663" lon="3.1506">
        <ele>220.3</ele>
        <time>2026-05-19T13:59:22Z</time>
      </trkpt>
      <trkpt lat="43.65666" lon="3.15059">
        <ele>220.3</ele>
        <time>2026-05-19T13:59:27Z</time>
      </trkpt>
      <trkpt lat="43.65669" lon="3.15056">
        <ele>220.4</ele>
        <time>2026-05-19T13:59:32Z</time>
      </trkpt>
      <trkpt lat="43.65673" lon="3.15047">
        <ele>220.6</ele>
        <time>2026-05-19T13:59:37Z</time>
      </trkpt>
      <trkpt lat="43.65679" lon="3.15043">
        <ele>220.9</ele>
        <time>2026-05-19T13:59:42Z</time>
      </trkpt>
      <trkpt lat="43.65683" lon="3.1504">
        <ele>221</ele>
        <time>2026-05-19T13:59:47Z</time>
      </trkpt>
      <trkpt lat="43.65683" lon="3.1504">
        <ele>221</ele>
        <time>2026-05-19T13:59:52Z</time>
      </trkpt>
      <trkpt lat="43.65685" lon="3.15047">
        <ele>221</ele>
        <time>2026-05-19T13:59:57Z</time>
      </trkpt>
      <trkpt lat="43.65687" lon="3.15048">
        <ele>221</ele>
        <time>2026-05-19T14:00:02Z</time>
      </trkpt>
      <trkpt lat="43.6569" lon="3.15043">
        <ele>221.2</ele>
        <time>2026-05-19T14:00:07Z</time>
      </trkpt>
      <trkpt lat="43.6569" lon="3.15036">
        <ele>221.3</ele>
        <time>2026-05-19T14:00:12Z</time>
      </trkpt>
      <trkpt lat="43.6569" lon="3.15028">
        <ele>221.4</ele>
        <time>2026-05-19T14:00:17Z</time>
      </trkpt>
      <trkpt lat="43.65687" lon="3.1502">
        <ele>221.4</ele>
        <time>2026-05-19T14:00:22Z</time>
      </trkpt>
      <trkpt lat="43.65681" lon="3.15013">
        <ele>221.3</ele>
        <time>2026-05-19T14:00:27Z</time>
      </trkpt>
      <trkpt lat="43.65674" lon="3.15006">
        <ele>221.2</ele>
        <time>2026-05-19T14:00:32Z</time>
      </trkpt>
      <trkpt lat="43.65668" lon="3.15003">
        <ele>221</ele>
        <time>2026-05-19T14:00:37Z</time>
      </trkpt>
      <trkpt lat="43.65662" lon="3.14997">
        <ele>221.3</ele>
        <time>2026-05-19T14:00:42Z</time>
      </trkpt>
      <trkpt lat="43.65656" lon="3.14992">
        <ele>221.8</ele>
        <time>2026-05-19T14:00:47Z</time>
      </trkpt>
      <trkpt lat="43.65651" lon="3.14988">
        <ele>222.2</ele>
        <time>2026-05-19T14:00:52Z</time>
      </trkpt>
      <trkpt lat="43.65645" lon="3.14984">
        <ele>222.5</ele>
        <time>2026-05-19T14:00:57Z</time>
      </trkpt>
      <trkpt lat="43.65638" lon="3.14983">
        <ele>222.6</ele>
        <time>2026-05-19T14:01:02Z</time>
      </trkpt>
      <trkpt lat="43.65632" lon="3.14978">
        <ele>222.9</ele>
        <time>2026-05-19T14:01:07Z</time>
      </trkpt>
      <trkpt lat="43.65626" lon="3.14972">
        <ele>223.2</ele>
        <time>2026-05-19T14:01:12Z</time>
      </trkpt>
      <trkpt lat="43.65621" lon="3.14968">
        <ele>223.4</ele>
        <time>2026-05-19T14:01:17Z</time>
      </trkpt>
      <trkpt lat="43.65614" lon="3.14965">
        <ele>223.4</ele>
        <time>2026-05-19T14:01:22Z</time>
      </trkpt>
      <trkpt lat="43.65607" lon="3.14962">
        <ele>223.4</ele>
        <time>2026-05-19T14:01:27Z</time>
      </trkpt>
      <trkpt lat="43.656" lon="3.14957">
        <ele>223.5</ele>
        <time>2026-05-19T14:01:32Z</time>
      </trkpt>
      <trkpt lat="43.6559" lon="3.1495">
        <ele>223.4</ele>
        <time>2026-05-19T14:01:37Z</time>
      </trkpt>
      <trkpt lat="43.65585" lon="3.14947">
        <ele>223.3</ele>
        <time>2026-05-19T14:01:42Z</time>
      </trkpt>
      <trkpt lat="43.65585" lon="3.14947">
        <ele>223.3</ele>
        <time>2026-05-19T14:01:47Z</time>
      </trkpt>
      <trkpt lat="43.65585" lon="3.14947">
        <ele>223.3</ele>
        <time>2026-05-19T14:01:52Z</time>
      </trkpt>
      <trkpt lat="43.65585" lon="3.14947">
        <ele>223.3</ele>
        <time>2026-05-19T14:01:57Z</time>
      </trkpt>
      <trkpt lat="43.65582" lon="3.14947">
        <ele>223.3</ele>
        <time>2026-05-19T14:02:02Z</time>
      </trkpt>
      <trkpt lat="43.65574" lon="3.1494">
        <ele>223.5</ele>
        <time>2026-05-19T14:02:07Z</time>
      </trkpt>
      <trkpt lat="43.65566" lon="3.14936">
        <ele>223.6</ele>
        <time>2026-05-19T14:02:12Z</time>
      </trkpt>
      <trkpt lat="43.65557" lon="3.14933">
        <ele>223.8</ele>
        <time>2026-05-19T14:02:17Z</time>
      </trkpt>
      <trkpt lat="43.65551" lon="3.14932">
        <ele>223.9</ele>
        <time>2026-05-19T14:02:22Z</time>
      </trkpt>
      <trkpt lat="43.65546" lon="3.1493">
        <ele>224</ele>
        <time>2026-05-19T14:02:27Z</time>
      </trkpt>
      <trkpt lat="43.65541" lon="3.14926">
        <ele>224.2</ele>
        <time>2026-05-19T14:02:32Z</time>
      </trkpt>
      <trkpt lat="43.65534" lon="3.14924">
        <ele>224.3</ele>
        <time>2026-05-19T14:02:37Z</time>
      </trkpt>
      <trkpt lat="43.65527" lon="3.14919">
        <ele>224.6</ele>
        <time>2026-05-19T14:02:42Z</time>
      </trkpt>
      <trkpt lat="43.65522" lon="3.14917">
        <ele>224.7</ele>
        <time>2026-05-19T14:02:47Z</time>
      </trkpt>
      <trkpt lat="43.65517" lon="3.14915">
        <ele>224.9</ele>
        <time>2026-05-19T14:02:52Z</time>
      </trkpt>
      <trkpt lat="43.65512" lon="3.14913">
        <ele>225.1</ele>
        <time>2026-05-19T14:02:57Z</time>
      </trkpt>
      <trkpt lat="43.65505" lon="3.14908">
        <ele>225.4</ele>
        <time>2026-05-19T14:03:02Z</time>
      </trkpt>
      <trkpt lat="43.65501" lon="3.14909">
        <ele>225.4</ele>
        <time>2026-05-19T14:03:07Z</time>
      </trkpt>
      <trkpt lat="43.65496" lon="3.14906">
        <ele>225.6</ele>
        <time>2026-05-19T14:03:12Z</time>
      </trkpt>
      <trkpt lat="43.6549" lon="3.14903">
        <ele>225.8</ele>
        <time>2026-05-19T14:03:17Z</time>
      </trkpt>
      <trkpt lat="43.65484" lon="3.14901">
        <ele>225.9</ele>
        <time>2026-05-19T14:03:22Z</time>
      </trkpt>
      <trkpt lat="43.65478" lon="3.14897">
        <ele>226.2</ele>
        <time>2026-05-19T14:03:27Z</time>
      </trkpt>
      <trkpt lat="43.65471" lon="3.14894">
        <ele>226.4</ele>
        <time>2026-05-19T14:03:32Z</time>
      </trkpt>
      <trkpt lat="43.65465" lon="3.1489">
        <ele>226.7</ele>
        <time>2026-05-19T14:03:37Z</time>
      </trkpt>
      <trkpt lat="43.65458" lon="3.14888">
        <ele>226.9</ele>
        <time>2026-05-19T14:03:42Z</time>
      </trkpt>
      <trkpt lat="43.65449" lon="3.14882">
        <ele>227.5</ele>
        <time>2026-05-19T14:03:47Z</time>
      </trkpt>
      <trkpt lat="43.65442" lon="3.1488">
        <ele>227.7</ele>
        <time>2026-05-19T14:03:52Z</time>
      </trkpt>
      <trkpt lat="43.65434" lon="3.14879">
        <ele>227.9</ele>
        <time>2026-05-19T14:03:57Z</time>
      </trkpt>
      <trkpt lat="43.65429" lon="3.1488">
        <ele>227.8</ele>
        <time>2026-05-19T14:04:02Z</time>
      </trkpt>
      <trkpt lat="43.65422" lon="3.14885">
        <ele>227.4</ele>
        <time>2026-05-19T14:04:07Z</time>
      </trkpt>
      <trkpt lat="43.65415" lon="3.14885">
        <ele>227.5</ele>
        <time>2026-05-19T14:04:12Z</time>
      </trkpt>
      <trkpt lat="43.65409" lon="3.14887">
        <ele>227.5</ele>
        <time>2026-05-19T14:04:17Z</time>
      </trkpt>
      <trkpt lat="43.65401" lon="3.14886">
        <ele>228</ele>
        <time>2026-05-19T14:04:22Z</time>
      </trkpt>
      <trkpt lat="43.65394" lon="3.14889">
        <ele>227.9</ele>
        <time>2026-05-19T14:04:27Z</time>
      </trkpt>
      <trkpt lat="43.65388" lon="3.14892">
        <ele>227.7</ele>
        <time>2026-05-19T14:04:32Z</time>
      </trkpt>
      <trkpt lat="43.6538" lon="3.14896">
        <ele>227.4</ele>
        <time>2026-05-19T14:04:37Z</time>
      </trkpt>
      <trkpt lat="43.65373" lon="3.14896">
        <ele>227.7</ele>
        <time>2026-05-19T14:04:42Z</time>
      </trkpt>
      <trkpt lat="43.65365" lon="3.14897">
        <ele>227.8</ele>
        <time>2026-05-19T14:04:47Z</time>
      </trkpt>
      <trkpt lat="43.65358" lon="3.14901">
        <ele>227.3</ele>
        <time>2026-05-19T14:04:52Z</time>
      </trkpt>
      <trkpt lat="43.65352" lon="3.149">
        <ele>227.7</ele>
        <time>2026-05-19T14:04:57Z</time>
      </trkpt>
      <trkpt lat="43.65345" lon="3.14901">
        <ele>227.7</ele>
        <time>2026-05-19T14:05:02Z</time>
      </trkpt>
      <trkpt lat="43.65341" lon="3.14901">
        <ele>227.8</ele>
        <time>2026-05-19T14:05:07Z</time>
      </trkpt>
      <trkpt lat="43.65334" lon="3.14903">
        <ele>227.6</ele>
        <time>2026-05-19T14:05:12Z</time>
      </trkpt>
      <trkpt lat="43.65328" lon="3.14904">
        <ele>227.5</ele>
        <time>2026-05-19T14:05:17Z</time>
      </trkpt>
      <trkpt lat="43.6532" lon="3.14906">
        <ele>227.2</ele>
        <time>2026-05-19T14:05:22Z</time>
      </trkpt>
      <trkpt lat="43.65313" lon="3.14906">
        <ele>227.3</ele>
        <time>2026-05-19T14:05:27Z</time>
      </trkpt>
      <trkpt lat="43.65305" lon="3.1491">
        <ele>226.6</ele>
        <time>2026-05-19T14:05:32Z</time>
      </trkpt>
      <trkpt lat="43.65299" lon="3.14915">
        <ele>225.7</ele>
        <time>2026-05-19T14:05:37Z</time>
      </trkpt>
      <trkpt lat="43.65293" lon="3.14917">
        <ele>225.5</ele>
        <time>2026-05-19T14:05:42Z</time>
      </trkpt>
      <trkpt lat="43.65288" lon="3.14918">
        <ele>225.5</ele>
        <time>2026-05-19T14:05:47Z</time>
      </trkpt>
      <trkpt lat="43.65287" lon="3.14916">
        <ele>225.7</ele>
        <time>2026-05-19T14:05:52Z</time>
      </trkpt>
      <trkpt lat="43.65287" lon="3.14915">
        <ele>225.9</ele>
        <time>2026-05-19T14:05:57Z</time>
      </trkpt>
      <trkpt lat="43.65281" lon="3.14909">
        <ele>227</ele>
        <time>2026-05-19T14:06:02Z</time>
      </trkpt>
      <trkpt lat="43.65274" lon="3.14909">
        <ele>227.1</ele>
        <time>2026-05-19T14:06:07Z</time>
      </trkpt>
      <trkpt lat="43.6527" lon="3.1491">
        <ele>227</ele>
        <time>2026-05-19T14:06:12Z</time>
      </trkpt>
      <trkpt lat="43.65269" lon="3.14908">
        <ele>227.4</ele>
        <time>2026-05-19T14:06:17Z</time>
      </trkpt>
      <trkpt lat="43.65267" lon="3.14905">
        <ele>227.9</ele>
        <time>2026-05-19T14:06:22Z</time>
      </trkpt>
      <trkpt lat="43.65267" lon="3.14904">
        <ele>228.1</ele>
        <time>2026-05-19T14:06:27Z</time>
      </trkpt>
      <trkpt lat="43.65267" lon="3.14904">
        <ele>228.1</ele>
        <time>2026-05-19T14:06:32Z</time>
      </trkpt>
      <trkpt lat="43.65267" lon="3.14904">
        <ele>228.1</ele>
        <time>2026-05-19T14:06:37Z</time>
      </trkpt>
      <trkpt lat="43.65267" lon="3.14904">
        <ele>228.1</ele>
        <time>2026-05-19T14:06:42Z</time>
      </trkpt>
      <trkpt lat="43.65267" lon="3.14904">
        <ele>228.1</ele>
        <time>2026-05-19T14:06:47Z</time>
      </trkpt>
      <trkpt lat="43.65268" lon="3.14909">
        <ele>227.2</ele>
        <time>2026-05-19T14:06:52Z</time>
      </trkpt>
      <trkpt lat="43.65267" lon="3.14914">
        <ele>226.3</ele>
        <time>2026-05-19T14:06:57Z</time>
      </trkpt>
      <trkpt lat="43.65262" lon="3.14914">
        <ele>226.3</ele>
        <time>2026-05-19T14:07:02Z</time>
      </trkpt>
      <trkpt lat="43.65257" lon="3.14913">
        <ele>226.6</ele>
        <time>2026-05-19T14:07:07Z</time>
      </trkpt>
      <trkpt lat="43.65252" lon="3.14913">
        <ele>226.6</ele>
        <time>2026-05-19T14:07:12Z</time>
      </trkpt>
      <trkpt lat="43.65246" lon="3.14916">
        <ele>226.2</ele>
        <time>2026-05-19T14:07:17Z</time>
      </trkpt>
      <trkpt lat="43.65237" lon="3.14916">
        <ele>226.4</ele>
        <time>2026-05-19T14:07:22Z</time>
      </trkpt>
      <trkpt lat="43.65231" lon="3.14916">
        <ele>226.6</ele>
        <time>2026-05-19T14:07:27Z</time>
      </trkpt>
      <trkpt lat="43.65225" lon="3.14918">
        <ele>226.5</ele>
        <time>2026-05-19T14:07:32Z</time>
      </trkpt>
      <trkpt lat="43.65219" lon="3.14919">
        <ele>226.6</ele>
        <time>2026-05-19T14:07:37Z</time>
      </trkpt>
      <trkpt lat="43.65213" lon="3.14924">
        <ele>226.5</ele>
        <time>2026-05-19T14:07:42Z</time>
      </trkpt>
      <trkpt lat="43.65207" lon="3.14925">
        <ele>226.5</ele>
        <time>2026-05-19T14:07:47Z</time>
      </trkpt>
      <trkpt lat="43.65202" lon="3.14925">
        <ele>226.6</ele>
        <time>2026-05-19T14:07:52Z</time>
      </trkpt>
      <trkpt lat="43.65196" lon="3.14923">
        <ele>226.9</ele>
        <time>2026-05-19T14:07:57Z</time>
      </trkpt>
      <trkpt lat="43.6519" lon="3.14922">
        <ele>227.1</ele>
        <time>2026-05-19T14:08:02Z</time>
      </trkpt>
      <trkpt lat="43.65184" lon="3.14927">
        <ele>226.9</ele>
        <time>2026-05-19T14:08:07Z</time>
      </trkpt>
      <trkpt lat="43.65176" lon="3.14928">
        <ele>227</ele>
        <time>2026-05-19T14:08:12Z</time>
      </trkpt>
      <trkpt lat="43.65168" lon="3.14927">
        <ele>227.2</ele>
        <time>2026-05-19T14:08:17Z</time>
      </trkpt>
      <trkpt lat="43.65165" lon="3.14924">
        <ele>227.9</ele>
        <time>2026-05-19T14:08:22Z</time>
      </trkpt>
      <trkpt lat="43.65161" lon="3.14917">
        <ele>229.4</ele>
        <time>2026-05-19T14:08:27Z</time>
      </trkpt>
      <trkpt lat="43.65156" lon="3.14911">
        <ele>231.4</ele>
        <time>2026-05-19T14:08:32Z</time>
      </trkpt>
      <trkpt lat="43.65151" lon="3.14907">
        <ele>233.1</ele>
        <time>2026-05-19T14:08:37Z</time>
      </trkpt>
      <trkpt lat="43.65144" lon="3.14903">
        <ele>235.5</ele>
        <time>2026-05-19T14:08:42Z</time>
      </trkpt>
      <trkpt lat="43.65139" lon="3.14899">
        <ele>237.4</ele>
        <time>2026-05-19T14:08:47Z</time>
      </trkpt>
      <trkpt lat="43.65138" lon="3.14895">
        <ele>238.2</ele>
        <time>2026-05-19T14:08:52Z</time>
      </trkpt>
      <trkpt lat="43.65139" lon="3.14891">
        <ele>238.5</ele>
        <time>2026-05-19T14:08:57Z</time>
      </trkpt>
      <trkpt lat="43.65139" lon="3.1489">
        <ele>238.6</ele>
        <time>2026-05-19T14:09:02Z</time>
      </trkpt>
      <trkpt lat="43.65135" lon="3.14885">
        <ele>240.4</ele>
        <time>2026-05-19T14:09:07Z</time>
      </trkpt>
      <trkpt lat="43.65131" lon="3.14878">
        <ele>242.6</ele>
        <time>2026-05-19T14:09:12Z</time>
      </trkpt>
      <trkpt lat="43.65126" lon="3.1487">
        <ele>245.2</ele>
        <time>2026-05-19T14:09:17Z</time>
      </trkpt>
      <trkpt lat="43.65122" lon="3.14862">
        <ele>247.6</ele>
        <time>2026-05-19T14:09:22Z</time>
      </trkpt>
      <trkpt lat="43.65121" lon="3.14854">
        <ele>249.2</ele>
        <time>2026-05-19T14:09:27Z</time>
      </trkpt>
      <trkpt lat="43.65119" lon="3.14847">
        <ele>250.9</ele>
        <time>2026-05-19T14:09:32Z</time>
      </trkpt>
      <trkpt lat="43.65118" lon="3.14838">
        <ele>252.6</ele>
        <time>2026-05-19T14:09:37Z</time>
      </trkpt>
      <trkpt lat="43.65117" lon="3.14828">
        <ele>253.9</ele>
        <time>2026-05-19T14:09:42Z</time>
      </trkpt>
      <trkpt lat="43.65116" lon="3.14819">
        <ele>254.5</ele>
        <time>2026-05-19T14:09:47Z</time>
      </trkpt>
      <trkpt lat="43.65117" lon="3.14813">
        <ele>254.4</ele>
        <time>2026-05-19T14:09:52Z</time>
      </trkpt>
      <trkpt lat="43.65117" lon="3.14808">
        <ele>254.6</ele>
        <time>2026-05-19T14:09:57Z</time>
      </trkpt>
      <trkpt lat="43.65115" lon="3.14798">
        <ele>255.7</ele>
        <time>2026-05-19T14:10:02Z</time>
      </trkpt>
      <trkpt lat="43.65114" lon="3.14789">
        <ele>256.4</ele>
        <time>2026-05-19T14:10:07Z</time>
      </trkpt>
      <trkpt lat="43.65116" lon="3.14783">
        <ele>255.9</ele>
        <time>2026-05-19T14:10:12Z</time>
      </trkpt>
      <trkpt lat="43.65116" lon="3.14783">
        <ele>255.9</ele>
        <time>2026-05-19T14:10:17Z</time>
      </trkpt>
      <trkpt lat="43.65116" lon="3.14783">
        <ele>255.9</ele>
        <time>2026-05-19T14:10:22Z</time>
      </trkpt>
      <trkpt lat="43.65116" lon="3.14783">
        <ele>255.9</ele>
        <time>2026-05-19T14:10:27Z</time>
      </trkpt>
      <trkpt lat="43.65116" lon="3.14783">
        <ele>255.9</ele>
        <time>2026-05-19T14:10:32Z</time>
      </trkpt>
      <trkpt lat="43.65119" lon="3.14772">
        <ele>255.1</ele>
        <time>2026-05-19T14:10:37Z</time>
      </trkpt>
      <trkpt lat="43.65119" lon="3.14772">
        <ele>255.1</ele>
        <time>2026-05-19T14:10:42Z</time>
      </trkpt>
      <trkpt lat="43.65119" lon="3.14772">
        <ele>255.1</ele>
        <time>2026-05-19T14:10:47Z</time>
      </trkpt>
      <trkpt lat="43.65117" lon="3.14768">
        <ele>256</ele>
        <time>2026-05-19T14:10:52Z</time>
      </trkpt>
      <trkpt lat="43.65117" lon="3.14754">
        <ele>256.5</ele>
        <time>2026-05-19T14:10:57Z</time>
      </trkpt>
      <trkpt lat="43.6512" lon="3.14746">
        <ele>255.7</ele>
        <time>2026-05-19T14:11:02Z</time>
      </trkpt>
      <trkpt lat="43.65123" lon="3.1474">
        <ele>254.9</ele>
        <time>2026-05-19T14:11:07Z</time>
      </trkpt>
      <trkpt lat="43.65124" lon="3.14733">
        <ele>254.9</ele>
        <time>2026-05-19T14:11:12Z</time>
      </trkpt>
      <trkpt lat="43.65123" lon="3.14724">
        <ele>255.9</ele>
        <time>2026-05-19T14:11:17Z</time>
      </trkpt>
      <trkpt lat="43.65123" lon="3.14715">
        <ele>256.4</ele>
        <time>2026-05-19T14:11:22Z</time>
      </trkpt>
      <trkpt lat="43.65123" lon="3.1471">
        <ele>256.7</ele>
        <time>2026-05-19T14:11:27Z</time>
      </trkpt>
      <trkpt lat="43.65121" lon="3.14701">
        <ele>258.1</ele>
        <time>2026-05-19T14:11:32Z</time>
      </trkpt>
      <trkpt lat="43.65121" lon="3.14691">
        <ele>258.8</ele>
        <time>2026-05-19T14:11:37Z</time>
      </trkpt>
      <trkpt lat="43.6512" lon="3.14684">
        <ele>259.6</ele>
        <time>2026-05-19T14:11:42Z</time>
      </trkpt>
      <trkpt lat="43.65118" lon="3.14676">
        <ele>261</ele>
        <time>2026-05-19T14:11:47Z</time>
      </trkpt>
      <trkpt lat="43.65116" lon="3.14667">
        <ele>262.5</ele>
        <time>2026-05-19T14:11:52Z</time>
      </trkpt>
      <trkpt lat="43.65115" lon="3.1466">
        <ele>262.9</ele>
        <time>2026-05-19T14:11:57Z</time>
      </trkpt>
      <trkpt lat="43.65114" lon="3.14653">
        <ele>263.2</ele>
        <time>2026-05-19T14:12:02Z</time>
      </trkpt>
      <trkpt lat="43.65111" lon="3.14643">
        <ele>264.3</ele>
        <time>2026-05-19T14:12:07Z</time>
      </trkpt>
      <trkpt lat="43.6511" lon="3.14634">
        <ele>264.6</ele>
        <time>2026-05-19T14:12:12Z</time>
      </trkpt>
      <trkpt lat="43.6511" lon="3.14624">
        <ele>264.4</ele>
        <time>2026-05-19T14:12:17Z</time>
      </trkpt>
      <trkpt lat="43.65109" lon="3.14616">
        <ele>264.7</ele>
        <time>2026-05-19T14:12:22Z</time>
      </trkpt>
      <trkpt lat="43.65109" lon="3.14608">
        <ele>264.6</ele>
        <time>2026-05-19T14:12:27Z</time>
      </trkpt>
      <trkpt lat="43.65109" lon="3.14599">
        <ele>264.4</ele>
        <time>2026-05-19T14:12:32Z</time>
      </trkpt>
      <trkpt lat="43.65107" lon="3.1459">
        <ele>265</ele>
        <time>2026-05-19T14:12:37Z</time>
      </trkpt>
      <trkpt lat="43.65104" lon="3.14584">
        <ele>266.1</ele>
        <time>2026-05-19T14:12:42Z</time>
      </trkpt>
      <trkpt lat="43.65101" lon="3.14574">
        <ele>266.7</ele>
        <time>2026-05-19T14:12:47Z</time>
      </trkpt>
      <trkpt lat="43.65097" lon="3.14563">
        <ele>267.5</ele>
        <time>2026-05-19T14:12:52Z</time>
      </trkpt>
      <trkpt lat="43.65094" lon="3.14555">
        <ele>268</ele>
        <time>2026-05-19T14:12:57Z</time>
      </trkpt>
      <trkpt lat="43.65094" lon="3.14548">
        <ele>267.5</ele>
        <time>2026-05-19T14:13:02Z</time>
      </trkpt>
      <trkpt lat="43.65091" lon="3.1454">
        <ele>267.9</ele>
        <time>2026-05-19T14:13:07Z</time>
      </trkpt>
      <trkpt lat="43.6509" lon="3.14531">
        <ele>267.6</ele>
        <time>2026-05-19T14:13:12Z</time>
      </trkpt>
      <trkpt lat="43.65089" lon="3.14522">
        <ele>267.2</ele>
        <time>2026-05-19T14:13:17Z</time>
      </trkpt>
      <trkpt lat="43.65087" lon="3.14515">
        <ele>267.2</ele>
        <time>2026-05-19T14:13:22Z</time>
      </trkpt>
      <trkpt lat="43.65086" lon="3.14508">
        <ele>267</ele>
        <time>2026-05-19T14:13:27Z</time>
      </trkpt>
      <trkpt lat="43.65084" lon="3.145">
        <ele>266.8</ele>
        <time>2026-05-19T14:13:32Z</time>
      </trkpt>
      <trkpt lat="43.65081" lon="3.14491">
        <ele>266.6</ele>
        <time>2026-05-19T14:13:37Z</time>
      </trkpt>
      <trkpt lat="43.65078" lon="3.14483">
        <ele>266.5</ele>
        <time>2026-05-19T14:13:42Z</time>
      </trkpt>
      <trkpt lat="43.65078" lon="3.14479">
        <ele>265.9</ele>
        <time>2026-05-19T14:13:47Z</time>
      </trkpt>
      <trkpt lat="43.65076" lon="3.14473">
        <ele>265.8</ele>
        <time>2026-05-19T14:13:52Z</time>
      </trkpt>
      <trkpt lat="43.65073" lon="3.14463">
        <ele>265.3</ele>
        <time>2026-05-19T14:13:57Z</time>
      </trkpt>
      <trkpt lat="43.65071" lon="3.14455">
        <ele>264.8</ele>
        <time>2026-05-19T14:14:02Z</time>
      </trkpt>
      <trkpt lat="43.65069" lon="3.14446">
        <ele>264.2</ele>
        <time>2026-05-19T14:14:07Z</time>
      </trkpt>
      <trkpt lat="43.65069" lon="3.14436">
        <ele>262.5</ele>
        <time>2026-05-19T14:14:12Z</time>
      </trkpt>
      <trkpt lat="43.65069" lon="3.14428">
        <ele>261.2</ele>
        <time>2026-05-19T14:14:17Z</time>
      </trkpt>
      <trkpt lat="43.65069" lon="3.14419">
        <ele>259.7</ele>
        <time>2026-05-19T14:14:22Z</time>
      </trkpt>
      <trkpt lat="43.65068" lon="3.14409">
        <ele>259.3</ele>
        <time>2026-05-19T14:14:27Z</time>
      </trkpt>
      <trkpt lat="43.65066" lon="3.144">
        <ele>259.4</ele>
        <time>2026-05-19T14:14:32Z</time>
      </trkpt>
      <trkpt lat="43.65066" lon="3.14391">
        <ele>258.9</ele>
        <time>2026-05-19T14:14:37Z</time>
      </trkpt>
      <trkpt lat="43.65066" lon="3.1438">
        <ele>258.2</ele>
        <time>2026-05-19T14:14:42Z</time>
      </trkpt>
      <trkpt lat="43.65065" lon="3.1437">
        <ele>257.8</ele>
        <time>2026-05-19T14:14:47Z</time>
      </trkpt>
      <trkpt lat="43.65064" lon="3.14361">
        <ele>257.4</ele>
        <time>2026-05-19T14:14:52Z</time>
      </trkpt>
      <trkpt lat="43.65064" lon="3.14351">
        <ele>256.7</ele>
        <time>2026-05-19T14:14:57Z</time>
      </trkpt>
      <trkpt lat="43.65064" lon="3.14342">
        <ele>256.1</ele>
        <time>2026-05-19T14:15:02Z</time>
      </trkpt>
      <trkpt lat="43.65066" lon="3.14332">
        <ele>255.5</ele>
        <time>2026-05-19T14:15:07Z</time>
      </trkpt>
      <trkpt lat="43.65069" lon="3.14325">
        <ele>256.4</ele>
        <time>2026-05-19T14:15:12Z</time>
      </trkpt>
      <trkpt lat="43.65075" lon="3.14321">
        <ele>256.6</ele>
        <time>2026-05-19T14:15:17Z</time>
      </trkpt>
      <trkpt lat="43.65078" lon="3.14313">
        <ele>258</ele>
        <time>2026-05-19T14:15:22Z</time>
      </trkpt>
      <trkpt lat="43.65082" lon="3.14306">
        <ele>259.3</ele>
        <time>2026-05-19T14:15:27Z</time>
      </trkpt>
      <trkpt lat="43.65089" lon="3.14301">
        <ele>260.3</ele>
        <time>2026-05-19T14:15:32Z</time>
      </trkpt>
      <trkpt lat="43.65095" lon="3.14297">
        <ele>261.1</ele>
        <time>2026-05-19T14:15:37Z</time>
      </trkpt>
      <trkpt lat="43.65102" lon="3.14294">
        <ele>261.6</ele>
        <time>2026-05-19T14:15:42Z</time>
      </trkpt>
      <trkpt lat="43.65103" lon="3.14287">
        <ele>262.9</ele>
        <time>2026-05-19T14:15:47Z</time>
      </trkpt>
      <trkpt lat="43.65107" lon="3.14281">
        <ele>263.9</ele>
        <time>2026-05-19T14:15:52Z</time>
      </trkpt>
      <trkpt lat="43.6511" lon="3.14275">
        <ele>264.8</ele>
        <time>2026-05-19T14:15:57Z</time>
      </trkpt>
      <trkpt lat="43.65112" lon="3.14269">
        <ele>265.7</ele>
        <time>2026-05-19T14:16:02Z</time>
      </trkpt>
      <trkpt lat="43.65114" lon="3.1426">
        <ele>267</ele>
        <time>2026-05-19T14:16:07Z</time>
      </trkpt>
      <trkpt lat="43.65115" lon="3.14251">
        <ele>268.4</ele>
        <time>2026-05-19T14:16:12Z</time>
      </trkpt>
      <trkpt lat="43.65116" lon="3.14241">
        <ele>270.2</ele>
        <time>2026-05-19T14:16:17Z</time>
      </trkpt>
      <trkpt lat="43.65116" lon="3.14233">
        <ele>271.7</ele>
        <time>2026-05-19T14:16:22Z</time>
      </trkpt>
      <trkpt lat="43.65117" lon="3.14223">
        <ele>273.5</ele>
        <time>2026-05-19T14:16:27Z</time>
      </trkpt>
      <trkpt lat="43.65118" lon="3.14214">
        <ele>275</ele>
        <time>2026-05-19T14:16:32Z</time>
      </trkpt>
      <trkpt lat="43.65118" lon="3.14205">
        <ele>276.6</ele>
        <time>2026-05-19T14:16:37Z</time>
      </trkpt>
      <trkpt lat="43.65119" lon="3.14196">
        <ele>278.1</ele>
        <time>2026-05-19T14:16:42Z</time>
      </trkpt>
      <trkpt lat="43.65119" lon="3.14189">
        <ele>279.3</ele>
        <time>2026-05-19T14:16:47Z</time>
      </trkpt>
      <trkpt lat="43.65118" lon="3.1418">
        <ele>281.3</ele>
        <time>2026-05-19T14:16:52Z</time>
      </trkpt>
      <trkpt lat="43.65117" lon="3.14173">
        <ele>282.9</ele>
        <time>2026-05-19T14:16:57Z</time>
      </trkpt>
      <trkpt lat="43.65115" lon="3.14167">
        <ele>284.7</ele>
        <time>2026-05-19T14:17:02Z</time>
      </trkpt>
      <trkpt lat="43.65112" lon="3.1416">
        <ele>285.6</ele>
        <time>2026-05-19T14:17:07Z</time>
      </trkpt>
      <trkpt lat="43.65109" lon="3.14151">
        <ele>286.5</ele>
        <time>2026-05-19T14:17:12Z</time>
      </trkpt>
      <trkpt lat="43.65106" lon="3.14143">
        <ele>287.5</ele>
        <time>2026-05-19T14:17:17Z</time>
      </trkpt>
      <trkpt lat="43.65104" lon="3.14134">
        <ele>288.2</ele>
        <time>2026-05-19T14:17:22Z</time>
      </trkpt>
      <trkpt lat="43.65101" lon="3.14127">
        <ele>289.3</ele>
        <time>2026-05-19T14:17:27Z</time>
      </trkpt>
      <trkpt lat="43.651" lon="3.1412">
        <ele>289.7</ele>
        <time>2026-05-19T14:17:32Z</time>
      </trkpt>
      <trkpt lat="43.65097" lon="3.14111">
        <ele>290.9</ele>
        <time>2026-05-19T14:17:37Z</time>
      </trkpt>
      <trkpt lat="43.65095" lon="3.14103">
        <ele>291.8</ele>
        <time>2026-05-19T14:17:42Z</time>
      </trkpt>
      <trkpt lat="43.65092" lon="3.14096">
        <ele>293.1</ele>
        <time>2026-05-19T14:17:47Z</time>
      </trkpt>
      <trkpt lat="43.6509" lon="3.1409">
        <ele>294</ele>
        <time>2026-05-19T14:17:52Z</time>
      </trkpt>
      <trkpt lat="43.65088" lon="3.14083">
        <ele>295</ele>
        <time>2026-05-19T14:17:57Z</time>
      </trkpt>
      <trkpt lat="43.65084" lon="3.14075">
        <ele>295.8</ele>
        <time>2026-05-19T14:18:02Z</time>
      </trkpt>
      <trkpt lat="43.65081" lon="3.14067">
        <ele>295.7</ele>
        <time>2026-05-19T14:18:07Z</time>
      </trkpt>
      <trkpt lat="43.65078" lon="3.14059">
        <ele>295.7</ele>
        <time>2026-05-19T14:18:12Z</time>
      </trkpt>
      <trkpt lat="43.65074" lon="3.14051">
        <ele>296</ele>
        <time>2026-05-19T14:18:17Z</time>
      </trkpt>
      <trkpt lat="43.65071" lon="3.14043">
        <ele>296.2</ele>
        <time>2026-05-19T14:18:22Z</time>
      </trkpt>
      <trkpt lat="43.65068" lon="3.14036">
        <ele>296.7</ele>
        <time>2026-05-19T14:18:27Z</time>
      </trkpt>
      <trkpt lat="43.65066" lon="3.14029">
        <ele>296.9</ele>
        <time>2026-05-19T14:18:32Z</time>
      </trkpt>
      <trkpt lat="43.65063" lon="3.14023">
        <ele>297.6</ele>
        <time>2026-05-19T14:18:37Z</time>
      </trkpt>
      <trkpt lat="43.6506" lon="3.14016">
        <ele>298.4</ele>
        <time>2026-05-19T14:18:42Z</time>
      </trkpt>
      <trkpt lat="43.65058" lon="3.14009">
        <ele>298.9</ele>
        <time>2026-05-19T14:18:47Z</time>
      </trkpt>
      <trkpt lat="43.65053" lon="3.14">
        <ele>300.7</ele>
        <time>2026-05-19T14:18:52Z</time>
      </trkpt>
      <trkpt lat="43.6505" lon="3.13992">
        <ele>301.4</ele>
        <time>2026-05-19T14:18:57Z</time>
      </trkpt>
      <trkpt lat="43.65046" lon="3.13985">
        <ele>302.6</ele>
        <time>2026-05-19T14:19:02Z</time>
      </trkpt>
      <trkpt lat="43.65043" lon="3.13977">
        <ele>303.3</ele>
        <time>2026-05-19T14:19:07Z</time>
      </trkpt>
      <trkpt lat="43.65041" lon="3.13968">
        <ele>303.5</ele>
        <time>2026-05-19T14:19:12Z</time>
      </trkpt>
      <trkpt lat="43.65039" lon="3.1396">
        <ele>303.8</ele>
        <time>2026-05-19T14:19:17Z</time>
      </trkpt>
      <trkpt lat="43.65038" lon="3.13953">
        <ele>303.8</ele>
        <time>2026-05-19T14:19:22Z</time>
      </trkpt>
      <trkpt lat="43.65036" lon="3.13943">
        <ele>304</ele>
        <time>2026-05-19T14:19:27Z</time>
      </trkpt>
      <trkpt lat="43.65034" lon="3.13935">
        <ele>304.3</ele>
        <time>2026-05-19T14:19:32Z</time>
      </trkpt>
      <trkpt lat="43.65031" lon="3.13927">
        <ele>305.2</ele>
        <time>2026-05-19T14:19:37Z</time>
      </trkpt>
      <trkpt lat="43.6503" lon="3.13918">
        <ele>305</ele>
        <time>2026-05-19T14:19:42Z</time>
      </trkpt>
      <trkpt lat="43.65028" lon="3.1391">
        <ele>305.4</ele>
        <time>2026-05-19T14:19:47Z</time>
      </trkpt>
      <trkpt lat="43.65026" lon="3.13902">
        <ele>305.7</ele>
        <time>2026-05-19T14:19:52Z</time>
      </trkpt>
      <trkpt lat="43.65024" lon="3.13894">
        <ele>306.1</ele>
        <time>2026-05-19T14:19:57Z</time>
      </trkpt>
      <trkpt lat="43.65021" lon="3.13886">
        <ele>307</ele>
        <time>2026-05-19T14:20:02Z</time>
      </trkpt>
      <trkpt lat="43.65019" lon="3.13876">
        <ele>307.2</ele>
        <time>2026-05-19T14:20:07Z</time>
      </trkpt>
      <trkpt lat="43.65016" lon="3.13868">
        <ele>308.1</ele>
        <time>2026-05-19T14:20:12Z</time>
      </trkpt>
      <trkpt lat="43.65013" lon="3.13859">
        <ele>309</ele>
        <time>2026-05-19T14:20:17Z</time>
      </trkpt>
      <trkpt lat="43.6501" lon="3.13852">
        <ele>310.1</ele>
        <time>2026-05-19T14:20:22Z</time>
      </trkpt>
      <trkpt lat="43.65008" lon="3.13843">
        <ele>310.5</ele>
        <time>2026-05-19T14:20:27Z</time>
      </trkpt>
      <trkpt lat="43.65005" lon="3.13836">
        <ele>311.6</ele>
        <time>2026-05-19T14:20:32Z</time>
      </trkpt>
      <trkpt lat="43.65003" lon="3.13827">
        <ele>311.9</ele>
        <time>2026-05-19T14:20:37Z</time>
      </trkpt>
      <trkpt lat="43.65002" lon="3.13818">
        <ele>311.5</ele>
        <time>2026-05-19T14:20:42Z</time>
      </trkpt>
      <trkpt lat="43.65001" lon="3.13808">
        <ele>311.1</ele>
        <time>2026-05-19T14:20:47Z</time>
      </trkpt>
      <trkpt lat="43.65" lon="3.13798">
        <ele>310.6</ele>
        <time>2026-05-19T14:20:52Z</time>
      </trkpt>
      <trkpt lat="43.64998" lon="3.1379">
        <ele>310.7</ele>
        <time>2026-05-19T14:20:57Z</time>
      </trkpt>
      <trkpt lat="43.64998" lon="3.1378">
        <ele>309.7</ele>
        <time>2026-05-19T14:21:02Z</time>
      </trkpt>
      <trkpt lat="43.64996" lon="3.13771">
        <ele>309.8</ele>
        <time>2026-05-19T14:21:07Z</time>
      </trkpt>
      <trkpt lat="43.64996" lon="3.13759">
        <ele>308.6</ele>
        <time>2026-05-19T14:21:12Z</time>
      </trkpt>
      <trkpt lat="43.64995" lon="3.13749">
        <ele>308.1</ele>
        <time>2026-05-19T14:21:17Z</time>
      </trkpt>
      <trkpt lat="43.64993" lon="3.13739">
        <ele>307.9</ele>
        <time>2026-05-19T14:21:22Z</time>
      </trkpt>
      <trkpt lat="43.64993" lon="3.13733">
        <ele>307.2</ele>
        <time>2026-05-19T14:21:27Z</time>
      </trkpt>
      <trkpt lat="43.64994" lon="3.13722">
        <ele>305.6</ele>
        <time>2026-05-19T14:21:32Z</time>
      </trkpt>
      <trkpt lat="43.64993" lon="3.13712">
        <ele>304.9</ele>
        <time>2026-05-19T14:21:37Z</time>
      </trkpt>
      <trkpt lat="43.64992" lon="3.13703">
        <ele>304.4</ele>
        <time>2026-05-19T14:21:42Z</time>
      </trkpt>
      <trkpt lat="43.64991" lon="3.13693">
        <ele>303.7</ele>
        <time>2026-05-19T14:21:47Z</time>
      </trkpt>
      <trkpt lat="43.64992" lon="3.13686">
        <ele>302.5</ele>
        <time>2026-05-19T14:21:52Z</time>
      </trkpt>
      <trkpt lat="43.64992" lon="3.13679">
        <ele>301.7</ele>
        <time>2026-05-19T14:21:57Z</time>
      </trkpt>
      <trkpt lat="43.64992" lon="3.13677">
        <ele>301.5</ele>
        <time>2026-05-19T14:22:02Z</time>
      </trkpt>
      <trkpt lat="43.64996" lon="3.13672">
        <ele>299.3</ele>
        <time>2026-05-19T14:22:07Z</time>
      </trkpt>
      <trkpt lat="43.65" lon="3.13666">
        <ele>296.9</ele>
        <time>2026-05-19T14:22:12Z</time>
      </trkpt>
      <trkpt lat="43.65005" lon="3.13662">
        <ele>294.7</ele>
        <time>2026-05-19T14:22:17Z</time>
      </trkpt>
      <trkpt lat="43.65011" lon="3.13657">
        <ele>292.2</ele>
        <time>2026-05-19T14:22:22Z</time>
      </trkpt>
      <trkpt lat="43.65017" lon="3.13654">
        <ele>290.1</ele>
        <time>2026-05-19T14:22:27Z</time>
      </trkpt>
      <trkpt lat="43.65022" lon="3.13651">
        <ele>288.4</ele>
        <time>2026-05-19T14:22:32Z</time>
      </trkpt>
      <trkpt lat="43.65027" lon="3.13646">
        <ele>286.6</ele>
        <time>2026-05-19T14:22:37Z</time>
      </trkpt>
      <trkpt lat="43.65028" lon="3.13646">
        <ele>286.3</ele>
        <time>2026-05-19T14:22:42Z</time>
      </trkpt>
      <trkpt lat="43.6503" lon="3.13645">
        <ele>285.7</ele>
        <time>2026-05-19T14:22:47Z</time>
      </trkpt>
      <trkpt lat="43.65033" lon="3.13642">
        <ele>284.7</ele>
        <time>2026-05-19T14:22:52Z</time>
      </trkpt>
      <trkpt lat="43.65038" lon="3.13636">
        <ele>283.1</ele>
        <time>2026-05-19T14:22:57Z</time>
      </trkpt>
      <trkpt lat="43.65042" lon="3.13631">
        <ele>281.9</ele>
        <time>2026-05-19T14:23:02Z</time>
      </trkpt>
      <trkpt lat="43.65047" lon="3.13625">
        <ele>280.6</ele>
        <time>2026-05-19T14:23:07Z</time>
      </trkpt>
      <trkpt lat="43.65053" lon="3.13619">
        <ele>279.3</ele>
        <time>2026-05-19T14:23:12Z</time>
      </trkpt>
      <trkpt lat="43.65056" lon="3.13613">
        <ele>278.7</ele>
        <time>2026-05-19T14:23:17Z</time>
      </trkpt>
      <trkpt lat="43.6506" lon="3.13606">
        <ele>278.1</ele>
        <time>2026-05-19T14:23:22Z</time>
      </trkpt>
      <trkpt lat="43.65064" lon="3.13599">
        <ele>277.6</ele>
        <time>2026-05-19T14:23:27Z</time>
      </trkpt>
      <trkpt lat="43.65067" lon="3.13593">
        <ele>277.3</ele>
        <time>2026-05-19T14:23:32Z</time>
      </trkpt>
      <trkpt lat="43.65069" lon="3.13586">
        <ele>277.3</ele>
        <time>2026-05-19T14:23:37Z</time>
      </trkpt>
      <trkpt lat="43.65069" lon="3.13579">
        <ele>277.9</ele>
        <time>2026-05-19T14:23:42Z</time>
      </trkpt>
      <trkpt lat="43.6507" lon="3.13579">
        <ele>277.9</ele>
        <time>2026-05-19T14:23:47Z</time>
      </trkpt>
      <trkpt lat="43.6507" lon="3.13578">
        <ele>278</ele>
        <time>2026-05-19T14:23:52Z</time>
      </trkpt>
      <trkpt lat="43.6507" lon="3.13578">
        <ele>278</ele>
        <time>2026-05-19T14:23:57Z</time>
      </trkpt>
      <trkpt lat="43.65072" lon="3.13573">
        <ele>278.5</ele>
        <time>2026-05-19T14:24:02Z</time>
      </trkpt>
      <trkpt lat="43.65073" lon="3.13567">
        <ele>279.3</ele>
        <time>2026-05-19T14:24:07Z</time>
      </trkpt>
      <trkpt lat="43.65076" lon="3.13561">
        <ele>280</ele>
        <time>2026-05-19T14:24:12Z</time>
      </trkpt>
      <trkpt lat="43.65077" lon="3.13554">
        <ele>281.1</ele>
        <time>2026-05-19T14:24:17Z</time>
      </trkpt>
      <trkpt lat="43.65079" lon="3.13546">
        <ele>282.3</ele>
        <time>2026-05-19T14:24:22Z</time>
      </trkpt>
      <trkpt lat="43.65081" lon="3.13539">
        <ele>283.4</ele>
        <time>2026-05-19T14:24:27Z</time>
      </trkpt>
      <trkpt lat="43.65082" lon="3.13532">
        <ele>284.6</ele>
        <time>2026-05-19T14:24:32Z</time>
      </trkpt>
      <trkpt lat="43.65083" lon="3.13528">
        <ele>285.3</ele>
        <time>2026-05-19T14:24:37Z</time>
      </trkpt>
      <trkpt lat="43.65082" lon="3.13524">
        <ele>285.9</ele>
        <time>2026-05-19T14:24:42Z</time>
      </trkpt>
      <trkpt lat="43.65083" lon="3.13517">
        <ele>287.1</ele>
        <time>2026-05-19T14:24:47Z</time>
      </trkpt>
      <trkpt lat="43.65084" lon="3.1351">
        <ele>288.3</ele>
        <time>2026-05-19T14:24:52Z</time>
      </trkpt>
      <trkpt lat="43.65086" lon="3.13503">
        <ele>289.3</ele>
        <time>2026-05-19T14:24:57Z</time>
      </trkpt>
      <trkpt lat="43.65089" lon="3.13497">
        <ele>290.4</ele>
        <time>2026-05-19T14:25:02Z</time>
      </trkpt>
      <trkpt lat="43.65091" lon="3.13491">
        <ele>291.7</ele>
        <time>2026-05-19T14:25:07Z</time>
      </trkpt>
      <trkpt lat="43.65092" lon="3.13483">
        <ele>293.5</ele>
        <time>2026-05-19T14:25:12Z</time>
      </trkpt>
      <trkpt lat="43.65095" lon="3.13477">
        <ele>294.7</ele>
        <time>2026-05-19T14:25:17Z</time>
      </trkpt>
      <trkpt lat="43.65097" lon="3.13469">
        <ele>296.4</ele>
        <time>2026-05-19T14:25:22Z</time>
      </trkpt>
      <trkpt lat="43.65099" lon="3.13463">
        <ele>297.7</ele>
        <time>2026-05-19T14:25:27Z</time>
      </trkpt>
      <trkpt lat="43.65101" lon="3.13455">
        <ele>299.4</ele>
        <time>2026-05-19T14:25:32Z</time>
      </trkpt>
      <trkpt lat="43.65102" lon="3.13446">
        <ele>301.4</ele>
        <time>2026-05-19T14:25:37Z</time>
      </trkpt>
      <trkpt lat="43.65104" lon="3.13439">
        <ele>302.9</ele>
        <time>2026-05-19T14:25:42Z</time>
      </trkpt>
      <trkpt lat="43.65106" lon="3.13432">
        <ele>304.3</ele>
        <time>2026-05-19T14:25:47Z</time>
      </trkpt>
      <trkpt lat="43.6511" lon="3.13426">
        <ele>305.3</ele>
        <time>2026-05-19T14:25:52Z</time>
      </trkpt>
      <trkpt lat="43.65114" lon="3.1342">
        <ele>306.3</ele>
        <time>2026-05-19T14:25:57Z</time>
      </trkpt>
      <trkpt lat="43.65114" lon="3.13413">
        <ele>307.8</ele>
        <time>2026-05-19T14:26:02Z</time>
      </trkpt>
      <trkpt lat="43.65114" lon="3.13406">
        <ele>309.3</ele>
        <time>2026-05-19T14:26:07Z</time>
      </trkpt>
      <trkpt lat="43.65115" lon="3.134">
        <ele>310.5</ele>
        <time>2026-05-19T14:26:12Z</time>
      </trkpt>
      <trkpt lat="43.65115" lon="3.13393">
        <ele>312</ele>
        <time>2026-05-19T14:26:17Z</time>
      </trkpt>
      <trkpt lat="43.65115" lon="3.13386">
        <ele>313.4</ele>
        <time>2026-05-19T14:26:22Z</time>
      </trkpt>
      <trkpt lat="43.65114" lon="3.1338">
        <ele>314.8</ele>
        <time>2026-05-19T14:26:27Z</time>
      </trkpt>
      <trkpt lat="43.65114" lon="3.13372">
        <ele>316.5</ele>
        <time>2026-05-19T14:26:32Z</time>
      </trkpt>
      <trkpt lat="43.65115" lon="3.13365">
        <ele>317.9</ele>
        <time>2026-05-19T14:26:37Z</time>
      </trkpt>
      <trkpt lat="43.65114" lon="3.13357">
        <ele>319.7</ele>
        <time>2026-05-19T14:26:42Z</time>
      </trkpt>
      <trkpt lat="43.65116" lon="3.1335">
        <ele>320.8</ele>
        <time>2026-05-19T14:26:47Z</time>
      </trkpt>
      <trkpt lat="43.65117" lon="3.13343">
        <ele>322.1</ele>
        <time>2026-05-19T14:26:52Z</time>
      </trkpt>
      <trkpt lat="43.65119" lon="3.13336">
        <ele>323.2</ele>
        <time>2026-05-19T14:26:57Z</time>
      </trkpt>
      <trkpt lat="43.65121" lon="3.13329">
        <ele>324</ele>
        <time>2026-05-19T14:27:02Z</time>
      </trkpt>
      <trkpt lat="43.65122" lon="3.13323">
        <ele>324.7</ele>
        <time>2026-05-19T14:27:07Z</time>
      </trkpt>
      <trkpt lat="43.65123" lon="3.13315">
        <ele>325.7</ele>
        <time>2026-05-19T14:27:12Z</time>
      </trkpt>
      <trkpt lat="43.65127" lon="3.13307">
        <ele>326</ele>
        <time>2026-05-19T14:27:17Z</time>
      </trkpt>
      <trkpt lat="43.65129" lon="3.133">
        <ele>326.6</ele>
        <time>2026-05-19T14:27:22Z</time>
      </trkpt>
      <trkpt lat="43.65131" lon="3.13293">
        <ele>327.2</ele>
        <time>2026-05-19T14:27:27Z</time>
      </trkpt>
      <trkpt lat="43.65133" lon="3.13291">
        <ele>327.1</ele>
        <time>2026-05-19T14:27:32Z</time>
      </trkpt>
      <trkpt lat="43.65134" lon="3.13287">
        <ele>327.4</ele>
        <time>2026-05-19T14:27:37Z</time>
      </trkpt>
      <trkpt lat="43.65136" lon="3.13281">
        <ele>327.9</ele>
        <time>2026-05-19T14:27:42Z</time>
      </trkpt>
      <trkpt lat="43.65139" lon="3.13275">
        <ele>328</ele>
        <time>2026-05-19T14:27:47Z</time>
      </trkpt>
      <trkpt lat="43.65141" lon="3.13268">
        <ele>328.6</ele>
        <time>2026-05-19T14:27:52Z</time>
      </trkpt>
      <trkpt lat="43.65142" lon="3.13261">
        <ele>329.4</ele>
        <time>2026-05-19T14:27:57Z</time>
      </trkpt>
      <trkpt lat="43.65144" lon="3.13253">
        <ele>330</ele>
        <time>2026-05-19T14:28:02Z</time>
      </trkpt>
      <trkpt lat="43.65144" lon="3.13247">
        <ele>330.8</ele>
        <time>2026-05-19T14:28:07Z</time>
      </trkpt>
      <trkpt lat="43.65147" lon="3.1324">
        <ele>331.1</ele>
        <time>2026-05-19T14:28:12Z</time>
      </trkpt>
      <trkpt lat="43.65149" lon="3.13234">
        <ele>331.5</ele>
        <time>2026-05-19T14:28:17Z</time>
      </trkpt>
      <trkpt lat="43.65153" lon="3.13227">
        <ele>331.6</ele>
        <time>2026-05-19T14:28:22Z</time>
      </trkpt>
      <trkpt lat="43.65155" lon="3.13221">
        <ele>332</ele>
        <time>2026-05-19T14:28:27Z</time>
      </trkpt>
      <trkpt lat="43.65156" lon="3.13215">
        <ele>332.6</ele>
        <time>2026-05-19T14:28:32Z</time>
      </trkpt>
      <trkpt lat="43.65159" lon="3.13211">
        <ele>332.6</ele>
        <time>2026-05-19T14:28:37Z</time>
      </trkpt>
      <trkpt lat="43.65161" lon="3.1321">
        <ele>332.4</ele>
        <time>2026-05-19T14:28:42Z</time>
      </trkpt>
      <trkpt lat="43.65162" lon="3.1321">
        <ele>332.2</ele>
        <time>2026-05-19T14:28:47Z</time>
      </trkpt>
      <trkpt lat="43.65162" lon="3.1321">
        <ele>332.2</ele>
        <time>2026-05-19T14:28:52Z</time>
      </trkpt>
      <trkpt lat="43.65162" lon="3.1321">
        <ele>332.2</ele>
        <time>2026-05-19T14:28:57Z</time>
      </trkpt>
      <trkpt lat="43.65164" lon="3.132">
        <ele>333.3</ele>
        <time>2026-05-19T14:29:02Z</time>
      </trkpt>
      <trkpt lat="43.65167" lon="3.13195">
        <ele>333.5</ele>
        <time>2026-05-19T14:29:07Z</time>
      </trkpt>
      <trkpt lat="43.65168" lon="3.13188">
        <ele>334.3</ele>
        <time>2026-05-19T14:29:12Z</time>
      </trkpt>
      <trkpt lat="43.65168" lon="3.13185">
        <ele>334.7</ele>
        <time>2026-05-19T14:29:17Z</time>
      </trkpt>
      <trkpt lat="43.65169" lon="3.13184">
        <ele>334.6</ele>
        <time>2026-05-19T14:29:22Z</time>
      </trkpt>
      <trkpt lat="43.65169" lon="3.13184">
        <ele>334.6</ele>
        <time>2026-05-19T14:29:27Z</time>
      </trkpt>
      <trkpt lat="43.6517" lon="3.13182">
        <ele>334.6</ele>
        <time>2026-05-19T14:29:32Z</time>
      </trkpt>
      <trkpt lat="43.65171" lon="3.13178">
        <ele>334.9</ele>
        <time>2026-05-19T14:29:37Z</time>
      </trkpt>
      <trkpt lat="43.65172" lon="3.13172">
        <ele>335.6</ele>
        <time>2026-05-19T14:29:42Z</time>
      </trkpt>
      <trkpt lat="43.65177" lon="3.13166">
        <ele>334.9</ele>
        <time>2026-05-19T14:29:47Z</time>
      </trkpt>
      <trkpt lat="43.6518" lon="3.13159">
        <ele>334.4</ele>
        <time>2026-05-19T14:29:52Z</time>
      </trkpt>
      <trkpt lat="43.6518" lon="3.13153">
        <ele>334.7</ele>
        <time>2026-05-19T14:29:57Z</time>
      </trkpt>
      <trkpt lat="43.65183" lon="3.13149">
        <ele>334.1</ele>
        <time>2026-05-19T14:30:02Z</time>
      </trkpt>
      <trkpt lat="43.65186" lon="3.13144">
        <ele>333.6</ele>
        <time>2026-05-19T14:30:07Z</time>
      </trkpt>
      <trkpt lat="43.65191" lon="3.13137">
        <ele>332.7</ele>
        <time>2026-05-19T14:30:12Z</time>
      </trkpt>
      <trkpt lat="43.65194" lon="3.13131">
        <ele>332.3</ele>
        <time>2026-05-19T14:30:17Z</time>
      </trkpt>
      <trkpt lat="43.65198" lon="3.13124">
        <ele>331.9</ele>
        <time>2026-05-19T14:30:22Z</time>
      </trkpt>
      <trkpt lat="43.65199" lon="3.1312">
        <ele>331.9</ele>
        <time>2026-05-19T14:30:27Z</time>
      </trkpt>
      <trkpt lat="43.65198" lon="3.13117">
        <ele>332.4</ele>
        <time>2026-05-19T14:30:32Z</time>
      </trkpt>
      <trkpt lat="43.65198" lon="3.13117">
        <ele>332.4</ele>
        <time>2026-05-19T14:30:37Z</time>
      </trkpt>
      <trkpt lat="43.65198" lon="3.13117">
        <ele>332.4</ele>
        <time>2026-05-19T14:30:42Z</time>
      </trkpt>
      <trkpt lat="43.65198" lon="3.13117">
        <ele>332.4</ele>
        <time>2026-05-19T14:30:47Z</time>
      </trkpt>
      <trkpt lat="43.65207" lon="3.13114">
        <ele>330.5</ele>
        <time>2026-05-19T14:30:52Z</time>
      </trkpt>
      <trkpt lat="43.65208" lon="3.13113">
        <ele>330.4</ele>
        <time>2026-05-19T14:30:57Z</time>
      </trkpt>
      <trkpt lat="43.65208" lon="3.13113">
        <ele>330.4</ele>
        <time>2026-05-19T14:31:02Z</time>
      </trkpt>
      <trkpt lat="43.65213" lon="3.13111">
        <ele>329.4</ele>
        <time>2026-05-19T14:31:07Z</time>
      </trkpt>
      <trkpt lat="43.65216" lon="3.13109">
        <ele>329</ele>
        <time>2026-05-19T14:31:12Z</time>
      </trkpt>
      <trkpt lat="43.65216" lon="3.13109">
        <ele>329</ele>
        <time>2026-05-19T14:31:17Z</time>
      </trkpt>
      <trkpt lat="43.65216" lon="3.13109">
        <ele>329</ele>
        <time>2026-05-19T14:31:22Z</time>
      </trkpt>
      <trkpt lat="43.65216" lon="3.13109">
        <ele>329</ele>
        <time>2026-05-19T14:31:27Z</time>
      </trkpt>
      <trkpt lat="43.65216" lon="3.13109">
        <ele>329</ele>
        <time>2026-05-19T14:31:32Z</time>
      </trkpt>
      <trkpt lat="43.65216" lon="3.13109">
        <ele>329</ele>
        <time>2026-05-19T14:31:37Z</time>
      </trkpt>
      <trkpt lat="43.65216" lon="3.13109">
        <ele>329</ele>
        <time>2026-05-19T14:31:42Z</time>
      </trkpt>
      <trkpt lat="43.65216" lon="3.13109">
        <ele>329</ele>
        <time>2026-05-19T14:31:47Z</time>
      </trkpt>
      <trkpt lat="43.65216" lon="3.13109">
        <ele>329</ele>
        <time>2026-05-19T14:31:52Z</time>
      </trkpt>
      <trkpt lat="43.65216" lon="3.13109">
        <ele>329</ele>
        <time>2026-05-19T14:31:57Z</time>
      </trkpt>
      <trkpt lat="43.65222" lon="3.13102">
        <ele>328.4</ele>
        <time>2026-05-19T14:32:02Z</time>
      </trkpt>
      <trkpt lat="43.65219" lon="3.13097">
        <ele>329.5</ele>
        <time>2026-05-19T14:32:07Z</time>
      </trkpt>
      <trkpt lat="43.65215" lon="3.13092">
        <ele>330.9</ele>
        <time>2026-05-19T14:32:12Z</time>
      </trkpt>
      <trkpt lat="43.65212" lon="3.13086">
        <ele>332</ele>
        <time>2026-05-19T14:32:17Z</time>
      </trkpt>
      <trkpt lat="43.65211" lon="3.13082">
        <ele>332.6</ele>
        <time>2026-05-19T14:32:22Z</time>
      </trkpt>
      <trkpt lat="43.65209" lon="3.13083">
        <ele>332.9</ele>
        <time>2026-05-19T14:32:27Z</time>
      </trkpt>
      <trkpt lat="43.65209" lon="3.13083">
        <ele>332.9</ele>
        <time>2026-05-19T14:32:32Z</time>
      </trkpt>
      <trkpt lat="43.65209" lon="3.13086">
        <ele>332.6</ele>
        <time>2026-05-19T14:32:37Z</time>
      </trkpt>
      <trkpt lat="43.65209" lon="3.13086">
        <ele>332.6</ele>
        <time>2026-05-19T14:32:42Z</time>
      </trkpt>
      <trkpt lat="43.65209" lon="3.13086">
        <ele>332.6</ele>
        <time>2026-05-19T14:32:47Z</time>
      </trkpt>
      <trkpt lat="43.65209" lon="3.13086">
        <ele>332.6</ele>
        <time>2026-05-19T14:32:47Z</time>
      </trkpt>
      <trkpt lat="43.65234" lon="3.13082">
        <ele>328.2</ele>
        <time>2026-05-19T14:42:06Z</time>
      </trkpt>
      <trkpt lat="43.65199" lon="3.13089">
        <ele>334.4</ele>
        <time>2026-05-19T14:42:12Z</time>
      </trkpt>
      <trkpt lat="43.65199" lon="3.13089">
        <ele>334.4</ele>
        <time>2026-05-19T14:42:17Z</time>
      </trkpt>
      <trkpt lat="43.65206" lon="3.13081">
        <ele>333.6</ele>
        <time>2026-05-19T14:42:22Z</time>
      </trkpt>
      <trkpt lat="43.65207" lon="3.13077">
        <ele>333.6</ele>
        <time>2026-05-19T14:42:27Z</time>
      </trkpt>
      <trkpt lat="43.65208" lon="3.13072">
        <ele>333.7</ele>
        <time>2026-05-19T14:42:32Z</time>
      </trkpt>
      <trkpt lat="43.65209" lon="3.13069">
        <ele>333.7</ele>
        <time>2026-05-19T14:42:37Z</time>
      </trkpt>
      <trkpt lat="43.6521" lon="3.13068">
        <ele>333.6</ele>
        <time>2026-05-19T14:42:42Z</time>
      </trkpt>
      <trkpt lat="43.6521" lon="3.13068">
        <ele>333.6</ele>
        <time>2026-05-19T14:42:47Z</time>
      </trkpt>
      <trkpt lat="43.6521" lon="3.13068">
        <ele>333.6</ele>
        <time>2026-05-19T14:42:52Z</time>
      </trkpt>
      <trkpt lat="43.65212" lon="3.13064">
        <ele>333.5</ele>
        <time>2026-05-19T14:42:57Z</time>
      </trkpt>
      <trkpt lat="43.6521" lon="3.13061">
        <ele>334.1</ele>
        <time>2026-05-19T14:43:02Z</time>
      </trkpt>
      <trkpt lat="43.65209" lon="3.13061">
        <ele>334.2</ele>
        <time>2026-05-19T14:43:07Z</time>
      </trkpt>
      <trkpt lat="43.65209" lon="3.13061">
        <ele>334.2</ele>
        <time>2026-05-19T14:43:12Z</time>
      </trkpt>
      <trkpt lat="43.65209" lon="3.13061">
        <ele>334.2</ele>
        <time>2026-05-19T14:43:17Z</time>
      </trkpt>
      <trkpt lat="43.65207" lon="3.13054">
        <ele>335</ele>
        <time>2026-05-19T14:43:22Z</time>
      </trkpt>
      <trkpt lat="43.65207" lon="3.13052">
        <ele>335.1</ele>
        <time>2026-05-19T14:43:27Z</time>
      </trkpt>
      <trkpt lat="43.65209" lon="3.13048">
        <ele>335</ele>
        <time>2026-05-19T14:43:32Z</time>
      </trkpt>
      <trkpt lat="43.6521" lon="3.13049">
        <ele>334.8</ele>
        <time>2026-05-19T14:43:37Z</time>
      </trkpt>
      <trkpt lat="43.65214" lon="3.1305">
        <ele>334.1</ele>
        <time>2026-05-19T14:43:42Z</time>
      </trkpt>
      <trkpt lat="43.65218" lon="3.13046">
        <ele>333.8</ele>
        <time>2026-05-19T14:43:47Z</time>
      </trkpt>
      <trkpt lat="43.65221" lon="3.13043">
        <ele>333.6</ele>
        <time>2026-05-19T14:43:52Z</time>
      </trkpt>
      <trkpt lat="43.65221" lon="3.13043">
        <ele>333.6</ele>
        <time>2026-05-19T14:43:57Z</time>
      </trkpt>
      <trkpt lat="43.65221" lon="3.13043">
        <ele>333.6</ele>
        <time>2026-05-19T14:44:02Z</time>
      </trkpt>
      <trkpt lat="43.65221" lon="3.13043">
        <ele>333.6</ele>
        <time>2026-05-19T14:44:07Z</time>
      </trkpt>
      <trkpt lat="43.65221" lon="3.13043">
        <ele>333.6</ele>
        <time>2026-05-19T14:44:12Z</time>
      </trkpt>
      <trkpt lat="43.65221" lon="3.13043">
        <ele>333.6</ele>
        <time>2026-05-19T14:44:17Z</time>
      </trkpt>
      <trkpt lat="43.65221" lon="3.13043">
        <ele>333.6</ele>
        <time>2026-05-19T14:44:22Z</time>
      </trkpt>
      <trkpt lat="43.65221" lon="3.13043">
        <ele>333.6</ele>
        <time>2026-05-19T14:44:27Z</time>
      </trkpt>
      <trkpt lat="43.65221" lon="3.13043">
        <ele>333.6</ele>
        <time>2026-05-19T14:44:32Z</time>
      </trkpt>
      <trkpt lat="43.65221" lon="3.13043">
        <ele>333.6</ele>
        <time>2026-05-19T14:44:37Z</time>
      </trkpt>
      <trkpt lat="43.65225" lon="3.13038">
        <ele>333.4</ele>
        <time>2026-05-19T14:44:42Z</time>
      </trkpt>
      <trkpt lat="43.65229" lon="3.1304">
        <ele>332.7</ele>
        <time>2026-05-19T14:44:47Z</time>
      </trkpt>
      <trkpt lat="43.65237" lon="3.13041">
        <ele>331.4</ele>
        <time>2026-05-19T14:44:52Z</time>
      </trkpt>
      <trkpt lat="43.65237" lon="3.13041">
        <ele>331.4</ele>
        <time>2026-05-19T14:44:57Z</time>
      </trkpt>
      <trkpt lat="43.65237" lon="3.13041">
        <ele>331.4</ele>
        <time>2026-05-19T14:45:02Z</time>
      </trkpt>
      <trkpt lat="43.65247" lon="3.13046">
        <ele>329.5</ele>
        <time>2026-05-19T14:45:07Z</time>
      </trkpt>
      <trkpt lat="43.65247" lon="3.13051">
        <ele>329</ele>
        <time>2026-05-19T14:45:12Z</time>
      </trkpt>
      <trkpt lat="43.65247" lon="3.13056">
        <ele>328.4</ele>
        <time>2026-05-19T14:45:17Z</time>
      </trkpt>
      <trkpt lat="43.65247" lon="3.13056">
        <ele>328.4</ele>
        <time>2026-05-19T14:45:22Z</time>
      </trkpt>
      <trkpt lat="43.65247" lon="3.13056">
        <ele>328.4</ele>
        <time>2026-05-19T14:45:27Z</time>
      </trkpt>
      <trkpt lat="43.65246" lon="3.13059">
        <ele>328.3</ele>
        <time>2026-05-19T14:45:32Z</time>
      </trkpt>
      <trkpt lat="43.65242" lon="3.13061">
        <ele>328.7</ele>
        <time>2026-05-19T14:45:37Z</time>
      </trkpt>
      <trkpt lat="43.65238" lon="3.13062">
        <ele>329.3</ele>
        <time>2026-05-19T14:45:42Z</time>
      </trkpt>
      <trkpt lat="43.65234" lon="3.13064">
        <ele>329.8</ele>
        <time>2026-05-19T14:45:47Z</time>
      </trkpt>
      <trkpt lat="43.65233" lon="3.13067">
        <ele>329.7</ele>
        <time>2026-05-19T14:45:52Z</time>
      </trkpt>
      <trkpt lat="43.6523" lon="3.13072">
        <ele>329.8</ele>
        <time>2026-05-19T14:45:57Z</time>
      </trkpt>
      <trkpt lat="43.65225" lon="3.13074">
        <ele>330.5</ele>
        <time>2026-05-19T14:46:02Z</time>
      </trkpt>
      <trkpt lat="43.65224" lon="3.13072">
        <ele>330.9</ele>
        <time>2026-05-19T14:46:07Z</time>
      </trkpt>
      <trkpt lat="43.65221" lon="3.13069">
        <ele>331.6</ele>
        <time>2026-05-19T14:46:12Z</time>
      </trkpt>
      <trkpt lat="43.65218" lon="3.13072">
        <ele>332</ele>
        <time>2026-05-19T14:46:17Z</time>
      </trkpt>
      <trkpt lat="43.65213" lon="3.13075">
        <ele>332.6</ele>
        <time>2026-05-19T14:46:22Z</time>
      </trkpt>
      <trkpt lat="43.65212" lon="3.13078">
        <ele>332.6</ele>
        <time>2026-05-19T14:46:27Z</time>
      </trkpt>
      <trkpt lat="43.65213" lon="3.13078">
        <ele>332.5</ele>
        <time>2026-05-19T14:46:32Z</time>
      </trkpt>
      <trkpt lat="43.65213" lon="3.13078">
        <ele>332.5</ele>
        <time>2026-05-19T14:46:37Z</time>
      </trkpt>
      <trkpt lat="43.65213" lon="3.13078">
        <ele>332.5</ele>
        <time>2026-05-19T14:46:42Z</time>
      </trkpt>
      <trkpt lat="43.65215" lon="3.13064">
        <ele>333</ele>
        <time>2026-05-19T14:46:47Z</time>
      </trkpt>
      <trkpt lat="43.65214" lon="3.13063">
        <ele>333.3</ele>
        <time>2026-05-19T14:46:52Z</time>
      </trkpt>
      <trkpt lat="43.65214" lon="3.13063">
        <ele>333.3</ele>
        <time>2026-05-19T14:46:57Z</time>
      </trkpt>
      <trkpt lat="43.65214" lon="3.13063">
        <ele>333.3</ele>
        <time>2026-05-19T14:47:02Z</time>
      </trkpt>
      <trkpt lat="43.65214" lon="3.13063">
        <ele>333.3</ele>
        <time>2026-05-19T14:47:07Z</time>
      </trkpt>
      <trkpt lat="43.65214" lon="3.13063">
        <ele>333.3</ele>
        <time>2026-05-19T14:47:12Z</time>
      </trkpt>
      <trkpt lat="43.65214" lon="3.13063">
        <ele>333.3</ele>
        <time>2026-05-19T14:47:17Z</time>
      </trkpt>
      <trkpt lat="43.65203" lon="3.13059">
        <ele>335.3</ele>
        <time>2026-05-19T14:47:22Z</time>
      </trkpt>
      <trkpt lat="43.652" lon="3.13057">
        <ele>335.9</ele>
        <time>2026-05-19T14:47:27Z</time>
      </trkpt>
      <trkpt lat="43.65203" lon="3.13058">
        <ele>335.4</ele>
        <time>2026-05-19T14:47:32Z</time>
      </trkpt>
      <trkpt lat="43.65203" lon="3.13059">
        <ele>335.3</ele>
        <time>2026-05-19T14:47:37Z</time>
      </trkpt>
      <trkpt lat="43.65209" lon="3.13068">
        <ele>333.8</ele>
        <time>2026-05-19T14:47:42Z</time>
      </trkpt>
      <trkpt lat="43.65209" lon="3.13074">
        <ele>333.4</ele>
        <time>2026-05-19T14:47:47Z</time>
      </trkpt>
      <trkpt lat="43.65212" lon="3.13081">
        <ele>332.4</ele>
        <time>2026-05-19T14:47:52Z</time>
      </trkpt>
      <trkpt lat="43.65213" lon="3.13087">
        <ele>331.8</ele>
        <time>2026-05-19T14:47:57Z</time>
      </trkpt>
      <trkpt lat="43.65213" lon="3.13092">
        <ele>331.3</ele>
        <time>2026-05-19T14:48:02Z</time>
      </trkpt>
      <trkpt lat="43.65213" lon="3.13094">
        <ele>331.1</ele>
        <time>2026-05-19T14:48:07Z</time>
      </trkpt>
      <trkpt lat="43.65216" lon="3.13097">
        <ele>330.2</ele>
        <time>2026-05-19T14:48:12Z</time>
      </trkpt>
      <trkpt lat="43.6522" lon="3.13103">
        <ele>328.7</ele>
        <time>2026-05-19T14:48:17Z</time>
      </trkpt>
      <trkpt lat="43.65222" lon="3.13109">
        <ele>327.6</ele>
        <time>2026-05-19T14:48:22Z</time>
      </trkpt>
      <trkpt lat="43.65225" lon="3.1311">
        <ele>326.8</ele>
        <time>2026-05-19T14:48:27Z</time>
      </trkpt>
      <trkpt lat="43.6523" lon="3.13108">
        <ele>325.9</ele>
        <time>2026-05-19T14:48:32Z</time>
      </trkpt>
      <trkpt lat="43.65234" lon="3.13102">
        <ele>325.8</ele>
        <time>2026-05-19T14:48:37Z</time>
      </trkpt>
      <trkpt lat="43.65237" lon="3.13101">
        <ele>325.2</ele>
        <time>2026-05-19T14:48:42Z</time>
      </trkpt>
      <trkpt lat="43.65242" lon="3.13102">
        <ele>324</ele>
        <time>2026-05-19T14:48:47Z</time>
      </trkpt>
      <trkpt lat="43.65247" lon="3.13102">
        <ele>323</ele>
        <time>2026-05-19T14:48:52Z</time>
      </trkpt>
      <trkpt lat="43.65252" lon="3.13101">
        <ele>322.3</ele>
        <time>2026-05-19T14:48:57Z</time>
      </trkpt>
      <trkpt lat="43.65257" lon="3.13103">
        <ele>321.7</ele>
        <time>2026-05-19T14:49:02Z</time>
      </trkpt>
      <trkpt lat="43.65264" lon="3.13099">
        <ele>321.9</ele>
        <time>2026-05-19T14:49:07Z</time>
      </trkpt>
      <trkpt lat="43.65268" lon="3.13095">
        <ele>322.1</ele>
        <time>2026-05-19T14:49:12Z</time>
      </trkpt>
      <trkpt lat="43.6527" lon="3.13092">
        <ele>322.4</ele>
        <time>2026-05-19T14:49:17Z</time>
      </trkpt>
      <trkpt lat="43.65271" lon="3.13086">
        <ele>323.1</ele>
        <time>2026-05-19T14:49:22Z</time>
      </trkpt>
      <trkpt lat="43.65271" lon="3.1308">
        <ele>323.9</ele>
        <time>2026-05-19T14:49:27Z</time>
      </trkpt>
      <trkpt lat="43.65271" lon="3.13076">
        <ele>324.4</ele>
        <time>2026-05-19T14:49:32Z</time>
      </trkpt>
      <trkpt lat="43.6527" lon="3.13071">
        <ele>325</ele>
        <time>2026-05-19T14:49:37Z</time>
      </trkpt>
      <trkpt lat="43.65268" lon="3.13064">
        <ele>326</ele>
        <time>2026-05-19T14:49:42Z</time>
      </trkpt>
      <trkpt lat="43.65267" lon="3.13059">
        <ele>326.6</ele>
        <time>2026-05-19T14:49:47Z</time>
      </trkpt>
      <trkpt lat="43.65267" lon="3.13057">
        <ele>326.9</ele>
        <time>2026-05-19T14:49:52Z</time>
      </trkpt>
      <trkpt lat="43.65267" lon="3.13052">
        <ele>327.5</ele>
        <time>2026-05-19T14:49:57Z</time>
      </trkpt>
      <trkpt lat="43.65269" lon="3.13048">
        <ele>327.8</ele>
        <time>2026-05-19T14:50:02Z</time>
      </trkpt>
      <trkpt lat="43.65271" lon="3.13048">
        <ele>327.7</ele>
        <time>2026-05-19T14:50:07Z</time>
      </trkpt>
      <trkpt lat="43.65271" lon="3.13048">
        <ele>327.7</ele>
        <time>2026-05-19T14:50:12Z</time>
      </trkpt>
      <trkpt lat="43.65274" lon="3.13043">
        <ele>328.2</ele>
        <time>2026-05-19T14:50:17Z</time>
      </trkpt>
      <trkpt lat="43.65276" lon="3.13036">
        <ele>328.9</ele>
        <time>2026-05-19T14:50:22Z</time>
      </trkpt>
      <trkpt lat="43.65278" lon="3.13028">
        <ele>329.9</ele>
        <time>2026-05-19T14:50:27Z</time>
      </trkpt>
      <trkpt lat="43.6528" lon="3.13023">
        <ele>330.4</ele>
        <time>2026-05-19T14:50:32Z</time>
      </trkpt>
      <trkpt lat="43.65287" lon="3.13022">
        <ele>330.3</ele>
        <time>2026-05-19T14:50:37Z</time>
      </trkpt>
      <trkpt lat="43.65289" lon="3.13019">
        <ele>330.6</ele>
        <time>2026-05-19T14:50:42Z</time>
      </trkpt>
      <trkpt lat="43.65286" lon="3.13015">
        <ele>331.2</ele>
        <time>2026-05-19T14:50:47Z</time>
      </trkpt>
      <trkpt lat="43.65284" lon="3.13015">
        <ele>331.3</ele>
        <time>2026-05-19T14:50:52Z</time>
      </trkpt>
      <trkpt lat="43.65284" lon="3.13015">
        <ele>331.3</ele>
        <time>2026-05-19T14:50:57Z</time>
      </trkpt>
      <trkpt lat="43.65284" lon="3.13015">
        <ele>331.3</ele>
        <time>2026-05-19T14:51:02Z</time>
      </trkpt>
      <trkpt lat="43.65285" lon="3.13011">
        <ele>331.8</ele>
        <time>2026-05-19T14:51:07Z</time>
      </trkpt>
      <trkpt lat="43.65286" lon="3.13003">
        <ele>332.7</ele>
        <time>2026-05-19T14:51:12Z</time>
      </trkpt>
      <trkpt lat="43.65288" lon="3.12997">
        <ele>333.4</ele>
        <time>2026-05-19T14:51:17Z</time>
      </trkpt>
      <trkpt lat="43.6529" lon="3.12993">
        <ele>333.8</ele>
        <time>2026-05-19T14:51:22Z</time>
      </trkpt>
      <trkpt lat="43.6529" lon="3.12992">
        <ele>333.9</ele>
        <time>2026-05-19T14:51:27Z</time>
      </trkpt>
      <trkpt lat="43.6529" lon="3.12992">
        <ele>333.9</ele>
        <time>2026-05-19T14:51:32Z</time>
      </trkpt>
      <trkpt lat="43.6529" lon="3.12992">
        <ele>333.9</ele>
        <time>2026-05-19T14:51:37Z</time>
      </trkpt>
      <trkpt lat="43.6529" lon="3.12992">
        <ele>333.9</ele>
        <time>2026-05-19T14:51:42Z</time>
      </trkpt>
      <trkpt lat="43.6529" lon="3.12992">
        <ele>333.9</ele>
        <time>2026-05-19T14:51:47Z</time>
      </trkpt>
      <trkpt lat="43.6529" lon="3.12992">
        <ele>333.9</ele>
        <time>2026-05-19T14:51:52Z</time>
      </trkpt>
      <trkpt lat="43.65278" lon="3.12994">
        <ele>334</ele>
        <time>2026-05-19T14:51:57Z</time>
      </trkpt>
      <trkpt lat="43.65272" lon="3.12991">
        <ele>334.4</ele>
        <time>2026-05-19T14:52:02Z</time>
      </trkpt>
      <trkpt lat="43.65266" lon="3.1299">
        <ele>334.6</ele>
        <time>2026-05-19T14:52:07Z</time>
      </trkpt>
      <trkpt lat="43.65265" lon="3.1299">
        <ele>334.6</ele>
        <time>2026-05-19T14:52:12Z</time>
      </trkpt>
      <trkpt lat="43.65265" lon="3.1299">
        <ele>334.6</ele>
        <time>2026-05-19T14:52:17Z</time>
      </trkpt>
      <trkpt lat="43.65265" lon="3.1299">
        <ele>334.6</ele>
        <time>2026-05-19T14:52:22Z</time>
      </trkpt>
      <trkpt lat="43.65265" lon="3.1299">
        <ele>334.6</ele>
        <time>2026-05-19T14:52:27Z</time>
      </trkpt>
      <trkpt lat="43.65265" lon="3.1299">
        <ele>334.6</ele>
        <time>2026-05-19T14:52:32Z</time>
      </trkpt>
      <trkpt lat="43.65265" lon="3.1299">
        <ele>334.6</ele>
        <time>2026-05-19T14:52:37Z</time>
      </trkpt>
      <trkpt lat="43.65265" lon="3.1299">
        <ele>334.6</ele>
        <time>2026-05-19T14:52:42Z</time>
      </trkpt>
      <trkpt lat="43.65265" lon="3.1299">
        <ele>334.6</ele>
        <time>2026-05-19T14:52:47Z</time>
      </trkpt>
      <trkpt lat="43.65265" lon="3.1299">
        <ele>334.6</ele>
        <time>2026-05-19T14:52:52Z</time>
      </trkpt>
      <trkpt lat="43.65265" lon="3.1299">
        <ele>334.6</ele>
        <time>2026-05-19T14:52:57Z</time>
      </trkpt>
      <trkpt lat="43.65265" lon="3.1299">
        <ele>334.6</ele>
        <time>2026-05-19T14:53:02Z</time>
      </trkpt>
      <trkpt lat="43.65261" lon="3.12993">
        <ele>334.4</ele>
        <time>2026-05-19T14:53:07Z</time>
      </trkpt>
      <trkpt lat="43.6526" lon="3.12993">
        <ele>334.5</ele>
        <time>2026-05-19T14:53:12Z</time>
      </trkpt>
      <trkpt lat="43.65254" lon="3.12991">
        <ele>334.8</ele>
        <time>2026-05-19T14:53:17Z</time>
      </trkpt>
      <trkpt lat="43.65249" lon="3.12991">
        <ele>335</ele>
        <time>2026-05-19T14:53:22Z</time>
      </trkpt>
      <trkpt lat="43.65245" lon="3.12993">
        <ele>335.1</ele>
        <time>2026-05-19T14:53:27Z</time>
      </trkpt>
      <trkpt lat="43.65242" lon="3.12992">
        <ele>335.5</ele>
        <time>2026-05-19T14:53:32Z</time>
      </trkpt>
      <trkpt lat="43.65239" lon="3.12992">
        <ele>335.8</ele>
        <time>2026-05-19T14:53:37Z</time>
      </trkpt>
      <trkpt lat="43.65234" lon="3.1299">
        <ele>336.4</ele>
        <time>2026-05-19T14:53:42Z</time>
      </trkpt>
      <trkpt lat="43.65231" lon="3.12989">
        <ele>336.8</ele>
        <time>2026-05-19T14:53:47Z</time>
      </trkpt>
      <trkpt lat="43.65228" lon="3.12989">
        <ele>337.1</ele>
        <time>2026-05-19T14:53:52Z</time>
      </trkpt>
      <trkpt lat="43.65228" lon="3.12989">
        <ele>337.1</ele>
        <time>2026-05-19T14:53:57Z</time>
      </trkpt>
      <trkpt lat="43.65225" lon="3.12986">
        <ele>337.6</ele>
        <time>2026-05-19T14:54:02Z</time>
      </trkpt>
      <trkpt lat="43.65221" lon="3.12985">
        <ele>338</ele>
        <time>2026-05-19T14:54:07Z</time>
      </trkpt>
      <trkpt lat="43.65218" lon="3.12987">
        <ele>338.1</ele>
        <time>2026-05-19T14:54:12Z</time>
      </trkpt>
      <trkpt lat="43.65216" lon="3.12985">
        <ele>338.5</ele>
        <time>2026-05-19T14:54:17Z</time>
      </trkpt>
      <trkpt lat="43.65214" lon="3.12982">
        <ele>338.9</ele>
        <time>2026-05-19T14:54:22Z</time>
      </trkpt>
      <trkpt lat="43.65212" lon="3.1298">
        <ele>339.2</ele>
        <time>2026-05-19T14:54:27Z</time>
      </trkpt>
      <trkpt lat="43.65208" lon="3.12979">
        <ele>339.7</ele>
        <time>2026-05-19T14:54:32Z</time>
      </trkpt>
      <trkpt lat="43.65204" lon="3.12979">
        <ele>340</ele>
        <time>2026-05-19T14:54:37Z</time>
      </trkpt>
      <trkpt lat="43.65201" lon="3.12976">
        <ele>340.5</ele>
        <time>2026-05-19T14:54:42Z</time>
      </trkpt>
      <trkpt lat="43.652" lon="3.12975">
        <ele>340.7</ele>
        <time>2026-05-19T14:54:47Z</time>
      </trkpt>
      <trkpt lat="43.652" lon="3.12975">
        <ele>340.7</ele>
        <time>2026-05-19T14:54:52Z</time>
      </trkpt>
      <trkpt lat="43.652" lon="3.12975">
        <ele>340.7</ele>
        <time>2026-05-19T14:54:57Z</time>
      </trkpt>
      <trkpt lat="43.652" lon="3.12975">
        <ele>340.7</ele>
        <time>2026-05-19T14:55:02Z</time>
      </trkpt>
      <trkpt lat="43.652" lon="3.12975">
        <ele>340.7</ele>
        <time>2026-05-19T14:55:07Z</time>
      </trkpt>
      <trkpt lat="43.65196" lon="3.12975">
        <ele>341</ele>
        <time>2026-05-19T14:55:12Z</time>
      </trkpt>
      <trkpt lat="43.65194" lon="3.12976">
        <ele>341.1</ele>
        <time>2026-05-19T14:55:17Z</time>
      </trkpt>
      <trkpt lat="43.65194" lon="3.12976">
        <ele>341.1</ele>
        <time>2026-05-19T14:55:22Z</time>
      </trkpt>
      <trkpt lat="43.65194" lon="3.12976">
        <ele>341.1</ele>
        <time>2026-05-19T14:55:27Z</time>
      </trkpt>
      <trkpt lat="43.65191" lon="3.1297">
        <ele>341.8</ele>
        <time>2026-05-19T14:55:32Z</time>
      </trkpt>
      <trkpt lat="43.65187" lon="3.12966">
        <ele>342.4</ele>
        <time>2026-05-19T14:55:37Z</time>
      </trkpt>
      <trkpt lat="43.65184" lon="3.12963">
        <ele>342.8</ele>
        <time>2026-05-19T14:55:42Z</time>
      </trkpt>
      <trkpt lat="43.65178" lon="3.12962">
        <ele>343.4</ele>
        <time>2026-05-19T14:55:47Z</time>
      </trkpt>
      <trkpt lat="43.65173" lon="3.12956">
        <ele>344.2</ele>
        <time>2026-05-19T14:55:52Z</time>
      </trkpt>
      <trkpt lat="43.65167" lon="3.1295">
        <ele>345</ele>
        <time>2026-05-19T14:55:57Z</time>
      </trkpt>
      <trkpt lat="43.65162" lon="3.12941">
        <ele>345.8</ele>
        <time>2026-05-19T14:56:02Z</time>
      </trkpt>
      <trkpt lat="43.65159" lon="3.12934">
        <ele>346.4</ele>
        <time>2026-05-19T14:56:07Z</time>
      </trkpt>
      <trkpt lat="43.65158" lon="3.12927">
        <ele>346.9</ele>
        <time>2026-05-19T14:56:12Z</time>
      </trkpt>
      <trkpt lat="43.65158" lon="3.12922">
        <ele>347.1</ele>
        <time>2026-05-19T14:56:17Z</time>
      </trkpt>
      <trkpt lat="43.65156" lon="3.1291">
        <ele>347.9</ele>
        <time>2026-05-19T14:56:22Z</time>
      </trkpt>
      <trkpt lat="43.65158" lon="3.12903">
        <ele>348.2</ele>
        <time>2026-05-19T14:56:27Z</time>
      </trkpt>
      <trkpt lat="43.6516" lon="3.12894">
        <ele>348.7</ele>
        <time>2026-05-19T14:56:32Z</time>
      </trkpt>
      <trkpt lat="43.65162" lon="3.12885">
        <ele>349.1</ele>
        <time>2026-05-19T14:56:37Z</time>
      </trkpt>
      <trkpt lat="43.65163" lon="3.1288">
        <ele>349.4</ele>
        <time>2026-05-19T14:56:42Z</time>
      </trkpt>
      <trkpt lat="43.65165" lon="3.12874">
        <ele>349.6</ele>
        <time>2026-05-19T14:56:47Z</time>
      </trkpt>
      <trkpt lat="43.65168" lon="3.12872">
        <ele>349.6</ele>
        <time>2026-05-19T14:56:52Z</time>
      </trkpt>
      <trkpt lat="43.65173" lon="3.12873">
        <ele>349.2</ele>
        <time>2026-05-19T14:56:57Z</time>
      </trkpt>
      <trkpt lat="43.65179" lon="3.12871">
        <ele>349</ele>
        <time>2026-05-19T14:57:02Z</time>
      </trkpt>
      <trkpt lat="43.65183" lon="3.12871">
        <ele>348.8</ele>
        <time>2026-05-19T14:57:07Z</time>
      </trkpt>
      <trkpt lat="43.65188" lon="3.12871">
        <ele>348.5</ele>
        <time>2026-05-19T14:57:12Z</time>
      </trkpt>
      <trkpt lat="43.65192" lon="3.1287">
        <ele>348.3</ele>
        <time>2026-05-19T14:57:17Z</time>
      </trkpt>
      <trkpt lat="43.65196" lon="3.12869">
        <ele>348.1</ele>
        <time>2026-05-19T14:57:22Z</time>
      </trkpt>
      <trkpt lat="43.652" lon="3.12867">
        <ele>348</ele>
        <time>2026-05-19T14:57:27Z</time>
      </trkpt>
      <trkpt lat="43.65203" lon="3.12866">
        <ele>347.9</ele>
        <time>2026-05-19T14:57:32Z</time>
      </trkpt>
      <trkpt lat="43.65205" lon="3.12863">
        <ele>347.9</ele>
        <time>2026-05-19T14:57:37Z</time>
      </trkpt>
      <trkpt lat="43.65205" lon="3.12863">
        <ele>347.9</ele>
        <time>2026-05-19T14:57:42Z</time>
      </trkpt>
      <trkpt lat="43.65205" lon="3.12863">
        <ele>347.9</ele>
        <time>2026-05-19T14:57:47Z</time>
      </trkpt>
      <trkpt lat="43.65202" lon="3.12863">
        <ele>348.1</ele>
        <time>2026-05-19T14:57:52Z</time>
      </trkpt>
      <trkpt lat="43.65197" lon="3.1286">
        <ele>348.6</ele>
        <time>2026-05-19T14:57:57Z</time>
      </trkpt>
      <trkpt lat="43.65192" lon="3.12856">
        <ele>349.1</ele>
        <time>2026-05-19T14:58:02Z</time>
      </trkpt>
      <trkpt lat="43.65187" lon="3.12853">
        <ele>349.6</ele>
        <time>2026-05-19T14:58:07Z</time>
      </trkpt>
      <trkpt lat="43.65182" lon="3.1285">
        <ele>350.1</ele>
        <time>2026-05-19T14:58:12Z</time>
      </trkpt>
      <trkpt lat="43.65178" lon="3.12846">
        <ele>350.6</ele>
        <time>2026-05-19T14:58:17Z</time>
      </trkpt>
      <trkpt lat="43.65173" lon="3.12843">
        <ele>351</ele>
        <time>2026-05-19T14:58:22Z</time>
      </trkpt>
      <trkpt lat="43.65169" lon="3.12836">
        <ele>351.7</ele>
        <time>2026-05-19T14:58:27Z</time>
      </trkpt>
      <trkpt lat="43.65163" lon="3.12832">
        <ele>352.3</ele>
        <time>2026-05-19T14:58:32Z</time>
      </trkpt>
      <trkpt lat="43.65158" lon="3.12827">
        <ele>353.1</ele>
        <time>2026-05-19T14:58:37Z</time>
      </trkpt>
      <trkpt lat="43.65154" lon="3.12824">
        <ele>353.6</ele>
        <time>2026-05-19T14:58:42Z</time>
      </trkpt>
      <trkpt lat="43.6515" lon="3.12824">
        <ele>353.8</ele>
        <time>2026-05-19T14:58:47Z</time>
      </trkpt>
      <trkpt lat="43.65147" lon="3.12825">
        <ele>353.9</ele>
        <time>2026-05-19T14:58:52Z</time>
      </trkpt>
      <trkpt lat="43.65143" lon="3.12827">
        <ele>353.8</ele>
        <time>2026-05-19T14:58:57Z</time>
      </trkpt>
      <trkpt lat="43.65138" lon="3.12825">
        <ele>354.3</ele>
        <time>2026-05-19T14:59:02Z</time>
      </trkpt>
      <trkpt lat="43.65131" lon="3.12821">
        <ele>355.1</ele>
        <time>2026-05-19T14:59:07Z</time>
      </trkpt>
      <trkpt lat="43.65126" lon="3.12821">
        <ele>355.4</ele>
        <time>2026-05-19T14:59:12Z</time>
      </trkpt>
      <trkpt lat="43.65121" lon="3.12822">
        <ele>355.5</ele>
        <time>2026-05-19T14:59:17Z</time>
      </trkpt>
      <trkpt lat="43.65118" lon="3.12822">
        <ele>355.6</ele>
        <time>2026-05-19T14:59:22Z</time>
      </trkpt>
      <trkpt lat="43.65118" lon="3.12822">
        <ele>355.6</ele>
        <time>2026-05-19T14:59:27Z</time>
      </trkpt>
      <trkpt lat="43.65117" lon="3.12825">
        <ele>355.3</ele>
        <time>2026-05-19T14:59:32Z</time>
      </trkpt>
      <trkpt lat="43.65112" lon="3.12824">
        <ele>355.7</ele>
        <time>2026-05-19T14:59:37Z</time>
      </trkpt>
      <trkpt lat="43.65109" lon="3.12828">
        <ele>355.4</ele>
        <time>2026-05-19T14:59:42Z</time>
      </trkpt>
      <trkpt lat="43.65109" lon="3.12837">
        <ele>354.5</ele>
        <time>2026-05-19T14:59:47Z</time>
      </trkpt>
      <trkpt lat="43.65107" lon="3.12843">
        <ele>354.3</ele>
        <time>2026-05-19T14:59:52Z</time>
      </trkpt>
      <trkpt lat="43.65108" lon="3.1285">
        <ele>353.8</ele>
        <time>2026-05-19T14:59:57Z</time>
      </trkpt>
      <trkpt lat="43.65106" lon="3.12859">
        <ele>353.4</ele>
        <time>2026-05-19T15:00:02Z</time>
      </trkpt>
      <trkpt lat="43.65103" lon="3.12867">
        <ele>353</ele>
        <time>2026-05-19T15:00:07Z</time>
      </trkpt>
      <trkpt lat="43.651" lon="3.12874">
        <ele>352.8</ele>
        <time>2026-05-19T15:00:12Z</time>
      </trkpt>
      <trkpt lat="43.65097" lon="3.12879">
        <ele>352.6</ele>
        <time>2026-05-19T15:00:17Z</time>
      </trkpt>
      <trkpt lat="43.65096" lon="3.12878">
        <ele>352.7</ele>
        <time>2026-05-19T15:00:22Z</time>
      </trkpt>
      <trkpt lat="43.65092" lon="3.12878">
        <ele>352.9</ele>
        <time>2026-05-19T15:00:27Z</time>
      </trkpt>
      <trkpt lat="43.65087" lon="3.12877">
        <ele>353.2</ele>
        <time>2026-05-19T15:00:32Z</time>
      </trkpt>
      <trkpt lat="43.65085" lon="3.12875">
        <ele>353.4</ele>
        <time>2026-05-19T15:00:37Z</time>
      </trkpt>
      <trkpt lat="43.65082" lon="3.12875">
        <ele>353.5</ele>
        <time>2026-05-19T15:00:42Z</time>
      </trkpt>
      <trkpt lat="43.65079" lon="3.12872">
        <ele>353.8</ele>
        <time>2026-05-19T15:00:47Z</time>
      </trkpt>
      <trkpt lat="43.65079" lon="3.1287">
        <ele>353.9</ele>
        <time>2026-05-19T15:00:52Z</time>
      </trkpt>
      <trkpt lat="43.65077" lon="3.1287">
        <ele>353.9</ele>
        <time>2026-05-19T15:00:57Z</time>
      </trkpt>
      <trkpt lat="43.65073" lon="3.12868">
        <ele>354.1</ele>
        <time>2026-05-19T15:01:02Z</time>
      </trkpt>
      <trkpt lat="43.65069" lon="3.12867">
        <ele>354.3</ele>
        <time>2026-05-19T15:01:07Z</time>
      </trkpt>
      <trkpt lat="43.65066" lon="3.12866">
        <ele>354.4</ele>
        <time>2026-05-19T15:01:12Z</time>
      </trkpt>
      <trkpt lat="43.65066" lon="3.12866">
        <ele>354.4</ele>
        <time>2026-05-19T15:01:17Z</time>
      </trkpt>
      <trkpt lat="43.65066" lon="3.12866">
        <ele>354.4</ele>
        <time>2026-05-19T15:01:22Z</time>
      </trkpt>
      <trkpt lat="43.65066" lon="3.12866">
        <ele>354.4</ele>
        <time>2026-05-19T15:01:27Z</time>
      </trkpt>
      <trkpt lat="43.65061" lon="3.12868">
        <ele>354.4</ele>
        <time>2026-05-19T15:01:32Z</time>
      </trkpt>
      <trkpt lat="43.65055" lon="3.12869">
        <ele>354.4</ele>
        <time>2026-05-19T15:01:37Z</time>
      </trkpt>
      <trkpt lat="43.65051" lon="3.12866">
        <ele>354.6</ele>
        <time>2026-05-19T15:01:42Z</time>
      </trkpt>
      <trkpt lat="43.65045" lon="3.12863">
        <ele>354.9</ele>
        <time>2026-05-19T15:01:47Z</time>
      </trkpt>
      <trkpt lat="43.65041" lon="3.1286">
        <ele>355.1</ele>
        <time>2026-05-19T15:01:52Z</time>
      </trkpt>
      <trkpt lat="43.6504" lon="3.12857">
        <ele>355.2</ele>
        <time>2026-05-19T15:01:57Z</time>
      </trkpt>
      <trkpt lat="43.65035" lon="3.12853">
        <ele>355.4</ele>
        <time>2026-05-19T15:02:02Z</time>
      </trkpt>
      <trkpt lat="43.65029" lon="3.1285">
        <ele>355.5</ele>
        <time>2026-05-19T15:02:07Z</time>
      </trkpt>
      <trkpt lat="43.65024" lon="3.12847">
        <ele>355.6</ele>
        <time>2026-05-19T15:02:12Z</time>
      </trkpt>
      <trkpt lat="43.65017" lon="3.12843">
        <ele>355.8</ele>
        <time>2026-05-19T15:02:17Z</time>
      </trkpt>
      <trkpt lat="43.65011" lon="3.12839">
        <ele>355.9</ele>
        <time>2026-05-19T15:02:22Z</time>
      </trkpt>
      <trkpt lat="43.65006" lon="3.12835">
        <ele>356</ele>
        <time>2026-05-19T15:02:27Z</time>
      </trkpt>
      <trkpt lat="43.65" lon="3.12831">
        <ele>356.2</ele>
        <time>2026-05-19T15:02:32Z</time>
      </trkpt>
      <trkpt lat="43.64993" lon="3.12826">
        <ele>356.9</ele>
        <time>2026-05-19T15:02:37Z</time>
      </trkpt>
      <trkpt lat="43.64986" lon="3.12822">
        <ele>357.4</ele>
        <time>2026-05-19T15:02:42Z</time>
      </trkpt>
      <trkpt lat="43.64979" lon="3.12818">
        <ele>358</ele>
        <time>2026-05-19T15:02:47Z</time>
      </trkpt>
      <trkpt lat="43.64974" lon="3.12815">
        <ele>358.3</ele>
        <time>2026-05-19T15:02:52Z</time>
      </trkpt>
      <trkpt lat="43.64968" lon="3.12812">
        <ele>358.7</ele>
        <time>2026-05-19T15:02:57Z</time>
      </trkpt>
      <trkpt lat="43.64964" lon="3.12806">
        <ele>359.3</ele>
        <time>2026-05-19T15:03:02Z</time>
      </trkpt>
      <trkpt lat="43.64958" lon="3.12803">
        <ele>359.7</ele>
        <time>2026-05-19T15:03:07Z</time>
      </trkpt>
      <trkpt lat="43.64954" lon="3.128">
        <ele>360</ele>
        <time>2026-05-19T15:03:12Z</time>
      </trkpt>
      <trkpt lat="43.64952" lon="3.12799">
        <ele>360.1</ele>
        <time>2026-05-19T15:03:17Z</time>
      </trkpt>
      <trkpt lat="43.64952" lon="3.128">
        <ele>360.1</ele>
        <time>2026-05-19T15:03:22Z</time>
      </trkpt>
      <trkpt lat="43.64952" lon="3.128">
        <ele>360.1</ele>
        <time>2026-05-19T15:03:27Z</time>
      </trkpt>
      <trkpt lat="43.64952" lon="3.128">
        <ele>360.1</ele>
        <time>2026-05-19T15:03:32Z</time>
      </trkpt>
      <trkpt lat="43.64952" lon="3.128">
        <ele>360.1</ele>
        <time>2026-05-19T15:03:37Z</time>
      </trkpt>
      <trkpt lat="43.64946" lon="3.12793">
        <ele>360.7</ele>
        <time>2026-05-19T15:03:42Z</time>
      </trkpt>
      <trkpt lat="43.64941" lon="3.12788">
        <ele>361.2</ele>
        <time>2026-05-19T15:03:47Z</time>
      </trkpt>
      <trkpt lat="43.64935" lon="3.12783">
        <ele>361.6</ele>
        <time>2026-05-19T15:03:52Z</time>
      </trkpt>
      <trkpt lat="43.6493" lon="3.12777">
        <ele>362.1</ele>
        <time>2026-05-19T15:03:57Z</time>
      </trkpt>
      <trkpt lat="43.64925" lon="3.12771">
        <ele>362.6</ele>
        <time>2026-05-19T15:04:02Z</time>
      </trkpt>
      <trkpt lat="43.64922" lon="3.12764">
        <ele>363.1</ele>
        <time>2026-05-19T15:04:07Z</time>
      </trkpt>
      <trkpt lat="43.64916" lon="3.12758">
        <ele>363.5</ele>
        <time>2026-05-19T15:04:12Z</time>
      </trkpt>
      <trkpt lat="43.64912" lon="3.12754">
        <ele>363.4</ele>
        <time>2026-05-19T15:04:17Z</time>
      </trkpt>
      <trkpt lat="43.64908" lon="3.12749">
        <ele>363.4</ele>
        <time>2026-05-19T15:04:22Z</time>
      </trkpt>
      <trkpt lat="43.64904" lon="3.12744">
        <ele>363.5</ele>
        <time>2026-05-19T15:04:27Z</time>
      </trkpt>
      <trkpt lat="43.649" lon="3.12741">
        <ele>363.4</ele>
        <time>2026-05-19T15:04:32Z</time>
      </trkpt>
      <trkpt lat="43.64895" lon="3.12739">
        <ele>363.2</ele>
        <time>2026-05-19T15:04:37Z</time>
      </trkpt>
      <trkpt lat="43.6489" lon="3.12737">
        <ele>363</ele>
        <time>2026-05-19T15:04:42Z</time>
      </trkpt>
      <trkpt lat="43.64884" lon="3.12735">
        <ele>362.7</ele>
        <time>2026-05-19T15:04:47Z</time>
      </trkpt>
      <trkpt lat="43.64879" lon="3.12732">
        <ele>362.5</ele>
        <time>2026-05-19T15:04:52Z</time>
      </trkpt>
      <trkpt lat="43.64874" lon="3.12731">
        <ele>362.2</ele>
        <time>2026-05-19T15:04:57Z</time>
      </trkpt>
      <trkpt lat="43.64869" lon="3.12731">
        <ele>361.9</ele>
        <time>2026-05-19T15:05:02Z</time>
      </trkpt>
      <trkpt lat="43.64864" lon="3.12728">
        <ele>361.8</ele>
        <time>2026-05-19T15:05:07Z</time>
      </trkpt>
      <trkpt lat="43.64861" lon="3.12725">
        <ele>361.8</ele>
        <time>2026-05-19T15:05:12Z</time>
      </trkpt>
      <trkpt lat="43.64857" lon="3.12723">
        <ele>361.7</ele>
        <time>2026-05-19T15:05:17Z</time>
      </trkpt>
      <trkpt lat="43.64853" lon="3.1272">
        <ele>361.7</ele>
        <time>2026-05-19T15:05:22Z</time>
      </trkpt>
      <trkpt lat="43.64849" lon="3.12717">
        <ele>361.7</ele>
        <time>2026-05-19T15:05:27Z</time>
      </trkpt>
      <trkpt lat="43.64848" lon="3.12715">
        <ele>361.9</ele>
        <time>2026-05-19T15:05:32Z</time>
      </trkpt>
      <trkpt lat="43.64845" lon="3.12714">
        <ele>361.7</ele>
        <time>2026-05-19T15:05:37Z</time>
      </trkpt>
      <trkpt lat="43.64842" lon="3.12711">
        <ele>361.8</ele>
        <time>2026-05-19T15:05:42Z</time>
      </trkpt>
      <trkpt lat="43.64838" lon="3.12709">
        <ele>361.8</ele>
        <time>2026-05-19T15:05:47Z</time>
      </trkpt>
      <trkpt lat="43.64835" lon="3.12706">
        <ele>361.9</ele>
        <time>2026-05-19T15:05:52Z</time>
      </trkpt>
      <trkpt lat="43.64831" lon="3.12702">
        <ele>361.8</ele>
        <time>2026-05-19T15:05:57Z</time>
      </trkpt>
      <trkpt lat="43.64827" lon="3.127">
        <ele>361.4</ele>
        <time>2026-05-19T15:06:02Z</time>
      </trkpt>
      <trkpt lat="43.64823" lon="3.12698">
        <ele>360.9</ele>
        <time>2026-05-19T15:06:07Z</time>
      </trkpt>
      <trkpt lat="43.64819" lon="3.12694">
        <ele>360.7</ele>
        <time>2026-05-19T15:06:12Z</time>
      </trkpt>
      <trkpt lat="43.64815" lon="3.12691">
        <ele>360.4</ele>
        <time>2026-05-19T15:06:17Z</time>
      </trkpt>
      <trkpt lat="43.64812" lon="3.12688">
        <ele>360.2</ele>
        <time>2026-05-19T15:06:22Z</time>
      </trkpt>
      <trkpt lat="43.64808" lon="3.12685">
        <ele>359.8</ele>
        <time>2026-05-19T15:06:27Z</time>
      </trkpt>
      <trkpt lat="43.64804" lon="3.1268">
        <ele>359.7</ele>
        <time>2026-05-19T15:06:32Z</time>
      </trkpt>
      <trkpt lat="43.64801" lon="3.12674">
        <ele>359.8</ele>
        <time>2026-05-19T15:06:37Z</time>
      </trkpt>
      <trkpt lat="43.64798" lon="3.12669">
        <ele>359.8</ele>
        <time>2026-05-19T15:06:42Z</time>
      </trkpt>
      <trkpt lat="43.64794" lon="3.12665">
        <ele>359.7</ele>
        <time>2026-05-19T15:06:47Z</time>
      </trkpt>
      <trkpt lat="43.6479" lon="3.12662">
        <ele>359.5</ele>
        <time>2026-05-19T15:06:52Z</time>
      </trkpt>
      <trkpt lat="43.64787" lon="3.12659">
        <ele>359.5</ele>
        <time>2026-05-19T15:06:57Z</time>
      </trkpt>
      <trkpt lat="43.64783" lon="3.12655">
        <ele>359.5</ele>
        <time>2026-05-19T15:07:02Z</time>
      </trkpt>
      <trkpt lat="43.6478" lon="3.12651">
        <ele>359.7</ele>
        <time>2026-05-19T15:07:07Z</time>
      </trkpt>
      <trkpt lat="43.64779" lon="3.1265">
        <ele>359.7</ele>
        <time>2026-05-19T15:07:12Z</time>
      </trkpt>
      <trkpt lat="43.64778" lon="3.1265">
        <ele>359.6</ele>
        <time>2026-05-19T15:07:17Z</time>
      </trkpt>
      <trkpt lat="43.64776" lon="3.12646">
        <ele>359.9</ele>
        <time>2026-05-19T15:07:22Z</time>
      </trkpt>
      <trkpt lat="43.64773" lon="3.12644">
        <ele>359.8</ele>
        <time>2026-05-19T15:07:27Z</time>
      </trkpt>
      <trkpt lat="43.64771" lon="3.1264">
        <ele>360.2</ele>
        <time>2026-05-19T15:07:32Z</time>
      </trkpt>
      <trkpt lat="43.64771" lon="3.1264">
        <ele>360.2</ele>
        <time>2026-05-19T15:07:37Z</time>
      </trkpt>
      <trkpt lat="43.64771" lon="3.1264">
        <ele>360.2</ele>
        <time>2026-05-19T15:07:42Z</time>
      </trkpt>
      <trkpt lat="43.64767" lon="3.12637">
        <ele>360.2</ele>
        <time>2026-05-19T15:07:47Z</time>
      </trkpt>
      <trkpt lat="43.64764" lon="3.12634">
        <ele>360.3</ele>
        <time>2026-05-19T15:07:52Z</time>
      </trkpt>
      <trkpt lat="43.64761" lon="3.12631">
        <ele>360.4</ele>
        <time>2026-05-19T15:07:57Z</time>
      </trkpt>
      <trkpt lat="43.64757" lon="3.12627">
        <ele>360.6</ele>
        <time>2026-05-19T15:08:02Z</time>
      </trkpt>
      <trkpt lat="43.64754" lon="3.12624">
        <ele>360.7</ele>
        <time>2026-05-19T15:08:07Z</time>
      </trkpt>
      <trkpt lat="43.6475" lon="3.12621">
        <ele>360.8</ele>
        <time>2026-05-19T15:08:12Z</time>
      </trkpt>
      <trkpt lat="43.64747" lon="3.12616">
        <ele>361.8</ele>
        <time>2026-05-19T15:08:17Z</time>
      </trkpt>
      <trkpt lat="43.64743" lon="3.12613">
        <ele>362.5</ele>
        <time>2026-05-19T15:08:22Z</time>
      </trkpt>
      <trkpt lat="43.64739" lon="3.12609">
        <ele>363.3</ele>
        <time>2026-05-19T15:08:27Z</time>
      </trkpt>
      <trkpt lat="43.64734" lon="3.12604">
        <ele>364.3</ele>
        <time>2026-05-19T15:08:32Z</time>
      </trkpt>
      <trkpt lat="43.6473" lon="3.12601">
        <ele>364.9</ele>
        <time>2026-05-19T15:08:37Z</time>
      </trkpt>
      <trkpt lat="43.64726" lon="3.12597">
        <ele>365.6</ele>
        <time>2026-05-19T15:08:42Z</time>
      </trkpt>
      <trkpt lat="43.64722" lon="3.12593">
        <ele>366.3</ele>
        <time>2026-05-19T15:08:47Z</time>
      </trkpt>
      <trkpt lat="43.64716" lon="3.12587">
        <ele>367.4</ele>
        <time>2026-05-19T15:08:52Z</time>
      </trkpt>
      <trkpt lat="43.64713" lon="3.12583">
        <ele>368.1</ele>
        <time>2026-05-19T15:08:57Z</time>
      </trkpt>
      <trkpt lat="43.64708" lon="3.12579">
        <ele>368.7</ele>
        <time>2026-05-19T15:09:02Z</time>
      </trkpt>
      <trkpt lat="43.64704" lon="3.12575">
        <ele>369.3</ele>
        <time>2026-05-19T15:09:07Z</time>
      </trkpt>
      <trkpt lat="43.64699" lon="3.12571">
        <ele>369.9</ele>
        <time>2026-05-19T15:09:12Z</time>
      </trkpt>
      <trkpt lat="43.64694" lon="3.12566">
        <ele>370.6</ele>
        <time>2026-05-19T15:09:17Z</time>
      </trkpt>
      <trkpt lat="43.64688" lon="3.12563">
        <ele>371.1</ele>
        <time>2026-05-19T15:09:22Z</time>
      </trkpt>
      <trkpt lat="43.64683" lon="3.12561">
        <ele>371.3</ele>
        <time>2026-05-19T15:09:27Z</time>
      </trkpt>
      <trkpt lat="43.64678" lon="3.12558">
        <ele>371.7</ele>
        <time>2026-05-19T15:09:32Z</time>
      </trkpt>
      <trkpt lat="43.64673" lon="3.12556">
        <ele>372</ele>
        <time>2026-05-19T15:09:37Z</time>
      </trkpt>
      <trkpt lat="43.64668" lon="3.12553">
        <ele>372.4</ele>
        <time>2026-05-19T15:09:42Z</time>
      </trkpt>
      <trkpt lat="43.64663" lon="3.12551">
        <ele>373.1</ele>
        <time>2026-05-19T15:09:47Z</time>
      </trkpt>
      <trkpt lat="43.64659" lon="3.12547">
        <ele>374.1</ele>
        <time>2026-05-19T15:09:52Z</time>
      </trkpt>
      <trkpt lat="43.64654" lon="3.12544">
        <ele>375.1</ele>
        <time>2026-05-19T15:09:57Z</time>
      </trkpt>
      <trkpt lat="43.64649" lon="3.12541">
        <ele>376</ele>
        <time>2026-05-19T15:10:02Z</time>
      </trkpt>
      <trkpt lat="43.64644" lon="3.12537">
        <ele>377</ele>
        <time>2026-05-19T15:10:07Z</time>
      </trkpt>
      <trkpt lat="43.64639" lon="3.12533">
        <ele>377.9</ele>
        <time>2026-05-19T15:10:12Z</time>
      </trkpt>
      <trkpt lat="43.64635" lon="3.12529">
        <ele>378.7</ele>
        <time>2026-05-19T15:10:17Z</time>
      </trkpt>
      <trkpt lat="43.6463" lon="3.12526">
        <ele>379.4</ele>
        <time>2026-05-19T15:10:22Z</time>
      </trkpt>
      <trkpt lat="43.64625" lon="3.12523">
        <ele>380.1</ele>
        <time>2026-05-19T15:10:27Z</time>
      </trkpt>
      <trkpt lat="43.64621" lon="3.12519">
        <ele>380.7</ele>
        <time>2026-05-19T15:10:32Z</time>
      </trkpt>
      <trkpt lat="43.64616" lon="3.12516">
        <ele>381.3</ele>
        <time>2026-05-19T15:10:37Z</time>
      </trkpt>
      <trkpt lat="43.64611" lon="3.12513">
        <ele>381.8</ele>
        <time>2026-05-19T15:10:42Z</time>
      </trkpt>
      <trkpt lat="43.64609" lon="3.1251">
        <ele>382.2</ele>
        <time>2026-05-19T15:10:47Z</time>
      </trkpt>
      <trkpt lat="43.64606" lon="3.12506">
        <ele>382.6</ele>
        <time>2026-05-19T15:10:52Z</time>
      </trkpt>
      <trkpt lat="43.64605" lon="3.12506">
        <ele>382.6</ele>
        <time>2026-05-19T15:10:57Z</time>
      </trkpt>
      <trkpt lat="43.64604" lon="3.12506">
        <ele>382.7</ele>
        <time>2026-05-19T15:11:02Z</time>
      </trkpt>
      <trkpt lat="43.64601" lon="3.12504">
        <ele>383</ele>
        <time>2026-05-19T15:11:07Z</time>
      </trkpt>
      <trkpt lat="43.64595" lon="3.12499">
        <ele>383.4</ele>
        <time>2026-05-19T15:11:12Z</time>
      </trkpt>
      <trkpt lat="43.6459" lon="3.12497">
        <ele>383.5</ele>
        <time>2026-05-19T15:11:17Z</time>
      </trkpt>
      <trkpt lat="43.64585" lon="3.12495">
        <ele>383.6</ele>
        <time>2026-05-19T15:11:22Z</time>
      </trkpt>
      <trkpt lat="43.6458" lon="3.12492">
        <ele>383.7</ele>
        <time>2026-05-19T15:11:27Z</time>
      </trkpt>
      <trkpt lat="43.64575" lon="3.12489">
        <ele>383.9</ele>
        <time>2026-05-19T15:11:32Z</time>
      </trkpt>
      <trkpt lat="43.64571" lon="3.12486">
        <ele>384</ele>
        <time>2026-05-19T15:11:37Z</time>
      </trkpt>
      <trkpt lat="43.64566" lon="3.12483">
        <ele>384.1</ele>
        <time>2026-05-19T15:11:42Z</time>
      </trkpt>
      <trkpt lat="43.6456" lon="3.12482">
        <ele>384.5</ele>
        <time>2026-05-19T15:11:47Z</time>
      </trkpt>
      <trkpt lat="43.64556" lon="3.12478">
        <ele>384.3</ele>
        <time>2026-05-19T15:11:52Z</time>
      </trkpt>
      <trkpt lat="43.6455" lon="3.12474">
        <ele>384.3</ele>
        <time>2026-05-19T15:11:57Z</time>
      </trkpt>
      <trkpt lat="43.64544" lon="3.1247">
        <ele>384.3</ele>
        <time>2026-05-19T15:12:02Z</time>
      </trkpt>
      <trkpt lat="43.64542" lon="3.12468">
        <ele>384.1</ele>
        <time>2026-05-19T15:12:07Z</time>
      </trkpt>
      <trkpt lat="43.64544" lon="3.12464">
        <ele>383.6</ele>
        <time>2026-05-19T15:12:12Z</time>
      </trkpt>
      <trkpt lat="43.64546" lon="3.12459">
        <ele>382.9</ele>
        <time>2026-05-19T15:12:17Z</time>
      </trkpt>
      <trkpt lat="43.64547" lon="3.12458">
        <ele>382.7</ele>
        <time>2026-05-19T15:12:22Z</time>
      </trkpt>
      <trkpt lat="43.64547" lon="3.12459">
        <ele>382.8</ele>
        <time>2026-05-19T15:12:27Z</time>
      </trkpt>
      <trkpt lat="43.64547" lon="3.12459">
        <ele>382.8</ele>
        <time>2026-05-19T15:12:32Z</time>
      </trkpt>
      <trkpt lat="43.64547" lon="3.12459">
        <ele>382.8</ele>
        <time>2026-05-19T15:12:37Z</time>
      </trkpt>
      <trkpt lat="43.64547" lon="3.12459">
        <ele>382.8</ele>
        <time>2026-05-19T15:12:42Z</time>
      </trkpt>
      <trkpt lat="43.64547" lon="3.12459">
        <ele>382.8</ele>
        <time>2026-05-19T15:12:47Z</time>
      </trkpt>
      <trkpt lat="43.64547" lon="3.12459">
        <ele>382.8</ele>
        <time>2026-05-19T15:12:52Z</time>
      </trkpt>
      <trkpt lat="43.64547" lon="3.12459">
        <ele>382.8</ele>
        <time>2026-05-19T15:12:57Z</time>
      </trkpt>
      <trkpt lat="43.64547" lon="3.12459">
        <ele>382.8</ele>
        <time>2026-05-19T15:13:02Z</time>
      </trkpt>
      <trkpt lat="43.64547" lon="3.12459">
        <ele>382.8</ele>
        <time>2026-05-19T15:13:07Z</time>
      </trkpt>
      <trkpt lat="43.64547" lon="3.12459">
        <ele>382.8</ele>
        <time>2026-05-19T15:13:12Z</time>
      </trkpt>
      <trkpt lat="43.64547" lon="3.12459">
        <ele>382.8</ele>
        <time>2026-05-19T15:13:17Z</time>
      </trkpt>
      <trkpt lat="43.64547" lon="3.12459">
        <ele>382.8</ele>
        <time>2026-05-19T15:13:22Z</time>
      </trkpt>
      <trkpt lat="43.64547" lon="3.12459">
        <ele>382.8</ele>
        <time>2026-05-19T15:13:27Z</time>
      </trkpt>
      <trkpt lat="43.64547" lon="3.12459">
        <ele>382.8</ele>
        <time>2026-05-19T15:13:32Z</time>
      </trkpt>
      <trkpt lat="43.64547" lon="3.12459">
        <ele>382.8</ele>
        <time>2026-05-19T15:13:37Z</time>
      </trkpt>
      <trkpt lat="43.64547" lon="3.12459">
        <ele>382.8</ele>
        <time>2026-05-19T15:13:42Z</time>
      </trkpt>
      <trkpt lat="43.64547" lon="3.12459">
        <ele>382.8</ele>
        <time>2026-05-19T15:13:47Z</time>
      </trkpt>
      <trkpt lat="43.64547" lon="3.12459">
        <ele>382.8</ele>
        <time>2026-05-19T15:13:52Z</time>
      </trkpt>
      <trkpt lat="43.64547" lon="3.12459">
        <ele>382.8</ele>
        <time>2026-05-19T15:13:57Z</time>
      </trkpt>
      <trkpt lat="43.64547" lon="3.12459">
        <ele>382.8</ele>
        <time>2026-05-19T15:14:02Z</time>
      </trkpt>
      <trkpt lat="43.64542" lon="3.12462">
        <ele>383.4</ele>
        <time>2026-05-19T15:14:07Z</time>
      </trkpt>
      <trkpt lat="43.64537" lon="3.12467">
        <ele>384.3</ele>
        <time>2026-05-19T15:14:12Z</time>
      </trkpt>
      <trkpt lat="43.64532" lon="3.1247">
        <ele>385</ele>
        <time>2026-05-19T15:14:17Z</time>
      </trkpt>
      <trkpt lat="43.64526" lon="3.12474">
        <ele>385.9</ele>
        <time>2026-05-19T15:14:22Z</time>
      </trkpt>
      <trkpt lat="43.64524" lon="3.12476">
        <ele>386.3</ele>
        <time>2026-05-19T15:14:27Z</time>
      </trkpt>
      <trkpt lat="43.64524" lon="3.12476">
        <ele>386.3</ele>
        <time>2026-05-19T15:14:32Z</time>
      </trkpt>
      <trkpt lat="43.64524" lon="3.12476">
        <ele>386.3</ele>
        <time>2026-05-19T15:14:37Z</time>
      </trkpt>
      <trkpt lat="43.64524" lon="3.12476">
        <ele>386.3</ele>
        <time>2026-05-19T15:14:42Z</time>
      </trkpt>
      <trkpt lat="43.64524" lon="3.12476">
        <ele>386.3</ele>
        <time>2026-05-19T15:14:47Z</time>
      </trkpt>
      <trkpt lat="43.64524" lon="3.12476">
        <ele>386.3</ele>
        <time>2026-05-19T15:14:52Z</time>
      </trkpt>
      <trkpt lat="43.64524" lon="3.12476">
        <ele>386.3</ele>
        <time>2026-05-19T15:14:57Z</time>
      </trkpt>
      <trkpt lat="43.64524" lon="3.12476">
        <ele>386.3</ele>
        <time>2026-05-19T15:15:02Z</time>
      </trkpt>
      <trkpt lat="43.64524" lon="3.12476">
        <ele>386.3</ele>
        <time>2026-05-19T15:15:07Z</time>
      </trkpt>
      <trkpt lat="43.64524" lon="3.12476">
        <ele>386.3</ele>
        <time>2026-05-19T15:15:12Z</time>
      </trkpt>
      <trkpt lat="43.64524" lon="3.12476">
        <ele>386.3</ele>
        <time>2026-05-19T15:15:17Z</time>
      </trkpt>
      <trkpt lat="43.64524" lon="3.12476">
        <ele>386.3</ele>
        <time>2026-05-19T15:15:22Z</time>
      </trkpt>
      <trkpt lat="43.64524" lon="3.12476">
        <ele>386.3</ele>
        <time>2026-05-19T15:15:27Z</time>
      </trkpt>
      <trkpt lat="43.64524" lon="3.12476">
        <ele>386.3</ele>
        <time>2026-05-19T15:15:32Z</time>
      </trkpt>
      <trkpt lat="43.64524" lon="3.12476">
        <ele>386.3</ele>
        <time>2026-05-19T15:15:37Z</time>
      </trkpt>
      <trkpt lat="43.64524" lon="3.12476">
        <ele>386.3</ele>
        <time>2026-05-19T15:15:42Z</time>
      </trkpt>
      <trkpt lat="43.64524" lon="3.12476">
        <ele>386.3</ele>
        <time>2026-05-19T15:15:47Z</time>
      </trkpt>
      <trkpt lat="43.64524" lon="3.12476">
        <ele>386.3</ele>
        <time>2026-05-19T15:15:52Z</time>
      </trkpt>
      <trkpt lat="43.64524" lon="3.12476">
        <ele>386.3</ele>
        <time>2026-05-19T15:15:57Z</time>
      </trkpt>
      <trkpt lat="43.64524" lon="3.12476">
        <ele>386.3</ele>
        <time>2026-05-19T15:16:02Z</time>
      </trkpt>
      <trkpt lat="43.64524" lon="3.12476">
        <ele>386.3</ele>
        <time>2026-05-19T15:16:07Z</time>
      </trkpt>
      <trkpt lat="43.64524" lon="3.12476">
        <ele>386.3</ele>
        <time>2026-05-19T15:16:12Z</time>
      </trkpt>
      <trkpt lat="43.64524" lon="3.12476">
        <ele>386.3</ele>
        <time>2026-05-19T15:16:17Z</time>
      </trkpt>
      <trkpt lat="43.64524" lon="3.12476">
        <ele>386.3</ele>
        <time>2026-05-19T15:16:22Z</time>
      </trkpt>
      <trkpt lat="43.64524" lon="3.12476">
        <ele>386.3</ele>
        <time>2026-05-19T15:16:27Z</time>
      </trkpt>
      <trkpt lat="43.64524" lon="3.12476">
        <ele>386.3</ele>
        <time>2026-05-19T15:16:32Z</time>
      </trkpt>
      <trkpt lat="43.64524" lon="3.12476">
        <ele>386.3</ele>
        <time>2026-05-19T15:16:37Z</time>
      </trkpt>
      <trkpt lat="43.64524" lon="3.12476">
        <ele>386.3</ele>
        <time>2026-05-19T15:16:42Z</time>
      </trkpt>
      <trkpt lat="43.64524" lon="3.12476">
        <ele>386.3</ele>
        <time>2026-05-19T15:16:47Z</time>
      </trkpt>
      <trkpt lat="43.64524" lon="3.12476">
        <ele>386.3</ele>
        <time>2026-05-19T15:16:52Z</time>
      </trkpt>
      <trkpt lat="43.64524" lon="3.12476">
        <ele>386.3</ele>
        <time>2026-05-19T15:16:57Z</time>
      </trkpt>
      <trkpt lat="43.64524" lon="3.12476">
        <ele>386.3</ele>
        <time>2026-05-19T15:17:02Z</time>
      </trkpt>
      <trkpt lat="43.64524" lon="3.12476">
        <ele>386.3</ele>
        <time>2026-05-19T15:17:07Z</time>
      </trkpt>
      <trkpt lat="43.64524" lon="3.12476">
        <ele>386.3</ele>
        <time>2026-05-19T15:17:12Z</time>
      </trkpt>
      <trkpt lat="43.64524" lon="3.12476">
        <ele>386.3</ele>
        <time>2026-05-19T15:17:17Z</time>
      </trkpt>
      <trkpt lat="43.64524" lon="3.12476">
        <ele>386.3</ele>
        <time>2026-05-19T15:17:22Z</time>
      </trkpt>
      <trkpt lat="43.64524" lon="3.12476">
        <ele>386.3</ele>
        <time>2026-05-19T15:17:27Z</time>
      </trkpt>
      <trkpt lat="43.64524" lon="3.12476">
        <ele>386.3</ele>
        <time>2026-05-19T15:17:32Z</time>
      </trkpt>
      <trkpt lat="43.64511" lon="3.12479">
        <ele>387.7</ele>
        <time>2026-05-19T15:17:37Z</time>
      </trkpt>
      <trkpt lat="43.64511" lon="3.1248">
        <ele>387.8</ele>
        <time>2026-05-19T15:17:42Z</time>
      </trkpt>
      <trkpt lat="43.64511" lon="3.1248">
        <ele>387.8</ele>
        <time>2026-05-19T15:17:47Z</time>
      </trkpt>
      <trkpt lat="43.64511" lon="3.1248">
        <ele>387.8</ele>
        <time>2026-05-19T15:17:52Z</time>
      </trkpt>
      <trkpt lat="43.64511" lon="3.1248">
        <ele>387.8</ele>
        <time>2026-05-19T15:17:57Z</time>
      </trkpt>
      <trkpt lat="43.64511" lon="3.1248">
        <ele>387.8</ele>
        <time>2026-05-19T15:18:02Z</time>
      </trkpt>
      <trkpt lat="43.64511" lon="3.1248">
        <ele>387.8</ele>
        <time>2026-05-19T15:18:07Z</time>
      </trkpt>
      <trkpt lat="43.64511" lon="3.1248">
        <ele>387.8</ele>
        <time>2026-05-19T15:18:12Z</time>
      </trkpt>
      <trkpt lat="43.64511" lon="3.1248">
        <ele>387.8</ele>
        <time>2026-05-19T15:18:17Z</time>
      </trkpt>
      <trkpt lat="43.64511" lon="3.1248">
        <ele>387.8</ele>
        <time>2026-05-19T15:18:22Z</time>
      </trkpt>
      <trkpt lat="43.6451" lon="3.12471">
        <ele>386.5</ele>
        <time>2026-05-19T15:18:27Z</time>
      </trkpt>
      <trkpt lat="43.64507" lon="3.1247">
        <ele>386.5</ele>
        <time>2026-05-19T15:18:32Z</time>
      </trkpt>
      <trkpt lat="43.64505" lon="3.12465">
        <ele>385.8</ele>
        <time>2026-05-19T15:18:37Z</time>
      </trkpt>
      <trkpt lat="43.64501" lon="3.1246">
        <ele>385.2</ele>
        <time>2026-05-19T15:18:42Z</time>
      </trkpt>
      <trkpt lat="43.64498" lon="3.12453">
        <ele>384.5</ele>
        <time>2026-05-19T15:18:47Z</time>
      </trkpt>
      <trkpt lat="43.64494" lon="3.12447">
        <ele>384.4</ele>
        <time>2026-05-19T15:18:52Z</time>
      </trkpt>
      <trkpt lat="43.64489" lon="3.12441">
        <ele>384.5</ele>
        <time>2026-05-19T15:18:57Z</time>
      </trkpt>
      <trkpt lat="43.64484" lon="3.12438">
        <ele>385.2</ele>
        <time>2026-05-19T15:19:02Z</time>
      </trkpt>
      <trkpt lat="43.64479" lon="3.12437">
        <ele>386.1</ele>
        <time>2026-05-19T15:19:07Z</time>
      </trkpt>
      <trkpt lat="43.64473" lon="3.12435">
        <ele>387.2</ele>
        <time>2026-05-19T15:19:12Z</time>
      </trkpt>
      <trkpt lat="43.64467" lon="3.12435">
        <ele>388.6</ele>
        <time>2026-05-19T15:19:17Z</time>
      </trkpt>
      <trkpt lat="43.64462" lon="3.12434">
        <ele>389.6</ele>
        <time>2026-05-19T15:19:22Z</time>
      </trkpt>
      <trkpt lat="43.64456" lon="3.12434">
        <ele>390.9</ele>
        <time>2026-05-19T15:19:27Z</time>
      </trkpt>
      <trkpt lat="43.64453" lon="3.12431">
        <ele>391.2</ele>
        <time>2026-05-19T15:19:32Z</time>
      </trkpt>
      <trkpt lat="43.64449" lon="3.12427">
        <ele>391.6</ele>
        <time>2026-05-19T15:19:37Z</time>
      </trkpt>
      <trkpt lat="43.64444" lon="3.12422">
        <ele>392.1</ele>
        <time>2026-05-19T15:19:42Z</time>
      </trkpt>
      <trkpt lat="43.64439" lon="3.12415">
        <ele>392.5</ele>
        <time>2026-05-19T15:19:47Z</time>
      </trkpt>
      <trkpt lat="43.64436" lon="3.12407">
        <ele>392.5</ele>
        <time>2026-05-19T15:19:52Z</time>
      </trkpt>
      <trkpt lat="43.64433" lon="3.12398">
        <ele>392.6</ele>
        <time>2026-05-19T15:19:57Z</time>
      </trkpt>
      <trkpt lat="43.6443" lon="3.12391">
        <ele>392.8</ele>
        <time>2026-05-19T15:20:02Z</time>
      </trkpt>
      <trkpt lat="43.64427" lon="3.12384">
        <ele>393.1</ele>
        <time>2026-05-19T15:20:07Z</time>
      </trkpt>
      <trkpt lat="43.64424" lon="3.12375">
        <ele>393.3</ele>
        <time>2026-05-19T15:20:12Z</time>
      </trkpt>
      <trkpt lat="43.64422" lon="3.12366">
        <ele>393.3</ele>
        <time>2026-05-19T15:20:17Z</time>
      </trkpt>
      <trkpt lat="43.64421" lon="3.12356">
        <ele>393</ele>
        <time>2026-05-19T15:20:22Z</time>
      </trkpt>
      <trkpt lat="43.64421" lon="3.12347">
        <ele>392.4</ele>
        <time>2026-05-19T15:20:27Z</time>
      </trkpt>
      <trkpt lat="43.6442" lon="3.12338">
        <ele>392.1</ele>
        <time>2026-05-19T15:20:32Z</time>
      </trkpt>
      <trkpt lat="43.64421" lon="3.1233">
        <ele>391.2</ele>
        <time>2026-05-19T15:20:37Z</time>
      </trkpt>
      <trkpt lat="43.64423" lon="3.12326">
        <ele>390.2</ele>
        <time>2026-05-19T15:20:42Z</time>
      </trkpt>
      <trkpt lat="43.64425" lon="3.12325">
        <ele>389.4</ele>
        <time>2026-05-19T15:20:47Z</time>
      </trkpt>
      <trkpt lat="43.64426" lon="3.12324">
        <ele>389</ele>
        <time>2026-05-19T15:20:52Z</time>
      </trkpt>
      <trkpt lat="43.64426" lon="3.12324">
        <ele>389</ele>
        <time>2026-05-19T15:20:57Z</time>
      </trkpt>
      <trkpt lat="43.64426" lon="3.12324">
        <ele>389</ele>
        <time>2026-05-19T15:21:02Z</time>
      </trkpt>
      <trkpt lat="43.64425" lon="3.12314">
        <ele>388.5</ele>
        <time>2026-05-19T15:21:07Z</time>
      </trkpt>
      <trkpt lat="43.64425" lon="3.12306">
        <ele>387.8</ele>
        <time>2026-05-19T15:21:12Z</time>
      </trkpt>
      <trkpt lat="43.64427" lon="3.12299">
        <ele>386.6</ele>
        <time>2026-05-19T15:21:17Z</time>
      </trkpt>
      <trkpt lat="43.64429" lon="3.12292">
        <ele>385.3</ele>
        <time>2026-05-19T15:21:22Z</time>
      </trkpt>
      <trkpt lat="43.64429" lon="3.12285">
        <ele>384.7</ele>
        <time>2026-05-19T15:21:27Z</time>
      </trkpt>
      <trkpt lat="43.6443" lon="3.12276">
        <ele>383.7</ele>
        <time>2026-05-19T15:21:32Z</time>
      </trkpt>
      <trkpt lat="43.64432" lon="3.12267">
        <ele>382.2</ele>
        <time>2026-05-19T15:21:37Z</time>
      </trkpt>
      <trkpt lat="43.64433" lon="3.12259">
        <ele>381.2</ele>
        <time>2026-05-19T15:21:42Z</time>
      </trkpt>
      <trkpt lat="43.64433" lon="3.12251">
        <ele>380.6</ele>
        <time>2026-05-19T15:21:47Z</time>
      </trkpt>
      <trkpt lat="43.64433" lon="3.12244">
        <ele>380</ele>
        <time>2026-05-19T15:21:52Z</time>
      </trkpt>
      <trkpt lat="43.64434" lon="3.12236">
        <ele>378.9</ele>
        <time>2026-05-19T15:21:57Z</time>
      </trkpt>
      <trkpt lat="43.64434" lon="3.12228">
        <ele>378.2</ele>
        <time>2026-05-19T15:22:02Z</time>
      </trkpt>
      <trkpt lat="43.64435" lon="3.12221">
        <ele>377.2</ele>
        <time>2026-05-19T15:22:07Z</time>
      </trkpt>
      <trkpt lat="43.64436" lon="3.12212">
        <ele>376.1</ele>
        <time>2026-05-19T15:22:12Z</time>
      </trkpt>
      <trkpt lat="43.64437" lon="3.122">
        <ele>374.7</ele>
        <time>2026-05-19T15:22:17Z</time>
      </trkpt>
      <trkpt lat="43.64439" lon="3.1219">
        <ele>373.1</ele>
        <time>2026-05-19T15:22:22Z</time>
      </trkpt>
      <trkpt lat="43.64442" lon="3.12182">
        <ele>371.5</ele>
        <time>2026-05-19T15:22:27Z</time>
      </trkpt>
      <trkpt lat="43.64443" lon="3.12179">
        <ele>370.9</ele>
        <time>2026-05-19T15:22:32Z</time>
      </trkpt>
      <trkpt lat="43.64445" lon="3.12171">
        <ele>369.5</ele>
        <time>2026-05-19T15:22:37Z</time>
      </trkpt>
      <trkpt lat="43.64448" lon="3.12162">
        <ele>368.1</ele>
        <time>2026-05-19T15:22:42Z</time>
      </trkpt>
      <trkpt lat="43.64449" lon="3.12155">
        <ele>367.5</ele>
        <time>2026-05-19T15:22:47Z</time>
      </trkpt>
      <trkpt lat="43.64448" lon="3.12148">
        <ele>367.6</ele>
        <time>2026-05-19T15:22:52Z</time>
      </trkpt>
      <trkpt lat="43.64447" lon="3.1214">
        <ele>367.6</ele>
        <time>2026-05-19T15:22:57Z</time>
      </trkpt>
      <trkpt lat="43.64447" lon="3.12131">
        <ele>367.3</ele>
        <time>2026-05-19T15:23:02Z</time>
      </trkpt>
      <trkpt lat="43.64447" lon="3.12121">
        <ele>366.9</ele>
        <time>2026-05-19T15:23:07Z</time>
      </trkpt>
      <trkpt lat="43.64448" lon="3.12113">
        <ele>366.4</ele>
        <time>2026-05-19T15:23:12Z</time>
      </trkpt>
      <trkpt lat="43.64449" lon="3.12105">
        <ele>365.8</ele>
        <time>2026-05-19T15:23:17Z</time>
      </trkpt>
      <trkpt lat="43.64451" lon="3.12096">
        <ele>364.9</ele>
        <time>2026-05-19T15:23:22Z</time>
      </trkpt>
      <trkpt lat="43.64453" lon="3.12088">
        <ele>364.1</ele>
        <time>2026-05-19T15:23:27Z</time>
      </trkpt>
      <trkpt lat="43.64457" lon="3.12081">
        <ele>362.9</ele>
        <time>2026-05-19T15:23:32Z</time>
      </trkpt>
      <trkpt lat="43.64461" lon="3.12073">
        <ele>362</ele>
        <time>2026-05-19T15:23:37Z</time>
      </trkpt>
      <trkpt lat="43.64465" lon="3.12066">
        <ele>361</ele>
        <time>2026-05-19T15:23:42Z</time>
      </trkpt>
      <trkpt lat="43.64469" lon="3.12059">
        <ele>360.1</ele>
        <time>2026-05-19T15:23:47Z</time>
      </trkpt>
      <trkpt lat="43.64472" lon="3.12052">
        <ele>359.5</ele>
        <time>2026-05-19T15:23:52Z</time>
      </trkpt>
      <trkpt lat="43.64476" lon="3.12044">
        <ele>358.6</ele>
        <time>2026-05-19T15:23:57Z</time>
      </trkpt>
      <trkpt lat="43.64479" lon="3.12036">
        <ele>358.1</ele>
        <time>2026-05-19T15:24:02Z</time>
      </trkpt>
      <trkpt lat="43.64483" lon="3.12028">
        <ele>357.3</ele>
        <time>2026-05-19T15:24:07Z</time>
      </trkpt>
      <trkpt lat="43.64485" lon="3.1202">
        <ele>357</ele>
        <time>2026-05-19T15:24:12Z</time>
      </trkpt>
      <trkpt lat="43.64487" lon="3.12012">
        <ele>356.8</ele>
        <time>2026-05-19T15:24:17Z</time>
      </trkpt>
      <trkpt lat="43.64489" lon="3.12004">
        <ele>356.5</ele>
        <time>2026-05-19T15:24:22Z</time>
      </trkpt>
      <trkpt lat="43.64491" lon="3.11996">
        <ele>356</ele>
        <time>2026-05-19T15:24:27Z</time>
      </trkpt>
      <trkpt lat="43.64491" lon="3.11987">
        <ele>355.5</ele>
        <time>2026-05-19T15:24:32Z</time>
      </trkpt>
      <trkpt lat="43.64492" lon="3.11979">
        <ele>354.9</ele>
        <time>2026-05-19T15:24:37Z</time>
      </trkpt>
      <trkpt lat="43.64491" lon="3.11971">
        <ele>354.7</ele>
        <time>2026-05-19T15:24:42Z</time>
      </trkpt>
      <trkpt lat="43.64491" lon="3.11962">
        <ele>354.2</ele>
        <time>2026-05-19T15:24:47Z</time>
      </trkpt>
      <trkpt lat="43.64491" lon="3.11955">
        <ele>353.9</ele>
        <time>2026-05-19T15:24:52Z</time>
      </trkpt>
      <trkpt lat="43.64491" lon="3.11944">
        <ele>353.3</ele>
        <time>2026-05-19T15:24:57Z</time>
      </trkpt>
      <trkpt lat="43.64489" lon="3.11936">
        <ele>353.4</ele>
        <time>2026-05-19T15:25:02Z</time>
      </trkpt>
      <trkpt lat="43.6449" lon="3.11929">
        <ele>352.8</ele>
        <time>2026-05-19T15:25:07Z</time>
      </trkpt>
      <trkpt lat="43.64491" lon="3.11922">
        <ele>352.2</ele>
        <time>2026-05-19T15:25:12Z</time>
      </trkpt>
      <trkpt lat="43.64491" lon="3.11914">
        <ele>351.6</ele>
        <time>2026-05-19T15:25:17Z</time>
      </trkpt>
      <trkpt lat="43.64491" lon="3.11905">
        <ele>350.5</ele>
        <time>2026-05-19T15:25:22Z</time>
      </trkpt>
      <trkpt lat="43.64491" lon="3.11898">
        <ele>349.6</ele>
        <time>2026-05-19T15:25:27Z</time>
      </trkpt>
      <trkpt lat="43.6449" lon="3.11889">
        <ele>348.6</ele>
        <time>2026-05-19T15:25:32Z</time>
      </trkpt>
      <trkpt lat="43.6449" lon="3.11879">
        <ele>347.4</ele>
        <time>2026-05-19T15:25:37Z</time>
      </trkpt>
      <trkpt lat="43.64491" lon="3.11872">
        <ele>346.3</ele>
        <time>2026-05-19T15:25:42Z</time>
      </trkpt>
      <trkpt lat="43.6449" lon="3.11863">
        <ele>345.3</ele>
        <time>2026-05-19T15:25:47Z</time>
      </trkpt>
      <trkpt lat="43.64491" lon="3.11854">
        <ele>344</ele>
        <time>2026-05-19T15:25:52Z</time>
      </trkpt>
      <trkpt lat="43.6449" lon="3.11844">
        <ele>342.9</ele>
        <time>2026-05-19T15:25:57Z</time>
      </trkpt>
      <trkpt lat="43.6449" lon="3.11836">
        <ele>341.9</ele>
        <time>2026-05-19T15:26:02Z</time>
      </trkpt>
      <trkpt lat="43.64489" lon="3.11828">
        <ele>340.5</ele>
        <time>2026-05-19T15:26:07Z</time>
      </trkpt>
      <trkpt lat="43.64487" lon="3.1182">
        <ele>339.1</ele>
        <time>2026-05-19T15:26:12Z</time>
      </trkpt>
      <trkpt lat="43.64485" lon="3.11811">
        <ele>337.5</ele>
        <time>2026-05-19T15:26:17Z</time>
      </trkpt>
      <trkpt lat="43.64484" lon="3.11805">
        <ele>336.4</ele>
        <time>2026-05-19T15:26:22Z</time>
      </trkpt>
      <trkpt lat="43.64482" lon="3.11798">
        <ele>335.2</ele>
        <time>2026-05-19T15:26:27Z</time>
      </trkpt>
      <trkpt lat="43.64481" lon="3.1179">
        <ele>333.7</ele>
        <time>2026-05-19T15:26:32Z</time>
      </trkpt>
      <trkpt lat="43.64481" lon="3.11784">
        <ele>332.4</ele>
        <time>2026-05-19T15:26:37Z</time>
      </trkpt>
      <trkpt lat="43.64479" lon="3.11777">
        <ele>331.3</ele>
        <time>2026-05-19T15:26:42Z</time>
      </trkpt>
      <trkpt lat="43.64477" lon="3.11768">
        <ele>329.8</ele>
        <time>2026-05-19T15:26:47Z</time>
      </trkpt>
      <trkpt lat="43.64473" lon="3.11762">
        <ele>329.3</ele>
        <time>2026-05-19T15:26:52Z</time>
      </trkpt>
      <trkpt lat="43.64471" lon="3.11753">
        <ele>327.9</ele>
        <time>2026-05-19T15:26:57Z</time>
      </trkpt>
      <trkpt lat="43.64469" lon="3.11743">
        <ele>326.3</ele>
        <time>2026-05-19T15:27:02Z</time>
      </trkpt>
      <trkpt lat="43.64467" lon="3.11733">
        <ele>324.7</ele>
        <time>2026-05-19T15:27:07Z</time>
      </trkpt>
      <trkpt lat="43.64466" lon="3.11725">
        <ele>323.4</ele>
        <time>2026-05-19T15:27:12Z</time>
      </trkpt>
      <trkpt lat="43.64463" lon="3.11716">
        <ele>322.3</ele>
        <time>2026-05-19T15:27:17Z</time>
      </trkpt>
      <trkpt lat="43.6446" lon="3.11709">
        <ele>321.7</ele>
        <time>2026-05-19T15:27:22Z</time>
      </trkpt>
      <trkpt lat="43.64455" lon="3.11701">
        <ele>321.5</ele>
        <time>2026-05-19T15:27:27Z</time>
      </trkpt>
      <trkpt lat="43.6445" lon="3.11694">
        <ele>321.5</ele>
        <time>2026-05-19T15:27:32Z</time>
      </trkpt>
      <trkpt lat="43.64447" lon="3.11688">
        <ele>321.2</ele>
        <time>2026-05-19T15:27:37Z</time>
      </trkpt>
      <trkpt lat="43.64443" lon="3.11682">
        <ele>321.2</ele>
        <time>2026-05-19T15:27:42Z</time>
      </trkpt>
      <trkpt lat="43.6444" lon="3.11675">
        <ele>320.7</ele>
        <time>2026-05-19T15:27:47Z</time>
      </trkpt>
      <trkpt lat="43.64438" lon="3.11669">
        <ele>320.3</ele>
        <time>2026-05-19T15:27:52Z</time>
      </trkpt>
      <trkpt lat="43.64435" lon="3.11661">
        <ele>319.7</ele>
        <time>2026-05-19T15:27:57Z</time>
      </trkpt>
      <trkpt lat="43.64431" lon="3.11654">
        <ele>319.7</ele>
        <time>2026-05-19T15:28:02Z</time>
      </trkpt>
      <trkpt lat="43.64427" lon="3.11647">
        <ele>319.8</ele>
        <time>2026-05-19T15:28:07Z</time>
      </trkpt>
      <trkpt lat="43.64423" lon="3.1164">
        <ele>319.9</ele>
        <time>2026-05-19T15:28:12Z</time>
      </trkpt>
      <trkpt lat="43.64419" lon="3.11635">
        <ele>320.3</ele>
        <time>2026-05-19T15:28:17Z</time>
      </trkpt>
      <trkpt lat="43.64413" lon="3.11627">
        <ele>320.4</ele>
        <time>2026-05-19T15:28:22Z</time>
      </trkpt>
      <trkpt lat="43.64409" lon="3.11619">
        <ele>319.8</ele>
        <time>2026-05-19T15:28:27Z</time>
      </trkpt>
      <trkpt lat="43.64405" lon="3.11612">
        <ele>319.3</ele>
        <time>2026-05-19T15:28:32Z</time>
      </trkpt>
      <trkpt lat="43.64403" lon="3.11602">
        <ele>318</ele>
        <time>2026-05-19T15:28:37Z</time>
      </trkpt>
      <trkpt lat="43.64402" lon="3.11593">
        <ele>316.7</ele>
        <time>2026-05-19T15:28:42Z</time>
      </trkpt>
      <trkpt lat="43.64401" lon="3.11584">
        <ele>315.4</ele>
        <time>2026-05-19T15:28:47Z</time>
      </trkpt>
      <trkpt lat="43.64397" lon="3.11578">
        <ele>314.4</ele>
        <time>2026-05-19T15:28:52Z</time>
      </trkpt>
      <trkpt lat="43.64397" lon="3.11569">
        <ele>312</ele>
        <time>2026-05-19T15:28:57Z</time>
      </trkpt>
      <trkpt lat="43.64395" lon="3.11559">
        <ele>309.5</ele>
        <time>2026-05-19T15:29:02Z</time>
      </trkpt>
      <trkpt lat="43.64391" lon="3.1155">
        <ele>307.6</ele>
        <time>2026-05-19T15:29:07Z</time>
      </trkpt>
      <trkpt lat="43.6439" lon="3.11544">
        <ele>306.2</ele>
        <time>2026-05-19T15:29:12Z</time>
      </trkpt>
      <trkpt lat="43.64386" lon="3.11538">
        <ele>305</ele>
        <time>2026-05-19T15:29:17Z</time>
      </trkpt>
      <trkpt lat="43.64383" lon="3.11533">
        <ele>304.1</ele>
        <time>2026-05-19T15:29:22Z</time>
      </trkpt>
      <trkpt lat="43.6438" lon="3.11526">
        <ele>302.5</ele>
        <time>2026-05-19T15:29:27Z</time>
      </trkpt>
      <trkpt lat="43.64376" lon="3.11519">
        <ele>301.1</ele>
        <time>2026-05-19T15:29:32Z</time>
      </trkpt>
      <trkpt lat="43.64373" lon="3.11511">
        <ele>299.3</ele>
        <time>2026-05-19T15:29:37Z</time>
      </trkpt>
      <trkpt lat="43.64369" lon="3.11503">
        <ele>297.6</ele>
        <time>2026-05-19T15:29:42Z</time>
      </trkpt>
      <trkpt lat="43.64365" lon="3.11495">
        <ele>296.1</ele>
        <time>2026-05-19T15:29:47Z</time>
      </trkpt>
      <trkpt lat="43.64363" lon="3.11489">
        <ele>295.1</ele>
        <time>2026-05-19T15:29:52Z</time>
      </trkpt>
      <trkpt lat="43.64362" lon="3.11488">
        <ele>295</ele>
        <time>2026-05-19T15:29:57Z</time>
      </trkpt>
      <trkpt lat="43.64362" lon="3.11488">
        <ele>295</ele>
        <time>2026-05-19T15:30:02Z</time>
      </trkpt>
      <trkpt lat="43.64358" lon="3.11486">
        <ele>295</ele>
        <time>2026-05-19T15:30:07Z</time>
      </trkpt>
      <trkpt lat="43.64355" lon="3.1148">
        <ele>293.9</ele>
        <time>2026-05-19T15:30:12Z</time>
      </trkpt>
      <trkpt lat="43.64355" lon="3.11477">
        <ele>293.2</ele>
        <time>2026-05-19T15:30:17Z</time>
      </trkpt>
      <trkpt lat="43.64353" lon="3.11476">
        <ele>293.2</ele>
        <time>2026-05-19T15:30:22Z</time>
      </trkpt>
      <trkpt lat="43.64349" lon="3.11475">
        <ele>293.3</ele>
        <time>2026-05-19T15:30:27Z</time>
      </trkpt>
      <trkpt lat="43.64344" lon="3.11473">
        <ele>293.3</ele>
        <time>2026-05-19T15:30:32Z</time>
      </trkpt>
      <trkpt lat="43.6434" lon="3.11471">
        <ele>293.1</ele>
        <time>2026-05-19T15:30:37Z</time>
      </trkpt>
      <trkpt lat="43.64335" lon="3.11469">
        <ele>293.1</ele>
        <time>2026-05-19T15:30:42Z</time>
      </trkpt>
      <trkpt lat="43.64331" lon="3.11466">
        <ele>292.5</ele>
        <time>2026-05-19T15:30:47Z</time>
      </trkpt>
      <trkpt lat="43.6433" lon="3.11465">
        <ele>292.2</ele>
        <time>2026-05-19T15:30:52Z</time>
      </trkpt>
      <trkpt lat="43.6433" lon="3.11464">
        <ele>292</ele>
        <time>2026-05-19T15:30:57Z</time>
      </trkpt>
      <trkpt lat="43.64327" lon="3.11463">
        <ele>291.8</ele>
        <time>2026-05-19T15:31:02Z</time>
      </trkpt>
      <trkpt lat="43.64322" lon="3.11462">
        <ele>291.5</ele>
        <time>2026-05-19T15:31:07Z</time>
      </trkpt>
      <trkpt lat="43.64318" lon="3.11461">
        <ele>291.3</ele>
        <time>2026-05-19T15:31:12Z</time>
      </trkpt>
      <trkpt lat="43.64314" lon="3.1146">
        <ele>291.1</ele>
        <time>2026-05-19T15:31:17Z</time>
      </trkpt>
      <trkpt lat="43.64309" lon="3.11458">
        <ele>290.6</ele>
        <time>2026-05-19T15:31:22Z</time>
      </trkpt>
      <trkpt lat="43.64304" lon="3.11457">
        <ele>290.3</ele>
        <time>2026-05-19T15:31:27Z</time>
      </trkpt>
      <trkpt lat="43.64299" lon="3.11455">
        <ele>289.7</ele>
        <time>2026-05-19T15:31:32Z</time>
      </trkpt>
      <trkpt lat="43.64293" lon="3.11453">
        <ele>289.1</ele>
        <time>2026-05-19T15:31:37Z</time>
      </trkpt>
      <trkpt lat="43.64287" lon="3.11451">
        <ele>288.5</ele>
        <time>2026-05-19T15:31:42Z</time>
      </trkpt>
      <trkpt lat="43.6428" lon="3.11447">
        <ele>287.2</ele>
        <time>2026-05-19T15:31:47Z</time>
      </trkpt>
      <trkpt lat="43.64276" lon="3.11442">
        <ele>285.5</ele>
        <time>2026-05-19T15:31:52Z</time>
      </trkpt>
      <trkpt lat="43.64276" lon="3.1144">
        <ele>284.9</ele>
        <time>2026-05-19T15:31:57Z</time>
      </trkpt>
      <trkpt lat="43.64276" lon="3.11437">
        <ele>283.9</ele>
        <time>2026-05-19T15:32:02Z</time>
      </trkpt>
      <trkpt lat="43.64276" lon="3.11437">
        <ele>283.9</ele>
        <time>2026-05-19T15:32:07Z</time>
      </trkpt>
      <trkpt lat="43.64276" lon="3.11437">
        <ele>283.9</ele>
        <time>2026-05-19T15:32:12Z</time>
      </trkpt>
      <trkpt lat="43.64272" lon="3.11436">
        <ele>283.5</ele>
        <time>2026-05-19T15:32:17Z</time>
      </trkpt>
      <trkpt lat="43.64266" lon="3.11432">
        <ele>282</ele>
        <time>2026-05-19T15:32:22Z</time>
      </trkpt>
      <trkpt lat="43.64261" lon="3.11429">
        <ele>280.8</ele>
        <time>2026-05-19T15:32:27Z</time>
      </trkpt>
      <trkpt lat="43.64256" lon="3.11426">
        <ele>279.6</ele>
        <time>2026-05-19T15:32:32Z</time>
      </trkpt>
      <trkpt lat="43.6425" lon="3.11422">
        <ele>277.9</ele>
        <time>2026-05-19T15:32:37Z</time>
      </trkpt>
      <trkpt lat="43.64244" lon="3.11418">
        <ele>275.8</ele>
        <time>2026-05-19T15:32:42Z</time>
      </trkpt>
      <trkpt lat="43.64238" lon="3.11414">
        <ele>274</ele>
        <time>2026-05-19T15:32:47Z</time>
      </trkpt>
      <trkpt lat="43.6423" lon="3.11412">
        <ele>272.6</ele>
        <time>2026-05-19T15:32:52Z</time>
      </trkpt>
      <trkpt lat="43.64227" lon="3.11412">
        <ele>272.2</ele>
        <time>2026-05-19T15:32:57Z</time>
      </trkpt>
      <trkpt lat="43.64226" lon="3.1141">
        <ele>271.7</ele>
        <time>2026-05-19T15:33:02Z</time>
      </trkpt>
      <trkpt lat="43.64225" lon="3.11409">
        <ele>271.4</ele>
        <time>2026-05-19T15:33:07Z</time>
      </trkpt>
      <trkpt lat="43.64225" lon="3.11409">
        <ele>271.4</ele>
        <time>2026-05-19T15:33:12Z</time>
      </trkpt>
      <trkpt lat="43.64221" lon="3.11408">
        <ele>270.7</ele>
        <time>2026-05-19T15:33:17Z</time>
      </trkpt>
      <trkpt lat="43.64215" lon="3.11405">
        <ele>269.4</ele>
        <time>2026-05-19T15:33:22Z</time>
      </trkpt>
      <trkpt lat="43.64211" lon="3.11401">
        <ele>268.1</ele>
        <time>2026-05-19T15:33:27Z</time>
      </trkpt>
      <trkpt lat="43.64206" lon="3.11398">
        <ele>266.9</ele>
        <time>2026-05-19T15:33:32Z</time>
      </trkpt>
      <trkpt lat="43.642" lon="3.11395">
        <ele>265.7</ele>
        <time>2026-05-19T15:33:37Z</time>
      </trkpt>
      <trkpt lat="43.64195" lon="3.11392">
        <ele>264.6</ele>
        <time>2026-05-19T15:33:42Z</time>
      </trkpt>
      <trkpt lat="43.64191" lon="3.1139">
        <ele>263.7</ele>
        <time>2026-05-19T15:33:47Z</time>
      </trkpt>
      <trkpt lat="43.64185" lon="3.11388">
        <ele>262.7</ele>
        <time>2026-05-19T15:33:52Z</time>
      </trkpt>
      <trkpt lat="43.64178" lon="3.11387">
        <ele>261.8</ele>
        <time>2026-05-19T15:33:57Z</time>
      </trkpt>
      <trkpt lat="43.64171" lon="3.11384">
        <ele>260.6</ele>
        <time>2026-05-19T15:34:02Z</time>
      </trkpt>
      <trkpt lat="43.64165" lon="3.11382">
        <ele>259.8</ele>
        <time>2026-05-19T15:34:07Z</time>
      </trkpt>
      <trkpt lat="43.64158" lon="3.11382">
        <ele>259.7</ele>
        <time>2026-05-19T15:34:12Z</time>
      </trkpt>
      <trkpt lat="43.64152" lon="3.1138">
        <ele>259.4</ele>
        <time>2026-05-19T15:34:17Z</time>
      </trkpt>
      <trkpt lat="43.64146" lon="3.1138">
        <ele>259.3</ele>
        <time>2026-05-19T15:34:22Z</time>
      </trkpt>
      <trkpt lat="43.64141" lon="3.11377">
        <ele>258.8</ele>
        <time>2026-05-19T15:34:27Z</time>
      </trkpt>
      <trkpt lat="43.64136" lon="3.11375">
        <ele>258.5</ele>
        <time>2026-05-19T15:34:32Z</time>
      </trkpt>
      <trkpt lat="43.64128" lon="3.11374">
        <ele>258.3</ele>
        <time>2026-05-19T15:34:37Z</time>
      </trkpt>
      <trkpt lat="43.64121" lon="3.11372">
        <ele>258</ele>
        <time>2026-05-19T15:34:42Z</time>
      </trkpt>
      <trkpt lat="43.64116" lon="3.11368">
        <ele>257.4</ele>
        <time>2026-05-19T15:34:47Z</time>
      </trkpt>
      <trkpt lat="43.64112" lon="3.11365">
        <ele>257</ele>
        <time>2026-05-19T15:34:52Z</time>
      </trkpt>
      <trkpt lat="43.64111" lon="3.11364">
        <ele>256.9</ele>
        <time>2026-05-19T15:34:57Z</time>
      </trkpt>
      <trkpt lat="43.6411" lon="3.11366">
        <ele>257.2</ele>
        <time>2026-05-19T15:35:02Z</time>
      </trkpt>
      <trkpt lat="43.64107" lon="3.11369">
        <ele>257.6</ele>
        <time>2026-05-19T15:35:07Z</time>
      </trkpt>
      <trkpt lat="43.64104" lon="3.11373">
        <ele>258.2</ele>
        <time>2026-05-19T15:35:12Z</time>
      </trkpt>
      <trkpt lat="43.64102" lon="3.11376">
        <ele>258.6</ele>
        <time>2026-05-19T15:35:17Z</time>
      </trkpt>
      <trkpt lat="43.64099" lon="3.1138">
        <ele>259.2</ele>
        <time>2026-05-19T15:35:22Z</time>
      </trkpt>
      <trkpt lat="43.64094" lon="3.11384">
        <ele>259.7</ele>
        <time>2026-05-19T15:35:27Z</time>
      </trkpt>
      <trkpt lat="43.64091" lon="3.11388">
        <ele>260.3</ele>
        <time>2026-05-19T15:35:32Z</time>
      </trkpt>
      <trkpt lat="43.64088" lon="3.11392">
        <ele>260.8</ele>
        <time>2026-05-19T15:35:37Z</time>
      </trkpt>
      <trkpt lat="43.64084" lon="3.11396">
        <ele>261.3</ele>
        <time>2026-05-19T15:35:42Z</time>
      </trkpt>
      <trkpt lat="43.6408" lon="3.11401">
        <ele>262.2</ele>
        <time>2026-05-19T15:35:47Z</time>
      </trkpt>
      <trkpt lat="43.64077" lon="3.11405">
        <ele>262.9</ele>
        <time>2026-05-19T15:35:52Z</time>
      </trkpt>
      <trkpt lat="43.64074" lon="3.11408">
        <ele>263.5</ele>
        <time>2026-05-19T15:35:57Z</time>
      </trkpt>
      <trkpt lat="43.6407" lon="3.11413">
        <ele>264.4</ele>
        <time>2026-05-19T15:36:02Z</time>
      </trkpt>
      <trkpt lat="43.64066" lon="3.11416">
        <ele>265</ele>
        <time>2026-05-19T15:36:07Z</time>
      </trkpt>
      <trkpt lat="43.64062" lon="3.11419">
        <ele>265.6</ele>
        <time>2026-05-19T15:36:12Z</time>
      </trkpt>
      <trkpt lat="43.64061" lon="3.11424">
        <ele>266.2</ele>
        <time>2026-05-19T15:36:17Z</time>
      </trkpt>
      <trkpt lat="43.64057" lon="3.11428">
        <ele>266.9</ele>
        <time>2026-05-19T15:36:22Z</time>
      </trkpt>
      <trkpt lat="43.64055" lon="3.11432">
        <ele>267.5</ele>
        <time>2026-05-19T15:36:27Z</time>
      </trkpt>
      <trkpt lat="43.64053" lon="3.11436">
        <ele>268</ele>
        <time>2026-05-19T15:36:32Z</time>
      </trkpt>
      <trkpt lat="43.6405" lon="3.11442">
        <ele>268.7</ele>
        <time>2026-05-19T15:36:37Z</time>
      </trkpt>
      <trkpt lat="43.64047" lon="3.11444">
        <ele>269</ele>
        <time>2026-05-19T15:36:42Z</time>
      </trkpt>
      <trkpt lat="43.64043" lon="3.11445">
        <ele>269.2</ele>
        <time>2026-05-19T15:36:47Z</time>
      </trkpt>
      <trkpt lat="43.64038" lon="3.11447">
        <ele>269.5</ele>
        <time>2026-05-19T15:36:52Z</time>
      </trkpt>
      <trkpt lat="43.64032" lon="3.11448">
        <ele>269.7</ele>
        <time>2026-05-19T15:36:57Z</time>
      </trkpt>
      <trkpt lat="43.64027" lon="3.11448">
        <ele>269.7</ele>
        <time>2026-05-19T15:37:02Z</time>
      </trkpt>
      <trkpt lat="43.64021" lon="3.11449">
        <ele>269.9</ele>
        <time>2026-05-19T15:37:07Z</time>
      </trkpt>
      <trkpt lat="43.64017" lon="3.11448">
        <ele>269.9</ele>
        <time>2026-05-19T15:37:12Z</time>
      </trkpt>
      <trkpt lat="43.64014" lon="3.11448">
        <ele>269.9</ele>
        <time>2026-05-19T15:37:17Z</time>
      </trkpt>
      <trkpt lat="43.64009" lon="3.1145">
        <ele>270.1</ele>
        <time>2026-05-19T15:37:22Z</time>
      </trkpt>
      <trkpt lat="43.64005" lon="3.11452">
        <ele>270.2</ele>
        <time>2026-05-19T15:37:27Z</time>
      </trkpt>
      <trkpt lat="43.64" lon="3.11454">
        <ele>270.3</ele>
        <time>2026-05-19T15:37:32Z</time>
      </trkpt>
      <trkpt lat="43.63998" lon="3.11459">
        <ele>270.6</ele>
        <time>2026-05-19T15:37:37Z</time>
      </trkpt>
      <trkpt lat="43.63994" lon="3.11462">
        <ele>270.9</ele>
        <time>2026-05-19T15:37:42Z</time>
      </trkpt>
      <trkpt lat="43.63989" lon="3.11463">
        <ele>271.1</ele>
        <time>2026-05-19T15:37:47Z</time>
      </trkpt>
      <trkpt lat="43.63983" lon="3.11468">
        <ele>271.6</ele>
        <time>2026-05-19T15:37:52Z</time>
      </trkpt>
      <trkpt lat="43.63979" lon="3.11471">
        <ele>271.9</ele>
        <time>2026-05-19T15:37:57Z</time>
      </trkpt>
      <trkpt lat="43.63975" lon="3.11473">
        <ele>272.2</ele>
        <time>2026-05-19T15:38:02Z</time>
      </trkpt>
      <trkpt lat="43.6397" lon="3.11474">
        <ele>272.6</ele>
        <time>2026-05-19T15:38:07Z</time>
      </trkpt>
      <trkpt lat="43.63963" lon="3.11474">
        <ele>272.9</ele>
        <time>2026-05-19T15:38:12Z</time>
      </trkpt>
      <trkpt lat="43.63957" lon="3.11476">
        <ele>273.3</ele>
        <time>2026-05-19T15:38:17Z</time>
      </trkpt>
      <trkpt lat="43.63951" lon="3.11479">
        <ele>273.9</ele>
        <time>2026-05-19T15:38:22Z</time>
      </trkpt>
      <trkpt lat="43.63948" lon="3.1148">
        <ele>274.1</ele>
        <time>2026-05-19T15:38:27Z</time>
      </trkpt>
      <trkpt lat="43.63948" lon="3.11483">
        <ele>274.4</ele>
        <time>2026-05-19T15:38:32Z</time>
      </trkpt>
      <trkpt lat="43.63948" lon="3.11483">
        <ele>274.4</ele>
        <time>2026-05-19T15:38:37Z</time>
      </trkpt>
      <trkpt lat="43.63948" lon="3.11483">
        <ele>274.4</ele>
        <time>2026-05-19T15:38:42Z</time>
      </trkpt>
      <trkpt lat="43.63948" lon="3.11483">
        <ele>274.4</ele>
        <time>2026-05-19T15:38:47Z</time>
      </trkpt>
      <trkpt lat="43.63945" lon="3.11483">
        <ele>274.5</ele>
        <time>2026-05-19T15:38:52Z</time>
      </trkpt>
      <trkpt lat="43.63939" lon="3.11485">
        <ele>275.1</ele>
        <time>2026-05-19T15:38:57Z</time>
      </trkpt>
      <trkpt lat="43.63933" lon="3.11486">
        <ele>275.5</ele>
        <time>2026-05-19T15:39:02Z</time>
      </trkpt>
      <trkpt lat="43.63929" lon="3.11489">
        <ele>276</ele>
        <time>2026-05-19T15:39:07Z</time>
      </trkpt>
      <trkpt lat="43.63923" lon="3.11488">
        <ele>276.3</ele>
        <time>2026-05-19T15:39:12Z</time>
      </trkpt>
      <trkpt lat="43.63917" lon="3.11488">
        <ele>276.7</ele>
        <time>2026-05-19T15:39:17Z</time>
      </trkpt>
      <trkpt lat="43.63912" lon="3.11486">
        <ele>276.6</ele>
        <time>2026-05-19T15:39:22Z</time>
      </trkpt>
      <trkpt lat="43.63907" lon="3.11485">
        <ele>276.5</ele>
        <time>2026-05-19T15:39:27Z</time>
      </trkpt>
      <trkpt lat="43.639" lon="3.11484">
        <ele>276.5</ele>
        <time>2026-05-19T15:39:32Z</time>
      </trkpt>
      <trkpt lat="43.63896" lon="3.11484">
        <ele>276.6</ele>
        <time>2026-05-19T15:39:37Z</time>
      </trkpt>
      <trkpt lat="43.6389" lon="3.11483">
        <ele>276.5</ele>
        <time>2026-05-19T15:39:42Z</time>
      </trkpt>
      <trkpt lat="43.63886" lon="3.11481">
        <ele>276.3</ele>
        <time>2026-05-19T15:39:47Z</time>
      </trkpt>
      <trkpt lat="43.6388" lon="3.11479">
        <ele>276.2</ele>
        <time>2026-05-19T15:39:52Z</time>
      </trkpt>
      <trkpt lat="43.63874" lon="3.11477">
        <ele>276</ele>
        <time>2026-05-19T15:39:57Z</time>
      </trkpt>
      <trkpt lat="43.63868" lon="3.11478">
        <ele>276.2</ele>
        <time>2026-05-19T15:40:02Z</time>
      </trkpt>
      <trkpt lat="43.63863" lon="3.11479">
        <ele>276.4</ele>
        <time>2026-05-19T15:40:07Z</time>
      </trkpt>
      <trkpt lat="43.63857" lon="3.11479">
        <ele>276.4</ele>
        <time>2026-05-19T15:40:12Z</time>
      </trkpt>
      <trkpt lat="43.63851" lon="3.11479">
        <ele>276.5</ele>
        <time>2026-05-19T15:40:17Z</time>
      </trkpt>
      <trkpt lat="43.63846" lon="3.1148">
        <ele>276.7</ele>
        <time>2026-05-19T15:40:22Z</time>
      </trkpt>
      <trkpt lat="43.63844" lon="3.1148">
        <ele>276.7</ele>
        <time>2026-05-19T15:40:27Z</time>
      </trkpt>
      <trkpt lat="43.63843" lon="3.1148">
        <ele>276.8</ele>
        <time>2026-05-19T15:40:32Z</time>
      </trkpt>
      <trkpt lat="43.63839" lon="3.11481">
        <ele>277</ele>
        <time>2026-05-19T15:40:37Z</time>
      </trkpt>
      <trkpt lat="43.63836" lon="3.11484">
        <ele>277.5</ele>
        <time>2026-05-19T15:40:42Z</time>
      </trkpt>
      <trkpt lat="43.63832" lon="3.11486">
        <ele>277.9</ele>
        <time>2026-05-19T15:40:47Z</time>
      </trkpt>
      <trkpt lat="43.63827" lon="3.11488">
        <ele>278.4</ele>
        <time>2026-05-19T15:40:52Z</time>
      </trkpt>
      <trkpt lat="43.63822" lon="3.11489">
        <ele>278.8</ele>
        <time>2026-05-19T15:40:57Z</time>
      </trkpt>
      <trkpt lat="43.63816" lon="3.1149">
        <ele>279.2</ele>
        <time>2026-05-19T15:41:02Z</time>
      </trkpt>
      <trkpt lat="43.63811" lon="3.11491">
        <ele>279.6</ele>
        <time>2026-05-19T15:41:07Z</time>
      </trkpt>
      <trkpt lat="43.63804" lon="3.11492">
        <ele>280.1</ele>
        <time>2026-05-19T15:41:12Z</time>
      </trkpt>
      <trkpt lat="43.63798" lon="3.11493">
        <ele>280.5</ele>
        <time>2026-05-19T15:41:17Z</time>
      </trkpt>
      <trkpt lat="43.63792" lon="3.11494">
        <ele>281</ele>
        <time>2026-05-19T15:41:22Z</time>
      </trkpt>
      <trkpt lat="43.63787" lon="3.11495">
        <ele>281.4</ele>
        <time>2026-05-19T15:41:27Z</time>
      </trkpt>
      <trkpt lat="43.63781" lon="3.11494">
        <ele>281.5</ele>
        <time>2026-05-19T15:41:32Z</time>
      </trkpt>
      <trkpt lat="43.63776" lon="3.11495">
        <ele>281.9</ele>
        <time>2026-05-19T15:41:37Z</time>
      </trkpt>
      <trkpt lat="43.63769" lon="3.11495">
        <ele>282.2</ele>
        <time>2026-05-19T15:41:42Z</time>
      </trkpt>
      <trkpt lat="43.63764" lon="3.11496">
        <ele>282.6</ele>
        <time>2026-05-19T15:41:47Z</time>
      </trkpt>
      <trkpt lat="43.63758" lon="3.11497">
        <ele>283.1</ele>
        <time>2026-05-19T15:41:52Z</time>
      </trkpt>
      <trkpt lat="43.63751" lon="3.11499">
        <ele>283.8</ele>
        <time>2026-05-19T15:41:57Z</time>
      </trkpt>
      <trkpt lat="43.63744" lon="3.115">
        <ele>284.3</ele>
        <time>2026-05-19T15:42:02Z</time>
      </trkpt>
      <trkpt lat="43.63738" lon="3.115">
        <ele>284.6</ele>
        <time>2026-05-19T15:42:07Z</time>
      </trkpt>
      <trkpt lat="43.63732" lon="3.115">
        <ele>284.9</ele>
        <time>2026-05-19T15:42:12Z</time>
      </trkpt>
      <trkpt lat="43.63726" lon="3.115">
        <ele>285.2</ele>
        <time>2026-05-19T15:42:17Z</time>
      </trkpt>
      <trkpt lat="43.63719" lon="3.115">
        <ele>285.5</ele>
        <time>2026-05-19T15:42:22Z</time>
      </trkpt>
      <trkpt lat="43.63713" lon="3.115">
        <ele>285.8</ele>
        <time>2026-05-19T15:42:27Z</time>
      </trkpt>
      <trkpt lat="43.63706" lon="3.115">
        <ele>286.1</ele>
        <time>2026-05-19T15:42:32Z</time>
      </trkpt>
      <trkpt lat="43.63701" lon="3.11501">
        <ele>286.5</ele>
        <time>2026-05-19T15:42:37Z</time>
      </trkpt>
      <trkpt lat="43.63696" lon="3.11499">
        <ele>286.4</ele>
        <time>2026-05-19T15:42:42Z</time>
      </trkpt>
      <trkpt lat="43.6369" lon="3.11497">
        <ele>286.4</ele>
        <time>2026-05-19T15:42:47Z</time>
      </trkpt>
      <trkpt lat="43.63685" lon="3.11495">
        <ele>286.4</ele>
        <time>2026-05-19T15:42:52Z</time>
      </trkpt>
      <trkpt lat="43.6368" lon="3.11491">
        <ele>286</ele>
        <time>2026-05-19T15:42:57Z</time>
      </trkpt>
      <trkpt lat="43.63675" lon="3.11486">
        <ele>285.5</ele>
        <time>2026-05-19T15:43:02Z</time>
      </trkpt>
      <trkpt lat="43.63668" lon="3.11482">
        <ele>285.3</ele>
        <time>2026-05-19T15:43:07Z</time>
      </trkpt>
      <trkpt lat="43.63664" lon="3.11479">
        <ele>285.3</ele>
        <time>2026-05-19T15:43:12Z</time>
      </trkpt>
      <trkpt lat="43.63659" lon="3.11474">
        <ele>285.1</ele>
        <time>2026-05-19T15:43:17Z</time>
      </trkpt>
      <trkpt lat="43.63654" lon="3.1147">
        <ele>285</ele>
        <time>2026-05-19T15:43:22Z</time>
      </trkpt>
      <trkpt lat="43.63649" lon="3.11468">
        <ele>285.2</ele>
        <time>2026-05-19T15:43:27Z</time>
      </trkpt>
      <trkpt lat="43.63644" lon="3.11465">
        <ele>285.2</ele>
        <time>2026-05-19T15:43:32Z</time>
      </trkpt>
      <trkpt lat="43.6364" lon="3.1146">
        <ele>284.8</ele>
        <time>2026-05-19T15:43:37Z</time>
      </trkpt>
      <trkpt lat="43.63634" lon="3.11457">
        <ele>284.9</ele>
        <time>2026-05-19T15:43:42Z</time>
      </trkpt>
      <trkpt lat="43.63629" lon="3.11453">
        <ele>284.7</ele>
        <time>2026-05-19T15:43:47Z</time>
      </trkpt>
      <trkpt lat="43.63623" lon="3.11449">
        <ele>284.6</ele>
        <time>2026-05-19T15:43:52Z</time>
      </trkpt>
      <trkpt lat="43.63618" lon="3.11445">
        <ele>284.4</ele>
        <time>2026-05-19T15:43:57Z</time>
      </trkpt>
      <trkpt lat="43.63613" lon="3.11439">
        <ele>283.8</ele>
        <time>2026-05-19T15:44:02Z</time>
      </trkpt>
      <trkpt lat="43.63609" lon="3.11435">
        <ele>283.4</ele>
        <time>2026-05-19T15:44:07Z</time>
      </trkpt>
      <trkpt lat="43.63606" lon="3.11429">
        <ele>282.6</ele>
        <time>2026-05-19T15:44:12Z</time>
      </trkpt>
      <trkpt lat="43.63605" lon="3.11426">
        <ele>282.1</ele>
        <time>2026-05-19T15:44:17Z</time>
      </trkpt>
      <trkpt lat="43.63602" lon="3.1142">
        <ele>281.3</ele>
        <time>2026-05-19T15:44:22Z</time>
      </trkpt>
      <trkpt lat="43.636" lon="3.11413">
        <ele>280.3</ele>
        <time>2026-05-19T15:44:27Z</time>
      </trkpt>
      <trkpt lat="43.63598" lon="3.11404">
        <ele>279.1</ele>
        <time>2026-05-19T15:44:32Z</time>
      </trkpt>
      <trkpt lat="43.63596" lon="3.11397">
        <ele>278.2</ele>
        <time>2026-05-19T15:44:37Z</time>
      </trkpt>
      <trkpt lat="43.63595" lon="3.1139">
        <ele>277.2</ele>
        <time>2026-05-19T15:44:42Z</time>
      </trkpt>
      <trkpt lat="43.63595" lon="3.11386">
        <ele>276.6</ele>
        <time>2026-05-19T15:44:47Z</time>
      </trkpt>
      <trkpt lat="43.63595" lon="3.11382">
        <ele>276</ele>
        <time>2026-05-19T15:44:52Z</time>
      </trkpt>
      <trkpt lat="43.63592" lon="3.11376">
        <ele>275.2</ele>
        <time>2026-05-19T15:44:57Z</time>
      </trkpt>
      <trkpt lat="43.6359" lon="3.11371">
        <ele>274.6</ele>
        <time>2026-05-19T15:45:02Z</time>
      </trkpt>
      <trkpt lat="43.63591" lon="3.11369">
        <ele>274.2</ele>
        <time>2026-05-19T15:45:07Z</time>
      </trkpt>
      <trkpt lat="43.6359" lon="3.11365">
        <ele>273.7</ele>
        <time>2026-05-19T15:45:12Z</time>
      </trkpt>
      <trkpt lat="43.63588" lon="3.11359">
        <ele>272.8</ele>
        <time>2026-05-19T15:45:17Z</time>
      </trkpt>
      <trkpt lat="43.63586" lon="3.11355">
        <ele>272.3</ele>
        <time>2026-05-19T15:45:22Z</time>
      </trkpt>
      <trkpt lat="43.63583" lon="3.11349">
        <ele>271.5</ele>
        <time>2026-05-19T15:45:27Z</time>
      </trkpt>
      <trkpt lat="43.63578" lon="3.11343">
        <ele>271.3</ele>
        <time>2026-05-19T15:45:32Z</time>
      </trkpt>
      <trkpt lat="43.63575" lon="3.11337">
        <ele>270.8</ele>
        <time>2026-05-19T15:45:37Z</time>
      </trkpt>
      <trkpt lat="43.63569" lon="3.11331">
        <ele>271</ele>
        <time>2026-05-19T15:45:42Z</time>
      </trkpt>
      <trkpt lat="43.63566" lon="3.11323">
        <ele>270.9</ele>
        <time>2026-05-19T15:45:47Z</time>
      </trkpt>
      <trkpt lat="43.63563" lon="3.11317">
        <ele>271</ele>
        <time>2026-05-19T15:45:52Z</time>
      </trkpt>
      <trkpt lat="43.6356" lon="3.11309">
        <ele>270.8</ele>
        <time>2026-05-19T15:45:57Z</time>
      </trkpt>
      <trkpt lat="43.63559" lon="3.113">
        <ele>270.3</ele>
        <time>2026-05-19T15:46:02Z</time>
      </trkpt>
      <trkpt lat="43.63557" lon="3.11291">
        <ele>269.8</ele>
        <time>2026-05-19T15:46:07Z</time>
      </trkpt>
      <trkpt lat="43.63552" lon="3.11284">
        <ele>269.7</ele>
        <time>2026-05-19T15:46:12Z</time>
      </trkpt>
      <trkpt lat="43.63548" lon="3.11277">
        <ele>269.3</ele>
        <time>2026-05-19T15:46:17Z</time>
      </trkpt>
      <trkpt lat="43.63547" lon="3.11269">
        <ele>268.6</ele>
        <time>2026-05-19T15:46:22Z</time>
      </trkpt>
      <trkpt lat="43.63546" lon="3.11262">
        <ele>268.1</ele>
        <time>2026-05-19T15:46:27Z</time>
      </trkpt>
      <trkpt lat="43.63545" lon="3.11258">
        <ele>267.7</ele>
        <time>2026-05-19T15:46:32Z</time>
      </trkpt>
      <trkpt lat="43.6354" lon="3.11255">
        <ele>267.5</ele>
        <time>2026-05-19T15:46:37Z</time>
      </trkpt>
      <trkpt lat="43.63536" lon="3.11251">
        <ele>267.1</ele>
        <time>2026-05-19T15:46:42Z</time>
      </trkpt>
      <trkpt lat="43.63532" lon="3.11247">
        <ele>266.8</ele>
        <time>2026-05-19T15:46:47Z</time>
      </trkpt>
      <trkpt lat="43.63526" lon="3.11241">
        <ele>266.3</ele>
        <time>2026-05-19T15:46:52Z</time>
      </trkpt>
      <trkpt lat="43.63522" lon="3.11237">
        <ele>266.1</ele>
        <time>2026-05-19T15:46:57Z</time>
      </trkpt>
      <trkpt lat="43.63517" lon="3.11231">
        <ele>265.7</ele>
        <time>2026-05-19T15:47:02Z</time>
      </trkpt>
      <trkpt lat="43.63513" lon="3.11225">
        <ele>265.3</ele>
        <time>2026-05-19T15:47:07Z</time>
      </trkpt>
      <trkpt lat="43.63507" lon="3.11221">
        <ele>265.1</ele>
        <time>2026-05-19T15:47:12Z</time>
      </trkpt>
      <trkpt lat="43.63503" lon="3.11216">
        <ele>264.9</ele>
        <time>2026-05-19T15:47:17Z</time>
      </trkpt>
      <trkpt lat="43.63499" lon="3.1121">
        <ele>264.7</ele>
        <time>2026-05-19T15:47:22Z</time>
      </trkpt>
      <trkpt lat="43.63493" lon="3.11205">
        <ele>265</ele>
        <time>2026-05-19T15:47:27Z</time>
      </trkpt>
      <trkpt lat="43.63487" lon="3.11197">
        <ele>265.1</ele>
        <time>2026-05-19T15:47:32Z</time>
      </trkpt>
      <trkpt lat="43.63482" lon="3.11191">
        <ele>265.2</ele>
        <time>2026-05-19T15:47:37Z</time>
      </trkpt>
      <trkpt lat="43.63476" lon="3.11186">
        <ele>265.4</ele>
        <time>2026-05-19T15:47:42Z</time>
      </trkpt>
      <trkpt lat="43.63472" lon="3.11183">
        <ele>265.5</ele>
        <time>2026-05-19T15:47:47Z</time>
      </trkpt>
      <trkpt lat="43.63466" lon="3.11181">
        <ele>265.9</ele>
        <time>2026-05-19T15:47:52Z</time>
      </trkpt>
      <trkpt lat="43.63465" lon="3.11177">
        <ele>265.7</ele>
        <time>2026-05-19T15:47:57Z</time>
      </trkpt>
      <trkpt lat="43.6346" lon="3.11172">
        <ele>265.8</ele>
        <time>2026-05-19T15:48:02Z</time>
      </trkpt>
      <trkpt lat="43.63453" lon="3.11169">
        <ele>266.1</ele>
        <time>2026-05-19T15:48:07Z</time>
      </trkpt>
      <trkpt lat="43.63445" lon="3.11165">
        <ele>266.3</ele>
        <time>2026-05-19T15:48:12Z</time>
      </trkpt>
      <trkpt lat="43.63439" lon="3.11162">
        <ele>266.3</ele>
        <time>2026-05-19T15:48:17Z</time>
      </trkpt>
      <trkpt lat="43.63432" lon="3.11158">
        <ele>266.2</ele>
        <time>2026-05-19T15:48:22Z</time>
      </trkpt>
      <trkpt lat="43.63425" lon="3.11152">
        <ele>265.7</ele>
        <time>2026-05-19T15:48:27Z</time>
      </trkpt>
      <trkpt lat="43.63421" lon="3.1115">
        <ele>265.7</ele>
        <time>2026-05-19T15:48:32Z</time>
      </trkpt>
      <trkpt lat="43.63421" lon="3.1115">
        <ele>265.7</ele>
        <time>2026-05-19T15:48:37Z</time>
      </trkpt>
      <trkpt lat="43.63417" lon="3.11147">
        <ele>265.4</ele>
        <time>2026-05-19T15:48:42Z</time>
      </trkpt>
      <trkpt lat="43.63412" lon="3.11145">
        <ele>264.9</ele>
        <time>2026-05-19T15:48:47Z</time>
      </trkpt>
      <trkpt lat="43.63408" lon="3.11141">
        <ele>264.1</ele>
        <time>2026-05-19T15:48:52Z</time>
      </trkpt>
      <trkpt lat="43.63404" lon="3.11136">
        <ele>263</ele>
        <time>2026-05-19T15:48:57Z</time>
      </trkpt>
      <trkpt lat="43.63399" lon="3.11132">
        <ele>262.1</ele>
        <time>2026-05-19T15:49:02Z</time>
      </trkpt>
      <trkpt lat="43.63396" lon="3.11129">
        <ele>261.5</ele>
        <time>2026-05-19T15:49:07Z</time>
      </trkpt>
      <trkpt lat="43.63393" lon="3.11127">
        <ele>261</ele>
        <time>2026-05-19T15:49:12Z</time>
      </trkpt>
      <trkpt lat="43.63389" lon="3.11125">
        <ele>260.5</ele>
        <time>2026-05-19T15:49:17Z</time>
      </trkpt>
      <trkpt lat="43.63385" lon="3.11124">
        <ele>260.2</ele>
        <time>2026-05-19T15:49:22Z</time>
      </trkpt>
      <trkpt lat="43.63381" lon="3.11123">
        <ele>259.9</ele>
        <time>2026-05-19T15:49:27Z</time>
      </trkpt>
      <trkpt lat="43.63376" lon="3.11121">
        <ele>259.3</ele>
        <time>2026-05-19T15:49:32Z</time>
      </trkpt>
      <trkpt lat="43.63372" lon="3.1112">
        <ele>259</ele>
        <time>2026-05-19T15:49:37Z</time>
      </trkpt>
      <trkpt lat="43.63368" lon="3.11118">
        <ele>258.5</ele>
        <time>2026-05-19T15:49:42Z</time>
      </trkpt>
      <trkpt lat="43.63364" lon="3.11117">
        <ele>258.2</ele>
        <time>2026-05-19T15:49:47Z</time>
      </trkpt>
      <trkpt lat="43.6336" lon="3.11117">
        <ele>258</ele>
        <time>2026-05-19T15:49:52Z</time>
      </trkpt>
      <trkpt lat="43.63356" lon="3.11118">
        <ele>258.1</ele>
        <time>2026-05-19T15:49:57Z</time>
      </trkpt>
      <trkpt lat="43.63351" lon="3.1112">
        <ele>258.2</ele>
        <time>2026-05-19T15:50:02Z</time>
      </trkpt>
      <trkpt lat="43.63347" lon="3.11119">
        <ele>257.9</ele>
        <time>2026-05-19T15:50:07Z</time>
      </trkpt>
      <trkpt lat="43.63345" lon="3.11119">
        <ele>257.8</ele>
        <time>2026-05-19T15:50:12Z</time>
      </trkpt>
      <trkpt lat="43.63344" lon="3.11124">
        <ele>258.7</ele>
        <time>2026-05-19T15:50:17Z</time>
      </trkpt>
      <trkpt lat="43.6334" lon="3.1113">
        <ele>259.6</ele>
        <time>2026-05-19T15:50:22Z</time>
      </trkpt>
      <trkpt lat="43.63336" lon="3.11135">
        <ele>260.4</ele>
        <time>2026-05-19T15:50:27Z</time>
      </trkpt>
      <trkpt lat="43.63332" lon="3.11141">
        <ele>261.2</ele>
        <time>2026-05-19T15:50:32Z</time>
      </trkpt>
      <trkpt lat="43.63328" lon="3.11148">
        <ele>262</ele>
        <time>2026-05-19T15:50:37Z</time>
      </trkpt>
      <trkpt lat="43.63323" lon="3.11155">
        <ele>262.7</ele>
        <time>2026-05-19T15:50:42Z</time>
      </trkpt>
      <trkpt lat="43.63319" lon="3.1116">
        <ele>263</ele>
        <time>2026-05-19T15:50:47Z</time>
      </trkpt>
      <trkpt lat="43.63315" lon="3.11164">
        <ele>263.1</ele>
        <time>2026-05-19T15:50:52Z</time>
      </trkpt>
      <trkpt lat="43.6331" lon="3.11168">
        <ele>263.1</ele>
        <time>2026-05-19T15:50:57Z</time>
      </trkpt>
      <trkpt lat="43.63303" lon="3.11172">
        <ele>262.6</ele>
        <time>2026-05-19T15:51:02Z</time>
      </trkpt>
      <trkpt lat="43.63297" lon="3.11173">
        <ele>262</ele>
        <time>2026-05-19T15:51:07Z</time>
      </trkpt>
      <trkpt lat="43.6329" lon="3.11174">
        <ele>261.2</ele>
        <time>2026-05-19T15:51:12Z</time>
      </trkpt>
      <trkpt lat="43.63283" lon="3.11176">
        <ele>260.5</ele>
        <time>2026-05-19T15:51:17Z</time>
      </trkpt>
      <trkpt lat="43.63277" lon="3.11179">
        <ele>260.1</ele>
        <time>2026-05-19T15:51:22Z</time>
      </trkpt>
      <trkpt lat="43.63272" lon="3.11185">
        <ele>260.2</ele>
        <time>2026-05-19T15:51:27Z</time>
      </trkpt>
      <trkpt lat="43.63266" lon="3.11188">
        <ele>259.8</ele>
        <time>2026-05-19T15:51:32Z</time>
      </trkpt>
      <trkpt lat="43.63262" lon="3.11192">
        <ele>259.8</ele>
        <time>2026-05-19T15:51:37Z</time>
      </trkpt>
      <trkpt lat="43.63258" lon="3.11196">
        <ele>259.9</ele>
        <time>2026-05-19T15:51:42Z</time>
      </trkpt>
      <trkpt lat="43.63253" lon="3.11201">
        <ele>259.9</ele>
        <time>2026-05-19T15:51:47Z</time>
      </trkpt>
      <trkpt lat="43.63247" lon="3.11205">
        <ele>259.8</ele>
        <time>2026-05-19T15:51:52Z</time>
      </trkpt>
      <trkpt lat="43.63242" lon="3.11207">
        <ele>259.7</ele>
        <time>2026-05-19T15:51:57Z</time>
      </trkpt>
      <trkpt lat="43.63238" lon="3.11211">
        <ele>259.8</ele>
        <time>2026-05-19T15:52:02Z</time>
      </trkpt>
      <trkpt lat="43.63234" lon="3.11214">
        <ele>259.9</ele>
        <time>2026-05-19T15:52:07Z</time>
      </trkpt>
      <trkpt lat="43.63229" lon="3.11215">
        <ele>259.6</ele>
        <time>2026-05-19T15:52:12Z</time>
      </trkpt>
      <trkpt lat="43.63226" lon="3.11218">
        <ele>259.8</ele>
        <time>2026-05-19T15:52:17Z</time>
      </trkpt>
      <trkpt lat="43.63223" lon="3.1122">
        <ele>259.8</ele>
        <time>2026-05-19T15:52:22Z</time>
      </trkpt>
      <trkpt lat="43.63221" lon="3.11219">
        <ele>259.5</ele>
        <time>2026-05-19T15:52:27Z</time>
      </trkpt>
      <trkpt lat="43.63219" lon="3.1122">
        <ele>259.4</ele>
        <time>2026-05-19T15:52:32Z</time>
      </trkpt>
      <trkpt lat="43.63219" lon="3.1122">
        <ele>259.4</ele>
        <time>2026-05-19T15:52:37Z</time>
      </trkpt>
      <trkpt lat="43.63212" lon="3.11221">
        <ele>259</ele>
        <time>2026-05-19T15:52:42Z</time>
      </trkpt>
      <trkpt lat="43.63207" lon="3.11222">
        <ele>258.7</ele>
        <time>2026-05-19T15:52:47Z</time>
      </trkpt>
      <trkpt lat="43.63202" lon="3.11222">
        <ele>258.3</ele>
        <time>2026-05-19T15:52:52Z</time>
      </trkpt>
      <trkpt lat="43.63197" lon="3.11221">
        <ele>257.7</ele>
        <time>2026-05-19T15:52:57Z</time>
      </trkpt>
      <trkpt lat="43.63192" lon="3.11221">
        <ele>257.3</ele>
        <time>2026-05-19T15:53:02Z</time>
      </trkpt>
      <trkpt lat="43.63188" lon="3.11222">
        <ele>257.1</ele>
        <time>2026-05-19T15:53:07Z</time>
      </trkpt>
      <trkpt lat="43.63184" lon="3.11224">
        <ele>257</ele>
        <time>2026-05-19T15:53:12Z</time>
      </trkpt>
      <trkpt lat="43.6318" lon="3.11228">
        <ele>257.2</ele>
        <time>2026-05-19T15:53:17Z</time>
      </trkpt>
      <trkpt lat="43.63176" lon="3.11229">
        <ele>257</ele>
        <time>2026-05-19T15:53:22Z</time>
      </trkpt>
      <trkpt lat="43.63171" lon="3.11232">
        <ele>257</ele>
        <time>2026-05-19T15:53:27Z</time>
      </trkpt>
      <trkpt lat="43.63165" lon="3.11234">
        <ele>256.7</ele>
        <time>2026-05-19T15:53:32Z</time>
      </trkpt>
      <trkpt lat="43.6316" lon="3.11238">
        <ele>256.8</ele>
        <time>2026-05-19T15:53:37Z</time>
      </trkpt>
      <trkpt lat="43.63154" lon="3.11241">
        <ele>256.6</ele>
        <time>2026-05-19T15:53:42Z</time>
      </trkpt>
      <trkpt lat="43.63151" lon="3.11242">
        <ele>256.5</ele>
        <time>2026-05-19T15:53:47Z</time>
      </trkpt>
      <trkpt lat="43.63147" lon="3.11243">
        <ele>256.2</ele>
        <time>2026-05-19T15:53:52Z</time>
      </trkpt>
      <trkpt lat="43.63145" lon="3.11242">
        <ele>255.9</ele>
        <time>2026-05-19T15:53:57Z</time>
      </trkpt>
      <trkpt lat="43.63145" lon="3.11242">
        <ele>255.9</ele>
        <time>2026-05-19T15:54:02Z</time>
      </trkpt>
      <trkpt lat="43.63145" lon="3.11242">
        <ele>255.9</ele>
        <time>2026-05-19T15:54:07Z</time>
      </trkpt>
      <trkpt lat="43.63145" lon="3.11242">
        <ele>255.9</ele>
        <time>2026-05-19T15:54:12Z</time>
      </trkpt>
      <trkpt lat="43.63142" lon="3.11243">
        <ele>255.8</ele>
        <time>2026-05-19T15:54:18Z</time>
      </trkpt>
      <trkpt lat="43.63138" lon="3.11245">
        <ele>255.6</ele>
        <time>2026-05-19T15:54:23Z</time>
      </trkpt>
      <trkpt lat="43.63134" lon="3.11246">
        <ele>255.4</ele>
        <time>2026-05-19T15:54:28Z</time>
      </trkpt>
      <trkpt lat="43.63131" lon="3.11249">
        <ele>255.5</ele>
        <time>2026-05-19T15:54:33Z</time>
      </trkpt>
      <trkpt lat="43.63126" lon="3.11251">
        <ele>255.2</ele>
        <time>2026-05-19T15:54:38Z</time>
      </trkpt>
      <trkpt lat="43.63121" lon="3.11255">
        <ele>255.4</ele>
        <time>2026-05-19T15:54:43Z</time>
      </trkpt>
      <trkpt lat="43.63116" lon="3.11259">
        <ele>255.4</ele>
        <time>2026-05-19T15:54:48Z</time>
      </trkpt>
      <trkpt lat="43.63111" lon="3.1126">
        <ele>255.1</ele>
        <time>2026-05-19T15:54:53Z</time>
      </trkpt>
      <trkpt lat="43.63105" lon="3.11262">
        <ele>254.7</ele>
        <time>2026-05-19T15:54:58Z</time>
      </trkpt>
      <trkpt lat="43.631" lon="3.11264">
        <ele>254.4</ele>
        <time>2026-05-19T15:55:03Z</time>
      </trkpt>
      <trkpt lat="43.63095" lon="3.11268">
        <ele>254.4</ele>
        <time>2026-05-19T15:55:08Z</time>
      </trkpt>
      <trkpt lat="43.6309" lon="3.1127">
        <ele>254.1</ele>
        <time>2026-05-19T15:55:13Z</time>
      </trkpt>
      <trkpt lat="43.63085" lon="3.11271">
        <ele>253.7</ele>
        <time>2026-05-19T15:55:18Z</time>
      </trkpt>
      <trkpt lat="43.6308" lon="3.11272">
        <ele>253.2</ele>
        <time>2026-05-19T15:55:23Z</time>
      </trkpt>
      <trkpt lat="43.63076" lon="3.11275">
        <ele>253.1</ele>
        <time>2026-05-19T15:55:28Z</time>
      </trkpt>
      <trkpt lat="43.63071" lon="3.11276">
        <ele>252.6</ele>
        <time>2026-05-19T15:55:33Z</time>
      </trkpt>
      <trkpt lat="43.63066" lon="3.11279">
        <ele>252.3</ele>
        <time>2026-05-19T15:55:38Z</time>
      </trkpt>
      <trkpt lat="43.63061" lon="3.11283">
        <ele>252.2</ele>
        <time>2026-05-19T15:55:43Z</time>
      </trkpt>
      <trkpt lat="43.63057" lon="3.11287">
        <ele>252.1</ele>
        <time>2026-05-19T15:55:48Z</time>
      </trkpt>
      <trkpt lat="43.63053" lon="3.11292">
        <ele>252.2</ele>
        <time>2026-05-19T15:55:53Z</time>
      </trkpt>
      <trkpt lat="43.63051" lon="3.11298">
        <ele>252.7</ele>
        <time>2026-05-19T15:55:58Z</time>
      </trkpt>
      <trkpt lat="43.63047" lon="3.11302">
        <ele>252.6</ele>
        <time>2026-05-19T15:56:03Z</time>
      </trkpt>
      <trkpt lat="43.63044" lon="3.11309">
        <ele>253</ele>
        <time>2026-05-19T15:56:08Z</time>
      </trkpt>
      <trkpt lat="43.63039" lon="3.11315">
        <ele>253.1</ele>
        <time>2026-05-19T15:56:13Z</time>
      </trkpt>
      <trkpt lat="43.63034" lon="3.11318">
        <ele>252.8</ele>
        <time>2026-05-19T15:56:18Z</time>
      </trkpt>
      <trkpt lat="43.6303" lon="3.11322">
        <ele>252.7</ele>
        <time>2026-05-19T15:56:23Z</time>
      </trkpt>
      <trkpt lat="43.63024" lon="3.11326">
        <ele>252.4</ele>
        <time>2026-05-19T15:56:28Z</time>
      </trkpt>
      <trkpt lat="43.63019" lon="3.11331">
        <ele>252.2</ele>
        <time>2026-05-19T15:56:33Z</time>
      </trkpt>
      <trkpt lat="43.63013" lon="3.11333">
        <ele>251.7</ele>
        <time>2026-05-19T15:56:38Z</time>
      </trkpt>
      <trkpt lat="43.63007" lon="3.11336">
        <ele>251.2</ele>
        <time>2026-05-19T15:56:43Z</time>
      </trkpt>
      <trkpt lat="43.63002" lon="3.11338">
        <ele>250.8</ele>
        <time>2026-05-19T15:56:48Z</time>
      </trkpt>
      <trkpt lat="43.62996" lon="3.11341">
        <ele>250.6</ele>
        <time>2026-05-19T15:56:53Z</time>
      </trkpt>
      <trkpt lat="43.62989" lon="3.11344">
        <ele>250.5</ele>
        <time>2026-05-19T15:56:58Z</time>
      </trkpt>
      <trkpt lat="43.62985" lon="3.11346">
        <ele>250.4</ele>
        <time>2026-05-19T15:57:03Z</time>
      </trkpt>
      <trkpt lat="43.62981" lon="3.11347">
        <ele>250.3</ele>
        <time>2026-05-19T15:57:08Z</time>
      </trkpt>
      <trkpt lat="43.62977" lon="3.1135">
        <ele>250.4</ele>
        <time>2026-05-19T15:57:13Z</time>
      </trkpt>
      <trkpt lat="43.62972" lon="3.11354">
        <ele>250.5</ele>
        <time>2026-05-19T15:57:18Z</time>
      </trkpt>
      <trkpt lat="43.62969" lon="3.11357">
        <ele>250.6</ele>
        <time>2026-05-19T15:57:23Z</time>
      </trkpt>
      <trkpt lat="43.62966" lon="3.11363">
        <ele>251</ele>
        <time>2026-05-19T15:57:28Z</time>
      </trkpt>
      <trkpt lat="43.62962" lon="3.11367">
        <ele>251.2</ele>
        <time>2026-05-19T15:57:33Z</time>
      </trkpt>
      <trkpt lat="43.62959" lon="3.11374">
        <ele>251.7</ele>
        <time>2026-05-19T15:57:38Z</time>
      </trkpt>
      <trkpt lat="43.62955" lon="3.11379">
        <ele>251.9</ele>
        <time>2026-05-19T15:57:43Z</time>
      </trkpt>
      <trkpt lat="43.62951" lon="3.11383">
        <ele>252.1</ele>
        <time>2026-05-19T15:57:48Z</time>
      </trkpt>
      <trkpt lat="43.62946" lon="3.11387">
        <ele>252.1</ele>
        <time>2026-05-19T15:57:53Z</time>
      </trkpt>
      <trkpt lat="43.62942" lon="3.1139">
        <ele>252.2</ele>
        <time>2026-05-19T15:57:58Z</time>
      </trkpt>
      <trkpt lat="43.62938" lon="3.11392">
        <ele>252.1</ele>
        <time>2026-05-19T15:58:03Z</time>
      </trkpt>
      <trkpt lat="43.62933" lon="3.11397">
        <ele>252.2</ele>
        <time>2026-05-19T15:58:08Z</time>
      </trkpt>
      <trkpt lat="43.62928" lon="3.11401">
        <ele>252.3</ele>
        <time>2026-05-19T15:58:13Z</time>
      </trkpt>
      <trkpt lat="43.62923" lon="3.11402">
        <ele>252</ele>
        <time>2026-05-19T15:58:18Z</time>
      </trkpt>
      <trkpt lat="43.62919" lon="3.11403">
        <ele>251.9</ele>
        <time>2026-05-19T15:58:23Z</time>
      </trkpt>
      <trkpt lat="43.62914" lon="3.11403">
        <ele>251.5</ele>
        <time>2026-05-19T15:58:28Z</time>
      </trkpt>
      <trkpt lat="43.62909" lon="3.11403">
        <ele>251.2</ele>
        <time>2026-05-19T15:58:33Z</time>
      </trkpt>
      <trkpt lat="43.62904" lon="3.11403">
        <ele>250.8</ele>
        <time>2026-05-19T15:58:38Z</time>
      </trkpt>
      <trkpt lat="43.62899" lon="3.11404">
        <ele>250.5</ele>
        <time>2026-05-19T15:58:43Z</time>
      </trkpt>
      <trkpt lat="43.62895" lon="3.11405">
        <ele>250.4</ele>
        <time>2026-05-19T15:58:48Z</time>
      </trkpt>
      <trkpt lat="43.62889" lon="3.11406">
        <ele>250</ele>
        <time>2026-05-19T15:58:53Z</time>
      </trkpt>
      <trkpt lat="43.62883" lon="3.11405">
        <ele>249.5</ele>
        <time>2026-05-19T15:58:58Z</time>
      </trkpt>
      <trkpt lat="43.62877" lon="3.11405">
        <ele>249.1</ele>
        <time>2026-05-19T15:59:03Z</time>
      </trkpt>
      <trkpt lat="43.62871" lon="3.11405">
        <ele>248.7</ele>
        <time>2026-05-19T15:59:08Z</time>
      </trkpt>
      <trkpt lat="43.62864" lon="3.11405">
        <ele>248.2</ele>
        <time>2026-05-19T15:59:13Z</time>
      </trkpt>
      <trkpt lat="43.62859" lon="3.11405">
        <ele>247.8</ele>
        <time>2026-05-19T15:59:18Z</time>
      </trkpt>
      <trkpt lat="43.62853" lon="3.11405">
        <ele>247.4</ele>
        <time>2026-05-19T15:59:23Z</time>
      </trkpt>
      <trkpt lat="43.62846" lon="3.11406">
        <ele>247</ele>
        <time>2026-05-19T15:59:28Z</time>
      </trkpt>
      <trkpt lat="43.62839" lon="3.11406">
        <ele>246.5</ele>
        <time>2026-05-19T15:59:33Z</time>
      </trkpt>
      <trkpt lat="43.62833" lon="3.11407">
        <ele>246.1</ele>
        <time>2026-05-19T15:59:38Z</time>
      </trkpt>
      <trkpt lat="43.62827" lon="3.11409">
        <ele>245</ele>
        <time>2026-05-19T15:59:43Z</time>
      </trkpt>
      <trkpt lat="43.62821" lon="3.11411">
        <ele>243.9</ele>
        <time>2026-05-19T15:59:48Z</time>
      </trkpt>
      <trkpt lat="43.62815" lon="3.1141">
        <ele>242.6</ele>
        <time>2026-05-19T15:59:53Z</time>
      </trkpt>
      <trkpt lat="43.6281" lon="3.1141">
        <ele>241.5</ele>
        <time>2026-05-19T15:59:58Z</time>
      </trkpt>
      <trkpt lat="43.62805" lon="3.11412">
        <ele>240.6</ele>
        <time>2026-05-19T16:00:03Z</time>
      </trkpt>
      <trkpt lat="43.62801" lon="3.11414">
        <ele>239.9</ele>
        <time>2026-05-19T16:00:08Z</time>
      </trkpt>
      <trkpt lat="43.62794" lon="3.11415">
        <ele>238.4</ele>
        <time>2026-05-19T16:00:13Z</time>
      </trkpt>
      <trkpt lat="43.62789" lon="3.11415">
        <ele>237.3</ele>
        <time>2026-05-19T16:00:18Z</time>
      </trkpt>
      <trkpt lat="43.62784" lon="3.11415">
        <ele>236.3</ele>
        <time>2026-05-19T16:00:23Z</time>
      </trkpt>
      <trkpt lat="43.62778" lon="3.11416">
        <ele>235</ele>
        <time>2026-05-19T16:00:28Z</time>
      </trkpt>
      <trkpt lat="43.62774" lon="3.11415">
        <ele>234.1</ele>
        <time>2026-05-19T16:00:33Z</time>
      </trkpt>
      <trkpt lat="43.62772" lon="3.11414">
        <ele>233.7</ele>
        <time>2026-05-19T16:00:38Z</time>
      </trkpt>
      <trkpt lat="43.62772" lon="3.11413">
        <ele>233.6</ele>
        <time>2026-05-19T16:00:43Z</time>
      </trkpt>
      <trkpt lat="43.62769" lon="3.11411">
        <ele>232.9</ele>
        <time>2026-05-19T16:00:48Z</time>
      </trkpt>
      <trkpt lat="43.62765" lon="3.11409">
        <ele>232</ele>
        <time>2026-05-19T16:00:53Z</time>
      </trkpt>
      <trkpt lat="43.62761" lon="3.11404">
        <ele>231.1</ele>
        <time>2026-05-19T16:00:58Z</time>
      </trkpt>
      <trkpt lat="43.62758" lon="3.114">
        <ele>230.4</ele>
        <time>2026-05-19T16:01:03Z</time>
      </trkpt>
      <trkpt lat="43.62754" lon="3.11395">
        <ele>229.5</ele>
        <time>2026-05-19T16:01:08Z</time>
      </trkpt>
      <trkpt lat="43.6275" lon="3.11392">
        <ele>228.7</ele>
        <time>2026-05-19T16:01:13Z</time>
      </trkpt>
      <trkpt lat="43.62746" lon="3.11392">
        <ele>228.1</ele>
        <time>2026-05-19T16:01:18Z</time>
      </trkpt>
      <trkpt lat="43.62747" lon="3.11392">
        <ele>228.2</ele>
        <time>2026-05-19T16:01:23Z</time>
      </trkpt>
      <trkpt lat="43.6275" lon="3.11394">
        <ele>228.7</ele>
        <time>2026-05-19T16:01:28Z</time>
      </trkpt>
      <trkpt lat="43.62754" lon="3.11397">
        <ele>229.6</ele>
        <time>2026-05-19T16:01:33Z</time>
      </trkpt>
      <trkpt lat="43.62757" lon="3.11398">
        <ele>230.2</ele>
        <time>2026-05-19T16:01:38Z</time>
      </trkpt>
      <trkpt lat="43.6276" lon="3.114">
        <ele>230.8</ele>
        <time>2026-05-19T16:01:43Z</time>
      </trkpt>
      <trkpt lat="43.62762" lon="3.11403">
        <ele>231.3</ele>
        <time>2026-05-19T16:01:48Z</time>
      </trkpt>
      <trkpt lat="43.62763" lon="3.11408">
        <ele>231.6</ele>
        <time>2026-05-19T16:01:53Z</time>
      </trkpt>
      <trkpt lat="43.62768" lon="3.1141">
        <ele>232.7</ele>
        <time>2026-05-19T16:01:58Z</time>
      </trkpt>
      <trkpt lat="43.62772" lon="3.11413">
        <ele>233.6</ele>
        <time>2026-05-19T16:02:03Z</time>
      </trkpt>
      <trkpt lat="43.62773" lon="3.11415">
        <ele>233.9</ele>
        <time>2026-05-19T16:02:08Z</time>
      </trkpt>
      <trkpt lat="43.62774" lon="3.11415">
        <ele>234.1</ele>
        <time>2026-05-19T16:02:13Z</time>
      </trkpt>
      <trkpt lat="43.62774" lon="3.11415">
        <ele>234.1</ele>
        <time>2026-05-19T16:02:18Z</time>
      </trkpt>
      <trkpt lat="43.62774" lon="3.11415">
        <ele>234.1</ele>
        <time>2026-05-19T16:02:23Z</time>
      </trkpt>
      <trkpt lat="43.62772" lon="3.11415">
        <ele>233.7</ele>
        <time>2026-05-19T16:02:28Z</time>
      </trkpt>
      <trkpt lat="43.62769" lon="3.11412">
        <ele>233</ele>
        <time>2026-05-19T16:02:33Z</time>
      </trkpt>
      <trkpt lat="43.62766" lon="3.11409">
        <ele>232.3</ele>
        <time>2026-05-19T16:02:38Z</time>
      </trkpt>
      <trkpt lat="43.62761" lon="3.11405">
        <ele>231.1</ele>
        <time>2026-05-19T16:02:43Z</time>
      </trkpt>
      <trkpt lat="43.62756" lon="3.11401">
        <ele>230</ele>
        <time>2026-05-19T16:02:48Z</time>
      </trkpt>
      <trkpt lat="43.62751" lon="3.11397">
        <ele>229</ele>
        <time>2026-05-19T16:02:53Z</time>
      </trkpt>
      <trkpt lat="43.62747" lon="3.11394">
        <ele>228.3</ele>
        <time>2026-05-19T16:02:58Z</time>
      </trkpt>
      <trkpt lat="43.62744" lon="3.11392">
        <ele>227.7</ele>
        <time>2026-05-19T16:03:03Z</time>
      </trkpt>
      <trkpt lat="43.62744" lon="3.11392">
        <ele>227.7</ele>
        <time>2026-05-19T16:03:08Z</time>
      </trkpt>
      <trkpt lat="43.62744" lon="3.11392">
        <ele>227.7</ele>
        <time>2026-05-19T16:03:13Z</time>
      </trkpt>
      <trkpt lat="43.62744" lon="3.11392">
        <ele>227.7</ele>
        <time>2026-05-19T16:03:18Z</time>
      </trkpt>
      <trkpt lat="43.62744" lon="3.11392">
        <ele>227.7</ele>
        <time>2026-05-19T16:03:23Z</time>
      </trkpt>
      <trkpt lat="43.62744" lon="3.11392">
        <ele>227.7</ele>
        <time>2026-05-19T16:03:28Z</time>
      </trkpt>
      <trkpt lat="43.62744" lon="3.11392">
        <ele>227.7</ele>
        <time>2026-05-19T16:03:33Z</time>
      </trkpt>
      <trkpt lat="43.62744" lon="3.11392">
        <ele>227.7</ele>
        <time>2026-05-19T16:03:38Z</time>
      </trkpt>
      <trkpt lat="43.62744" lon="3.11392">
        <ele>227.7</ele>
        <time>2026-05-19T16:03:43Z</time>
      </trkpt>
      <trkpt lat="43.62734" lon="3.11381">
        <ele>226</ele>
        <time>2026-05-19T16:03:48Z</time>
      </trkpt>
      <trkpt lat="43.62732" lon="3.1138">
        <ele>225.7</ele>
        <time>2026-05-19T16:03:53Z</time>
      </trkpt>
      <trkpt lat="43.62731" lon="3.11379">
        <ele>225.5</ele>
        <time>2026-05-19T16:03:58Z</time>
      </trkpt>
      <trkpt lat="43.62728" lon="3.11379">
        <ele>225</ele>
        <time>2026-05-19T16:04:03Z</time>
      </trkpt>
      <trkpt lat="43.62723" lon="3.11378">
        <ele>224.2</ele>
        <time>2026-05-19T16:04:08Z</time>
      </trkpt>
      <trkpt lat="43.62719" lon="3.11377">
        <ele>223.5</ele>
        <time>2026-05-19T16:04:13Z</time>
      </trkpt>
      <trkpt lat="43.62716" lon="3.11376">
        <ele>223</ele>
        <time>2026-05-19T16:04:18Z</time>
      </trkpt>
      <trkpt lat="43.62711" lon="3.11377">
        <ele>222.2</ele>
        <time>2026-05-19T16:04:23Z</time>
      </trkpt>
      <trkpt lat="43.62708" lon="3.1138">
        <ele>221.8</ele>
        <time>2026-05-19T16:04:28Z</time>
      </trkpt>
      <trkpt lat="43.62704" lon="3.11382">
        <ele>221.2</ele>
        <time>2026-05-19T16:04:33Z</time>
      </trkpt>
      <trkpt lat="43.62701" lon="3.11386">
        <ele>220.8</ele>
        <time>2026-05-19T16:04:38Z</time>
      </trkpt>
      <trkpt lat="43.62697" lon="3.11389">
        <ele>220.2</ele>
        <time>2026-05-19T16:04:43Z</time>
      </trkpt>
      <trkpt lat="43.62694" lon="3.11389">
        <ele>219.7</ele>
        <time>2026-05-19T16:04:48Z</time>
      </trkpt>
      <trkpt lat="43.62692" lon="3.11386">
        <ele>219.3</ele>
        <time>2026-05-19T16:04:53Z</time>
      </trkpt>
      <trkpt lat="43.62689" lon="3.11381">
        <ele>218.7</ele>
        <time>2026-05-19T16:04:58Z</time>
      </trkpt>
      <trkpt lat="43.62686" lon="3.11375">
        <ele>218.1</ele>
        <time>2026-05-19T16:05:03Z</time>
      </trkpt>
      <trkpt lat="43.62686" lon="3.11374">
        <ele>218.1</ele>
        <time>2026-05-19T16:05:08Z</time>
      </trkpt>
      <trkpt lat="43.62685" lon="3.11372">
        <ele>217.9</ele>
        <time>2026-05-19T16:05:13Z</time>
      </trkpt>
      <trkpt lat="43.62683" lon="3.11365">
        <ele>217.4</ele>
        <time>2026-05-19T16:05:18Z</time>
      </trkpt>
      <trkpt lat="43.62678" lon="3.1136">
        <ele>216.5</ele>
        <time>2026-05-19T16:05:23Z</time>
      </trkpt>
      <trkpt lat="43.62673" lon="3.11355">
        <ele>215.6</ele>
        <time>2026-05-19T16:05:28Z</time>
      </trkpt>
      <trkpt lat="43.62669" lon="3.11351">
        <ele>214.8</ele>
        <time>2026-05-19T16:05:33Z</time>
      </trkpt>
      <trkpt lat="43.62664" lon="3.11346">
        <ele>214.1</ele>
        <time>2026-05-19T16:05:38Z</time>
      </trkpt>
      <trkpt lat="43.62659" lon="3.1134">
        <ele>213.5</ele>
        <time>2026-05-19T16:05:43Z</time>
      </trkpt>
      <trkpt lat="43.62654" lon="3.11335">
        <ele>213</ele>
        <time>2026-05-19T16:05:48Z</time>
      </trkpt>
      <trkpt lat="43.62647" lon="3.11329">
        <ele>212.3</ele>
        <time>2026-05-19T16:05:53Z</time>
      </trkpt>
      <trkpt lat="43.62643" lon="3.11324">
        <ele>211.9</ele>
        <time>2026-05-19T16:05:58Z</time>
      </trkpt>
      <trkpt lat="43.62639" lon="3.11318">
        <ele>211.5</ele>
        <time>2026-05-19T16:06:03Z</time>
      </trkpt>
      <trkpt lat="43.62636" lon="3.11312">
        <ele>211.2</ele>
        <time>2026-05-19T16:06:08Z</time>
      </trkpt>
      <trkpt lat="43.62635" lon="3.11305">
        <ele>211</ele>
        <time>2026-05-19T16:06:13Z</time>
      </trkpt>
      <trkpt lat="43.62633" lon="3.11294">
        <ele>210.8</ele>
        <time>2026-05-19T16:06:18Z</time>
      </trkpt>
      <trkpt lat="43.62631" lon="3.11285">
        <ele>210.6</ele>
        <time>2026-05-19T16:06:23Z</time>
      </trkpt>
      <trkpt lat="43.62631" lon="3.11277">
        <ele>210.5</ele>
        <time>2026-05-19T16:06:28Z</time>
      </trkpt>
      <trkpt lat="43.62629" lon="3.11266">
        <ele>210.3</ele>
        <time>2026-05-19T16:06:33Z</time>
      </trkpt>
      <trkpt lat="43.62629" lon="3.11257">
        <ele>210.2</ele>
        <time>2026-05-19T16:06:38Z</time>
      </trkpt>
      <trkpt lat="43.62628" lon="3.11249">
        <ele>210.2</ele>
        <time>2026-05-19T16:06:43Z</time>
      </trkpt>
      <trkpt lat="43.62628" lon="3.1124">
        <ele>210.4</ele>
        <time>2026-05-19T16:06:48Z</time>
      </trkpt>
      <trkpt lat="43.62629" lon="3.11233">
        <ele>210.7</ele>
        <time>2026-05-19T16:06:53Z</time>
      </trkpt>
      <trkpt lat="43.62631" lon="3.11223">
        <ele>211</ele>
        <time>2026-05-19T16:06:58Z</time>
      </trkpt>
      <trkpt lat="43.62635" lon="3.11215">
        <ele>211.3</ele>
        <time>2026-05-19T16:07:03Z</time>
      </trkpt>
      <trkpt lat="43.62637" lon="3.11207">
        <ele>211.5</ele>
        <time>2026-05-19T16:07:08Z</time>
      </trkpt>
      <trkpt lat="43.62641" lon="3.11198">
        <ele>211.7</ele>
        <time>2026-05-19T16:07:13Z</time>
      </trkpt>
      <trkpt lat="43.62644" lon="3.11191">
        <ele>211.9</ele>
        <time>2026-05-19T16:07:18Z</time>
      </trkpt>
      <trkpt lat="43.62648" lon="3.11185">
        <ele>212</ele>
        <time>2026-05-19T16:07:23Z</time>
      </trkpt>
      <trkpt lat="43.62653" lon="3.11181">
        <ele>212</ele>
        <time>2026-05-19T16:07:28Z</time>
      </trkpt>
      <trkpt lat="43.62657" lon="3.11176">
        <ele>212.1</ele>
        <time>2026-05-19T16:07:33Z</time>
      </trkpt>
      <trkpt lat="43.62661" lon="3.11171">
        <ele>212.1</ele>
        <time>2026-05-19T16:07:38Z</time>
      </trkpt>
      <trkpt lat="43.62664" lon="3.11165">
        <ele>212.1</ele>
        <time>2026-05-19T16:07:43Z</time>
      </trkpt>
      <trkpt lat="43.62669" lon="3.11161">
        <ele>212.2</ele>
        <time>2026-05-19T16:07:48Z</time>
      </trkpt>
      <trkpt lat="43.62676" lon="3.1116">
        <ele>212.7</ele>
        <time>2026-05-19T16:07:53Z</time>
      </trkpt>
      <trkpt lat="43.62677" lon="3.11154">
        <ele>212.7</ele>
        <time>2026-05-19T16:07:58Z</time>
      </trkpt>
      <trkpt lat="43.62674" lon="3.1115">
        <ele>212.6</ele>
        <time>2026-05-19T16:08:03Z</time>
      </trkpt>
      <trkpt lat="43.62672" lon="3.11148">
        <ele>212.5</ele>
        <time>2026-05-19T16:08:08Z</time>
      </trkpt>
      <trkpt lat="43.62669" lon="3.11142">
        <ele>212.4</ele>
        <time>2026-05-19T16:08:13Z</time>
      </trkpt>
      <trkpt lat="43.62668" lon="3.1114">
        <ele>212.4</ele>
        <time>2026-05-19T16:08:18Z</time>
      </trkpt>
      <trkpt lat="43.62668" lon="3.11139">
        <ele>212.4</ele>
        <time>2026-05-19T16:08:23Z</time>
      </trkpt>
      <trkpt lat="43.62668" lon="3.11139">
        <ele>212.4</ele>
        <time>2026-05-19T16:08:28Z</time>
      </trkpt>
      <trkpt lat="43.62668" lon="3.11139">
        <ele>212.4</ele>
        <time>2026-05-19T16:08:33Z</time>
      </trkpt>
      <trkpt lat="43.62668" lon="3.11139">
        <ele>212.4</ele>
        <time>2026-05-19T16:08:38Z</time>
      </trkpt>
      <trkpt lat="43.62668" lon="3.11135">
        <ele>212.4</ele>
        <time>2026-05-19T16:08:43Z</time>
      </trkpt>
      <trkpt lat="43.62669" lon="3.11129">
        <ele>212.5</ele>
        <time>2026-05-19T16:08:48Z</time>
      </trkpt>
      <trkpt lat="43.62669" lon="3.11129">
        <ele>212.5</ele>
        <time>2026-05-19T16:08:53Z</time>
      </trkpt>
      <trkpt lat="43.62668" lon="3.11131">
        <ele>212.5</ele>
        <time>2026-05-19T16:08:58Z</time>
      </trkpt>
      <trkpt lat="43.62668" lon="3.11131">
        <ele>212.5</ele>
        <time>2026-05-19T16:09:03Z</time>
      </trkpt>
      <trkpt lat="43.62668" lon="3.11131">
        <ele>212.5</ele>
        <time>2026-05-19T16:09:08Z</time>
      </trkpt>
      <trkpt lat="43.62668" lon="3.11131">
        <ele>212.5</ele>
        <time>2026-05-19T16:09:13Z</time>
      </trkpt>
      <trkpt lat="43.62668" lon="3.11131">
        <ele>212.5</ele>
        <time>2026-05-19T16:09:18Z</time>
      </trkpt>
      <trkpt lat="43.62668" lon="3.11131">
        <ele>212.5</ele>
        <time>2026-05-19T16:09:23Z</time>
      </trkpt>
      <trkpt lat="43.62673" lon="3.11134">
        <ele>212.6</ele>
        <time>2026-05-19T16:09:28Z</time>
      </trkpt>
      <trkpt lat="43.62677" lon="3.11144">
        <ele>212.7</ele>
        <time>2026-05-19T16:09:33Z</time>
      </trkpt>
      <trkpt lat="43.6268" lon="3.11152">
        <ele>212.9</ele>
        <time>2026-05-19T16:09:38Z</time>
      </trkpt>
      <trkpt lat="43.62678" lon="3.11158">
        <ele>212.8</ele>
        <time>2026-05-19T16:09:43Z</time>
      </trkpt>
      <trkpt lat="43.62672" lon="3.11161">
        <ele>212.4</ele>
        <time>2026-05-19T16:09:48Z</time>
      </trkpt>
      <trkpt lat="43.62667" lon="3.11165">
        <ele>212</ele>
        <time>2026-05-19T16:09:53Z</time>
      </trkpt>
      <trkpt lat="43.62662" lon="3.11167">
        <ele>212.1</ele>
        <time>2026-05-19T16:09:58Z</time>
      </trkpt>
      <trkpt lat="43.62657" lon="3.11171">
        <ele>212.1</ele>
        <time>2026-05-19T16:10:03Z</time>
      </trkpt>
      <trkpt lat="43.62651" lon="3.11173">
        <ele>212.1</ele>
        <time>2026-05-19T16:10:08Z</time>
      </trkpt>
      <trkpt lat="43.62646" lon="3.11178">
        <ele>212.1</ele>
        <time>2026-05-19T16:10:13Z</time>
      </trkpt>
      <trkpt lat="43.62642" lon="3.11182">
        <ele>212</ele>
        <time>2026-05-19T16:10:18Z</time>
      </trkpt>
      <trkpt lat="43.62638" lon="3.11187">
        <ele>211.9</ele>
        <time>2026-05-19T16:10:23Z</time>
      </trkpt>
      <trkpt lat="43.62632" lon="3.11192">
        <ele>211.8</ele>
        <time>2026-05-19T16:10:28Z</time>
      </trkpt>
      <trkpt lat="43.62627" lon="3.11196">
        <ele>211.6</ele>
        <time>2026-05-19T16:10:33Z</time>
      </trkpt>
      <trkpt lat="43.62624" lon="3.112">
        <ele>211.5</ele>
        <time>2026-05-19T16:10:38Z</time>
      </trkpt>
      <trkpt lat="43.62619" lon="3.11204">
        <ele>211.3</ele>
        <time>2026-05-19T16:10:43Z</time>
      </trkpt>
      <trkpt lat="43.62614" lon="3.11209">
        <ele>211</ele>
        <time>2026-05-19T16:10:48Z</time>
      </trkpt>
      <trkpt lat="43.62607" lon="3.11212">
        <ele>210.8</ele>
        <time>2026-05-19T16:10:53Z</time>
      </trkpt>
      <trkpt lat="43.62601" lon="3.11217">
        <ele>210.4</ele>
        <time>2026-05-19T16:10:58Z</time>
      </trkpt>
      <trkpt lat="43.62595" lon="3.11224">
        <ele>209.9</ele>
        <time>2026-05-19T16:11:03Z</time>
      </trkpt>
      <trkpt lat="43.6259" lon="3.11228">
        <ele>209.5</ele>
        <time>2026-05-19T16:11:08Z</time>
      </trkpt>
      <trkpt lat="43.62589" lon="3.1123">
        <ele>209.4</ele>
        <time>2026-05-19T16:11:13Z</time>
      </trkpt>
      <trkpt lat="43.62588" lon="3.11231">
        <ele>209.3</ele>
        <time>2026-05-19T16:11:18Z</time>
      </trkpt>
      <trkpt lat="43.62588" lon="3.11231">
        <ele>209.3</ele>
        <time>2026-05-19T16:11:23Z</time>
      </trkpt>
      <trkpt lat="43.62588" lon="3.11231">
        <ele>209.3</ele>
        <time>2026-05-19T16:11:28Z</time>
      </trkpt>
      <trkpt lat="43.62587" lon="3.11231">
        <ele>209.3</ele>
        <time>2026-05-19T16:11:33Z</time>
      </trkpt>
      <trkpt lat="43.62585" lon="3.1124">
        <ele>208.7</ele>
        <time>2026-05-19T16:11:38Z</time>
      </trkpt>
      <trkpt lat="43.62583" lon="3.11247">
        <ele>208.2</ele>
        <time>2026-05-19T16:11:43Z</time>
      </trkpt>
      <trkpt lat="43.62581" lon="3.11255">
        <ele>208.2</ele>
        <time>2026-05-19T16:11:48Z</time>
      </trkpt>
      <trkpt lat="43.62579" lon="3.11264">
        <ele>208.3</ele>
        <time>2026-05-19T16:11:53Z</time>
      </trkpt>
      <trkpt lat="43.62576" lon="3.11272">
        <ele>208.5</ele>
        <time>2026-05-19T16:11:58Z</time>
      </trkpt>
      <trkpt lat="43.62571" lon="3.11277">
        <ele>209</ele>
        <time>2026-05-19T16:12:03Z</time>
      </trkpt>
      <trkpt lat="43.62567" lon="3.11282">
        <ele>209.3</ele>
        <time>2026-05-19T16:12:08Z</time>
      </trkpt>
      <trkpt lat="43.62561" lon="3.11288">
        <ele>209.8</ele>
        <time>2026-05-19T16:12:13Z</time>
      </trkpt>
      <trkpt lat="43.62555" lon="3.11294">
        <ele>210.4</ele>
        <time>2026-05-19T16:12:18Z</time>
      </trkpt>
      <trkpt lat="43.62551" lon="3.113">
        <ele>210.7</ele>
        <time>2026-05-19T16:12:23Z</time>
      </trkpt>
      <trkpt lat="43.62547" lon="3.11306">
        <ele>211</ele>
        <time>2026-05-19T16:12:28Z</time>
      </trkpt>
      <trkpt lat="43.62543" lon="3.1131">
        <ele>211.3</ele>
        <time>2026-05-19T16:12:33Z</time>
      </trkpt>
      <trkpt lat="43.62538" lon="3.11315">
        <ele>211.7</ele>
        <time>2026-05-19T16:12:38Z</time>
      </trkpt>
      <trkpt lat="43.62534" lon="3.11321">
        <ele>212</ele>
        <time>2026-05-19T16:12:43Z</time>
      </trkpt>
      <trkpt lat="43.62529" lon="3.11326">
        <ele>212.4</ele>
        <time>2026-05-19T16:12:48Z</time>
      </trkpt>
      <trkpt lat="43.62525" lon="3.11333">
        <ele>212.6</ele>
        <time>2026-05-19T16:12:53Z</time>
      </trkpt>
      <trkpt lat="43.6252" lon="3.11341">
        <ele>213.3</ele>
        <time>2026-05-19T16:12:58Z</time>
      </trkpt>
      <trkpt lat="43.62516" lon="3.11347">
        <ele>213.9</ele>
        <time>2026-05-19T16:13:03Z</time>
      </trkpt>
      <trkpt lat="43.62513" lon="3.11353">
        <ele>214.3</ele>
        <time>2026-05-19T16:13:08Z</time>
      </trkpt>
      <trkpt lat="43.6251" lon="3.1136">
        <ele>214.9</ele>
        <time>2026-05-19T16:13:13Z</time>
      </trkpt>
      <trkpt lat="43.62507" lon="3.11371">
        <ele>215.6</ele>
        <time>2026-05-19T16:13:18Z</time>
      </trkpt>
      <trkpt lat="43.62504" lon="3.11382">
        <ele>216.3</ele>
        <time>2026-05-19T16:13:23Z</time>
      </trkpt>
      <trkpt lat="43.62502" lon="3.11389">
        <ele>216.8</ele>
        <time>2026-05-19T16:13:28Z</time>
      </trkpt>
      <trkpt lat="43.62498" lon="3.11395">
        <ele>217.7</ele>
        <time>2026-05-19T16:13:33Z</time>
      </trkpt>
      <trkpt lat="43.62494" lon="3.11404">
        <ele>218.9</ele>
        <time>2026-05-19T16:13:38Z</time>
      </trkpt>
      <trkpt lat="43.62492" lon="3.11414">
        <ele>219.7</ele>
        <time>2026-05-19T16:13:43Z</time>
      </trkpt>
      <trkpt lat="43.62491" lon="3.11422">
        <ele>220.4</ele>
        <time>2026-05-19T16:13:48Z</time>
      </trkpt>
      <trkpt lat="43.6249" lon="3.11429">
        <ele>221</ele>
        <time>2026-05-19T16:13:53Z</time>
      </trkpt>
      <trkpt lat="43.62487" lon="3.11438">
        <ele>222.2</ele>
        <time>2026-05-19T16:13:58Z</time>
      </trkpt>
      <trkpt lat="43.62485" lon="3.11447">
        <ele>223.1</ele>
        <time>2026-05-19T16:14:03Z</time>
      </trkpt>
      <trkpt lat="43.62484" lon="3.11455">
        <ele>223.7</ele>
        <time>2026-05-19T16:14:08Z</time>
      </trkpt>
      <trkpt lat="43.62483" lon="3.11464">
        <ele>224.4</ele>
        <time>2026-05-19T16:14:13Z</time>
      </trkpt>
      <trkpt lat="43.62484" lon="3.11471">
        <ele>224.6</ele>
        <time>2026-05-19T16:14:18Z</time>
      </trkpt>
      <trkpt lat="43.62484" lon="3.11478">
        <ele>224.9</ele>
        <time>2026-05-19T16:14:23Z</time>
      </trkpt>
      <trkpt lat="43.62486" lon="3.11485">
        <ele>225</ele>
        <time>2026-05-19T16:14:28Z</time>
      </trkpt>
      <trkpt lat="43.62488" lon="3.11491">
        <ele>225.1</ele>
        <time>2026-05-19T16:14:33Z</time>
      </trkpt>
      <trkpt lat="43.62491" lon="3.11497">
        <ele>225</ele>
        <time>2026-05-19T16:14:38Z</time>
      </trkpt>
      <trkpt lat="43.62493" lon="3.11506">
        <ele>225.6</ele>
        <time>2026-05-19T16:14:43Z</time>
      </trkpt>
      <trkpt lat="43.62496" lon="3.11512">
        <ele>225.9</ele>
        <time>2026-05-19T16:14:48Z</time>
      </trkpt>
      <trkpt lat="43.62498" lon="3.1152">
        <ele>226.6</ele>
        <time>2026-05-19T16:14:53Z</time>
      </trkpt>
      <trkpt lat="43.62501" lon="3.11527">
        <ele>227</ele>
        <time>2026-05-19T16:14:58Z</time>
      </trkpt>
      <trkpt lat="43.62504" lon="3.11535">
        <ele>227.2</ele>
        <time>2026-05-19T16:15:03Z</time>
      </trkpt>
      <trkpt lat="43.62506" lon="3.11543">
        <ele>227.6</ele>
        <time>2026-05-19T16:15:08Z</time>
      </trkpt>
      <trkpt lat="43.62509" lon="3.11552">
        <ele>227.8</ele>
        <time>2026-05-19T16:15:13Z</time>
      </trkpt>
      <trkpt lat="43.62512" lon="3.1156">
        <ele>227.8</ele>
        <time>2026-05-19T16:15:18Z</time>
      </trkpt>
      <trkpt lat="43.62514" lon="3.11567">
        <ele>228</ele>
        <time>2026-05-19T16:15:23Z</time>
      </trkpt>
      <trkpt lat="43.62517" lon="3.11575">
        <ele>227.9</ele>
        <time>2026-05-19T16:15:28Z</time>
      </trkpt>
      <trkpt lat="43.62518" lon="3.11583">
        <ele>228.4</ele>
        <time>2026-05-19T16:15:33Z</time>
      </trkpt>
      <trkpt lat="43.6252" lon="3.1159">
        <ele>227.5</ele>
        <time>2026-05-19T16:15:38Z</time>
      </trkpt>
      <trkpt lat="43.62522" lon="3.11599">
        <ele>226.5</ele>
        <time>2026-05-19T16:15:43Z</time>
      </trkpt>
      <trkpt lat="43.62524" lon="3.11607">
        <ele>225.6</ele>
        <time>2026-05-19T16:15:48Z</time>
      </trkpt>
      <trkpt lat="43.62525" lon="3.11616">
        <ele>224.9</ele>
        <time>2026-05-19T16:15:53Z</time>
      </trkpt>
      <trkpt lat="43.62528" lon="3.11622">
        <ele>223.9</ele>
        <time>2026-05-19T16:15:58Z</time>
      </trkpt>
      <trkpt lat="43.62531" lon="3.1163">
        <ele>222.8</ele>
        <time>2026-05-19T16:16:03Z</time>
      </trkpt>
      <trkpt lat="43.62534" lon="3.11638">
        <ele>221.7</ele>
        <time>2026-05-19T16:16:08Z</time>
      </trkpt>
      <trkpt lat="43.62536" lon="3.11647">
        <ele>220.9</ele>
        <time>2026-05-19T16:16:13Z</time>
      </trkpt>
      <trkpt lat="43.62535" lon="3.11654">
        <ele>221</ele>
        <time>2026-05-19T16:16:18Z</time>
      </trkpt>
      <trkpt lat="43.62532" lon="3.11659">
        <ele>221.6</ele>
        <time>2026-05-19T16:16:23Z</time>
      </trkpt>
      <trkpt lat="43.6253" lon="3.11661">
        <ele>222</ele>
        <time>2026-05-19T16:16:28Z</time>
      </trkpt>
      <trkpt lat="43.62526" lon="3.11661">
        <ele>223</ele>
        <time>2026-05-19T16:16:33Z</time>
      </trkpt>
      <trkpt lat="43.62523" lon="3.11662">
        <ele>223.7</ele>
        <time>2026-05-19T16:16:38Z</time>
      </trkpt>
      <trkpt lat="43.62519" lon="3.11662">
        <ele>224.6</ele>
        <time>2026-05-19T16:16:43Z</time>
      </trkpt>
      <trkpt lat="43.62516" lon="3.11662">
        <ele>225.4</ele>
        <time>2026-05-19T16:16:48Z</time>
      </trkpt>
      <trkpt lat="43.62513" lon="3.11662">
        <ele>226.1</ele>
        <time>2026-05-19T16:16:53Z</time>
      </trkpt>
      <trkpt lat="43.6251" lon="3.11662">
        <ele>226.8</ele>
        <time>2026-05-19T16:16:58Z</time>
      </trkpt>
      <trkpt lat="43.62508" lon="3.11662">
        <ele>227.3</ele>
        <time>2026-05-19T16:17:03Z</time>
      </trkpt>
      <trkpt lat="43.62508" lon="3.11662">
        <ele>227.3</ele>
        <time>2026-05-19T16:17:08Z</time>
      </trkpt>
      <trkpt lat="43.62508" lon="3.11662">
        <ele>227.3</ele>
        <time>2026-05-19T16:17:13Z</time>
      </trkpt>
      <trkpt lat="43.62508" lon="3.11662">
        <ele>227.3</ele>
        <time>2026-05-19T16:17:18Z</time>
      </trkpt>
      <trkpt lat="43.62508" lon="3.11662">
        <ele>227.3</ele>
        <time>2026-05-19T16:17:23Z</time>
      </trkpt>
      <trkpt lat="43.62508" lon="3.11662">
        <ele>227.3</ele>
        <time>2026-05-19T16:17:28Z</time>
      </trkpt>
      <trkpt lat="43.62508" lon="3.11662">
        <ele>227.3</ele>
        <time>2026-05-19T16:17:33Z</time>
      </trkpt>
      <trkpt lat="43.62508" lon="3.11662">
        <ele>227.3</ele>
        <time>2026-05-19T16:17:38Z</time>
      </trkpt>
      <trkpt lat="43.62508" lon="3.11662">
        <ele>227.3</ele>
        <time>2026-05-19T16:17:43Z</time>
      </trkpt>
      <trkpt lat="43.62508" lon="3.11662">
        <ele>227.3</ele>
        <time>2026-05-19T16:17:48Z</time>
      </trkpt>
      <trkpt lat="43.62508" lon="3.11662">
        <ele>227.3</ele>
        <time>2026-05-19T16:17:53Z</time>
      </trkpt>
      <trkpt lat="43.62508" lon="3.11662">
        <ele>227.3</ele>
        <time>2026-05-19T16:17:58Z</time>
      </trkpt>
      <trkpt lat="43.62508" lon="3.11662">
        <ele>227.3</ele>
        <time>2026-05-19T16:18:03Z</time>
      </trkpt>
      <trkpt lat="43.62508" lon="3.11662">
        <ele>227.3</ele>
        <time>2026-05-19T16:18:08Z</time>
      </trkpt>
      <trkpt lat="43.62498" lon="3.11659">
        <ele>229.5</ele>
        <time>2026-05-19T16:18:13Z</time>
      </trkpt>
      <trkpt lat="43.62494" lon="3.11659">
        <ele>229.5</ele>
        <time>2026-05-19T16:18:18Z</time>
      </trkpt>
      <trkpt lat="43.62491" lon="3.11659">
        <ele>229.5</ele>
        <time>2026-05-19T16:18:23Z</time>
      </trkpt>
      <trkpt lat="43.62489" lon="3.11657">
        <ele>229.7</ele>
        <time>2026-05-19T16:18:28Z</time>
      </trkpt>
      <trkpt lat="43.62488" lon="3.11657">
        <ele>229.7</ele>
        <time>2026-05-19T16:18:33Z</time>
      </trkpt>
      <trkpt lat="43.62487" lon="3.11657">
        <ele>229.7</ele>
        <time>2026-05-19T16:18:38Z</time>
      </trkpt>
      <trkpt lat="43.62487" lon="3.11657">
        <ele>229.7</ele>
        <time>2026-05-19T16:18:43Z</time>
      </trkpt>
      <trkpt lat="43.62485" lon="3.11651">
        <ele>230.1</ele>
        <time>2026-05-19T16:18:48Z</time>
      </trkpt>
      <trkpt lat="43.62485" lon="3.11646">
        <ele>230.3</ele>
        <time>2026-05-19T16:18:53Z</time>
      </trkpt>
      <trkpt lat="43.62485" lon="3.11641">
        <ele>230.6</ele>
        <time>2026-05-19T16:18:58Z</time>
      </trkpt>
      <trkpt lat="43.62485" lon="3.11638">
        <ele>230.8</ele>
        <time>2026-05-19T16:19:03Z</time>
      </trkpt>
      <trkpt lat="43.62484" lon="3.11636">
        <ele>230.9</ele>
        <time>2026-05-19T16:19:08Z</time>
      </trkpt>
      <trkpt lat="43.62481" lon="3.11632">
        <ele>231.1</ele>
        <time>2026-05-19T16:19:13Z</time>
      </trkpt>
      <trkpt lat="43.62479" lon="3.11629">
        <ele>231.3</ele>
        <time>2026-05-19T16:19:18Z</time>
      </trkpt>
      <trkpt lat="43.62476" lon="3.11625">
        <ele>231.5</ele>
        <time>2026-05-19T16:19:23Z</time>
      </trkpt>
      <trkpt lat="43.62475" lon="3.11625">
        <ele>231.5</ele>
        <time>2026-05-19T16:19:28Z</time>
      </trkpt>
      <trkpt lat="43.62477" lon="3.11632">
        <ele>231.1</ele>
        <time>2026-05-19T16:19:33Z</time>
      </trkpt>
      <trkpt lat="43.62478" lon="3.1164">
        <ele>230.7</ele>
        <time>2026-05-19T16:19:38Z</time>
      </trkpt>
      <trkpt lat="43.62478" lon="3.11646">
        <ele>230.4</ele>
        <time>2026-05-19T16:19:43Z</time>
      </trkpt>
      <trkpt lat="43.62479" lon="3.11651">
        <ele>230.1</ele>
        <time>2026-05-19T16:19:48Z</time>
      </trkpt>
      <trkpt lat="43.62479" lon="3.11653">
        <ele>230</ele>
        <time>2026-05-19T16:19:53Z</time>
      </trkpt>
      <trkpt lat="43.62479" lon="3.11653">
        <ele>230</ele>
        <time>2026-05-19T16:19:58Z</time>
      </trkpt>
      <trkpt lat="43.62479" lon="3.11653">
        <ele>230</ele>
        <time>2026-05-19T16:20:03Z</time>
      </trkpt>
      <trkpt lat="43.62478" lon="3.11661">
        <ele>229.6</ele>
        <time>2026-05-19T16:20:08Z</time>
      </trkpt>
      <trkpt lat="43.62477" lon="3.11666">
        <ele>229.3</ele>
        <time>2026-05-19T16:20:13Z</time>
      </trkpt>
      <trkpt lat="43.62476" lon="3.11669">
        <ele>229</ele>
        <time>2026-05-19T16:20:18Z</time>
      </trkpt>
      <trkpt lat="43.62476" lon="3.11669">
        <ele>229</ele>
        <time>2026-05-19T16:20:23Z</time>
      </trkpt>
    </trkseg>
  </trk>
</gpx>